<?xml version='1.0' encoding='UTF-8'?><gpx version="1.1" creator="JPX - https://github.com/jenetics/jpx" xmlns="http://www.topografix.com/GPX/1/1"><trk><trkseg><trkpt lat="45.1482909" lon="10.7746337"><ele>21.0</ele><time>2026-05-02T05:42:46.902Z</time></trkpt><trkpt lat="45.1483583" lon="10.7746378"><ele>21.0</ele><time>2026-05-02T05:42:49.15Z</time></trkpt><trkpt lat="45.1484181" lon="10.7745449"><ele>21.0</ele><time>2026-05-02T05:42:52.149Z</time></trkpt><trkpt lat="45.1484433" lon="10.7744227"><ele>21.0</ele><time>2026-05-02T05:42:55.149Z</time></trkpt><trkpt lat="45.1484432" lon="10.7743052"><ele>21.0</ele><time>2026-05-02T05:42:58.15Z</time></trkpt><trkpt lat="45.1484558" lon="10.7741927"><ele>21.0</ele><time>2026-05-02T05:43:01.149Z</time></trkpt><trkpt lat="45.1484944" lon="10.7740744"><ele>21.428571428571427</ele><time>2026-05-02T05:43:04.151Z</time></trkpt><trkpt lat="45.1485269" lon="10.7739972"><ele>21.857142857142858</ele><time>2026-05-02T05:43:06.151Z</time></trkpt><trkpt lat="45.1485652" lon="10.7739182"><ele>22.285714285714285</ele><time>2026-05-02T05:43:08.149Z</time></trkpt><trkpt lat="45.1486079" lon="10.7738361"><ele>22.714285714285715</ele><time>2026-05-02T05:43:10.149Z</time></trkpt><trkpt lat="45.1486573" lon="10.7737674"><ele>23.142857142857142</ele><time>2026-05-02T05:43:12.148Z</time></trkpt><trkpt lat="45.1486999" lon="10.7736852"><ele>23.57142857142857</ele><time>2026-05-02T05:43:14.149Z</time></trkpt><trkpt lat="45.1487386" lon="10.7735982"><ele>24.0</ele><time>2026-05-02T05:43:16.149Z</time></trkpt><trkpt lat="45.1487869" lon="10.7735197"><ele>24.333333333333332</ele><time>2026-05-02T05:43:18.149Z</time></trkpt><trkpt lat="45.1488358" lon="10.7734265"><ele>24.666666666666664</ele><time>2026-05-02T05:43:20.15Z</time></trkpt><trkpt lat="45.1488773" lon="10.7733525"><ele>25.0</ele><time>2026-05-02T05:43:22.15Z</time></trkpt><trkpt lat="45.1489162" lon="10.7732564"><ele>25.333333333333332</ele><time>2026-05-02T05:43:24.15Z</time></trkpt><trkpt lat="45.1489516" lon="10.7731747"><ele>25.666666666666664</ele><time>2026-05-02T05:43:26.15Z</time></trkpt><trkpt lat="45.1490017" lon="10.7730902"><ele>26.0</ele><time>2026-05-02T05:43:28.149Z</time></trkpt><trkpt lat="45.1490534" lon="10.7730035"><ele>25.999999999999996</ele><time>2026-05-02T05:43:30.149Z</time></trkpt><trkpt lat="45.1491071" lon="10.7729137"><ele>26.0</ele><time>2026-05-02T05:43:32.15Z</time></trkpt><trkpt lat="45.1491399" lon="10.7728346"><ele>26.0</ele><time>2026-05-02T05:43:34.149Z</time></trkpt><trkpt lat="45.1492173" lon="10.7727181"><ele>26.0</ele><time>2026-05-02T05:43:38.15Z</time></trkpt><trkpt lat="45.1492844" lon="10.7726965"><ele>25.999999999999996</ele><time>2026-05-02T05:43:40.15Z</time></trkpt><trkpt lat="45.1493548" lon="10.7726709"><ele>26.0</ele><time>2026-05-02T05:43:42.149Z</time></trkpt><trkpt lat="45.1494277" lon="10.7726589"><ele>25.857142857142858</ele><time>2026-05-02T05:43:44.149Z</time></trkpt><trkpt lat="45.1495022" lon="10.7726486"><ele>25.714285714285715</ele><time>2026-05-02T05:43:46.149Z</time></trkpt><trkpt lat="45.1495764" lon="10.7726403"><ele>25.571428571428573</ele><time>2026-05-02T05:43:48.15Z</time></trkpt><trkpt lat="45.1496495" lon="10.7726326"><ele>25.42857142857143</ele><time>2026-05-02T05:43:50.149Z</time></trkpt><trkpt lat="45.1497236" lon="10.7726262"><ele>25.285714285714285</ele><time>2026-05-02T05:43:52.15Z</time></trkpt><trkpt lat="45.1497978" lon="10.7726229"><ele>25.142857142857146</ele><time>2026-05-02T05:43:54.149Z</time></trkpt><trkpt lat="45.1498722" lon="10.7726158"><ele>25.0</ele><time>2026-05-02T05:43:56.15Z</time></trkpt><trkpt lat="45.1499467" lon="10.772603"><ele>25.000000000000004</ele><time>2026-05-02T05:43:58.15Z</time></trkpt><trkpt lat="45.150018" lon="10.7725947"><ele>25.0</ele><time>2026-05-02T05:44:00.149Z</time></trkpt><trkpt lat="45.1500862" lon="10.7725735"><ele>25.0</ele><time>2026-05-02T05:44:02.149Z</time></trkpt><trkpt lat="45.1501138" lon="10.772489"><ele>25.0</ele><time>2026-05-02T05:44:04.15Z</time></trkpt><trkpt lat="45.1501401" lon="10.7723993"><ele>25.0</ele><time>2026-05-02T05:44:06.15Z</time></trkpt><trkpt lat="45.1502321" lon="10.7723738"><ele>25.000000000000004</ele><time>2026-05-02T05:44:09.15Z</time></trkpt><trkpt lat="45.1503003" lon="10.7723737"><ele>25.0</ele><time>2026-05-02T05:44:11.15Z</time></trkpt><trkpt lat="45.1503913" lon="10.7723712"><ele>25.000000000000004</ele><time>2026-05-02T05:44:14.15Z</time></trkpt><trkpt lat="45.1504844" lon="10.7723641"><ele>25.0</ele><time>2026-05-02T05:44:17.148Z</time></trkpt><trkpt lat="45.1505767" lon="10.7723636"><ele>25.0</ele><time>2026-05-02T05:44:20.149Z</time></trkpt><trkpt lat="45.1506398" lon="10.7723639"><ele>25.0</ele><time>2026-05-02T05:44:22.149Z</time></trkpt><trkpt lat="45.1507089" lon="10.7723533"><ele>25.000000000000004</ele><time>2026-05-02T05:44:24.15Z</time></trkpt><trkpt lat="45.1507754" lon="10.7723461"><ele>25.0</ele><time>2026-05-02T05:44:26.15Z</time></trkpt><trkpt lat="45.1508441" lon="10.7723377"><ele>24.857142857142858</ele><time>2026-05-02T05:44:28.148Z</time></trkpt><trkpt lat="45.1509415" lon="10.7723239"><ele>24.714285714285715</ele><time>2026-05-02T05:44:31.15Z</time></trkpt><trkpt lat="45.1510166" lon="10.7723131"><ele>24.57142857142857</ele><time>2026-05-02T05:44:33.149Z</time></trkpt><trkpt lat="45.1510874" lon="10.7723075"><ele>24.42857142857143</ele><time>2026-05-02T05:44:35.15Z</time></trkpt><trkpt lat="45.1511507" lon="10.7722983"><ele>24.285714285714285</ele><time>2026-05-02T05:44:37.149Z</time></trkpt><trkpt lat="45.151222" lon="10.7722991"><ele>24.142857142857142</ele><time>2026-05-02T05:44:39.15Z</time></trkpt><trkpt lat="45.1512912" lon="10.7722982"><ele>24.0</ele><time>2026-05-02T05:44:41.15Z</time></trkpt><trkpt lat="45.1513655" lon="10.7722942"><ele>24.0</ele><time>2026-05-02T05:44:43.15Z</time></trkpt><trkpt lat="45.1514457" lon="10.7722829"><ele>24.0</ele><time>2026-05-02T05:44:45.15Z</time></trkpt><trkpt lat="45.1515234" lon="10.7722815"><ele>24.0</ele><time>2026-05-02T05:44:47.149Z</time></trkpt><trkpt lat="45.1516028" lon="10.7722631"><ele>24.0</ele><time>2026-05-02T05:44:49.15Z</time></trkpt><trkpt lat="45.1516807" lon="10.7722562"><ele>24.0</ele><time>2026-05-02T05:44:51.149Z</time></trkpt><trkpt lat="45.151755" lon="10.7722504"><ele>24.0</ele><time>2026-05-02T05:44:53.151Z</time></trkpt><trkpt lat="45.1518246" lon="10.7722398"><ele>24.0</ele><time>2026-05-02T05:44:55.15Z</time></trkpt><trkpt lat="45.1518988" lon="10.7722296"><ele>24.0</ele><time>2026-05-02T05:44:57.151Z</time></trkpt><trkpt lat="45.1519756" lon="10.7722259"><ele>24.0</ele><time>2026-05-02T05:44:59.149Z</time></trkpt><trkpt lat="45.1520558" lon="10.7722289"><ele>24.0</ele><time>2026-05-02T05:45:01.15Z</time></trkpt><trkpt lat="45.1521324" lon="10.772229"><ele>24.0</ele><time>2026-05-02T05:45:03.149Z</time></trkpt><trkpt lat="45.1522058" lon="10.7722262"><ele>24.0</ele><time>2026-05-02T05:45:05.148Z</time></trkpt><trkpt lat="45.1522746" lon="10.7722147"><ele>24.0</ele><time>2026-05-02T05:45:07.15Z</time></trkpt><trkpt lat="45.1523573" lon="10.7722558"><ele>24.0</ele><time>2026-05-02T05:45:10.149Z</time></trkpt><trkpt lat="45.1524332" lon="10.7723207"><ele>24.0</ele><time>2026-05-02T05:45:13.149Z</time></trkpt><trkpt lat="45.1524992" lon="10.7723259"><ele>24.0</ele><time>2026-05-02T05:45:15.148Z</time></trkpt><trkpt lat="45.1525734" lon="10.7723406"><ele>24.0</ele><time>2026-05-02T05:45:17.15Z</time></trkpt><trkpt lat="45.1526507" lon="10.772362"><ele>24.0</ele><time>2026-05-02T05:45:19.151Z</time></trkpt><trkpt lat="45.1527379" lon="10.7723991"><ele>24.166666666666668</ele><time>2026-05-02T05:45:22.148Z</time></trkpt><trkpt lat="45.1528043" lon="10.7724185"><ele>24.333333333333336</ele><time>2026-05-02T05:45:24.149Z</time></trkpt><trkpt lat="45.1528728" lon="10.7724218"><ele>24.5</ele><time>2026-05-02T05:45:26.149Z</time></trkpt><trkpt lat="45.1529368" lon="10.772435"><ele>24.666666666666668</ele><time>2026-05-02T05:45:28.149Z</time></trkpt><trkpt lat="45.1530223" lon="10.7724647"><ele>24.833333333333336</ele><time>2026-05-02T05:45:31.149Z</time></trkpt><trkpt lat="45.1530964" lon="10.7724912"><ele>25.0</ele><time>2026-05-02T05:45:34.15Z</time></trkpt><trkpt lat="45.1531844" lon="10.7725172"><ele>24.857142857142858</ele><time>2026-05-02T05:45:37.148Z</time></trkpt><trkpt lat="45.1532508" lon="10.7725409"><ele>24.714285714285715</ele><time>2026-05-02T05:45:39.149Z</time></trkpt><trkpt lat="45.1533158" lon="10.77257"><ele>24.57142857142857</ele><time>2026-05-02T05:45:41.149Z</time></trkpt><trkpt lat="45.1533816" lon="10.7725936"><ele>24.42857142857143</ele><time>2026-05-02T05:45:43.149Z</time></trkpt><trkpt lat="45.1534472" lon="10.7726257"><ele>24.285714285714285</ele><time>2026-05-02T05:45:45.15Z</time></trkpt><trkpt lat="45.1535113" lon="10.7726533"><ele>24.142857142857142</ele><time>2026-05-02T05:45:47.15Z</time></trkpt><trkpt lat="45.1535723" lon="10.7726868"><ele>24.0</ele><time>2026-05-02T05:45:49.15Z</time></trkpt><trkpt lat="45.1536317" lon="10.7727166"><ele>24.0</ele><time>2026-05-02T05:45:51.149Z</time></trkpt><trkpt lat="45.1537101" lon="10.7727662"><ele>24.0</ele><time>2026-05-02T05:45:54.15Z</time></trkpt><trkpt lat="45.1537851" lon="10.772813"><ele>24.0</ele><time>2026-05-02T05:45:57.149Z</time></trkpt><trkpt lat="45.1538602" lon="10.7728631"><ele>24.0</ele><time>2026-05-02T05:46:00.149Z</time></trkpt><trkpt lat="45.1539407" lon="10.7729212"><ele>24.0</ele><time>2026-05-02T05:46:03.148Z</time></trkpt><trkpt lat="45.1540161" lon="10.7729643"><ele>24.0</ele><time>2026-05-02T05:46:06.149Z</time></trkpt><trkpt lat="45.1540881" lon="10.7729358"><ele>24.0</ele><time>2026-05-02T05:46:09.149Z</time></trkpt><trkpt lat="45.1541101" lon="10.772816"><ele>24.0</ele><time>2026-05-02T05:46:12.148Z</time></trkpt><trkpt lat="45.1541235" lon="10.7726845"><ele>24.0</ele><time>2026-05-02T05:46:15.15Z</time></trkpt><trkpt lat="45.1541432" lon="10.7725599"><ele>24.0</ele><time>2026-05-02T05:46:18.15Z</time></trkpt><trkpt lat="45.154148" lon="10.7724309"><ele>24.0</ele><time>2026-05-02T05:46:21.15Z</time></trkpt><trkpt lat="45.1541314" lon="10.772299"><ele>23.999999999999996</ele><time>2026-05-02T05:46:24.15Z</time></trkpt><trkpt lat="45.154107" lon="10.772213"><ele>24.0</ele><time>2026-05-02T05:46:26.15Z</time></trkpt><trkpt lat="45.1540738" lon="10.7721015"><ele>24.0</ele><time>2026-05-02T05:46:29.149Z</time></trkpt><trkpt lat="45.154147" lon="10.7721269"><ele>24.0</ele><time>2026-05-02T05:46:33.149Z</time></trkpt><trkpt lat="45.1542155" lon="10.7721713"><ele>24.0</ele><time>2026-05-02T05:46:37.15Z</time></trkpt><trkpt lat="45.1542638" lon="10.7722437"><ele>23.999999999999996</ele><time>2026-05-02T05:46:40.15Z</time></trkpt><trkpt lat="45.1543404" lon="10.7722341"><ele>24.0</ele><time>2026-05-02T05:46:43.149Z</time></trkpt><trkpt lat="45.1543966" lon="10.7721479"><ele>24.0</ele><time>2026-05-02T05:46:46.149Z</time></trkpt><trkpt lat="45.1544239" lon="10.7720451"><ele>24.0</ele><time>2026-05-02T05:46:53.15Z</time></trkpt><trkpt lat="45.1545" lon="10.7719126"><ele>24.0</ele><time>2026-05-02T05:46:57.15Z</time></trkpt><trkpt lat="45.1545463" lon="10.7718408"><ele>24.0</ele><time>2026-05-02T05:46:59.149Z</time></trkpt><trkpt lat="45.1545927" lon="10.7717641"><ele>24.0</ele><time>2026-05-02T05:47:01.15Z</time></trkpt><trkpt lat="45.1546442" lon="10.7716877"><ele>24.0</ele><time>2026-05-02T05:47:03.15Z</time></trkpt><trkpt lat="45.1546953" lon="10.7716023"><ele>23.833333333333332</ele><time>2026-05-02T05:47:05.148Z</time></trkpt><trkpt lat="45.154746" lon="10.7715159"><ele>23.666666666666668</ele><time>2026-05-02T05:47:07.149Z</time></trkpt><trkpt lat="45.1548046" lon="10.7714309"><ele>23.5</ele><time>2026-05-02T05:47:09.148Z</time></trkpt><trkpt lat="45.1548609" lon="10.7713335"><ele>23.333333333333336</ele><time>2026-05-02T05:47:11.149Z</time></trkpt><trkpt lat="45.1549193" lon="10.771236"><ele>23.166666666666668</ele><time>2026-05-02T05:47:13.15Z</time></trkpt><trkpt lat="45.1549737" lon="10.7711387"><ele>23.0</ele><time>2026-05-02T05:47:15.15Z</time></trkpt><trkpt lat="45.1550276" lon="10.7710375"><ele>23.599999999999998</ele><time>2026-05-02T05:47:17.149Z</time></trkpt><trkpt lat="45.1550902" lon="10.7709254"><ele>24.2</ele><time>2026-05-02T05:47:19.15Z</time></trkpt><trkpt lat="45.1551558" lon="10.77082"><ele>24.8</ele><time>2026-05-02T05:47:21.15Z</time></trkpt><trkpt lat="45.1552113" lon="10.7707047"><ele>25.4</ele><time>2026-05-02T05:47:23.149Z</time></trkpt><trkpt lat="45.1552614" lon="10.770598"><ele>26.0</ele><time>2026-05-02T05:47:25.15Z</time></trkpt><trkpt lat="45.1553026" lon="10.7705023"><ele>25.999999999999996</ele><time>2026-05-02T05:47:27.15Z</time></trkpt><trkpt lat="45.1553292" lon="10.770398"><ele>26.0</ele><time>2026-05-02T05:47:29.149Z</time></trkpt><trkpt lat="45.1553691" lon="10.7702876"><ele>26.0</ele><time>2026-05-02T05:47:32.148Z</time></trkpt><trkpt lat="45.1554476" lon="10.7702355"><ele>26.0</ele><time>2026-05-02T05:47:35.148Z</time></trkpt><trkpt lat="45.155523" lon="10.7701999"><ele>25.999999999999996</ele><time>2026-05-02T05:47:38.147Z</time></trkpt><trkpt lat="45.1555987" lon="10.770226"><ele>26.0</ele><time>2026-05-02T05:47:41.149Z</time></trkpt><trkpt lat="45.1556801" lon="10.7702407"><ele>26.285714285714285</ele><time>2026-05-02T05:47:44.149Z</time></trkpt><trkpt lat="45.1557406" lon="10.7702901"><ele>26.571428571428573</ele><time>2026-05-02T05:47:47.15Z</time></trkpt><trkpt lat="45.1558022" lon="10.7703455"><ele>26.857142857142858</ele><time>2026-05-02T05:50:16.149Z</time></trkpt><trkpt lat="45.1558527" lon="10.7704359"><ele>27.142857142857142</ele><time>2026-05-02T05:50:19.15Z</time></trkpt><trkpt lat="45.1559028" lon="10.7704901"><ele>27.42857142857143</ele><time>2026-05-02T05:50:21.15Z</time></trkpt><trkpt lat="45.1559613" lon="10.7705452"><ele>27.714285714285715</ele><time>2026-05-02T05:50:23.15Z</time></trkpt><trkpt lat="45.1560202" lon="10.7705859"><ele>28.0</ele><time>2026-05-02T05:50:25.149Z</time></trkpt><trkpt lat="45.1560785" lon="10.770644"><ele>28.000000000000004</ele><time>2026-05-02T05:50:27.15Z</time></trkpt><trkpt lat="45.1561236" lon="10.7707319"><ele>28.0</ele><time>2026-05-02T05:50:29.15Z</time></trkpt><trkpt lat="45.1561558" lon="10.7708242"><ele>28.0</ele><time>2026-05-02T05:50:31.15Z</time></trkpt><trkpt lat="45.1561854" lon="10.7709207"><ele>28.0</ele><time>2026-05-02T05:50:33.15Z</time></trkpt><trkpt lat="45.1562044" lon="10.7710259"><ele>28.000000000000004</ele><time>2026-05-02T05:50:35.149Z</time></trkpt><trkpt lat="45.1562252" lon="10.771208"><ele>28.0</ele><time>2026-05-02T05:50:39.071Z</time></trkpt><trkpt lat="45.1562754" lon="10.7712864"><ele>27.571428571428573</ele><time>2026-05-02T05:50:41.15Z</time></trkpt><trkpt lat="45.1562876" lon="10.7713755"><ele>27.142857142857142</ele><time>2026-05-02T05:50:43.149Z</time></trkpt><trkpt lat="45.1562956" lon="10.771508"><ele>26.714285714285715</ele><time>2026-05-02T05:50:46.148Z</time></trkpt><trkpt lat="45.1563004" lon="10.7716013"><ele>26.285714285714285</ele><time>2026-05-02T05:50:48.148Z</time></trkpt><trkpt lat="45.1563063" lon="10.7717011"><ele>25.857142857142858</ele><time>2026-05-02T05:50:50.149Z</time></trkpt><trkpt lat="45.1563149" lon="10.7717982"><ele>25.42857142857143</ele><time>2026-05-02T05:50:52.149Z</time></trkpt><trkpt lat="45.1563253" lon="10.771891"><ele>25.0</ele><time>2026-05-02T05:50:54.148Z</time></trkpt><trkpt lat="45.1563329" lon="10.7720202"><ele>24.714285714285715</ele><time>2026-05-02T05:50:57.147Z</time></trkpt><trkpt lat="45.1563366" lon="10.7721523"><ele>24.42857142857143</ele><time>2026-05-02T05:51:00.15Z</time></trkpt><trkpt lat="45.1563439" lon="10.7722427"><ele>24.142857142857146</ele><time>2026-05-02T05:51:02.149Z</time></trkpt><trkpt lat="45.156353" lon="10.7723364"><ele>23.857142857142858</ele><time>2026-05-02T05:51:04.148Z</time></trkpt><trkpt lat="45.1563591" lon="10.7724325"><ele>23.57142857142857</ele><time>2026-05-02T05:51:06.15Z</time></trkpt><trkpt lat="45.1563685" lon="10.7725276"><ele>23.28571428571429</ele><time>2026-05-02T05:51:08.15Z</time></trkpt><trkpt lat="45.1563754" lon="10.7726176"><ele>23.0</ele><time>2026-05-02T05:51:10.149Z</time></trkpt><trkpt lat="45.1563839" lon="10.7727437"><ele>22.571428571428573</ele><time>2026-05-02T05:51:13.15Z</time></trkpt><trkpt lat="45.156395" lon="10.772832"><ele>22.142857142857142</ele><time>2026-05-02T05:51:15.148Z</time></trkpt><trkpt lat="45.1564021" lon="10.7729246"><ele>21.714285714285715</ele><time>2026-05-02T05:51:17.149Z</time></trkpt><trkpt lat="45.1564075" lon="10.7730182"><ele>21.285714285714285</ele><time>2026-05-02T05:51:19.147Z</time></trkpt><trkpt lat="45.1564097" lon="10.7731146"><ele>20.857142857142858</ele><time>2026-05-02T05:51:21.148Z</time></trkpt><trkpt lat="45.1564202" lon="10.7732124"><ele>20.428571428571427</ele><time>2026-05-02T05:51:23.15Z</time></trkpt><trkpt lat="45.156429" lon="10.7733154"><ele>20.0</ele><time>2026-05-02T05:51:25.149Z</time></trkpt><trkpt lat="45.1564398" lon="10.7734172"><ele>20.0</ele><time>2026-05-02T05:51:27.15Z</time></trkpt><trkpt lat="45.1564509" lon="10.7735233"><ele>20.0</ele><time>2026-05-02T05:51:29.149Z</time></trkpt><trkpt lat="45.1564622" lon="10.7736283"><ele>20.0</ele><time>2026-05-02T05:51:31.148Z</time></trkpt><trkpt lat="45.1564735" lon="10.7737325"><ele>20.0</ele><time>2026-05-02T05:51:33.148Z</time></trkpt><trkpt lat="45.1564834" lon="10.7738291"><ele>20.0</ele><time>2026-05-02T05:51:35.147Z</time></trkpt><trkpt lat="45.1564892" lon="10.7739309"><ele>20.0</ele><time>2026-05-02T05:51:37.149Z</time></trkpt><trkpt lat="45.156496" lon="10.7740359"><ele>20.0</ele><time>2026-05-02T05:51:39.149Z</time></trkpt><trkpt lat="45.1565043" lon="10.7741422"><ele>20.0</ele><time>2026-05-02T05:51:41.149Z</time></trkpt><trkpt lat="45.1565131" lon="10.7742497"><ele>20.0</ele><time>2026-05-02T05:51:43.149Z</time></trkpt><trkpt lat="45.1565236" lon="10.7743585"><ele>20.0</ele><time>2026-05-02T05:51:45.148Z</time></trkpt><trkpt lat="45.1565274" lon="10.7744671"><ele>20.0</ele><time>2026-05-02T05:51:47.149Z</time></trkpt><trkpt lat="45.1565352" lon="10.774572"><ele>20.0</ele><time>2026-05-02T05:51:49.148Z</time></trkpt><trkpt lat="45.1565471" lon="10.7746811"><ele>20.0</ele><time>2026-05-02T05:51:51.818Z</time></trkpt><trkpt lat="45.1565588" lon="10.7747706"><ele>20.0</ele><time>2026-05-02T05:51:53.149Z</time></trkpt><trkpt lat="45.1565719" lon="10.774887"><ele>20.833333333333336</ele><time>2026-05-02T05:51:55.149Z</time></trkpt><trkpt lat="45.156584" lon="10.774998"><ele>21.666666666666668</ele><time>2026-05-02T05:51:57.149Z</time></trkpt><trkpt lat="45.1565905" lon="10.7751055"><ele>22.5</ele><time>2026-05-02T05:51:59.149Z</time></trkpt><trkpt lat="45.1566013" lon="10.7752116"><ele>23.333333333333336</ele><time>2026-05-02T05:52:01.148Z</time></trkpt><trkpt lat="45.1566144" lon="10.775318"><ele>24.166666666666668</ele><time>2026-05-02T05:52:03.149Z</time></trkpt><trkpt lat="45.1566154" lon="10.7754292"><ele>25.0</ele><time>2026-05-02T05:52:05.149Z</time></trkpt><trkpt lat="45.1566209" lon="10.7755436"><ele>25.000000000000004</ele><time>2026-05-02T05:52:07.149Z</time></trkpt><trkpt lat="45.1566263" lon="10.7756573"><ele>25.0</ele><time>2026-05-02T05:52:09.149Z</time></trkpt><trkpt lat="45.1566308" lon="10.7757681"><ele>25.0</ele><time>2026-05-02T05:52:11.148Z</time></trkpt><trkpt lat="45.1566447" lon="10.7758783"><ele>25.0</ele><time>2026-05-02T05:52:13.149Z</time></trkpt><trkpt lat="45.1566585" lon="10.7759896"><ele>25.000000000000004</ele><time>2026-05-02T05:52:15.15Z</time></trkpt><trkpt lat="45.1566737" lon="10.7760984"><ele>25.0</ele><time>2026-05-02T05:52:17.149Z</time></trkpt><trkpt lat="45.1566911" lon="10.7762046"><ele>24.500000000000004</ele><time>2026-05-02T05:52:19.149Z</time></trkpt><trkpt lat="45.1567125" lon="10.7763182"><ele>24.0</ele><time>2026-05-02T05:52:21.148Z</time></trkpt><trkpt lat="45.1567354" lon="10.7764294"><ele>23.5</ele><time>2026-05-02T05:52:23.149Z</time></trkpt><trkpt lat="45.1567626" lon="10.7765363"><ele>23.0</ele><time>2026-05-02T05:52:25.148Z</time></trkpt><trkpt lat="45.1567968" lon="10.7766357"><ele>22.5</ele><time>2026-05-02T05:52:27.149Z</time></trkpt><trkpt lat="45.1568201" lon="10.7767416"><ele>22.0</ele><time>2026-05-02T05:52:29.149Z</time></trkpt><trkpt lat="45.1568456" lon="10.7768384"><ele>22.166666666666664</ele><time>2026-05-02T05:52:31.149Z</time></trkpt><trkpt lat="45.1569012" lon="10.7769677"><ele>22.333333333333332</ele><time>2026-05-02T05:52:33.149Z</time></trkpt><trkpt lat="45.1569329" lon="10.7770816"><ele>22.5</ele><time>2026-05-02T05:52:35.149Z</time></trkpt><trkpt lat="45.1569537" lon="10.7771859"><ele>22.666666666666668</ele><time>2026-05-02T05:52:37.15Z</time></trkpt><trkpt lat="45.1569769" lon="10.7772963"><ele>22.833333333333336</ele><time>2026-05-02T05:52:39.149Z</time></trkpt><trkpt lat="45.1570096" lon="10.7774013"><ele>23.0</ele><time>2026-05-02T05:52:41.149Z</time></trkpt><trkpt lat="45.157046" lon="10.7775009"><ele>23.0</ele><time>2026-05-02T05:52:43.15Z</time></trkpt><trkpt lat="45.1570832" lon="10.7775972"><ele>23.0</ele><time>2026-05-02T05:52:45.147Z</time></trkpt><trkpt lat="45.1571157" lon="10.7776995"><ele>23.0</ele><time>2026-05-02T05:52:47.147Z</time></trkpt><trkpt lat="45.1571564" lon="10.7777959"><ele>23.0</ele><time>2026-05-02T05:52:49.149Z</time></trkpt><trkpt lat="45.1571995" lon="10.7778908"><ele>23.0</ele><time>2026-05-02T05:52:51.149Z</time></trkpt><trkpt lat="45.1572436" lon="10.7779863"><ele>23.0</ele><time>2026-05-02T05:52:53.15Z</time></trkpt><trkpt lat="45.1572858" lon="10.7780836"><ele>22.833333333333336</ele><time>2026-05-02T05:52:55.148Z</time></trkpt><trkpt lat="45.1573298" lon="10.7781797"><ele>22.666666666666668</ele><time>2026-05-02T05:52:57.148Z</time></trkpt><trkpt lat="45.1573798" lon="10.7782779"><ele>22.5</ele><time>2026-05-02T05:52:59.147Z</time></trkpt><trkpt lat="45.1574283" lon="10.7783739"><ele>22.333333333333332</ele><time>2026-05-02T05:53:01.15Z</time></trkpt><trkpt lat="45.1574725" lon="10.7784708"><ele>22.166666666666664</ele><time>2026-05-02T05:53:03.149Z</time></trkpt><trkpt lat="45.1575184" lon="10.7785808"><ele>22.0</ele><time>2026-05-02T05:53:05.743Z</time></trkpt><trkpt lat="45.1575769" lon="10.7787226"><ele>21.666666666666664</ele><time>2026-05-02T05:53:08.149Z</time></trkpt><trkpt lat="45.1576212" lon="10.7788187"><ele>21.333333333333332</ele><time>2026-05-02T05:53:10.149Z</time></trkpt><trkpt lat="45.1576647" lon="10.7789196"><ele>21.0</ele><time>2026-05-02T05:53:12.15Z</time></trkpt><trkpt lat="45.1577054" lon="10.7790164"><ele>20.666666666666668</ele><time>2026-05-02T05:53:14.15Z</time></trkpt><trkpt lat="45.1577489" lon="10.7791094"><ele>20.333333333333336</ele><time>2026-05-02T05:53:16.15Z</time></trkpt><trkpt lat="45.1577963" lon="10.7792122"><ele>20.0</ele><time>2026-05-02T05:53:18.149Z</time></trkpt><trkpt lat="45.1578428" lon="10.7793194"><ele>20.0</ele><time>2026-05-02T05:53:20.15Z</time></trkpt><trkpt lat="45.1578935" lon="10.7794237"><ele>20.0</ele><time>2026-05-02T05:53:22.15Z</time></trkpt><trkpt lat="45.1579434" lon="10.7795308"><ele>20.0</ele><time>2026-05-02T05:53:24.149Z</time></trkpt><trkpt lat="45.1579887" lon="10.7796395"><ele>20.0</ele><time>2026-05-02T05:53:26.149Z</time></trkpt><trkpt lat="45.158032" lon="10.7797435"><ele>20.0</ele><time>2026-05-02T05:53:28.149Z</time></trkpt><trkpt lat="45.1580585" lon="10.7798585"><ele>20.0</ele><time>2026-05-02T05:53:30.149Z</time></trkpt><trkpt lat="45.1580859" lon="10.7799751"><ele>20.0</ele><time>2026-05-02T05:53:32.149Z</time></trkpt><trkpt lat="45.1581154" lon="10.7800871"><ele>20.0</ele><time>2026-05-02T05:53:34.149Z</time></trkpt><trkpt lat="45.1581433" lon="10.780203"><ele>20.0</ele><time>2026-05-02T05:53:36.148Z</time></trkpt><trkpt lat="45.1581694" lon="10.7803209"><ele>20.0</ele><time>2026-05-02T05:53:38.149Z</time></trkpt><trkpt lat="45.1581989" lon="10.7804432"><ele>20.0</ele><time>2026-05-02T05:53:40.149Z</time></trkpt><trkpt lat="45.1582345" lon="10.7805566"><ele>20.0</ele><time>2026-05-02T05:53:42.149Z</time></trkpt><trkpt lat="45.1582691" lon="10.78067"><ele>19.833333333333336</ele><time>2026-05-02T05:53:44.149Z</time></trkpt><trkpt lat="45.1582934" lon="10.7807842"><ele>19.666666666666668</ele><time>2026-05-02T05:53:46.147Z</time></trkpt><trkpt lat="45.1583197" lon="10.7809019"><ele>19.5</ele><time>2026-05-02T05:53:48.149Z</time></trkpt><trkpt lat="45.1583447" lon="10.7810191"><ele>19.333333333333332</ele><time>2026-05-02T05:53:50.149Z</time></trkpt><trkpt lat="45.1583744" lon="10.7811362"><ele>19.166666666666664</ele><time>2026-05-02T05:53:52.15Z</time></trkpt><trkpt lat="45.1584066" lon="10.7812484"><ele>19.0</ele><time>2026-05-02T05:53:54.149Z</time></trkpt><trkpt lat="45.1584552" lon="10.7813593"><ele>19.5</ele><time>2026-05-02T05:53:56.149Z</time></trkpt><trkpt lat="45.1585036" lon="10.7814676"><ele>20.0</ele><time>2026-05-02T05:53:58.15Z</time></trkpt><trkpt lat="45.1585536" lon="10.7815775"><ele>20.5</ele><time>2026-05-02T05:54:00.15Z</time></trkpt><trkpt lat="45.1586014" lon="10.7816856"><ele>21.0</ele><time>2026-05-02T05:54:02.147Z</time></trkpt><trkpt lat="45.1586478" lon="10.7817914"><ele>21.5</ele><time>2026-05-02T05:54:04.15Z</time></trkpt><trkpt lat="45.1586919" lon="10.781896"><ele>22.0</ele><time>2026-05-02T05:54:06.149Z</time></trkpt><trkpt lat="45.1587291" lon="10.782006"><ele>22.200000000000003</ele><time>2026-05-02T05:54:08.149Z</time></trkpt><trkpt lat="45.1587745" lon="10.7821171"><ele>22.4</ele><time>2026-05-02T05:54:10.15Z</time></trkpt><trkpt lat="45.1588245" lon="10.7822259"><ele>22.6</ele><time>2026-05-02T05:54:12.15Z</time></trkpt><trkpt lat="45.1588744" lon="10.7823338"><ele>22.799999999999997</ele><time>2026-05-02T05:54:14.15Z</time></trkpt><trkpt lat="45.158927" lon="10.7824383"><ele>23.0</ele><time>2026-05-02T05:54:16.149Z</time></trkpt><trkpt lat="45.1589771" lon="10.7825471"><ele>23.0</ele><time>2026-05-02T05:54:18.149Z</time></trkpt><trkpt lat="45.1590196" lon="10.7826501"><ele>23.0</ele><time>2026-05-02T05:54:20.148Z</time></trkpt><trkpt lat="45.1590642" lon="10.7827536"><ele>23.0</ele><time>2026-05-02T05:54:22.15Z</time></trkpt><trkpt lat="45.1591213" lon="10.7828591"><ele>23.0</ele><time>2026-05-02T05:54:24.149Z</time></trkpt><trkpt lat="45.1591659" lon="10.7829714"><ele>23.0</ele><time>2026-05-02T05:54:26.149Z</time></trkpt><trkpt lat="45.1592036" lon="10.7830803"><ele>23.0</ele><time>2026-05-02T05:54:28.149Z</time></trkpt><trkpt lat="45.1592494" lon="10.7831967"><ele>22.599999999999998</ele><time>2026-05-02T05:54:30.15Z</time></trkpt><trkpt lat="45.1592889" lon="10.7833005"><ele>22.2</ele><time>2026-05-02T05:54:32.149Z</time></trkpt><trkpt lat="45.1593348" lon="10.7834138"><ele>21.8</ele><time>2026-05-02T05:54:34.15Z</time></trkpt><trkpt lat="45.1593813" lon="10.7835252"><ele>21.4</ele><time>2026-05-02T05:54:36.148Z</time></trkpt><trkpt lat="45.1594308" lon="10.7836443"><ele>21.0</ele><time>2026-05-02T05:54:38.149Z</time></trkpt><trkpt lat="45.1594794" lon="10.7837521"><ele>21.0</ele><time>2026-05-02T05:54:40.15Z</time></trkpt><trkpt lat="45.1595324" lon="10.7838584"><ele>21.0</ele><time>2026-05-02T05:54:42.149Z</time></trkpt><trkpt lat="45.1595808" lon="10.7839653"><ele>21.0</ele><time>2026-05-02T05:54:44.149Z</time></trkpt><trkpt lat="45.1596299" lon="10.7840778"><ele>21.0</ele><time>2026-05-02T05:54:46.149Z</time></trkpt><trkpt lat="45.1596743" lon="10.7841854"><ele>21.0</ele><time>2026-05-02T05:54:48.148Z</time></trkpt><trkpt lat="45.1597198" lon="10.7842956"><ele>21.0</ele><time>2026-05-02T05:54:50.149Z</time></trkpt><trkpt lat="45.159766" lon="10.7844018"><ele>21.0</ele><time>2026-05-02T05:54:52.149Z</time></trkpt><trkpt lat="45.1598128" lon="10.7845129"><ele>21.0</ele><time>2026-05-02T05:54:54.149Z</time></trkpt><trkpt lat="45.159864" lon="10.784619"><ele>21.0</ele><time>2026-05-02T05:54:56.148Z</time></trkpt><trkpt lat="45.1599181" lon="10.784723"><ele>21.0</ele><time>2026-05-02T05:54:58.149Z</time></trkpt><trkpt lat="45.1599714" lon="10.7848246"><ele>20.666666666666668</ele><time>2026-05-02T05:55:00.15Z</time></trkpt><trkpt lat="45.1600202" lon="10.784921"><ele>20.333333333333332</ele><time>2026-05-02T05:55:02.15Z</time></trkpt><trkpt lat="45.1600657" lon="10.7850248"><ele>20.0</ele><time>2026-05-02T05:55:04.149Z</time></trkpt><trkpt lat="45.1601103" lon="10.7851323"><ele>19.666666666666664</ele><time>2026-05-02T05:55:06.149Z</time></trkpt><trkpt lat="45.1601549" lon="10.7852403"><ele>19.333333333333332</ele><time>2026-05-02T05:55:08.148Z</time></trkpt><trkpt lat="45.160204" lon="10.7853468"><ele>19.0</ele><time>2026-05-02T05:55:10.148Z</time></trkpt><trkpt lat="45.1602567" lon="10.7854545"><ele>19.0</ele><time>2026-05-02T05:55:12.15Z</time></trkpt><trkpt lat="45.1603101" lon="10.7855574"><ele>19.0</ele><time>2026-05-02T05:55:14.15Z</time></trkpt><trkpt lat="45.1603668" lon="10.7856508"><ele>19.0</ele><time>2026-05-02T05:55:16.15Z</time></trkpt><trkpt lat="45.1604256" lon="10.7857437"><ele>19.0</ele><time>2026-05-02T05:55:18.149Z</time></trkpt><trkpt lat="45.1604841" lon="10.7858372"><ele>19.0</ele><time>2026-05-02T05:55:20.148Z</time></trkpt><trkpt lat="45.1605478" lon="10.7859221"><ele>19.0</ele><time>2026-05-02T05:55:22.148Z</time></trkpt><trkpt lat="45.1606082" lon="10.7859904"><ele>19.166666666666664</ele><time>2026-05-02T05:55:24.15Z</time></trkpt><trkpt lat="45.1606757" lon="10.7860506"><ele>19.333333333333332</ele><time>2026-05-02T05:55:26.15Z</time></trkpt><trkpt lat="45.1607511" lon="10.7860981"><ele>19.5</ele><time>2026-05-02T05:55:28.149Z</time></trkpt><trkpt lat="45.1608312" lon="10.7861402"><ele>19.666666666666668</ele><time>2026-05-02T05:55:30.149Z</time></trkpt><trkpt lat="45.1609148" lon="10.7861764"><ele>19.833333333333336</ele><time>2026-05-02T05:55:32.15Z</time></trkpt><trkpt lat="45.1609961" lon="10.7862049"><ele>20.0</ele><time>2026-05-02T05:55:34.15Z</time></trkpt><trkpt lat="45.1610747" lon="10.7862287"><ele>20.0</ele><time>2026-05-02T05:55:36.15Z</time></trkpt><trkpt lat="45.1611585" lon="10.7862538"><ele>20.0</ele><time>2026-05-02T05:55:38.149Z</time></trkpt><trkpt lat="45.1612444" lon="10.7862764"><ele>20.0</ele><time>2026-05-02T05:55:40.149Z</time></trkpt><trkpt lat="45.1613288" lon="10.7863013"><ele>20.0</ele><time>2026-05-02T05:55:42.149Z</time></trkpt><trkpt lat="45.1614148" lon="10.7863276"><ele>20.0</ele><time>2026-05-02T05:55:44.149Z</time></trkpt><trkpt lat="45.1614991" lon="10.7863644"><ele>20.0</ele><time>2026-05-02T05:55:46.149Z</time></trkpt><trkpt lat="45.1615844" lon="10.7864052"><ele>19.833333333333336</ele><time>2026-05-02T05:55:48.15Z</time></trkpt><trkpt lat="45.1616694" lon="10.7864469"><ele>19.666666666666668</ele><time>2026-05-02T05:55:50.147Z</time></trkpt><trkpt lat="45.1617504" lon="10.7864975"><ele>19.5</ele><time>2026-05-02T05:55:52.148Z</time></trkpt><trkpt lat="45.1618325" lon="10.786555"><ele>19.333333333333332</ele><time>2026-05-02T05:55:54.15Z</time></trkpt><trkpt lat="45.1619085" lon="10.7866218"><ele>19.166666666666664</ele><time>2026-05-02T05:55:56.149Z</time></trkpt><trkpt lat="45.1619773" lon="10.7866941"><ele>19.0</ele><time>2026-05-02T05:55:58.15Z</time></trkpt><trkpt lat="45.1620408" lon="10.7867753"><ele>19.333333333333332</ele><time>2026-05-02T05:56:00.149Z</time></trkpt><trkpt lat="45.1620971" lon="10.7868669"><ele>19.666666666666664</ele><time>2026-05-02T05:56:02.149Z</time></trkpt><trkpt lat="45.1621521" lon="10.7869675"><ele>20.0</ele><time>2026-05-02T05:56:04.15Z</time></trkpt><trkpt lat="45.1622049" lon="10.7870643"><ele>20.333333333333332</ele><time>2026-05-02T05:56:06.15Z</time></trkpt><trkpt lat="45.1622519" lon="10.7871628"><ele>20.666666666666668</ele><time>2026-05-02T05:56:08.15Z</time></trkpt><trkpt lat="45.1623063" lon="10.7872559"><ele>21.0</ele><time>2026-05-02T05:56:10.149Z</time></trkpt><trkpt lat="45.1623572" lon="10.7873521"><ele>21.0</ele><time>2026-05-02T05:56:12.149Z</time></trkpt><trkpt lat="45.1624055" lon="10.7874456"><ele>21.0</ele><time>2026-05-02T05:56:14.149Z</time></trkpt><trkpt lat="45.1624573" lon="10.78754"><ele>21.0</ele><time>2026-05-02T05:56:16.148Z</time></trkpt><trkpt lat="45.1625119" lon="10.7876344"><ele>21.0</ele><time>2026-05-02T05:56:18.148Z</time></trkpt><trkpt lat="45.1625687" lon="10.7877309"><ele>21.0</ele><time>2026-05-02T05:56:20.148Z</time></trkpt><trkpt lat="45.1626294" lon="10.7878116"><ele>21.0</ele><time>2026-05-02T05:56:22.149Z</time></trkpt><trkpt lat="45.1627642" lon="10.7879773"><ele>21.0</ele><time>2026-05-02T05:56:27.067Z</time></trkpt><trkpt lat="45.1628576" lon="10.7880492"><ele>21.0</ele><time>2026-05-02T05:56:29.15Z</time></trkpt><trkpt lat="45.1629803" lon="10.7881086"><ele>21.0</ele><time>2026-05-02T05:56:32.15Z</time></trkpt><trkpt lat="45.1630599" lon="10.7881394"><ele>21.0</ele><time>2026-05-02T05:56:34.15Z</time></trkpt><trkpt lat="45.1631367" lon="10.7881648"><ele>21.0</ele><time>2026-05-02T05:56:36.15Z</time></trkpt><trkpt lat="45.1632209" lon="10.788191"><ele>21.166666666666668</ele><time>2026-05-02T05:56:38.15Z</time></trkpt><trkpt lat="45.1633139" lon="10.7882028"><ele>21.333333333333332</ele><time>2026-05-02T05:56:40.15Z</time></trkpt><trkpt lat="45.1634018" lon="10.7882116"><ele>21.5</ele><time>2026-05-02T05:56:42.148Z</time></trkpt><trkpt lat="45.1634828" lon="10.7882181"><ele>21.666666666666664</ele><time>2026-05-02T05:56:44.15Z</time></trkpt><trkpt lat="45.1635591" lon="10.7882294"><ele>21.833333333333332</ele><time>2026-05-02T05:56:46.15Z</time></trkpt><trkpt lat="45.1636318" lon="10.7882352"><ele>22.0</ele><time>2026-05-02T05:56:48.15Z</time></trkpt><trkpt lat="45.1637021" lon="10.7882379"><ele>22.0</ele><time>2026-05-02T05:56:50.149Z</time></trkpt><trkpt lat="45.1637766" lon="10.7882465"><ele>22.0</ele><time>2026-05-02T05:56:52.147Z</time></trkpt><trkpt lat="45.163847" lon="10.7882609"><ele>22.0</ele><time>2026-05-02T05:56:54.15Z</time></trkpt><trkpt lat="45.1639128" lon="10.7882883"><ele>22.0</ele><time>2026-05-02T05:56:56.149Z</time></trkpt><trkpt lat="45.1639894" lon="10.7883091"><ele>22.0</ele><time>2026-05-02T05:56:59.148Z</time></trkpt><trkpt lat="45.1640748" lon="10.7882797"><ele>22.0</ele><time>2026-05-02T05:57:02.149Z</time></trkpt><trkpt lat="45.1641614" lon="10.7882676"><ele>21.5</ele><time>2026-05-02T05:57:05.147Z</time></trkpt><trkpt lat="45.1642494" lon="10.7882532"><ele>21.0</ele><time>2026-05-02T05:57:08.15Z</time></trkpt><trkpt lat="45.1643287" lon="10.7882288"><ele>20.5</ele><time>2026-05-02T05:57:12.149Z</time></trkpt><trkpt lat="45.1643865" lon="10.7882809"><ele>20.0</ele><time>2026-05-02T05:57:16.148Z</time></trkpt><trkpt lat="45.1644521" lon="10.7882759"><ele>19.5</ele><time>2026-05-02T05:57:19.149Z</time></trkpt><trkpt lat="45.1645289" lon="10.7882625"><ele>19.0</ele><time>2026-05-02T05:57:22.149Z</time></trkpt><trkpt lat="45.164611" lon="10.7882461"><ele>19.0</ele><time>2026-05-02T05:57:25.15Z</time></trkpt><trkpt lat="45.1646774" lon="10.7882078"><ele>19.0</ele><time>2026-05-02T05:57:27.149Z</time></trkpt><trkpt lat="45.1647336" lon="10.7881629"><ele>19.0</ele><time>2026-05-02T05:57:29.15Z</time></trkpt><trkpt lat="45.1648" lon="10.7881209"><ele>19.0</ele><time>2026-05-02T05:57:31.149Z</time></trkpt><trkpt lat="45.1648786" lon="10.7880941"><ele>19.0</ele><time>2026-05-02T05:57:33.149Z</time></trkpt><trkpt lat="45.164972" lon="10.7880546"><ele>19.0</ele><time>2026-05-02T05:57:35.15Z</time></trkpt><trkpt lat="45.1650759" lon="10.7880348"><ele>18.333333333333332</ele><time>2026-05-02T05:57:37.149Z</time></trkpt><trkpt lat="45.1651668" lon="10.7880114"><ele>17.666666666666664</ele><time>2026-05-02T05:57:39.149Z</time></trkpt><trkpt lat="45.1652498" lon="10.7879967"><ele>17.0</ele><time>2026-05-02T05:57:41.149Z</time></trkpt><trkpt lat="45.1653249" lon="10.7879875"><ele>16.333333333333332</ele><time>2026-05-02T05:57:43.149Z</time></trkpt><trkpt lat="45.1653975" lon="10.7879797"><ele>15.666666666666666</ele><time>2026-05-02T05:57:45.149Z</time></trkpt><trkpt lat="45.165465" lon="10.7879848"><ele>15.0</ele><time>2026-05-02T05:57:47.148Z</time></trkpt><trkpt lat="45.1655285" lon="10.7879854"><ele>15.0</ele><time>2026-05-02T05:57:49.149Z</time></trkpt><trkpt lat="45.1656196" lon="10.7879688"><ele>15.0</ele><time>2026-05-02T05:57:52.148Z</time></trkpt><trkpt lat="45.1656883" lon="10.787962"><ele>15.0</ele><time>2026-05-02T05:57:54.148Z</time></trkpt><trkpt lat="45.1657524" lon="10.7879474"><ele>15.0</ele><time>2026-05-02T05:57:56.148Z</time></trkpt><trkpt lat="45.1658378" lon="10.7879314"><ele>15.0</ele><time>2026-05-02T05:57:59.149Z</time></trkpt><trkpt lat="45.1659259" lon="10.7879149"><ele>15.0</ele><time>2026-05-02T05:58:02.149Z</time></trkpt><trkpt lat="45.1660155" lon="10.7878924"><ele>15.0</ele><time>2026-05-02T05:58:05.149Z</time></trkpt><trkpt lat="45.1661033" lon="10.7878488"><ele>15.0</ele><time>2026-05-02T05:58:08.148Z</time></trkpt><trkpt lat="45.1661868" lon="10.7877915"><ele>15.0</ele><time>2026-05-02T05:58:11.149Z</time></trkpt><trkpt lat="45.1662484" lon="10.7877695"><ele>15.0</ele><time>2026-05-02T05:58:13.148Z</time></trkpt><trkpt lat="45.1663159" lon="10.7877489"><ele>15.0</ele><time>2026-05-02T05:58:15.148Z</time></trkpt><trkpt lat="45.166383" lon="10.7877122"><ele>15.0</ele><time>2026-05-02T05:58:17.149Z</time></trkpt><trkpt lat="45.1664427" lon="10.7876707"><ele>15.0</ele><time>2026-05-02T05:58:19.148Z</time></trkpt><trkpt lat="45.1665195" lon="10.7876731"><ele>15.0</ele><time>2026-05-02T05:58:21.149Z</time></trkpt><trkpt lat="45.1665919" lon="10.78767"><ele>15.0</ele><time>2026-05-02T05:58:23.149Z</time></trkpt><trkpt lat="45.1666645" lon="10.7876556"><ele>15.0</ele><time>2026-05-02T05:58:25.149Z</time></trkpt><trkpt lat="45.1667381" lon="10.7876411"><ele>15.0</ele><time>2026-05-02T05:58:27.149Z</time></trkpt><trkpt lat="45.16681" lon="10.7876221"><ele>15.0</ele><time>2026-05-02T05:58:29.149Z</time></trkpt><trkpt lat="45.1668823" lon="10.7876061"><ele>15.0</ele><time>2026-05-02T05:58:31.148Z</time></trkpt><trkpt lat="45.1669521" lon="10.7875867"><ele>15.0</ele><time>2026-05-02T05:58:33.15Z</time></trkpt><trkpt lat="45.1670249" lon="10.7875676"><ele>15.0</ele><time>2026-05-02T05:58:35.148Z</time></trkpt><trkpt lat="45.1670968" lon="10.7875498"><ele>15.0</ele><time>2026-05-02T05:58:37.149Z</time></trkpt><trkpt lat="45.1671713" lon="10.7875333"><ele>15.0</ele><time>2026-05-02T05:58:39.148Z</time></trkpt><trkpt lat="45.1672441" lon="10.7875067"><ele>15.0</ele><time>2026-05-02T05:58:41.148Z</time></trkpt><trkpt lat="45.1673158" lon="10.7874888"><ele>15.0</ele><time>2026-05-02T05:58:43.149Z</time></trkpt><trkpt lat="45.1673846" lon="10.7874706"><ele>15.0</ele><time>2026-05-02T05:58:45.149Z</time></trkpt><trkpt lat="45.1674548" lon="10.7874542"><ele>15.0</ele><time>2026-05-02T05:58:47.149Z</time></trkpt><trkpt lat="45.1675227" lon="10.7874278"><ele>15.0</ele><time>2026-05-02T05:58:49.149Z</time></trkpt><trkpt lat="45.1675905" lon="10.787412"><ele>15.0</ele><time>2026-05-02T05:58:51.149Z</time></trkpt><trkpt lat="45.1676611" lon="10.7874005"><ele>15.0</ele><time>2026-05-02T05:58:53.148Z</time></trkpt><trkpt lat="45.1677351" lon="10.787406"><ele>15.0</ele><time>2026-05-02T05:58:55.148Z</time></trkpt><trkpt lat="45.1678057" lon="10.7874062"><ele>15.0</ele><time>2026-05-02T05:58:57.148Z</time></trkpt><trkpt lat="45.1678729" lon="10.7874186"><ele>15.0</ele><time>2026-05-02T05:58:59.148Z</time></trkpt><trkpt lat="45.1679417" lon="10.7874188"><ele>15.0</ele><time>2026-05-02T05:59:01.148Z</time></trkpt><trkpt lat="45.1681016" lon="10.7873843"><ele>15.0</ele><time>2026-05-02T05:59:06.069Z</time></trkpt><trkpt lat="45.1682096" lon="10.7873621"><ele>15.0</ele><time>2026-05-02T05:59:08.15Z</time></trkpt><trkpt lat="45.1682953" lon="10.7873453"><ele>15.0</ele><time>2026-05-02T05:59:10.147Z</time></trkpt><trkpt lat="45.1683793" lon="10.7873335"><ele>15.0</ele><time>2026-05-02T05:59:12.149Z</time></trkpt><trkpt lat="45.1684593" lon="10.7873172"><ele>15.0</ele><time>2026-05-02T05:59:14.149Z</time></trkpt><trkpt lat="45.1685341" lon="10.7873004"><ele>15.0</ele><time>2026-05-02T05:59:16.149Z</time></trkpt><trkpt lat="45.1686111" lon="10.7872861"><ele>15.0</ele><time>2026-05-02T05:59:18.148Z</time></trkpt><trkpt lat="45.168687" lon="10.7872728"><ele>15.0</ele><time>2026-05-02T05:59:20.149Z</time></trkpt><trkpt lat="45.1687614" lon="10.7872591"><ele>15.0</ele><time>2026-05-02T05:59:22.148Z</time></trkpt><trkpt lat="45.1688315" lon="10.7872401"><ele>15.0</ele><time>2026-05-02T05:59:24.147Z</time></trkpt><trkpt lat="45.1689057" lon="10.7872226"><ele>15.0</ele><time>2026-05-02T05:59:26.149Z</time></trkpt><trkpt lat="45.1689747" lon="10.7872048"><ele>15.0</ele><time>2026-05-02T05:59:28.149Z</time></trkpt><trkpt lat="45.1690434" lon="10.7871881"><ele>15.0</ele><time>2026-05-02T05:59:30.148Z</time></trkpt><trkpt lat="45.1691105" lon="10.7871723"><ele>15.0</ele><time>2026-05-02T05:59:32.148Z</time></trkpt><trkpt lat="45.1691783" lon="10.7871526"><ele>15.0</ele><time>2026-05-02T05:59:34.149Z</time></trkpt><trkpt lat="45.1692462" lon="10.7871325"><ele>15.0</ele><time>2026-05-02T05:59:36.147Z</time></trkpt><trkpt lat="45.1693168" lon="10.7871111"><ele>15.0</ele><time>2026-05-02T05:59:38.149Z</time></trkpt><trkpt lat="45.1693866" lon="10.7870853"><ele>15.0</ele><time>2026-05-02T05:59:40.149Z</time></trkpt><trkpt lat="45.1694548" lon="10.7870628"><ele>15.0</ele><time>2026-05-02T05:59:42.149Z</time></trkpt><trkpt lat="45.1695235" lon="10.7870429"><ele>15.0</ele><time>2026-05-02T05:59:44.148Z</time></trkpt><trkpt lat="45.1695951" lon="10.7870217"><ele>15.0</ele><time>2026-05-02T05:59:46.149Z</time></trkpt><trkpt lat="45.1696641" lon="10.7870036"><ele>15.0</ele><time>2026-05-02T05:59:48.149Z</time></trkpt><trkpt lat="45.1697353" lon="10.7869846"><ele>15.0</ele><time>2026-05-02T05:59:50.149Z</time></trkpt><trkpt lat="45.1698079" lon="10.7869561"><ele>15.0</ele><time>2026-05-02T05:59:52.149Z</time></trkpt><trkpt lat="45.1698844" lon="10.7869313"><ele>15.2</ele><time>2026-05-02T05:59:54.149Z</time></trkpt><trkpt lat="45.1699614" lon="10.7869062"><ele>15.4</ele><time>2026-05-02T05:59:56.148Z</time></trkpt><trkpt lat="45.1700368" lon="10.7868805"><ele>15.600000000000001</ele><time>2026-05-02T05:59:58.149Z</time></trkpt><trkpt lat="45.1701087" lon="10.7868517"><ele>15.8</ele><time>2026-05-02T06:00:00.149Z</time></trkpt><trkpt lat="45.1701746" lon="10.7868264"><ele>16.0</ele><time>2026-05-02T06:00:02.149Z</time></trkpt><trkpt lat="45.1711549" lon="10.786585"><ele>16.5</ele><time>2026-05-02T06:00:33.149Z</time></trkpt><trkpt lat="45.1712062" lon="10.786471"><ele>17.0</ele><time>2026-05-02T06:00:36.149Z</time></trkpt><trkpt lat="45.1712102" lon="10.7863728"><ele>17.5</ele><time>2026-05-02T06:00:38.147Z</time></trkpt><trkpt lat="45.1712062" lon="10.7862751"><ele>18.0</ele><time>2026-05-02T06:00:40.15Z</time></trkpt><trkpt lat="45.1712074" lon="10.7861418"><ele>18.5</ele><time>2026-05-02T06:00:43.147Z</time></trkpt><trkpt lat="45.1712062" lon="10.7860475"><ele>19.0</ele><time>2026-05-02T06:00:45.149Z</time></trkpt><trkpt lat="45.1712003" lon="10.7859539"><ele>19.0</ele><time>2026-05-02T06:00:47.149Z</time></trkpt><trkpt lat="45.1711998" lon="10.7858582"><ele>19.0</ele><time>2026-05-02T06:00:49.149Z</time></trkpt><trkpt lat="45.1711985" lon="10.7857641"><ele>19.0</ele><time>2026-05-02T06:00:51.148Z</time></trkpt><trkpt lat="45.1711968" lon="10.7856291"><ele>19.0</ele><time>2026-05-02T06:00:54.149Z</time></trkpt><trkpt lat="45.1711965" lon="10.7855376"><ele>19.0</ele><time>2026-05-02T06:00:56.147Z</time></trkpt><trkpt lat="45.1711993" lon="10.7853524"><ele>19.0</ele><time>2026-05-02T06:01:00.147Z</time></trkpt><trkpt lat="45.1712048" lon="10.7852561"><ele>18.857142857142858</ele><time>2026-05-02T06:01:02.149Z</time></trkpt><trkpt lat="45.1712183" lon="10.7851641"><ele>18.714285714285715</ele><time>2026-05-02T06:01:04.149Z</time></trkpt><trkpt lat="45.1712648" lon="10.7851028"><ele>18.571428571428573</ele><time>2026-05-02T06:01:06.148Z</time></trkpt><trkpt lat="45.1713268" lon="10.7850843"><ele>18.42857142857143</ele><time>2026-05-02T06:01:08.15Z</time></trkpt><trkpt lat="45.1714152" lon="10.7850801"><ele>18.285714285714285</ele><time>2026-05-02T06:01:11.15Z</time></trkpt><trkpt lat="45.1715088" lon="10.7850699"><ele>18.142857142857146</ele><time>2026-05-02T06:01:14.149Z</time></trkpt><trkpt lat="45.1715757" lon="10.7850617"><ele>18.0</ele><time>2026-05-02T06:01:16.15Z</time></trkpt><trkpt lat="45.1716437" lon="10.7850499"><ele>18.28571428571429</ele><time>2026-05-02T06:01:18.148Z</time></trkpt><trkpt lat="45.1717084" lon="10.7850349"><ele>18.571428571428573</ele><time>2026-05-02T06:01:20.149Z</time></trkpt><trkpt lat="45.1717735" lon="10.7850268"><ele>18.857142857142858</ele><time>2026-05-02T06:01:22.15Z</time></trkpt><trkpt lat="45.1718374" lon="10.7850199"><ele>19.142857142857146</ele><time>2026-05-02T06:01:24.149Z</time></trkpt><trkpt lat="45.1719012" lon="10.7850129"><ele>19.42857142857143</ele><time>2026-05-02T06:01:26.148Z</time></trkpt><trkpt lat="45.1719667" lon="10.7850064"><ele>19.714285714285715</ele><time>2026-05-02T06:01:28.148Z</time></trkpt><trkpt lat="45.1720338" lon="10.7849884"><ele>20.0</ele><time>2026-05-02T06:01:30.148Z</time></trkpt><trkpt lat="45.1721109" lon="10.7849741"><ele>20.0</ele><time>2026-05-02T06:01:32.149Z</time></trkpt><trkpt lat="45.1721826" lon="10.7849641"><ele>20.0</ele><time>2026-05-02T06:01:34.149Z</time></trkpt><trkpt lat="45.1722486" lon="10.7849543"><ele>20.0</ele><time>2026-05-02T06:01:36.148Z</time></trkpt><trkpt lat="45.1723186" lon="10.7849434"><ele>20.0</ele><time>2026-05-02T06:01:38.148Z</time></trkpt><trkpt lat="45.1723921" lon="10.7849329"><ele>20.0</ele><time>2026-05-02T06:01:40.148Z</time></trkpt><trkpt lat="45.1724656" lon="10.7849204"><ele>20.0</ele><time>2026-05-02T06:01:42.149Z</time></trkpt><trkpt lat="45.1725422" lon="10.7849065"><ele>20.0</ele><time>2026-05-02T06:01:44.148Z</time></trkpt><trkpt lat="45.1726224" lon="10.7848941"><ele>20.142857142857142</ele><time>2026-05-02T06:01:46.149Z</time></trkpt><trkpt lat="45.1726979" lon="10.7848837"><ele>20.285714285714285</ele><time>2026-05-02T06:01:48.148Z</time></trkpt><trkpt lat="45.1727732" lon="10.7848778"><ele>20.42857142857143</ele><time>2026-05-02T06:01:50.149Z</time></trkpt><trkpt lat="45.1728445" lon="10.7848687"><ele>20.57142857142857</ele><time>2026-05-02T06:01:52.149Z</time></trkpt><trkpt lat="45.1729122" lon="10.7848588"><ele>20.714285714285715</ele><time>2026-05-02T06:01:54.149Z</time></trkpt><trkpt lat="45.1729873" lon="10.7848506"><ele>20.857142857142858</ele><time>2026-05-02T06:01:56.147Z</time></trkpt><trkpt lat="45.1730609" lon="10.7848379"><ele>21.0</ele><time>2026-05-02T06:01:58.148Z</time></trkpt><trkpt lat="45.1731314" lon="10.7848145"><ele>21.0</ele><time>2026-05-02T06:02:00.15Z</time></trkpt><trkpt lat="45.1731821" lon="10.7847352"><ele>21.0</ele><time>2026-05-02T06:02:02.148Z</time></trkpt><trkpt lat="45.1731965" lon="10.784633"><ele>21.0</ele><time>2026-05-02T06:02:04.149Z</time></trkpt><trkpt lat="45.1731805" lon="10.7845304"><ele>21.0</ele><time>2026-05-02T06:02:06.148Z</time></trkpt><trkpt lat="45.1731507" lon="10.7844419"><ele>21.0</ele><time>2026-05-02T06:02:08.149Z</time></trkpt><trkpt lat="45.1731153" lon="10.7843497"><ele>21.0</ele><time>2026-05-02T06:02:10.148Z</time></trkpt><trkpt lat="45.1730791" lon="10.7842607"><ele>21.0</ele><time>2026-05-02T06:02:12.148Z</time></trkpt><trkpt lat="45.1730435" lon="10.7841719"><ele>20.833333333333332</ele><time>2026-05-02T06:02:14.147Z</time></trkpt><trkpt lat="45.1730082" lon="10.784077"><ele>20.666666666666668</ele><time>2026-05-02T06:02:16.148Z</time></trkpt><trkpt lat="45.1729768" lon="10.7839764"><ele>20.5</ele><time>2026-05-02T06:02:18.148Z</time></trkpt><trkpt lat="45.1729449" lon="10.7838744"><ele>20.333333333333336</ele><time>2026-05-02T06:02:20.148Z</time></trkpt><trkpt lat="45.1729115" lon="10.7837784"><ele>20.166666666666668</ele><time>2026-05-02T06:02:22.148Z</time></trkpt><trkpt lat="45.1728739" lon="10.7836853"><ele>20.0</ele><time>2026-05-02T06:02:24.148Z</time></trkpt><trkpt lat="45.1728355" lon="10.7835854"><ele>19.857142857142858</ele><time>2026-05-02T06:02:26.149Z</time></trkpt><trkpt lat="45.1728042" lon="10.7834832"><ele>19.714285714285715</ele><time>2026-05-02T06:02:28.149Z</time></trkpt><trkpt lat="45.172775" lon="10.7833806"><ele>19.57142857142857</ele><time>2026-05-02T06:02:30.15Z</time></trkpt><trkpt lat="45.172743" lon="10.7832878"><ele>19.42857142857143</ele><time>2026-05-02T06:02:32.148Z</time></trkpt><trkpt lat="45.172717" lon="10.7831986"><ele>19.28571428571429</ele><time>2026-05-02T06:02:34.148Z</time></trkpt><trkpt lat="45.1726951" lon="10.7831072"><ele>19.142857142857142</ele><time>2026-05-02T06:02:36.149Z</time></trkpt><trkpt lat="45.1726715" lon="10.783024"><ele>19.0</ele><time>2026-05-02T06:02:38.147Z</time></trkpt><trkpt lat="45.1726445" lon="10.7829198"><ele>19.0</ele><time>2026-05-02T06:02:41.149Z</time></trkpt><trkpt lat="45.1727328" lon="10.7828771"><ele>19.0</ele><time>2026-05-02T06:02:43.148Z</time></trkpt><trkpt lat="45.1728299" lon="10.782844"><ele>19.0</ele><time>2026-05-02T06:02:45.149Z</time></trkpt><trkpt lat="45.172918" lon="10.7828154"><ele>19.0</ele><time>2026-05-02T06:02:47.148Z</time></trkpt><trkpt lat="45.1729995" lon="10.7827753"><ele>19.0</ele><time>2026-05-02T06:02:49.149Z</time></trkpt><trkpt lat="45.1730846" lon="10.7827338"><ele>19.0</ele><time>2026-05-02T06:02:51.147Z</time></trkpt><trkpt lat="45.1731611" lon="10.7826879"><ele>19.0</ele><time>2026-05-02T06:02:53.148Z</time></trkpt><trkpt lat="45.1732431" lon="10.7826501"><ele>19.0</ele><time>2026-05-02T06:02:55.149Z</time></trkpt><trkpt lat="45.1733271" lon="10.7826011"><ele>19.0</ele><time>2026-05-02T06:02:57.149Z</time></trkpt><trkpt lat="45.1734092" lon="10.7825616"><ele>19.0</ele><time>2026-05-02T06:02:59.149Z</time></trkpt><trkpt lat="45.173491" lon="10.7825369"><ele>19.0</ele><time>2026-05-02T06:03:01.149Z</time></trkpt><trkpt lat="45.1735746" lon="10.7825515"><ele>18.833333333333332</ele><time>2026-05-02T06:03:03.147Z</time></trkpt><trkpt lat="45.1736522" lon="10.7826009"><ele>18.666666666666664</ele><time>2026-05-02T06:03:05.149Z</time></trkpt><trkpt lat="45.1737122" lon="10.7826847"><ele>18.5</ele><time>2026-05-02T06:03:07.149Z</time></trkpt><trkpt lat="45.173742" lon="10.7827922"><ele>18.333333333333332</ele><time>2026-05-02T06:03:09.147Z</time></trkpt><trkpt lat="45.1737601" lon="10.782913"><ele>18.166666666666668</ele><time>2026-05-02T06:03:11.148Z</time></trkpt><trkpt lat="45.1737928" lon="10.7830339"><ele>18.0</ele><time>2026-05-02T06:03:13.149Z</time></trkpt><trkpt lat="45.1738172" lon="10.7831585"><ele>17.8</ele><time>2026-05-02T06:03:15.148Z</time></trkpt><trkpt lat="45.173849" lon="10.783285"><ele>17.6</ele><time>2026-05-02T06:03:17.147Z</time></trkpt><trkpt lat="45.1738831" lon="10.7834082"><ele>17.4</ele><time>2026-05-02T06:03:19.149Z</time></trkpt><trkpt lat="45.1739258" lon="10.7835251"><ele>17.2</ele><time>2026-05-02T06:03:21.148Z</time></trkpt><trkpt lat="45.1739867" lon="10.783621"><ele>17.0</ele><time>2026-05-02T06:03:23.148Z</time></trkpt><trkpt lat="45.1740633" lon="10.7836909"><ele>17.0</ele><time>2026-05-02T06:03:25.148Z</time></trkpt><trkpt lat="45.1740741" lon="10.7838204"><ele>17.0</ele><time>2026-05-02T06:03:27.149Z</time></trkpt><trkpt lat="45.1740932" lon="10.7839474"><ele>17.0</ele><time>2026-05-02T06:03:29.147Z</time></trkpt><trkpt lat="45.1741214" lon="10.7840685"><ele>17.0</ele><time>2026-05-02T06:03:31.147Z</time></trkpt><trkpt lat="45.1741511" lon="10.7841931"><ele>17.0</ele><time>2026-05-02T06:03:33.149Z</time></trkpt><trkpt lat="45.1741763" lon="10.7843162"><ele>17.4</ele><time>2026-05-02T06:03:35.147Z</time></trkpt><trkpt lat="45.1742027" lon="10.7844369"><ele>17.799999999999997</ele><time>2026-05-02T06:03:37.148Z</time></trkpt><trkpt lat="45.1742416" lon="10.7845474"><ele>18.2</ele><time>2026-05-02T06:03:39.149Z</time></trkpt><trkpt lat="45.174293" lon="10.7846577"><ele>18.599999999999998</ele><time>2026-05-02T06:03:41.149Z</time></trkpt><trkpt lat="45.1743557" lon="10.7847612"><ele>19.0</ele><time>2026-05-02T06:03:43.148Z</time></trkpt><trkpt lat="45.1744124" lon="10.7848574"><ele>19.0</ele><time>2026-05-02T06:03:45.147Z</time></trkpt><trkpt lat="45.1744806" lon="10.7849508"><ele>19.0</ele><time>2026-05-02T06:03:47.147Z</time></trkpt><trkpt lat="45.1745435" lon="10.7850475"><ele>19.0</ele><time>2026-05-02T06:03:49.149Z</time></trkpt><trkpt lat="45.1746196" lon="10.7851377"><ele>19.0</ele><time>2026-05-02T06:03:51.149Z</time></trkpt><trkpt lat="45.174697" lon="10.7852103"><ele>19.0</ele><time>2026-05-02T06:03:53.148Z</time></trkpt><trkpt lat="45.174775" lon="10.7852598"><ele>19.0</ele><time>2026-05-02T06:03:55.148Z</time></trkpt><trkpt lat="45.1748515" lon="10.7852912"><ele>19.0</ele><time>2026-05-02T06:03:57.148Z</time></trkpt><trkpt lat="45.1749328" lon="10.7852891"><ele>19.0</ele><time>2026-05-02T06:03:59.148Z</time></trkpt><trkpt lat="45.1750144" lon="10.7852657"><ele>19.0</ele><time>2026-05-02T06:04:01.149Z</time></trkpt><trkpt lat="45.1750923" lon="10.7852205"><ele>19.0</ele><time>2026-05-02T06:04:03.148Z</time></trkpt><trkpt lat="45.1751661" lon="10.785174"><ele>19.0</ele><time>2026-05-02T06:04:05.148Z</time></trkpt><trkpt lat="45.1752476" lon="10.785138"><ele>18.8</ele><time>2026-05-02T06:04:07.149Z</time></trkpt><trkpt lat="45.1753376" lon="10.785126"><ele>18.599999999999998</ele><time>2026-05-02T06:04:09.149Z</time></trkpt><trkpt lat="45.1754339" lon="10.7851152"><ele>18.4</ele><time>2026-05-02T06:04:11.149Z</time></trkpt><trkpt lat="45.1755327" lon="10.7850989"><ele>18.2</ele><time>2026-05-02T06:04:13.149Z</time></trkpt><trkpt lat="45.1756323" lon="10.7850684"><ele>18.0</ele><time>2026-05-02T06:04:15.148Z</time></trkpt><trkpt lat="45.1757299" lon="10.7850234"><ele>18.0</ele><time>2026-05-02T06:04:17.148Z</time></trkpt><trkpt lat="45.1758414" lon="10.784985"><ele>18.0</ele><time>2026-05-02T06:04:19.148Z</time></trkpt><trkpt lat="45.1759492" lon="10.7849499"><ele>18.0</ele><time>2026-05-02T06:04:21.149Z</time></trkpt><trkpt lat="45.1760564" lon="10.7849036"><ele>18.0</ele><time>2026-05-02T06:04:23.149Z</time></trkpt><trkpt lat="45.176176" lon="10.7848551"><ele>18.0</ele><time>2026-05-02T06:04:25.149Z</time></trkpt><trkpt lat="45.1762856" lon="10.7848322"><ele>18.0</ele><time>2026-05-02T06:04:27.148Z</time></trkpt><trkpt lat="45.1763658" lon="10.7848041"><ele>18.0</ele><time>2026-05-02T06:04:29.149Z</time></trkpt><trkpt lat="45.1764414" lon="10.7847547"><ele>18.0</ele><time>2026-05-02T06:04:31.148Z</time></trkpt><trkpt lat="45.1765123" lon="10.7847061"><ele>18.0</ele><time>2026-05-02T06:04:33.148Z</time></trkpt><trkpt lat="45.1765832" lon="10.7846129"><ele>18.166666666666668</ele><time>2026-05-02T06:04:36.148Z</time></trkpt><trkpt lat="45.176637" lon="10.7845339"><ele>18.333333333333332</ele><time>2026-05-02T06:04:38.147Z</time></trkpt><trkpt lat="45.1766966" lon="10.7844712"><ele>18.5</ele><time>2026-05-02T06:04:40.149Z</time></trkpt><trkpt lat="45.1767578" lon="10.7844183"><ele>18.666666666666664</ele><time>2026-05-02T06:04:42.148Z</time></trkpt><trkpt lat="45.1768274" lon="10.7843749"><ele>18.833333333333332</ele><time>2026-05-02T06:04:44.149Z</time></trkpt><trkpt lat="45.1769018" lon="10.78433"><ele>19.0</ele><time>2026-05-02T06:04:46.148Z</time></trkpt><trkpt lat="45.1769768" lon="10.7842794"><ele>19.0</ele><time>2026-05-02T06:04:48.149Z</time></trkpt><trkpt lat="45.1770524" lon="10.7842211"><ele>19.0</ele><time>2026-05-02T06:04:50.148Z</time></trkpt><trkpt lat="45.177127" lon="10.7841781"><ele>19.0</ele><time>2026-05-02T06:04:52.148Z</time></trkpt><trkpt lat="45.1772024" lon="10.7841404"><ele>19.0</ele><time>2026-05-02T06:04:54.148Z</time></trkpt><trkpt lat="45.1772692" lon="10.784074"><ele>19.0</ele><time>2026-05-02T06:04:56.149Z</time></trkpt><trkpt lat="45.177312" lon="10.7839784"><ele>19.0</ele><time>2026-05-02T06:04:58.148Z</time></trkpt><trkpt lat="45.177366" lon="10.7838762"><ele>19.0</ele><time>2026-05-02T06:05:00.147Z</time></trkpt><trkpt lat="45.1774527" lon="10.7837772"><ele>19.0</ele><time>2026-05-02T06:05:02.148Z</time></trkpt><trkpt lat="45.1775392" lon="10.7836922"><ele>19.0</ele><time>2026-05-02T06:05:04.149Z</time></trkpt><trkpt lat="45.1776242" lon="10.7836009"><ele>19.0</ele><time>2026-05-02T06:05:06.149Z</time></trkpt><trkpt lat="45.1776926" lon="10.7835107"><ele>19.0</ele><time>2026-05-02T06:05:08.148Z</time></trkpt><trkpt lat="45.1777478" lon="10.7834203"><ele>19.0</ele><time>2026-05-02T06:05:10.147Z</time></trkpt><trkpt lat="45.177801" lon="10.7833218"><ele>19.0</ele><time>2026-05-02T06:05:12.147Z</time></trkpt><trkpt lat="45.1778339" lon="10.7832167"><ele>19.0</ele><time>2026-05-02T06:05:14.147Z</time></trkpt><trkpt lat="45.1778476" lon="10.7831209"><ele>19.0</ele><time>2026-05-02T06:05:16.147Z</time></trkpt><trkpt lat="45.1779136" lon="10.7830502"><ele>19.0</ele><time>2026-05-02T06:05:19.148Z</time></trkpt><trkpt lat="45.1779087" lon="10.7829546"><ele>19.0</ele><time>2026-05-02T06:05:22.147Z</time></trkpt><trkpt lat="45.177839" lon="10.782864"><ele>19.0</ele><time>2026-05-02T06:05:25.148Z</time></trkpt><trkpt lat="45.1777777" lon="10.7827853"><ele>19.0</ele><time>2026-05-02T06:05:28.148Z</time></trkpt><trkpt lat="45.1777078" lon="10.7827009"><ele>19.0</ele><time>2026-05-02T06:05:31.149Z</time></trkpt><trkpt lat="45.1776547" lon="10.7826409"><ele>19.0</ele><time>2026-05-02T06:05:33.149Z</time></trkpt><trkpt lat="45.1776081" lon="10.7825711"><ele>19.0</ele><time>2026-05-02T06:05:35.148Z</time></trkpt><trkpt lat="45.1775561" lon="10.7824858"><ele>19.0</ele><time>2026-05-02T06:05:37.149Z</time></trkpt><trkpt lat="45.1775017" lon="10.7823915"><ele>18.833333333333332</ele><time>2026-05-02T06:05:39.148Z</time></trkpt><trkpt lat="45.1774489" lon="10.7822963"><ele>18.666666666666664</ele><time>2026-05-02T06:05:41.149Z</time></trkpt><trkpt lat="45.1774007" lon="10.7821959"><ele>18.5</ele><time>2026-05-02T06:05:43.148Z</time></trkpt><trkpt lat="45.1773574" lon="10.7820894"><ele>18.333333333333332</ele><time>2026-05-02T06:05:45.147Z</time></trkpt><trkpt lat="45.1773195" lon="10.7819792"><ele>18.166666666666668</ele><time>2026-05-02T06:05:47.149Z</time></trkpt><trkpt lat="45.1772884" lon="10.7818645"><ele>18.0</ele><time>2026-05-02T06:05:49.148Z</time></trkpt><trkpt lat="45.1772612" lon="10.7817482"><ele>18.0</ele><time>2026-05-02T06:05:51.149Z</time></trkpt><trkpt lat="45.1772415" lon="10.7816293"><ele>18.0</ele><time>2026-05-02T06:05:53.148Z</time></trkpt><trkpt lat="45.177225" lon="10.7815147"><ele>18.0</ele><time>2026-05-02T06:05:55.148Z</time></trkpt><trkpt lat="45.1772096" lon="10.7813965"><ele>18.0</ele><time>2026-05-02T06:05:57.148Z</time></trkpt><trkpt lat="45.1771941" lon="10.7812775"><ele>18.0</ele><time>2026-05-02T06:05:59.147Z</time></trkpt><trkpt lat="45.1771776" lon="10.7811637"><ele>18.0</ele><time>2026-05-02T06:06:01.149Z</time></trkpt><trkpt lat="45.1771634" lon="10.7810482"><ele>18.5</ele><time>2026-05-02T06:06:03.148Z</time></trkpt><trkpt lat="45.1771433" lon="10.7809345"><ele>19.0</ele><time>2026-05-02T06:06:05.148Z</time></trkpt><trkpt lat="45.1771228" lon="10.780822"><ele>19.5</ele><time>2026-05-02T06:06:07.147Z</time></trkpt><trkpt lat="45.177101" lon="10.7807026"><ele>20.0</ele><time>2026-05-02T06:06:09.148Z</time></trkpt><trkpt lat="45.1770842" lon="10.7805738"><ele>20.5</ele><time>2026-05-02T06:06:11.148Z</time></trkpt><trkpt lat="45.1770572" lon="10.7804494"><ele>21.0</ele><time>2026-05-02T06:06:13.147Z</time></trkpt><trkpt lat="45.1770221" lon="10.7803313"><ele>21.0</ele><time>2026-05-02T06:06:15.148Z</time></trkpt><trkpt lat="45.1769879" lon="10.780217"><ele>21.0</ele><time>2026-05-02T06:06:17.147Z</time></trkpt><trkpt lat="45.1769596" lon="10.7801174"><ele>21.0</ele><time>2026-05-02T06:06:19.148Z</time></trkpt><trkpt lat="45.1769207" lon="10.7800283"><ele>21.0</ele><time>2026-05-02T06:06:21.149Z</time></trkpt><trkpt lat="45.1768836" lon="10.7799378"><ele>21.0</ele><time>2026-05-02T06:06:23.149Z</time></trkpt><trkpt lat="45.1768429" lon="10.7798548"><ele>21.0</ele><time>2026-05-02T06:06:25.149Z</time></trkpt><trkpt lat="45.176819" lon="10.7797619"><ele>20.833333333333332</ele><time>2026-05-02T06:06:27.148Z</time></trkpt><trkpt lat="45.1768523" lon="10.7796578"><ele>20.666666666666668</ele><time>2026-05-02T06:06:29.147Z</time></trkpt><trkpt lat="45.1768952" lon="10.7795586"><ele>20.5</ele><time>2026-05-02T06:06:31.148Z</time></trkpt><trkpt lat="45.1769395" lon="10.7794578"><ele>20.333333333333336</ele><time>2026-05-02T06:06:33.147Z</time></trkpt><trkpt lat="45.1769892" lon="10.7793578"><ele>20.166666666666668</ele><time>2026-05-02T06:06:35.149Z</time></trkpt><trkpt lat="45.1770383" lon="10.7792585"><ele>20.0</ele><time>2026-05-02T06:06:37.148Z</time></trkpt><trkpt lat="45.1770892" lon="10.7791644"><ele>19.833333333333336</ele><time>2026-05-02T06:06:39.146Z</time></trkpt><trkpt lat="45.1771437" lon="10.7790643"><ele>19.666666666666668</ele><time>2026-05-02T06:06:41.148Z</time></trkpt><trkpt lat="45.1771956" lon="10.7789637"><ele>19.5</ele><time>2026-05-02T06:06:43.149Z</time></trkpt><trkpt lat="45.1772418" lon="10.7788715"><ele>19.333333333333332</ele><time>2026-05-02T06:06:45.149Z</time></trkpt><trkpt lat="45.1772869" lon="10.7787562"><ele>19.166666666666664</ele><time>2026-05-02T06:06:47.147Z</time></trkpt><trkpt lat="45.1773216" lon="10.7786323"><ele>19.0</ele><time>2026-05-02T06:06:49.148Z</time></trkpt><trkpt lat="45.1773602" lon="10.7785083"><ele>18.8</ele><time>2026-05-02T06:06:51.148Z</time></trkpt><trkpt lat="45.177397" lon="10.7783817"><ele>18.599999999999998</ele><time>2026-05-02T06:06:53.148Z</time></trkpt><trkpt lat="45.1774324" lon="10.7782592"><ele>18.4</ele><time>2026-05-02T06:06:55.149Z</time></trkpt><trkpt lat="45.1774793" lon="10.7781326"><ele>18.2</ele><time>2026-05-02T06:06:57.149Z</time></trkpt><trkpt lat="45.1775236" lon="10.7780074"><ele>18.0</ele><time>2026-05-02T06:06:59.148Z</time></trkpt><trkpt lat="45.1775584" lon="10.7778764"><ele>18.0</ele><time>2026-05-02T06:07:01.147Z</time></trkpt><trkpt lat="45.177603" lon="10.7777551"><ele>18.0</ele><time>2026-05-02T06:07:03.148Z</time></trkpt><trkpt lat="45.1776354" lon="10.7776306"><ele>18.0</ele><time>2026-05-02T06:07:05.149Z</time></trkpt><trkpt lat="45.1776673" lon="10.7775068"><ele>18.0</ele><time>2026-05-02T06:07:07.148Z</time></trkpt><trkpt lat="45.1777018" lon="10.7773793"><ele>18.0</ele><time>2026-05-02T06:07:09.147Z</time></trkpt><trkpt lat="45.1777386" lon="10.7772544"><ele>17.8</ele><time>2026-05-02T06:07:11.149Z</time></trkpt><trkpt lat="45.1777765" lon="10.7771255"><ele>17.6</ele><time>2026-05-02T06:07:13.148Z</time></trkpt><trkpt lat="45.1778166" lon="10.7770065"><ele>17.4</ele><time>2026-05-02T06:07:15.147Z</time></trkpt><trkpt lat="45.1778597" lon="10.7768905"><ele>17.2</ele><time>2026-05-02T06:07:17.149Z</time></trkpt><trkpt lat="45.1779087" lon="10.7767683"><ele>17.0</ele><time>2026-05-02T06:07:19.149Z</time></trkpt><trkpt lat="45.1779611" lon="10.7766439"><ele>17.0</ele><time>2026-05-02T06:07:21.148Z</time></trkpt><trkpt lat="45.1780143" lon="10.7765346"><ele>17.0</ele><time>2026-05-02T06:07:23.147Z</time></trkpt><trkpt lat="45.1780619" lon="10.7764225"><ele>17.0</ele><time>2026-05-02T06:07:25.147Z</time></trkpt><trkpt lat="45.1781148" lon="10.77631"><ele>17.0</ele><time>2026-05-02T06:07:27.147Z</time></trkpt><trkpt lat="45.1781587" lon="10.776196"><ele>17.0</ele><time>2026-05-02T06:07:29.146Z</time></trkpt><trkpt lat="45.1782027" lon="10.7760798"><ele>17.0</ele><time>2026-05-02T06:07:31.149Z</time></trkpt><trkpt lat="45.1782423" lon="10.7759552"><ele>17.0</ele><time>2026-05-02T06:07:33.148Z</time></trkpt><trkpt lat="45.1782799" lon="10.7758285"><ele>17.0</ele><time>2026-05-02T06:07:35.147Z</time></trkpt><trkpt lat="45.1783137" lon="10.7757018"><ele>17.0</ele><time>2026-05-02T06:07:37.149Z</time></trkpt><trkpt lat="45.1783493" lon="10.7755852"><ele>17.0</ele><time>2026-05-02T06:07:39.149Z</time></trkpt><trkpt lat="45.1783821" lon="10.7754661"><ele>17.0</ele><time>2026-05-02T06:07:41.148Z</time></trkpt><trkpt lat="45.17842" lon="10.7753385"><ele>17.0</ele><time>2026-05-02T06:07:43.148Z</time></trkpt><trkpt lat="45.1784527" lon="10.7752159"><ele>17.0</ele><time>2026-05-02T06:07:45.147Z</time></trkpt><trkpt lat="45.1784832" lon="10.7750886"><ele>17.0</ele><time>2026-05-02T06:07:47.148Z</time></trkpt><trkpt lat="45.1785165" lon="10.7749638"><ele>17.0</ele><time>2026-05-02T06:07:49.147Z</time></trkpt><trkpt lat="45.1785494" lon="10.7748362"><ele>17.0</ele><time>2026-05-02T06:07:51.148Z</time></trkpt><trkpt lat="45.1785763" lon="10.7747178"><ele>17.0</ele><time>2026-05-02T06:07:53.148Z</time></trkpt><trkpt lat="45.1785931" lon="10.7745881"><ele>17.0</ele><time>2026-05-02T06:07:55.148Z</time></trkpt><trkpt lat="45.1785956" lon="10.7744613"><ele>17.0</ele><time>2026-05-02T06:07:57.146Z</time></trkpt><trkpt lat="45.1785788" lon="10.7743193"><ele>17.0</ele><time>2026-05-02T06:07:59.149Z</time></trkpt><trkpt lat="45.1785575" lon="10.7741822"><ele>17.0</ele><time>2026-05-02T06:08:01.149Z</time></trkpt><trkpt lat="45.1785389" lon="10.7740469"><ele>17.0</ele><time>2026-05-02T06:08:03.149Z</time></trkpt><trkpt lat="45.1785226" lon="10.7739089"><ele>17.0</ele><time>2026-05-02T06:08:05.149Z</time></trkpt><trkpt lat="45.1785178" lon="10.7737763"><ele>17.0</ele><time>2026-05-02T06:08:07.147Z</time></trkpt><trkpt lat="45.178521" lon="10.7736461"><ele>17.0</ele><time>2026-05-02T06:08:09.148Z</time></trkpt><trkpt lat="45.1785354" lon="10.7735077"><ele>17.0</ele><time>2026-05-02T06:08:11.148Z</time></trkpt><trkpt lat="45.1785579" lon="10.7733648"><ele>17.0</ele><time>2026-05-02T06:08:13.147Z</time></trkpt><trkpt lat="45.1785847" lon="10.7732323"><ele>17.0</ele><time>2026-05-02T06:08:15.148Z</time></trkpt><trkpt lat="45.1786089" lon="10.773096"><ele>17.0</ele><time>2026-05-02T06:08:17.149Z</time></trkpt><trkpt lat="45.1786441" lon="10.7729658"><ele>17.0</ele><time>2026-05-02T06:08:19.148Z</time></trkpt><trkpt lat="45.1786907" lon="10.7728561"><ele>17.0</ele><time>2026-05-02T06:08:21.147Z</time></trkpt><trkpt lat="45.1787411" lon="10.7727407"><ele>17.0</ele><time>2026-05-02T06:08:23.149Z</time></trkpt><trkpt lat="45.1787932" lon="10.772629"><ele>17.0</ele><time>2026-05-02T06:08:25.147Z</time></trkpt><trkpt lat="45.1788432" lon="10.772511"><ele>17.0</ele><time>2026-05-02T06:08:27.149Z</time></trkpt><trkpt lat="45.178896" lon="10.7724053"><ele>17.0</ele><time>2026-05-02T06:08:29.148Z</time></trkpt><trkpt lat="45.1789611" lon="10.7723025"><ele>18.0</ele><time>2026-05-02T06:08:31.148Z</time></trkpt><trkpt lat="45.1790263" lon="10.772212"><ele>19.0</ele><time>2026-05-02T06:08:33.146Z</time></trkpt><trkpt lat="45.1791069" lon="10.772134"><ele>20.0</ele><time>2026-05-02T06:08:35.148Z</time></trkpt><trkpt lat="45.1791916" lon="10.7720726"><ele>21.0</ele><time>2026-05-02T06:08:37.147Z</time></trkpt><trkpt lat="45.179284" lon="10.772014"><ele>22.0</ele><time>2026-05-02T06:08:39.147Z</time></trkpt><trkpt lat="45.1793641" lon="10.7719754"><ele>22.0</ele><time>2026-05-02T06:08:41.147Z</time></trkpt><trkpt lat="45.1794457" lon="10.7719459"><ele>22.0</ele><time>2026-05-02T06:08:43.147Z</time></trkpt><trkpt lat="45.17952" lon="10.7719038"><ele>22.0</ele><time>2026-05-02T06:08:45.146Z</time></trkpt><trkpt lat="45.1795991" lon="10.7718667"><ele>22.0</ele><time>2026-05-02T06:08:47.147Z</time></trkpt><trkpt lat="45.1796803" lon="10.771831"><ele>22.0</ele><time>2026-05-02T06:08:49.149Z</time></trkpt><trkpt lat="45.1797654" lon="10.7717922"><ele>22.0</ele><time>2026-05-02T06:08:51.147Z</time></trkpt><trkpt lat="45.1798482" lon="10.771761"><ele>21.833333333333332</ele><time>2026-05-02T06:08:53.148Z</time></trkpt><trkpt lat="45.1799316" lon="10.7717237"><ele>21.666666666666664</ele><time>2026-05-02T06:08:55.147Z</time></trkpt><trkpt lat="45.1800157" lon="10.771694"><ele>21.5</ele><time>2026-05-02T06:08:57.148Z</time></trkpt><trkpt lat="45.1800976" lon="10.771653"><ele>21.333333333333332</ele><time>2026-05-02T06:08:59.147Z</time></trkpt><trkpt lat="45.1801836" lon="10.7716324"><ele>21.166666666666668</ele><time>2026-05-02T06:09:01.148Z</time></trkpt><trkpt lat="45.1802695" lon="10.7716403"><ele>21.0</ele><time>2026-05-02T06:09:03.148Z</time></trkpt><trkpt lat="45.1803509" lon="10.7716798"><ele>21.0</ele><time>2026-05-02T06:09:05.147Z</time></trkpt><trkpt lat="45.1804343" lon="10.7717191"><ele>21.0</ele><time>2026-05-02T06:09:07.147Z</time></trkpt><trkpt lat="45.1805187" lon="10.7717475"><ele>21.0</ele><time>2026-05-02T06:09:09.148Z</time></trkpt><trkpt lat="45.1806128" lon="10.7717477"><ele>21.0</ele><time>2026-05-02T06:09:11.148Z</time></trkpt><trkpt lat="45.1807045" lon="10.7717304"><ele>21.0</ele><time>2026-05-02T06:09:13.148Z</time></trkpt><trkpt lat="45.1807965" lon="10.771705"><ele>20.400000000000002</ele><time>2026-05-02T06:09:15.149Z</time></trkpt><trkpt lat="45.1808839" lon="10.7716874"><ele>19.8</ele><time>2026-05-02T06:09:17.148Z</time></trkpt><trkpt lat="45.1809779" lon="10.77166"><ele>19.200000000000003</ele><time>2026-05-02T06:09:19.147Z</time></trkpt><trkpt lat="45.1810666" lon="10.7716372"><ele>18.6</ele><time>2026-05-02T06:09:21.147Z</time></trkpt><trkpt lat="45.1811583" lon="10.7716132"><ele>18.0</ele><time>2026-05-02T06:09:23.147Z</time></trkpt><trkpt lat="45.1812467" lon="10.7715815"><ele>18.0</ele><time>2026-05-02T06:09:25.147Z</time></trkpt><trkpt lat="45.1813449" lon="10.7715541"><ele>18.0</ele><time>2026-05-02T06:09:27.147Z</time></trkpt><trkpt lat="45.1814348" lon="10.7715329"><ele>18.0</ele><time>2026-05-02T06:09:29.148Z</time></trkpt><trkpt lat="45.1815188" lon="10.7715071"><ele>18.0</ele><time>2026-05-02T06:09:31.147Z</time></trkpt><trkpt lat="45.1816106" lon="10.7714819"><ele>18.0</ele><time>2026-05-02T06:09:33.146Z</time></trkpt><trkpt lat="45.1816904" lon="10.771446"><ele>17.833333333333332</ele><time>2026-05-02T06:09:35.147Z</time></trkpt><trkpt lat="45.1817673" lon="10.7714263"><ele>17.666666666666668</ele><time>2026-05-02T06:09:37.147Z</time></trkpt><trkpt lat="45.1818123" lon="10.7715304"><ele>17.5</ele><time>2026-05-02T06:09:40.147Z</time></trkpt><trkpt lat="45.1818612" lon="10.7716428"><ele>17.333333333333336</ele><time>2026-05-02T06:09:43.148Z</time></trkpt><trkpt lat="45.1819328" lon="10.7716394"><ele>17.166666666666668</ele><time>2026-05-02T06:09:45.148Z</time></trkpt><trkpt lat="45.1819932" lon="10.7715715"><ele>17.0</ele><time>2026-05-02T06:09:47.149Z</time></trkpt><trkpt lat="45.1820536" lon="10.7715068"><ele>17.0</ele><time>2026-05-02T06:09:49.148Z</time></trkpt><trkpt lat="45.1821127" lon="10.7714453"><ele>17.0</ele><time>2026-05-02T06:09:51.149Z</time></trkpt><trkpt lat="45.1821752" lon="10.7713818"><ele>17.0</ele><time>2026-05-02T06:09:53.148Z</time></trkpt><trkpt lat="45.1822381" lon="10.7713127"><ele>17.0</ele><time>2026-05-02T06:09:55.149Z</time></trkpt><trkpt lat="45.1823069" lon="10.771237"><ele>17.0</ele><time>2026-05-02T06:09:57.149Z</time></trkpt><trkpt lat="45.1823716" lon="10.7711478"><ele>17.0</ele><time>2026-05-02T06:09:59.146Z</time></trkpt><trkpt lat="45.1824285" lon="10.7710449"><ele>17.5</ele><time>2026-05-02T06:10:01.147Z</time></trkpt><trkpt lat="45.1824957" lon="10.7709566"><ele>18.0</ele><time>2026-05-02T06:10:03.148Z</time></trkpt><trkpt lat="45.1825626" lon="10.7708629"><ele>18.5</ele><time>2026-05-02T06:10:05.147Z</time></trkpt><trkpt lat="45.18263" lon="10.7707722"><ele>19.0</ele><time>2026-05-02T06:10:07.148Z</time></trkpt><trkpt lat="45.1826924" lon="10.770691"><ele>19.5</ele><time>2026-05-02T06:10:09.148Z</time></trkpt><trkpt lat="45.1827533" lon="10.7706051"><ele>20.0</ele><time>2026-05-02T06:10:11.149Z</time></trkpt><trkpt lat="45.1828228" lon="10.770512"><ele>20.0</ele><time>2026-05-02T06:10:13.149Z</time></trkpt><trkpt lat="45.1828988" lon="10.7704255"><ele>20.0</ele><time>2026-05-02T06:10:15.147Z</time></trkpt><trkpt lat="45.1829789" lon="10.7703584"><ele>20.0</ele><time>2026-05-02T06:10:17.148Z</time></trkpt><trkpt lat="45.1830457" lon="10.770275"><ele>20.0</ele><time>2026-05-02T06:10:19.147Z</time></trkpt><trkpt lat="45.1831116" lon="10.7701953"><ele>20.0</ele><time>2026-05-02T06:10:21.148Z</time></trkpt><trkpt lat="45.1831797" lon="10.7701127"><ele>20.0</ele><time>2026-05-02T06:10:23.147Z</time></trkpt><trkpt lat="45.1832441" lon="10.7700344"><ele>20.0</ele><time>2026-05-02T06:10:25.148Z</time></trkpt><trkpt lat="45.1833026" lon="10.7699538"><ele>20.0</ele><time>2026-05-02T06:10:27.148Z</time></trkpt><trkpt lat="45.1832879" lon="10.7698523"><ele>20.0</ele><time>2026-05-02T06:10:29.147Z</time></trkpt><trkpt lat="45.1832364" lon="10.7697695"><ele>20.0</ele><time>2026-05-02T06:10:31.148Z</time></trkpt><trkpt lat="45.1832566" lon="10.7696675"><ele>20.0</ele><time>2026-05-02T06:10:33.147Z</time></trkpt><trkpt lat="45.1833019" lon="10.7695914"><ele>20.0</ele><time>2026-05-02T06:10:35.148Z</time></trkpt><trkpt lat="45.1833446" lon="10.7695175"><ele>20.0</ele><time>2026-05-02T06:10:37.149Z</time></trkpt><trkpt lat="45.1833916" lon="10.7694388"><ele>20.0</ele><time>2026-05-02T06:10:39.147Z</time></trkpt><trkpt lat="45.1834396" lon="10.7693583"><ele>20.0</ele><time>2026-05-02T06:10:41.147Z</time></trkpt><trkpt lat="45.183487" lon="10.7692765"><ele>20.0</ele><time>2026-05-02T06:10:43.147Z</time></trkpt><trkpt lat="45.1835337" lon="10.7691878"><ele>20.0</ele><time>2026-05-02T06:10:45.148Z</time></trkpt><trkpt lat="45.1835788" lon="10.7690857"><ele>20.0</ele><time>2026-05-02T06:10:47.147Z</time></trkpt><trkpt lat="45.1836261" lon="10.7689791"><ele>20.0</ele><time>2026-05-02T06:10:49.149Z</time></trkpt><trkpt lat="45.1836699" lon="10.7688682"><ele>20.0</ele><time>2026-05-02T06:10:51.147Z</time></trkpt><trkpt lat="45.1837086" lon="10.7687527"><ele>20.0</ele><time>2026-05-02T06:10:53.147Z</time></trkpt><trkpt lat="45.1837447" lon="10.7686268"><ele>20.0</ele><time>2026-05-02T06:10:55.147Z</time></trkpt><trkpt lat="45.1837729" lon="10.7685055"><ele>20.0</ele><time>2026-05-02T06:10:57.146Z</time></trkpt><trkpt lat="45.1837844" lon="10.7683771"><ele>20.0</ele><time>2026-05-02T06:10:59.149Z</time></trkpt><trkpt lat="45.1837887" lon="10.7682492"><ele>20.0</ele><time>2026-05-02T06:11:01.148Z</time></trkpt><trkpt lat="45.1837985" lon="10.7681212"><ele>20.0</ele><time>2026-05-02T06:11:03.149Z</time></trkpt><trkpt lat="45.1838057" lon="10.7679977"><ele>20.0</ele><time>2026-05-02T06:11:05.148Z</time></trkpt><trkpt lat="45.1838134" lon="10.7678692"><ele>20.0</ele><time>2026-05-02T06:11:07.148Z</time></trkpt><trkpt lat="45.1838272" lon="10.767742"><ele>20.0</ele><time>2026-05-02T06:11:09.148Z</time></trkpt><trkpt lat="45.1838522" lon="10.7676137"><ele>20.0</ele><time>2026-05-02T06:11:11.148Z</time></trkpt><trkpt lat="45.1838752" lon="10.7674937"><ele>20.0</ele><time>2026-05-02T06:11:13.148Z</time></trkpt><trkpt lat="45.1838933" lon="10.7673824"><ele>20.0</ele><time>2026-05-02T06:11:15.148Z</time></trkpt><trkpt lat="45.1839122" lon="10.7672562"><ele>20.0</ele><time>2026-05-02T06:11:17.148Z</time></trkpt><trkpt lat="45.1839276" lon="10.7671328"><ele>19.833333333333336</ele><time>2026-05-02T06:11:19.148Z</time></trkpt><trkpt lat="45.1839408" lon="10.7670119"><ele>19.666666666666668</ele><time>2026-05-02T06:11:21.147Z</time></trkpt><trkpt lat="45.183952" lon="10.7669004"><ele>19.5</ele><time>2026-05-02T06:11:23.147Z</time></trkpt><trkpt lat="45.1839648" lon="10.7667962"><ele>19.333333333333332</ele><time>2026-05-02T06:11:25.148Z</time></trkpt><trkpt lat="45.183983" lon="10.7667019"><ele>19.166666666666664</ele><time>2026-05-02T06:11:27.148Z</time></trkpt><trkpt lat="45.1840658" lon="10.7667004"><ele>19.0</ele><time>2026-05-02T06:11:30.148Z</time></trkpt><trkpt lat="45.1841274" lon="10.7667209"><ele>19.0</ele><time>2026-05-02T06:11:32.147Z</time></trkpt><trkpt lat="45.1841922" lon="10.7667558"><ele>19.0</ele><time>2026-05-02T06:11:34.147Z</time></trkpt><trkpt lat="45.1842598" lon="10.7668046"><ele>19.0</ele><time>2026-05-02T06:11:36.148Z</time></trkpt><trkpt lat="45.1843296" lon="10.7668555"><ele>19.0</ele><time>2026-05-02T06:11:38.147Z</time></trkpt><trkpt lat="45.1844039" lon="10.7669052"><ele>19.0</ele><time>2026-05-02T06:11:40.147Z</time></trkpt><trkpt lat="45.1844789" lon="10.7669549"><ele>19.0</ele><time>2026-05-02T06:11:42.147Z</time></trkpt><trkpt lat="45.1845553" lon="10.7670107"><ele>19.0</ele><time>2026-05-02T06:11:44.148Z</time></trkpt><trkpt lat="45.1846337" lon="10.767065"><ele>19.0</ele><time>2026-05-02T06:11:46.148Z</time></trkpt><trkpt lat="45.1847155" lon="10.7671206"><ele>19.0</ele><time>2026-05-02T06:11:48.148Z</time></trkpt><trkpt lat="45.1847889" lon="10.7671769"><ele>19.0</ele><time>2026-05-02T06:11:50.147Z</time></trkpt><trkpt lat="45.184864" lon="10.7672304"><ele>19.0</ele><time>2026-05-02T06:11:52.146Z</time></trkpt><trkpt lat="45.1849389" lon="10.7672852"><ele>19.0</ele><time>2026-05-02T06:11:54.149Z</time></trkpt><trkpt lat="45.1850136" lon="10.7673387"><ele>19.0</ele><time>2026-05-02T06:11:56.147Z</time></trkpt><trkpt lat="45.1850894" lon="10.7673912"><ele>19.0</ele><time>2026-05-02T06:11:58.148Z</time></trkpt><trkpt lat="45.1851676" lon="10.7674422"><ele>19.0</ele><time>2026-05-02T06:12:00.147Z</time></trkpt><trkpt lat="45.1852458" lon="10.7675009"><ele>19.0</ele><time>2026-05-02T06:12:02.148Z</time></trkpt><trkpt lat="45.1853249" lon="10.7675595"><ele>19.0</ele><time>2026-05-02T06:12:04.148Z</time></trkpt><trkpt lat="45.1853991" lon="10.7676156"><ele>19.0</ele><time>2026-05-02T06:12:06.148Z</time></trkpt><trkpt lat="45.1854724" lon="10.7676713"><ele>19.0</ele><time>2026-05-02T06:12:08.147Z</time></trkpt><trkpt lat="45.1855413" lon="10.7677274"><ele>19.0</ele><time>2026-05-02T06:12:10.147Z</time></trkpt><trkpt lat="45.1855922" lon="10.7677828"><ele>19.0</ele><time>2026-05-02T06:12:12.148Z</time></trkpt><trkpt lat="45.1856648" lon="10.767738"><ele>19.0</ele><time>2026-05-02T06:12:15.147Z</time></trkpt><trkpt lat="45.1857297" lon="10.7676453"><ele>19.0</ele><time>2026-05-02T06:12:18.147Z</time></trkpt><trkpt lat="45.1857772" lon="10.767581"><ele>19.0</ele><time>2026-05-02T06:12:20.147Z</time></trkpt><trkpt lat="45.1858301" lon="10.7675227"><ele>19.0</ele><time>2026-05-02T06:12:22.148Z</time></trkpt><trkpt lat="45.1858821" lon="10.7674649"><ele>19.0</ele><time>2026-05-02T06:12:24.148Z</time></trkpt><trkpt lat="45.1859359" lon="10.767408"><ele>19.0</ele><time>2026-05-02T06:12:26.147Z</time></trkpt><trkpt lat="45.1859948" lon="10.7673507"><ele>19.0</ele><time>2026-05-02T06:12:28.147Z</time></trkpt><trkpt lat="45.1860504" lon="10.767285"><ele>19.0</ele><time>2026-05-02T06:12:30.149Z</time></trkpt><trkpt lat="45.1861001" lon="10.7672103"><ele>19.0</ele><time>2026-05-02T06:12:32.147Z</time></trkpt><trkpt lat="45.186149" lon="10.7671331"><ele>19.0</ele><time>2026-05-02T06:12:34.147Z</time></trkpt><trkpt lat="45.1861959" lon="10.7670524"><ele>19.0</ele><time>2026-05-02T06:12:36.148Z</time></trkpt><trkpt lat="45.1862386" lon="10.7669693"><ele>19.0</ele><time>2026-05-02T06:12:38.146Z</time></trkpt><trkpt lat="45.1862745" lon="10.7668774"><ele>19.0</ele><time>2026-05-02T06:12:40.148Z</time></trkpt><trkpt lat="45.1863108" lon="10.7667848"><ele>19.0</ele><time>2026-05-02T06:12:42.147Z</time></trkpt><trkpt lat="45.1863441" lon="10.7666921"><ele>19.0</ele><time>2026-05-02T06:12:44.147Z</time></trkpt><trkpt lat="45.1863779" lon="10.7665994"><ele>19.0</ele><time>2026-05-02T06:12:46.148Z</time></trkpt><trkpt lat="45.1864071" lon="10.7665061"><ele>19.0</ele><time>2026-05-02T06:12:48.146Z</time></trkpt><trkpt lat="45.1864409" lon="10.7664082"><ele>19.0</ele><time>2026-05-02T06:12:50.148Z</time></trkpt><trkpt lat="45.1864704" lon="10.7663121"><ele>19.166666666666664</ele><time>2026-05-02T06:12:52.148Z</time></trkpt><trkpt lat="45.1865016" lon="10.766225"><ele>19.333333333333332</ele><time>2026-05-02T06:12:54.146Z</time></trkpt><trkpt lat="45.1865359" lon="10.7661377"><ele>19.5</ele><time>2026-05-02T06:12:56.147Z</time></trkpt><trkpt lat="45.1865782" lon="10.7660589"><ele>19.666666666666668</ele><time>2026-05-02T06:12:58.149Z</time></trkpt><trkpt lat="45.1866623" lon="10.7660327"><ele>19.833333333333336</ele><time>2026-05-02T06:13:01.146Z</time></trkpt><trkpt lat="45.1867342" lon="10.7661095"><ele>20.0</ele><time>2026-05-02T06:13:04.148Z</time></trkpt><trkpt lat="45.1868113" lon="10.7661783"><ele>20.285714285714285</ele><time>2026-05-02T06:13:07.147Z</time></trkpt><trkpt lat="45.1868852" lon="10.766187"><ele>20.571428571428573</ele><time>2026-05-02T06:13:10.147Z</time></trkpt><trkpt lat="45.1869212" lon="10.7660792"><ele>20.857142857142858</ele><time>2026-05-02T06:13:13.147Z</time></trkpt><trkpt lat="45.1869382" lon="10.7659538"><ele>21.142857142857142</ele><time>2026-05-02T06:13:16.148Z</time></trkpt><trkpt lat="45.1869425" lon="10.7658637"><ele>21.428571428571427</ele><time>2026-05-02T06:13:18.148Z</time></trkpt><trkpt lat="45.1869467" lon="10.7657703"><ele>21.714285714285715</ele><time>2026-05-02T06:13:20.147Z</time></trkpt><trkpt lat="45.1869528" lon="10.7656754"><ele>22.0</ele><time>2026-05-02T06:13:22.147Z</time></trkpt><trkpt lat="45.1869651" lon="10.7655712"><ele>22.0</ele><time>2026-05-02T06:13:24.148Z</time></trkpt><trkpt lat="45.1869748" lon="10.7654667"><ele>22.0</ele><time>2026-05-02T06:13:26.148Z</time></trkpt><trkpt lat="45.1869866" lon="10.7653684"><ele>22.0</ele><time>2026-05-02T06:13:28.147Z</time></trkpt><trkpt lat="45.1869929" lon="10.765269"><ele>22.0</ele><time>2026-05-02T06:13:30.148Z</time></trkpt><trkpt lat="45.1870127" lon="10.7651743"><ele>22.0</ele><time>2026-05-02T06:13:32.146Z</time></trkpt><trkpt lat="45.1870261" lon="10.7650689"><ele>22.0</ele><time>2026-05-02T06:13:34.148Z</time></trkpt><trkpt lat="45.1870423" lon="10.7649683"><ele>22.0</ele><time>2026-05-02T06:13:36.148Z</time></trkpt><trkpt lat="45.1870538" lon="10.7648585"><ele>21.833333333333332</ele><time>2026-05-02T06:13:38.148Z</time></trkpt><trkpt lat="45.187066" lon="10.7647456"><ele>21.666666666666664</ele><time>2026-05-02T06:13:40.147Z</time></trkpt><trkpt lat="45.1870755" lon="10.7646372"><ele>21.5</ele><time>2026-05-02T06:13:42.147Z</time></trkpt><trkpt lat="45.1870913" lon="10.7645212"><ele>21.333333333333332</ele><time>2026-05-02T06:13:44.147Z</time></trkpt><trkpt lat="45.1871068" lon="10.7644034"><ele>21.166666666666668</ele><time>2026-05-02T06:13:46.147Z</time></trkpt><trkpt lat="45.1871203" lon="10.7642784"><ele>21.0</ele><time>2026-05-02T06:13:48.148Z</time></trkpt><trkpt lat="45.1871322" lon="10.7641445"><ele>21.0</ele><time>2026-05-02T06:13:50.147Z</time></trkpt><trkpt lat="45.1871465" lon="10.7640167"><ele>21.0</ele><time>2026-05-02T06:13:52.147Z</time></trkpt><trkpt lat="45.1871593" lon="10.7638902"><ele>21.0</ele><time>2026-05-02T06:13:54.147Z</time></trkpt><trkpt lat="45.187183" lon="10.7637707"><ele>21.0</ele><time>2026-05-02T06:13:56.148Z</time></trkpt><trkpt lat="45.1871913" lon="10.7636426"><ele>21.0</ele><time>2026-05-02T06:13:58.147Z</time></trkpt><trkpt lat="45.1872049" lon="10.7635161"><ele>20.8</ele><time>2026-05-02T06:14:00.148Z</time></trkpt><trkpt lat="45.1872249" lon="10.7633874"><ele>20.6</ele><time>2026-05-02T06:14:02.148Z</time></trkpt><trkpt lat="45.1872368" lon="10.763269"><ele>20.4</ele><time>2026-05-02T06:14:04.147Z</time></trkpt><trkpt lat="45.1872554" lon="10.7631476"><ele>20.2</ele><time>2026-05-02T06:14:06.148Z</time></trkpt><trkpt lat="45.1872678" lon="10.7630225"><ele>20.0</ele><time>2026-05-02T06:14:08.148Z</time></trkpt><trkpt lat="45.187281" lon="10.7628842"><ele>20.0</ele><time>2026-05-02T06:14:10.146Z</time></trkpt><trkpt lat="45.187296" lon="10.7627545"><ele>20.0</ele><time>2026-05-02T06:14:12.148Z</time></trkpt><trkpt lat="45.1873102" lon="10.7626212"><ele>20.0</ele><time>2026-05-02T06:14:14.147Z</time></trkpt><trkpt lat="45.1873238" lon="10.762486"><ele>20.0</ele><time>2026-05-02T06:14:16.147Z</time></trkpt><trkpt lat="45.1873412" lon="10.7623618"><ele>20.0</ele><time>2026-05-02T06:14:18.148Z</time></trkpt><trkpt lat="45.1873523" lon="10.7622364"><ele>20.6</ele><time>2026-05-02T06:14:20.148Z</time></trkpt><trkpt lat="45.1873707" lon="10.7621096"><ele>21.2</ele><time>2026-05-02T06:14:22.148Z</time></trkpt><trkpt lat="45.1873849" lon="10.7619819"><ele>21.799999999999997</ele><time>2026-05-02T06:14:24.148Z</time></trkpt><trkpt lat="45.1873982" lon="10.7618522"><ele>22.4</ele><time>2026-05-02T06:14:26.148Z</time></trkpt><trkpt lat="45.187422" lon="10.7617156"><ele>23.0</ele><time>2026-05-02T06:14:28.147Z</time></trkpt><trkpt lat="45.1874362" lon="10.7615917"><ele>23.166666666666668</ele><time>2026-05-02T06:14:30.147Z</time></trkpt><trkpt lat="45.1874471" lon="10.7614682"><ele>23.333333333333336</ele><time>2026-05-02T06:14:32.147Z</time></trkpt><trkpt lat="45.187464" lon="10.7613364"><ele>23.5</ele><time>2026-05-02T06:14:34.148Z</time></trkpt><trkpt lat="45.1874739" lon="10.7612163"><ele>23.666666666666668</ele><time>2026-05-02T06:14:36.147Z</time></trkpt><trkpt lat="45.1874851" lon="10.7610903"><ele>23.833333333333332</ele><time>2026-05-02T06:14:38.148Z</time></trkpt><trkpt lat="45.1874944" lon="10.7609656"><ele>24.0</ele><time>2026-05-02T06:14:40.147Z</time></trkpt><trkpt lat="45.187501" lon="10.7608456"><ele>23.5</ele><time>2026-05-02T06:14:42.146Z</time></trkpt><trkpt lat="45.1875073" lon="10.7607306"><ele>23.0</ele><time>2026-05-02T06:14:44.148Z</time></trkpt><trkpt lat="45.1875221" lon="10.7606221"><ele>22.5</ele><time>2026-05-02T06:14:46.147Z</time></trkpt><trkpt lat="45.1875333" lon="10.7605173"><ele>22.0</ele><time>2026-05-02T06:14:48.148Z</time></trkpt><trkpt lat="45.1875543" lon="10.7604036"><ele>21.5</ele><time>2026-05-02T06:14:50.146Z</time></trkpt><trkpt lat="45.1875766" lon="10.7602788"><ele>21.0</ele><time>2026-05-02T06:14:52.148Z</time></trkpt><trkpt lat="45.1875906" lon="10.7601451"><ele>20.6</ele><time>2026-05-02T06:14:54.147Z</time></trkpt><trkpt lat="45.1876118" lon="10.7600122"><ele>20.200000000000003</ele><time>2026-05-02T06:14:56.147Z</time></trkpt><trkpt lat="45.1876301" lon="10.7598859"><ele>19.799999999999997</ele><time>2026-05-02T06:14:58.147Z</time></trkpt><trkpt lat="45.1876467" lon="10.7597424"><ele>19.4</ele><time>2026-05-02T06:15:00.148Z</time></trkpt><trkpt lat="45.1876596" lon="10.7596115"><ele>19.0</ele><time>2026-05-02T06:15:02.147Z</time></trkpt><trkpt lat="45.1876851" lon="10.7594733"><ele>19.0</ele><time>2026-05-02T06:15:04.147Z</time></trkpt><trkpt lat="45.187701" lon="10.7593333"><ele>19.0</ele><time>2026-05-02T06:15:06.146Z</time></trkpt><trkpt lat="45.1877144" lon="10.7592045"><ele>19.0</ele><time>2026-05-02T06:15:08.147Z</time></trkpt><trkpt lat="45.1877288" lon="10.7590717"><ele>19.0</ele><time>2026-05-02T06:15:10.148Z</time></trkpt><trkpt lat="45.1877466" lon="10.7589442"><ele>19.0</ele><time>2026-05-02T06:15:12.148Z</time></trkpt><trkpt lat="45.1877588" lon="10.7588138"><ele>19.0</ele><time>2026-05-02T06:15:14.147Z</time></trkpt><trkpt lat="45.1877752" lon="10.758673"><ele>19.0</ele><time>2026-05-02T06:15:16.147Z</time></trkpt><trkpt lat="45.1877878" lon="10.7585421"><ele>19.0</ele><time>2026-05-02T06:15:18.147Z</time></trkpt><trkpt lat="45.1878073" lon="10.758407"><ele>19.0</ele><time>2026-05-02T06:15:20.147Z</time></trkpt><trkpt lat="45.187818" lon="10.7582709"><ele>19.0</ele><time>2026-05-02T06:15:22.145Z</time></trkpt><trkpt lat="45.1878272" lon="10.7581407"><ele>19.0</ele><time>2026-05-02T06:15:24.147Z</time></trkpt><trkpt lat="45.1878465" lon="10.7580116"><ele>19.0</ele><time>2026-05-02T06:15:26.148Z</time></trkpt><trkpt lat="45.187863" lon="10.7578813"><ele>19.0</ele><time>2026-05-02T06:15:28.147Z</time></trkpt><trkpt lat="45.1878742" lon="10.7577429"><ele>19.0</ele><time>2026-05-02T06:15:30.148Z</time></trkpt><trkpt lat="45.1878819" lon="10.75761"><ele>19.0</ele><time>2026-05-02T06:15:32.147Z</time></trkpt><trkpt lat="45.1879018" lon="10.7574813"><ele>19.0</ele><time>2026-05-02T06:15:34.147Z</time></trkpt><trkpt lat="45.1879132" lon="10.7573505"><ele>19.0</ele><time>2026-05-02T06:15:36.147Z</time></trkpt><trkpt lat="45.1879243" lon="10.7572133"><ele>19.0</ele><time>2026-05-02T06:15:38.147Z</time></trkpt><trkpt lat="45.18794" lon="10.7570772"><ele>19.0</ele><time>2026-05-02T06:15:40.146Z</time></trkpt><trkpt lat="45.1879426" lon="10.7569361"><ele>19.0</ele><time>2026-05-02T06:15:42.147Z</time></trkpt><trkpt lat="45.1879471" lon="10.7568005"><ele>19.2</ele><time>2026-05-02T06:15:44.148Z</time></trkpt><trkpt lat="45.1879552" lon="10.7566713"><ele>19.4</ele><time>2026-05-02T06:15:46.147Z</time></trkpt><trkpt lat="45.1879572" lon="10.7565424"><ele>19.6</ele><time>2026-05-02T06:15:48.146Z</time></trkpt><trkpt lat="45.1879716" lon="10.7564042"><ele>19.8</ele><time>2026-05-02T06:15:50.148Z</time></trkpt><trkpt lat="45.1879756" lon="10.7562644"><ele>20.0</ele><time>2026-05-02T06:15:52.147Z</time></trkpt><trkpt lat="45.1879819" lon="10.7561291"><ele>19.6</ele><time>2026-05-02T06:15:54.146Z</time></trkpt><trkpt lat="45.1879811" lon="10.7559994"><ele>19.2</ele><time>2026-05-02T06:15:56.146Z</time></trkpt><trkpt lat="45.1879875" lon="10.7558752"><ele>18.8</ele><time>2026-05-02T06:15:58.148Z</time></trkpt><trkpt lat="45.1879979" lon="10.7557371"><ele>18.4</ele><time>2026-05-02T06:16:00.147Z</time></trkpt><trkpt lat="45.188009" lon="10.7556039"><ele>18.0</ele><time>2026-05-02T06:16:02.147Z</time></trkpt><trkpt lat="45.1880122" lon="10.7554651"><ele>18.0</ele><time>2026-05-02T06:16:04.148Z</time></trkpt><trkpt lat="45.1880188" lon="10.7553328"><ele>18.0</ele><time>2026-05-02T06:16:06.148Z</time></trkpt><trkpt lat="45.1880267" lon="10.7551992"><ele>18.0</ele><time>2026-05-02T06:16:08.147Z</time></trkpt><trkpt lat="45.1880236" lon="10.7550611"><ele>18.0</ele><time>2026-05-02T06:16:10.148Z</time></trkpt><trkpt lat="45.1880425" lon="10.7549333"><ele>18.0</ele><time>2026-05-02T06:16:12.147Z</time></trkpt><trkpt lat="45.1880522" lon="10.7547949"><ele>18.0</ele><time>2026-05-02T06:16:14.146Z</time></trkpt><trkpt lat="45.1880671" lon="10.7546544"><ele>18.0</ele><time>2026-05-02T06:16:16.147Z</time></trkpt><trkpt lat="45.188069" lon="10.7545142"><ele>18.0</ele><time>2026-05-02T06:16:18.146Z</time></trkpt><trkpt lat="45.1880783" lon="10.7543756"><ele>18.0</ele><time>2026-05-02T06:16:20.148Z</time></trkpt><trkpt lat="45.1880874" lon="10.7542377"><ele>18.0</ele><time>2026-05-02T06:16:22.146Z</time></trkpt><trkpt lat="45.1880961" lon="10.7541009"><ele>18.166666666666668</ele><time>2026-05-02T06:16:24.147Z</time></trkpt><trkpt lat="45.1881018" lon="10.7539684"><ele>18.333333333333332</ele><time>2026-05-02T06:16:26.146Z</time></trkpt><trkpt lat="45.1881077" lon="10.7538542"><ele>18.5</ele><time>2026-05-02T06:16:28.147Z</time></trkpt><trkpt lat="45.1881102" lon="10.7537388"><ele>18.666666666666664</ele><time>2026-05-02T06:16:30.147Z</time></trkpt><trkpt lat="45.1881137" lon="10.7536141"><ele>18.833333333333332</ele><time>2026-05-02T06:16:32.146Z</time></trkpt><trkpt lat="45.1881251" lon="10.7534861"><ele>19.0</ele><time>2026-05-02T06:16:34.147Z</time></trkpt><trkpt lat="45.1881382" lon="10.7533589"><ele>19.166666666666664</ele><time>2026-05-02T06:16:36.146Z</time></trkpt><trkpt lat="45.1881434" lon="10.7532307"><ele>19.333333333333332</ele><time>2026-05-02T06:16:38.148Z</time></trkpt><trkpt lat="45.1881464" lon="10.7531025"><ele>19.5</ele><time>2026-05-02T06:16:40.148Z</time></trkpt><trkpt lat="45.1881488" lon="10.7529813"><ele>19.666666666666668</ele><time>2026-05-02T06:16:42.148Z</time></trkpt><trkpt lat="45.188153" lon="10.7528613"><ele>19.833333333333336</ele><time>2026-05-02T06:16:44.146Z</time></trkpt><trkpt lat="45.1881565" lon="10.7527436"><ele>20.0</ele><time>2026-05-02T06:16:46.147Z</time></trkpt><trkpt lat="45.1881632" lon="10.7526306"><ele>20.166666666666668</ele><time>2026-05-02T06:16:48.147Z</time></trkpt><trkpt lat="45.1881691" lon="10.7525119"><ele>20.333333333333336</ele><time>2026-05-02T06:16:50.146Z</time></trkpt><trkpt lat="45.188178" lon="10.7523999"><ele>20.5</ele><time>2026-05-02T06:16:52.148Z</time></trkpt><trkpt lat="45.1881856" lon="10.7522837"><ele>20.666666666666668</ele><time>2026-05-02T06:16:54.148Z</time></trkpt><trkpt lat="45.188192" lon="10.7521675"><ele>20.833333333333332</ele><time>2026-05-02T06:16:56.146Z</time></trkpt><trkpt lat="45.1881954" lon="10.7520476"><ele>21.0</ele><time>2026-05-02T06:16:58.147Z</time></trkpt><trkpt lat="45.1882001" lon="10.7519262"><ele>20.833333333333332</ele><time>2026-05-02T06:17:00.146Z</time></trkpt><trkpt lat="45.1882072" lon="10.7518076"><ele>20.666666666666668</ele><time>2026-05-02T06:17:02.147Z</time></trkpt><trkpt lat="45.1882092" lon="10.7516926"><ele>20.5</ele><time>2026-05-02T06:17:04.146Z</time></trkpt><trkpt lat="45.1882161" lon="10.7515778"><ele>20.333333333333336</ele><time>2026-05-02T06:17:06.147Z</time></trkpt><trkpt lat="45.1882246" lon="10.7514615"><ele>20.166666666666668</ele><time>2026-05-02T06:17:08.146Z</time></trkpt><trkpt lat="45.1882311" lon="10.7513415"><ele>20.0</ele><time>2026-05-02T06:17:10.148Z</time></trkpt><trkpt lat="45.188231" lon="10.7512191"><ele>20.0</ele><time>2026-05-02T06:17:12.147Z</time></trkpt><trkpt lat="45.1882378" lon="10.7510972"><ele>20.0</ele><time>2026-05-02T06:17:14.147Z</time></trkpt><trkpt lat="45.1882431" lon="10.7509727"><ele>20.0</ele><time>2026-05-02T06:17:16.148Z</time></trkpt><trkpt lat="45.1882483" lon="10.7508521"><ele>20.0</ele><time>2026-05-02T06:17:18.146Z</time></trkpt><trkpt lat="45.188253" lon="10.7507333"><ele>20.0</ele><time>2026-05-02T06:17:20.147Z</time></trkpt><trkpt lat="45.1882579" lon="10.7506151"><ele>20.0</ele><time>2026-05-02T06:17:22.146Z</time></trkpt><trkpt lat="45.1882669" lon="10.7504916"><ele>20.333333333333336</ele><time>2026-05-02T06:17:24.145Z</time></trkpt><trkpt lat="45.1882742" lon="10.7503672"><ele>20.666666666666668</ele><time>2026-05-02T06:17:26.146Z</time></trkpt><trkpt lat="45.1882789" lon="10.7502427"><ele>21.0</ele><time>2026-05-02T06:17:28.147Z</time></trkpt><trkpt lat="45.1882805" lon="10.750118"><ele>21.333333333333332</ele><time>2026-05-02T06:17:30.147Z</time></trkpt><trkpt lat="45.188286" lon="10.7499905"><ele>21.666666666666664</ele><time>2026-05-02T06:17:32.145Z</time></trkpt><trkpt lat="45.1882942" lon="10.7498618"><ele>22.0</ele><time>2026-05-02T06:17:34.147Z</time></trkpt><trkpt lat="45.1882992" lon="10.7497287"><ele>22.0</ele><time>2026-05-02T06:17:36.145Z</time></trkpt><trkpt lat="45.1883027" lon="10.7496024"><ele>22.0</ele><time>2026-05-02T06:17:38.147Z</time></trkpt><trkpt lat="45.1883085" lon="10.7494686"><ele>22.0</ele><time>2026-05-02T06:17:40.146Z</time></trkpt><trkpt lat="45.1883164" lon="10.7493421"><ele>22.0</ele><time>2026-05-02T06:17:42.148Z</time></trkpt><trkpt lat="45.1883304" lon="10.7492114"><ele>22.0</ele><time>2026-05-02T06:17:44.148Z</time></trkpt><trkpt lat="45.1883345" lon="10.7490855"><ele>22.0</ele><time>2026-05-02T06:17:46.146Z</time></trkpt><trkpt lat="45.1883414" lon="10.748948"><ele>22.0</ele><time>2026-05-02T06:17:48.146Z</time></trkpt><trkpt lat="45.1883446" lon="10.7488204"><ele>22.0</ele><time>2026-05-02T06:17:50.145Z</time></trkpt><trkpt lat="45.1883546" lon="10.748687"><ele>22.0</ele><time>2026-05-02T06:17:52.148Z</time></trkpt><trkpt lat="45.18836" lon="10.7485635"><ele>22.0</ele><time>2026-05-02T06:17:54.146Z</time></trkpt><trkpt lat="45.188368" lon="10.7484234"><ele>21.8</ele><time>2026-05-02T06:17:56.146Z</time></trkpt><trkpt lat="45.1883715" lon="10.7482982"><ele>21.6</ele><time>2026-05-02T06:17:58.148Z</time></trkpt><trkpt lat="45.1883805" lon="10.7481691"><ele>21.400000000000002</ele><time>2026-05-02T06:18:00.147Z</time></trkpt><trkpt lat="45.1883978" lon="10.7480349"><ele>21.200000000000003</ele><time>2026-05-02T06:18:02.148Z</time></trkpt><trkpt lat="45.1884045" lon="10.7479125"><ele>21.0</ele><time>2026-05-02T06:18:04.147Z</time></trkpt><trkpt lat="45.1884077" lon="10.7477884"><ele>21.0</ele><time>2026-05-02T06:18:06.148Z</time></trkpt><trkpt lat="45.1884163" lon="10.7476684"><ele>21.0</ele><time>2026-05-02T06:18:08.147Z</time></trkpt><trkpt lat="45.188418" lon="10.7475386"><ele>21.0</ele><time>2026-05-02T06:18:10.146Z</time></trkpt><trkpt lat="45.188435" lon="10.7474096"><ele>21.0</ele><time>2026-05-02T06:18:12.146Z</time></trkpt><trkpt lat="45.188439" lon="10.747283"><ele>21.0</ele><time>2026-05-02T06:18:14.147Z</time></trkpt><trkpt lat="45.1884455" lon="10.7471561"><ele>21.0</ele><time>2026-05-02T06:18:16.147Z</time></trkpt><trkpt lat="45.1884456" lon="10.7470219"><ele>21.0</ele><time>2026-05-02T06:18:18.148Z</time></trkpt><trkpt lat="45.1884466" lon="10.7468969"><ele>21.0</ele><time>2026-05-02T06:18:20.146Z</time></trkpt><trkpt lat="45.1884527" lon="10.7467738"><ele>21.0</ele><time>2026-05-02T06:18:22.147Z</time></trkpt><trkpt lat="45.1884587" lon="10.7466441"><ele>21.0</ele><time>2026-05-02T06:18:24.146Z</time></trkpt><trkpt lat="45.1884643" lon="10.7465158"><ele>21.0</ele><time>2026-05-02T06:18:26.146Z</time></trkpt><trkpt lat="45.1884637" lon="10.7463891"><ele>21.0</ele><time>2026-05-02T06:18:28.148Z</time></trkpt><trkpt lat="45.1884733" lon="10.7462547"><ele>21.0</ele><time>2026-05-02T06:18:30.145Z</time></trkpt><trkpt lat="45.1884823" lon="10.7461254"><ele>21.0</ele><time>2026-05-02T06:18:32.148Z</time></trkpt><trkpt lat="45.1884902" lon="10.7459965"><ele>21.0</ele><time>2026-05-02T06:18:34.146Z</time></trkpt><trkpt lat="45.188496" lon="10.7458655"><ele>21.0</ele><time>2026-05-02T06:18:36.147Z</time></trkpt><trkpt lat="45.188501" lon="10.7457351"><ele>21.0</ele><time>2026-05-02T06:18:38.147Z</time></trkpt><trkpt lat="45.1885169" lon="10.7456009"><ele>21.0</ele><time>2026-05-02T06:18:40.147Z</time></trkpt><trkpt lat="45.1885242" lon="10.7454696"><ele>21.0</ele><time>2026-05-02T06:18:42.148Z</time></trkpt><trkpt lat="45.1885332" lon="10.7453346"><ele>21.0</ele><time>2026-05-02T06:18:44.145Z</time></trkpt><trkpt lat="45.1885343" lon="10.745197"><ele>21.0</ele><time>2026-05-02T06:18:46.148Z</time></trkpt><trkpt lat="45.1885395" lon="10.7450626"><ele>21.0</ele><time>2026-05-02T06:18:48.147Z</time></trkpt><trkpt lat="45.18855" lon="10.7449284"><ele>21.0</ele><time>2026-05-02T06:18:50.147Z</time></trkpt><trkpt lat="45.1885551" lon="10.7447852"><ele>21.0</ele><time>2026-05-02T06:18:52.147Z</time></trkpt><trkpt lat="45.1885628" lon="10.7446596"><ele>21.0</ele><time>2026-05-02T06:18:54.148Z</time></trkpt><trkpt lat="45.188575" lon="10.7445334"><ele>21.0</ele><time>2026-05-02T06:18:56.145Z</time></trkpt><trkpt lat="45.1885869" lon="10.7444011"><ele>21.0</ele><time>2026-05-02T06:18:58.147Z</time></trkpt><trkpt lat="45.188587" lon="10.7442665"><ele>20.833333333333332</ele><time>2026-05-02T06:19:00.146Z</time></trkpt><trkpt lat="45.1885845" lon="10.7441379"><ele>20.666666666666668</ele><time>2026-05-02T06:19:02.147Z</time></trkpt><trkpt lat="45.1885906" lon="10.7440154"><ele>20.5</ele><time>2026-05-02T06:19:04.146Z</time></trkpt><trkpt lat="45.1885841" lon="10.7438972"><ele>20.333333333333336</ele><time>2026-05-02T06:19:06.146Z</time></trkpt><trkpt lat="45.1885849" lon="10.7437953"><ele>20.166666666666668</ele><time>2026-05-02T06:19:08.148Z</time></trkpt><trkpt lat="45.1885919" lon="10.7436918"><ele>20.0</ele><time>2026-05-02T06:19:10.146Z</time></trkpt><trkpt lat="45.1885998" lon="10.743579"><ele>20.166666666666668</ele><time>2026-05-02T06:19:12.146Z</time></trkpt><trkpt lat="45.1886176" lon="10.7434535"><ele>20.333333333333336</ele><time>2026-05-02T06:19:14.146Z</time></trkpt><trkpt lat="45.1886306" lon="10.7433296"><ele>20.5</ele><time>2026-05-02T06:19:16.146Z</time></trkpt><trkpt lat="45.1886332" lon="10.7432012"><ele>20.666666666666668</ele><time>2026-05-02T06:19:18.147Z</time></trkpt><trkpt lat="45.1886337" lon="10.7430787"><ele>20.833333333333332</ele><time>2026-05-02T06:19:20.146Z</time></trkpt><trkpt lat="45.1886408" lon="10.7429612"><ele>21.0</ele><time>2026-05-02T06:19:22.146Z</time></trkpt><trkpt lat="45.1886488" lon="10.7428393"><ele>21.0</ele><time>2026-05-02T06:19:24.147Z</time></trkpt><trkpt lat="45.1886519" lon="10.7427215"><ele>21.0</ele><time>2026-05-02T06:19:26.148Z</time></trkpt><trkpt lat="45.1886645" lon="10.742607"><ele>21.0</ele><time>2026-05-02T06:19:28.146Z</time></trkpt><trkpt lat="45.18867" lon="10.7424944"><ele>21.0</ele><time>2026-05-02T06:19:30.145Z</time></trkpt><trkpt lat="45.18868" lon="10.7423798"><ele>21.0</ele><time>2026-05-02T06:19:32.147Z</time></trkpt><trkpt lat="45.1886894" lon="10.7422634"><ele>21.0</ele><time>2026-05-02T06:19:34.146Z</time></trkpt><trkpt lat="45.1886891" lon="10.7421457"><ele>20.833333333333332</ele><time>2026-05-02T06:19:36.147Z</time></trkpt><trkpt lat="45.1886937" lon="10.7420237"><ele>20.666666666666668</ele><time>2026-05-02T06:19:38.146Z</time></trkpt><trkpt lat="45.1886968" lon="10.7419022"><ele>20.5</ele><time>2026-05-02T06:19:40.147Z</time></trkpt><trkpt lat="45.1887069" lon="10.7417781"><ele>20.333333333333336</ele><time>2026-05-02T06:19:42.147Z</time></trkpt><trkpt lat="45.1887128" lon="10.7416612"><ele>20.166666666666668</ele><time>2026-05-02T06:19:44.147Z</time></trkpt><trkpt lat="45.1887208" lon="10.7415451"><ele>20.0</ele><time>2026-05-02T06:19:46.147Z</time></trkpt><trkpt lat="45.188729" lon="10.7414266"><ele>20.0</ele><time>2026-05-02T06:19:48.147Z</time></trkpt><trkpt lat="45.1887349" lon="10.7413097"><ele>20.0</ele><time>2026-05-02T06:19:50.147Z</time></trkpt><trkpt lat="45.1887409" lon="10.7411906"><ele>20.0</ele><time>2026-05-02T06:19:52.148Z</time></trkpt><trkpt lat="45.1887475" lon="10.7410701"><ele>20.0</ele><time>2026-05-02T06:19:54.147Z</time></trkpt><trkpt lat="45.1887546" lon="10.7409524"><ele>20.0</ele><time>2026-05-02T06:19:56.148Z</time></trkpt><trkpt lat="45.1887665" lon="10.7408357"><ele>20.0</ele><time>2026-05-02T06:19:58.145Z</time></trkpt><trkpt lat="45.1887685" lon="10.740721"><ele>20.0</ele><time>2026-05-02T06:20:00.147Z</time></trkpt><trkpt lat="45.1887691" lon="10.7406042"><ele>20.0</ele><time>2026-05-02T06:20:02.146Z</time></trkpt><trkpt lat="45.1887751" lon="10.7404849"><ele>20.0</ele><time>2026-05-02T06:20:04.147Z</time></trkpt><trkpt lat="45.1887837" lon="10.7403698"><ele>20.0</ele><time>2026-05-02T06:20:06.145Z</time></trkpt><trkpt lat="45.1887888" lon="10.7402481"><ele>20.0</ele><time>2026-05-02T06:20:08.147Z</time></trkpt><trkpt lat="45.1888017" lon="10.740131"><ele>20.0</ele><time>2026-05-02T06:20:10.146Z</time></trkpt><trkpt lat="45.1888094" lon="10.7400142"><ele>20.0</ele><time>2026-05-02T06:20:12.147Z</time></trkpt><trkpt lat="45.1888148" lon="10.7399023"><ele>20.0</ele><time>2026-05-02T06:20:14.146Z</time></trkpt><trkpt lat="45.1888132" lon="10.7397916"><ele>20.0</ele><time>2026-05-02T06:20:16.146Z</time></trkpt><trkpt lat="45.1888187" lon="10.7396687"><ele>20.0</ele><time>2026-05-02T06:20:18.146Z</time></trkpt><trkpt lat="45.1888256" lon="10.7395463"><ele>20.0</ele><time>2026-05-02T06:20:20.146Z</time></trkpt><trkpt lat="45.1888305" lon="10.739426"><ele>20.0</ele><time>2026-05-02T06:20:22.147Z</time></trkpt><trkpt lat="45.1888371" lon="10.7393076"><ele>20.166666666666668</ele><time>2026-05-02T06:20:24.147Z</time></trkpt><trkpt lat="45.188846" lon="10.7391901"><ele>20.333333333333336</ele><time>2026-05-02T06:20:26.146Z</time></trkpt><trkpt lat="45.1888495" lon="10.7390741"><ele>20.5</ele><time>2026-05-02T06:20:28.147Z</time></trkpt><trkpt lat="45.1888569" lon="10.7389553"><ele>20.666666666666668</ele><time>2026-05-02T06:20:30.147Z</time></trkpt><trkpt lat="45.1888617" lon="10.7388329"><ele>20.833333333333332</ele><time>2026-05-02T06:20:32.147Z</time></trkpt><trkpt lat="45.1888659" lon="10.7387087"><ele>21.0</ele><time>2026-05-02T06:20:34.148Z</time></trkpt><trkpt lat="45.188868" lon="10.7385889"><ele>21.166666666666668</ele><time>2026-05-02T06:20:36.147Z</time></trkpt><trkpt lat="45.1888723" lon="10.738468"><ele>21.333333333333332</ele><time>2026-05-02T06:20:38.147Z</time></trkpt><trkpt lat="45.1888814" lon="10.7383518"><ele>21.5</ele><time>2026-05-02T06:20:40.147Z</time></trkpt><trkpt lat="45.1888916" lon="10.7382383"><ele>21.666666666666664</ele><time>2026-05-02T06:20:42.147Z</time></trkpt><trkpt lat="45.1888956" lon="10.7381162"><ele>21.833333333333332</ele><time>2026-05-02T06:20:44.148Z</time></trkpt><trkpt lat="45.1889028" lon="10.7379955"><ele>22.0</ele><time>2026-05-02T06:20:46.147Z</time></trkpt><trkpt lat="45.1889086" lon="10.7378716"><ele>22.0</ele><time>2026-05-02T06:20:48.147Z</time></trkpt><trkpt lat="45.188916" lon="10.7377476"><ele>22.0</ele><time>2026-05-02T06:20:50.145Z</time></trkpt><trkpt lat="45.1889199" lon="10.737625"><ele>22.0</ele><time>2026-05-02T06:20:52.146Z</time></trkpt><trkpt lat="45.1889231" lon="10.7375009"><ele>22.0</ele><time>2026-05-02T06:20:54.147Z</time></trkpt><trkpt lat="45.1889317" lon="10.7373749"><ele>22.0</ele><time>2026-05-02T06:20:56.147Z</time></trkpt><trkpt lat="45.1889367" lon="10.7372471"><ele>22.0</ele><time>2026-05-02T06:20:58.146Z</time></trkpt><trkpt lat="45.1889424" lon="10.7371146"><ele>21.8</ele><time>2026-05-02T06:21:00.146Z</time></trkpt><trkpt lat="45.1889416" lon="10.7369873"><ele>21.6</ele><time>2026-05-02T06:21:02.147Z</time></trkpt><trkpt lat="45.1889548" lon="10.7368577"><ele>21.400000000000002</ele><time>2026-05-02T06:21:04.147Z</time></trkpt><trkpt lat="45.1889599" lon="10.7367295"><ele>21.200000000000003</ele><time>2026-05-02T06:21:06.145Z</time></trkpt><trkpt lat="45.1889716" lon="10.7366019"><ele>21.0</ele><time>2026-05-02T06:21:08.147Z</time></trkpt><trkpt lat="45.1889727" lon="10.7364794"><ele>20.833333333333332</ele><time>2026-05-02T06:21:10.146Z</time></trkpt><trkpt lat="45.1889817" lon="10.7363555"><ele>20.666666666666668</ele><time>2026-05-02T06:21:12.147Z</time></trkpt><trkpt lat="45.1889843" lon="10.7362355"><ele>20.5</ele><time>2026-05-02T06:21:14.145Z</time></trkpt><trkpt lat="45.1889908" lon="10.736108"><ele>20.333333333333336</ele><time>2026-05-02T06:21:16.147Z</time></trkpt><trkpt lat="45.1889955" lon="10.7359836"><ele>20.166666666666668</ele><time>2026-05-02T06:21:18.145Z</time></trkpt><trkpt lat="45.189003" lon="10.7358569"><ele>20.0</ele><time>2026-05-02T06:21:20.146Z</time></trkpt><trkpt lat="45.1890054" lon="10.73573"><ele>20.166666666666668</ele><time>2026-05-02T06:21:22.147Z</time></trkpt><trkpt lat="45.1890112" lon="10.7356101"><ele>20.333333333333336</ele><time>2026-05-02T06:21:24.147Z</time></trkpt><trkpt lat="45.1890176" lon="10.7354888"><ele>20.5</ele><time>2026-05-02T06:21:26.146Z</time></trkpt><trkpt lat="45.1890222" lon="10.7353675"><ele>20.666666666666668</ele><time>2026-05-02T06:21:28.146Z</time></trkpt><trkpt lat="45.1890298" lon="10.7352424"><ele>20.833333333333332</ele><time>2026-05-02T06:21:30.147Z</time></trkpt><trkpt lat="45.1890391" lon="10.7351194"><ele>21.0</ele><time>2026-05-02T06:21:32.146Z</time></trkpt><trkpt lat="45.1890446" lon="10.7349961"><ele>21.0</ele><time>2026-05-02T06:21:34.146Z</time></trkpt><trkpt lat="45.189055" lon="10.7348671"><ele>21.0</ele><time>2026-05-02T06:21:36.146Z</time></trkpt><trkpt lat="45.1890592" lon="10.7347438"><ele>21.0</ele><time>2026-05-02T06:21:38.147Z</time></trkpt><trkpt lat="45.1890649" lon="10.7346236"><ele>21.0</ele><time>2026-05-02T06:21:40.147Z</time></trkpt><trkpt lat="45.1890646" lon="10.7344881"><ele>21.0</ele><time>2026-05-02T06:21:42.147Z</time></trkpt><trkpt lat="45.1890647" lon="10.7343573"><ele>21.166666666666668</ele><time>2026-05-02T06:21:44.146Z</time></trkpt><trkpt lat="45.1890711" lon="10.7342396"><ele>21.333333333333332</ele><time>2026-05-02T06:21:46.147Z</time></trkpt><trkpt lat="45.1890857" lon="10.7341118"><ele>21.5</ele><time>2026-05-02T06:21:48.147Z</time></trkpt><trkpt lat="45.1890883" lon="10.7339893"><ele>21.666666666666664</ele><time>2026-05-02T06:21:50.146Z</time></trkpt><trkpt lat="45.1890939" lon="10.733863"><ele>21.833333333333332</ele><time>2026-05-02T06:21:52.147Z</time></trkpt><trkpt lat="45.1890987" lon="10.7337386"><ele>22.0</ele><time>2026-05-02T06:21:54.146Z</time></trkpt><trkpt lat="45.1891083" lon="10.7336297"><ele>22.166666666666664</ele><time>2026-05-02T06:21:56.147Z</time></trkpt><trkpt lat="45.189114" lon="10.7335309"><ele>22.333333333333332</ele><time>2026-05-02T06:21:58.146Z</time></trkpt><trkpt lat="45.1891167" lon="10.7334079"><ele>22.5</ele><time>2026-05-02T06:22:01.147Z</time></trkpt><trkpt lat="45.1891268" lon="10.7333106"><ele>22.666666666666668</ele><time>2026-05-02T06:22:04.147Z</time></trkpt><trkpt lat="45.1891888" lon="10.7332405"><ele>22.833333333333336</ele><time>2026-05-02T06:22:07.145Z</time></trkpt><trkpt lat="45.1892645" lon="10.733174"><ele>23.0</ele><time>2026-05-02T06:22:10.148Z</time></trkpt><trkpt lat="45.1893173" lon="10.7331227"><ele>23.0</ele><time>2026-05-02T06:22:12.146Z</time></trkpt><trkpt lat="45.1893725" lon="10.7330681"><ele>23.0</ele><time>2026-05-02T06:22:14.146Z</time></trkpt><trkpt lat="45.1894293" lon="10.7330097"><ele>23.0</ele><time>2026-05-02T06:22:16.146Z</time></trkpt><trkpt lat="45.1894904" lon="10.7329518"><ele>23.0</ele><time>2026-05-02T06:22:18.146Z</time></trkpt><trkpt lat="45.1895522" lon="10.7328901"><ele>23.0</ele><time>2026-05-02T06:22:20.147Z</time></trkpt><trkpt lat="45.1896185" lon="10.7328345"><ele>23.0</ele><time>2026-05-02T06:22:22.146Z</time></trkpt><trkpt lat="45.1896775" lon="10.7327726"><ele>23.0</ele><time>2026-05-02T06:22:24.146Z</time></trkpt><trkpt lat="45.1897314" lon="10.7327142"><ele>23.0</ele><time>2026-05-02T06:22:26.146Z</time></trkpt><trkpt lat="45.1897721" lon="10.7326348"><ele>23.0</ele><time>2026-05-02T06:22:28.146Z</time></trkpt><trkpt lat="45.189793" lon="10.7325354"><ele>23.0</ele><time>2026-05-02T06:22:30.148Z</time></trkpt><trkpt lat="45.1897992" lon="10.7324288"><ele>23.0</ele><time>2026-05-02T06:22:32.146Z</time></trkpt><trkpt lat="45.1898016" lon="10.7323182"><ele>23.0</ele><time>2026-05-02T06:22:34.147Z</time></trkpt><trkpt lat="45.1898058" lon="10.7322034"><ele>23.0</ele><time>2026-05-02T06:22:36.147Z</time></trkpt><trkpt lat="45.1898162" lon="10.7320886"><ele>23.0</ele><time>2026-05-02T06:22:38.146Z</time></trkpt><trkpt lat="45.1898295" lon="10.7319701"><ele>23.0</ele><time>2026-05-02T06:22:40.146Z</time></trkpt><trkpt lat="45.1898522" lon="10.7318582"><ele>23.0</ele><time>2026-05-02T06:22:42.147Z</time></trkpt><trkpt lat="45.1898742" lon="10.7317376"><ele>23.0</ele><time>2026-05-02T06:22:44.146Z</time></trkpt><trkpt lat="45.1898946" lon="10.7316148"><ele>23.0</ele><time>2026-05-02T06:22:46.145Z</time></trkpt><trkpt lat="45.1899251" lon="10.7314987"><ele>23.0</ele><time>2026-05-02T06:22:48.147Z</time></trkpt><trkpt lat="45.189959" lon="10.7313807"><ele>23.4</ele><time>2026-05-02T06:22:50.146Z</time></trkpt><trkpt lat="45.1899919" lon="10.7312563"><ele>23.799999999999997</ele><time>2026-05-02T06:22:52.146Z</time></trkpt><trkpt lat="45.1900166" lon="10.7311335"><ele>24.2</ele><time>2026-05-02T06:22:54.147Z</time></trkpt><trkpt lat="45.1900551" lon="10.7310089"><ele>24.6</ele><time>2026-05-02T06:22:56.147Z</time></trkpt><trkpt lat="45.190092" lon="10.7308853"><ele>25.0</ele><time>2026-05-02T06:22:58.146Z</time></trkpt><trkpt lat="45.1901335" lon="10.7307642"><ele>25.0</ele><time>2026-05-02T06:23:00.147Z</time></trkpt><trkpt lat="45.1901759" lon="10.7306502"><ele>25.0</ele><time>2026-05-02T06:23:02.146Z</time></trkpt><trkpt lat="45.1902195" lon="10.7305308"><ele>25.0</ele><time>2026-05-02T06:23:04.147Z</time></trkpt><trkpt lat="45.190256" lon="10.7304144"><ele>25.0</ele><time>2026-05-02T06:23:06.146Z</time></trkpt><trkpt lat="45.1903003" lon="10.730304"><ele>25.0</ele><time>2026-05-02T06:23:08.146Z</time></trkpt><trkpt lat="45.1903467" lon="10.7301884"><ele>25.0</ele><time>2026-05-02T06:23:10.146Z</time></trkpt><trkpt lat="45.1903967" lon="10.73008"><ele>25.0</ele><time>2026-05-02T06:23:12.147Z</time></trkpt><trkpt lat="45.1904501" lon="10.7299616"><ele>25.0</ele><time>2026-05-02T06:23:14.147Z</time></trkpt><trkpt lat="45.1904901" lon="10.72985"><ele>25.0</ele><time>2026-05-02T06:23:16.147Z</time></trkpt><trkpt lat="45.1905332" lon="10.7297409"><ele>25.0</ele><time>2026-05-02T06:23:18.147Z</time></trkpt><trkpt lat="45.1905792" lon="10.7296263"><ele>25.0</ele><time>2026-05-02T06:23:20.147Z</time></trkpt><trkpt lat="45.1906335" lon="10.7295091"><ele>25.0</ele><time>2026-05-02T06:23:22.146Z</time></trkpt><trkpt lat="45.1906833" lon="10.7293969"><ele>25.0</ele><time>2026-05-02T06:23:24.147Z</time></trkpt><trkpt lat="45.1907256" lon="10.729282"><ele>25.0</ele><time>2026-05-02T06:23:26.147Z</time></trkpt><trkpt lat="45.1907717" lon="10.7291774"><ele>25.0</ele><time>2026-05-02T06:23:28.146Z</time></trkpt><trkpt lat="45.190825" lon="10.7290576"><ele>24.6</ele><time>2026-05-02T06:23:30.147Z</time></trkpt><trkpt lat="45.1908675" lon="10.7289413"><ele>24.2</ele><time>2026-05-02T06:23:32.147Z</time></trkpt><trkpt lat="45.1909074" lon="10.7288321"><ele>23.799999999999997</ele><time>2026-05-02T06:23:34.147Z</time></trkpt><trkpt lat="45.1909479" lon="10.7287123"><ele>23.4</ele><time>2026-05-02T06:23:36.146Z</time></trkpt><trkpt lat="45.1909938" lon="10.7285976"><ele>23.0</ele><time>2026-05-02T06:23:38.146Z</time></trkpt><trkpt lat="45.1910361" lon="10.7284814"><ele>23.0</ele><time>2026-05-02T06:23:40.147Z</time></trkpt><trkpt lat="45.191077" lon="10.7283646"><ele>23.0</ele><time>2026-05-02T06:23:42.146Z</time></trkpt><trkpt lat="45.1911185" lon="10.728254"><ele>23.0</ele><time>2026-05-02T06:23:44.147Z</time></trkpt><trkpt lat="45.1911632" lon="10.7281424"><ele>23.0</ele><time>2026-05-02T06:23:46.146Z</time></trkpt><trkpt lat="45.191207" lon="10.7280348"><ele>23.0</ele><time>2026-05-02T06:23:48.147Z</time></trkpt><trkpt lat="45.1912531" lon="10.7279273"><ele>23.0</ele><time>2026-05-02T06:23:50.147Z</time></trkpt><trkpt lat="45.1912919" lon="10.7278133"><ele>23.0</ele><time>2026-05-02T06:23:52.146Z</time></trkpt><trkpt lat="45.1913303" lon="10.7277054"><ele>23.0</ele><time>2026-05-02T06:23:54.146Z</time></trkpt><trkpt lat="45.1913747" lon="10.7275916"><ele>23.0</ele><time>2026-05-02T06:23:56.146Z</time></trkpt><trkpt lat="45.1914211" lon="10.7274838"><ele>23.0</ele><time>2026-05-02T06:23:58.147Z</time></trkpt><trkpt lat="45.1914628" lon="10.7273653"><ele>23.0</ele><time>2026-05-02T06:24:00.147Z</time></trkpt><trkpt lat="45.1915104" lon="10.7272477"><ele>23.0</ele><time>2026-05-02T06:24:02.145Z</time></trkpt><trkpt lat="45.1915546" lon="10.7271416"><ele>23.0</ele><time>2026-05-02T06:24:04.146Z</time></trkpt><trkpt lat="45.1915998" lon="10.7270353"><ele>23.0</ele><time>2026-05-02T06:24:06.146Z</time></trkpt><trkpt lat="45.1916463" lon="10.7269351"><ele>23.0</ele><time>2026-05-02T06:24:08.147Z</time></trkpt><trkpt lat="45.1916861" lon="10.7268354"><ele>23.0</ele><time>2026-05-02T06:24:10.147Z</time></trkpt><trkpt lat="45.1917267" lon="10.7267342"><ele>23.0</ele><time>2026-05-02T06:24:12.145Z</time></trkpt><trkpt lat="45.1917707" lon="10.72664"><ele>23.0</ele><time>2026-05-02T06:24:14.147Z</time></trkpt><trkpt lat="45.1918086" lon="10.7265482"><ele>23.0</ele><time>2026-05-02T06:24:16.147Z</time></trkpt><trkpt lat="45.191843" lon="10.7264659"><ele>23.0</ele><time>2026-05-02T06:24:18.147Z</time></trkpt><trkpt lat="45.1918881" lon="10.7263559"><ele>23.0</ele><time>2026-05-02T06:24:21.146Z</time></trkpt><trkpt lat="45.1919262" lon="10.7262384"><ele>23.0</ele><time>2026-05-02T06:24:24.146Z</time></trkpt><trkpt lat="45.1919596" lon="10.7261462"><ele>23.0</ele><time>2026-05-02T06:24:26.147Z</time></trkpt><trkpt lat="45.1919986" lon="10.7260428"><ele>22.833333333333336</ele><time>2026-05-02T06:24:28.146Z</time></trkpt><trkpt lat="45.1920394" lon="10.7259345"><ele>22.666666666666668</ele><time>2026-05-02T06:24:30.146Z</time></trkpt><trkpt lat="45.192081" lon="10.72583"><ele>22.5</ele><time>2026-05-02T06:24:32.147Z</time></trkpt><trkpt lat="45.1921228" lon="10.7257281"><ele>22.333333333333332</ele><time>2026-05-02T06:24:34.146Z</time></trkpt><trkpt lat="45.1921632" lon="10.725626"><ele>22.166666666666664</ele><time>2026-05-02T06:24:36.146Z</time></trkpt><trkpt lat="45.192205" lon="10.7255224"><ele>22.0</ele><time>2026-05-02T06:24:38.147Z</time></trkpt><trkpt lat="45.1922467" lon="10.7254189"><ele>22.0</ele><time>2026-05-02T06:24:40.147Z</time></trkpt><trkpt lat="45.1922885" lon="10.7253153"><ele>22.0</ele><time>2026-05-02T06:24:42.147Z</time></trkpt><trkpt lat="45.1923322" lon="10.7252095"><ele>22.0</ele><time>2026-05-02T06:24:44.145Z</time></trkpt><trkpt lat="45.1923735" lon="10.7251043"><ele>22.0</ele><time>2026-05-02T06:24:46.145Z</time></trkpt><trkpt lat="45.1924137" lon="10.7249967"><ele>22.0</ele><time>2026-05-02T06:24:48.145Z</time></trkpt><trkpt lat="45.1924552" lon="10.7248895"><ele>22.0</ele><time>2026-05-02T06:24:50.146Z</time></trkpt><trkpt lat="45.1924948" lon="10.7247821"><ele>22.333333333333332</ele><time>2026-05-02T06:24:52.146Z</time></trkpt><trkpt lat="45.1925405" lon="10.72467"><ele>22.666666666666664</ele><time>2026-05-02T06:24:54.144Z</time></trkpt><trkpt lat="45.1925829" lon="10.7245573"><ele>23.0</ele><time>2026-05-02T06:24:56.145Z</time></trkpt><trkpt lat="45.1926197" lon="10.7244507"><ele>23.333333333333332</ele><time>2026-05-02T06:24:58.146Z</time></trkpt><trkpt lat="45.1926589" lon="10.7243443"><ele>23.666666666666668</ele><time>2026-05-02T06:25:00.145Z</time></trkpt><trkpt lat="45.1927005" lon="10.7242379"><ele>24.0</ele><time>2026-05-02T06:25:02.146Z</time></trkpt><trkpt lat="45.1927453" lon="10.7241316"><ele>24.0</ele><time>2026-05-02T06:25:04.145Z</time></trkpt><trkpt lat="45.1927913" lon="10.7240227"><ele>24.0</ele><time>2026-05-02T06:25:06.145Z</time></trkpt><trkpt lat="45.1928342" lon="10.7239035"><ele>24.0</ele><time>2026-05-02T06:25:08.146Z</time></trkpt><trkpt lat="45.1928813" lon="10.723787"><ele>24.0</ele><time>2026-05-02T06:25:10.145Z</time></trkpt><trkpt lat="45.1929249" lon="10.7236724"><ele>24.0</ele><time>2026-05-02T06:25:12.145Z</time></trkpt><trkpt lat="45.1929701" lon="10.7235677"><ele>23.833333333333332</ele><time>2026-05-02T06:25:14.145Z</time></trkpt><trkpt lat="45.1930084" lon="10.7234626"><ele>23.666666666666668</ele><time>2026-05-02T06:25:16.145Z</time></trkpt><trkpt lat="45.1930535" lon="10.7233646"><ele>23.5</ele><time>2026-05-02T06:25:18.147Z</time></trkpt><trkpt lat="45.193091" lon="10.7232562"><ele>23.333333333333336</ele><time>2026-05-02T06:25:20.147Z</time></trkpt><trkpt lat="45.1931336" lon="10.7231501"><ele>23.166666666666668</ele><time>2026-05-02T06:25:22.147Z</time></trkpt><trkpt lat="45.1931772" lon="10.7230413"><ele>23.0</ele><time>2026-05-02T06:25:24.146Z</time></trkpt><trkpt lat="45.1932234" lon="10.7229345"><ele>23.0</ele><time>2026-05-02T06:25:26.147Z</time></trkpt><trkpt lat="45.1932696" lon="10.7228267"><ele>23.0</ele><time>2026-05-02T06:25:28.146Z</time></trkpt><trkpt lat="45.1933144" lon="10.7227154"><ele>23.0</ele><time>2026-05-02T06:25:30.146Z</time></trkpt><trkpt lat="45.1933594" lon="10.7226"><ele>23.0</ele><time>2026-05-02T06:25:32.145Z</time></trkpt><trkpt lat="45.1934058" lon="10.7224931"><ele>23.0</ele><time>2026-05-02T06:25:34.147Z</time></trkpt><trkpt lat="45.1934531" lon="10.7223735"><ele>23.0</ele><time>2026-05-02T06:25:36.147Z</time></trkpt><trkpt lat="45.1934962" lon="10.7222659"><ele>23.0</ele><time>2026-05-02T06:25:38.146Z</time></trkpt><trkpt lat="45.1935381" lon="10.7221495"><ele>23.0</ele><time>2026-05-02T06:25:40.147Z</time></trkpt><trkpt lat="45.1935893" lon="10.7220291"><ele>23.0</ele><time>2026-05-02T06:25:42.147Z</time></trkpt><trkpt lat="45.1936315" lon="10.7219231"><ele>23.0</ele><time>2026-05-02T06:25:44.146Z</time></trkpt><trkpt lat="45.1936762" lon="10.7218172"><ele>22.833333333333336</ele><time>2026-05-02T06:25:46.147Z</time></trkpt><trkpt lat="45.1937213" lon="10.7217073"><ele>22.666666666666668</ele><time>2026-05-02T06:25:48.147Z</time></trkpt><trkpt lat="45.193767" lon="10.7215999"><ele>22.5</ele><time>2026-05-02T06:25:50.145Z</time></trkpt><trkpt lat="45.1938108" lon="10.7214888"><ele>22.333333333333332</ele><time>2026-05-02T06:25:52.147Z</time></trkpt><trkpt lat="45.1938477" lon="10.7213761"><ele>22.166666666666664</ele><time>2026-05-02T06:25:54.145Z</time></trkpt><trkpt lat="45.1938904" lon="10.7212712"><ele>22.0</ele><time>2026-05-02T06:25:56.146Z</time></trkpt><trkpt lat="45.1939322" lon="10.7211653"><ele>22.0</ele><time>2026-05-02T06:25:58.147Z</time></trkpt><trkpt lat="45.1939735" lon="10.7210598"><ele>22.0</ele><time>2026-05-02T06:26:00.146Z</time></trkpt><trkpt lat="45.1940165" lon="10.7209536"><ele>22.0</ele><time>2026-05-02T06:26:02.147Z</time></trkpt><trkpt lat="45.1940571" lon="10.7208467"><ele>22.0</ele><time>2026-05-02T06:26:04.146Z</time></trkpt><trkpt lat="45.1941028" lon="10.7207361"><ele>22.0</ele><time>2026-05-02T06:26:06.146Z</time></trkpt><trkpt lat="45.1941436" lon="10.7206243"><ele>22.0</ele><time>2026-05-02T06:26:08.146Z</time></trkpt><trkpt lat="45.1941848" lon="10.7205151"><ele>22.0</ele><time>2026-05-02T06:26:10.146Z</time></trkpt><trkpt lat="45.1942301" lon="10.7204088"><ele>22.0</ele><time>2026-05-02T06:26:12.145Z</time></trkpt><trkpt lat="45.1942707" lon="10.720302"><ele>22.0</ele><time>2026-05-02T06:26:14.146Z</time></trkpt><trkpt lat="45.1943089" lon="10.7201926"><ele>22.0</ele><time>2026-05-02T06:26:16.146Z</time></trkpt><trkpt lat="45.194352" lon="10.7200857"><ele>22.0</ele><time>2026-05-02T06:26:18.145Z</time></trkpt><trkpt lat="45.194393" lon="10.7199781"><ele>22.0</ele><time>2026-05-02T06:26:20.147Z</time></trkpt><trkpt lat="45.1944359" lon="10.7198748"><ele>22.0</ele><time>2026-05-02T06:26:22.147Z</time></trkpt><trkpt lat="45.1944805" lon="10.7197603"><ele>22.0</ele><time>2026-05-02T06:26:24.147Z</time></trkpt><trkpt lat="45.1945273" lon="10.7196475"><ele>22.0</ele><time>2026-05-02T06:26:26.145Z</time></trkpt><trkpt lat="45.1945738" lon="10.7195382"><ele>22.0</ele><time>2026-05-02T06:26:28.145Z</time></trkpt><trkpt lat="45.1946167" lon="10.7194294"><ele>22.0</ele><time>2026-05-02T06:26:30.145Z</time></trkpt><trkpt lat="45.1946594" lon="10.719316"><ele>22.0</ele><time>2026-05-02T06:26:32.145Z</time></trkpt><trkpt lat="45.1947047" lon="10.7192033"><ele>22.0</ele><time>2026-05-02T06:26:34.147Z</time></trkpt><trkpt lat="45.1947508" lon="10.7190908"><ele>22.0</ele><time>2026-05-02T06:26:36.146Z</time></trkpt><trkpt lat="45.1947997" lon="10.7189921"><ele>22.0</ele><time>2026-05-02T06:26:38.146Z</time></trkpt><trkpt lat="45.1948438" lon="10.7188838"><ele>22.0</ele><time>2026-05-02T06:26:40.147Z</time></trkpt><trkpt lat="45.1948889" lon="10.7187755"><ele>22.0</ele><time>2026-05-02T06:26:42.144Z</time></trkpt><trkpt lat="45.1949358" lon="10.7186713"><ele>21.833333333333332</ele><time>2026-05-02T06:26:44.146Z</time></trkpt><trkpt lat="45.1949812" lon="10.7185756"><ele>21.666666666666664</ele><time>2026-05-02T06:26:46.146Z</time></trkpt><trkpt lat="45.1950264" lon="10.7184901"><ele>21.5</ele><time>2026-05-02T06:26:48.147Z</time></trkpt><trkpt lat="45.195063" lon="10.7184088"><ele>21.333333333333332</ele><time>2026-05-02T06:26:50.147Z</time></trkpt><trkpt lat="45.1950748" lon="10.7182771"><ele>21.166666666666668</ele><time>2026-05-02T06:26:53.145Z</time></trkpt><trkpt lat="45.1951083" lon="10.7181527"><ele>21.0</ele><time>2026-05-02T06:26:56.146Z</time></trkpt><trkpt lat="45.195151" lon="10.7180745"><ele>21.0</ele><time>2026-05-02T06:26:58.147Z</time></trkpt><trkpt lat="45.1951911" lon="10.7179854"><ele>21.0</ele><time>2026-05-02T06:27:00.146Z</time></trkpt><trkpt lat="45.1952269" lon="10.7178925"><ele>21.0</ele><time>2026-05-02T06:27:02.146Z</time></trkpt><trkpt lat="45.19526" lon="10.7177977"><ele>21.0</ele><time>2026-05-02T06:27:04.146Z</time></trkpt><trkpt lat="45.195293" lon="10.7177037"><ele>21.0</ele><time>2026-05-02T06:27:06.147Z</time></trkpt><trkpt lat="45.1953305" lon="10.7176007"><ele>21.0</ele><time>2026-05-02T06:27:08.147Z</time></trkpt><trkpt lat="45.1953727" lon="10.7174942"><ele>20.666666666666668</ele><time>2026-05-02T06:27:10.145Z</time></trkpt><trkpt lat="45.19541" lon="10.7173923"><ele>20.333333333333332</ele><time>2026-05-02T06:27:12.146Z</time></trkpt><trkpt lat="45.1954422" lon="10.7172972"><ele>20.0</ele><time>2026-05-02T06:27:14.145Z</time></trkpt><trkpt lat="45.1954783" lon="10.717209"><ele>19.666666666666664</ele><time>2026-05-02T06:27:16.145Z</time></trkpt><trkpt lat="45.1955196" lon="10.7171137"><ele>19.333333333333332</ele><time>2026-05-02T06:27:18.147Z</time></trkpt><trkpt lat="45.1955577" lon="10.7170077"><ele>19.0</ele><time>2026-05-02T06:27:20.145Z</time></trkpt><trkpt lat="45.1955964" lon="10.7168982"><ele>18.666666666666664</ele><time>2026-05-02T06:27:22.146Z</time></trkpt><trkpt lat="45.1956385" lon="10.7167894"><ele>18.333333333333332</ele><time>2026-05-02T06:27:24.145Z</time></trkpt><trkpt lat="45.1956817" lon="10.7166779"><ele>18.0</ele><time>2026-05-02T06:27:26.146Z</time></trkpt><trkpt lat="45.1957232" lon="10.716565"><ele>17.666666666666668</ele><time>2026-05-02T06:27:28.146Z</time></trkpt><trkpt lat="45.195768" lon="10.7164588"><ele>17.333333333333336</ele><time>2026-05-02T06:27:30.146Z</time></trkpt><trkpt lat="45.1958123" lon="10.7163587"><ele>17.0</ele><time>2026-05-02T06:27:32.146Z</time></trkpt><trkpt lat="45.195855" lon="10.7162576"><ele>17.666666666666668</ele><time>2026-05-02T06:27:34.146Z</time></trkpt><trkpt lat="45.1958979" lon="10.7161626"><ele>18.333333333333336</ele><time>2026-05-02T06:27:36.145Z</time></trkpt><trkpt lat="45.1959375" lon="10.7160623"><ele>19.0</ele><time>2026-05-02T06:27:38.145Z</time></trkpt><trkpt lat="45.1959755" lon="10.7159615"><ele>19.666666666666668</ele><time>2026-05-02T06:27:40.147Z</time></trkpt><trkpt lat="45.1960189" lon="10.7158645"><ele>20.333333333333332</ele><time>2026-05-02T06:27:42.146Z</time></trkpt><trkpt lat="45.1960543" lon="10.7157573"><ele>21.0</ele><time>2026-05-02T06:27:44.147Z</time></trkpt><trkpt lat="45.1960932" lon="10.7156511"><ele>21.0</ele><time>2026-05-02T06:27:46.147Z</time></trkpt><trkpt lat="45.1961349" lon="10.7155443"><ele>21.0</ele><time>2026-05-02T06:27:48.145Z</time></trkpt><trkpt lat="45.1961777" lon="10.7154446"><ele>21.0</ele><time>2026-05-02T06:27:50.146Z</time></trkpt><trkpt lat="45.1962274" lon="10.7153499"><ele>21.0</ele><time>2026-05-02T06:27:52.145Z</time></trkpt><trkpt lat="45.1962792" lon="10.7152612"><ele>21.0</ele><time>2026-05-02T06:27:54.146Z</time></trkpt><trkpt lat="45.1963376" lon="10.7151825"><ele>21.0</ele><time>2026-05-02T06:27:56.145Z</time></trkpt><trkpt lat="45.1964021" lon="10.715125"><ele>20.833333333333332</ele><time>2026-05-02T06:27:58.146Z</time></trkpt><trkpt lat="45.1964638" lon="10.71506"><ele>20.666666666666668</ele><time>2026-05-02T06:28:00.144Z</time></trkpt><trkpt lat="45.1965282" lon="10.7150045"><ele>20.5</ele><time>2026-05-02T06:28:02.146Z</time></trkpt><trkpt lat="45.1965971" lon="10.7149677"><ele>20.333333333333336</ele><time>2026-05-02T06:28:04.145Z</time></trkpt><trkpt lat="45.1966654" lon="10.7149245"><ele>20.166666666666668</ele><time>2026-05-02T06:28:06.146Z</time></trkpt><trkpt lat="45.1967364" lon="10.7148897"><ele>20.0</ele><time>2026-05-02T06:28:08.144Z</time></trkpt><trkpt lat="45.1968071" lon="10.7148514"><ele>20.0</ele><time>2026-05-02T06:28:10.145Z</time></trkpt><trkpt lat="45.1968777" lon="10.7148112"><ele>20.0</ele><time>2026-05-02T06:28:12.145Z</time></trkpt><trkpt lat="45.1969458" lon="10.7147715"><ele>20.0</ele><time>2026-05-02T06:28:14.146Z</time></trkpt><trkpt lat="45.1970162" lon="10.7147228"><ele>20.0</ele><time>2026-05-02T06:28:16.146Z</time></trkpt><trkpt lat="45.1970841" lon="10.7146835"><ele>20.0</ele><time>2026-05-02T06:28:18.146Z</time></trkpt><trkpt lat="45.197149" lon="10.7146398"><ele>20.0</ele><time>2026-05-02T06:28:20.145Z</time></trkpt><trkpt lat="45.197216" lon="10.7145973"><ele>20.0</ele><time>2026-05-02T06:28:22.146Z</time></trkpt><trkpt lat="45.1972809" lon="10.714552"><ele>20.333333333333336</ele><time>2026-05-02T06:28:24.147Z</time></trkpt><trkpt lat="45.1973476" lon="10.7145089"><ele>20.666666666666668</ele><time>2026-05-02T06:28:26.145Z</time></trkpt><trkpt lat="45.1974117" lon="10.7144589"><ele>21.0</ele><time>2026-05-02T06:28:28.146Z</time></trkpt><trkpt lat="45.1974804" lon="10.7144107"><ele>21.333333333333332</ele><time>2026-05-02T06:28:30.146Z</time></trkpt><trkpt lat="45.1975525" lon="10.7143646"><ele>21.666666666666664</ele><time>2026-05-02T06:28:32.145Z</time></trkpt><trkpt lat="45.1976213" lon="10.7143011"><ele>22.0</ele><time>2026-05-02T06:28:34.146Z</time></trkpt><trkpt lat="45.1976983" lon="10.7142425"><ele>22.0</ele><time>2026-05-02T06:28:36.146Z</time></trkpt><trkpt lat="45.1977731" lon="10.7141888"><ele>22.0</ele><time>2026-05-02T06:28:38.146Z</time></trkpt><trkpt lat="45.1978471" lon="10.7141304"><ele>22.0</ele><time>2026-05-02T06:28:40.146Z</time></trkpt><trkpt lat="45.197918" lon="10.7140742"><ele>22.0</ele><time>2026-05-02T06:28:42.146Z</time></trkpt><trkpt lat="45.197986" lon="10.7140202"><ele>22.0</ele><time>2026-05-02T06:28:44.146Z</time></trkpt><trkpt lat="45.1980511" lon="10.7139738"><ele>22.0</ele><time>2026-05-02T06:28:46.146Z</time></trkpt><trkpt lat="45.1981183" lon="10.713923"><ele>22.0</ele><time>2026-05-02T06:28:48.147Z</time></trkpt><trkpt lat="45.1981872" lon="10.7138767"><ele>22.0</ele><time>2026-05-02T06:28:50.145Z</time></trkpt><trkpt lat="45.1982508" lon="10.713825"><ele>22.0</ele><time>2026-05-02T06:28:52.146Z</time></trkpt><trkpt lat="45.1983208" lon="10.7137694"><ele>22.0</ele><time>2026-05-02T06:28:54.146Z</time></trkpt><trkpt lat="45.1983914" lon="10.7137114"><ele>22.0</ele><time>2026-05-02T06:28:56.145Z</time></trkpt><trkpt lat="45.1984611" lon="10.7136582"><ele>22.0</ele><time>2026-05-02T06:28:58.146Z</time></trkpt><trkpt lat="45.1985297" lon="10.7136028"><ele>21.833333333333332</ele><time>2026-05-02T06:29:00.145Z</time></trkpt><trkpt lat="45.1985994" lon="10.7135436"><ele>21.666666666666664</ele><time>2026-05-02T06:29:02.146Z</time></trkpt><trkpt lat="45.1986677" lon="10.7134881"><ele>21.5</ele><time>2026-05-02T06:29:04.146Z</time></trkpt><trkpt lat="45.1987346" lon="10.7134362"><ele>21.333333333333332</ele><time>2026-05-02T06:29:06.146Z</time></trkpt><trkpt lat="45.1988056" lon="10.713393"><ele>21.166666666666668</ele><time>2026-05-02T06:29:08.144Z</time></trkpt><trkpt lat="45.1988711" lon="10.7133464"><ele>21.0</ele><time>2026-05-02T06:29:10.146Z</time></trkpt><trkpt lat="45.1989408" lon="10.7133125"><ele>20.833333333333332</ele><time>2026-05-02T06:29:12.146Z</time></trkpt><trkpt lat="45.1990142" lon="10.713278"><ele>20.666666666666668</ele><time>2026-05-02T06:29:14.146Z</time></trkpt><trkpt lat="45.1990917" lon="10.7132502"><ele>20.5</ele><time>2026-05-02T06:29:16.147Z</time></trkpt><trkpt lat="45.1991701" lon="10.7132208"><ele>20.333333333333336</ele><time>2026-05-02T06:29:18.145Z</time></trkpt><trkpt lat="45.1992516" lon="10.7131924"><ele>20.166666666666668</ele><time>2026-05-02T06:29:20.145Z</time></trkpt><trkpt lat="45.1993326" lon="10.7131641"><ele>20.0</ele><time>2026-05-02T06:29:22.145Z</time></trkpt><trkpt lat="45.1994142" lon="10.7131412"><ele>20.0</ele><time>2026-05-02T06:29:24.145Z</time></trkpt><trkpt lat="45.1994961" lon="10.7131163"><ele>20.0</ele><time>2026-05-02T06:29:26.145Z</time></trkpt><trkpt lat="45.1995795" lon="10.7130934"><ele>20.0</ele><time>2026-05-02T06:29:28.144Z</time></trkpt><trkpt lat="45.1996619" lon="10.7130632"><ele>20.0</ele><time>2026-05-02T06:29:30.146Z</time></trkpt><trkpt lat="45.1997437" lon="10.7130401"><ele>20.0</ele><time>2026-05-02T06:29:32.146Z</time></trkpt><trkpt lat="45.1998208" lon="10.7130206"><ele>20.0</ele><time>2026-05-02T06:29:34.145Z</time></trkpt><trkpt lat="45.199902" lon="10.7130034"><ele>20.666666666666668</ele><time>2026-05-02T06:29:36.146Z</time></trkpt><trkpt lat="45.1999806" lon="10.7129807"><ele>21.333333333333336</ele><time>2026-05-02T06:29:38.146Z</time></trkpt><trkpt lat="45.2000589" lon="10.7129558"><ele>22.0</ele><time>2026-05-02T06:29:40.146Z</time></trkpt><trkpt lat="45.2001435" lon="10.7129364"><ele>22.666666666666668</ele><time>2026-05-02T06:29:42.146Z</time></trkpt><trkpt lat="45.2002297" lon="10.7129165"><ele>23.333333333333332</ele><time>2026-05-02T06:29:44.147Z</time></trkpt><trkpt lat="45.2003123" lon="10.7128933"><ele>24.0</ele><time>2026-05-02T06:29:46.146Z</time></trkpt><trkpt lat="45.2003983" lon="10.7128646"><ele>24.0</ele><time>2026-05-02T06:29:48.147Z</time></trkpt><trkpt lat="45.2004841" lon="10.7128364"><ele>24.0</ele><time>2026-05-02T06:29:50.145Z</time></trkpt><trkpt lat="45.2005713" lon="10.7128061"><ele>24.0</ele><time>2026-05-02T06:29:52.144Z</time></trkpt><trkpt lat="45.2006558" lon="10.7127762"><ele>24.0</ele><time>2026-05-02T06:29:54.146Z</time></trkpt><trkpt lat="45.2007394" lon="10.7127507"><ele>24.0</ele><time>2026-05-02T06:29:56.146Z</time></trkpt><trkpt lat="45.200819" lon="10.7127326"><ele>24.0</ele><time>2026-05-02T06:29:58.146Z</time></trkpt><trkpt lat="45.2008981" lon="10.7127199"><ele>23.71428571428571</ele><time>2026-05-02T06:30:00.146Z</time></trkpt><trkpt lat="45.200973" lon="10.7127029"><ele>23.428571428571427</ele><time>2026-05-02T06:30:02.146Z</time></trkpt><trkpt lat="45.2010383" lon="10.7126763"><ele>23.142857142857142</ele><time>2026-05-02T06:30:04.147Z</time></trkpt><trkpt lat="45.2011045" lon="10.7126529"><ele>22.857142857142854</ele><time>2026-05-02T06:30:06.146Z</time></trkpt><trkpt lat="45.201173" lon="10.7126296"><ele>22.57142857142857</ele><time>2026-05-02T06:30:08.146Z</time></trkpt><trkpt lat="45.2012392" lon="10.712616"><ele>22.285714285714285</ele><time>2026-05-02T06:30:10.146Z</time></trkpt><trkpt lat="45.2013301" lon="10.7126075"><ele>22.0</ele><time>2026-05-02T06:30:13.146Z</time></trkpt><trkpt lat="45.2013957" lon="10.7126142"><ele>22.0</ele><time>2026-05-02T06:30:26.145Z</time></trkpt><trkpt lat="45.2014702" lon="10.7125553"><ele>22.0</ele><time>2026-05-02T06:30:30.146Z</time></trkpt><trkpt lat="45.2015466" lon="10.7125437"><ele>22.0</ele><time>2026-05-02T06:30:33.145Z</time></trkpt><trkpt lat="45.2016338" lon="10.7125107"><ele>22.0</ele><time>2026-05-02T06:30:36.146Z</time></trkpt><trkpt lat="45.2017115" lon="10.7124791"><ele>22.0</ele><time>2026-05-02T06:30:39.145Z</time></trkpt><trkpt lat="45.2017739" lon="10.7124631"><ele>22.0</ele><time>2026-05-02T06:30:41.145Z</time></trkpt><trkpt lat="45.2018353" lon="10.7124406"><ele>22.5</ele><time>2026-05-02T06:30:43.144Z</time></trkpt><trkpt lat="45.2019268" lon="10.7124148"><ele>23.0</ele><time>2026-05-02T06:30:46.145Z</time></trkpt><trkpt lat="45.2020183" lon="10.7123852"><ele>23.5</ele><time>2026-05-02T06:30:49.145Z</time></trkpt><trkpt lat="45.2020876" lon="10.712366"><ele>24.0</ele><time>2026-05-02T06:30:51.145Z</time></trkpt><trkpt lat="45.2021627" lon="10.7123493"><ele>24.500000000000004</ele><time>2026-05-02T06:30:53.145Z</time></trkpt><trkpt lat="45.2022406" lon="10.7123277"><ele>25.0</ele><time>2026-05-02T06:30:55.146Z</time></trkpt><trkpt lat="45.2023168" lon="10.7123109"><ele>24.833333333333336</ele><time>2026-05-02T06:30:57.145Z</time></trkpt><trkpt lat="45.202396" lon="10.7122848"><ele>24.666666666666668</ele><time>2026-05-02T06:30:59.146Z</time></trkpt><trkpt lat="45.2024772" lon="10.7122624"><ele>24.5</ele><time>2026-05-02T06:31:01.145Z</time></trkpt><trkpt lat="45.2025633" lon="10.7122398"><ele>24.333333333333336</ele><time>2026-05-02T06:31:03.146Z</time></trkpt><trkpt lat="45.2026476" lon="10.7122124"><ele>24.166666666666668</ele><time>2026-05-02T06:31:05.145Z</time></trkpt><trkpt lat="45.2027302" lon="10.7121796"><ele>24.0</ele><time>2026-05-02T06:31:07.145Z</time></trkpt><trkpt lat="45.2028136" lon="10.7121501"><ele>24.0</ele><time>2026-05-02T06:31:09.145Z</time></trkpt><trkpt lat="45.2028964" lon="10.7121192"><ele>24.0</ele><time>2026-05-02T06:31:11.146Z</time></trkpt><trkpt lat="45.2029788" lon="10.7120969"><ele>24.0</ele><time>2026-05-02T06:31:13.146Z</time></trkpt><trkpt lat="45.2030612" lon="10.7120732"><ele>24.0</ele><time>2026-05-02T06:31:15.145Z</time></trkpt><trkpt lat="45.2031441" lon="10.7120571"><ele>24.0</ele><time>2026-05-02T06:31:17.146Z</time></trkpt><trkpt lat="45.2032274" lon="10.7120434"><ele>24.0</ele><time>2026-05-02T06:31:19.145Z</time></trkpt><trkpt lat="45.2033092" lon="10.7120194"><ele>24.0</ele><time>2026-05-02T06:31:21.145Z</time></trkpt><trkpt lat="45.2033951" lon="10.7120064"><ele>24.0</ele><time>2026-05-02T06:31:23.145Z</time></trkpt><trkpt lat="45.2034826" lon="10.7119917"><ele>24.0</ele><time>2026-05-02T06:31:25.144Z</time></trkpt><trkpt lat="45.2035675" lon="10.7119811"><ele>24.0</ele><time>2026-05-02T06:31:27.145Z</time></trkpt><trkpt lat="45.2036461" lon="10.7119787"><ele>24.0</ele><time>2026-05-02T06:31:29.146Z</time></trkpt><trkpt lat="45.2037305" lon="10.7119721"><ele>24.0</ele><time>2026-05-02T06:31:31.144Z</time></trkpt><trkpt lat="45.2038122" lon="10.711961"><ele>23.999999999999996</ele><time>2026-05-02T06:31:33.146Z</time></trkpt><trkpt lat="45.2038968" lon="10.7119386"><ele>24.0</ele><time>2026-05-02T06:31:35.145Z</time></trkpt><trkpt lat="45.2039819" lon="10.7119179"><ele>24.0</ele><time>2026-05-02T06:31:37.146Z</time></trkpt><trkpt lat="45.204059" lon="10.7118973"><ele>24.0</ele><time>2026-05-02T06:31:39.146Z</time></trkpt><trkpt lat="45.2041263" lon="10.7118899"><ele>24.0</ele><time>2026-05-02T06:31:41.146Z</time></trkpt><trkpt lat="45.2041899" lon="10.7118816"><ele>23.999999999999996</ele><time>2026-05-02T06:31:43.145Z</time></trkpt><trkpt lat="45.2042548" lon="10.711881"><ele>24.0</ele><time>2026-05-02T06:31:45.145Z</time></trkpt><trkpt lat="45.204322" lon="10.711882"><ele>24.0</ele><time>2026-05-02T06:31:47.146Z</time></trkpt><trkpt lat="45.2043917" lon="10.7118791"><ele>24.0</ele><time>2026-05-02T06:31:49.145Z</time></trkpt><trkpt lat="45.2044661" lon="10.7118779"><ele>24.0</ele><time>2026-05-02T06:31:51.146Z</time></trkpt><trkpt lat="45.204541" lon="10.7118853"><ele>24.0</ele><time>2026-05-02T06:31:53.145Z</time></trkpt><trkpt lat="45.2046193" lon="10.7118865"><ele>24.0</ele><time>2026-05-02T06:31:55.146Z</time></trkpt><trkpt lat="45.2046971" lon="10.7118847"><ele>24.0</ele><time>2026-05-02T06:31:57.144Z</time></trkpt><trkpt lat="45.2047732" lon="10.7118862"><ele>23.666666666666668</ele><time>2026-05-02T06:31:59.145Z</time></trkpt><trkpt lat="45.2048516" lon="10.7118862"><ele>23.333333333333332</ele><time>2026-05-02T06:32:01.145Z</time></trkpt><trkpt lat="45.2049351" lon="10.7118908"><ele>23.0</ele><time>2026-05-02T06:32:03.144Z</time></trkpt><trkpt lat="45.2050186" lon="10.7118982"><ele>22.666666666666664</ele><time>2026-05-02T06:32:05.145Z</time></trkpt><trkpt lat="45.2051013" lon="10.7119101"><ele>22.333333333333332</ele><time>2026-05-02T06:32:07.146Z</time></trkpt><trkpt lat="45.2051863" lon="10.7119158"><ele>22.0</ele><time>2026-05-02T06:32:09.146Z</time></trkpt><trkpt lat="45.2052697" lon="10.7119267"><ele>22.0</ele><time>2026-05-02T06:32:11.144Z</time></trkpt><trkpt lat="45.2053537" lon="10.7119326"><ele>22.0</ele><time>2026-05-02T06:32:13.145Z</time></trkpt><trkpt lat="45.2054422" lon="10.7119331"><ele>22.0</ele><time>2026-05-02T06:32:15.144Z</time></trkpt><trkpt lat="45.2055306" lon="10.711939"><ele>22.0</ele><time>2026-05-02T06:32:17.145Z</time></trkpt><trkpt lat="45.2056197" lon="10.7119467"><ele>22.0</ele><time>2026-05-02T06:32:19.145Z</time></trkpt><trkpt lat="45.2057045" lon="10.7119562"><ele>22.0</ele><time>2026-05-02T06:32:21.145Z</time></trkpt><trkpt lat="45.205788" lon="10.7119685"><ele>22.0</ele><time>2026-05-02T06:32:23.146Z</time></trkpt><trkpt lat="45.2058708" lon="10.7119806"><ele>22.0</ele><time>2026-05-02T06:32:25.145Z</time></trkpt><trkpt lat="45.2059614" lon="10.7120002"><ele>22.0</ele><time>2026-05-02T06:32:27.145Z</time></trkpt><trkpt lat="45.2060457" lon="10.7120112"><ele>22.0</ele><time>2026-05-02T06:32:29.144Z</time></trkpt><trkpt lat="45.2061347" lon="10.7120236"><ele>22.0</ele><time>2026-05-02T06:32:31.145Z</time></trkpt><trkpt lat="45.206222" lon="10.7120352"><ele>22.0</ele><time>2026-05-02T06:32:33.146Z</time></trkpt><trkpt lat="45.2063057" lon="10.7120519"><ele>22.0</ele><time>2026-05-02T06:32:35.145Z</time></trkpt><trkpt lat="45.2063929" lon="10.7120633"><ele>22.0</ele><time>2026-05-02T06:32:37.146Z</time></trkpt><trkpt lat="45.2064783" lon="10.7120748"><ele>22.0</ele><time>2026-05-02T06:32:39.144Z</time></trkpt><trkpt lat="45.2065599" lon="10.7120823"><ele>22.0</ele><time>2026-05-02T06:32:41.146Z</time></trkpt><trkpt lat="45.2066396" lon="10.7120972"><ele>22.0</ele><time>2026-05-02T06:32:43.145Z</time></trkpt><trkpt lat="45.2067211" lon="10.7121121"><ele>22.0</ele><time>2026-05-02T06:32:45.146Z</time></trkpt><trkpt lat="45.2068028" lon="10.7121308"><ele>22.666666666666664</ele><time>2026-05-02T06:32:47.146Z</time></trkpt><trkpt lat="45.2068868" lon="10.7121506"><ele>23.333333333333332</ele><time>2026-05-02T06:32:49.146Z</time></trkpt><trkpt lat="45.2069718" lon="10.7121636"><ele>24.0</ele><time>2026-05-02T06:32:51.145Z</time></trkpt><trkpt lat="45.2070574" lon="10.7121765"><ele>24.666666666666664</ele><time>2026-05-02T06:32:53.146Z</time></trkpt><trkpt lat="45.2071417" lon="10.7121964"><ele>25.333333333333332</ele><time>2026-05-02T06:32:55.144Z</time></trkpt><trkpt lat="45.207223" lon="10.7122088"><ele>26.0</ele><time>2026-05-02T06:32:57.144Z</time></trkpt><trkpt lat="45.2073022" lon="10.7122166"><ele>26.166666666666664</ele><time>2026-05-02T06:32:59.145Z</time></trkpt><trkpt lat="45.2073788" lon="10.7122278"><ele>26.333333333333332</ele><time>2026-05-02T06:33:01.146Z</time></trkpt><trkpt lat="45.2074582" lon="10.7122403"><ele>26.5</ele><time>2026-05-02T06:33:03.145Z</time></trkpt><trkpt lat="45.2075403" lon="10.7122506"><ele>26.666666666666664</ele><time>2026-05-02T06:33:05.146Z</time></trkpt><trkpt lat="45.2076229" lon="10.7122671"><ele>26.833333333333332</ele><time>2026-05-02T06:33:07.146Z</time></trkpt><trkpt lat="45.2077076" lon="10.7122881"><ele>27.0</ele><time>2026-05-02T06:33:09.145Z</time></trkpt><trkpt lat="45.2077909" lon="10.7123079"><ele>27.0</ele><time>2026-05-02T06:33:11.144Z</time></trkpt><trkpt lat="45.2078743" lon="10.7123234"><ele>27.0</ele><time>2026-05-02T06:33:13.145Z</time></trkpt><trkpt lat="45.2079616" lon="10.712331"><ele>27.0</ele><time>2026-05-02T06:33:15.143Z</time></trkpt><trkpt lat="45.2080445" lon="10.7123518"><ele>27.0</ele><time>2026-05-02T06:33:17.145Z</time></trkpt><trkpt lat="45.2081274" lon="10.7123707"><ele>27.0</ele><time>2026-05-02T06:33:19.145Z</time></trkpt><trkpt lat="45.2082099" lon="10.7123897"><ele>27.0</ele><time>2026-05-02T06:33:21.145Z</time></trkpt><trkpt lat="45.2082919" lon="10.7124009"><ele>26.666666666666668</ele><time>2026-05-02T06:33:23.145Z</time></trkpt><trkpt lat="45.2083761" lon="10.7124144"><ele>26.333333333333336</ele><time>2026-05-02T06:33:25.144Z</time></trkpt><trkpt lat="45.2084638" lon="10.7124212"><ele>26.0</ele><time>2026-05-02T06:33:27.145Z</time></trkpt><trkpt lat="45.2085511" lon="10.712435"><ele>25.666666666666668</ele><time>2026-05-02T06:33:29.145Z</time></trkpt><trkpt lat="45.2086413" lon="10.7124585"><ele>25.333333333333336</ele><time>2026-05-02T06:33:31.145Z</time></trkpt><trkpt lat="45.208728" lon="10.7124721"><ele>25.0</ele><time>2026-05-02T06:33:33.145Z</time></trkpt><trkpt lat="45.2088208" lon="10.7124795"><ele>25.0</ele><time>2026-05-02T06:33:35.146Z</time></trkpt><trkpt lat="45.2089178" lon="10.7124851"><ele>25.0</ele><time>2026-05-02T06:33:37.145Z</time></trkpt><trkpt lat="45.2090139" lon="10.712495"><ele>25.0</ele><time>2026-05-02T06:33:39.145Z</time></trkpt><trkpt lat="45.2091144" lon="10.7124971"><ele>25.0</ele><time>2026-05-02T06:33:41.146Z</time></trkpt><trkpt lat="45.2092108" lon="10.7125098"><ele>25.0</ele><time>2026-05-02T06:33:43.146Z</time></trkpt><trkpt lat="45.2093074" lon="10.7125151"><ele>24.8</ele><time>2026-05-02T06:33:45.145Z</time></trkpt><trkpt lat="45.2094042" lon="10.7125393"><ele>24.6</ele><time>2026-05-02T06:33:47.145Z</time></trkpt><trkpt lat="45.2095072" lon="10.7125666"><ele>24.4</ele><time>2026-05-02T06:33:49.146Z</time></trkpt><trkpt lat="45.2096151" lon="10.7125815"><ele>24.2</ele><time>2026-05-02T06:33:51.146Z</time></trkpt><trkpt lat="45.2097356" lon="10.712603"><ele>24.0</ele><time>2026-05-02T06:33:53.144Z</time></trkpt><trkpt lat="45.2098564" lon="10.7126243"><ele>23.799999999999997</ele><time>2026-05-02T06:33:55.145Z</time></trkpt><trkpt lat="45.2099201" lon="10.7126352"><ele>23.599999999999998</ele><time>2026-05-02T06:33:56.146Z</time></trkpt><trkpt lat="45.2100305" lon="10.7126728"><ele>23.4</ele><time>2026-05-02T06:33:58.145Z</time></trkpt><trkpt lat="45.2101344" lon="10.7127154"><ele>23.2</ele><time>2026-05-02T06:34:00.146Z</time></trkpt><trkpt lat="45.2102351" lon="10.712746"><ele>23.0</ele><time>2026-05-02T06:34:02.146Z</time></trkpt><trkpt lat="45.2103251" lon="10.7127704"><ele>23.0</ele><time>2026-05-02T06:34:04.145Z</time></trkpt><trkpt lat="45.2104078" lon="10.7127886"><ele>23.0</ele><time>2026-05-02T06:34:06.144Z</time></trkpt><trkpt lat="45.2104892" lon="10.7128056"><ele>23.0</ele><time>2026-05-02T06:34:08.144Z</time></trkpt><trkpt lat="45.2105758" lon="10.7128197"><ele>23.0</ele><time>2026-05-02T06:34:10.145Z</time></trkpt><trkpt lat="45.2106614" lon="10.7128375"><ele>23.0</ele><time>2026-05-02T06:34:12.144Z</time></trkpt><trkpt lat="45.2107428" lon="10.7128498"><ele>23.0</ele><time>2026-05-02T06:34:14.144Z</time></trkpt><trkpt lat="45.2108193" lon="10.7128604"><ele>23.28571428571429</ele><time>2026-05-02T06:34:16.146Z</time></trkpt><trkpt lat="45.2108896" lon="10.7128759"><ele>23.57142857142857</ele><time>2026-05-02T06:34:18.144Z</time></trkpt><trkpt lat="45.2109553" lon="10.7128862"><ele>23.857142857142858</ele><time>2026-05-02T06:34:20.145Z</time></trkpt><trkpt lat="45.2110202" lon="10.7128984"><ele>24.142857142857146</ele><time>2026-05-02T06:34:22.144Z</time></trkpt><trkpt lat="45.2110827" lon="10.7129135"><ele>24.42857142857143</ele><time>2026-05-02T06:34:24.145Z</time></trkpt><trkpt lat="45.2111479" lon="10.7129269"><ele>24.714285714285715</ele><time>2026-05-02T06:34:26.146Z</time></trkpt><trkpt lat="45.2112133" lon="10.7129377"><ele>25.0</ele><time>2026-05-02T06:34:28.145Z</time></trkpt><trkpt lat="45.2112817" lon="10.7129602"><ele>25.000000000000004</ele><time>2026-05-02T06:34:30.144Z</time></trkpt><trkpt lat="45.2113578" lon="10.7129799"><ele>25.0</ele><time>2026-05-02T06:34:32.145Z</time></trkpt><trkpt lat="45.2114304" lon="10.7129981"><ele>25.0</ele><time>2026-05-02T06:34:34.145Z</time></trkpt><trkpt lat="45.2115021" lon="10.7130216"><ele>25.0</ele><time>2026-05-02T06:34:36.144Z</time></trkpt><trkpt lat="45.2115717" lon="10.7130425"><ele>25.0</ele><time>2026-05-02T06:34:38.145Z</time></trkpt><trkpt lat="45.2116445" lon="10.7130599"><ele>25.000000000000004</ele><time>2026-05-02T06:34:40.143Z</time></trkpt><trkpt lat="45.2117167" lon="10.7130877"><ele>25.0</ele><time>2026-05-02T06:34:42.146Z</time></trkpt><trkpt lat="45.211789" lon="10.7131162"><ele>25.28571428571429</ele><time>2026-05-02T06:34:44.146Z</time></trkpt><trkpt lat="45.2118594" lon="10.7131418"><ele>25.571428571428573</ele><time>2026-05-02T06:34:46.144Z</time></trkpt><trkpt lat="45.2119305" lon="10.7131749"><ele>25.857142857142858</ele><time>2026-05-02T06:34:48.145Z</time></trkpt><trkpt lat="45.2120036" lon="10.7131985"><ele>26.142857142857146</ele><time>2026-05-02T06:34:50.146Z</time></trkpt><trkpt lat="45.2120744" lon="10.7132284"><ele>26.428571428571427</ele><time>2026-05-02T06:34:52.146Z</time></trkpt><trkpt lat="45.2121447" lon="10.7132609"><ele>26.714285714285715</ele><time>2026-05-02T06:34:54.145Z</time></trkpt><trkpt lat="45.2122146" lon="10.713287"><ele>27.0</ele><time>2026-05-02T06:34:56.144Z</time></trkpt><trkpt lat="45.2122903" lon="10.7133192"><ele>27.333333333333332</ele><time>2026-05-02T06:34:58.144Z</time></trkpt><trkpt lat="45.2123633" lon="10.7133506"><ele>27.666666666666664</ele><time>2026-05-02T06:35:00.144Z</time></trkpt><trkpt lat="45.212434" lon="10.7133837"><ele>28.0</ele><time>2026-05-02T06:35:02.145Z</time></trkpt><trkpt lat="45.2125058" lon="10.7134204"><ele>28.333333333333332</ele><time>2026-05-02T06:35:04.144Z</time></trkpt><trkpt lat="45.2125842" lon="10.7134639"><ele>28.666666666666664</ele><time>2026-05-02T06:35:06.144Z</time></trkpt><trkpt lat="45.2126646" lon="10.7135135"><ele>29.0</ele><time>2026-05-02T06:35:08.144Z</time></trkpt><trkpt lat="45.2127464" lon="10.7135642"><ele>28.6</ele><time>2026-05-02T06:35:10.145Z</time></trkpt><trkpt lat="45.2128296" lon="10.7136231"><ele>28.2</ele><time>2026-05-02T06:35:12.146Z</time></trkpt><trkpt lat="45.2129107" lon="10.7136777"><ele>27.800000000000004</ele><time>2026-05-02T06:35:14.145Z</time></trkpt><trkpt lat="45.2129923" lon="10.7137365"><ele>27.400000000000002</ele><time>2026-05-02T06:35:16.145Z</time></trkpt><trkpt lat="45.2130714" lon="10.7137936"><ele>27.0</ele><time>2026-05-02T06:35:18.146Z</time></trkpt><trkpt lat="45.213151" lon="10.7138554"><ele>26.8</ele><time>2026-05-02T06:35:20.144Z</time></trkpt><trkpt lat="45.2132337" lon="10.7139189"><ele>26.6</ele><time>2026-05-02T06:35:22.144Z</time></trkpt><trkpt lat="45.2133109" lon="10.7139899"><ele>26.400000000000002</ele><time>2026-05-02T06:35:24.145Z</time></trkpt><trkpt lat="45.2133842" lon="10.7140644"><ele>26.200000000000003</ele><time>2026-05-02T06:35:26.144Z</time></trkpt><trkpt lat="45.2134679" lon="10.7141319"><ele>26.0</ele><time>2026-05-02T06:35:28.145Z</time></trkpt><trkpt lat="45.2135419" lon="10.7141869"><ele>26.0</ele><time>2026-05-02T06:35:30.144Z</time></trkpt><trkpt lat="45.2135941" lon="10.7142571"><ele>26.0</ele><time>2026-05-02T06:35:32.145Z</time></trkpt><trkpt lat="45.2136493" lon="10.714327"><ele>26.0</ele><time>2026-05-02T06:35:34.144Z</time></trkpt><trkpt lat="45.2137122" lon="10.7143819"><ele>26.0</ele><time>2026-05-02T06:35:36.146Z</time></trkpt><trkpt lat="45.2137722" lon="10.7144388"><ele>26.0</ele><time>2026-05-02T06:35:38.145Z</time></trkpt><trkpt lat="45.2138266" lon="10.7144947"><ele>26.0</ele><time>2026-05-02T06:35:40.144Z</time></trkpt><trkpt lat="45.2138951" lon="10.7145609"><ele>26.0</ele><time>2026-05-02T06:35:43.144Z</time></trkpt><trkpt lat="45.213956" lon="10.7146301"><ele>26.499999999999996</ele><time>2026-05-02T06:35:46.144Z</time></trkpt><trkpt lat="45.2140374" lon="10.714685"><ele>27.0</ele><time>2026-05-02T06:35:49.145Z</time></trkpt><trkpt lat="45.2141036" lon="10.7147333"><ele>27.5</ele><time>2026-05-02T06:35:51.146Z</time></trkpt><trkpt lat="45.21418" lon="10.7147862"><ele>28.0</ele><time>2026-05-02T06:35:53.144Z</time></trkpt><trkpt lat="45.2142561" lon="10.7148484"><ele>28.499999999999996</ele><time>2026-05-02T06:35:55.145Z</time></trkpt><trkpt lat="45.2143402" lon="10.7149133"><ele>29.0</ele><time>2026-05-02T06:35:57.145Z</time></trkpt><trkpt lat="45.2144278" lon="10.7149823"><ele>29.0</ele><time>2026-05-02T06:35:59.145Z</time></trkpt><trkpt lat="45.2145137" lon="10.7150496"><ele>29.0</ele><time>2026-05-02T06:36:01.144Z</time></trkpt><trkpt lat="45.2146035" lon="10.7151207"><ele>29.0</ele><time>2026-05-02T06:36:03.144Z</time></trkpt><trkpt lat="45.2146821" lon="10.7151929"><ele>29.0</ele><time>2026-05-02T06:36:05.145Z</time></trkpt><trkpt lat="45.2147611" lon="10.7152591"><ele>29.0</ele><time>2026-05-02T06:36:07.145Z</time></trkpt><trkpt lat="45.2148421" lon="10.7153181"><ele>28.833333333333332</ele><time>2026-05-02T06:36:09.145Z</time></trkpt><trkpt lat="45.2149169" lon="10.7153793"><ele>28.666666666666664</ele><time>2026-05-02T06:36:11.145Z</time></trkpt><trkpt lat="45.2149881" lon="10.7154464"><ele>28.5</ele><time>2026-05-02T06:36:13.144Z</time></trkpt><trkpt lat="45.2150623" lon="10.7155115"><ele>28.333333333333336</ele><time>2026-05-02T06:36:15.144Z</time></trkpt><trkpt lat="45.2151376" lon="10.7155773"><ele>28.166666666666668</ele><time>2026-05-02T06:36:17.146Z</time></trkpt><trkpt lat="45.2152163" lon="10.7156351"><ele>28.0</ele><time>2026-05-02T06:36:19.144Z</time></trkpt><trkpt lat="45.2152944" lon="10.7156958"><ele>28.000000000000004</ele><time>2026-05-02T06:36:21.146Z</time></trkpt><trkpt lat="45.2153712" lon="10.7157582"><ele>28.0</ele><time>2026-05-02T06:36:23.145Z</time></trkpt><trkpt lat="45.2154481" lon="10.7158194"><ele>28.0</ele><time>2026-05-02T06:36:25.144Z</time></trkpt><trkpt lat="45.2155217" lon="10.7158841"><ele>28.0</ele><time>2026-05-02T06:36:27.145Z</time></trkpt><trkpt lat="45.2155978" lon="10.7159509"><ele>28.000000000000004</ele><time>2026-05-02T06:36:29.143Z</time></trkpt><trkpt lat="45.2156734" lon="10.7160114"><ele>28.0</ele><time>2026-05-02T06:36:31.144Z</time></trkpt><trkpt lat="45.215746" lon="10.7160746"><ele>28.000000000000004</ele><time>2026-05-02T06:36:33.145Z</time></trkpt><trkpt lat="45.2158169" lon="10.7161358"><ele>28.0</ele><time>2026-05-02T06:36:35.144Z</time></trkpt><trkpt lat="45.2158877" lon="10.7161962"><ele>28.0</ele><time>2026-05-02T06:36:37.144Z</time></trkpt><trkpt lat="45.2159588" lon="10.7162597"><ele>28.0</ele><time>2026-05-02T06:36:39.145Z</time></trkpt><trkpt lat="45.2160327" lon="10.7163239"><ele>28.000000000000004</ele><time>2026-05-02T06:36:41.144Z</time></trkpt><trkpt lat="45.2161074" lon="10.7163917"><ele>28.0</ele><time>2026-05-02T06:36:43.145Z</time></trkpt><trkpt lat="45.2161819" lon="10.7164601"><ele>28.000000000000004</ele><time>2026-05-02T06:36:45.145Z</time></trkpt><trkpt lat="45.2162547" lon="10.716527"><ele>28.0</ele><time>2026-05-02T06:36:47.146Z</time></trkpt><trkpt lat="45.2163284" lon="10.7165949"><ele>28.0</ele><time>2026-05-02T06:36:49.145Z</time></trkpt><trkpt lat="45.2164012" lon="10.7166647"><ele>28.0</ele><time>2026-05-02T06:36:51.145Z</time></trkpt><trkpt lat="45.2164729" lon="10.7167295"><ele>28.000000000000004</ele><time>2026-05-02T06:36:53.145Z</time></trkpt><trkpt lat="45.2165568" lon="10.7167874"><ele>28.0</ele><time>2026-05-02T06:36:55.146Z</time></trkpt><trkpt lat="45.2166365" lon="10.7168495"><ele>27.833333333333336</ele><time>2026-05-02T06:36:57.143Z</time></trkpt><trkpt lat="45.216708" lon="10.7169221"><ele>27.666666666666668</ele><time>2026-05-02T06:36:59.145Z</time></trkpt><trkpt lat="45.2167826" lon="10.7169923"><ele>27.5</ele><time>2026-05-02T06:37:01.144Z</time></trkpt><trkpt lat="45.2168539" lon="10.7170587"><ele>27.333333333333336</ele><time>2026-05-02T06:37:03.143Z</time></trkpt><trkpt lat="45.2169298" lon="10.717127"><ele>27.166666666666668</ele><time>2026-05-02T06:37:05.144Z</time></trkpt><trkpt lat="45.21701" lon="10.7171912"><ele>27.0</ele><time>2026-05-02T06:37:07.146Z</time></trkpt><trkpt lat="45.2170824" lon="10.7172553"><ele>27.0</ele><time>2026-05-02T06:37:09.145Z</time></trkpt><trkpt lat="45.2171506" lon="10.7173212"><ele>27.0</ele><time>2026-05-02T06:37:11.144Z</time></trkpt><trkpt lat="45.2172233" lon="10.7173843"><ele>27.0</ele><time>2026-05-02T06:37:13.144Z</time></trkpt><trkpt lat="45.2173014" lon="10.7174355"><ele>27.0</ele><time>2026-05-02T06:37:15.145Z</time></trkpt><trkpt lat="45.2173833" lon="10.7174985"><ele>27.0</ele><time>2026-05-02T06:37:17.145Z</time></trkpt><trkpt lat="45.2174612" lon="10.7175652"><ele>27.0</ele><time>2026-05-02T06:37:19.144Z</time></trkpt><trkpt lat="45.2175434" lon="10.7176385"><ele>27.0</ele><time>2026-05-02T06:37:21.144Z</time></trkpt><trkpt lat="45.2176345" lon="10.7176921"><ele>27.000000000000004</ele><time>2026-05-02T06:37:23.146Z</time></trkpt><trkpt lat="45.2177121" lon="10.7177554"><ele>27.000000000000004</ele><time>2026-05-02T06:37:25.144Z</time></trkpt><trkpt lat="45.2177929" lon="10.7178314"><ele>27.0</ele><time>2026-05-02T06:37:27.145Z</time></trkpt><trkpt lat="45.2178645" lon="10.7178945"><ele>27.0</ele><time>2026-05-02T06:37:29.145Z</time></trkpt><trkpt lat="45.2179395" lon="10.7179538"><ele>27.0</ele><time>2026-05-02T06:37:31.145Z</time></trkpt><trkpt lat="45.218022" lon="10.7180156"><ele>27.000000000000004</ele><time>2026-05-02T06:37:33.143Z</time></trkpt><trkpt lat="45.2181047" lon="10.7180949"><ele>27.000000000000004</ele><time>2026-05-02T06:37:35.144Z</time></trkpt><trkpt lat="45.218173" lon="10.7181797"><ele>27.0</ele><time>2026-05-02T06:37:37.145Z</time></trkpt><trkpt lat="45.218249" lon="10.7182533"><ele>27.0</ele><time>2026-05-02T06:37:39.145Z</time></trkpt><trkpt lat="45.2183274" lon="10.7183184"><ele>27.200000000000003</ele><time>2026-05-02T06:37:41.145Z</time></trkpt><trkpt lat="45.2183923" lon="10.7183753"><ele>27.400000000000002</ele><time>2026-05-02T06:37:43.145Z</time></trkpt><trkpt lat="45.2184759" lon="10.7184467"><ele>27.599999999999998</ele><time>2026-05-02T06:37:45.145Z</time></trkpt><trkpt lat="45.2185521" lon="10.7185235"><ele>27.799999999999997</ele><time>2026-05-02T06:37:47.144Z</time></trkpt><trkpt lat="45.218635" lon="10.7185831"><ele>28.0</ele><time>2026-05-02T06:37:49.144Z</time></trkpt><trkpt lat="45.2187105" lon="10.7186515"><ele>28.0</ele><time>2026-05-02T06:37:51.144Z</time></trkpt><trkpt lat="45.2187925" lon="10.718708"><ele>27.999999999999996</ele><time>2026-05-02T06:37:53.144Z</time></trkpt><trkpt lat="45.2188736" lon="10.718774"><ele>27.999999999999996</ele><time>2026-05-02T06:37:55.145Z</time></trkpt><trkpt lat="45.2189482" lon="10.7188474"><ele>28.0</ele><time>2026-05-02T06:37:57.146Z</time></trkpt><trkpt lat="45.2190245" lon="10.7189156"><ele>28.0</ele><time>2026-05-02T06:37:59.144Z</time></trkpt><trkpt lat="45.2190996" lon="10.7189832"><ele>27.833333333333336</ele><time>2026-05-02T06:38:01.145Z</time></trkpt><trkpt lat="45.2191701" lon="10.7190446"><ele>27.666666666666668</ele><time>2026-05-02T06:38:03.145Z</time></trkpt><trkpt lat="45.219249" lon="10.7191118"><ele>27.5</ele><time>2026-05-02T06:38:05.146Z</time></trkpt><trkpt lat="45.2193232" lon="10.7191754"><ele>27.333333333333336</ele><time>2026-05-02T06:38:07.144Z</time></trkpt><trkpt lat="45.2194031" lon="10.719235"><ele>27.166666666666668</ele><time>2026-05-02T06:38:09.146Z</time></trkpt><trkpt lat="45.2194799" lon="10.7192966"><ele>27.0</ele><time>2026-05-02T06:38:11.143Z</time></trkpt><trkpt lat="45.2195575" lon="10.7193655"><ele>27.0</ele><time>2026-05-02T06:38:13.144Z</time></trkpt><trkpt lat="45.21963" lon="10.7194259"><ele>27.000000000000004</ele><time>2026-05-02T06:38:15.145Z</time></trkpt><trkpt lat="45.2197171" lon="10.7194977"><ele>27.000000000000004</ele><time>2026-05-02T06:38:17.144Z</time></trkpt><trkpt lat="45.2198063" lon="10.719566"><ele>27.0</ele><time>2026-05-02T06:38:19.146Z</time></trkpt><trkpt lat="45.2198839" lon="10.7196453"><ele>27.0</ele><time>2026-05-02T06:38:21.145Z</time></trkpt><trkpt lat="45.2199605" lon="10.7197035"><ele>27.0</ele><time>2026-05-02T06:38:23.145Z</time></trkpt><trkpt lat="45.2200441" lon="10.719775"><ele>27.000000000000004</ele><time>2026-05-02T06:38:25.145Z</time></trkpt><trkpt lat="45.2201198" lon="10.7198409"><ele>27.000000000000004</ele><time>2026-05-02T06:38:27.144Z</time></trkpt><trkpt lat="45.2202058" lon="10.719906"><ele>27.0</ele><time>2026-05-02T06:38:29.146Z</time></trkpt><trkpt lat="45.2202821" lon="10.7199834"><ele>27.0</ele><time>2026-05-02T06:38:31.145Z</time></trkpt><trkpt lat="45.2203492" lon="10.7200485"><ele>27.0</ele><time>2026-05-02T06:38:33.145Z</time></trkpt><trkpt lat="45.2204304" lon="10.7201196"><ele>27.000000000000004</ele><time>2026-05-02T06:38:35.145Z</time></trkpt><trkpt lat="45.2205017" lon="10.7201968"><ele>27.000000000000004</ele><time>2026-05-02T06:38:37.144Z</time></trkpt><trkpt lat="45.220583" lon="10.7202659"><ele>27.0</ele><time>2026-05-02T06:38:39.146Z</time></trkpt><trkpt lat="45.2206592" lon="10.7203333"><ele>27.0</ele><time>2026-05-02T06:38:41.145Z</time></trkpt><trkpt lat="45.2207372" lon="10.7204132"><ele>27.333333333333332</ele><time>2026-05-02T06:38:43.145Z</time></trkpt><trkpt lat="45.2208142" lon="10.7204802"><ele>27.666666666666664</ele><time>2026-05-02T06:38:45.145Z</time></trkpt><trkpt lat="45.2208876" lon="10.7205613"><ele>28.0</ele><time>2026-05-02T06:38:47.144Z</time></trkpt><trkpt lat="45.2209567" lon="10.7206265"><ele>28.333333333333332</ele><time>2026-05-02T06:38:49.144Z</time></trkpt><trkpt lat="45.2210226" lon="10.7206906"><ele>28.666666666666664</ele><time>2026-05-02T06:38:51.145Z</time></trkpt><trkpt lat="45.2210876" lon="10.7207442"><ele>29.0</ele><time>2026-05-02T06:38:53.144Z</time></trkpt><trkpt lat="45.2211478" lon="10.7207974"><ele>28.999999999999996</ele><time>2026-05-02T06:38:55.144Z</time></trkpt><trkpt lat="45.2212062" lon="10.7208552"><ele>29.0</ele><time>2026-05-02T06:38:57.145Z</time></trkpt><trkpt lat="45.2212708" lon="10.7209091"><ele>29.0</ele><time>2026-05-02T06:38:59.145Z</time></trkpt><trkpt lat="45.2213349" lon="10.7209678"><ele>29.0</ele><time>2026-05-02T06:39:01.144Z</time></trkpt><trkpt lat="45.2214035" lon="10.7210129"><ele>28.999999999999996</ele><time>2026-05-02T06:39:03.145Z</time></trkpt><trkpt lat="45.2214788" lon="10.72106"><ele>29.0</ele><time>2026-05-02T06:39:05.145Z</time></trkpt><trkpt lat="45.221555" lon="10.7211197"><ele>29.0</ele><time>2026-05-02T06:39:07.144Z</time></trkpt><trkpt lat="45.2216405" lon="10.7211813"><ele>29.0</ele><time>2026-05-02T06:39:09.145Z</time></trkpt><trkpt lat="45.2217307" lon="10.7212475"><ele>29.0</ele><time>2026-05-02T06:39:11.144Z</time></trkpt><trkpt lat="45.2218123" lon="10.7213244"><ele>29.0</ele><time>2026-05-02T06:39:13.144Z</time></trkpt><trkpt lat="45.2218971" lon="10.7213937"><ele>29.0</ele><time>2026-05-02T06:39:15.145Z</time></trkpt><trkpt lat="45.2219754" lon="10.7214669"><ele>29.0</ele><time>2026-05-02T06:39:17.145Z</time></trkpt><trkpt lat="45.2220572" lon="10.7215331"><ele>29.0</ele><time>2026-05-02T06:39:19.144Z</time></trkpt><trkpt lat="45.2221325" lon="10.7215946"><ele>29.0</ele><time>2026-05-02T06:39:21.145Z</time></trkpt><trkpt lat="45.222206" lon="10.7216627"><ele>29.0</ele><time>2026-05-02T06:39:23.144Z</time></trkpt><trkpt lat="45.2222842" lon="10.7217235"><ele>29.0</ele><time>2026-05-02T06:39:25.144Z</time></trkpt><trkpt lat="45.2223625" lon="10.7217917"><ele>28.999999999999996</ele><time>2026-05-02T06:39:27.144Z</time></trkpt><trkpt lat="45.2224354" lon="10.7218614"><ele>29.0</ele><time>2026-05-02T06:39:29.144Z</time></trkpt><trkpt lat="45.2225149" lon="10.7219355"><ele>29.0</ele><time>2026-05-02T06:39:31.145Z</time></trkpt><trkpt lat="45.2225889" lon="10.7219937"><ele>29.0</ele><time>2026-05-02T06:39:33.145Z</time></trkpt><trkpt lat="45.222658" lon="10.7220706"><ele>28.999999999999996</ele><time>2026-05-02T06:39:35.145Z</time></trkpt><trkpt lat="45.222735" lon="10.7221379"><ele>29.0</ele><time>2026-05-02T06:39:37.145Z</time></trkpt><trkpt lat="45.222829" lon="10.7221885"><ele>28.999999999999996</ele><time>2026-05-02T06:39:39.145Z</time></trkpt><trkpt lat="45.2229044" lon="10.7222601"><ele>29.0</ele><time>2026-05-02T06:39:41.144Z</time></trkpt><trkpt lat="45.2229834" lon="10.7223294"><ele>29.0</ele><time>2026-05-02T06:39:43.145Z</time></trkpt><trkpt lat="45.2230661" lon="10.7223863"><ele>29.0</ele><time>2026-05-02T06:39:45.145Z</time></trkpt><trkpt lat="45.2231321" lon="10.7224579"><ele>28.999999999999996</ele><time>2026-05-02T06:39:47.145Z</time></trkpt><trkpt lat="45.2232068" lon="10.7225215"><ele>29.0</ele><time>2026-05-02T06:39:49.144Z</time></trkpt><trkpt lat="45.2232864" lon="10.7225877"><ele>28.799999999999997</ele><time>2026-05-02T06:39:51.144Z</time></trkpt><trkpt lat="45.2233576" lon="10.7226614"><ele>28.599999999999998</ele><time>2026-05-02T06:39:53.145Z</time></trkpt><trkpt lat="45.2234391" lon="10.7227162"><ele>28.4</ele><time>2026-05-02T06:39:55.145Z</time></trkpt><trkpt lat="45.2235276" lon="10.7227893"><ele>28.2</ele><time>2026-05-02T06:39:57.144Z</time></trkpt><trkpt lat="45.2235987" lon="10.722851"><ele>28.0</ele><time>2026-05-02T06:39:59.145Z</time></trkpt><trkpt lat="45.2236773" lon="10.722929"><ele>28.0</ele><time>2026-05-02T06:40:01.144Z</time></trkpt><trkpt lat="45.223758" lon="10.7229997"><ele>27.999999999999996</ele><time>2026-05-02T06:40:03.145Z</time></trkpt><trkpt lat="45.2238331" lon="10.7230627"><ele>27.999999999999996</ele><time>2026-05-02T06:40:05.145Z</time></trkpt><trkpt lat="45.2239115" lon="10.7231362"><ele>28.0</ele><time>2026-05-02T06:40:07.144Z</time></trkpt><trkpt lat="45.2239968" lon="10.7231994"><ele>28.0</ele><time>2026-05-02T06:40:09.145Z</time></trkpt><trkpt lat="45.2240815" lon="10.7232597"><ele>28.000000000000004</ele><time>2026-05-02T06:40:11.145Z</time></trkpt><trkpt lat="45.2241555" lon="10.7233261"><ele>28.0</ele><time>2026-05-02T06:40:13.143Z</time></trkpt><trkpt lat="45.2242353" lon="10.7233883"><ele>28.0</ele><time>2026-05-02T06:40:15.144Z</time></trkpt><trkpt lat="45.2243105" lon="10.7234574"><ele>28.0</ele><time>2026-05-02T06:40:17.144Z</time></trkpt><trkpt lat="45.2243818" lon="10.7235259"><ele>28.000000000000004</ele><time>2026-05-02T06:40:19.145Z</time></trkpt><trkpt lat="45.2244503" lon="10.7235899"><ele>28.0</ele><time>2026-05-02T06:40:21.144Z</time></trkpt><trkpt lat="45.2245227" lon="10.723657"><ele>28.0</ele><time>2026-05-02T06:40:23.145Z</time></trkpt><trkpt lat="45.2246053" lon="10.7237166"><ele>27.999999999999996</ele><time>2026-05-02T06:40:25.145Z</time></trkpt><trkpt lat="45.2246816" lon="10.7237839"><ele>27.999999999999996</ele><time>2026-05-02T06:40:27.144Z</time></trkpt><trkpt lat="45.2247608" lon="10.7238455"><ele>28.0</ele><time>2026-05-02T06:40:29.144Z</time></trkpt><trkpt lat="45.2248375" lon="10.7239079"><ele>28.0</ele><time>2026-05-02T06:40:31.143Z</time></trkpt><trkpt lat="45.2249183" lon="10.7239779"><ele>28.333333333333336</ele><time>2026-05-02T06:40:33.144Z</time></trkpt><trkpt lat="45.2250014" lon="10.7240395"><ele>28.666666666666668</ele><time>2026-05-02T06:40:35.144Z</time></trkpt><trkpt lat="45.22508" lon="10.7241047"><ele>29.0</ele><time>2026-05-02T06:40:37.144Z</time></trkpt><trkpt lat="45.2251553" lon="10.7241863"><ele>29.333333333333336</ele><time>2026-05-02T06:40:39.145Z</time></trkpt><trkpt lat="45.2252256" lon="10.7242548"><ele>29.666666666666668</ele><time>2026-05-02T06:40:41.145Z</time></trkpt><trkpt lat="45.2252912" lon="10.7243232"><ele>30.0</ele><time>2026-05-02T06:40:43.144Z</time></trkpt><trkpt lat="45.2253624" lon="10.724394"><ele>30.166666666666668</ele><time>2026-05-02T06:40:45.145Z</time></trkpt><trkpt lat="45.2254436" lon="10.7244585"><ele>30.333333333333336</ele><time>2026-05-02T06:40:47.144Z</time></trkpt><trkpt lat="45.2255198" lon="10.7245263"><ele>30.5</ele><time>2026-05-02T06:40:49.144Z</time></trkpt><trkpt lat="45.225593" lon="10.7245935"><ele>30.666666666666668</ele><time>2026-05-02T06:40:51.144Z</time></trkpt><trkpt lat="45.2256634" lon="10.7246511"><ele>30.833333333333336</ele><time>2026-05-02T06:40:53.144Z</time></trkpt><trkpt lat="45.225747" lon="10.7247048"><ele>31.0</ele><time>2026-05-02T06:40:55.144Z</time></trkpt><trkpt lat="45.2258402" lon="10.7247678"><ele>31.000000000000004</ele><time>2026-05-02T06:40:57.144Z</time></trkpt><trkpt lat="45.2259225" lon="10.7248405"><ele>31.0</ele><time>2026-05-02T06:40:59.144Z</time></trkpt><trkpt lat="45.2259976" lon="10.7249154"><ele>31.0</ele><time>2026-05-02T06:41:01.145Z</time></trkpt><trkpt lat="45.226065" lon="10.724979"><ele>31.0</ele><time>2026-05-02T06:41:03.145Z</time></trkpt><trkpt lat="45.2261322" lon="10.7250388"><ele>31.000000000000004</ele><time>2026-05-02T06:41:05.144Z</time></trkpt><trkpt lat="45.2262104" lon="10.7251188"><ele>31.0</ele><time>2026-05-02T06:41:07.144Z</time></trkpt><trkpt lat="45.2262916" lon="10.7251918"><ele>30.8</ele><time>2026-05-02T06:41:09.144Z</time></trkpt><trkpt lat="45.2263763" lon="10.7252653"><ele>30.6</ele><time>2026-05-02T06:41:11.145Z</time></trkpt><trkpt lat="45.2264559" lon="10.7253331"><ele>30.4</ele><time>2026-05-02T06:41:13.144Z</time></trkpt><trkpt lat="45.2265367" lon="10.7253992"><ele>30.2</ele><time>2026-05-02T06:41:15.144Z</time></trkpt><trkpt lat="45.2266113" lon="10.7254687"><ele>30.0</ele><time>2026-05-02T06:41:17.144Z</time></trkpt><trkpt lat="45.2266898" lon="10.7255355"><ele>29.833333333333332</ele><time>2026-05-02T06:41:19.144Z</time></trkpt><trkpt lat="45.2267664" lon="10.7256034"><ele>29.666666666666664</ele><time>2026-05-02T06:41:21.144Z</time></trkpt><trkpt lat="45.2268416" lon="10.7256711"><ele>29.5</ele><time>2026-05-02T06:41:23.145Z</time></trkpt><trkpt lat="45.2269198" lon="10.7257384"><ele>29.333333333333332</ele><time>2026-05-02T06:41:25.145Z</time></trkpt><trkpt lat="45.2269725" lon="10.7257971"><ele>29.166666666666664</ele><time>2026-05-02T06:41:27.144Z</time></trkpt><trkpt lat="45.2270291" lon="10.7258583"><ele>29.0</ele><time>2026-05-02T06:41:30.143Z</time></trkpt><trkpt lat="45.2270279" lon="10.7257493"><ele>28.999999999999996</ele><time>2026-05-02T06:41:35.145Z</time></trkpt><trkpt lat="45.2269656" lon="10.7256874"><ele>29.0</ele><time>2026-05-02T06:41:38.144Z</time></trkpt><trkpt lat="45.2269941" lon="10.7257805"><ele>29.0</ele><time>2026-05-02T06:42:24.143Z</time></trkpt><trkpt lat="45.2270553" lon="10.7258481"><ele>29.0</ele><time>2026-05-02T06:42:27.143Z</time></trkpt><trkpt lat="45.2271214" lon="10.7259311"><ele>28.999999999999996</ele><time>2026-05-02T06:42:30.144Z</time></trkpt><trkpt lat="45.2271928" lon="10.7260185"><ele>29.0</ele><time>2026-05-02T06:42:33.142Z</time></trkpt><trkpt lat="45.2272501" lon="10.7260844"><ele>28.833333333333332</ele><time>2026-05-02T06:42:35.144Z</time></trkpt><trkpt lat="45.2273037" lon="10.7261542"><ele>28.666666666666664</ele><time>2026-05-02T06:42:37.144Z</time></trkpt><trkpt lat="45.2273602" lon="10.7262275"><ele>28.5</ele><time>2026-05-02T06:42:39.142Z</time></trkpt><trkpt lat="45.2274122" lon="10.7262932"><ele>28.333333333333336</ele><time>2026-05-02T06:42:41.145Z</time></trkpt><trkpt lat="45.2274714" lon="10.7263474"><ele>28.166666666666668</ele><time>2026-05-02T06:42:43.143Z</time></trkpt><trkpt lat="45.2275314" lon="10.7263876"><ele>28.0</ele><time>2026-05-02T06:42:45.144Z</time></trkpt><trkpt lat="45.2276204" lon="10.7264488"><ele>28.333333333333336</ele><time>2026-05-02T06:42:48.145Z</time></trkpt><trkpt lat="45.2276979" lon="10.7264866"><ele>28.666666666666668</ele><time>2026-05-02T06:42:50.144Z</time></trkpt><trkpt lat="45.2278018" lon="10.7265299"><ele>29.0</ele><time>2026-05-02T06:42:53.145Z</time></trkpt><trkpt lat="45.2278715" lon="10.7265513"><ele>29.333333333333336</ele><time>2026-05-02T06:42:55.144Z</time></trkpt><trkpt lat="45.2279884" lon="10.726578"><ele>29.666666666666668</ele><time>2026-05-02T06:42:59.144Z</time></trkpt><trkpt lat="45.2280543" lon="10.7265842"><ele>30.0</ele><time>2026-05-02T06:43:01.144Z</time></trkpt><trkpt lat="45.2281259" lon="10.7266102"><ele>29.833333333333332</ele><time>2026-05-02T06:43:03.144Z</time></trkpt><trkpt lat="45.2281979" lon="10.7266588"><ele>29.666666666666664</ele><time>2026-05-02T06:43:05.145Z</time></trkpt><trkpt lat="45.2282772" lon="10.7267064"><ele>29.5</ele><time>2026-05-02T06:43:07.145Z</time></trkpt><trkpt lat="45.2283654" lon="10.7267536"><ele>29.333333333333332</ele><time>2026-05-02T06:43:09.144Z</time></trkpt><trkpt lat="45.228451" lon="10.7267929"><ele>29.166666666666664</ele><time>2026-05-02T06:43:11.144Z</time></trkpt><trkpt lat="45.2285336" lon="10.7268402"><ele>29.0</ele><time>2026-05-02T06:43:13.145Z</time></trkpt><trkpt lat="45.2286158" lon="10.7268885"><ele>28.833333333333332</ele><time>2026-05-02T06:43:15.144Z</time></trkpt><trkpt lat="45.2287026" lon="10.7269333"><ele>28.666666666666664</ele><time>2026-05-02T06:43:17.144Z</time></trkpt><trkpt lat="45.2287823" lon="10.726981"><ele>28.5</ele><time>2026-05-02T06:43:19.143Z</time></trkpt><trkpt lat="45.2288663" lon="10.7270246"><ele>28.333333333333336</ele><time>2026-05-02T06:43:21.144Z</time></trkpt><trkpt lat="45.2289516" lon="10.7270567"><ele>28.166666666666668</ele><time>2026-05-02T06:43:23.145Z</time></trkpt><trkpt lat="45.2290352" lon="10.7270981"><ele>28.0</ele><time>2026-05-02T06:43:25.145Z</time></trkpt><trkpt lat="45.2291241" lon="10.7271309"><ele>28.000000000000004</ele><time>2026-05-02T06:43:27.145Z</time></trkpt><trkpt lat="45.2292028" lon="10.7271632"><ele>28.0</ele><time>2026-05-02T06:43:29.145Z</time></trkpt><trkpt lat="45.2292899" lon="10.7271864"><ele>28.0</ele><time>2026-05-02T06:43:31.144Z</time></trkpt><trkpt lat="45.2293802" lon="10.7272238"><ele>28.0</ele><time>2026-05-02T06:43:33.143Z</time></trkpt><trkpt lat="45.2294734" lon="10.7272499"><ele>28.000000000000004</ele><time>2026-05-02T06:43:35.145Z</time></trkpt><trkpt lat="45.2295605" lon="10.7272803"><ele>28.0</ele><time>2026-05-02T06:43:37.145Z</time></trkpt><trkpt lat="45.2296504" lon="10.7273137"><ele>28.0</ele><time>2026-05-02T06:43:39.144Z</time></trkpt><trkpt lat="45.2297455" lon="10.7273385"><ele>27.999999999999996</ele><time>2026-05-02T06:43:41.144Z</time></trkpt><trkpt lat="45.229832" lon="10.7273633"><ele>27.999999999999996</ele><time>2026-05-02T06:43:43.145Z</time></trkpt><trkpt lat="45.2299182" lon="10.7273874"><ele>28.0</ele><time>2026-05-02T06:43:45.143Z</time></trkpt><trkpt lat="45.2300095" lon="10.7274113"><ele>28.0</ele><time>2026-05-02T06:43:47.143Z</time></trkpt><trkpt lat="45.2300961" lon="10.7274328"><ele>28.000000000000004</ele><time>2026-05-02T06:43:49.143Z</time></trkpt><trkpt lat="45.2301832" lon="10.7274522"><ele>28.0</ele><time>2026-05-02T06:43:51.144Z</time></trkpt><trkpt lat="45.2302669" lon="10.7274673"><ele>28.0</ele><time>2026-05-02T06:43:53.143Z</time></trkpt><trkpt lat="45.2303485" lon="10.727487"><ele>28.0</ele><time>2026-05-02T06:43:55.14Z</time></trkpt><trkpt lat="45.2304324" lon="10.7275049"><ele>28.000000000000004</ele><time>2026-05-02T06:43:57.145Z</time></trkpt><trkpt lat="45.2305185" lon="10.7275227"><ele>28.0</ele><time>2026-05-02T06:43:59.145Z</time></trkpt><trkpt lat="45.2306075" lon="10.7275415"><ele>28.166666666666668</ele><time>2026-05-02T06:44:01.143Z</time></trkpt><trkpt lat="45.230696" lon="10.7275497"><ele>28.333333333333336</ele><time>2026-05-02T06:44:03.143Z</time></trkpt><trkpt lat="45.2307896" lon="10.7275629"><ele>28.5</ele><time>2026-05-02T06:44:05.145Z</time></trkpt><trkpt lat="45.2308767" lon="10.7275794"><ele>28.666666666666664</ele><time>2026-05-02T06:44:07.144Z</time></trkpt><trkpt lat="45.2309559" lon="10.7275899"><ele>28.833333333333332</ele><time>2026-05-02T06:44:09.144Z</time></trkpt><trkpt lat="45.2310427" lon="10.7276056"><ele>29.0</ele><time>2026-05-02T06:44:11.142Z</time></trkpt><trkpt lat="45.2311345" lon="10.7276183"><ele>29.0</ele><time>2026-05-02T06:44:13.144Z</time></trkpt><trkpt lat="45.2312549" lon="10.7276525"><ele>29.0</ele><time>2026-05-02T06:44:16.145Z</time></trkpt><trkpt lat="45.2313189" lon="10.7276557"><ele>29.0</ele><time>2026-05-02T06:44:18.027Z</time></trkpt><trkpt lat="45.2313966" lon="10.7276658"><ele>29.0</ele><time>2026-05-02T06:44:19.143Z</time></trkpt><trkpt lat="45.231491" lon="10.7276854"><ele>29.0</ele><time>2026-05-02T06:44:21.143Z</time></trkpt><trkpt lat="45.2315827" lon="10.7276966"><ele>29.0</ele><time>2026-05-02T06:44:23.144Z</time></trkpt><trkpt lat="45.2316739" lon="10.7277057"><ele>29.0</ele><time>2026-05-02T06:44:25.144Z</time></trkpt><trkpt lat="45.2317641" lon="10.7277199"><ele>29.0</ele><time>2026-05-02T06:44:27.144Z</time></trkpt><trkpt lat="45.2318543" lon="10.7277371"><ele>29.0</ele><time>2026-05-02T06:44:29.142Z</time></trkpt><trkpt lat="45.2319928" lon="10.7277598"><ele>29.0</ele><time>2026-05-02T06:44:32.143Z</time></trkpt><trkpt lat="45.2320821" lon="10.7277773"><ele>29.0</ele><time>2026-05-02T06:44:34.143Z</time></trkpt><trkpt lat="45.232183" lon="10.7277978"><ele>29.0</ele><time>2026-05-02T06:44:36.143Z</time></trkpt><trkpt lat="45.2322867" lon="10.7278133"><ele>29.0</ele><time>2026-05-02T06:44:38.142Z</time></trkpt><trkpt lat="45.2323904" lon="10.7278315"><ele>29.0</ele><time>2026-05-02T06:44:40.144Z</time></trkpt><trkpt lat="45.2324935" lon="10.7278454"><ele>29.0</ele><time>2026-05-02T06:44:42.144Z</time></trkpt><trkpt lat="45.2325987" lon="10.7278611"><ele>29.0</ele><time>2026-05-02T06:44:44.143Z</time></trkpt><trkpt lat="45.2327027" lon="10.7278796"><ele>29.0</ele><time>2026-05-02T06:44:46.143Z</time></trkpt><trkpt lat="45.2328068" lon="10.7278932"><ele>29.0</ele><time>2026-05-02T06:44:48.145Z</time></trkpt><trkpt lat="45.2329097" lon="10.7279065"><ele>29.0</ele><time>2026-05-02T06:44:50.145Z</time></trkpt><trkpt lat="45.2330199" lon="10.7279213"><ele>29.0</ele><time>2026-05-02T06:44:52.143Z</time></trkpt><trkpt lat="45.2331273" lon="10.7279359"><ele>29.2</ele><time>2026-05-02T06:44:54.144Z</time></trkpt><trkpt lat="45.2332318" lon="10.7279492"><ele>29.4</ele><time>2026-05-02T06:44:56.144Z</time></trkpt><trkpt lat="45.2333322" lon="10.7279687"><ele>29.6</ele><time>2026-05-02T06:44:58.143Z</time></trkpt><trkpt lat="45.2334291" lon="10.7279834"><ele>29.8</ele><time>2026-05-02T06:45:00.144Z</time></trkpt><trkpt lat="45.2335276" lon="10.7279982"><ele>30.0</ele><time>2026-05-02T06:45:02.144Z</time></trkpt><trkpt lat="45.2336257" lon="10.7280165"><ele>30.0</ele><time>2026-05-02T06:45:04.144Z</time></trkpt><trkpt lat="45.2337261" lon="10.7280371"><ele>30.0</ele><time>2026-05-02T06:45:06.144Z</time></trkpt><trkpt lat="45.233828" lon="10.7280479"><ele>30.0</ele><time>2026-05-02T06:45:08.144Z</time></trkpt><trkpt lat="45.2339283" lon="10.7280584"><ele>30.0</ele><time>2026-05-02T06:45:10.143Z</time></trkpt><trkpt lat="45.2340242" lon="10.7280816"><ele>30.0</ele><time>2026-05-02T06:45:12.144Z</time></trkpt><trkpt lat="45.2341139" lon="10.7281011"><ele>30.2</ele><time>2026-05-02T06:45:14.142Z</time></trkpt><trkpt lat="45.2342124" lon="10.7281177"><ele>30.4</ele><time>2026-05-02T06:45:16.144Z</time></trkpt><trkpt lat="45.2343081" lon="10.7281304"><ele>30.6</ele><time>2026-05-02T06:45:18.142Z</time></trkpt><trkpt lat="45.2344088" lon="10.7281453"><ele>30.8</ele><time>2026-05-02T06:45:20.144Z</time></trkpt><trkpt lat="45.2344984" lon="10.7281622"><ele>31.0</ele><time>2026-05-02T06:45:22.144Z</time></trkpt><trkpt lat="45.234596" lon="10.7281793"><ele>31.0</ele><time>2026-05-02T06:45:24.144Z</time></trkpt><trkpt lat="45.234692" lon="10.7281973"><ele>31.0</ele><time>2026-05-02T06:45:26.144Z</time></trkpt><trkpt lat="45.2347912" lon="10.7282001"><ele>31.0</ele><time>2026-05-02T06:45:28.144Z</time></trkpt><trkpt lat="45.2348872" lon="10.7282245"><ele>31.0</ele><time>2026-05-02T06:45:30.143Z</time></trkpt><trkpt lat="45.2349822" lon="10.7282262"><ele>31.0</ele><time>2026-05-02T06:45:32.144Z</time></trkpt><trkpt lat="45.2350722" lon="10.7282395"><ele>31.0</ele><time>2026-05-02T06:45:34.143Z</time></trkpt><trkpt lat="45.2351669" lon="10.728252"><ele>31.0</ele><time>2026-05-02T06:45:36.143Z</time></trkpt><trkpt lat="45.2352599" lon="10.7282652"><ele>31.0</ele><time>2026-05-02T06:45:38.143Z</time></trkpt><trkpt lat="45.2353571" lon="10.7282825"><ele>31.0</ele><time>2026-05-02T06:45:40.143Z</time></trkpt><trkpt lat="45.2354474" lon="10.7282987"><ele>31.0</ele><time>2026-05-02T06:45:42.144Z</time></trkpt><trkpt lat="45.2355409" lon="10.7283141"><ele>31.0</ele><time>2026-05-02T06:45:44.143Z</time></trkpt><trkpt lat="45.235635" lon="10.7283289"><ele>31.0</ele><time>2026-05-02T06:45:46.144Z</time></trkpt><trkpt lat="45.2357326" lon="10.7283465"><ele>31.0</ele><time>2026-05-02T06:45:48.143Z</time></trkpt><trkpt lat="45.2358253" lon="10.7283541"><ele>31.0</ele><time>2026-05-02T06:45:50.142Z</time></trkpt><trkpt lat="45.2359184" lon="10.7283782"><ele>31.0</ele><time>2026-05-02T06:45:52.144Z</time></trkpt><trkpt lat="45.2360073" lon="10.7283916"><ele>30.6</ele><time>2026-05-02T06:45:54.142Z</time></trkpt><trkpt lat="45.236096" lon="10.7284018"><ele>30.200000000000003</ele><time>2026-05-02T06:45:56.144Z</time></trkpt><trkpt lat="45.2361871" lon="10.7284266"><ele>29.799999999999997</ele><time>2026-05-02T06:45:58.144Z</time></trkpt><trkpt lat="45.2362779" lon="10.7284448"><ele>29.4</ele><time>2026-05-02T06:46:00.144Z</time></trkpt><trkpt lat="45.2363735" lon="10.7284657"><ele>29.0</ele><time>2026-05-02T06:46:02.144Z</time></trkpt><trkpt lat="45.2364633" lon="10.7284778"><ele>28.999999999999996</ele><time>2026-05-02T06:46:04.143Z</time></trkpt><trkpt lat="45.2365607" lon="10.7284984"><ele>29.0</ele><time>2026-05-02T06:46:06.143Z</time></trkpt><trkpt lat="45.2366534" lon="10.7285236"><ele>29.0</ele><time>2026-05-02T06:46:08.142Z</time></trkpt><trkpt lat="45.2367372" lon="10.7285447"><ele>29.0</ele><time>2026-05-02T06:46:10.143Z</time></trkpt><trkpt lat="45.2368061" lon="10.7285498"><ele>28.999999999999996</ele><time>2026-05-02T06:46:12.144Z</time></trkpt><trkpt lat="45.2368696" lon="10.728559"><ele>29.0</ele><time>2026-05-02T06:46:14.143Z</time></trkpt><trkpt lat="45.2369401" lon="10.7285653"><ele>28.999999999999996</ele><time>2026-05-02T06:46:16.144Z</time></trkpt><trkpt lat="45.2370191" lon="10.7285745"><ele>29.0</ele><time>2026-05-02T06:46:18.144Z</time></trkpt><trkpt lat="45.2371034" lon="10.7285741"><ele>29.0</ele><time>2026-05-02T06:46:20.143Z</time></trkpt><trkpt lat="45.2371964" lon="10.72857"><ele>29.0</ele><time>2026-05-02T06:46:22.143Z</time></trkpt><trkpt lat="45.2372874" lon="10.7285789"><ele>28.999999999999996</ele><time>2026-05-02T06:46:24.143Z</time></trkpt><trkpt lat="45.2373823" lon="10.7285884"><ele>29.0</ele><time>2026-05-02T06:46:26.143Z</time></trkpt><trkpt lat="45.2374756" lon="10.7286125"><ele>29.0</ele><time>2026-05-02T06:46:28.143Z</time></trkpt><trkpt lat="45.2375784" lon="10.7286287"><ele>29.0</ele><time>2026-05-02T06:46:30.143Z</time></trkpt><trkpt lat="45.2376747" lon="10.7286394"><ele>29.0</ele><time>2026-05-02T06:46:32.143Z</time></trkpt><trkpt lat="45.2377686" lon="10.7286503"><ele>29.0</ele><time>2026-05-02T06:46:34.142Z</time></trkpt><trkpt lat="45.2378609" lon="10.7286715"><ele>29.0</ele><time>2026-05-02T06:46:36.142Z</time></trkpt><trkpt lat="45.2379504" lon="10.728682"><ele>29.0</ele><time>2026-05-02T06:46:38.143Z</time></trkpt><trkpt lat="45.2380383" lon="10.7287045"><ele>29.0</ele><time>2026-05-02T06:46:40.144Z</time></trkpt><trkpt lat="45.2381257" lon="10.7287226"><ele>29.0</ele><time>2026-05-02T06:46:42.143Z</time></trkpt><trkpt lat="45.238217" lon="10.7287247"><ele>29.0</ele><time>2026-05-02T06:46:44.143Z</time></trkpt><trkpt lat="45.2383114" lon="10.7287414"><ele>29.0</ele><time>2026-05-02T06:46:46.143Z</time></trkpt><trkpt lat="45.2384022" lon="10.7287596"><ele>29.333333333333332</ele><time>2026-05-02T06:46:48.144Z</time></trkpt><trkpt lat="45.2384879" lon="10.7287731"><ele>29.666666666666664</ele><time>2026-05-02T06:46:50.143Z</time></trkpt><trkpt lat="45.2385739" lon="10.728784"><ele>30.0</ele><time>2026-05-02T06:46:52.144Z</time></trkpt><trkpt lat="45.2386671" lon="10.7287882"><ele>30.333333333333336</ele><time>2026-05-02T06:46:54.143Z</time></trkpt><trkpt lat="45.2387533" lon="10.7288097"><ele>30.666666666666668</ele><time>2026-05-02T06:46:56.142Z</time></trkpt><trkpt lat="45.2388441" lon="10.7288317"><ele>31.0</ele><time>2026-05-02T06:46:58.143Z</time></trkpt><trkpt lat="45.2389443" lon="10.7288477"><ele>30.8</ele><time>2026-05-02T06:47:00.144Z</time></trkpt><trkpt lat="45.2390406" lon="10.7288575"><ele>30.6</ele><time>2026-05-02T06:47:02.142Z</time></trkpt><trkpt lat="45.2391352" lon="10.7288728"><ele>30.4</ele><time>2026-05-02T06:47:04.142Z</time></trkpt><trkpt lat="45.2392253" lon="10.7288929"><ele>30.2</ele><time>2026-05-02T06:47:06.141Z</time></trkpt><trkpt lat="45.239313" lon="10.7289045"><ele>30.0</ele><time>2026-05-02T06:47:08.143Z</time></trkpt><trkpt lat="45.2393964" lon="10.7289202"><ele>30.0</ele><time>2026-05-02T06:47:10.143Z</time></trkpt><trkpt lat="45.2394772" lon="10.7289307"><ele>30.0</ele><time>2026-05-02T06:47:12.142Z</time></trkpt><trkpt lat="45.2395594" lon="10.7289419"><ele>30.0</ele><time>2026-05-02T06:47:14.144Z</time></trkpt><trkpt lat="45.23964" lon="10.7289559"><ele>30.0</ele><time>2026-05-02T06:47:16.143Z</time></trkpt><trkpt lat="45.2397188" lon="10.7289682"><ele>30.0</ele><time>2026-05-02T06:47:18.143Z</time></trkpt><trkpt lat="45.2398" lon="10.7289791"><ele>30.0</ele><time>2026-05-02T06:47:20.144Z</time></trkpt><trkpt lat="45.2398847" lon="10.7289932"><ele>30.0</ele><time>2026-05-02T06:47:22.142Z</time></trkpt><trkpt lat="45.2399716" lon="10.7290048"><ele>30.0</ele><time>2026-05-02T06:47:24.143Z</time></trkpt><trkpt lat="45.2400621" lon="10.7290235"><ele>30.0</ele><time>2026-05-02T06:47:26.143Z</time></trkpt><trkpt lat="45.2401534" lon="10.7290348"><ele>30.0</ele><time>2026-05-02T06:47:28.144Z</time></trkpt><trkpt lat="45.2402429" lon="10.7290492"><ele>30.0</ele><time>2026-05-02T06:47:30.142Z</time></trkpt><trkpt lat="45.2403286" lon="10.7290556"><ele>30.0</ele><time>2026-05-02T06:47:32.144Z</time></trkpt><trkpt lat="45.2404176" lon="10.7290764"><ele>30.0</ele><time>2026-05-02T06:47:34.142Z</time></trkpt><trkpt lat="45.2405031" lon="10.7290904"><ele>30.0</ele><time>2026-05-02T06:47:36.144Z</time></trkpt><trkpt lat="45.2405852" lon="10.7291091"><ele>30.0</ele><time>2026-05-02T06:47:38.142Z</time></trkpt><trkpt lat="45.2406709" lon="10.7291217"><ele>30.0</ele><time>2026-05-02T06:47:40.143Z</time></trkpt><trkpt lat="45.240753" lon="10.7291323"><ele>30.0</ele><time>2026-05-02T06:47:42.143Z</time></trkpt><trkpt lat="45.2408281" lon="10.7291416"><ele>30.0</ele><time>2026-05-02T06:47:44.143Z</time></trkpt><trkpt lat="45.2409018" lon="10.7291582"><ele>29.833333333333332</ele><time>2026-05-02T06:47:46.144Z</time></trkpt><trkpt lat="45.2409812" lon="10.729175"><ele>29.666666666666664</ele><time>2026-05-02T06:47:48.142Z</time></trkpt><trkpt lat="45.2410683" lon="10.7291859"><ele>29.5</ele><time>2026-05-02T06:47:50.143Z</time></trkpt><trkpt lat="45.2411541" lon="10.7292051"><ele>29.333333333333332</ele><time>2026-05-02T06:47:52.144Z</time></trkpt><trkpt lat="45.2412421" lon="10.7292168"><ele>29.166666666666664</ele><time>2026-05-02T06:47:54.142Z</time></trkpt><trkpt lat="45.2413367" lon="10.7292302"><ele>29.0</ele><time>2026-05-02T06:47:56.141Z</time></trkpt><trkpt lat="45.2414262" lon="10.7292432"><ele>29.166666666666664</ele><time>2026-05-02T06:47:58.142Z</time></trkpt><trkpt lat="45.2415188" lon="10.7292563"><ele>29.333333333333332</ele><time>2026-05-02T06:48:00.142Z</time></trkpt><trkpt lat="45.2416114" lon="10.7292734"><ele>29.5</ele><time>2026-05-02T06:48:02.144Z</time></trkpt><trkpt lat="45.2416941" lon="10.7292834"><ele>29.666666666666664</ele><time>2026-05-02T06:48:04.144Z</time></trkpt><trkpt lat="45.2417728" lon="10.7293036"><ele>29.833333333333332</ele><time>2026-05-02T06:48:06.144Z</time></trkpt><trkpt lat="45.2418457" lon="10.7293241"><ele>30.0</ele><time>2026-05-02T06:48:08.144Z</time></trkpt><trkpt lat="45.2419136" lon="10.7293429"><ele>30.0</ele><time>2026-05-02T06:48:10.143Z</time></trkpt><trkpt lat="45.241981" lon="10.7293646"><ele>30.0</ele><time>2026-05-02T06:48:12.143Z</time></trkpt><trkpt lat="45.2420449" lon="10.7293769"><ele>30.0</ele><time>2026-05-02T06:48:14.142Z</time></trkpt><trkpt lat="45.2421362" lon="10.7294037"><ele>30.0</ele><time>2026-05-02T06:48:17.144Z</time></trkpt><trkpt lat="45.2422219" lon="10.729423"><ele>30.0</ele><time>2026-05-02T06:48:20.144Z</time></trkpt><trkpt lat="45.2423028" lon="10.7294374"><ele>30.0</ele><time>2026-05-02T06:48:23.143Z</time></trkpt><trkpt lat="45.2423815" lon="10.729451"><ele>30.166666666666668</ele><time>2026-05-02T06:48:26.144Z</time></trkpt><trkpt lat="45.2424647" lon="10.729464"><ele>30.333333333333336</ele><time>2026-05-02T06:48:29.143Z</time></trkpt><trkpt lat="45.2425297" lon="10.7294654"><ele>30.5</ele><time>2026-05-02T06:48:31.144Z</time></trkpt><trkpt lat="45.2425999" lon="10.7294661"><ele>30.666666666666668</ele><time>2026-05-02T06:48:33.143Z</time></trkpt><trkpt lat="45.2426751" lon="10.7294751"><ele>30.833333333333336</ele><time>2026-05-02T06:48:35.141Z</time></trkpt><trkpt lat="45.2427599" lon="10.7294771"><ele>31.0</ele><time>2026-05-02T06:48:37.143Z</time></trkpt><trkpt lat="45.2428505" lon="10.7294899"><ele>31.0</ele><time>2026-05-02T06:48:39.144Z</time></trkpt><trkpt lat="45.2429506" lon="10.7295042"><ele>31.0</ele><time>2026-05-02T06:48:41.143Z</time></trkpt><trkpt lat="45.2430548" lon="10.7295149"><ele>31.0</ele><time>2026-05-02T06:48:43.141Z</time></trkpt><trkpt lat="45.2431596" lon="10.7295207"><ele>31.0</ele><time>2026-05-02T06:48:45.143Z</time></trkpt><trkpt lat="45.2432618" lon="10.729542"><ele>31.0</ele><time>2026-05-02T06:48:47.144Z</time></trkpt><trkpt lat="45.2433583" lon="10.7295513"><ele>31.000000000000004</ele><time>2026-05-02T06:48:49.143Z</time></trkpt><trkpt lat="45.243457" lon="10.7295701"><ele>31.0</ele><time>2026-05-02T06:48:51.142Z</time></trkpt><trkpt lat="45.2435465" lon="10.7295779"><ele>31.0</ele><time>2026-05-02T06:48:53.142Z</time></trkpt><trkpt lat="45.2436325" lon="10.7295962"><ele>31.0</ele><time>2026-05-02T06:48:55.144Z</time></trkpt><trkpt lat="45.2437145" lon="10.7296235"><ele>31.000000000000004</ele><time>2026-05-02T06:48:57.142Z</time></trkpt><trkpt lat="45.243802" lon="10.7296377"><ele>31.0</ele><time>2026-05-02T06:48:59.143Z</time></trkpt><trkpt lat="45.2438896" lon="10.7296545"><ele>31.166666666666668</ele><time>2026-05-02T06:49:01.142Z</time></trkpt><trkpt lat="45.243974" lon="10.7296747"><ele>31.333333333333336</ele><time>2026-05-02T06:49:03.142Z</time></trkpt><trkpt lat="45.2440632" lon="10.7296905"><ele>31.5</ele><time>2026-05-02T06:49:05.143Z</time></trkpt><trkpt lat="45.244156" lon="10.7297057"><ele>31.666666666666664</ele><time>2026-05-02T06:49:07.144Z</time></trkpt><trkpt lat="45.2442438" lon="10.7297183"><ele>31.833333333333332</ele><time>2026-05-02T06:49:09.143Z</time></trkpt><trkpt lat="45.244333" lon="10.72974"><ele>32.0</ele><time>2026-05-02T06:49:11.143Z</time></trkpt><trkpt lat="45.2444261" lon="10.7297529"><ele>31.999999999999996</ele><time>2026-05-02T06:49:13.144Z</time></trkpt><trkpt lat="45.2445199" lon="10.7297597"><ele>32.0</ele><time>2026-05-02T06:49:15.143Z</time></trkpt><trkpt lat="45.2446093" lon="10.7297705"><ele>32.0</ele><time>2026-05-02T06:49:17.142Z</time></trkpt><trkpt lat="45.2446993" lon="10.7297861"><ele>32.0</ele><time>2026-05-02T06:49:19.142Z</time></trkpt><trkpt lat="45.2447883" lon="10.7297956"><ele>31.999999999999996</ele><time>2026-05-02T06:49:21.143Z</time></trkpt><trkpt lat="45.2448656" lon="10.7298153"><ele>32.0</ele><time>2026-05-02T06:49:23.144Z</time></trkpt><trkpt lat="45.2449464" lon="10.7298222"><ele>31.666666666666664</ele><time>2026-05-02T06:49:25.142Z</time></trkpt><trkpt lat="45.2450257" lon="10.7298323"><ele>31.333333333333332</ele><time>2026-05-02T06:49:27.143Z</time></trkpt><trkpt lat="45.2451111" lon="10.729851"><ele>31.0</ele><time>2026-05-02T06:49:29.142Z</time></trkpt><trkpt lat="45.2451982" lon="10.7298652"><ele>30.666666666666664</ele><time>2026-05-02T06:49:31.142Z</time></trkpt><trkpt lat="45.2452869" lon="10.7298792"><ele>30.333333333333332</ele><time>2026-05-02T06:49:33.143Z</time></trkpt><trkpt lat="45.2453782" lon="10.7298896"><ele>30.0</ele><time>2026-05-02T06:49:35.142Z</time></trkpt><trkpt lat="45.2454621" lon="10.7299082"><ele>30.0</ele><time>2026-05-02T06:49:37.142Z</time></trkpt><trkpt lat="45.2455385" lon="10.7299196"><ele>30.0</ele><time>2026-05-02T06:49:39.141Z</time></trkpt><trkpt lat="45.24562" lon="10.7299338"><ele>30.0</ele><time>2026-05-02T06:49:41.144Z</time></trkpt><trkpt lat="45.2456943" lon="10.7299512"><ele>30.0</ele><time>2026-05-02T06:49:43.143Z</time></trkpt><trkpt lat="45.2457641" lon="10.7299635"><ele>30.0</ele><time>2026-05-02T06:49:45.142Z</time></trkpt><trkpt lat="45.2458273" lon="10.7300227"><ele>30.0</ele><time>2026-05-02T06:49:48.144Z</time></trkpt><trkpt lat="45.2458322" lon="10.7301223"><ele>30.333333333333332</ele><time>2026-05-02T06:49:51.143Z</time></trkpt><trkpt lat="45.2458371" lon="10.7300292"><ele>30.666666666666664</ele><time>2026-05-02T06:57:23.14Z</time></trkpt><trkpt lat="45.2459101" lon="10.7299834"><ele>31.0</ele><time>2026-05-02T06:57:28.141Z</time></trkpt><trkpt lat="45.2459759" lon="10.729988"><ele>31.333333333333332</ele><time>2026-05-02T06:57:31.141Z</time></trkpt><trkpt lat="45.2460601" lon="10.7300023"><ele>31.666666666666664</ele><time>2026-05-02T06:57:34.142Z</time></trkpt><trkpt lat="45.246134" lon="10.73001"><ele>32.0</ele><time>2026-05-02T06:57:36.99Z</time></trkpt><trkpt lat="45.2462257" lon="10.7300267"><ele>31.999999999999996</ele><time>2026-05-02T06:57:39.142Z</time></trkpt><trkpt lat="45.2463018" lon="10.7300397"><ele>32.0</ele><time>2026-05-02T06:57:41.141Z</time></trkpt><trkpt lat="45.2463801" lon="10.730052"><ele>32.0</ele><time>2026-05-02T06:57:43.141Z</time></trkpt><trkpt lat="45.2464579" lon="10.7300634"><ele>32.0</ele><time>2026-05-02T06:57:45.142Z</time></trkpt><trkpt lat="45.2465314" lon="10.7300731"><ele>31.999999999999996</ele><time>2026-05-02T06:57:47.141Z</time></trkpt><trkpt lat="45.2466026" lon="10.7300851"><ele>32.0</ele><time>2026-05-02T06:57:49.141Z</time></trkpt><trkpt lat="45.2466761" lon="10.7300956"><ele>31.857142857142854</ele><time>2026-05-02T06:57:51.142Z</time></trkpt><trkpt lat="45.2467503" lon="10.7301048"><ele>31.71428571428571</ele><time>2026-05-02T06:57:53.142Z</time></trkpt><trkpt lat="45.2468251" lon="10.7301147"><ele>31.57142857142857</ele><time>2026-05-02T06:57:55.141Z</time></trkpt><trkpt lat="45.2469007" lon="10.7301262"><ele>31.42857142857143</ele><time>2026-05-02T06:57:57.141Z</time></trkpt><trkpt lat="45.2469734" lon="10.7301382"><ele>31.28571428571429</ele><time>2026-05-02T06:57:59.14Z</time></trkpt><trkpt lat="45.2470454" lon="10.7301483"><ele>31.142857142857146</ele><time>2026-05-02T06:58:01.142Z</time></trkpt><trkpt lat="45.2471157" lon="10.7301608"><ele>31.0</ele><time>2026-05-02T06:58:03.14Z</time></trkpt><trkpt lat="45.2471816" lon="10.7301708"><ele>31.000000000000004</ele><time>2026-05-02T06:58:05.141Z</time></trkpt><trkpt lat="45.2472511" lon="10.7301776"><ele>31.0</ele><time>2026-05-02T06:58:07.141Z</time></trkpt><trkpt lat="45.2473275" lon="10.7301819"><ele>31.0</ele><time>2026-05-02T06:58:09.14Z</time></trkpt><trkpt lat="45.2474046" lon="10.7301914"><ele>31.0</ele><time>2026-05-02T06:58:11.142Z</time></trkpt><trkpt lat="45.2474799" lon="10.7302163"><ele>31.000000000000004</ele><time>2026-05-02T06:58:13.141Z</time></trkpt><trkpt lat="45.2475545" lon="10.7302276"><ele>31.0</ele><time>2026-05-02T06:58:15.141Z</time></trkpt><trkpt lat="45.2476302" lon="10.7302363"><ele>31.333333333333336</ele><time>2026-05-02T06:58:17.141Z</time></trkpt><trkpt lat="45.2477051" lon="10.7302491"><ele>31.666666666666668</ele><time>2026-05-02T06:58:19.141Z</time></trkpt><trkpt lat="45.2477796" lon="10.7302621"><ele>32.0</ele><time>2026-05-02T06:58:21.141Z</time></trkpt><trkpt lat="45.2478537" lon="10.7302742"><ele>32.333333333333336</ele><time>2026-05-02T06:58:23.141Z</time></trkpt><trkpt lat="45.2479305" lon="10.730285"><ele>32.666666666666664</ele><time>2026-05-02T06:58:25.141Z</time></trkpt><trkpt lat="45.2480093" lon="10.730297"><ele>33.0</ele><time>2026-05-02T06:58:27.142Z</time></trkpt><trkpt lat="45.2480883" lon="10.7303107"><ele>32.666666666666664</ele><time>2026-05-02T06:58:29.141Z</time></trkpt><trkpt lat="45.248167" lon="10.7303216"><ele>32.333333333333336</ele><time>2026-05-02T06:58:31.141Z</time></trkpt><trkpt lat="45.2482451" lon="10.7303364"><ele>32.0</ele><time>2026-05-02T06:58:33.142Z</time></trkpt><trkpt lat="45.2483227" lon="10.7303483"><ele>31.666666666666668</ele><time>2026-05-02T06:58:35.142Z</time></trkpt><trkpt lat="45.2484001" lon="10.7303607"><ele>31.333333333333336</ele><time>2026-05-02T06:58:37.141Z</time></trkpt><trkpt lat="45.2484778" lon="10.7303721"><ele>31.0</ele><time>2026-05-02T06:58:39.142Z</time></trkpt><trkpt lat="45.2485569" lon="10.7303821"><ele>31.000000000000004</ele><time>2026-05-02T06:58:41.142Z</time></trkpt><trkpt lat="45.2486371" lon="10.7303926"><ele>31.0</ele><time>2026-05-02T06:58:43.142Z</time></trkpt><trkpt lat="45.2487168" lon="10.7304039"><ele>31.0</ele><time>2026-05-02T06:58:45.141Z</time></trkpt><trkpt lat="45.2487966" lon="10.7304166"><ele>31.0</ele><time>2026-05-02T06:58:47.139Z</time></trkpt><trkpt lat="45.2488764" lon="10.7304305"><ele>31.000000000000004</ele><time>2026-05-02T06:58:49.139Z</time></trkpt><trkpt lat="45.2489536" lon="10.7304458"><ele>31.0</ele><time>2026-05-02T06:58:51.14Z</time></trkpt><trkpt lat="45.2490288" lon="10.7304591"><ele>31.28571428571429</ele><time>2026-05-02T06:58:53.141Z</time></trkpt><trkpt lat="45.2491035" lon="10.7304776"><ele>31.571428571428577</ele><time>2026-05-02T06:58:55.14Z</time></trkpt><trkpt lat="45.2491732" lon="10.7304966"><ele>31.857142857142858</ele><time>2026-05-02T06:58:57.141Z</time></trkpt><trkpt lat="45.2492424" lon="10.7305153"><ele>32.142857142857146</ele><time>2026-05-02T06:58:59.14Z</time></trkpt><trkpt lat="45.249311" lon="10.7305348"><ele>32.42857142857143</ele><time>2026-05-02T06:59:01.14Z</time></trkpt><trkpt lat="45.2493778" lon="10.7305495"><ele>32.714285714285715</ele><time>2026-05-02T06:59:03.141Z</time></trkpt><trkpt lat="45.2494416" lon="10.7305662"><ele>33.0</ele><time>2026-05-02T06:59:05.141Z</time></trkpt><trkpt lat="45.2495281" lon="10.7305924"><ele>33.0</ele><time>2026-05-02T06:59:08.14Z</time></trkpt><trkpt lat="45.2496104" lon="10.7306159"><ele>33.0</ele><time>2026-05-02T06:59:11.141Z</time></trkpt><trkpt lat="45.2496889" lon="10.7306333"><ele>33.0</ele><time>2026-05-02T06:59:14.14Z</time></trkpt><trkpt lat="45.249764" lon="10.7306414"><ele>33.0</ele><time>2026-05-02T06:59:17.141Z</time></trkpt><trkpt lat="45.2498569" lon="10.7306348"><ele>33.0</ele><time>2026-05-02T06:59:20.139Z</time></trkpt><trkpt lat="45.2499287" lon="10.7306446"><ele>33.0</ele><time>2026-05-02T06:59:22.141Z</time></trkpt><trkpt lat="45.2500121" lon="10.7306527"><ele>33.0</ele><time>2026-05-02T06:59:24.141Z</time></trkpt><trkpt lat="45.250104" lon="10.7306608"><ele>33.0</ele><time>2026-05-02T06:59:26.141Z</time></trkpt><trkpt lat="45.2501993" lon="10.7306717"><ele>33.0</ele><time>2026-05-02T06:59:28.141Z</time></trkpt><trkpt lat="45.2503011" lon="10.7306793"><ele>33.0</ele><time>2026-05-02T06:59:30.14Z</time></trkpt><trkpt lat="45.2504074" lon="10.7306858"><ele>33.0</ele><time>2026-05-02T06:59:32.14Z</time></trkpt><trkpt lat="45.2505175" lon="10.7307031"><ele>33.0</ele><time>2026-05-02T06:59:34.141Z</time></trkpt><trkpt lat="45.2506247" lon="10.7307178"><ele>33.0</ele><time>2026-05-02T06:59:36.14Z</time></trkpt><trkpt lat="45.2507275" lon="10.7307329"><ele>33.0</ele><time>2026-05-02T06:59:38.141Z</time></trkpt><trkpt lat="45.250825" lon="10.7307484"><ele>33.0</ele><time>2026-05-02T06:59:40.14Z</time></trkpt><trkpt lat="45.2509236" lon="10.7307616"><ele>33.0</ele><time>2026-05-02T06:59:42.14Z</time></trkpt><trkpt lat="45.2510185" lon="10.7307804"><ele>33.0</ele><time>2026-05-02T06:59:44.141Z</time></trkpt><trkpt lat="45.2511138" lon="10.730795"><ele>33.0</ele><time>2026-05-02T06:59:46.14Z</time></trkpt><trkpt lat="45.2512141" lon="10.7308104"><ele>33.0</ele><time>2026-05-02T06:59:48.141Z</time></trkpt><trkpt lat="45.2513045" lon="10.7308498"><ele>33.0</ele><time>2026-05-02T06:59:50.139Z</time></trkpt><trkpt lat="45.2513958" lon="10.7308717"><ele>33.0</ele><time>2026-05-02T06:59:52.141Z</time></trkpt><trkpt lat="45.2514853" lon="10.7309016"><ele>33.0</ele><time>2026-05-02T06:59:54.14Z</time></trkpt><trkpt lat="45.2515736" lon="10.7309294"><ele>33.0</ele><time>2026-05-02T06:59:56.14Z</time></trkpt><trkpt lat="45.2516581" lon="10.7309641"><ele>33.0</ele><time>2026-05-02T06:59:58.14Z</time></trkpt><trkpt lat="45.2517404" lon="10.7309998"><ele>33.0</ele><time>2026-05-02T07:00:00.141Z</time></trkpt><trkpt lat="45.251822" lon="10.7310395"><ele>33.0</ele><time>2026-05-02T07:00:02.14Z</time></trkpt><trkpt lat="45.2519034" lon="10.7310807"><ele>33.0</ele><time>2026-05-02T07:00:04.139Z</time></trkpt><trkpt lat="45.2519845" lon="10.7311203"><ele>33.0</ele><time>2026-05-02T07:00:06.141Z</time></trkpt><trkpt lat="45.2520679" lon="10.731157"><ele>33.0</ele><time>2026-05-02T07:00:08.14Z</time></trkpt><trkpt lat="45.2521509" lon="10.7311953"><ele>33.0</ele><time>2026-05-02T07:00:10.139Z</time></trkpt><trkpt lat="45.2522298" lon="10.7312431"><ele>33.0</ele><time>2026-05-02T07:00:12.141Z</time></trkpt><trkpt lat="45.2523086" lon="10.7312932"><ele>33.0</ele><time>2026-05-02T07:00:14.14Z</time></trkpt><trkpt lat="45.2523904" lon="10.7313346"><ele>33.0</ele><time>2026-05-02T07:00:16.14Z</time></trkpt><trkpt lat="45.2524694" lon="10.7313832"><ele>33.0</ele><time>2026-05-02T07:00:18.14Z</time></trkpt><trkpt lat="45.2525463" lon="10.7314304"><ele>33.0</ele><time>2026-05-02T07:00:20.141Z</time></trkpt><trkpt lat="45.2526235" lon="10.7314733"><ele>33.0</ele><time>2026-05-02T07:00:22.14Z</time></trkpt><trkpt lat="45.2527022" lon="10.7315127"><ele>33.0</ele><time>2026-05-02T07:00:24.141Z</time></trkpt><trkpt lat="45.2527788" lon="10.7315535"><ele>33.0</ele><time>2026-05-02T07:00:26.14Z</time></trkpt><trkpt lat="45.2528528" lon="10.7315951"><ele>33.0</ele><time>2026-05-02T07:00:28.141Z</time></trkpt><trkpt lat="45.2529224" lon="10.7316357"><ele>33.0</ele><time>2026-05-02T07:00:30.141Z</time></trkpt><trkpt lat="45.2529878" lon="10.7316781"><ele>33.0</ele><time>2026-05-02T07:00:32.14Z</time></trkpt><trkpt lat="45.2530516" lon="10.7317252"><ele>33.0</ele><time>2026-05-02T07:00:34.141Z</time></trkpt><trkpt lat="45.2531161" lon="10.7317705"><ele>33.0</ele><time>2026-05-02T07:00:36.14Z</time></trkpt><trkpt lat="45.253184" lon="10.7318095"><ele>33.0</ele><time>2026-05-02T07:00:38.141Z</time></trkpt><trkpt lat="45.2532486" lon="10.7318461"><ele>33.0</ele><time>2026-05-02T07:00:40.141Z</time></trkpt><trkpt lat="45.2533121" lon="10.7318771"><ele>33.0</ele><time>2026-05-02T07:00:42.14Z</time></trkpt><trkpt lat="45.2533799" lon="10.7318926"><ele>33.333333333333336</ele><time>2026-05-02T07:00:44.14Z</time></trkpt><trkpt lat="45.2534454" lon="10.7319051"><ele>33.666666666666664</ele><time>2026-05-02T07:00:46.14Z</time></trkpt><trkpt lat="45.2535376" lon="10.7319099"><ele>34.0</ele><time>2026-05-02T07:00:49.14Z</time></trkpt><trkpt lat="45.2536273" lon="10.7319138"><ele>34.33333333333333</ele><time>2026-05-02T07:00:52.141Z</time></trkpt><trkpt lat="45.2537099" lon="10.7319173"><ele>34.666666666666664</ele><time>2026-05-02T07:00:55.141Z</time></trkpt><trkpt lat="45.253784" lon="10.7319304"><ele>35.0</ele><time>2026-05-02T07:00:58.14Z</time></trkpt><trkpt lat="45.253855" lon="10.731956"><ele>35.0</ele><time>2026-05-02T07:01:01.14Z</time></trkpt><trkpt lat="45.2539305" lon="10.7319895"><ele>35.0</ele><time>2026-05-02T07:01:04.14Z</time></trkpt><trkpt lat="45.2540152" lon="10.7320451"><ele>35.0</ele><time>2026-05-02T07:01:07.14Z</time></trkpt><trkpt lat="45.2540797" lon="10.732079"><ele>35.0</ele><time>2026-05-02T07:01:09.14Z</time></trkpt><trkpt lat="45.2541472" lon="10.7321148"><ele>35.0</ele><time>2026-05-02T07:01:11.14Z</time></trkpt><trkpt lat="45.2542155" lon="10.7321633"><ele>35.0</ele><time>2026-05-02T07:01:13.14Z</time></trkpt><trkpt lat="45.2542878" lon="10.7322101"><ele>35.0</ele><time>2026-05-02T07:01:15.141Z</time></trkpt><trkpt lat="45.2543558" lon="10.7322493"><ele>35.0</ele><time>2026-05-02T07:01:17.14Z</time></trkpt><trkpt lat="45.2544461" lon="10.7322873"><ele>35.0</ele><time>2026-05-02T07:01:20.139Z</time></trkpt><trkpt lat="45.2545421" lon="10.7322987"><ele>35.0</ele><time>2026-05-02T07:01:23.14Z</time></trkpt><trkpt lat="45.2546104" lon="10.7323097"><ele>35.0</ele><time>2026-05-02T07:01:25.141Z</time></trkpt><trkpt lat="45.2546761" lon="10.7323413"><ele>35.0</ele><time>2026-05-02T07:01:28.141Z</time></trkpt><trkpt lat="45.2547415" lon="10.7324093"><ele>35.0</ele><time>2026-05-02T07:01:31.14Z</time></trkpt><trkpt lat="45.2547824" lon="10.732502"><ele>35.0</ele><time>2026-05-02T07:01:34.141Z</time></trkpt><trkpt lat="45.2547857" lon="10.7326115"><ele>35.0</ele><time>2026-05-02T07:01:37.14Z</time></trkpt><trkpt lat="45.2547832" lon="10.7327185"><ele>35.0</ele><time>2026-05-02T07:01:40.14Z</time></trkpt><trkpt lat="45.2548138" lon="10.7328218"><ele>35.0</ele><time>2026-05-02T07:01:44.139Z</time></trkpt><trkpt lat="45.2548782" lon="10.7328438"><ele>35.0</ele><time>2026-05-02T07:01:47.14Z</time></trkpt><trkpt lat="45.2549462" lon="10.7328439"><ele>35.0</ele><time>2026-05-02T07:01:50.14Z</time></trkpt><trkpt lat="45.2550117" lon="10.7328394"><ele>35.33333333333333</ele><time>2026-05-02T07:01:53.14Z</time></trkpt><trkpt lat="45.2550879" lon="10.7328229"><ele>35.666666666666664</ele><time>2026-05-02T07:01:56.14Z</time></trkpt><trkpt lat="45.2551751" lon="10.7328141"><ele>36.0</ele><time>2026-05-02T07:01:59.139Z</time></trkpt><trkpt lat="45.2552687" lon="10.7328066"><ele>36.333333333333336</ele><time>2026-05-02T07:02:02.14Z</time></trkpt><trkpt lat="45.2553592" lon="10.732797"><ele>36.66666666666667</ele><time>2026-05-02T07:02:05.141Z</time></trkpt><trkpt lat="45.2554502" lon="10.7327884"><ele>37.0</ele><time>2026-05-02T07:02:08.141Z</time></trkpt><trkpt lat="45.2555384" lon="10.7327932"><ele>37.333333333333336</ele><time>2026-05-02T07:02:11.139Z</time></trkpt><trkpt lat="45.2556204" lon="10.7328202"><ele>37.66666666666667</ele><time>2026-05-02T07:02:14.141Z</time></trkpt><trkpt lat="45.2556928" lon="10.7328656"><ele>38.0</ele><time>2026-05-02T07:02:17.14Z</time></trkpt><trkpt lat="45.2557707" lon="10.7329047"><ele>38.333333333333336</ele><time>2026-05-02T07:02:20.14Z</time></trkpt><trkpt lat="45.2558545" lon="10.7329503"><ele>38.666666666666664</ele><time>2026-05-02T07:02:23.14Z</time></trkpt><trkpt lat="45.2559138" lon="10.7329804"><ele>39.0</ele><time>2026-05-02T07:02:25.139Z</time></trkpt><trkpt lat="45.2559738" lon="10.7330139"><ele>39.0</ele><time>2026-05-02T07:02:27.141Z</time></trkpt><trkpt lat="45.2560355" lon="10.7330486"><ele>39.0</ele><time>2026-05-02T07:02:29.141Z</time></trkpt><trkpt lat="45.2560966" lon="10.7330876"><ele>39.0</ele><time>2026-05-02T07:02:31.141Z</time></trkpt><trkpt lat="45.2561557" lon="10.7331264"><ele>39.0</ele><time>2026-05-02T07:02:33.141Z</time></trkpt><trkpt lat="45.2562159" lon="10.7331599"><ele>39.0</ele><time>2026-05-02T07:02:35.14Z</time></trkpt><trkpt lat="45.25628" lon="10.7331888"><ele>39.0</ele><time>2026-05-02T07:02:37.139Z</time></trkpt><trkpt lat="45.2563452" lon="10.7332152"><ele>39.0</ele><time>2026-05-02T07:02:39.139Z</time></trkpt><trkpt lat="45.2564128" lon="10.733234"><ele>39.142857142857146</ele><time>2026-05-02T07:02:41.14Z</time></trkpt><trkpt lat="45.2564828" lon="10.7332507"><ele>39.285714285714285</ele><time>2026-05-02T07:02:43.141Z</time></trkpt><trkpt lat="45.2565525" lon="10.7332682"><ele>39.42857142857143</ele><time>2026-05-02T07:02:45.141Z</time></trkpt><trkpt lat="45.2566217" lon="10.7332809"><ele>39.57142857142857</ele><time>2026-05-02T07:02:47.141Z</time></trkpt><trkpt lat="45.2566899" lon="10.7332828"><ele>39.714285714285715</ele><time>2026-05-02T07:02:49.14Z</time></trkpt><trkpt lat="45.2567593" lon="10.7332881"><ele>39.857142857142854</ele><time>2026-05-02T07:02:51.14Z</time></trkpt><trkpt lat="45.2568328" lon="10.7332886"><ele>40.0</ele><time>2026-05-02T07:02:53.141Z</time></trkpt><trkpt lat="45.2569086" lon="10.7332896"><ele>40.0</ele><time>2026-05-02T07:02:55.14Z</time></trkpt><trkpt lat="45.256984" lon="10.7332766"><ele>40.0</ele><time>2026-05-02T07:02:57.14Z</time></trkpt><trkpt lat="45.2570599" lon="10.7332671"><ele>40.0</ele><time>2026-05-02T07:02:59.14Z</time></trkpt><trkpt lat="45.257137" lon="10.7332542"><ele>40.0</ele><time>2026-05-02T07:03:01.141Z</time></trkpt><trkpt lat="45.2572142" lon="10.7332336"><ele>40.0</ele><time>2026-05-02T07:03:03.14Z</time></trkpt><trkpt lat="45.2572917" lon="10.7332164"><ele>40.0</ele><time>2026-05-02T07:03:05.141Z</time></trkpt><trkpt lat="45.257369" lon="10.7331917"><ele>40.0</ele><time>2026-05-02T07:03:07.141Z</time></trkpt><trkpt lat="45.2574473" lon="10.7331682"><ele>40.0</ele><time>2026-05-02T07:03:09.141Z</time></trkpt><trkpt lat="45.2575245" lon="10.7331385"><ele>40.0</ele><time>2026-05-02T07:03:11.14Z</time></trkpt><trkpt lat="45.2575995" lon="10.7331171"><ele>40.0</ele><time>2026-05-02T07:03:13.141Z</time></trkpt><trkpt lat="45.2576661" lon="10.7330818"><ele>40.0</ele><time>2026-05-02T07:03:15.141Z</time></trkpt><trkpt lat="45.2577242" lon="10.7330434"><ele>40.0</ele><time>2026-05-02T07:03:17.141Z</time></trkpt><trkpt lat="45.2577994" lon="10.7329898"><ele>40.0</ele><time>2026-05-02T07:03:20.14Z</time></trkpt><trkpt lat="45.2578574" lon="10.7329429"><ele>40.0</ele><time>2026-05-02T07:03:23.141Z</time></trkpt><trkpt lat="45.2579116" lon="10.7328844"><ele>40.0</ele><time>2026-05-02T07:04:13.14Z</time></trkpt><trkpt lat="45.257955" lon="10.7328141"><ele>40.0</ele><time>2026-05-02T07:04:19.14Z</time></trkpt><trkpt lat="45.2579935" lon="10.732738"><ele>40.0</ele><time>2026-05-02T07:04:25.14Z</time></trkpt><trkpt lat="45.2580576" lon="10.7327004"><ele>40.0</ele><time>2026-05-02T07:05:08.139Z</time></trkpt><trkpt lat="45.258126" lon="10.7326949"><ele>40.0</ele><time>2026-05-02T07:05:11.14Z</time></trkpt><trkpt lat="45.2581914" lon="10.7326"><ele>40.14285714285714</ele><time>2026-05-02T07:05:14.139Z</time></trkpt><trkpt lat="45.258238" lon="10.7325355"><ele>40.285714285714285</ele><time>2026-05-02T07:05:16.14Z</time></trkpt><trkpt lat="45.2582938" lon="10.7324271"><ele>40.42857142857143</ele><time>2026-05-02T07:05:19.14Z</time></trkpt><trkpt lat="45.258332" lon="10.7323521"><ele>40.57142857142857</ele><time>2026-05-02T07:05:21.139Z</time></trkpt><trkpt lat="45.2583729" lon="10.7322733"><ele>40.714285714285715</ele><time>2026-05-02T07:05:23.14Z</time></trkpt><trkpt lat="45.2584131" lon="10.732186"><ele>40.857142857142854</ele><time>2026-05-02T07:05:25.14Z</time></trkpt><trkpt lat="45.2584559" lon="10.7320991"><ele>41.0</ele><time>2026-05-02T07:05:27.14Z</time></trkpt><trkpt lat="45.2584927" lon="10.732012"><ele>41.0</ele><time>2026-05-02T07:05:29.14Z</time></trkpt><trkpt lat="45.2585302" lon="10.7319253"><ele>41.0</ele><time>2026-05-02T07:05:31.14Z</time></trkpt><trkpt lat="45.2585614" lon="10.7318399"><ele>41.0</ele><time>2026-05-02T07:05:33.14Z</time></trkpt><trkpt lat="45.2585949" lon="10.7317595"><ele>41.0</ele><time>2026-05-02T07:05:35.139Z</time></trkpt><trkpt lat="45.2586411" lon="10.7316456"><ele>41.0</ele><time>2026-05-02T07:05:38.139Z</time></trkpt><trkpt lat="45.2586785" lon="10.7315521"><ele>41.0</ele><time>2026-05-02T07:05:41.139Z</time></trkpt><trkpt lat="45.2587224" lon="10.7314515"><ele>40.99999999999999</ele><time>2026-05-02T07:05:44.139Z</time></trkpt><trkpt lat="45.2587691" lon="10.7313345"><ele>41.0</ele><time>2026-05-02T07:05:47.14Z</time></trkpt><trkpt lat="45.2588025" lon="10.7312583"><ele>41.0</ele><time>2026-05-02T07:05:49.138Z</time></trkpt><trkpt lat="45.2588282" lon="10.7311764"><ele>41.0</ele><time>2026-05-02T07:05:51.139Z</time></trkpt><trkpt lat="45.2588631" lon="10.731091"><ele>41.0</ele><time>2026-05-02T07:05:53.138Z</time></trkpt><trkpt lat="45.2589068" lon="10.7310048"><ele>40.99999999999999</ele><time>2026-05-02T07:05:55.139Z</time></trkpt><trkpt lat="45.2589478" lon="10.7309148"><ele>41.0</ele><time>2026-05-02T07:05:57.139Z</time></trkpt><trkpt lat="45.258992" lon="10.7308246"><ele>41.166666666666664</ele><time>2026-05-02T07:05:59.139Z</time></trkpt><trkpt lat="45.259043" lon="10.7307316"><ele>41.33333333333333</ele><time>2026-05-02T07:06:01.138Z</time></trkpt><trkpt lat="45.2590993" lon="10.7306439"><ele>41.5</ele><time>2026-05-02T07:06:03.139Z</time></trkpt><trkpt lat="45.2591615" lon="10.7305655"><ele>41.666666666666664</ele><time>2026-05-02T07:06:05.14Z</time></trkpt><trkpt lat="45.2592282" lon="10.7304969"><ele>41.833333333333336</ele><time>2026-05-02T07:06:07.14Z</time></trkpt><trkpt lat="45.2593016" lon="10.7304428"><ele>42.0</ele><time>2026-05-02T07:06:09.139Z</time></trkpt><trkpt lat="45.2593793" lon="10.7304003"><ele>42.0</ele><time>2026-05-02T07:06:11.14Z</time></trkpt><trkpt lat="45.2594573" lon="10.730362"><ele>42.0</ele><time>2026-05-02T07:06:13.139Z</time></trkpt><trkpt lat="45.259539" lon="10.7303425"><ele>42.0</ele><time>2026-05-02T07:06:15.139Z</time></trkpt><trkpt lat="45.2596216" lon="10.7303219"><ele>42.0</ele><time>2026-05-02T07:06:17.14Z</time></trkpt><trkpt lat="45.2596998" lon="10.7303051"><ele>42.0</ele><time>2026-05-02T07:06:19.139Z</time></trkpt><trkpt lat="45.259779" lon="10.7302876"><ele>42.0</ele><time>2026-05-02T07:06:21.14Z</time></trkpt><trkpt lat="45.2598614" lon="10.7302773"><ele>42.0</ele><time>2026-05-02T07:06:23.14Z</time></trkpt><trkpt lat="45.2599442" lon="10.7302557"><ele>42.0</ele><time>2026-05-02T07:06:25.14Z</time></trkpt><trkpt lat="45.2600241" lon="10.7302374"><ele>42.0</ele><time>2026-05-02T07:06:27.14Z</time></trkpt><trkpt lat="45.2601014" lon="10.7302151"><ele>42.0</ele><time>2026-05-02T07:06:29.139Z</time></trkpt><trkpt lat="45.2601822" lon="10.7301992"><ele>42.0</ele><time>2026-05-02T07:06:31.138Z</time></trkpt><trkpt lat="45.2602638" lon="10.7301764"><ele>42.0</ele><time>2026-05-02T07:06:33.14Z</time></trkpt><trkpt lat="45.2603457" lon="10.7301609"><ele>41.666666666666664</ele><time>2026-05-02T07:06:35.14Z</time></trkpt><trkpt lat="45.2604266" lon="10.7301452"><ele>41.333333333333336</ele><time>2026-05-02T07:06:37.139Z</time></trkpt><trkpt lat="45.2605087" lon="10.7301259"><ele>41.0</ele><time>2026-05-02T07:06:39.139Z</time></trkpt><trkpt lat="45.2605914" lon="10.7301125"><ele>40.66666666666667</ele><time>2026-05-02T07:06:41.14Z</time></trkpt><trkpt lat="45.2606728" lon="10.7300934"><ele>40.333333333333336</ele><time>2026-05-02T07:06:43.139Z</time></trkpt><trkpt lat="45.2607527" lon="10.7300754"><ele>40.0</ele><time>2026-05-02T07:06:45.14Z</time></trkpt><trkpt lat="45.2608322" lon="10.7300578"><ele>40.0</ele><time>2026-05-02T07:06:47.14Z</time></trkpt><trkpt lat="45.2609132" lon="10.7300373"><ele>40.0</ele><time>2026-05-02T07:06:49.139Z</time></trkpt><trkpt lat="45.2609976" lon="10.7300208"><ele>40.0</ele><time>2026-05-02T07:06:51.139Z</time></trkpt><trkpt lat="45.2610832" lon="10.7300039"><ele>40.0</ele><time>2026-05-02T07:06:53.139Z</time></trkpt><trkpt lat="45.2611677" lon="10.7299859"><ele>40.0</ele><time>2026-05-02T07:06:55.139Z</time></trkpt><trkpt lat="45.2612539" lon="10.7299649"><ele>40.0</ele><time>2026-05-02T07:06:57.139Z</time></trkpt><trkpt lat="45.2613405" lon="10.7299459"><ele>40.0</ele><time>2026-05-02T07:06:59.139Z</time></trkpt><trkpt lat="45.2614251" lon="10.7299242"><ele>40.0</ele><time>2026-05-02T07:07:01.14Z</time></trkpt><trkpt lat="45.2615088" lon="10.7299026"><ele>40.0</ele><time>2026-05-02T07:07:03.14Z</time></trkpt><trkpt lat="45.2615962" lon="10.7298842"><ele>40.0</ele><time>2026-05-02T07:07:05.14Z</time></trkpt><trkpt lat="45.2616876" lon="10.7298625"><ele>40.0</ele><time>2026-05-02T07:07:07.14Z</time></trkpt><trkpt lat="45.2617769" lon="10.7298372"><ele>40.0</ele><time>2026-05-02T07:07:09.14Z</time></trkpt><trkpt lat="45.2618676" lon="10.7298169"><ele>40.0</ele><time>2026-05-02T07:07:11.139Z</time></trkpt><trkpt lat="45.2619559" lon="10.7297978"><ele>40.0</ele><time>2026-05-02T07:07:13.14Z</time></trkpt><trkpt lat="45.2620486" lon="10.7297761"><ele>40.0</ele><time>2026-05-02T07:07:15.139Z</time></trkpt><trkpt lat="45.2621416" lon="10.7297558"><ele>40.0</ele><time>2026-05-02T07:07:17.14Z</time></trkpt><trkpt lat="45.2622337" lon="10.7297379"><ele>40.0</ele><time>2026-05-02T07:07:19.14Z</time></trkpt><trkpt lat="45.2623264" lon="10.7297115"><ele>40.0</ele><time>2026-05-02T07:07:21.14Z</time></trkpt><trkpt lat="45.2624201" lon="10.7296944"><ele>40.0</ele><time>2026-05-02T07:07:23.14Z</time></trkpt><trkpt lat="45.2625118" lon="10.7296721"><ele>40.0</ele><time>2026-05-02T07:07:25.139Z</time></trkpt><trkpt lat="45.2626031" lon="10.7296518"><ele>40.0</ele><time>2026-05-02T07:07:27.14Z</time></trkpt><trkpt lat="45.2626922" lon="10.7296361"><ele>40.0</ele><time>2026-05-02T07:07:29.139Z</time></trkpt><trkpt lat="45.2627816" lon="10.7296148"><ele>40.0</ele><time>2026-05-02T07:07:31.138Z</time></trkpt><trkpt lat="45.2628713" lon="10.7295943"><ele>40.0</ele><time>2026-05-02T07:07:33.14Z</time></trkpt><trkpt lat="45.2629591" lon="10.729573"><ele>40.0</ele><time>2026-05-02T07:07:35.14Z</time></trkpt><trkpt lat="45.26305" lon="10.7295537"><ele>40.0</ele><time>2026-05-02T07:07:37.14Z</time></trkpt><trkpt lat="45.2631386" lon="10.7295331"><ele>40.0</ele><time>2026-05-02T07:07:39.14Z</time></trkpt><trkpt lat="45.26323" lon="10.7295149"><ele>40.2</ele><time>2026-05-02T07:07:41.139Z</time></trkpt><trkpt lat="45.2633237" lon="10.7294952"><ele>40.4</ele><time>2026-05-02T07:07:43.139Z</time></trkpt><trkpt lat="45.2634132" lon="10.7294719"><ele>40.599999999999994</ele><time>2026-05-02T07:07:45.139Z</time></trkpt><trkpt lat="45.2635037" lon="10.7294525"><ele>40.8</ele><time>2026-05-02T07:07:47.14Z</time></trkpt><trkpt lat="45.2635981" lon="10.7294339"><ele>41.0</ele><time>2026-05-02T07:07:49.139Z</time></trkpt><trkpt lat="45.2636873" lon="10.7294102"><ele>41.0</ele><time>2026-05-02T07:07:51.139Z</time></trkpt><trkpt lat="45.2637748" lon="10.7293925"><ele>41.0</ele><time>2026-05-02T07:07:53.14Z</time></trkpt><trkpt lat="45.2638673" lon="10.7293736"><ele>41.0</ele><time>2026-05-02T07:07:55.14Z</time></trkpt><trkpt lat="45.2639586" lon="10.7293489"><ele>41.0</ele><time>2026-05-02T07:07:57.14Z</time></trkpt><trkpt lat="45.2640445" lon="10.7293301"><ele>41.0</ele><time>2026-05-02T07:07:59.139Z</time></trkpt><trkpt lat="45.2641325" lon="10.7293125"><ele>41.599999999999994</ele><time>2026-05-02T07:08:01.139Z</time></trkpt><trkpt lat="45.264219" lon="10.7292937"><ele>42.2</ele><time>2026-05-02T07:08:03.14Z</time></trkpt><trkpt lat="45.2643116" lon="10.7292737"><ele>42.8</ele><time>2026-05-02T07:08:05.14Z</time></trkpt><trkpt lat="45.2644002" lon="10.7292513"><ele>43.400000000000006</ele><time>2026-05-02T07:08:07.139Z</time></trkpt><trkpt lat="45.2644919" lon="10.7292293"><ele>44.0</ele><time>2026-05-02T07:08:09.14Z</time></trkpt><trkpt lat="45.264583" lon="10.7292087"><ele>44.0</ele><time>2026-05-02T07:08:11.14Z</time></trkpt><trkpt lat="45.2646781" lon="10.729183"><ele>44.0</ele><time>2026-05-02T07:08:13.14Z</time></trkpt><trkpt lat="45.2647669" lon="10.7291672"><ele>44.0</ele><time>2026-05-02T07:08:15.14Z</time></trkpt><trkpt lat="45.2648556" lon="10.7291465"><ele>44.0</ele><time>2026-05-02T07:08:17.14Z</time></trkpt><trkpt lat="45.2649438" lon="10.7291276"><ele>44.0</ele><time>2026-05-02T07:08:19.139Z</time></trkpt><trkpt lat="45.2650308" lon="10.7291099"><ele>44.0</ele><time>2026-05-02T07:08:21.139Z</time></trkpt><trkpt lat="45.2651177" lon="10.7290893"><ele>44.0</ele><time>2026-05-02T07:08:23.14Z</time></trkpt><trkpt lat="45.2652057" lon="10.7290692"><ele>44.0</ele><time>2026-05-02T07:08:25.139Z</time></trkpt><trkpt lat="45.2652967" lon="10.729044"><ele>44.0</ele><time>2026-05-02T07:08:27.139Z</time></trkpt><trkpt lat="45.2653855" lon="10.7290218"><ele>44.0</ele><time>2026-05-02T07:08:29.139Z</time></trkpt><trkpt lat="45.2654762" lon="10.7290052"><ele>44.0</ele><time>2026-05-02T07:08:31.139Z</time></trkpt><trkpt lat="45.265569" lon="10.7289843"><ele>44.0</ele><time>2026-05-02T07:08:33.14Z</time></trkpt><trkpt lat="45.2656584" lon="10.7289659"><ele>44.0</ele><time>2026-05-02T07:08:35.139Z</time></trkpt><trkpt lat="45.2657501" lon="10.7289458"><ele>44.0</ele><time>2026-05-02T07:08:37.139Z</time></trkpt><trkpt lat="45.265841" lon="10.7289268"><ele>44.0</ele><time>2026-05-02T07:08:39.14Z</time></trkpt><trkpt lat="45.2659295" lon="10.7289039"><ele>43.400000000000006</ele><time>2026-05-02T07:08:41.14Z</time></trkpt><trkpt lat="45.2660197" lon="10.7288898"><ele>42.8</ele><time>2026-05-02T07:08:43.139Z</time></trkpt><trkpt lat="45.2661103" lon="10.7288711"><ele>42.2</ele><time>2026-05-02T07:08:45.138Z</time></trkpt><trkpt lat="45.2662027" lon="10.7288422"><ele>41.599999999999994</ele><time>2026-05-02T07:08:47.139Z</time></trkpt><trkpt lat="45.2662898" lon="10.7288231"><ele>41.0</ele><time>2026-05-02T07:08:49.139Z</time></trkpt><trkpt lat="45.2663798" lon="10.7288009"><ele>40.599999999999994</ele><time>2026-05-02T07:08:51.138Z</time></trkpt><trkpt lat="45.2664702" lon="10.728778"><ele>40.199999999999996</ele><time>2026-05-02T07:08:53.139Z</time></trkpt><trkpt lat="45.2665575" lon="10.7287608"><ele>39.8</ele><time>2026-05-02T07:08:55.139Z</time></trkpt><trkpt lat="45.2666493" lon="10.7287437"><ele>39.4</ele><time>2026-05-02T07:08:57.138Z</time></trkpt><trkpt lat="45.2667431" lon="10.7287213"><ele>39.0</ele><time>2026-05-02T07:08:59.139Z</time></trkpt><trkpt lat="45.266837" lon="10.7287"><ele>39.0</ele><time>2026-05-02T07:09:01.139Z</time></trkpt><trkpt lat="45.2669297" lon="10.7286777"><ele>39.0</ele><time>2026-05-02T07:09:03.138Z</time></trkpt><trkpt lat="45.26702" lon="10.7286587"><ele>39.0</ele><time>2026-05-02T07:09:05.139Z</time></trkpt><trkpt lat="45.2671135" lon="10.7286451"><ele>39.0</ele><time>2026-05-02T07:09:07.138Z</time></trkpt><trkpt lat="45.2672036" lon="10.7286334"><ele>39.0</ele><time>2026-05-02T07:09:09.139Z</time></trkpt><trkpt lat="45.2672857" lon="10.728629"><ele>39.166666666666664</ele><time>2026-05-02T07:09:11.138Z</time></trkpt><trkpt lat="45.2673607" lon="10.7286177"><ele>39.333333333333336</ele><time>2026-05-02T07:09:13.138Z</time></trkpt><trkpt lat="45.2674352" lon="10.7286098"><ele>39.5</ele><time>2026-05-02T07:09:15.138Z</time></trkpt><trkpt lat="45.2675018" lon="10.7285975"><ele>39.66666666666667</ele><time>2026-05-02T07:09:17.139Z</time></trkpt><trkpt lat="45.2675873" lon="10.7285833"><ele>39.833333333333336</ele><time>2026-05-02T07:09:20.138Z</time></trkpt><trkpt lat="45.2676763" lon="10.7285549"><ele>40.0</ele><time>2026-05-02T07:09:23.139Z</time></trkpt><trkpt lat="45.2677551" lon="10.7285302"><ele>40.0</ele><time>2026-05-02T07:09:25.139Z</time></trkpt><trkpt lat="45.2678492" lon="10.7284954"><ele>40.0</ele><time>2026-05-02T07:09:27.138Z</time></trkpt><trkpt lat="45.2679478" lon="10.7284594"><ele>40.0</ele><time>2026-05-02T07:09:29.137Z</time></trkpt><trkpt lat="45.2680525" lon="10.7284194"><ele>40.0</ele><time>2026-05-02T07:09:31.138Z</time></trkpt><trkpt lat="45.2681585" lon="10.7283949"><ele>40.0</ele><time>2026-05-02T07:09:33.138Z</time></trkpt><trkpt lat="45.2682534" lon="10.7283695"><ele>40.0</ele><time>2026-05-02T07:09:35.138Z</time></trkpt><trkpt lat="45.2683453" lon="10.7283497"><ele>40.0</ele><time>2026-05-02T07:09:37.138Z</time></trkpt><trkpt lat="45.2684342" lon="10.7283314"><ele>40.0</ele><time>2026-05-02T07:09:39.139Z</time></trkpt><trkpt lat="45.2685113" lon="10.7283181"><ele>40.0</ele><time>2026-05-02T07:09:41.138Z</time></trkpt><trkpt lat="45.2685851" lon="10.7282991"><ele>40.0</ele><time>2026-05-02T07:09:43.138Z</time></trkpt><trkpt lat="45.2686578" lon="10.7282897"><ele>40.0</ele><time>2026-05-02T07:09:45.138Z</time></trkpt><trkpt lat="45.268738" lon="10.7282774"><ele>40.0</ele><time>2026-05-02T07:09:47.139Z</time></trkpt><trkpt lat="45.2688238" lon="10.7282602"><ele>40.0</ele><time>2026-05-02T07:09:49.138Z</time></trkpt><trkpt lat="45.2689112" lon="10.7282384"><ele>40.0</ele><time>2026-05-02T07:09:51.138Z</time></trkpt><trkpt lat="45.2690014" lon="10.7282223"><ele>40.0</ele><time>2026-05-02T07:09:53.138Z</time></trkpt><trkpt lat="45.2690936" lon="10.7282022"><ele>40.0</ele><time>2026-05-02T07:09:55.138Z</time></trkpt><trkpt lat="45.2691855" lon="10.7281826"><ele>40.16666666666667</ele><time>2026-05-02T07:09:57.139Z</time></trkpt><trkpt lat="45.2692737" lon="10.7281699"><ele>40.333333333333336</ele><time>2026-05-02T07:09:59.138Z</time></trkpt><trkpt lat="45.2693615" lon="10.7281592"><ele>40.5</ele><time>2026-05-02T07:10:01.138Z</time></trkpt><trkpt lat="45.2694486" lon="10.7281467"><ele>40.666666666666664</ele><time>2026-05-02T07:10:03.138Z</time></trkpt><trkpt lat="45.2695364" lon="10.7281386"><ele>40.83333333333333</ele><time>2026-05-02T07:10:05.138Z</time></trkpt><trkpt lat="45.2696247" lon="10.7281302"><ele>41.0</ele><time>2026-05-02T07:10:07.139Z</time></trkpt><trkpt lat="45.2697167" lon="10.7281233"><ele>41.599999999999994</ele><time>2026-05-02T07:10:09.139Z</time></trkpt><trkpt lat="45.2698071" lon="10.7281215"><ele>42.2</ele><time>2026-05-02T07:10:11.138Z</time></trkpt><trkpt lat="45.2698977" lon="10.7281123"><ele>42.8</ele><time>2026-05-02T07:10:13.138Z</time></trkpt><trkpt lat="45.2699906" lon="10.7281113"><ele>43.400000000000006</ele><time>2026-05-02T07:10:15.139Z</time></trkpt><trkpt lat="45.2700822" lon="10.7281118"><ele>44.0</ele><time>2026-05-02T07:10:17.138Z</time></trkpt><trkpt lat="45.2701743" lon="10.7281183"><ele>44.0</ele><time>2026-05-02T07:10:19.138Z</time></trkpt><trkpt lat="45.2702639" lon="10.7281282"><ele>44.0</ele><time>2026-05-02T07:10:21.138Z</time></trkpt><trkpt lat="45.2703543" lon="10.7281344"><ele>44.0</ele><time>2026-05-02T07:10:23.138Z</time></trkpt><trkpt lat="45.2704443" lon="10.7281442"><ele>44.0</ele><time>2026-05-02T07:10:25.139Z</time></trkpt><trkpt lat="45.2705329" lon="10.7281511"><ele>44.0</ele><time>2026-05-02T07:10:27.139Z</time></trkpt><trkpt lat="45.2706197" lon="10.7281617"><ele>44.0</ele><time>2026-05-02T07:10:29.138Z</time></trkpt><trkpt lat="45.270707" lon="10.7281722"><ele>44.33333333333333</ele><time>2026-05-02T07:10:31.139Z</time></trkpt><trkpt lat="45.2707972" lon="10.7281889"><ele>44.666666666666664</ele><time>2026-05-02T07:10:33.138Z</time></trkpt><trkpt lat="45.2708861" lon="10.7282007"><ele>45.0</ele><time>2026-05-02T07:10:35.139Z</time></trkpt><trkpt lat="45.2709729" lon="10.7282159"><ele>45.333333333333336</ele><time>2026-05-02T07:10:37.139Z</time></trkpt><trkpt lat="45.2710622" lon="10.7282354"><ele>45.66666666666667</ele><time>2026-05-02T07:10:39.139Z</time></trkpt><trkpt lat="45.2711516" lon="10.728255"><ele>46.0</ele><time>2026-05-02T07:10:41.138Z</time></trkpt><trkpt lat="45.2712387" lon="10.7282748"><ele>46.0</ele><time>2026-05-02T07:10:43.138Z</time></trkpt><trkpt lat="45.2713251" lon="10.7282974"><ele>46.0</ele><time>2026-05-02T07:10:45.138Z</time></trkpt><trkpt lat="45.2714091" lon="10.7283218"><ele>46.0</ele><time>2026-05-02T07:10:47.139Z</time></trkpt><trkpt lat="45.2714942" lon="10.7283472"><ele>46.0</ele><time>2026-05-02T07:10:49.137Z</time></trkpt><trkpt lat="45.271584" lon="10.7283694"><ele>46.0</ele><time>2026-05-02T07:10:51.139Z</time></trkpt><trkpt lat="45.2716727" lon="10.7283978"><ele>46.0</ele><time>2026-05-02T07:10:53.138Z</time></trkpt><trkpt lat="45.2717589" lon="10.7284306"><ele>46.0</ele><time>2026-05-02T07:10:55.139Z</time></trkpt><trkpt lat="45.2718499" lon="10.7284639"><ele>46.0</ele><time>2026-05-02T07:10:57.138Z</time></trkpt><trkpt lat="45.2719399" lon="10.7284991"><ele>46.0</ele><time>2026-05-02T07:10:59.138Z</time></trkpt><trkpt lat="45.2720305" lon="10.7285397"><ele>46.0</ele><time>2026-05-02T07:11:01.138Z</time></trkpt><trkpt lat="45.27212" lon="10.7285764"><ele>46.0</ele><time>2026-05-02T07:11:03.137Z</time></trkpt><trkpt lat="45.2722109" lon="10.7286166"><ele>45.199999999999996</ele><time>2026-05-02T07:11:05.138Z</time></trkpt><trkpt lat="45.2722986" lon="10.7286583"><ele>44.4</ele><time>2026-05-02T07:11:07.138Z</time></trkpt><trkpt lat="45.2723837" lon="10.7286973"><ele>43.6</ele><time>2026-05-02T07:11:09.138Z</time></trkpt><trkpt lat="45.27248" lon="10.7287413"><ele>42.8</ele><time>2026-05-02T07:11:11.138Z</time></trkpt><trkpt lat="45.2725759" lon="10.7287826"><ele>42.0</ele><time>2026-05-02T07:11:13.138Z</time></trkpt><trkpt lat="45.2726646" lon="10.7288291"><ele>42.0</ele><time>2026-05-02T07:11:15.139Z</time></trkpt><trkpt lat="45.2727475" lon="10.7288724"><ele>42.0</ele><time>2026-05-02T07:11:17.139Z</time></trkpt><trkpt lat="45.2728313" lon="10.728918"><ele>42.0</ele><time>2026-05-02T07:11:19.139Z</time></trkpt><trkpt lat="45.2729098" lon="10.7289575"><ele>42.0</ele><time>2026-05-02T07:11:21.138Z</time></trkpt><trkpt lat="45.272997" lon="10.7289914"><ele>42.0</ele><time>2026-05-02T07:11:23.139Z</time></trkpt><trkpt lat="45.2730788" lon="10.7290315"><ele>42.0</ele><time>2026-05-02T07:11:25.138Z</time></trkpt><trkpt lat="45.2731649" lon="10.7290712"><ele>42.0</ele><time>2026-05-02T07:11:27.139Z</time></trkpt><trkpt lat="45.273252" lon="10.7291164"><ele>42.0</ele><time>2026-05-02T07:11:29.139Z</time></trkpt><trkpt lat="45.2733375" lon="10.7291519"><ele>42.0</ele><time>2026-05-02T07:11:31.139Z</time></trkpt><trkpt lat="45.2734105" lon="10.729194"><ele>42.0</ele><time>2026-05-02T07:11:33.139Z</time></trkpt><trkpt lat="45.2734921" lon="10.7292431"><ele>42.0</ele><time>2026-05-02T07:11:35.138Z</time></trkpt><trkpt lat="45.273574" lon="10.7292831"><ele>42.0</ele><time>2026-05-02T07:11:37.139Z</time></trkpt><trkpt lat="45.2736582" lon="10.729314"><ele>42.0</ele><time>2026-05-02T07:11:39.138Z</time></trkpt><trkpt lat="45.2737403" lon="10.7293551"><ele>42.0</ele><time>2026-05-02T07:11:41.139Z</time></trkpt><trkpt lat="45.2738217" lon="10.7293958"><ele>42.0</ele><time>2026-05-02T07:11:43.138Z</time></trkpt><trkpt lat="45.2739066" lon="10.7294416"><ele>42.0</ele><time>2026-05-02T07:11:45.139Z</time></trkpt><trkpt lat="45.2739907" lon="10.729481"><ele>42.0</ele><time>2026-05-02T07:11:47.139Z</time></trkpt><trkpt lat="45.2740736" lon="10.7295211"><ele>42.0</ele><time>2026-05-02T07:11:49.139Z</time></trkpt><trkpt lat="45.2741555" lon="10.7295612"><ele>42.0</ele><time>2026-05-02T07:11:51.138Z</time></trkpt><trkpt lat="45.2742371" lon="10.7296028"><ele>42.0</ele><time>2026-05-02T07:11:53.139Z</time></trkpt><trkpt lat="45.2743179" lon="10.7296425"><ele>42.0</ele><time>2026-05-02T07:11:55.138Z</time></trkpt><trkpt lat="45.2743978" lon="10.7296814"><ele>42.0</ele><time>2026-05-02T07:11:57.139Z</time></trkpt><trkpt lat="45.2744784" lon="10.7297194"><ele>42.0</ele><time>2026-05-02T07:11:59.139Z</time></trkpt><trkpt lat="45.2745586" lon="10.7297596"><ele>42.0</ele><time>2026-05-02T07:12:01.139Z</time></trkpt><trkpt lat="45.2746364" lon="10.7297948"><ele>42.0</ele><time>2026-05-02T07:12:03.139Z</time></trkpt><trkpt lat="45.2747108" lon="10.7298308"><ele>42.0</ele><time>2026-05-02T07:12:05.139Z</time></trkpt><trkpt lat="45.2747872" lon="10.7298643"><ele>42.0</ele><time>2026-05-02T07:12:07.137Z</time></trkpt><trkpt lat="45.2748693" lon="10.7299"><ele>42.0</ele><time>2026-05-02T07:12:09.139Z</time></trkpt><trkpt lat="45.2749528" lon="10.7299357"><ele>42.0</ele><time>2026-05-02T07:12:11.139Z</time></trkpt><trkpt lat="45.275037" lon="10.7299687"><ele>42.0</ele><time>2026-05-02T07:12:13.138Z</time></trkpt><trkpt lat="45.2751194" lon="10.7300041"><ele>41.833333333333336</ele><time>2026-05-02T07:12:15.139Z</time></trkpt><trkpt lat="45.2752001" lon="10.7300313"><ele>41.666666666666664</ele><time>2026-05-02T07:12:17.138Z</time></trkpt><trkpt lat="45.2752798" lon="10.7300618"><ele>41.5</ele><time>2026-05-02T07:12:19.139Z</time></trkpt><trkpt lat="45.2753629" lon="10.7300832"><ele>41.33333333333333</ele><time>2026-05-02T07:12:21.138Z</time></trkpt><trkpt lat="45.2754449" lon="10.730104"><ele>41.166666666666664</ele><time>2026-05-02T07:12:23.139Z</time></trkpt><trkpt lat="45.2755307" lon="10.7301281"><ele>41.0</ele><time>2026-05-02T07:12:25.139Z</time></trkpt><trkpt lat="45.2756143" lon="10.7301525"><ele>41.0</ele><time>2026-05-02T07:12:27.138Z</time></trkpt><trkpt lat="45.2756982" lon="10.7301806"><ele>41.0</ele><time>2026-05-02T07:12:29.138Z</time></trkpt><trkpt lat="45.2757817" lon="10.730206"><ele>41.0</ele><time>2026-05-02T07:12:31.138Z</time></trkpt><trkpt lat="45.2758646" lon="10.7302277"><ele>41.0</ele><time>2026-05-02T07:12:33.138Z</time></trkpt><trkpt lat="45.2759446" lon="10.7302486"><ele>41.0</ele><time>2026-05-02T07:12:35.137Z</time></trkpt><trkpt lat="45.276027" lon="10.7302674"><ele>41.0</ele><time>2026-05-02T07:12:37.138Z</time></trkpt><trkpt lat="45.2761133" lon="10.7302867"><ele>41.0</ele><time>2026-05-02T07:12:39.138Z</time></trkpt><trkpt lat="45.2762007" lon="10.7303085"><ele>41.0</ele><time>2026-05-02T07:12:41.139Z</time></trkpt><trkpt lat="45.2762862" lon="10.730327"><ele>41.0</ele><time>2026-05-02T07:12:43.138Z</time></trkpt><trkpt lat="45.2763723" lon="10.7303468"><ele>41.0</ele><time>2026-05-02T07:12:45.138Z</time></trkpt><trkpt lat="45.2764638" lon="10.7303686"><ele>41.0</ele><time>2026-05-02T07:12:47.138Z</time></trkpt><trkpt lat="45.2765545" lon="10.730391"><ele>41.0</ele><time>2026-05-02T07:12:49.139Z</time></trkpt><trkpt lat="45.2766424" lon="10.7304054"><ele>41.0</ele><time>2026-05-02T07:12:51.138Z</time></trkpt><trkpt lat="45.2767279" lon="10.7304216"><ele>41.0</ele><time>2026-05-02T07:12:53.139Z</time></trkpt><trkpt lat="45.2768124" lon="10.7304347"><ele>41.0</ele><time>2026-05-02T07:12:55.138Z</time></trkpt><trkpt lat="45.2768988" lon="10.7304466"><ele>41.0</ele><time>2026-05-02T07:12:57.138Z</time></trkpt><trkpt lat="45.2769866" lon="10.7304611"><ele>41.0</ele><time>2026-05-02T07:12:59.137Z</time></trkpt><trkpt lat="45.2770786" lon="10.7304788"><ele>41.0</ele><time>2026-05-02T07:13:01.139Z</time></trkpt><trkpt lat="45.277165" lon="10.7304893"><ele>41.0</ele><time>2026-05-02T07:13:03.137Z</time></trkpt><trkpt lat="45.2772534" lon="10.7304992"><ele>41.0</ele><time>2026-05-02T07:13:05.139Z</time></trkpt><trkpt lat="45.2773391" lon="10.7305077"><ele>41.0</ele><time>2026-05-02T07:13:07.138Z</time></trkpt><trkpt lat="45.2774241" lon="10.730514"><ele>41.0</ele><time>2026-05-02T07:13:09.139Z</time></trkpt><trkpt lat="45.2775104" lon="10.730518"><ele>41.0</ele><time>2026-05-02T07:13:11.138Z</time></trkpt><trkpt lat="45.2775968" lon="10.7305212"><ele>41.0</ele><time>2026-05-02T07:13:13.139Z</time></trkpt><trkpt lat="45.2776846" lon="10.7305244"><ele>41.0</ele><time>2026-05-02T07:13:15.138Z</time></trkpt><trkpt lat="45.2777742" lon="10.7305289"><ele>41.0</ele><time>2026-05-02T07:13:17.138Z</time></trkpt><trkpt lat="45.2778666" lon="10.7305331"><ele>41.0</ele><time>2026-05-02T07:13:19.139Z</time></trkpt><trkpt lat="45.2779587" lon="10.7305364"><ele>41.0</ele><time>2026-05-02T07:13:21.139Z</time></trkpt><trkpt lat="45.278053" lon="10.7305345"><ele>41.0</ele><time>2026-05-02T07:13:23.139Z</time></trkpt><trkpt lat="45.2781444" lon="10.7305397"><ele>40.8</ele><time>2026-05-02T07:13:25.139Z</time></trkpt><trkpt lat="45.2782386" lon="10.7305333"><ele>40.599999999999994</ele><time>2026-05-02T07:13:27.139Z</time></trkpt><trkpt lat="45.2783309" lon="10.7305348"><ele>40.4</ele><time>2026-05-02T07:13:29.139Z</time></trkpt><trkpt lat="45.2784205" lon="10.7305266"><ele>40.2</ele><time>2026-05-02T07:13:31.138Z</time></trkpt><trkpt lat="45.2785089" lon="10.7305203"><ele>40.0</ele><time>2026-05-02T07:13:33.138Z</time></trkpt><trkpt lat="45.2785995" lon="10.7305129"><ele>40.0</ele><time>2026-05-02T07:13:35.139Z</time></trkpt><trkpt lat="45.2786845" lon="10.7305113"><ele>40.0</ele><time>2026-05-02T07:13:37.137Z</time></trkpt><trkpt lat="45.2787744" lon="10.7305074"><ele>40.0</ele><time>2026-05-02T07:13:39.138Z</time></trkpt><trkpt lat="45.2788649" lon="10.7305012"><ele>40.0</ele><time>2026-05-02T07:13:41.139Z</time></trkpt><trkpt lat="45.2789536" lon="10.7304974"><ele>40.0</ele><time>2026-05-02T07:13:43.139Z</time></trkpt><trkpt lat="45.2790443" lon="10.7304838"><ele>40.0</ele><time>2026-05-02T07:13:45.138Z</time></trkpt><trkpt lat="45.2791338" lon="10.7304683"><ele>40.66666666666667</ele><time>2026-05-02T07:13:47.139Z</time></trkpt><trkpt lat="45.27922" lon="10.7304591"><ele>41.333333333333336</ele><time>2026-05-02T07:13:49.138Z</time></trkpt><trkpt lat="45.2793069" lon="10.7304446"><ele>42.0</ele><time>2026-05-02T07:13:51.138Z</time></trkpt><trkpt lat="45.2793937" lon="10.7304299"><ele>42.666666666666664</ele><time>2026-05-02T07:13:53.139Z</time></trkpt><trkpt lat="45.279479" lon="10.7304114"><ele>43.33333333333333</ele><time>2026-05-02T07:13:55.138Z</time></trkpt><trkpt lat="45.2795643" lon="10.7303905"><ele>44.0</ele><time>2026-05-02T07:13:57.139Z</time></trkpt><trkpt lat="45.2796484" lon="10.7303777"><ele>44.0</ele><time>2026-05-02T07:13:59.138Z</time></trkpt><trkpt lat="45.2797328" lon="10.7303611"><ele>44.0</ele><time>2026-05-02T07:14:01.139Z</time></trkpt><trkpt lat="45.2798186" lon="10.7303436"><ele>44.0</ele><time>2026-05-02T07:14:03.138Z</time></trkpt><trkpt lat="45.2799076" lon="10.7303268"><ele>44.0</ele><time>2026-05-02T07:14:05.138Z</time></trkpt><trkpt lat="45.2800012" lon="10.7303032"><ele>44.0</ele><time>2026-05-02T07:14:07.139Z</time></trkpt><trkpt lat="45.2800931" lon="10.7302842"><ele>44.166666666666664</ele><time>2026-05-02T07:14:09.139Z</time></trkpt><trkpt lat="45.2801803" lon="10.7302595"><ele>44.33333333333333</ele><time>2026-05-02T07:14:11.138Z</time></trkpt><trkpt lat="45.2802642" lon="10.7302338"><ele>44.5</ele><time>2026-05-02T07:14:13.139Z</time></trkpt><trkpt lat="45.2803504" lon="10.7302114"><ele>44.666666666666664</ele><time>2026-05-02T07:14:15.139Z</time></trkpt><trkpt lat="45.2804356" lon="10.73019"><ele>44.833333333333336</ele><time>2026-05-02T07:14:17.138Z</time></trkpt><trkpt lat="45.280522" lon="10.7301717"><ele>45.0</ele><time>2026-05-02T07:14:19.138Z</time></trkpt><trkpt lat="45.2806091" lon="10.7301496"><ele>44.6</ele><time>2026-05-02T07:14:21.138Z</time></trkpt><trkpt lat="45.2806981" lon="10.7301232"><ele>44.2</ele><time>2026-05-02T07:14:23.139Z</time></trkpt><trkpt lat="45.2807842" lon="10.7300997"><ele>43.8</ele><time>2026-05-02T07:14:25.138Z</time></trkpt><trkpt lat="45.28087" lon="10.7300701"><ele>43.4</ele><time>2026-05-02T07:14:27.137Z</time></trkpt><trkpt lat="45.2809619" lon="10.7300388"><ele>43.0</ele><time>2026-05-02T07:14:29.138Z</time></trkpt><trkpt lat="45.2810513" lon="10.7300168"><ele>43.0</ele><time>2026-05-02T07:14:31.137Z</time></trkpt><trkpt lat="45.281138" lon="10.7299897"><ele>43.0</ele><time>2026-05-02T07:14:33.137Z</time></trkpt><trkpt lat="45.2812249" lon="10.7299667"><ele>43.0</ele><time>2026-05-02T07:14:35.138Z</time></trkpt><trkpt lat="45.2813106" lon="10.7299447"><ele>43.0</ele><time>2026-05-02T07:14:37.137Z</time></trkpt><trkpt lat="45.2813976" lon="10.7299204"><ele>43.0</ele><time>2026-05-02T07:14:39.138Z</time></trkpt><trkpt lat="45.2814839" lon="10.7298975"><ele>43.0</ele><time>2026-05-02T07:14:41.137Z</time></trkpt><trkpt lat="45.2815723" lon="10.7298812"><ele>43.599999999999994</ele><time>2026-05-02T07:14:43.138Z</time></trkpt><trkpt lat="45.2816704" lon="10.7298677"><ele>44.199999999999996</ele><time>2026-05-02T07:14:45.137Z</time></trkpt><trkpt lat="45.2817562" lon="10.7298433"><ele>44.8</ele><time>2026-05-02T07:14:47.138Z</time></trkpt><trkpt lat="45.2818437" lon="10.7298214"><ele>45.4</ele><time>2026-05-02T07:14:49.137Z</time></trkpt><trkpt lat="45.2819335" lon="10.7297986"><ele>46.0</ele><time>2026-05-02T07:14:51.136Z</time></trkpt><trkpt lat="45.2820256" lon="10.7297742"><ele>46.0</ele><time>2026-05-02T07:14:53.137Z</time></trkpt><trkpt lat="45.2821152" lon="10.7297642"><ele>46.0</ele><time>2026-05-02T07:14:55.138Z</time></trkpt><trkpt lat="45.2822012" lon="10.7297347"><ele>46.0</ele><time>2026-05-02T07:14:57.137Z</time></trkpt><trkpt lat="45.2822889" lon="10.7297173"><ele>46.0</ele><time>2026-05-02T07:14:59.138Z</time></trkpt><trkpt lat="45.2823709" lon="10.7297018"><ele>46.0</ele><time>2026-05-02T07:15:01.138Z</time></trkpt><trkpt lat="45.2824518" lon="10.7296907"><ele>46.0</ele><time>2026-05-02T07:15:03.138Z</time></trkpt><trkpt lat="45.2825439" lon="10.7296937"><ele>46.0</ele><time>2026-05-02T07:15:06.137Z</time></trkpt><trkpt lat="45.2826168" lon="10.7296673"><ele>46.0</ele><time>2026-05-02T07:15:08.138Z</time></trkpt><trkpt lat="45.2826831" lon="10.7296229"><ele>46.0</ele><time>2026-05-02T07:15:10.138Z</time></trkpt><trkpt lat="45.2827615" lon="10.7295785"><ele>46.0</ele><time>2026-05-02T07:15:12.136Z</time></trkpt><trkpt lat="45.2828666" lon="10.7295397"><ele>46.0</ele><time>2026-05-02T07:15:14.137Z</time></trkpt><trkpt lat="45.2829727" lon="10.7295007"><ele>46.0</ele><time>2026-05-02T07:15:16.137Z</time></trkpt><trkpt lat="45.2830833" lon="10.7294734"><ele>46.0</ele><time>2026-05-02T07:15:18.138Z</time></trkpt><trkpt lat="45.2831993" lon="10.7294436"><ele>46.0</ele><time>2026-05-02T07:15:20.136Z</time></trkpt><trkpt lat="45.2833158" lon="10.7294167"><ele>46.0</ele><time>2026-05-02T07:15:22.138Z</time></trkpt><trkpt lat="45.2834258" lon="10.7293841"><ele>45.599999999999994</ele><time>2026-05-02T07:15:24.137Z</time></trkpt><trkpt lat="45.2835327" lon="10.729358"><ele>45.2</ele><time>2026-05-02T07:15:26.138Z</time></trkpt><trkpt lat="45.2836384" lon="10.7293252"><ele>44.8</ele><time>2026-05-02T07:15:28.138Z</time></trkpt><trkpt lat="45.2837455" lon="10.7292907"><ele>44.400000000000006</ele><time>2026-05-02T07:15:30.138Z</time></trkpt><trkpt lat="45.2838521" lon="10.7292574"><ele>44.0</ele><time>2026-05-02T07:15:32.138Z</time></trkpt><trkpt lat="45.2839572" lon="10.7292279"><ele>44.0</ele><time>2026-05-02T07:15:34.137Z</time></trkpt><trkpt lat="45.2840638" lon="10.7291909"><ele>44.0</ele><time>2026-05-02T07:15:36.137Z</time></trkpt><trkpt lat="45.2841653" lon="10.729168"><ele>44.0</ele><time>2026-05-02T07:15:38.138Z</time></trkpt><trkpt lat="45.284272" lon="10.7291457"><ele>44.0</ele><time>2026-05-02T07:15:40.137Z</time></trkpt><trkpt lat="45.2843696" lon="10.7291209"><ele>44.0</ele><time>2026-05-02T07:15:42.137Z</time></trkpt><trkpt lat="45.2844632" lon="10.7290891"><ele>44.0</ele><time>2026-05-02T07:15:44.138Z</time></trkpt><trkpt lat="45.2845625" lon="10.7290622"><ele>44.0</ele><time>2026-05-02T07:15:46.137Z</time></trkpt><trkpt lat="45.2846635" lon="10.7290495"><ele>44.0</ele><time>2026-05-02T07:15:48.136Z</time></trkpt><trkpt lat="45.2847674" lon="10.729026"><ele>44.0</ele><time>2026-05-02T07:15:50.138Z</time></trkpt><trkpt lat="45.2848712" lon="10.7290134"><ele>44.0</ele><time>2026-05-02T07:15:52.138Z</time></trkpt><trkpt lat="45.2849725" lon="10.728982"><ele>43.800000000000004</ele><time>2026-05-02T07:15:54.137Z</time></trkpt><trkpt lat="45.2850647" lon="10.7289601"><ele>43.6</ele><time>2026-05-02T07:15:56.137Z</time></trkpt><trkpt lat="45.2851639" lon="10.7289359"><ele>43.4</ele><time>2026-05-02T07:15:58.137Z</time></trkpt><trkpt lat="45.285259" lon="10.7289074"><ele>43.2</ele><time>2026-05-02T07:16:00.138Z</time></trkpt><trkpt lat="45.2853577" lon="10.7288841"><ele>43.0</ele><time>2026-05-02T07:16:02.138Z</time></trkpt><trkpt lat="45.2854551" lon="10.7288578"><ele>43.0</ele><time>2026-05-02T07:16:04.138Z</time></trkpt><trkpt lat="45.2855534" lon="10.72883"><ele>43.0</ele><time>2026-05-02T07:16:06.137Z</time></trkpt><trkpt lat="45.2856515" lon="10.7288041"><ele>43.0</ele><time>2026-05-02T07:16:08.137Z</time></trkpt><trkpt lat="45.2857517" lon="10.7287792"><ele>43.0</ele><time>2026-05-02T07:16:10.138Z</time></trkpt><trkpt lat="45.2858514" lon="10.728753"><ele>43.0</ele><time>2026-05-02T07:16:12.137Z</time></trkpt><trkpt lat="45.2859536" lon="10.7287292"><ele>42.8</ele><time>2026-05-02T07:16:14.137Z</time></trkpt><trkpt lat="45.2860464" lon="10.7287008"><ele>42.599999999999994</ele><time>2026-05-02T07:16:16.138Z</time></trkpt><trkpt lat="45.2861446" lon="10.7286756"><ele>42.400000000000006</ele><time>2026-05-02T07:16:18.138Z</time></trkpt><trkpt lat="45.2862438" lon="10.7286524"><ele>42.2</ele><time>2026-05-02T07:16:20.136Z</time></trkpt><trkpt lat="45.2863382" lon="10.7286277"><ele>42.0</ele><time>2026-05-02T07:16:22.138Z</time></trkpt><trkpt lat="45.2864339" lon="10.728604"><ele>42.6</ele><time>2026-05-02T07:16:24.138Z</time></trkpt><trkpt lat="45.2865341" lon="10.7285787"><ele>43.2</ele><time>2026-05-02T07:16:26.137Z</time></trkpt><trkpt lat="45.2866314" lon="10.7285544"><ele>43.8</ele><time>2026-05-02T07:16:28.137Z</time></trkpt><trkpt lat="45.2867254" lon="10.7285312"><ele>44.4</ele><time>2026-05-02T07:16:30.138Z</time></trkpt><trkpt lat="45.2868241" lon="10.7285061"><ele>45.0</ele><time>2026-05-02T07:16:32.137Z</time></trkpt><trkpt lat="45.286919" lon="10.728479"><ele>45.0</ele><time>2026-05-02T07:16:34.137Z</time></trkpt><trkpt lat="45.2870164" lon="10.7284532"><ele>45.0</ele><time>2026-05-02T07:16:36.138Z</time></trkpt><trkpt lat="45.287113" lon="10.728433"><ele>45.0</ele><time>2026-05-02T07:16:38.138Z</time></trkpt><trkpt lat="45.2872092" lon="10.7284072"><ele>45.0</ele><time>2026-05-02T07:16:40.137Z</time></trkpt><trkpt lat="45.2873049" lon="10.7283783"><ele>45.0</ele><time>2026-05-02T07:16:42.137Z</time></trkpt><trkpt lat="45.2873998" lon="10.7283515"><ele>44.8</ele><time>2026-05-02T07:16:44.138Z</time></trkpt><trkpt lat="45.287492" lon="10.7283246"><ele>44.6</ele><time>2026-05-02T07:16:46.137Z</time></trkpt><trkpt lat="45.2875817" lon="10.728297"><ele>44.400000000000006</ele><time>2026-05-02T07:16:48.138Z</time></trkpt><trkpt lat="45.2876713" lon="10.7282725"><ele>44.2</ele><time>2026-05-02T07:16:50.137Z</time></trkpt><trkpt lat="45.2877617" lon="10.7282435"><ele>44.0</ele><time>2026-05-02T07:16:52.138Z</time></trkpt><trkpt lat="45.2878535" lon="10.7282171"><ele>44.0</ele><time>2026-05-02T07:16:54.138Z</time></trkpt><trkpt lat="45.2879455" lon="10.7281927"><ele>44.0</ele><time>2026-05-02T07:16:56.138Z</time></trkpt><trkpt lat="45.2880341" lon="10.7281645"><ele>44.0</ele><time>2026-05-02T07:16:58.138Z</time></trkpt><trkpt lat="45.2881238" lon="10.728143"><ele>44.0</ele><time>2026-05-02T07:17:00.138Z</time></trkpt><trkpt lat="45.2882122" lon="10.7281311"><ele>44.0</ele><time>2026-05-02T07:17:02.137Z</time></trkpt><trkpt lat="45.2883015" lon="10.7281041"><ele>44.6</ele><time>2026-05-02T07:17:04.138Z</time></trkpt><trkpt lat="45.2883906" lon="10.7280827"><ele>45.2</ele><time>2026-05-02T07:17:06.138Z</time></trkpt><trkpt lat="45.2884837" lon="10.7280599"><ele>45.800000000000004</ele><time>2026-05-02T07:17:08.138Z</time></trkpt><trkpt lat="45.2885705" lon="10.7280408"><ele>46.400000000000006</ele><time>2026-05-02T07:17:10.138Z</time></trkpt><trkpt lat="45.2886621" lon="10.7280148"><ele>47.0</ele><time>2026-05-02T07:17:12.137Z</time></trkpt><trkpt lat="45.2887553" lon="10.7279909"><ele>47.0</ele><time>2026-05-02T07:17:14.137Z</time></trkpt><trkpt lat="45.288842" lon="10.7279679"><ele>47.0</ele><time>2026-05-02T07:17:16.136Z</time></trkpt><trkpt lat="45.2889305" lon="10.7279425"><ele>47.0</ele><time>2026-05-02T07:17:18.138Z</time></trkpt><trkpt lat="45.2890175" lon="10.7279137"><ele>47.0</ele><time>2026-05-02T07:17:20.138Z</time></trkpt><trkpt lat="45.2891006" lon="10.7278826"><ele>47.0</ele><time>2026-05-02T07:17:22.138Z</time></trkpt><trkpt lat="45.2891849" lon="10.7278514"><ele>47.0</ele><time>2026-05-02T07:17:24.137Z</time></trkpt><trkpt lat="45.2892699" lon="10.7278263"><ele>47.166666666666664</ele><time>2026-05-02T07:17:26.137Z</time></trkpt><trkpt lat="45.2893564" lon="10.7278032"><ele>47.33333333333333</ele><time>2026-05-02T07:17:28.138Z</time></trkpt><trkpt lat="45.2894439" lon="10.7277834"><ele>47.5</ele><time>2026-05-02T07:17:30.137Z</time></trkpt><trkpt lat="45.28953" lon="10.727762"><ele>47.666666666666664</ele><time>2026-05-02T07:17:32.137Z</time></trkpt><trkpt lat="45.2896178" lon="10.727742"><ele>47.833333333333336</ele><time>2026-05-02T07:17:34.136Z</time></trkpt><trkpt lat="45.2897057" lon="10.7277202"><ele>48.0</ele><time>2026-05-02T07:17:36.138Z</time></trkpt><trkpt lat="45.289795" lon="10.7276959"><ele>48.2</ele><time>2026-05-02T07:17:38.137Z</time></trkpt><trkpt lat="45.2898843" lon="10.727673"><ele>48.4</ele><time>2026-05-02T07:17:40.137Z</time></trkpt><trkpt lat="45.2899732" lon="10.7276484"><ele>48.6</ele><time>2026-05-02T07:17:42.137Z</time></trkpt><trkpt lat="45.2900611" lon="10.7276187"><ele>48.800000000000004</ele><time>2026-05-02T07:17:44.138Z</time></trkpt><trkpt lat="45.2901508" lon="10.7275909"><ele>49.0</ele><time>2026-05-02T07:17:46.138Z</time></trkpt><trkpt lat="45.2902389" lon="10.7275644"><ele>49.0</ele><time>2026-05-02T07:17:48.138Z</time></trkpt><trkpt lat="45.2903254" lon="10.7275399"><ele>49.0</ele><time>2026-05-02T07:17:50.137Z</time></trkpt><trkpt lat="45.2904131" lon="10.7275157"><ele>49.0</ele><time>2026-05-02T07:17:52.137Z</time></trkpt><trkpt lat="45.2905039" lon="10.7274866"><ele>49.0</ele><time>2026-05-02T07:17:54.138Z</time></trkpt><trkpt lat="45.2905911" lon="10.727466"><ele>49.0</ele><time>2026-05-02T07:17:56.137Z</time></trkpt><trkpt lat="45.290681" lon="10.7274364"><ele>48.99999999999999</ele><time>2026-05-02T07:17:58.137Z</time></trkpt><trkpt lat="45.2907657" lon="10.7274157"><ele>49.0</ele><time>2026-05-02T07:18:00.137Z</time></trkpt><trkpt lat="45.2908454" lon="10.7273902"><ele>49.0</ele><time>2026-05-02T07:18:02.137Z</time></trkpt><trkpt lat="45.2909322" lon="10.7273677"><ele>49.0</ele><time>2026-05-02T07:18:04.138Z</time></trkpt><trkpt lat="45.2910148" lon="10.7273486"><ele>48.99999999999999</ele><time>2026-05-02T07:18:06.138Z</time></trkpt><trkpt lat="45.2910899" lon="10.727328"><ele>49.0</ele><time>2026-05-02T07:18:08.137Z</time></trkpt><trkpt lat="45.2911625" lon="10.7273047"><ele>48.99999999999999</ele><time>2026-05-02T07:18:10.136Z</time></trkpt><trkpt lat="45.2912363" lon="10.7272832"><ele>49.0</ele><time>2026-05-02T07:18:12.137Z</time></trkpt><trkpt lat="45.2913117" lon="10.7272598"><ele>49.0</ele><time>2026-05-02T07:18:14.138Z</time></trkpt><trkpt lat="45.2913849" lon="10.7272335"><ele>49.0</ele><time>2026-05-02T07:18:16.137Z</time></trkpt><trkpt lat="45.2914577" lon="10.727206"><ele>48.99999999999999</ele><time>2026-05-02T07:18:18.138Z</time></trkpt><trkpt lat="45.2915316" lon="10.7271847"><ele>49.0</ele><time>2026-05-02T07:18:20.138Z</time></trkpt><trkpt lat="45.2916" lon="10.7271468"><ele>48.49999999999999</ele><time>2026-05-02T07:18:22.138Z</time></trkpt><trkpt lat="45.2916741" lon="10.7271168"><ele>48.0</ele><time>2026-05-02T07:18:24.136Z</time></trkpt><trkpt lat="45.2917525" lon="10.7270827"><ele>47.5</ele><time>2026-05-02T07:18:26.138Z</time></trkpt><trkpt lat="45.2918318" lon="10.7270481"><ele>47.0</ele><time>2026-05-02T07:18:28.137Z</time></trkpt><trkpt lat="45.2919101" lon="10.7270131"><ele>46.5</ele><time>2026-05-02T07:18:30.137Z</time></trkpt><trkpt lat="45.2919889" lon="10.7269782"><ele>46.0</ele><time>2026-05-02T07:18:32.137Z</time></trkpt><trkpt lat="45.2920687" lon="10.726941"><ele>46.0</ele><time>2026-05-02T07:18:34.138Z</time></trkpt><trkpt lat="45.2921483" lon="10.7268983"><ele>46.0</ele><time>2026-05-02T07:18:36.137Z</time></trkpt><trkpt lat="45.2922289" lon="10.7268607"><ele>46.0</ele><time>2026-05-02T07:18:38.137Z</time></trkpt><trkpt lat="45.2923091" lon="10.7268171"><ele>46.0</ele><time>2026-05-02T07:18:40.138Z</time></trkpt><trkpt lat="45.2923891" lon="10.726776"><ele>46.0</ele><time>2026-05-02T07:18:42.138Z</time></trkpt><trkpt lat="45.2924648" lon="10.7267248"><ele>46.0</ele><time>2026-05-02T07:18:44.138Z</time></trkpt><trkpt lat="45.292546" lon="10.7266813"><ele>45.333333333333336</ele><time>2026-05-02T07:18:46.136Z</time></trkpt><trkpt lat="45.2926266" lon="10.726633"><ele>44.66666666666667</ele><time>2026-05-02T07:18:48.138Z</time></trkpt><trkpt lat="45.292703" lon="10.7265867"><ele>44.0</ele><time>2026-05-02T07:18:50.138Z</time></trkpt><trkpt lat="45.292784" lon="10.7265375"><ele>43.333333333333336</ele><time>2026-05-02T07:18:52.138Z</time></trkpt><trkpt lat="45.2928664" lon="10.7264855"><ele>42.666666666666664</ele><time>2026-05-02T07:18:54.138Z</time></trkpt><trkpt lat="45.2929454" lon="10.7264243"><ele>42.0</ele><time>2026-05-02T07:18:56.138Z</time></trkpt><trkpt lat="45.2930224" lon="10.7263742"><ele>41.833333333333336</ele><time>2026-05-02T07:18:58.138Z</time></trkpt><trkpt lat="45.2930947" lon="10.7263219"><ele>41.666666666666664</ele><time>2026-05-02T07:19:00.137Z</time></trkpt><trkpt lat="45.2931626" lon="10.7262728"><ele>41.5</ele><time>2026-05-02T07:19:02.137Z</time></trkpt><trkpt lat="45.293225" lon="10.7262245"><ele>41.33333333333333</ele><time>2026-05-02T07:19:04.138Z</time></trkpt><trkpt lat="45.2932903" lon="10.726174"><ele>41.166666666666664</ele><time>2026-05-02T07:19:06.137Z</time></trkpt><trkpt lat="45.2933573" lon="10.7261215"><ele>41.0</ele><time>2026-05-02T07:19:08.137Z</time></trkpt><trkpt lat="45.2934229" lon="10.7260678"><ele>41.14285714285714</ele><time>2026-05-02T07:19:10.137Z</time></trkpt><trkpt lat="45.293489" lon="10.726014"><ele>41.285714285714285</ele><time>2026-05-02T07:19:12.137Z</time></trkpt><trkpt lat="45.2935518" lon="10.7259577"><ele>41.42857142857143</ele><time>2026-05-02T07:19:14.136Z</time></trkpt><trkpt lat="45.2936156" lon="10.7259148"><ele>41.57142857142857</ele><time>2026-05-02T07:19:16.138Z</time></trkpt><trkpt lat="45.2936795" lon="10.7258626"><ele>41.714285714285715</ele><time>2026-05-02T07:19:18.137Z</time></trkpt><trkpt lat="45.2937423" lon="10.7258069"><ele>41.857142857142854</ele><time>2026-05-02T07:19:20.137Z</time></trkpt><trkpt lat="45.2938011" lon="10.7257472"><ele>42.0</ele><time>2026-05-02T07:19:22.138Z</time></trkpt><trkpt lat="45.2938643" lon="10.7257027"><ele>42.142857142857146</ele><time>2026-05-02T07:19:24.136Z</time></trkpt><trkpt lat="45.2939289" lon="10.7256509"><ele>42.285714285714285</ele><time>2026-05-02T07:19:26.138Z</time></trkpt><trkpt lat="45.2939894" lon="10.725597"><ele>42.42857142857143</ele><time>2026-05-02T07:19:28.137Z</time></trkpt><trkpt lat="45.2940444" lon="10.7255415"><ele>42.57142857142857</ele><time>2026-05-02T07:19:30.138Z</time></trkpt><trkpt lat="45.2941044" lon="10.7254836"><ele>42.714285714285715</ele><time>2026-05-02T07:19:32.137Z</time></trkpt><trkpt lat="45.2941677" lon="10.7254237"><ele>42.85714285714286</ele><time>2026-05-02T07:19:34.137Z</time></trkpt><trkpt lat="45.2942318" lon="10.7253605"><ele>43.0</ele><time>2026-05-02T07:19:36.138Z</time></trkpt><trkpt lat="45.294297" lon="10.7252948"><ele>43.333333333333336</ele><time>2026-05-02T07:19:38.138Z</time></trkpt><trkpt lat="45.2943597" lon="10.7252253"><ele>43.66666666666667</ele><time>2026-05-02T07:19:40.136Z</time></trkpt><trkpt lat="45.2944206" lon="10.7251586"><ele>44.0</ele><time>2026-05-02T07:19:42.138Z</time></trkpt><trkpt lat="45.2944819" lon="10.7250865"><ele>44.333333333333336</ele><time>2026-05-02T07:19:44.137Z</time></trkpt><trkpt lat="45.2945492" lon="10.7250177"><ele>44.666666666666664</ele><time>2026-05-02T07:19:46.137Z</time></trkpt><trkpt lat="45.2946144" lon="10.7249455"><ele>45.0</ele><time>2026-05-02T07:19:48.138Z</time></trkpt><trkpt lat="45.2946804" lon="10.7248749"><ele>45.0</ele><time>2026-05-02T07:19:50.138Z</time></trkpt><trkpt lat="45.2947448" lon="10.7248055"><ele>45.0</ele><time>2026-05-02T07:19:52.138Z</time></trkpt><trkpt lat="45.2948093" lon="10.7247355"><ele>45.0</ele><time>2026-05-02T07:19:54.137Z</time></trkpt><trkpt lat="45.2948725" lon="10.7246655"><ele>45.0</ele><time>2026-05-02T07:19:56.137Z</time></trkpt><trkpt lat="45.2949377" lon="10.7245962"><ele>45.0</ele><time>2026-05-02T07:19:58.137Z</time></trkpt><trkpt lat="45.295002" lon="10.7245196"><ele>45.0</ele><time>2026-05-02T07:20:00.138Z</time></trkpt><trkpt lat="45.2950661" lon="10.7244443"><ele>44.666666666666664</ele><time>2026-05-02T07:20:02.138Z</time></trkpt><trkpt lat="45.2951298" lon="10.7243734"><ele>44.333333333333336</ele><time>2026-05-02T07:20:04.138Z</time></trkpt><trkpt lat="45.295195" lon="10.7243043"><ele>44.0</ele><time>2026-05-02T07:20:06.138Z</time></trkpt><trkpt lat="45.2952597" lon="10.7242355"><ele>43.66666666666667</ele><time>2026-05-02T07:20:08.138Z</time></trkpt><trkpt lat="45.2953253" lon="10.724168"><ele>43.333333333333336</ele><time>2026-05-02T07:20:10.138Z</time></trkpt><trkpt lat="45.2953895" lon="10.7240963"><ele>43.0</ele><time>2026-05-02T07:20:12.138Z</time></trkpt><trkpt lat="45.2954514" lon="10.7240223"><ele>43.0</ele><time>2026-05-02T07:20:14.137Z</time></trkpt><trkpt lat="45.2955145" lon="10.7239493"><ele>43.0</ele><time>2026-05-02T07:20:16.137Z</time></trkpt><trkpt lat="45.2955796" lon="10.7238792"><ele>43.0</ele><time>2026-05-02T07:20:18.138Z</time></trkpt><trkpt lat="45.2956425" lon="10.7238072"><ele>43.0</ele><time>2026-05-02T07:20:20.137Z</time></trkpt><trkpt lat="45.2957044" lon="10.7237335"><ele>43.0</ele><time>2026-05-02T07:20:22.138Z</time></trkpt><trkpt lat="45.295769" lon="10.7236644"><ele>43.0</ele><time>2026-05-02T07:20:24.138Z</time></trkpt><trkpt lat="45.2958349" lon="10.7235927"><ele>42.833333333333336</ele><time>2026-05-02T07:20:26.137Z</time></trkpt><trkpt lat="45.2959007" lon="10.7235231"><ele>42.66666666666667</ele><time>2026-05-02T07:20:28.137Z</time></trkpt><trkpt lat="45.2959605" lon="10.7234491"><ele>42.5</ele><time>2026-05-02T07:20:30.135Z</time></trkpt><trkpt lat="45.2960242" lon="10.7233801"><ele>42.333333333333336</ele><time>2026-05-02T07:20:32.136Z</time></trkpt><trkpt lat="45.2960893" lon="10.7233091"><ele>42.166666666666664</ele><time>2026-05-02T07:20:34.137Z</time></trkpt><trkpt lat="45.2961549" lon="10.7232383"><ele>42.0</ele><time>2026-05-02T07:20:36.136Z</time></trkpt><trkpt lat="45.296226" lon="10.723163"><ele>42.0</ele><time>2026-05-02T07:20:38.115Z</time></trkpt><trkpt lat="45.2962908" lon="10.7230918"><ele>42.0</ele><time>2026-05-02T07:20:40.136Z</time></trkpt><trkpt lat="45.2963547" lon="10.7230191"><ele>42.0</ele><time>2026-05-02T07:20:42.136Z</time></trkpt><trkpt lat="45.2964205" lon="10.7229491"><ele>42.0</ele><time>2026-05-02T07:20:44.135Z</time></trkpt><trkpt lat="45.296486" lon="10.7228763"><ele>42.0</ele><time>2026-05-02T07:20:46.137Z</time></trkpt><trkpt lat="45.2965516" lon="10.7228017"><ele>42.0</ele><time>2026-05-02T07:20:48.135Z</time></trkpt><trkpt lat="45.2966168" lon="10.7227309"><ele>42.5</ele><time>2026-05-02T07:20:50.116Z</time></trkpt><trkpt lat="45.2966825" lon="10.7226614"><ele>43.0</ele><time>2026-05-02T07:20:52.136Z</time></trkpt><trkpt lat="45.2967472" lon="10.722591"><ele>43.5</ele><time>2026-05-02T07:20:54.136Z</time></trkpt><trkpt lat="45.2968125" lon="10.7225156"><ele>44.0</ele><time>2026-05-02T07:20:56.136Z</time></trkpt><trkpt lat="45.296881" lon="10.7224428"><ele>44.5</ele><time>2026-05-02T07:20:58.137Z</time></trkpt><trkpt lat="45.296946" lon="10.7223661"><ele>45.0</ele><time>2026-05-02T07:21:00.137Z</time></trkpt><trkpt lat="45.2970119" lon="10.7222942"><ele>45.0</ele><time>2026-05-02T07:21:02.136Z</time></trkpt><trkpt lat="45.2970773" lon="10.7222205"><ele>45.0</ele><time>2026-05-02T07:21:04.137Z</time></trkpt><trkpt lat="45.2971444" lon="10.7221509"><ele>45.0</ele><time>2026-05-02T07:21:06.136Z</time></trkpt><trkpt lat="45.2972105" lon="10.7220812"><ele>45.0</ele><time>2026-05-02T07:21:08.136Z</time></trkpt><trkpt lat="45.2972699" lon="10.7220184"><ele>45.0</ele><time>2026-05-02T07:21:10.136Z</time></trkpt><trkpt lat="45.2973338" lon="10.7219517"><ele>45.0</ele><time>2026-05-02T07:21:12.135Z</time></trkpt><trkpt lat="45.2973991" lon="10.7218814"><ele>44.833333333333336</ele><time>2026-05-02T07:21:14.136Z</time></trkpt><trkpt lat="45.2974659" lon="10.7218127"><ele>44.666666666666664</ele><time>2026-05-02T07:21:16.137Z</time></trkpt><trkpt lat="45.2975304" lon="10.7217398"><ele>44.5</ele><time>2026-05-02T07:21:18.137Z</time></trkpt><trkpt lat="45.2975956" lon="10.7216703"><ele>44.33333333333333</ele><time>2026-05-02T07:21:20.137Z</time></trkpt><trkpt lat="45.2976591" lon="10.7216033"><ele>44.166666666666664</ele><time>2026-05-02T07:21:22.137Z</time></trkpt><trkpt lat="45.2977202" lon="10.7215371"><ele>44.0</ele><time>2026-05-02T07:21:24.137Z</time></trkpt><trkpt lat="45.2977798" lon="10.7214776"><ele>44.0</ele><time>2026-05-02T07:21:26.137Z</time></trkpt><trkpt lat="45.2978345" lon="10.7214179"><ele>44.0</ele><time>2026-05-02T07:21:28.137Z</time></trkpt><trkpt lat="45.2978867" lon="10.7213594"><ele>44.0</ele><time>2026-05-02T07:21:30.136Z</time></trkpt><trkpt lat="45.2979613" lon="10.7212742"><ele>44.0</ele><time>2026-05-02T07:21:33.136Z</time></trkpt><trkpt lat="45.2980188" lon="10.7212192"><ele>44.0</ele><time>2026-05-02T07:21:35.137Z</time></trkpt><trkpt lat="45.298082" lon="10.7211473"><ele>44.0</ele><time>2026-05-02T07:21:37.135Z</time></trkpt><trkpt lat="45.2981481" lon="10.7210676"><ele>44.0</ele><time>2026-05-02T07:21:39.137Z</time></trkpt><trkpt lat="45.2982176" lon="10.7209887"><ele>44.0</ele><time>2026-05-02T07:21:41.136Z</time></trkpt><trkpt lat="45.2982855" lon="10.7209039"><ele>44.0</ele><time>2026-05-02T07:21:43.137Z</time></trkpt><trkpt lat="45.2983552" lon="10.7208191"><ele>44.0</ele><time>2026-05-02T07:21:45.136Z</time></trkpt><trkpt lat="45.2984209" lon="10.7207409"><ele>44.0</ele><time>2026-05-02T07:21:47.136Z</time></trkpt><trkpt lat="45.2984887" lon="10.7206662"><ele>44.0</ele><time>2026-05-02T07:21:49.136Z</time></trkpt><trkpt lat="45.2985588" lon="10.7205987"><ele>44.0</ele><time>2026-05-02T07:21:51.137Z</time></trkpt><trkpt lat="45.2986251" lon="10.7205279"><ele>44.0</ele><time>2026-05-02T07:21:53.137Z</time></trkpt><trkpt lat="45.298692" lon="10.7204639"><ele>44.0</ele><time>2026-05-02T07:21:55.137Z</time></trkpt><trkpt lat="45.2987533" lon="10.720392"><ele>44.0</ele><time>2026-05-02T07:21:57.137Z</time></trkpt><trkpt lat="45.2988123" lon="10.7203166"><ele>44.0</ele><time>2026-05-02T07:21:59.135Z</time></trkpt><trkpt lat="45.2988688" lon="10.7202486"><ele>44.0</ele><time>2026-05-02T07:22:01.136Z</time></trkpt><trkpt lat="45.2989304" lon="10.7201605"><ele>44.5</ele><time>2026-05-02T07:22:04.136Z</time></trkpt><trkpt lat="45.2990045" lon="10.720069"><ele>45.0</ele><time>2026-05-02T07:22:07.136Z</time></trkpt><trkpt lat="45.2990575" lon="10.7199969"><ele>45.5</ele><time>2026-05-02T07:22:09.136Z</time></trkpt><trkpt lat="45.2991128" lon="10.719931"><ele>46.0</ele><time>2026-05-02T07:22:11.136Z</time></trkpt><trkpt lat="45.2991716" lon="10.7198632"><ele>46.5</ele><time>2026-05-02T07:22:13.137Z</time></trkpt><trkpt lat="45.2992278" lon="10.719791"><ele>47.0</ele><time>2026-05-02T07:22:15.137Z</time></trkpt><trkpt lat="45.2992829" lon="10.7197194"><ele>47.0</ele><time>2026-05-02T07:22:17.137Z</time></trkpt><trkpt lat="45.2993384" lon="10.7196461"><ele>47.0</ele><time>2026-05-02T07:22:19.136Z</time></trkpt><trkpt lat="45.2993979" lon="10.7195752"><ele>47.0</ele><time>2026-05-02T07:22:21.136Z</time></trkpt><trkpt lat="45.2994559" lon="10.7195015"><ele>47.0</ele><time>2026-05-02T07:22:23.136Z</time></trkpt><trkpt lat="45.2995152" lon="10.7194265"><ele>47.0</ele><time>2026-05-02T07:22:25.136Z</time></trkpt><trkpt lat="45.2995734" lon="10.7193506"><ele>47.0</ele><time>2026-05-02T07:22:27.137Z</time></trkpt><trkpt lat="45.2996308" lon="10.7192743"><ele>46.666666666666664</ele><time>2026-05-02T07:22:29.137Z</time></trkpt><trkpt lat="45.2996893" lon="10.7191954"><ele>46.33333333333333</ele><time>2026-05-02T07:22:31.135Z</time></trkpt><trkpt lat="45.2997492" lon="10.7191173"><ele>46.0</ele><time>2026-05-02T07:22:33.136Z</time></trkpt><trkpt lat="45.2998078" lon="10.7190379"><ele>45.666666666666664</ele><time>2026-05-02T07:22:35.137Z</time></trkpt><trkpt lat="45.2998742" lon="10.7189644"><ele>45.333333333333336</ele><time>2026-05-02T07:22:37.136Z</time></trkpt><trkpt lat="45.2999373" lon="10.7188839"><ele>45.0</ele><time>2026-05-02T07:22:39.136Z</time></trkpt><trkpt lat="45.3000014" lon="10.7188028"><ele>45.0</ele><time>2026-05-02T07:22:41.137Z</time></trkpt><trkpt lat="45.3000636" lon="10.7187189"><ele>45.0</ele><time>2026-05-02T07:22:43.136Z</time></trkpt><trkpt lat="45.3001242" lon="10.7186363"><ele>45.0</ele><time>2026-05-02T07:22:45.137Z</time></trkpt><trkpt lat="45.3001897" lon="10.7185548"><ele>45.0</ele><time>2026-05-02T07:22:47.136Z</time></trkpt><trkpt lat="45.3002588" lon="10.7184746"><ele>45.0</ele><time>2026-05-02T07:22:49.137Z</time></trkpt><trkpt lat="45.300326" lon="10.7183895"><ele>45.0</ele><time>2026-05-02T07:22:51.136Z</time></trkpt><trkpt lat="45.3003893" lon="10.7183027"><ele>44.833333333333336</ele><time>2026-05-02T07:22:53.137Z</time></trkpt><trkpt lat="45.3004487" lon="10.7182227"><ele>44.666666666666664</ele><time>2026-05-02T07:22:55.137Z</time></trkpt><trkpt lat="45.3005047" lon="10.7181235"><ele>44.5</ele><time>2026-05-02T07:22:57.137Z</time></trkpt><trkpt lat="45.3005645" lon="10.7180389"><ele>44.33333333333333</ele><time>2026-05-02T07:22:59.135Z</time></trkpt><trkpt lat="45.3006271" lon="10.717955"><ele>44.166666666666664</ele><time>2026-05-02T07:23:01.137Z</time></trkpt><trkpt lat="45.3006792" lon="10.7178698"><ele>44.0</ele><time>2026-05-02T07:23:03.135Z</time></trkpt><trkpt lat="45.3007378" lon="10.7177796"><ele>44.0</ele><time>2026-05-02T07:23:05.137Z</time></trkpt><trkpt lat="45.3007968" lon="10.7176847"><ele>44.0</ele><time>2026-05-02T07:23:07.137Z</time></trkpt><trkpt lat="45.3008582" lon="10.7175907"><ele>44.0</ele><time>2026-05-02T07:23:09.136Z</time></trkpt><trkpt lat="45.3009148" lon="10.7175005"><ele>44.0</ele><time>2026-05-02T07:23:11.137Z</time></trkpt><trkpt lat="45.3009638" lon="10.7174082"><ele>44.0</ele><time>2026-05-02T07:23:13.136Z</time></trkpt><trkpt lat="45.3010137" lon="10.71732"><ele>44.0</ele><time>2026-05-02T07:23:15.137Z</time></trkpt><trkpt lat="45.3010691" lon="10.7172413"><ele>44.0</ele><time>2026-05-02T07:23:17.136Z</time></trkpt><trkpt lat="45.3011205" lon="10.717154"><ele>44.0</ele><time>2026-05-02T07:23:19.137Z</time></trkpt><trkpt lat="45.3011676" lon="10.7170716"><ele>44.0</ele><time>2026-05-02T07:23:21.137Z</time></trkpt><trkpt lat="45.301212" lon="10.7169901"><ele>44.0</ele><time>2026-05-02T07:23:23.136Z</time></trkpt><trkpt lat="45.3012532" lon="10.7169157"><ele>44.0</ele><time>2026-05-02T07:23:25.136Z</time></trkpt><trkpt lat="45.3013022" lon="10.7168428"><ele>44.0</ele><time>2026-05-02T07:23:27.136Z</time></trkpt><trkpt lat="45.3013501" lon="10.716758"><ele>44.0</ele><time>2026-05-02T07:23:29.137Z</time></trkpt><trkpt lat="45.3013959" lon="10.716668"><ele>44.166666666666664</ele><time>2026-05-02T07:23:31.135Z</time></trkpt><trkpt lat="45.3014454" lon="10.71658"><ele>44.33333333333333</ele><time>2026-05-02T07:23:33.136Z</time></trkpt><trkpt lat="45.3014939" lon="10.7164897"><ele>44.5</ele><time>2026-05-02T07:23:35.137Z</time></trkpt><trkpt lat="45.3015404" lon="10.7163993"><ele>44.666666666666664</ele><time>2026-05-02T07:23:37.137Z</time></trkpt><trkpt lat="45.3015848" lon="10.7163086"><ele>44.833333333333336</ele><time>2026-05-02T07:23:39.136Z</time></trkpt><trkpt lat="45.3016297" lon="10.7162193"><ele>45.0</ele><time>2026-05-02T07:23:41.137Z</time></trkpt><trkpt lat="45.3016756" lon="10.7161312"><ele>44.833333333333336</ele><time>2026-05-02T07:23:43.137Z</time></trkpt><trkpt lat="45.3017194" lon="10.7160385"><ele>44.666666666666664</ele><time>2026-05-02T07:23:45.135Z</time></trkpt><trkpt lat="45.3017604" lon="10.7159379"><ele>44.5</ele><time>2026-05-02T07:23:47.137Z</time></trkpt><trkpt lat="45.3018038" lon="10.7158372"><ele>44.33333333333333</ele><time>2026-05-02T07:23:49.136Z</time></trkpt><trkpt lat="45.3018588" lon="10.7157492"><ele>44.166666666666664</ele><time>2026-05-02T07:23:51.137Z</time></trkpt><trkpt lat="45.3019056" lon="10.7156483"><ele>44.0</ele><time>2026-05-02T07:23:53.136Z</time></trkpt><trkpt lat="45.3019514" lon="10.7155493"><ele>44.0</ele><time>2026-05-02T07:23:55.136Z</time></trkpt><trkpt lat="45.3020009" lon="10.7154513"><ele>44.0</ele><time>2026-05-02T07:23:57.137Z</time></trkpt><trkpt lat="45.3020494" lon="10.7153479"><ele>44.0</ele><time>2026-05-02T07:23:59.137Z</time></trkpt><trkpt lat="45.3020952" lon="10.7152455"><ele>44.0</ele><time>2026-05-02T07:24:01.136Z</time></trkpt><trkpt lat="45.3021424" lon="10.7151484"><ele>44.0</ele><time>2026-05-02T07:24:03.137Z</time></trkpt><trkpt lat="45.3021873" lon="10.7150511"><ele>44.0</ele><time>2026-05-02T07:24:05.136Z</time></trkpt><trkpt lat="45.3022313" lon="10.7149506"><ele>44.0</ele><time>2026-05-02T07:24:07.137Z</time></trkpt><trkpt lat="45.3022742" lon="10.7148485"><ele>44.0</ele><time>2026-05-02T07:24:09.137Z</time></trkpt><trkpt lat="45.3023216" lon="10.7147512"><ele>44.0</ele><time>2026-05-02T07:24:11.136Z</time></trkpt><trkpt lat="45.3023681" lon="10.714652"><ele>44.0</ele><time>2026-05-02T07:24:13.137Z</time></trkpt><trkpt lat="45.3024111" lon="10.7145489"><ele>44.0</ele><time>2026-05-02T07:24:15.137Z</time></trkpt><trkpt lat="45.3024547" lon="10.7144454"><ele>44.0</ele><time>2026-05-02T07:24:17.137Z</time></trkpt><trkpt lat="45.3024987" lon="10.714341"><ele>43.666666666666664</ele><time>2026-05-02T07:24:19.137Z</time></trkpt><trkpt lat="45.3025431" lon="10.7142379"><ele>43.33333333333333</ele><time>2026-05-02T07:24:21.136Z</time></trkpt><trkpt lat="45.3025855" lon="10.7141396"><ele>43.0</ele><time>2026-05-02T07:24:23.137Z</time></trkpt><trkpt lat="45.3026276" lon="10.714037"><ele>42.666666666666664</ele><time>2026-05-02T07:24:25.136Z</time></trkpt><trkpt lat="45.3026694" lon="10.7139291"><ele>42.333333333333336</ele><time>2026-05-02T07:24:27.137Z</time></trkpt><trkpt lat="45.3027128" lon="10.7138185"><ele>42.0</ele><time>2026-05-02T07:24:29.137Z</time></trkpt><trkpt lat="45.3027569" lon="10.7137085"><ele>42.0</ele><time>2026-05-02T07:24:31.137Z</time></trkpt><trkpt lat="45.3027983" lon="10.7135973"><ele>42.0</ele><time>2026-05-02T07:24:33.137Z</time></trkpt><trkpt lat="45.3028377" lon="10.7134872"><ele>42.0</ele><time>2026-05-02T07:24:35.136Z</time></trkpt><trkpt lat="45.3028747" lon="10.7133743"><ele>42.0</ele><time>2026-05-02T07:24:37.137Z</time></trkpt><trkpt lat="45.3029145" lon="10.7132635"><ele>42.0</ele><time>2026-05-02T07:24:39.136Z</time></trkpt><trkpt lat="45.30295" lon="10.7131508"><ele>42.0</ele><time>2026-05-02T07:24:41.137Z</time></trkpt><trkpt lat="45.302986" lon="10.7130429"><ele>42.0</ele><time>2026-05-02T07:24:43.135Z</time></trkpt><trkpt lat="45.3030204" lon="10.7129363"><ele>42.0</ele><time>2026-05-02T07:24:45.137Z</time></trkpt><trkpt lat="45.3030516" lon="10.7128267"><ele>42.0</ele><time>2026-05-02T07:24:47.136Z</time></trkpt><trkpt lat="45.303089" lon="10.7127167"><ele>42.0</ele><time>2026-05-02T07:24:49.135Z</time></trkpt><trkpt lat="45.303125" lon="10.7126022"><ele>42.0</ele><time>2026-05-02T07:24:51.137Z</time></trkpt><trkpt lat="45.3031567" lon="10.7124897"><ele>42.0</ele><time>2026-05-02T07:24:53.137Z</time></trkpt><trkpt lat="45.3031846" lon="10.7123761"><ele>42.333333333333336</ele><time>2026-05-02T07:24:55.137Z</time></trkpt><trkpt lat="45.3032148" lon="10.7122638"><ele>42.666666666666664</ele><time>2026-05-02T07:24:57.134Z</time></trkpt><trkpt lat="45.3032413" lon="10.7121538"><ele>43.0</ele><time>2026-05-02T07:24:59.136Z</time></trkpt><trkpt lat="45.3032703" lon="10.7120446"><ele>43.33333333333333</ele><time>2026-05-02T07:25:01.135Z</time></trkpt><trkpt lat="45.3032991" lon="10.7119316"><ele>43.666666666666664</ele><time>2026-05-02T07:25:03.135Z</time></trkpt><trkpt lat="45.3033262" lon="10.7118177"><ele>44.0</ele><time>2026-05-02T07:25:05.135Z</time></trkpt><trkpt lat="45.3033503" lon="10.7117035"><ele>44.0</ele><time>2026-05-02T07:25:07.134Z</time></trkpt><trkpt lat="45.3033734" lon="10.7115865"><ele>44.0</ele><time>2026-05-02T07:25:09.135Z</time></trkpt><trkpt lat="45.3033965" lon="10.7114662"><ele>44.0</ele><time>2026-05-02T07:25:11.136Z</time></trkpt><trkpt lat="45.3034181" lon="10.7113446"><ele>44.0</ele><time>2026-05-02T07:25:13.136Z</time></trkpt><trkpt lat="45.3034401" lon="10.7112231"><ele>44.0</ele><time>2026-05-02T07:25:15.136Z</time></trkpt><trkpt lat="45.3034633" lon="10.7111038"><ele>44.0</ele><time>2026-05-02T07:25:17.134Z</time></trkpt><trkpt lat="45.3034856" lon="10.7109845"><ele>44.0</ele><time>2026-05-02T07:25:19.135Z</time></trkpt><trkpt lat="45.3035082" lon="10.7108634"><ele>44.0</ele><time>2026-05-02T07:25:21.136Z</time></trkpt><trkpt lat="45.3035297" lon="10.7107426"><ele>44.0</ele><time>2026-05-02T07:25:23.135Z</time></trkpt><trkpt lat="45.3035447" lon="10.710623"><ele>44.0</ele><time>2026-05-02T07:25:25.135Z</time></trkpt><trkpt lat="45.3035598" lon="10.7105067"><ele>44.0</ele><time>2026-05-02T07:25:27.134Z</time></trkpt><trkpt lat="45.3035723" lon="10.7103909"><ele>44.0</ele><time>2026-05-02T07:25:29.135Z</time></trkpt><trkpt lat="45.3035832" lon="10.7102756"><ele>43.83333333333333</ele><time>2026-05-02T07:25:31.136Z</time></trkpt><trkpt lat="45.3035973" lon="10.7101596"><ele>43.666666666666664</ele><time>2026-05-02T07:25:33.135Z</time></trkpt><trkpt lat="45.3036097" lon="10.7100422"><ele>43.5</ele><time>2026-05-02T07:25:35.135Z</time></trkpt><trkpt lat="45.3036237" lon="10.709923"><ele>43.333333333333336</ele><time>2026-05-02T07:25:37.135Z</time></trkpt><trkpt lat="45.3036379" lon="10.7098052"><ele>43.16666666666667</ele><time>2026-05-02T07:25:39.134Z</time></trkpt><trkpt lat="45.3036495" lon="10.7096869"><ele>43.0</ele><time>2026-05-02T07:25:41.136Z</time></trkpt><trkpt lat="45.3036592" lon="10.7095683"><ele>43.0</ele><time>2026-05-02T07:25:43.135Z</time></trkpt><trkpt lat="45.303669" lon="10.7094452"><ele>43.0</ele><time>2026-05-02T07:25:45.135Z</time></trkpt><trkpt lat="45.3036768" lon="10.7093227"><ele>43.0</ele><time>2026-05-02T07:25:47.136Z</time></trkpt><trkpt lat="45.303683" lon="10.7092018"><ele>43.0</ele><time>2026-05-02T07:25:49.135Z</time></trkpt><trkpt lat="45.3036887" lon="10.7090918"><ele>43.0</ele><time>2026-05-02T07:25:51.136Z</time></trkpt><trkpt lat="45.303698" lon="10.7089789"><ele>43.0</ele><time>2026-05-02T07:25:53.135Z</time></trkpt><trkpt lat="45.3037116" lon="10.7088735"><ele>43.0</ele><time>2026-05-02T07:25:55.136Z</time></trkpt><trkpt lat="45.3037188" lon="10.7087659"><ele>43.0</ele><time>2026-05-02T07:25:57.136Z</time></trkpt><trkpt lat="45.3037313" lon="10.7085951"><ele>43.0</ele><time>2026-05-02T07:26:00.14Z</time></trkpt><trkpt lat="45.3037306" lon="10.7084931"><ele>43.0</ele><time>2026-05-02T07:26:02.14Z</time></trkpt><trkpt lat="45.3037357" lon="10.7083949"><ele>43.0</ele><time>2026-05-02T07:26:04.138Z</time></trkpt><trkpt lat="45.3037483" lon="10.7082997"><ele>43.0</ele><time>2026-05-02T07:26:06.139Z</time></trkpt><trkpt lat="45.3037645" lon="10.7081778"><ele>43.00000000000001</ele><time>2026-05-02T07:26:09.13Z</time></trkpt><trkpt lat="45.3037793" lon="10.7080874"><ele>43.0</ele><time>2026-05-02T07:26:13.107Z</time></trkpt><trkpt lat="45.3037629" lon="10.7079802"><ele>43.0</ele><time>2026-05-02T07:26:18.091Z</time></trkpt><trkpt lat="45.3037363" lon="10.7078675"><ele>43.0</ele><time>2026-05-02T07:26:38.143Z</time></trkpt><trkpt lat="45.3037299" lon="10.7077779"><ele>43.0</ele><time>2026-05-02T07:26:41.132Z</time></trkpt><trkpt lat="45.3037318" lon="10.707657"><ele>43.00000000000001</ele><time>2026-05-02T07:26:44.135Z</time></trkpt><trkpt lat="45.3037325" lon="10.7075665"><ele>43.0</ele><time>2026-05-02T07:26:46.134Z</time></trkpt><trkpt lat="45.3037311" lon="10.7074684"><ele>43.00000000000001</ele><time>2026-05-02T07:26:48.137Z</time></trkpt><trkpt lat="45.3037307" lon="10.7073677"><ele>43.0</ele><time>2026-05-02T07:26:50.141Z</time></trkpt><trkpt lat="45.3037292" lon="10.707264"><ele>43.0</ele><time>2026-05-02T07:26:52.141Z</time></trkpt><trkpt lat="45.3037261" lon="10.7071633"><ele>43.0</ele><time>2026-05-02T07:26:54.137Z</time></trkpt><trkpt lat="45.3037239" lon="10.7070673"><ele>43.0</ele><time>2026-05-02T07:26:56.143Z</time></trkpt><trkpt lat="45.303719" lon="10.7069715"><ele>43.00000000000001</ele><time>2026-05-02T07:26:58.14Z</time></trkpt><trkpt lat="45.3037159" lon="10.7068747"><ele>43.0</ele><time>2026-05-02T07:27:00.137Z</time></trkpt><trkpt lat="45.3037122" lon="10.7067821"><ele>42.833333333333336</ele><time>2026-05-02T07:27:02.142Z</time></trkpt><trkpt lat="45.303705" lon="10.7066856"><ele>42.66666666666667</ele><time>2026-05-02T07:27:04.14Z</time></trkpt><trkpt lat="45.3036999" lon="10.7065845"><ele>42.5</ele><time>2026-05-02T07:27:06.143Z</time></trkpt><trkpt lat="45.3036934" lon="10.7064823"><ele>42.333333333333336</ele><time>2026-05-02T07:27:08.131Z</time></trkpt><trkpt lat="45.3036841" lon="10.7063732"><ele>42.166666666666664</ele><time>2026-05-02T07:27:10.136Z</time></trkpt><trkpt lat="45.3036756" lon="10.7062517"><ele>42.0</ele><time>2026-05-02T07:27:12.132Z</time></trkpt><trkpt lat="45.3036661" lon="10.7061271"><ele>42.0</ele><time>2026-05-02T07:27:14.131Z</time></trkpt><trkpt lat="45.3036582" lon="10.7060007"><ele>42.0</ele><time>2026-05-02T07:27:16.136Z</time></trkpt><trkpt lat="45.3036521" lon="10.7058728"><ele>42.0</ele><time>2026-05-02T07:27:18.138Z</time></trkpt><trkpt lat="45.3036468" lon="10.705742"><ele>42.0</ele><time>2026-05-02T07:27:20.142Z</time></trkpt><trkpt lat="45.3036387" lon="10.7056172"><ele>42.0</ele><time>2026-05-02T07:27:22.139Z</time></trkpt><trkpt lat="45.3036365" lon="10.7054894"><ele>42.0</ele><time>2026-05-02T07:27:24.134Z</time></trkpt><trkpt lat="45.3036395" lon="10.7053604"><ele>42.0</ele><time>2026-05-02T07:27:26.135Z</time></trkpt><trkpt lat="45.3036434" lon="10.7052342"><ele>42.0</ele><time>2026-05-02T07:27:28.143Z</time></trkpt><trkpt lat="45.3036555" lon="10.7051035"><ele>42.0</ele><time>2026-05-02T07:27:30.138Z</time></trkpt><trkpt lat="45.3036686" lon="10.7049805"><ele>42.0</ele><time>2026-05-02T07:27:32.132Z</time></trkpt><trkpt lat="45.3036842" lon="10.7048534"><ele>42.333333333333336</ele><time>2026-05-02T07:27:34.13Z</time></trkpt><trkpt lat="45.3037105" lon="10.7047293"><ele>42.666666666666664</ele><time>2026-05-02T07:27:36.14Z</time></trkpt><trkpt lat="45.30373" lon="10.7046076"><ele>43.0</ele><time>2026-05-02T07:27:38.143Z</time></trkpt><trkpt lat="45.3037527" lon="10.7044863"><ele>43.33333333333333</ele><time>2026-05-02T07:27:40.142Z</time></trkpt><trkpt lat="45.3037809" lon="10.7043647"><ele>43.666666666666664</ele><time>2026-05-02T07:27:42.136Z</time></trkpt><trkpt lat="45.303804" lon="10.7042443"><ele>44.0</ele><time>2026-05-02T07:27:44.141Z</time></trkpt><trkpt lat="45.3038336" lon="10.7041234"><ele>44.0</ele><time>2026-05-02T07:27:46.131Z</time></trkpt><trkpt lat="45.3038696" lon="10.7040077"><ele>44.0</ele><time>2026-05-02T07:27:48.14Z</time></trkpt><trkpt lat="45.3039056" lon="10.7038914"><ele>44.0</ele><time>2026-05-02T07:27:50.139Z</time></trkpt><trkpt lat="45.3039473" lon="10.7037773"><ele>44.0</ele><time>2026-05-02T07:27:52.135Z</time></trkpt><trkpt lat="45.30399" lon="10.703658"><ele>44.0</ele><time>2026-05-02T07:27:54.138Z</time></trkpt><trkpt lat="45.3040368" lon="10.7035413"><ele>43.800000000000004</ele><time>2026-05-02T07:27:56.132Z</time></trkpt><trkpt lat="45.3040861" lon="10.7034275"><ele>43.6</ele><time>2026-05-02T07:27:58.144Z</time></trkpt><trkpt lat="45.3041404" lon="10.703325"><ele>43.4</ele><time>2026-05-02T07:28:00.132Z</time></trkpt><trkpt lat="45.3041986" lon="10.7032281"><ele>43.2</ele><time>2026-05-02T07:28:02.142Z</time></trkpt><trkpt lat="45.3042628" lon="10.7031343"><ele>43.0</ele><time>2026-05-02T07:28:04.136Z</time></trkpt><trkpt lat="45.3043271" lon="10.7030427"><ele>43.0</ele><time>2026-05-02T07:28:06.132Z</time></trkpt><trkpt lat="45.3043905" lon="10.7029544"><ele>43.0</ele><time>2026-05-02T07:28:08.141Z</time></trkpt><trkpt lat="45.3044514" lon="10.7028625"><ele>43.0</ele><time>2026-05-02T07:28:10.133Z</time></trkpt><trkpt lat="45.3045105" lon="10.7027649"><ele>43.0</ele><time>2026-05-02T07:28:12.139Z</time></trkpt><trkpt lat="45.3045677" lon="10.7026667"><ele>43.0</ele><time>2026-05-02T07:28:14.134Z</time></trkpt><trkpt lat="45.3046218" lon="10.7025691"><ele>43.0</ele><time>2026-05-02T07:28:16.133Z</time></trkpt><trkpt lat="45.3046745" lon="10.7024695"><ele>43.16666666666667</ele><time>2026-05-02T07:28:18.13Z</time></trkpt><trkpt lat="45.3047264" lon="10.7023717"><ele>43.333333333333336</ele><time>2026-05-02T07:28:20.132Z</time></trkpt><trkpt lat="45.3047753" lon="10.7022794"><ele>43.5</ele><time>2026-05-02T07:28:22.133Z</time></trkpt><trkpt lat="45.3048214" lon="10.702191"><ele>43.666666666666664</ele><time>2026-05-02T07:28:24.132Z</time></trkpt><trkpt lat="45.304865" lon="10.7021115"><ele>43.83333333333333</ele><time>2026-05-02T07:28:26.142Z</time></trkpt><trkpt lat="45.304905" lon="10.7020309"><ele>44.0</ele><time>2026-05-02T07:28:28.135Z</time></trkpt><trkpt lat="45.3049473" lon="10.7019479"><ele>43.85714285714286</ele><time>2026-05-02T07:28:30.144Z</time></trkpt><trkpt lat="45.3049867" lon="10.7018609"><ele>43.714285714285715</ele><time>2026-05-02T07:28:32.133Z</time></trkpt><trkpt lat="45.3050247" lon="10.7017781"><ele>43.57142857142857</ele><time>2026-05-02T07:28:34.139Z</time></trkpt><trkpt lat="45.3050661" lon="10.7016992"><ele>43.42857142857143</ele><time>2026-05-02T07:28:36.139Z</time></trkpt><trkpt lat="45.3051076" lon="10.701622"><ele>43.285714285714285</ele><time>2026-05-02T07:28:38.131Z</time></trkpt><trkpt lat="45.3051522" lon="10.7015494"><ele>43.142857142857146</ele><time>2026-05-02T07:28:40.13Z</time></trkpt><trkpt lat="45.305199" lon="10.7014778"><ele>43.0</ele><time>2026-05-02T07:28:42.131Z</time></trkpt><trkpt lat="45.3052538" lon="10.701414"><ele>43.0</ele><time>2026-05-02T07:28:44.14Z</time></trkpt><trkpt lat="45.3053116" lon="10.70135"><ele>43.0</ele><time>2026-05-02T07:28:46.141Z</time></trkpt><trkpt lat="45.3053672" lon="10.7012927"><ele>43.0</ele><time>2026-05-02T07:28:48.137Z</time></trkpt><trkpt lat="45.3054259" lon="10.7012423"><ele>43.0</ele><time>2026-05-02T07:28:50.135Z</time></trkpt><trkpt lat="45.3054928" lon="10.701185"><ele>43.0</ele><time>2026-05-02T07:28:52.139Z</time></trkpt><trkpt lat="45.3055681" lon="10.7011304"><ele>43.0</ele><time>2026-05-02T07:28:54.137Z</time></trkpt><trkpt lat="45.3056441" lon="10.7010821"><ele>43.16666666666667</ele><time>2026-05-02T07:28:56.142Z</time></trkpt><trkpt lat="45.3057189" lon="10.7010375"><ele>43.333333333333336</ele><time>2026-05-02T07:28:58.143Z</time></trkpt><trkpt lat="45.3057934" lon="10.7009978"><ele>43.5</ele><time>2026-05-02T07:29:00.136Z</time></trkpt><trkpt lat="45.30587" lon="10.7009596"><ele>43.666666666666664</ele><time>2026-05-02T07:29:02.139Z</time></trkpt><trkpt lat="45.3059499" lon="10.7009362"><ele>43.83333333333333</ele><time>2026-05-02T07:29:04.135Z</time></trkpt><trkpt lat="45.3060287" lon="10.7009197"><ele>44.0</ele><time>2026-05-02T07:29:06.132Z</time></trkpt><trkpt lat="45.3061093" lon="10.7009129"><ele>44.0</ele><time>2026-05-02T07:29:08.132Z</time></trkpt><trkpt lat="45.3061912" lon="10.7009091"><ele>44.0</ele><time>2026-05-02T07:29:10.141Z</time></trkpt><trkpt lat="45.3062731" lon="10.7009093"><ele>44.0</ele><time>2026-05-02T07:29:12.14Z</time></trkpt><trkpt lat="45.3063551" lon="10.7009043"><ele>44.0</ele><time>2026-05-02T07:29:14.136Z</time></trkpt><trkpt lat="45.3064393" lon="10.7009064"><ele>44.0</ele><time>2026-05-02T07:29:16.132Z</time></trkpt><trkpt lat="45.3065247" lon="10.7009065"><ele>44.0</ele><time>2026-05-02T07:29:18.131Z</time></trkpt><trkpt lat="45.3066087" lon="10.7009103"><ele>44.33333333333333</ele><time>2026-05-02T07:29:20.136Z</time></trkpt><trkpt lat="45.3066923" lon="10.7009148"><ele>44.666666666666664</ele><time>2026-05-02T07:29:22.138Z</time></trkpt><trkpt lat="45.3067742" lon="10.7009247"><ele>45.0</ele><time>2026-05-02T07:29:24.137Z</time></trkpt><trkpt lat="45.3068553" lon="10.700933"><ele>45.333333333333336</ele><time>2026-05-02T07:29:26.13Z</time></trkpt><trkpt lat="45.3069372" lon="10.7009383"><ele>45.66666666666667</ele><time>2026-05-02T07:29:28.137Z</time></trkpt><trkpt lat="45.3070252" lon="10.7009436"><ele>46.0</ele><time>2026-05-02T07:29:30.136Z</time></trkpt><trkpt lat="45.3071081" lon="10.7009464"><ele>46.0</ele><time>2026-05-02T07:29:32.135Z</time></trkpt><trkpt lat="45.307186" lon="10.7009561"><ele>46.0</ele><time>2026-05-02T07:29:34.142Z</time></trkpt><trkpt lat="45.307261" lon="10.700964"><ele>46.0</ele><time>2026-05-02T07:29:36.139Z</time></trkpt><trkpt lat="45.3073398" lon="10.7009731"><ele>46.0</ele><time>2026-05-02T07:29:38.141Z</time></trkpt><trkpt lat="45.3074209" lon="10.7009863"><ele>46.0</ele><time>2026-05-02T07:29:40.139Z</time></trkpt><trkpt lat="45.3075015" lon="10.7010089"><ele>46.0</ele><time>2026-05-02T07:29:42.137Z</time></trkpt><trkpt lat="45.3075796" lon="10.7010334"><ele>46.0</ele><time>2026-05-02T07:29:44.133Z</time></trkpt><trkpt lat="45.3076546" lon="10.7010545"><ele>46.0</ele><time>2026-05-02T07:29:46.139Z</time></trkpt><trkpt lat="45.3077278" lon="10.7010843"><ele>46.0</ele><time>2026-05-02T07:29:48.13Z</time></trkpt><trkpt lat="45.3078025" lon="10.7011141"><ele>46.0</ele><time>2026-05-02T07:29:50.134Z</time></trkpt><trkpt lat="45.3078788" lon="10.7011408"><ele>46.0</ele><time>2026-05-02T07:29:52.134Z</time></trkpt><trkpt lat="45.3079544" lon="10.7011719"><ele>46.0</ele><time>2026-05-02T07:29:54.131Z</time></trkpt><trkpt lat="45.3080317" lon="10.7012088"><ele>46.0</ele><time>2026-05-02T07:29:56.143Z</time></trkpt><trkpt lat="45.3081111" lon="10.701244"><ele>46.0</ele><time>2026-05-02T07:29:58.138Z</time></trkpt><trkpt lat="45.3081879" lon="10.7012751"><ele>46.0</ele><time>2026-05-02T07:30:00.131Z</time></trkpt><trkpt lat="45.3082637" lon="10.7013111"><ele>46.0</ele><time>2026-05-02T07:30:02.137Z</time></trkpt><trkpt lat="45.3083411" lon="10.7013461"><ele>46.0</ele><time>2026-05-02T07:30:04.13Z</time></trkpt><trkpt lat="45.3084209" lon="10.7013895"><ele>46.0</ele><time>2026-05-02T07:30:06.143Z</time></trkpt><trkpt lat="45.3085011" lon="10.7014288"><ele>46.0</ele><time>2026-05-02T07:30:08.138Z</time></trkpt><trkpt lat="45.3085767" lon="10.7014681"><ele>46.0</ele><time>2026-05-02T07:30:10.138Z</time></trkpt><trkpt lat="45.3086537" lon="10.7015091"><ele>46.0</ele><time>2026-05-02T07:30:12.141Z</time></trkpt><trkpt lat="45.3087321" lon="10.7015502"><ele>46.0</ele><time>2026-05-02T07:30:14.141Z</time></trkpt><trkpt lat="45.3088099" lon="10.70159"><ele>46.0</ele><time>2026-05-02T07:30:16.134Z</time></trkpt><trkpt lat="45.308889" lon="10.7016258"><ele>46.0</ele><time>2026-05-02T07:30:18.134Z</time></trkpt><trkpt lat="45.3089665" lon="10.7016629"><ele>46.16666666666667</ele><time>2026-05-02T07:30:20.134Z</time></trkpt><trkpt lat="45.3090416" lon="10.7017038"><ele>46.333333333333336</ele><time>2026-05-02T07:30:22.138Z</time></trkpt><trkpt lat="45.3091171" lon="10.7017424"><ele>46.5</ele><time>2026-05-02T07:30:24.141Z</time></trkpt><trkpt lat="45.309194" lon="10.701781"><ele>46.666666666666664</ele><time>2026-05-02T07:30:26.136Z</time></trkpt><trkpt lat="45.3092717" lon="10.7018159"><ele>46.83333333333333</ele><time>2026-05-02T07:30:28.132Z</time></trkpt><trkpt lat="45.3093498" lon="10.7018578"><ele>47.0</ele><time>2026-05-02T07:30:30.133Z</time></trkpt><trkpt lat="45.3094263" lon="10.7018937"><ele>46.83333333333333</ele><time>2026-05-02T07:30:32.139Z</time></trkpt><trkpt lat="45.3095016" lon="10.70193"><ele>46.666666666666664</ele><time>2026-05-02T07:30:34.142Z</time></trkpt><trkpt lat="45.3095784" lon="10.701968"><ele>46.5</ele><time>2026-05-02T07:30:36.134Z</time></trkpt><trkpt lat="45.3096538" lon="10.7020033"><ele>46.333333333333336</ele><time>2026-05-02T07:30:38.143Z</time></trkpt><trkpt lat="45.3097245" lon="10.7020391"><ele>46.16666666666667</ele><time>2026-05-02T07:30:40.139Z</time></trkpt><trkpt lat="45.3097982" lon="10.7020694"><ele>46.0</ele><time>2026-05-02T07:30:42.137Z</time></trkpt><trkpt lat="45.310033" lon="10.7021522"><ele>46.0</ele><time>2026-05-02T07:30:49.042Z</time></trkpt><trkpt lat="45.3101239" lon="10.7021751"><ele>46.0</ele><time>2026-05-02T07:30:51.135Z</time></trkpt><trkpt lat="45.3101968" lon="10.7021807"><ele>46.0</ele><time>2026-05-02T07:30:53.135Z</time></trkpt><trkpt lat="45.3102702" lon="10.7021913"><ele>46.0</ele><time>2026-05-02T07:30:55.135Z</time></trkpt><trkpt lat="45.3103406" lon="10.7022074"><ele>46.0</ele><time>2026-05-02T07:30:57.136Z</time></trkpt><trkpt lat="45.3104083" lon="10.7022263"><ele>46.0</ele><time>2026-05-02T07:30:59.135Z</time></trkpt><trkpt lat="45.3104762" lon="10.7022503"><ele>46.0</ele><time>2026-05-02T07:31:01.134Z</time></trkpt><trkpt lat="45.3105391" lon="10.7022819"><ele>46.16666666666667</ele><time>2026-05-02T07:31:03.135Z</time></trkpt><trkpt lat="45.3106031" lon="10.7023232"><ele>46.333333333333336</ele><time>2026-05-02T07:31:05.135Z</time></trkpt><trkpt lat="45.3106609" lon="10.7023653"><ele>46.5</ele><time>2026-05-02T07:31:07.135Z</time></trkpt><trkpt lat="45.3107313" lon="10.7024244"><ele>46.666666666666664</ele><time>2026-05-02T07:31:10.136Z</time></trkpt><trkpt lat="45.3107927" lon="10.7024858"><ele>46.83333333333333</ele><time>2026-05-02T07:31:13.135Z</time></trkpt><trkpt lat="45.3108631" lon="10.7025479"><ele>47.0</ele><time>2026-05-02T07:31:16.135Z</time></trkpt><trkpt lat="45.3109392" lon="10.7026163"><ele>47.0</ele><time>2026-05-02T07:31:19.134Z</time></trkpt><trkpt lat="45.3110158" lon="10.7026663"><ele>47.0</ele><time>2026-05-02T07:31:22.135Z</time></trkpt><trkpt lat="45.3110723" lon="10.7027097"><ele>47.0</ele><time>2026-05-02T07:31:24.135Z</time></trkpt><trkpt lat="45.3111364" lon="10.7027549"><ele>47.0</ele><time>2026-05-02T07:31:26.135Z</time></trkpt><trkpt lat="45.3112039" lon="10.7028027"><ele>47.0</ele><time>2026-05-02T07:31:28.134Z</time></trkpt><trkpt lat="45.3112826" lon="10.7028506"><ele>47.0</ele><time>2026-05-02T07:31:30.134Z</time></trkpt><trkpt lat="45.3113655" lon="10.702898"><ele>46.6</ele><time>2026-05-02T07:31:32.134Z</time></trkpt><trkpt lat="45.3114516" lon="10.7029495"><ele>46.2</ele><time>2026-05-02T07:31:34.134Z</time></trkpt><trkpt lat="45.3115325" lon="10.7030237"><ele>45.8</ele><time>2026-05-02T07:31:36.133Z</time></trkpt><trkpt lat="45.3116173" lon="10.7030868"><ele>45.4</ele><time>2026-05-02T07:31:38.133Z</time></trkpt><trkpt lat="45.311704" lon="10.7031525"><ele>45.0</ele><time>2026-05-02T07:31:40.134Z</time></trkpt><trkpt lat="45.3117928" lon="10.7032192"><ele>45.0</ele><time>2026-05-02T07:31:42.135Z</time></trkpt><trkpt lat="45.3118816" lon="10.70329"><ele>45.0</ele><time>2026-05-02T07:31:44.134Z</time></trkpt><trkpt lat="45.3119684" lon="10.7033611"><ele>45.0</ele><time>2026-05-02T07:31:46.134Z</time></trkpt><trkpt lat="45.3120563" lon="10.7034359"><ele>45.0</ele><time>2026-05-02T07:31:48.134Z</time></trkpt><trkpt lat="45.3121411" lon="10.7035083"><ele>45.0</ele><time>2026-05-02T07:31:50.135Z</time></trkpt><trkpt lat="45.3122266" lon="10.7035711"><ele>45.166666666666664</ele><time>2026-05-02T07:31:52.134Z</time></trkpt><trkpt lat="45.3123068" lon="10.7036358"><ele>45.333333333333336</ele><time>2026-05-02T07:31:54.134Z</time></trkpt><trkpt lat="45.3123768" lon="10.7036955"><ele>45.5</ele><time>2026-05-02T07:31:56.133Z</time></trkpt><trkpt lat="45.3124446" lon="10.7037492"><ele>45.66666666666667</ele><time>2026-05-02T07:31:58.134Z</time></trkpt><trkpt lat="45.3125127" lon="10.7038002"><ele>45.833333333333336</ele><time>2026-05-02T07:32:00.134Z</time></trkpt><trkpt lat="45.3125743" lon="10.7038439"><ele>46.0</ele><time>2026-05-02T07:32:02.134Z</time></trkpt><trkpt lat="45.3126294" lon="10.703891"><ele>46.0</ele><time>2026-05-02T07:32:04.135Z</time></trkpt><trkpt lat="45.3127119" lon="10.7039542"><ele>46.0</ele><time>2026-05-02T07:32:07.134Z</time></trkpt><trkpt lat="45.3127813" lon="10.7040087"><ele>46.0</ele><time>2026-05-02T07:32:09.134Z</time></trkpt><trkpt lat="45.3128571" lon="10.7040685"><ele>46.0</ele><time>2026-05-02T07:32:11.135Z</time></trkpt><trkpt lat="45.3129307" lon="10.7041293"><ele>46.0</ele><time>2026-05-02T07:32:13.134Z</time></trkpt><trkpt lat="45.3130037" lon="10.7041861"><ele>46.0</ele><time>2026-05-02T07:32:15.134Z</time></trkpt><trkpt lat="45.3130798" lon="10.7042406"><ele>46.16666666666667</ele><time>2026-05-02T07:32:17.134Z</time></trkpt><trkpt lat="45.3131556" lon="10.7043003"><ele>46.333333333333336</ele><time>2026-05-02T07:32:19.135Z</time></trkpt><trkpt lat="45.3132323" lon="10.7043535"><ele>46.5</ele><time>2026-05-02T07:32:21.135Z</time></trkpt><trkpt lat="45.313307" lon="10.7044049"><ele>46.666666666666664</ele><time>2026-05-02T07:32:23.134Z</time></trkpt><trkpt lat="45.3133774" lon="10.7044612"><ele>46.83333333333333</ele><time>2026-05-02T07:32:25.134Z</time></trkpt><trkpt lat="45.3134458" lon="10.704516"><ele>47.0</ele><time>2026-05-02T07:32:27.135Z</time></trkpt><trkpt lat="45.3135139" lon="10.7045705"><ele>46.666666666666664</ele><time>2026-05-02T07:32:29.135Z</time></trkpt><trkpt lat="45.3135812" lon="10.704627"><ele>46.33333333333333</ele><time>2026-05-02T07:32:31.134Z</time></trkpt><trkpt lat="45.3136499" lon="10.7046772"><ele>46.0</ele><time>2026-05-02T07:32:33.135Z</time></trkpt><trkpt lat="45.3137214" lon="10.7047289"><ele>45.666666666666664</ele><time>2026-05-02T07:32:35.135Z</time></trkpt><trkpt lat="45.3137897" lon="10.7047839"><ele>45.333333333333336</ele><time>2026-05-02T07:32:37.134Z</time></trkpt><trkpt lat="45.313858" lon="10.7048372"><ele>45.0</ele><time>2026-05-02T07:32:39.135Z</time></trkpt><trkpt lat="45.3139289" lon="10.7048897"><ele>45.0</ele><time>2026-05-02T07:32:41.135Z</time></trkpt><trkpt lat="45.3139988" lon="10.7049422"><ele>45.0</ele><time>2026-05-02T07:32:43.134Z</time></trkpt><trkpt lat="45.3140715" lon="10.7049959"><ele>45.0</ele><time>2026-05-02T07:32:45.134Z</time></trkpt><trkpt lat="45.3141446" lon="10.7050481"><ele>45.0</ele><time>2026-05-02T07:32:47.135Z</time></trkpt><trkpt lat="45.3142155" lon="10.7051042"><ele>45.0</ele><time>2026-05-02T07:32:49.135Z</time></trkpt><trkpt lat="45.3142872" lon="10.7051594"><ele>45.0</ele><time>2026-05-02T07:32:51.135Z</time></trkpt><trkpt lat="45.3143581" lon="10.7052119"><ele>45.166666666666664</ele><time>2026-05-02T07:32:53.134Z</time></trkpt><trkpt lat="45.3144261" lon="10.7052694"><ele>45.333333333333336</ele><time>2026-05-02T07:32:55.135Z</time></trkpt><trkpt lat="45.3144977" lon="10.7053197"><ele>45.5</ele><time>2026-05-02T07:32:57.134Z</time></trkpt><trkpt lat="45.3145677" lon="10.7053797"><ele>45.66666666666667</ele><time>2026-05-02T07:32:59.133Z</time></trkpt><trkpt lat="45.3146401" lon="10.7054337"><ele>45.833333333333336</ele><time>2026-05-02T07:33:01.134Z</time></trkpt><trkpt lat="45.3147074" lon="10.7054933"><ele>46.0</ele><time>2026-05-02T07:33:03.134Z</time></trkpt><trkpt lat="45.3147759" lon="10.7055424"><ele>46.0</ele><time>2026-05-02T07:33:05.134Z</time></trkpt><trkpt lat="45.3148422" lon="10.7055959"><ele>46.0</ele><time>2026-05-02T07:33:07.133Z</time></trkpt><trkpt lat="45.3149093" lon="10.7056468"><ele>46.0</ele><time>2026-05-02T07:33:09.135Z</time></trkpt><trkpt lat="45.3149758" lon="10.7057036"><ele>46.0</ele><time>2026-05-02T07:33:11.135Z</time></trkpt><trkpt lat="45.3150461" lon="10.7057546"><ele>46.0</ele><time>2026-05-02T07:33:13.133Z</time></trkpt><trkpt lat="45.3151158" lon="10.7058099"><ele>46.0</ele><time>2026-05-02T07:33:15.134Z</time></trkpt><trkpt lat="45.3151864" lon="10.7058655"><ele>46.0</ele><time>2026-05-02T07:33:17.135Z</time></trkpt><trkpt lat="45.3152558" lon="10.7059197"><ele>46.0</ele><time>2026-05-02T07:33:19.134Z</time></trkpt><trkpt lat="45.3153245" lon="10.7059729"><ele>46.0</ele><time>2026-05-02T07:33:21.134Z</time></trkpt><trkpt lat="45.3153924" lon="10.7060275"><ele>46.0</ele><time>2026-05-02T07:33:23.135Z</time></trkpt><trkpt lat="45.3154602" lon="10.7060819"><ele>46.0</ele><time>2026-05-02T07:33:25.135Z</time></trkpt><trkpt lat="45.3155287" lon="10.7061321"><ele>46.0</ele><time>2026-05-02T07:33:27.134Z</time></trkpt><trkpt lat="45.3155925" lon="10.7061783"><ele>46.333333333333336</ele><time>2026-05-02T07:33:29.134Z</time></trkpt><trkpt lat="45.315654" lon="10.7062308"><ele>46.66666666666667</ele><time>2026-05-02T07:33:31.135Z</time></trkpt><trkpt lat="45.3157226" lon="10.7062831"><ele>47.0</ele><time>2026-05-02T07:33:33.133Z</time></trkpt><trkpt lat="45.3157907" lon="10.7063381"><ele>47.333333333333336</ele><time>2026-05-02T07:33:35.134Z</time></trkpt><trkpt lat="45.3158592" lon="10.7063915"><ele>47.666666666666664</ele><time>2026-05-02T07:33:37.134Z</time></trkpt><trkpt lat="45.3159284" lon="10.7064434"><ele>48.0</ele><time>2026-05-02T07:33:39.134Z</time></trkpt><trkpt lat="45.3159972" lon="10.7064947"><ele>47.99999999999999</ele><time>2026-05-02T07:33:41.134Z</time></trkpt><trkpt lat="45.3160609" lon="10.7065473"><ele>48.0</ele><time>2026-05-02T07:33:43.134Z</time></trkpt><trkpt lat="45.3161252" lon="10.7065973"><ele>48.0</ele><time>2026-05-02T07:33:45.134Z</time></trkpt><trkpt lat="45.3161913" lon="10.7066448"><ele>48.0</ele><time>2026-05-02T07:33:47.134Z</time></trkpt><trkpt lat="45.3162568" lon="10.7066939"><ele>48.0</ele><time>2026-05-02T07:33:49.135Z</time></trkpt><trkpt lat="45.3163209" lon="10.7067408"><ele>47.99999999999999</ele><time>2026-05-02T07:33:51.134Z</time></trkpt><trkpt lat="45.316386" lon="10.7067848"><ele>48.0</ele><time>2026-05-02T07:33:53.134Z</time></trkpt><trkpt lat="45.3164494" lon="10.7068335"><ele>47.833333333333336</ele><time>2026-05-02T07:33:55.134Z</time></trkpt><trkpt lat="45.3165135" lon="10.7068862"><ele>47.666666666666664</ele><time>2026-05-02T07:33:57.134Z</time></trkpt><trkpt lat="45.3165794" lon="10.7069378"><ele>47.5</ele><time>2026-05-02T07:33:59.133Z</time></trkpt><trkpt lat="45.3166476" lon="10.7069895"><ele>47.33333333333333</ele><time>2026-05-02T07:34:01.134Z</time></trkpt><trkpt lat="45.3167154" lon="10.7070447"><ele>47.166666666666664</ele><time>2026-05-02T07:34:03.134Z</time></trkpt><trkpt lat="45.3167855" lon="10.7070937"><ele>47.0</ele><time>2026-05-02T07:34:05.135Z</time></trkpt><trkpt lat="45.3168544" lon="10.7071449"><ele>47.0</ele><time>2026-05-02T07:34:07.133Z</time></trkpt><trkpt lat="45.3169204" lon="10.7071996"><ele>47.0</ele><time>2026-05-02T07:34:09.134Z</time></trkpt><trkpt lat="45.3169875" lon="10.7072474"><ele>47.0</ele><time>2026-05-02T07:34:11.134Z</time></trkpt><trkpt lat="45.3170493" lon="10.7072941"><ele>47.0</ele><time>2026-05-02T07:34:13.134Z</time></trkpt><trkpt lat="45.3171093" lon="10.7073428"><ele>47.0</ele><time>2026-05-02T07:34:15.134Z</time></trkpt><trkpt lat="45.3171718" lon="10.7073903"><ele>47.0</ele><time>2026-05-02T07:34:17.134Z</time></trkpt><trkpt lat="45.3172349" lon="10.7074378"><ele>47.0</ele><time>2026-05-02T07:34:19.135Z</time></trkpt><trkpt lat="45.3172963" lon="10.7074813"><ele>47.0</ele><time>2026-05-02T07:34:21.135Z</time></trkpt><trkpt lat="45.3173541" lon="10.707533"><ele>47.0</ele><time>2026-05-02T07:34:23.134Z</time></trkpt><trkpt lat="45.3174126" lon="10.7075804"><ele>47.0</ele><time>2026-05-02T07:34:25.134Z</time></trkpt><trkpt lat="45.3174722" lon="10.7076245"><ele>47.0</ele><time>2026-05-02T07:34:27.134Z</time></trkpt><trkpt lat="45.3175293" lon="10.7076709"><ele>47.0</ele><time>2026-05-02T07:34:29.134Z</time></trkpt><trkpt lat="45.3175858" lon="10.707712"><ele>47.0</ele><time>2026-05-02T07:34:31.135Z</time></trkpt><trkpt lat="45.3176428" lon="10.7077588"><ele>47.0</ele><time>2026-05-02T07:34:33.135Z</time></trkpt><trkpt lat="45.3177039" lon="10.7078031"><ele>47.0</ele><time>2026-05-02T07:34:35.135Z</time></trkpt><trkpt lat="45.3177676" lon="10.7078505"><ele>47.0</ele><time>2026-05-02T07:34:37.135Z</time></trkpt><trkpt lat="45.3178321" lon="10.7078979"><ele>47.0</ele><time>2026-05-02T07:34:39.135Z</time></trkpt><trkpt lat="45.3178977" lon="10.7079472"><ele>47.0</ele><time>2026-05-02T07:34:41.135Z</time></trkpt><trkpt lat="45.3179643" lon="10.7079989"><ele>47.0</ele><time>2026-05-02T07:34:43.133Z</time></trkpt><trkpt lat="45.3180311" lon="10.7080521"><ele>47.0</ele><time>2026-05-02T07:34:45.134Z</time></trkpt><trkpt lat="45.3180984" lon="10.7081006"><ele>47.0</ele><time>2026-05-02T07:34:47.133Z</time></trkpt><trkpt lat="45.3181636" lon="10.7081464"><ele>47.0</ele><time>2026-05-02T07:34:49.133Z</time></trkpt><trkpt lat="45.3182247" lon="10.7081962"><ele>47.0</ele><time>2026-05-02T07:34:51.135Z</time></trkpt><trkpt lat="45.3182873" lon="10.7082418"><ele>47.0</ele><time>2026-05-02T07:34:53.135Z</time></trkpt><trkpt lat="45.3183489" lon="10.7082949"><ele>47.0</ele><time>2026-05-02T07:34:55.135Z</time></trkpt><trkpt lat="45.3184123" lon="10.708344"><ele>47.0</ele><time>2026-05-02T07:34:57.135Z</time></trkpt><trkpt lat="45.3184776" lon="10.7083906"><ele>47.0</ele><time>2026-05-02T07:34:59.134Z</time></trkpt><trkpt lat="45.318544" lon="10.7084402"><ele>47.0</ele><time>2026-05-02T07:35:01.133Z</time></trkpt><trkpt lat="45.3186097" lon="10.7084925"><ele>47.0</ele><time>2026-05-02T07:35:03.133Z</time></trkpt><trkpt lat="45.3186751" lon="10.708543"><ele>47.0</ele><time>2026-05-02T07:35:05.135Z</time></trkpt><trkpt lat="45.3187395" lon="10.7085952"><ele>47.0</ele><time>2026-05-02T07:35:07.134Z</time></trkpt><trkpt lat="45.3188009" lon="10.7086475"><ele>47.0</ele><time>2026-05-02T07:35:09.134Z</time></trkpt><trkpt lat="45.3188625" lon="10.7086962"><ele>47.0</ele><time>2026-05-02T07:35:11.134Z</time></trkpt><trkpt lat="45.3189248" lon="10.7087437"><ele>47.0</ele><time>2026-05-02T07:35:13.135Z</time></trkpt><trkpt lat="45.318989" lon="10.7087858"><ele>47.0</ele><time>2026-05-02T07:35:15.135Z</time></trkpt><trkpt lat="45.3190501" lon="10.7088363"><ele>46.857142857142854</ele><time>2026-05-02T07:35:17.135Z</time></trkpt><trkpt lat="45.3191127" lon="10.7088864"><ele>46.71428571428571</ele><time>2026-05-02T07:35:19.134Z</time></trkpt><trkpt lat="45.3191733" lon="10.7089348"><ele>46.57142857142857</ele><time>2026-05-02T07:35:21.135Z</time></trkpt><trkpt lat="45.3192324" lon="10.7089807"><ele>46.42857142857143</ele><time>2026-05-02T07:35:23.134Z</time></trkpt><trkpt lat="45.3192926" lon="10.7090283"><ele>46.285714285714285</ele><time>2026-05-02T07:35:25.135Z</time></trkpt><trkpt lat="45.3193532" lon="10.7090745"><ele>46.142857142857146</ele><time>2026-05-02T07:35:27.134Z</time></trkpt><trkpt lat="45.3194116" lon="10.7091224"><ele>46.0</ele><time>2026-05-02T07:35:29.135Z</time></trkpt><trkpt lat="45.31947" lon="10.7091719"><ele>46.0</ele><time>2026-05-02T07:35:31.135Z</time></trkpt><trkpt lat="45.3195293" lon="10.7092208"><ele>46.0</ele><time>2026-05-02T07:35:33.135Z</time></trkpt><trkpt lat="45.3195885" lon="10.7092753"><ele>46.0</ele><time>2026-05-02T07:35:35.135Z</time></trkpt><trkpt lat="45.3196445" lon="10.7093356"><ele>46.0</ele><time>2026-05-02T07:35:37.135Z</time></trkpt><trkpt lat="45.3196992" lon="10.7093893"><ele>46.0</ele><time>2026-05-02T07:35:39.135Z</time></trkpt><trkpt lat="45.3197568" lon="10.7094468"><ele>46.0</ele><time>2026-05-02T07:35:41.134Z</time></trkpt><trkpt lat="45.3198146" lon="10.7095083"><ele>46.0</ele><time>2026-05-02T07:35:43.135Z</time></trkpt><trkpt lat="45.3198714" lon="10.7095713"><ele>46.285714285714285</ele><time>2026-05-02T07:35:45.135Z</time></trkpt><trkpt lat="45.3199286" lon="10.7096345"><ele>46.57142857142857</ele><time>2026-05-02T07:35:47.135Z</time></trkpt><trkpt lat="45.3199866" lon="10.7096982"><ele>46.857142857142854</ele><time>2026-05-02T07:35:49.135Z</time></trkpt><trkpt lat="45.3200414" lon="10.7097639"><ele>47.14285714285714</ele><time>2026-05-02T07:35:51.134Z</time></trkpt><trkpt lat="45.3200956" lon="10.7098272"><ele>47.42857142857143</ele><time>2026-05-02T07:35:53.135Z</time></trkpt><trkpt lat="45.3201498" lon="10.7098929"><ele>47.71428571428571</ele><time>2026-05-02T07:35:55.134Z</time></trkpt><trkpt lat="45.3202043" lon="10.7099627"><ele>48.0</ele><time>2026-05-02T07:35:57.135Z</time></trkpt><trkpt lat="45.3202583" lon="10.7100336"><ele>48.0</ele><time>2026-05-02T07:35:59.134Z</time></trkpt><trkpt lat="45.3203152" lon="10.7101047"><ele>48.0</ele><time>2026-05-02T07:36:01.134Z</time></trkpt><trkpt lat="45.320369" lon="10.7101791"><ele>48.0</ele><time>2026-05-02T07:36:03.135Z</time></trkpt><trkpt lat="45.320423" lon="10.7102554"><ele>48.0</ele><time>2026-05-02T07:36:05.135Z</time></trkpt><trkpt lat="45.3204738" lon="10.7103379"><ele>48.0</ele><time>2026-05-02T07:36:07.134Z</time></trkpt><trkpt lat="45.3205242" lon="10.7104222"><ele>48.0</ele><time>2026-05-02T07:36:09.134Z</time></trkpt><trkpt lat="45.3205767" lon="10.7105042"><ele>47.857142857142854</ele><time>2026-05-02T07:36:11.134Z</time></trkpt><trkpt lat="45.3206275" lon="10.7105851"><ele>47.714285714285715</ele><time>2026-05-02T07:36:13.135Z</time></trkpt><trkpt lat="45.3206753" lon="10.710661"><ele>47.57142857142857</ele><time>2026-05-02T07:36:15.134Z</time></trkpt><trkpt lat="45.3207229" lon="10.7107334"><ele>47.42857142857143</ele><time>2026-05-02T07:36:17.134Z</time></trkpt><trkpt lat="45.3207732" lon="10.7108077"><ele>47.285714285714285</ele><time>2026-05-02T07:36:19.135Z</time></trkpt><trkpt lat="45.3208233" lon="10.7108842"><ele>47.14285714285714</ele><time>2026-05-02T07:36:21.134Z</time></trkpt><trkpt lat="45.3208728" lon="10.7109593"><ele>47.0</ele><time>2026-05-02T07:36:23.134Z</time></trkpt><trkpt lat="45.3209211" lon="10.7110402"><ele>47.0</ele><time>2026-05-02T07:36:25.135Z</time></trkpt><trkpt lat="45.3209728" lon="10.7111203"><ele>47.0</ele><time>2026-05-02T07:36:27.133Z</time></trkpt><trkpt lat="45.3210268" lon="10.7112005"><ele>47.0</ele><time>2026-05-02T07:36:29.134Z</time></trkpt><trkpt lat="45.3210813" lon="10.7112828"><ele>47.0</ele><time>2026-05-02T07:36:31.133Z</time></trkpt><trkpt lat="45.3211343" lon="10.7113656"><ele>47.0</ele><time>2026-05-02T07:36:33.133Z</time></trkpt><trkpt lat="45.3211886" lon="10.7114463"><ele>47.0</ele><time>2026-05-02T07:36:35.135Z</time></trkpt><trkpt lat="45.3212426" lon="10.711525"><ele>47.0</ele><time>2026-05-02T07:36:37.134Z</time></trkpt><trkpt lat="45.3212998" lon="10.7116018"><ele>47.0</ele><time>2026-05-02T07:36:39.133Z</time></trkpt><trkpt lat="45.3213574" lon="10.7116794"><ele>47.0</ele><time>2026-05-02T07:36:41.134Z</time></trkpt><trkpt lat="45.3214164" lon="10.711757"><ele>47.0</ele><time>2026-05-02T07:36:43.135Z</time></trkpt><trkpt lat="45.3214742" lon="10.7118313"><ele>47.0</ele><time>2026-05-02T07:36:45.134Z</time></trkpt><trkpt lat="45.3215283" lon="10.7118993"><ele>47.0</ele><time>2026-05-02T07:36:47.134Z</time></trkpt><trkpt lat="45.3215844" lon="10.7119698"><ele>46.8</ele><time>2026-05-02T07:36:49.133Z</time></trkpt><trkpt lat="45.3216429" lon="10.7120393"><ele>46.6</ele><time>2026-05-02T07:36:51.135Z</time></trkpt><trkpt lat="45.3217023" lon="10.7121092"><ele>46.4</ele><time>2026-05-02T07:36:53.135Z</time></trkpt><trkpt lat="45.3217631" lon="10.7121764"><ele>46.199999999999996</ele><time>2026-05-02T07:36:55.134Z</time></trkpt><trkpt lat="45.3218234" lon="10.7122443"><ele>46.0</ele><time>2026-05-02T07:36:57.134Z</time></trkpt><trkpt lat="45.3219467" lon="10.7123713"><ele>46.0</ele><time>2026-05-02T07:37:01.136Z</time></trkpt><trkpt lat="45.3220064" lon="10.7124331"><ele>46.0</ele><time>2026-05-02T07:37:03.134Z</time></trkpt><trkpt lat="45.3220663" lon="10.7124937"><ele>46.0</ele><time>2026-05-02T07:37:05.135Z</time></trkpt><trkpt lat="45.3221266" lon="10.7125571"><ele>46.0</ele><time>2026-05-02T07:37:07.135Z</time></trkpt><trkpt lat="45.3221904" lon="10.7126194"><ele>46.0</ele><time>2026-05-02T07:37:09.135Z</time></trkpt><trkpt lat="45.3222552" lon="10.7126817"><ele>46.0</ele><time>2026-05-02T07:37:11.135Z</time></trkpt><trkpt lat="45.3223208" lon="10.7127439"><ele>46.16666666666667</ele><time>2026-05-02T07:37:13.135Z</time></trkpt><trkpt lat="45.3223862" lon="10.7128047"><ele>46.333333333333336</ele><time>2026-05-02T07:37:15.135Z</time></trkpt><trkpt lat="45.3224517" lon="10.7128646"><ele>46.5</ele><time>2026-05-02T07:37:17.135Z</time></trkpt><trkpt lat="45.3225165" lon="10.7129216"><ele>46.666666666666664</ele><time>2026-05-02T07:37:19.135Z</time></trkpt><trkpt lat="45.3225815" lon="10.7129801"><ele>46.83333333333333</ele><time>2026-05-02T07:37:21.135Z</time></trkpt><trkpt lat="45.3226485" lon="10.7130323"><ele>47.0</ele><time>2026-05-02T07:37:23.134Z</time></trkpt><trkpt lat="45.322712" lon="10.7130889"><ele>47.0</ele><time>2026-05-02T07:37:25.135Z</time></trkpt><trkpt lat="45.3227794" lon="10.7131387"><ele>47.0</ele><time>2026-05-02T07:37:27.134Z</time></trkpt><trkpt lat="45.3228464" lon="10.7131897"><ele>47.0</ele><time>2026-05-02T07:37:29.135Z</time></trkpt><trkpt lat="45.3229133" lon="10.7132371"><ele>47.0</ele><time>2026-05-02T07:37:31.134Z</time></trkpt><trkpt lat="45.3229795" lon="10.7132833"><ele>47.0</ele><time>2026-05-02T07:37:33.133Z</time></trkpt><trkpt lat="45.3230448" lon="10.7133309"><ele>47.0</ele><time>2026-05-02T07:37:35.135Z</time></trkpt><trkpt lat="45.3231104" lon="10.7133811"><ele>47.0</ele><time>2026-05-02T07:37:37.134Z</time></trkpt><trkpt lat="45.323178" lon="10.713424"><ele>47.166666666666664</ele><time>2026-05-02T07:37:39.135Z</time></trkpt><trkpt lat="45.3232471" lon="10.7134668"><ele>47.33333333333333</ele><time>2026-05-02T07:37:41.134Z</time></trkpt><trkpt lat="45.3233182" lon="10.7135069"><ele>47.5</ele><time>2026-05-02T07:37:43.135Z</time></trkpt><trkpt lat="45.32339" lon="10.7135504"><ele>47.666666666666664</ele><time>2026-05-02T07:37:45.135Z</time></trkpt><trkpt lat="45.3234605" lon="10.7135875"><ele>47.833333333333336</ele><time>2026-05-02T07:37:47.135Z</time></trkpt><trkpt lat="45.3235291" lon="10.7136262"><ele>48.0</ele><time>2026-05-02T07:37:49.135Z</time></trkpt><trkpt lat="45.3235957" lon="10.7136657"><ele>48.0</ele><time>2026-05-02T07:37:51.134Z</time></trkpt><trkpt lat="45.3236653" lon="10.7136981"><ele>48.0</ele><time>2026-05-02T07:37:53.134Z</time></trkpt><trkpt lat="45.3237381" lon="10.713734"><ele>48.0</ele><time>2026-05-02T07:37:55.134Z</time></trkpt><trkpt lat="45.3238094" lon="10.7137697"><ele>48.0</ele><time>2026-05-02T07:37:57.135Z</time></trkpt><trkpt lat="45.3238793" lon="10.7138056"><ele>48.0</ele><time>2026-05-02T07:37:59.135Z</time></trkpt><trkpt lat="45.3239509" lon="10.7138349"><ele>48.0</ele><time>2026-05-02T07:38:01.135Z</time></trkpt><trkpt lat="45.3240228" lon="10.7138671"><ele>48.0</ele><time>2026-05-02T07:38:03.134Z</time></trkpt><trkpt lat="45.3240961" lon="10.7138976"><ele>48.0</ele><time>2026-05-02T07:38:05.135Z</time></trkpt><trkpt lat="45.3241698" lon="10.7139244"><ele>48.0</ele><time>2026-05-02T07:38:07.133Z</time></trkpt><trkpt lat="45.3242444" lon="10.713949"><ele>48.0</ele><time>2026-05-02T07:38:09.135Z</time></trkpt><trkpt lat="45.3243189" lon="10.7139712"><ele>48.0</ele><time>2026-05-02T07:38:11.133Z</time></trkpt><trkpt lat="45.324393" lon="10.7139964"><ele>48.0</ele><time>2026-05-02T07:38:13.135Z</time></trkpt><trkpt lat="45.3244667" lon="10.7140219"><ele>48.0</ele><time>2026-05-02T07:38:15.135Z</time></trkpt><trkpt lat="45.3245401" lon="10.7140434"><ele>48.0</ele><time>2026-05-02T07:38:17.135Z</time></trkpt><trkpt lat="45.324612" lon="10.7140601"><ele>48.0</ele><time>2026-05-02T07:38:19.135Z</time></trkpt><trkpt lat="45.3246903" lon="10.7140846"><ele>48.0</ele><time>2026-05-02T07:38:22.133Z</time></trkpt><trkpt lat="45.3247619" lon="10.7140993"><ele>48.0</ele><time>2026-05-02T07:39:20.134Z</time></trkpt><trkpt lat="45.3248496" lon="10.7141214"><ele>48.0</ele><time>2026-05-02T07:39:23.135Z</time></trkpt><trkpt lat="45.3249121" lon="10.7141363"><ele>48.0</ele><time>2026-05-02T07:39:25.135Z</time></trkpt><trkpt lat="45.3250021" lon="10.7141586"><ele>48.0</ele><time>2026-05-02T07:39:28.135Z</time></trkpt><trkpt lat="45.3250718" lon="10.7141792"><ele>48.0</ele><time>2026-05-02T07:39:31.135Z</time></trkpt><trkpt lat="45.3251547" lon="10.7142062"><ele>48.0</ele><time>2026-05-02T07:39:34.134Z</time></trkpt><trkpt lat="45.32525" lon="10.7142279"><ele>48.0</ele><time>2026-05-02T07:39:37.133Z</time></trkpt><trkpt lat="45.3253142" lon="10.7142461"><ele>48.0</ele><time>2026-05-02T07:39:39.135Z</time></trkpt><trkpt lat="45.3253789" lon="10.7142639"><ele>47.99999999999999</ele><time>2026-05-02T07:39:41.135Z</time></trkpt><trkpt lat="45.3254437" lon="10.7142833"><ele>48.0</ele><time>2026-05-02T07:39:43.135Z</time></trkpt><trkpt lat="45.3255095" lon="10.7143013"><ele>48.0</ele><time>2026-05-02T07:39:45.134Z</time></trkpt><trkpt lat="45.3255759" lon="10.714322"><ele>48.0</ele><time>2026-05-02T07:39:47.135Z</time></trkpt><trkpt lat="45.3256431" lon="10.7143381"><ele>48.0</ele><time>2026-05-02T07:39:49.135Z</time></trkpt><trkpt lat="45.3257114" lon="10.7143577"><ele>47.99999999999999</ele><time>2026-05-02T07:39:51.134Z</time></trkpt><trkpt lat="45.3257813" lon="10.7143747"><ele>48.0</ele><time>2026-05-02T07:39:53.134Z</time></trkpt><trkpt lat="45.3258508" lon="10.7143941"><ele>48.166666666666664</ele><time>2026-05-02T07:39:55.134Z</time></trkpt><trkpt lat="45.3259209" lon="10.7144148"><ele>48.33333333333333</ele><time>2026-05-02T07:39:57.134Z</time></trkpt><trkpt lat="45.3259923" lon="10.7144347"><ele>48.5</ele><time>2026-05-02T07:39:59.135Z</time></trkpt><trkpt lat="45.3260638" lon="10.7144571"><ele>48.666666666666664</ele><time>2026-05-02T07:40:01.134Z</time></trkpt><trkpt lat="45.3261383" lon="10.7144797"><ele>48.83333333333333</ele><time>2026-05-02T07:40:03.133Z</time></trkpt><trkpt lat="45.3262156" lon="10.7145017"><ele>49.0</ele><time>2026-05-02T07:40:05.135Z</time></trkpt><trkpt lat="45.3262921" lon="10.7145227"><ele>48.99999999999999</ele><time>2026-05-02T07:40:07.134Z</time></trkpt><trkpt lat="45.3263662" lon="10.7145496"><ele>49.0</ele><time>2026-05-02T07:40:09.135Z</time></trkpt><trkpt lat="45.3264415" lon="10.7145725"><ele>49.0</ele><time>2026-05-02T07:40:11.135Z</time></trkpt><trkpt lat="45.3265192" lon="10.7145951"><ele>49.0</ele><time>2026-05-02T07:40:13.135Z</time></trkpt><trkpt lat="45.3265974" lon="10.7146178"><ele>48.99999999999999</ele><time>2026-05-02T07:40:15.134Z</time></trkpt><trkpt lat="45.3266766" lon="10.7146357"><ele>49.0</ele><time>2026-05-02T07:40:17.134Z</time></trkpt><trkpt lat="45.3267522" lon="10.7146609"><ele>48.83333333333333</ele><time>2026-05-02T07:40:19.135Z</time></trkpt><trkpt lat="45.326826" lon="10.7146774"><ele>48.666666666666664</ele><time>2026-05-02T07:40:21.134Z</time></trkpt><trkpt lat="45.3269027" lon="10.7147004"><ele>48.5</ele><time>2026-05-02T07:40:23.135Z</time></trkpt><trkpt lat="45.3269794" lon="10.714721"><ele>48.33333333333333</ele><time>2026-05-02T07:40:25.135Z</time></trkpt><trkpt lat="45.3270562" lon="10.714744"><ele>48.166666666666664</ele><time>2026-05-02T07:40:27.135Z</time></trkpt><trkpt lat="45.3271312" lon="10.7147666"><ele>48.0</ele><time>2026-05-02T07:40:29.135Z</time></trkpt><trkpt lat="45.3272051" lon="10.7147881"><ele>47.71428571428571</ele><time>2026-05-02T07:40:31.135Z</time></trkpt><trkpt lat="45.327278" lon="10.7148128"><ele>47.42857142857143</ele><time>2026-05-02T07:40:33.134Z</time></trkpt><trkpt lat="45.3273511" lon="10.7148328"><ele>47.14285714285714</ele><time>2026-05-02T07:40:35.134Z</time></trkpt><trkpt lat="45.3274223" lon="10.7148544"><ele>46.857142857142854</ele><time>2026-05-02T07:40:37.134Z</time></trkpt><trkpt lat="45.3274935" lon="10.7148777"><ele>46.57142857142857</ele><time>2026-05-02T07:40:39.133Z</time></trkpt><trkpt lat="45.3275677" lon="10.7148972"><ele>46.285714285714285</ele><time>2026-05-02T07:40:41.134Z</time></trkpt><trkpt lat="45.3276443" lon="10.7149169"><ele>46.0</ele><time>2026-05-02T07:40:43.133Z</time></trkpt><trkpt lat="45.3277221" lon="10.7149384"><ele>46.0</ele><time>2026-05-02T07:40:45.134Z</time></trkpt><trkpt lat="45.3278016" lon="10.7149533"><ele>46.0</ele><time>2026-05-02T07:40:47.134Z</time></trkpt><trkpt lat="45.3278824" lon="10.7149722"><ele>46.0</ele><time>2026-05-02T07:40:49.135Z</time></trkpt><trkpt lat="45.3279596" lon="10.714997"><ele>46.0</ele><time>2026-05-02T07:40:51.134Z</time></trkpt><trkpt lat="45.328032" lon="10.7150157"><ele>46.0</ele><time>2026-05-02T07:40:53.134Z</time></trkpt><trkpt lat="45.3281047" lon="10.7150379"><ele>46.0</ele><time>2026-05-02T07:40:55.134Z</time></trkpt><trkpt lat="45.3281795" lon="10.7150577"><ele>46.0</ele><time>2026-05-02T07:40:57.133Z</time></trkpt><trkpt lat="45.3282531" lon="10.7150798"><ele>46.0</ele><time>2026-05-02T07:40:59.135Z</time></trkpt><trkpt lat="45.3283262" lon="10.7151018"><ele>46.0</ele><time>2026-05-02T07:41:01.134Z</time></trkpt><trkpt lat="45.3283983" lon="10.7151228"><ele>46.0</ele><time>2026-05-02T07:41:03.133Z</time></trkpt><trkpt lat="45.3284675" lon="10.7151464"><ele>46.0</ele><time>2026-05-02T07:41:05.133Z</time></trkpt><trkpt lat="45.328542" lon="10.7151647"><ele>46.0</ele><time>2026-05-02T07:41:07.133Z</time></trkpt><trkpt lat="45.328618" lon="10.715186"><ele>46.0</ele><time>2026-05-02T07:41:09.133Z</time></trkpt><trkpt lat="45.3286936" lon="10.7152068"><ele>46.0</ele><time>2026-05-02T07:41:11.133Z</time></trkpt><trkpt lat="45.3287706" lon="10.71523"><ele>46.0</ele><time>2026-05-02T07:41:13.134Z</time></trkpt><trkpt lat="45.3288481" lon="10.7152529"><ele>46.0</ele><time>2026-05-02T07:41:15.134Z</time></trkpt><trkpt lat="45.3289226" lon="10.7152783"><ele>46.0</ele><time>2026-05-02T07:41:17.134Z</time></trkpt><trkpt lat="45.3289902" lon="10.7152971"><ele>46.0</ele><time>2026-05-02T07:41:19.134Z</time></trkpt><trkpt lat="45.329079" lon="10.7153354"><ele>46.0</ele><time>2026-05-02T07:41:22.133Z</time></trkpt><trkpt lat="45.3291469" lon="10.7153571"><ele>47.16666666666667</ele><time>2026-05-02T07:41:24.134Z</time></trkpt><trkpt lat="45.329221" lon="10.7153738"><ele>48.333333333333336</ele><time>2026-05-02T07:41:26.134Z</time></trkpt><trkpt lat="45.329294" lon="10.7153984"><ele>49.5</ele><time>2026-05-02T07:41:28.134Z</time></trkpt><trkpt lat="45.3293681" lon="10.7154226"><ele>50.66666666666667</ele><time>2026-05-02T07:41:30.134Z</time></trkpt><trkpt lat="45.3294458" lon="10.7154441"><ele>51.833333333333336</ele><time>2026-05-02T07:41:32.133Z</time></trkpt><trkpt lat="45.3295229" lon="10.7154655"><ele>53.0</ele><time>2026-05-02T07:41:34.133Z</time></trkpt><trkpt lat="45.3295988" lon="10.7154902"><ele>53.00000000000001</ele><time>2026-05-02T07:41:36.134Z</time></trkpt><trkpt lat="45.3296755" lon="10.7155109"><ele>53.0</ele><time>2026-05-02T07:41:38.133Z</time></trkpt><trkpt lat="45.3297534" lon="10.7155342"><ele>53.0</ele><time>2026-05-02T07:41:40.133Z</time></trkpt><trkpt lat="45.3298319" lon="10.7155562"><ele>53.0</ele><time>2026-05-02T07:41:42.133Z</time></trkpt><trkpt lat="45.3299125" lon="10.7155783"><ele>53.00000000000001</ele><time>2026-05-02T07:41:44.134Z</time></trkpt><trkpt lat="45.3299933" lon="10.7155984"><ele>53.0</ele><time>2026-05-02T07:41:46.133Z</time></trkpt><trkpt lat="45.3300728" lon="10.7156212"><ele>52.833333333333336</ele><time>2026-05-02T07:41:48.133Z</time></trkpt><trkpt lat="45.3301507" lon="10.7156446"><ele>52.66666666666667</ele><time>2026-05-02T07:41:50.133Z</time></trkpt><trkpt lat="45.3302291" lon="10.7156615"><ele>52.5</ele><time>2026-05-02T07:41:52.133Z</time></trkpt><trkpt lat="45.3303053" lon="10.7156821"><ele>52.33333333333333</ele><time>2026-05-02T07:41:54.132Z</time></trkpt><trkpt lat="45.3303763" lon="10.7156971"><ele>52.166666666666664</ele><time>2026-05-02T07:41:56.134Z</time></trkpt><trkpt lat="45.3304389" lon="10.71571"><ele>52.0</ele><time>2026-05-02T07:41:58.133Z</time></trkpt><trkpt lat="45.3305238" lon="10.7157299"><ele>51.857142857142854</ele><time>2026-05-02T07:42:01.134Z</time></trkpt><trkpt lat="45.3305872" lon="10.7157403"><ele>51.714285714285715</ele><time>2026-05-02T07:42:03.133Z</time></trkpt><trkpt lat="45.3306554" lon="10.7157539"><ele>51.57142857142857</ele><time>2026-05-02T07:42:05.134Z</time></trkpt><trkpt lat="45.3307241" lon="10.7157664"><ele>51.42857142857143</ele><time>2026-05-02T07:42:07.133Z</time></trkpt><trkpt lat="45.3307938" lon="10.7157774"><ele>51.28571428571429</ele><time>2026-05-02T07:42:09.132Z</time></trkpt><trkpt lat="45.3308628" lon="10.7157886"><ele>51.142857142857146</ele><time>2026-05-02T07:42:11.132Z</time></trkpt><trkpt lat="45.3309306" lon="10.7157955"><ele>51.0</ele><time>2026-05-02T07:42:13.134Z</time></trkpt><trkpt lat="45.3310024" lon="10.7158029"><ele>51.0</ele><time>2026-05-02T07:42:15.134Z</time></trkpt><trkpt lat="45.3310744" lon="10.7158082"><ele>51.0</ele><time>2026-05-02T07:42:17.134Z</time></trkpt><trkpt lat="45.3311478" lon="10.7158082"><ele>51.0</ele><time>2026-05-02T07:42:19.134Z</time></trkpt><trkpt lat="45.3312231" lon="10.715815"><ele>51.0</ele><time>2026-05-02T07:42:21.133Z</time></trkpt><trkpt lat="45.3312974" lon="10.7158176"><ele>51.0</ele><time>2026-05-02T07:42:23.133Z</time></trkpt><trkpt lat="45.33137" lon="10.7158208"><ele>51.0</ele><time>2026-05-02T07:42:25.134Z</time></trkpt><trkpt lat="45.3314421" lon="10.7158252"><ele>51.0</ele><time>2026-05-02T07:42:27.134Z</time></trkpt><trkpt lat="45.3315137" lon="10.7158296"><ele>51.0</ele><time>2026-05-02T07:42:29.133Z</time></trkpt><trkpt lat="45.3315858" lon="10.7158284"><ele>51.0</ele><time>2026-05-02T07:42:31.133Z</time></trkpt><trkpt lat="45.3316594" lon="10.7158272"><ele>51.0</ele><time>2026-05-02T07:42:33.133Z</time></trkpt><trkpt lat="45.3317364" lon="10.7158285"><ele>51.0</ele><time>2026-05-02T07:42:35.133Z</time></trkpt><trkpt lat="45.3318142" lon="10.7158263"><ele>51.0</ele><time>2026-05-02T07:42:37.133Z</time></trkpt><trkpt lat="45.3318901" lon="10.7158198"><ele>51.0</ele><time>2026-05-02T07:42:39.134Z</time></trkpt><trkpt lat="45.3319657" lon="10.7158158"><ele>51.0</ele><time>2026-05-02T07:42:41.134Z</time></trkpt><trkpt lat="45.332039" lon="10.715807"><ele>51.0</ele><time>2026-05-02T07:42:43.133Z</time></trkpt><trkpt lat="45.3321107" lon="10.7158012"><ele>51.0</ele><time>2026-05-02T07:42:45.133Z</time></trkpt><trkpt lat="45.3321833" lon="10.7157939"><ele>51.0</ele><time>2026-05-02T07:42:47.132Z</time></trkpt><trkpt lat="45.3322583" lon="10.7157865"><ele>51.0</ele><time>2026-05-02T07:42:49.134Z</time></trkpt><trkpt lat="45.332335" lon="10.715776"><ele>51.0</ele><time>2026-05-02T07:42:51.133Z</time></trkpt><trkpt lat="45.3324112" lon="10.7157637"><ele>51.0</ele><time>2026-05-02T07:42:53.134Z</time></trkpt><trkpt lat="45.3324874" lon="10.715751"><ele>51.5</ele><time>2026-05-02T07:42:55.134Z</time></trkpt><trkpt lat="45.3325657" lon="10.7157354"><ele>52.0</ele><time>2026-05-02T07:42:57.134Z</time></trkpt><trkpt lat="45.332642" lon="10.7157197"><ele>52.5</ele><time>2026-05-02T07:42:59.132Z</time></trkpt><trkpt lat="45.3327161" lon="10.7157031"><ele>53.0</ele><time>2026-05-02T07:43:01.133Z</time></trkpt><trkpt lat="45.3327885" lon="10.7156827"><ele>53.5</ele><time>2026-05-02T07:43:03.133Z</time></trkpt><trkpt lat="45.3328607" lon="10.715668"><ele>54.0</ele><time>2026-05-02T07:43:05.132Z</time></trkpt><trkpt lat="45.332932" lon="10.7156468"><ele>54.0</ele><time>2026-05-02T07:43:07.134Z</time></trkpt><trkpt lat="45.3330058" lon="10.7156278"><ele>54.0</ele><time>2026-05-02T07:43:09.134Z</time></trkpt><trkpt lat="45.3330823" lon="10.7156069"><ele>54.0</ele><time>2026-05-02T07:43:11.134Z</time></trkpt><trkpt lat="45.3331574" lon="10.7155849"><ele>54.0</ele><time>2026-05-02T07:43:13.133Z</time></trkpt><trkpt lat="45.3332304" lon="10.7155609"><ele>54.0</ele><time>2026-05-02T07:43:15.133Z</time></trkpt><trkpt lat="45.3333019" lon="10.7155393"><ele>54.0</ele><time>2026-05-02T07:43:17.134Z</time></trkpt><trkpt lat="45.3333724" lon="10.7155165"><ele>54.333333333333336</ele><time>2026-05-02T07:43:19.132Z</time></trkpt><trkpt lat="45.3334415" lon="10.7154851"><ele>54.66666666666667</ele><time>2026-05-02T07:43:21.134Z</time></trkpt><trkpt lat="45.3335114" lon="10.7154596"><ele>55.0</ele><time>2026-05-02T07:43:23.134Z</time></trkpt><trkpt lat="45.333578" lon="10.7154377"><ele>55.333333333333336</ele><time>2026-05-02T07:43:25.134Z</time></trkpt><trkpt lat="45.3336652" lon="10.7153991"><ele>55.66666666666667</ele><time>2026-05-02T07:43:28.132Z</time></trkpt><trkpt lat="45.3337514" lon="10.7153639"><ele>56.0</ele><time>2026-05-02T07:43:31.133Z</time></trkpt><trkpt lat="45.3338414" lon="10.7153214"><ele>56.16666666666667</ele><time>2026-05-02T07:43:34.134Z</time></trkpt><trkpt lat="45.3339274" lon="10.7152815"><ele>56.333333333333336</ele><time>2026-05-02T07:43:37.134Z</time></trkpt><trkpt lat="45.3339991" lon="10.7152425"><ele>56.5</ele><time>2026-05-02T07:43:40.134Z</time></trkpt><trkpt lat="45.3340662" lon="10.7152156"><ele>56.66666666666667</ele><time>2026-05-02T07:43:43.133Z</time></trkpt><trkpt lat="45.3341307" lon="10.7151715"><ele>56.833333333333336</ele><time>2026-05-02T07:52:09.134Z</time></trkpt><trkpt lat="45.3341987" lon="10.7151195"><ele>57.0</ele><time>2026-05-02T07:52:13.133Z</time></trkpt><trkpt lat="45.3342748" lon="10.7150867"><ele>56.857142857142854</ele><time>2026-05-02T07:52:17.134Z</time></trkpt><trkpt lat="45.3343399" lon="10.7150544"><ele>56.71428571428571</ele><time>2026-05-02T07:52:20.134Z</time></trkpt><trkpt lat="45.3344121" lon="10.7150132"><ele>56.57142857142857</ele><time>2026-05-02T07:52:23.133Z</time></trkpt><trkpt lat="45.3344922" lon="10.7149657"><ele>56.42857142857143</ele><time>2026-05-02T07:52:26.133Z</time></trkpt><trkpt lat="45.3345509" lon="10.7149297"><ele>56.285714285714285</ele><time>2026-05-02T07:52:28.133Z</time></trkpt><trkpt lat="45.3346098" lon="10.7148922"><ele>56.14285714285714</ele><time>2026-05-02T07:52:30.134Z</time></trkpt><trkpt lat="45.3346753" lon="10.7148541"><ele>56.0</ele><time>2026-05-02T07:52:32.133Z</time></trkpt><trkpt lat="45.3347438" lon="10.7148125"><ele>56.0</ele><time>2026-05-02T07:52:34.133Z</time></trkpt><trkpt lat="45.3348129" lon="10.7147694"><ele>56.0</ele><time>2026-05-02T07:52:36.132Z</time></trkpt><trkpt lat="45.3348796" lon="10.7147282"><ele>56.0</ele><time>2026-05-02T07:52:38.133Z</time></trkpt><trkpt lat="45.3349399" lon="10.7146922"><ele>56.0</ele><time>2026-05-02T07:52:40.134Z</time></trkpt><trkpt lat="45.3350185" lon="10.7146478"><ele>56.0</ele><time>2026-05-02T07:52:43.134Z</time></trkpt><trkpt lat="45.3350921" lon="10.7145975"><ele>56.0</ele><time>2026-05-02T07:52:47.134Z</time></trkpt><trkpt lat="45.3351531" lon="10.7145626"><ele>56.0</ele><time>2026-05-02T07:52:50.134Z</time></trkpt><trkpt lat="45.3352161" lon="10.7145256"><ele>56.00000000000001</ele><time>2026-05-02T07:52:53.133Z</time></trkpt><trkpt lat="45.3352844" lon="10.7144791"><ele>56.0</ele><time>2026-05-02T07:52:56.132Z</time></trkpt><trkpt lat="45.3353684" lon="10.7144292"><ele>56.0</ele><time>2026-05-02T07:52:59.134Z</time></trkpt><trkpt lat="45.3354463" lon="10.7143894"><ele>56.0</ele><time>2026-05-02T07:53:01.133Z</time></trkpt><trkpt lat="45.3355329" lon="10.7143456"><ele>56.00000000000001</ele><time>2026-05-02T07:53:03.134Z</time></trkpt><trkpt lat="45.3356138" lon="10.7142968"><ele>56.0</ele><time>2026-05-02T07:53:05.134Z</time></trkpt><trkpt lat="45.335692" lon="10.7142512"><ele>56.16666666666667</ele><time>2026-05-02T07:53:07.134Z</time></trkpt><trkpt lat="45.335768" lon="10.7142026"><ele>56.333333333333336</ele><time>2026-05-02T07:53:09.134Z</time></trkpt><trkpt lat="45.3358448" lon="10.7141575"><ele>56.5</ele><time>2026-05-02T07:53:11.134Z</time></trkpt><trkpt lat="45.3359156" lon="10.7141067"><ele>56.66666666666667</ele><time>2026-05-02T07:53:13.134Z</time></trkpt><trkpt lat="45.3359864" lon="10.7140667"><ele>56.833333333333336</ele><time>2026-05-02T07:53:15.134Z</time></trkpt><trkpt lat="45.336057" lon="10.7140272"><ele>57.0</ele><time>2026-05-02T07:53:17.132Z</time></trkpt><trkpt lat="45.3361265" lon="10.7139915"><ele>57.0</ele><time>2026-05-02T07:53:19.134Z</time></trkpt><trkpt lat="45.3361961" lon="10.7139508"><ele>57.0</ele><time>2026-05-02T07:53:21.134Z</time></trkpt><trkpt lat="45.3362682" lon="10.7139099"><ele>57.0</ele><time>2026-05-02T07:53:23.134Z</time></trkpt><trkpt lat="45.3363424" lon="10.7138696"><ele>57.0</ele><time>2026-05-02T07:53:25.134Z</time></trkpt><trkpt lat="45.3364177" lon="10.7138261"><ele>57.0</ele><time>2026-05-02T07:53:27.133Z</time></trkpt><trkpt lat="45.3364937" lon="10.7137797"><ele>57.0</ele><time>2026-05-02T07:53:29.134Z</time></trkpt><trkpt lat="45.3365721" lon="10.7137325"><ele>57.333333333333336</ele><time>2026-05-02T07:53:31.134Z</time></trkpt><trkpt lat="45.3366507" lon="10.7136862"><ele>57.66666666666667</ele><time>2026-05-02T07:53:33.133Z</time></trkpt><trkpt lat="45.3367285" lon="10.713638"><ele>58.0</ele><time>2026-05-02T07:53:35.133Z</time></trkpt><trkpt lat="45.3368033" lon="10.7135908"><ele>58.333333333333336</ele><time>2026-05-02T07:53:37.133Z</time></trkpt><trkpt lat="45.3368762" lon="10.7135425"><ele>58.66666666666667</ele><time>2026-05-02T07:53:39.134Z</time></trkpt><trkpt lat="45.3369523" lon="10.7134986"><ele>59.0</ele><time>2026-05-02T07:53:41.134Z</time></trkpt><trkpt lat="45.3370297" lon="10.7134534"><ele>58.333333333333336</ele><time>2026-05-02T07:53:43.134Z</time></trkpt><trkpt lat="45.3371089" lon="10.7134103"><ele>57.66666666666667</ele><time>2026-05-02T07:53:45.134Z</time></trkpt><trkpt lat="45.3371883" lon="10.7133634"><ele>57.0</ele><time>2026-05-02T07:53:47.134Z</time></trkpt><trkpt lat="45.3372659" lon="10.7133197"><ele>56.33333333333333</ele><time>2026-05-02T07:53:49.133Z</time></trkpt><trkpt lat="45.3373445" lon="10.7132743"><ele>55.666666666666664</ele><time>2026-05-02T07:53:51.133Z</time></trkpt><trkpt lat="45.3374234" lon="10.7132284"><ele>55.0</ele><time>2026-05-02T07:53:53.133Z</time></trkpt><trkpt lat="45.3375002" lon="10.7131859"><ele>54.666666666666664</ele><time>2026-05-02T07:53:55.134Z</time></trkpt><trkpt lat="45.3375754" lon="10.7131411"><ele>54.33333333333333</ele><time>2026-05-02T07:53:57.134Z</time></trkpt><trkpt lat="45.3376499" lon="10.7130986"><ele>54.0</ele><time>2026-05-02T07:53:59.134Z</time></trkpt><trkpt lat="45.3377243" lon="10.713052"><ele>53.66666666666667</ele><time>2026-05-02T07:54:01.134Z</time></trkpt><trkpt lat="45.3378015" lon="10.7130109"><ele>53.333333333333336</ele><time>2026-05-02T07:54:03.134Z</time></trkpt><trkpt lat="45.3378775" lon="10.7129617"><ele>53.0</ele><time>2026-05-02T07:54:05.134Z</time></trkpt><trkpt lat="45.337954" lon="10.7129126"><ele>53.00000000000001</ele><time>2026-05-02T07:54:07.134Z</time></trkpt><trkpt lat="45.3380297" lon="10.7128686"><ele>53.0</ele><time>2026-05-02T07:54:09.134Z</time></trkpt><trkpt lat="45.3381046" lon="10.7128288"><ele>53.0</ele><time>2026-05-02T07:54:11.134Z</time></trkpt><trkpt lat="45.3381779" lon="10.7127841"><ele>53.0</ele><time>2026-05-02T07:54:13.133Z</time></trkpt><trkpt lat="45.33825" lon="10.7127396"><ele>53.00000000000001</ele><time>2026-05-02T07:54:15.134Z</time></trkpt><trkpt lat="45.3383194" lon="10.7126991"><ele>53.0</ele><time>2026-05-02T07:54:17.132Z</time></trkpt><trkpt lat="45.3383878" lon="10.7126551"><ele>52.714285714285715</ele><time>2026-05-02T07:54:19.133Z</time></trkpt><trkpt lat="45.3384561" lon="10.7126143"><ele>52.42857142857142</ele><time>2026-05-02T07:54:21.134Z</time></trkpt><trkpt lat="45.3385231" lon="10.7125745"><ele>52.14285714285714</ele><time>2026-05-02T07:54:23.134Z</time></trkpt><trkpt lat="45.3385896" lon="10.7125336"><ele>51.85714285714286</ele><time>2026-05-02T07:54:25.134Z</time></trkpt><trkpt lat="45.3386567" lon="10.7124968"><ele>51.57142857142857</ele><time>2026-05-02T07:54:27.134Z</time></trkpt><trkpt lat="45.3387241" lon="10.7124557"><ele>51.285714285714285</ele><time>2026-05-02T07:54:29.133Z</time></trkpt><trkpt lat="45.3387944" lon="10.7124129"><ele>51.0</ele><time>2026-05-02T07:54:31.134Z</time></trkpt><trkpt lat="45.3388672" lon="10.7123697"><ele>50.833333333333336</ele><time>2026-05-02T07:54:33.133Z</time></trkpt><trkpt lat="45.3389397" lon="10.7123225"><ele>50.66666666666667</ele><time>2026-05-02T07:54:35.133Z</time></trkpt><trkpt lat="45.3390128" lon="10.7122798"><ele>50.5</ele><time>2026-05-02T07:54:37.134Z</time></trkpt><trkpt lat="45.3390837" lon="10.7122361"><ele>50.333333333333336</ele><time>2026-05-02T07:54:39.133Z</time></trkpt><trkpt lat="45.3391545" lon="10.7121906"><ele>50.16666666666667</ele><time>2026-05-02T07:54:41.134Z</time></trkpt><trkpt lat="45.3392278" lon="10.7121499"><ele>50.0</ele><time>2026-05-02T07:54:43.133Z</time></trkpt><trkpt lat="45.3392989" lon="10.7121063"><ele>50.00000000000001</ele><time>2026-05-02T07:54:45.133Z</time></trkpt><trkpt lat="45.3393678" lon="10.7120648"><ele>50.0</ele><time>2026-05-02T07:54:47.134Z</time></trkpt><trkpt lat="45.3394364" lon="10.7120212"><ele>50.0</ele><time>2026-05-02T07:54:49.132Z</time></trkpt><trkpt lat="45.3395035" lon="10.7119787"><ele>50.0</ele><time>2026-05-02T07:54:51.132Z</time></trkpt><trkpt lat="45.339572" lon="10.7119376"><ele>50.00000000000001</ele><time>2026-05-02T07:54:53.133Z</time></trkpt><trkpt lat="45.3396451" lon="10.7118944"><ele>50.0</ele><time>2026-05-02T07:54:55.133Z</time></trkpt><trkpt lat="45.33972" lon="10.7118491"><ele>50.00000000000001</ele><time>2026-05-02T07:54:57.133Z</time></trkpt><trkpt lat="45.3397947" lon="10.7118052"><ele>50.0</ele><time>2026-05-02T07:54:59.133Z</time></trkpt><trkpt lat="45.3398678" lon="10.7117609"><ele>50.0</ele><time>2026-05-02T07:55:01.133Z</time></trkpt><trkpt lat="45.3399391" lon="10.7117189"><ele>50.0</ele><time>2026-05-02T07:55:03.134Z</time></trkpt><trkpt lat="45.3400119" lon="10.7116763"><ele>50.00000000000001</ele><time>2026-05-02T07:55:05.133Z</time></trkpt><trkpt lat="45.3400848" lon="10.7116297"><ele>50.0</ele><time>2026-05-02T07:55:07.133Z</time></trkpt><trkpt lat="45.3401574" lon="10.7115837"><ele>50.00000000000001</ele><time>2026-05-02T07:55:09.134Z</time></trkpt><trkpt lat="45.3402323" lon="10.7115399"><ele>50.0</ele><time>2026-05-02T07:55:11.133Z</time></trkpt><trkpt lat="45.3403072" lon="10.711498"><ele>50.0</ele><time>2026-05-02T07:55:13.134Z</time></trkpt><trkpt lat="45.3403827" lon="10.7114549"><ele>50.0</ele><time>2026-05-02T07:55:15.134Z</time></trkpt><trkpt lat="45.3404576" lon="10.7114084"><ele>50.00000000000001</ele><time>2026-05-02T07:55:17.134Z</time></trkpt><trkpt lat="45.3405315" lon="10.7113662"><ele>50.0</ele><time>2026-05-02T07:55:19.133Z</time></trkpt><trkpt lat="45.3406056" lon="10.7113198"><ele>50.16666666666667</ele><time>2026-05-02T07:55:21.133Z</time></trkpt><trkpt lat="45.340681" lon="10.7112739"><ele>50.333333333333336</ele><time>2026-05-02T07:55:23.134Z</time></trkpt><trkpt lat="45.3407576" lon="10.7112322"><ele>50.5</ele><time>2026-05-02T07:55:25.134Z</time></trkpt><trkpt lat="45.3408326" lon="10.7111869"><ele>50.66666666666667</ele><time>2026-05-02T07:55:27.133Z</time></trkpt><trkpt lat="45.3409075" lon="10.7111415"><ele>50.833333333333336</ele><time>2026-05-02T07:55:29.134Z</time></trkpt><trkpt lat="45.3409816" lon="10.7110969"><ele>51.0</ele><time>2026-05-02T07:55:31.133Z</time></trkpt><trkpt lat="45.3410549" lon="10.7110526"><ele>50.833333333333336</ele><time>2026-05-02T07:55:33.134Z</time></trkpt><trkpt lat="45.3411298" lon="10.7110107"><ele>50.66666666666667</ele><time>2026-05-02T07:55:35.133Z</time></trkpt><trkpt lat="45.3412044" lon="10.7109625"><ele>50.5</ele><time>2026-05-02T07:55:37.133Z</time></trkpt><trkpt lat="45.34128" lon="10.7109207"><ele>50.333333333333336</ele><time>2026-05-02T07:55:39.133Z</time></trkpt><trkpt lat="45.3413558" lon="10.7108798"><ele>50.16666666666667</ele><time>2026-05-02T07:55:41.133Z</time></trkpt><trkpt lat="45.3414331" lon="10.7108406"><ele>50.0</ele><time>2026-05-02T07:55:43.133Z</time></trkpt><trkpt lat="45.3415094" lon="10.7108012"><ele>50.00000000000001</ele><time>2026-05-02T07:55:45.133Z</time></trkpt><trkpt lat="45.3415835" lon="10.7107675"><ele>50.0</ele><time>2026-05-02T07:55:47.134Z</time></trkpt><trkpt lat="45.3416588" lon="10.7107331"><ele>50.0</ele><time>2026-05-02T07:55:49.134Z</time></trkpt><trkpt lat="45.3417355" lon="10.7106972"><ele>50.0</ele><time>2026-05-02T07:55:51.134Z</time></trkpt><trkpt lat="45.3418116" lon="10.7106628"><ele>50.00000000000001</ele><time>2026-05-02T07:55:53.132Z</time></trkpt><trkpt lat="45.3418868" lon="10.7106346"><ele>50.0</ele><time>2026-05-02T07:55:55.133Z</time></trkpt><trkpt lat="45.3419648" lon="10.7106048"><ele>50.00000000000001</ele><time>2026-05-02T07:55:57.133Z</time></trkpt><trkpt lat="45.3420417" lon="10.7105732"><ele>50.0</ele><time>2026-05-02T07:55:59.134Z</time></trkpt><trkpt lat="45.3421171" lon="10.7105443"><ele>50.0</ele><time>2026-05-02T07:56:01.132Z</time></trkpt><trkpt lat="45.342193" lon="10.7105161"><ele>50.0</ele><time>2026-05-02T07:56:03.133Z</time></trkpt><trkpt lat="45.3422671" lon="10.7104897"><ele>50.00000000000001</ele><time>2026-05-02T07:56:05.133Z</time></trkpt><trkpt lat="45.3423387" lon="10.710464"><ele>50.0</ele><time>2026-05-02T07:56:07.133Z</time></trkpt><trkpt lat="45.3424117" lon="10.7104457"><ele>50.00000000000001</ele><time>2026-05-02T07:56:09.132Z</time></trkpt><trkpt lat="45.3424861" lon="10.710426"><ele>50.0</ele><time>2026-05-02T07:56:11.132Z</time></trkpt><trkpt lat="45.3425602" lon="10.7104026"><ele>50.0</ele><time>2026-05-02T07:56:13.133Z</time></trkpt><trkpt lat="45.3426346" lon="10.7103818"><ele>50.0</ele><time>2026-05-02T07:56:15.132Z</time></trkpt><trkpt lat="45.3427118" lon="10.7103609"><ele>50.00000000000001</ele><time>2026-05-02T07:56:17.133Z</time></trkpt><trkpt lat="45.3427926" lon="10.710339"><ele>50.0</ele><time>2026-05-02T07:56:19.132Z</time></trkpt><trkpt lat="45.3428743" lon="10.7103197"><ele>50.00000000000001</ele><time>2026-05-02T07:56:21.132Z</time></trkpt><trkpt lat="45.342957" lon="10.7103059"><ele>50.0</ele><time>2026-05-02T07:56:23.132Z</time></trkpt><trkpt lat="45.3430371" lon="10.7102868"><ele>50.0</ele><time>2026-05-02T07:56:25.132Z</time></trkpt><trkpt lat="45.3431178" lon="10.7102701"><ele>50.0</ele><time>2026-05-02T07:56:27.133Z</time></trkpt><trkpt lat="45.3431979" lon="10.7102565"><ele>50.00000000000001</ele><time>2026-05-02T07:56:29.132Z</time></trkpt><trkpt lat="45.3432778" lon="10.7102428"><ele>50.0</ele><time>2026-05-02T07:56:31.133Z</time></trkpt><trkpt lat="45.3433601" lon="10.7102321"><ele>50.16666666666667</ele><time>2026-05-02T07:56:33.132Z</time></trkpt><trkpt lat="45.3434436" lon="10.7102202"><ele>50.333333333333336</ele><time>2026-05-02T07:56:35.132Z</time></trkpt><trkpt lat="45.3435264" lon="10.7102097"><ele>50.5</ele><time>2026-05-02T07:56:37.132Z</time></trkpt><trkpt lat="45.3436088" lon="10.7102028"><ele>50.66666666666667</ele><time>2026-05-02T07:56:39.132Z</time></trkpt><trkpt lat="45.3436914" lon="10.7102006"><ele>50.833333333333336</ele><time>2026-05-02T07:56:41.133Z</time></trkpt><trkpt lat="45.3437743" lon="10.7101924"><ele>51.0</ele><time>2026-05-02T07:56:43.133Z</time></trkpt><trkpt lat="45.3438582" lon="10.7101865"><ele>50.833333333333336</ele><time>2026-05-02T07:56:45.133Z</time></trkpt><trkpt lat="45.343942" lon="10.7101809"><ele>50.66666666666667</ele><time>2026-05-02T07:56:47.132Z</time></trkpt><trkpt lat="45.3440227" lon="10.710175"><ele>50.5</ele><time>2026-05-02T07:56:49.132Z</time></trkpt><trkpt lat="45.3441043" lon="10.7101717"><ele>50.333333333333336</ele><time>2026-05-02T07:56:51.133Z</time></trkpt><trkpt lat="45.3441841" lon="10.7101654"><ele>50.16666666666667</ele><time>2026-05-02T07:56:53.133Z</time></trkpt><trkpt lat="45.344263" lon="10.7101679"><ele>50.0</ele><time>2026-05-02T07:56:55.133Z</time></trkpt><trkpt lat="45.3443413" lon="10.7101671"><ele>50.00000000000001</ele><time>2026-05-02T07:56:57.133Z</time></trkpt><trkpt lat="45.3444192" lon="10.7101698"><ele>50.0</ele><time>2026-05-02T07:56:59.132Z</time></trkpt><trkpt lat="45.3444973" lon="10.7101754"><ele>50.0</ele><time>2026-05-02T07:57:01.133Z</time></trkpt><trkpt lat="45.3445735" lon="10.7101802"><ele>50.0</ele><time>2026-05-02T07:57:03.133Z</time></trkpt><trkpt lat="45.3446476" lon="10.7101864"><ele>50.00000000000001</ele><time>2026-05-02T07:57:05.133Z</time></trkpt><trkpt lat="45.3447235" lon="10.7101966"><ele>50.0</ele><time>2026-05-02T07:57:07.133Z</time></trkpt><trkpt lat="45.3448004" lon="10.7102039"><ele>50.16666666666667</ele><time>2026-05-02T07:57:09.133Z</time></trkpt><trkpt lat="45.344874" lon="10.7102143"><ele>50.333333333333336</ele><time>2026-05-02T07:57:11.133Z</time></trkpt><trkpt lat="45.3449445" lon="10.7102234"><ele>50.5</ele><time>2026-05-02T07:57:13.132Z</time></trkpt><trkpt lat="45.3450142" lon="10.7102327"><ele>50.66666666666667</ele><time>2026-05-02T07:57:15.133Z</time></trkpt><trkpt lat="45.3450795" lon="10.7102452"><ele>50.833333333333336</ele><time>2026-05-02T07:57:17.132Z</time></trkpt><trkpt lat="45.3451713" lon="10.7102646"><ele>51.0</ele><time>2026-05-02T07:57:20.133Z</time></trkpt><trkpt lat="45.3452647" lon="10.7102811"><ele>51.0</ele><time>2026-05-02T07:57:23.132Z</time></trkpt><trkpt lat="45.3453278" lon="10.7102911"><ele>51.0</ele><time>2026-05-02T07:57:25.132Z</time></trkpt><trkpt lat="45.3453935" lon="10.7103018"><ele>51.0</ele><time>2026-05-02T07:57:27.133Z</time></trkpt><trkpt lat="45.3454605" lon="10.7103157"><ele>51.0</ele><time>2026-05-02T07:57:29.132Z</time></trkpt><trkpt lat="45.3455267" lon="10.7103289"><ele>51.0</ele><time>2026-05-02T07:57:31.133Z</time></trkpt><trkpt lat="45.3455926" lon="10.7103458"><ele>51.0</ele><time>2026-05-02T07:57:33.133Z</time></trkpt><trkpt lat="45.3456592" lon="10.7103608"><ele>51.0</ele><time>2026-05-02T07:57:35.133Z</time></trkpt><trkpt lat="45.3457271" lon="10.7103778"><ele>51.142857142857146</ele><time>2026-05-02T07:57:37.133Z</time></trkpt><trkpt lat="45.3457921" lon="10.7103997"><ele>51.28571428571429</ele><time>2026-05-02T07:57:39.133Z</time></trkpt><trkpt lat="45.3458581" lon="10.7104124"><ele>51.42857142857143</ele><time>2026-05-02T07:57:41.132Z</time></trkpt><trkpt lat="45.3459231" lon="10.7104291"><ele>51.57142857142857</ele><time>2026-05-02T07:57:43.132Z</time></trkpt><trkpt lat="45.3459889" lon="10.7104499"><ele>51.714285714285715</ele><time>2026-05-02T07:57:45.132Z</time></trkpt><trkpt lat="45.3460561" lon="10.7104706"><ele>51.857142857142854</ele><time>2026-05-02T07:57:47.133Z</time></trkpt><trkpt lat="45.3461229" lon="10.7104917"><ele>52.0</ele><time>2026-05-02T07:57:49.132Z</time></trkpt><trkpt lat="45.3461876" lon="10.7105144"><ele>52.0</ele><time>2026-05-02T07:57:51.132Z</time></trkpt><trkpt lat="45.3462519" lon="10.7105379"><ele>52.0</ele><time>2026-05-02T07:57:53.132Z</time></trkpt><trkpt lat="45.3463164" lon="10.7105628"><ele>52.0</ele><time>2026-05-02T07:57:55.132Z</time></trkpt><trkpt lat="45.3463817" lon="10.7105894"><ele>52.0</ele><time>2026-05-02T07:57:57.132Z</time></trkpt><trkpt lat="45.34645" lon="10.7106157"><ele>52.0</ele><time>2026-05-02T07:57:59.132Z</time></trkpt><trkpt lat="45.3465173" lon="10.7106439"><ele>52.0</ele><time>2026-05-02T07:58:01.133Z</time></trkpt><trkpt lat="45.3465854" lon="10.7106706"><ele>52.0</ele><time>2026-05-02T07:58:03.133Z</time></trkpt><trkpt lat="45.3466541" lon="10.7107002"><ele>51.83333333333333</ele><time>2026-05-02T07:58:05.132Z</time></trkpt><trkpt lat="45.3467243" lon="10.7107317"><ele>51.666666666666664</ele><time>2026-05-02T07:58:07.131Z</time></trkpt><trkpt lat="45.3467976" lon="10.7107661"><ele>51.5</ele><time>2026-05-02T07:58:09.132Z</time></trkpt><trkpt lat="45.3468709" lon="10.7108029"><ele>51.33333333333333</ele><time>2026-05-02T07:58:11.132Z</time></trkpt><trkpt lat="45.346946" lon="10.7108383"><ele>51.166666666666664</ele><time>2026-05-02T07:58:13.132Z</time></trkpt><trkpt lat="45.34702" lon="10.7108764"><ele>51.0</ele><time>2026-05-02T07:58:15.133Z</time></trkpt><trkpt lat="45.3470935" lon="10.7109149"><ele>51.0</ele><time>2026-05-02T07:58:17.133Z</time></trkpt><trkpt lat="45.3471666" lon="10.7109571"><ele>51.0</ele><time>2026-05-02T07:58:19.133Z</time></trkpt><trkpt lat="45.3472401" lon="10.7110017"><ele>51.0</ele><time>2026-05-02T07:58:21.133Z</time></trkpt><trkpt lat="45.3473152" lon="10.7110475"><ele>51.0</ele><time>2026-05-02T07:58:23.133Z</time></trkpt><trkpt lat="45.3473921" lon="10.7110927"><ele>51.0</ele><time>2026-05-02T07:58:25.133Z</time></trkpt><trkpt lat="45.3474669" lon="10.7111415"><ele>51.0</ele><time>2026-05-02T07:58:27.132Z</time></trkpt><trkpt lat="45.3475407" lon="10.7111862"><ele>51.333333333333336</ele><time>2026-05-02T07:58:29.133Z</time></trkpt><trkpt lat="45.3476104" lon="10.7112344"><ele>51.66666666666667</ele><time>2026-05-02T07:58:31.132Z</time></trkpt><trkpt lat="45.3476782" lon="10.7112861"><ele>52.0</ele><time>2026-05-02T07:58:33.133Z</time></trkpt><trkpt lat="45.3477467" lon="10.7113391"><ele>52.333333333333336</ele><time>2026-05-02T07:58:35.133Z</time></trkpt><trkpt lat="45.3478121" lon="10.7113934"><ele>52.66666666666667</ele><time>2026-05-02T07:58:37.131Z</time></trkpt><trkpt lat="45.3478755" lon="10.7114499"><ele>53.0</ele><time>2026-05-02T07:58:39.133Z</time></trkpt><trkpt lat="45.3479393" lon="10.7115107"><ele>53.00000000000001</ele><time>2026-05-02T07:58:41.132Z</time></trkpt><trkpt lat="45.3480021" lon="10.7115719"><ele>53.0</ele><time>2026-05-02T07:58:43.133Z</time></trkpt><trkpt lat="45.3480643" lon="10.7116442"><ele>53.0</ele><time>2026-05-02T07:58:45.133Z</time></trkpt><trkpt lat="45.3481282" lon="10.7117152"><ele>53.0</ele><time>2026-05-02T07:58:47.132Z</time></trkpt><trkpt lat="45.3481944" lon="10.7117889"><ele>53.00000000000001</ele><time>2026-05-02T07:58:49.133Z</time></trkpt><trkpt lat="45.3482602" lon="10.7118661"><ele>53.0</ele><time>2026-05-02T07:58:51.132Z</time></trkpt><trkpt lat="45.3483233" lon="10.7119434"><ele>53.0</ele><time>2026-05-02T07:58:53.133Z</time></trkpt><trkpt lat="45.3483774" lon="10.7120174"><ele>53.0</ele><time>2026-05-02T07:58:55.133Z</time></trkpt><trkpt lat="45.3484293" lon="10.7120826"><ele>53.0</ele><time>2026-05-02T07:58:57.132Z</time></trkpt><trkpt lat="45.3484745" lon="10.7121509"><ele>53.0</ele><time>2026-05-02T07:58:59.132Z</time></trkpt><trkpt lat="45.3485243" lon="10.7122184"><ele>53.0</ele><time>2026-05-02T07:59:01.133Z</time></trkpt><trkpt lat="45.348571" lon="10.7122883"><ele>53.0</ele><time>2026-05-02T07:59:03.132Z</time></trkpt><trkpt lat="45.3486177" lon="10.7123599"><ele>53.0</ele><time>2026-05-02T07:59:05.132Z</time></trkpt><trkpt lat="45.3486633" lon="10.7124366"><ele>53.0</ele><time>2026-05-02T07:59:07.133Z</time></trkpt><trkpt lat="45.3487077" lon="10.7125146"><ele>53.0</ele><time>2026-05-02T07:59:09.132Z</time></trkpt><trkpt lat="45.3487532" lon="10.7125966"><ele>53.0</ele><time>2026-05-02T07:59:11.133Z</time></trkpt><trkpt lat="45.3487982" lon="10.7126817"><ele>53.0</ele><time>2026-05-02T07:59:13.133Z</time></trkpt><trkpt lat="45.348841" lon="10.7127693"><ele>53.0</ele><time>2026-05-02T07:59:15.132Z</time></trkpt><trkpt lat="45.348885" lon="10.7128544"><ele>53.0</ele><time>2026-05-02T07:59:17.132Z</time></trkpt><trkpt lat="45.3489292" lon="10.7129375"><ele>53.0</ele><time>2026-05-02T07:59:19.133Z</time></trkpt><trkpt lat="45.3489731" lon="10.7130214"><ele>53.00000000000001</ele><time>2026-05-02T07:59:21.132Z</time></trkpt><trkpt lat="45.3490141" lon="10.7131088"><ele>53.0</ele><time>2026-05-02T07:59:23.133Z</time></trkpt><trkpt lat="45.3490539" lon="10.7131998"><ele>53.0</ele><time>2026-05-02T07:59:25.132Z</time></trkpt><trkpt lat="45.349095" lon="10.7132944"><ele>53.0</ele><time>2026-05-02T07:59:27.133Z</time></trkpt><trkpt lat="45.3491397" lon="10.7133876"><ele>53.00000000000001</ele><time>2026-05-02T07:59:29.133Z</time></trkpt><trkpt lat="45.3491829" lon="10.713477"><ele>53.0</ele><time>2026-05-02T07:59:31.132Z</time></trkpt><trkpt lat="45.3492231" lon="10.7135675"><ele>52.66666666666667</ele><time>2026-05-02T07:59:33.133Z</time></trkpt><trkpt lat="45.3492641" lon="10.7136596"><ele>52.333333333333336</ele><time>2026-05-02T07:59:35.133Z</time></trkpt><trkpt lat="45.3493055" lon="10.7137533"><ele>52.0</ele><time>2026-05-02T07:59:37.131Z</time></trkpt><trkpt lat="45.349348" lon="10.7138501"><ele>51.66666666666667</ele><time>2026-05-02T07:59:39.132Z</time></trkpt><trkpt lat="45.349392" lon="10.7139474"><ele>51.333333333333336</ele><time>2026-05-02T07:59:41.131Z</time></trkpt><trkpt lat="45.3494347" lon="10.7140437"><ele>51.0</ele><time>2026-05-02T07:59:43.132Z</time></trkpt><trkpt lat="45.3494784" lon="10.7141364"><ele>51.0</ele><time>2026-05-02T07:59:45.132Z</time></trkpt><trkpt lat="45.3495185" lon="10.7142289"><ele>51.0</ele><time>2026-05-02T07:59:47.133Z</time></trkpt><trkpt lat="45.3495595" lon="10.7143166"><ele>51.0</ele><time>2026-05-02T07:59:49.133Z</time></trkpt><trkpt lat="45.3495996" lon="10.7144076"><ele>51.0</ele><time>2026-05-02T07:59:51.132Z</time></trkpt><trkpt lat="45.3496412" lon="10.7145007"><ele>51.0</ele><time>2026-05-02T07:59:53.132Z</time></trkpt><trkpt lat="45.349684" lon="10.7145954"><ele>51.0</ele><time>2026-05-02T07:59:55.133Z</time></trkpt><trkpt lat="45.3497285" lon="10.7146908"><ele>51.166666666666664</ele><time>2026-05-02T07:59:57.132Z</time></trkpt><trkpt lat="45.3497726" lon="10.7147889"><ele>51.33333333333333</ele><time>2026-05-02T07:59:59.132Z</time></trkpt><trkpt lat="45.3498167" lon="10.7148893"><ele>51.5</ele><time>2026-05-02T08:00:01.133Z</time></trkpt><trkpt lat="45.3498605" lon="10.714989"><ele>51.666666666666664</ele><time>2026-05-02T08:00:03.133Z</time></trkpt><trkpt lat="45.3499014" lon="10.7150892"><ele>51.83333333333333</ele><time>2026-05-02T08:00:05.132Z</time></trkpt><trkpt lat="45.3499433" lon="10.7151836"><ele>52.0</ele><time>2026-05-02T08:00:07.133Z</time></trkpt><trkpt lat="45.349981" lon="10.7152796"><ele>52.166666666666664</ele><time>2026-05-02T08:00:09.132Z</time></trkpt><trkpt lat="45.3500135" lon="10.7153797"><ele>52.33333333333333</ele><time>2026-05-02T08:00:11.133Z</time></trkpt><trkpt lat="45.3500483" lon="10.715479"><ele>52.5</ele><time>2026-05-02T08:00:13.133Z</time></trkpt><trkpt lat="45.3500768" lon="10.7155814"><ele>52.66666666666667</ele><time>2026-05-02T08:00:15.133Z</time></trkpt><trkpt lat="45.3501055" lon="10.7156839"><ele>52.833333333333336</ele><time>2026-05-02T08:00:17.133Z</time></trkpt><trkpt lat="45.3501338" lon="10.7157861"><ele>53.0</ele><time>2026-05-02T08:00:19.132Z</time></trkpt><trkpt lat="45.3501641" lon="10.7158886"><ele>53.00000000000001</ele><time>2026-05-02T08:00:21.132Z</time></trkpt><trkpt lat="45.3501921" lon="10.7159923"><ele>53.0</ele><time>2026-05-02T08:00:23.131Z</time></trkpt><trkpt lat="45.3502223" lon="10.716096"><ele>53.0</ele><time>2026-05-02T08:00:25.132Z</time></trkpt><trkpt lat="45.3502512" lon="10.7162015"><ele>53.0</ele><time>2026-05-02T08:00:27.132Z</time></trkpt><trkpt lat="45.3502795" lon="10.7163058"><ele>53.00000000000001</ele><time>2026-05-02T08:00:29.132Z</time></trkpt><trkpt lat="45.3503061" lon="10.7164103"><ele>53.0</ele><time>2026-05-02T08:00:31.133Z</time></trkpt><trkpt lat="45.3503312" lon="10.7165129"><ele>53.00000000000001</ele><time>2026-05-02T08:00:33.132Z</time></trkpt><trkpt lat="45.3503593" lon="10.7166109"><ele>53.0</ele><time>2026-05-02T08:00:35.133Z</time></trkpt><trkpt lat="45.3503845" lon="10.7167098"><ele>53.0</ele><time>2026-05-02T08:00:37.131Z</time></trkpt><trkpt lat="45.3504088" lon="10.7168108"><ele>53.0</ele><time>2026-05-02T08:00:39.133Z</time></trkpt><trkpt lat="45.3504329" lon="10.7169151"><ele>53.00000000000001</ele><time>2026-05-02T08:00:41.133Z</time></trkpt><trkpt lat="45.3504591" lon="10.7170207"><ele>53.0</ele><time>2026-05-02T08:00:43.133Z</time></trkpt><trkpt lat="45.3504824" lon="10.7171278"><ele>53.00000000000001</ele><time>2026-05-02T08:00:45.133Z</time></trkpt><trkpt lat="45.3504997" lon="10.7172365"><ele>53.0</ele><time>2026-05-02T08:00:47.133Z</time></trkpt><trkpt lat="45.3505228" lon="10.7173452"><ele>53.0</ele><time>2026-05-02T08:00:49.133Z</time></trkpt><trkpt lat="45.350542" lon="10.7174546"><ele>53.0</ele><time>2026-05-02T08:00:51.132Z</time></trkpt><trkpt lat="45.3505656" lon="10.717564"><ele>53.00000000000001</ele><time>2026-05-02T08:00:53.133Z</time></trkpt><trkpt lat="45.3505882" lon="10.717676"><ele>53.0</ele><time>2026-05-02T08:00:55.133Z</time></trkpt><trkpt lat="45.3506106" lon="10.7177857"><ele>52.833333333333336</ele><time>2026-05-02T08:00:57.133Z</time></trkpt><trkpt lat="45.3506274" lon="10.7178938"><ele>52.66666666666667</ele><time>2026-05-02T08:00:59.132Z</time></trkpt><trkpt lat="45.3506447" lon="10.7180005"><ele>52.5</ele><time>2026-05-02T08:01:01.133Z</time></trkpt><trkpt lat="45.3506645" lon="10.7181074"><ele>52.33333333333333</ele><time>2026-05-02T08:01:03.132Z</time></trkpt><trkpt lat="45.3506872" lon="10.7182127"><ele>52.166666666666664</ele><time>2026-05-02T08:01:05.132Z</time></trkpt><trkpt lat="45.3507093" lon="10.7183171"><ele>52.0</ele><time>2026-05-02T08:01:07.133Z</time></trkpt><trkpt lat="45.3507312" lon="10.7184223"><ele>51.99999999999999</ele><time>2026-05-02T08:01:09.133Z</time></trkpt><trkpt lat="45.350756" lon="10.7185259"><ele>52.0</ele><time>2026-05-02T08:01:11.132Z</time></trkpt><trkpt lat="45.3507818" lon="10.7186279"><ele>52.0</ele><time>2026-05-02T08:01:13.132Z</time></trkpt><trkpt lat="45.3508089" lon="10.7187324"><ele>52.0</ele><time>2026-05-02T08:01:15.133Z</time></trkpt><trkpt lat="45.350838" lon="10.7188364"><ele>51.99999999999999</ele><time>2026-05-02T08:01:17.133Z</time></trkpt><trkpt lat="45.3508657" lon="10.7189423"><ele>52.0</ele><time>2026-05-02T08:01:19.132Z</time></trkpt><trkpt lat="45.3508955" lon="10.7190456"><ele>52.166666666666664</ele><time>2026-05-02T08:01:21.132Z</time></trkpt><trkpt lat="45.3509204" lon="10.7191476"><ele>52.33333333333333</ele><time>2026-05-02T08:01:23.132Z</time></trkpt><trkpt lat="45.350948" lon="10.7192518"><ele>52.5</ele><time>2026-05-02T08:01:25.133Z</time></trkpt><trkpt lat="45.3509723" lon="10.7193582"><ele>52.66666666666667</ele><time>2026-05-02T08:01:27.133Z</time></trkpt><trkpt lat="45.3510001" lon="10.7194654"><ele>52.833333333333336</ele><time>2026-05-02T08:01:29.133Z</time></trkpt><trkpt lat="45.3510266" lon="10.7195739"><ele>53.0</ele><time>2026-05-02T08:01:31.133Z</time></trkpt><trkpt lat="45.3510549" lon="10.7196816"><ele>53.50000000000001</ele><time>2026-05-02T08:01:33.131Z</time></trkpt><trkpt lat="45.3510832" lon="10.7197904"><ele>54.0</ele><time>2026-05-02T08:01:35.133Z</time></trkpt><trkpt lat="45.3511088" lon="10.719899"><ele>54.5</ele><time>2026-05-02T08:01:37.133Z</time></trkpt><trkpt lat="45.3511361" lon="10.7200054"><ele>55.0</ele><time>2026-05-02T08:01:39.133Z</time></trkpt><trkpt lat="45.3511609" lon="10.7201097"><ele>55.50000000000001</ele><time>2026-05-02T08:01:41.132Z</time></trkpt><trkpt lat="45.3511866" lon="10.7202142"><ele>56.0</ele><time>2026-05-02T08:01:43.133Z</time></trkpt><trkpt lat="45.3512139" lon="10.7203211"><ele>55.833333333333336</ele><time>2026-05-02T08:01:45.133Z</time></trkpt><trkpt lat="45.3512401" lon="10.7204313"><ele>55.66666666666667</ele><time>2026-05-02T08:01:47.133Z</time></trkpt><trkpt lat="45.3512724" lon="10.720539"><ele>55.5</ele><time>2026-05-02T08:01:49.132Z</time></trkpt><trkpt lat="45.3513007" lon="10.7206487"><ele>55.33333333333333</ele><time>2026-05-02T08:01:51.133Z</time></trkpt><trkpt lat="45.3513289" lon="10.7207575"><ele>55.166666666666664</ele><time>2026-05-02T08:01:53.132Z</time></trkpt><trkpt lat="45.3513502" lon="10.7208694"><ele>55.0</ele><time>2026-05-02T08:01:55.132Z</time></trkpt><trkpt lat="45.3513779" lon="10.7209787"><ele>54.33333333333333</ele><time>2026-05-02T08:01:57.133Z</time></trkpt><trkpt lat="45.3514079" lon="10.7210875"><ele>53.666666666666664</ele><time>2026-05-02T08:01:59.132Z</time></trkpt><trkpt lat="45.3514382" lon="10.7211962"><ele>53.0</ele><time>2026-05-02T08:02:01.133Z</time></trkpt><trkpt lat="45.3514661" lon="10.7213058"><ele>52.33333333333333</ele><time>2026-05-02T08:02:03.132Z</time></trkpt><trkpt lat="45.3514956" lon="10.7214148"><ele>51.666666666666664</ele><time>2026-05-02T08:02:05.133Z</time></trkpt><trkpt lat="45.3515245" lon="10.7215214"><ele>51.0</ele><time>2026-05-02T08:02:07.132Z</time></trkpt><trkpt lat="45.3515536" lon="10.7216272"><ele>51.0</ele><time>2026-05-02T08:02:09.132Z</time></trkpt><trkpt lat="45.3515851" lon="10.7217356"><ele>51.0</ele><time>2026-05-02T08:02:11.132Z</time></trkpt><trkpt lat="45.3516199" lon="10.7218435"><ele>51.0</ele><time>2026-05-02T08:02:13.132Z</time></trkpt><trkpt lat="45.3516547" lon="10.7219513"><ele>51.0</ele><time>2026-05-02T08:02:15.133Z</time></trkpt><trkpt lat="45.3516885" lon="10.7220635"><ele>51.0</ele><time>2026-05-02T08:02:17.133Z</time></trkpt><trkpt lat="45.3517234" lon="10.7221754"><ele>51.0</ele><time>2026-05-02T08:02:19.133Z</time></trkpt><trkpt lat="45.3517559" lon="10.7222844"><ele>51.5</ele><time>2026-05-02T08:02:21.132Z</time></trkpt><trkpt lat="45.3517907" lon="10.7223915"><ele>52.0</ele><time>2026-05-02T08:02:23.133Z</time></trkpt><trkpt lat="45.351822" lon="10.7225009"><ele>52.5</ele><time>2026-05-02T08:02:25.133Z</time></trkpt><trkpt lat="45.3518548" lon="10.7226074"><ele>53.0</ele><time>2026-05-02T08:02:27.132Z</time></trkpt><trkpt lat="45.3518834" lon="10.7227183"><ele>53.5</ele><time>2026-05-02T08:02:29.133Z</time></trkpt><trkpt lat="45.3519183" lon="10.7228261"><ele>54.0</ele><time>2026-05-02T08:02:31.131Z</time></trkpt><trkpt lat="45.3519515" lon="10.7229322"><ele>55.0</ele><time>2026-05-02T08:02:33.132Z</time></trkpt><trkpt lat="45.3519677" lon="10.7230404"><ele>56.0</ele><time>2026-05-02T08:02:35.132Z</time></trkpt><trkpt lat="45.3519657" lon="10.7231475"><ele>57.0</ele><time>2026-05-02T08:02:37.133Z</time></trkpt><trkpt lat="45.3519551" lon="10.7232387"><ele>58.0</ele><time>2026-05-02T08:02:39.133Z</time></trkpt><trkpt lat="45.3519088" lon="10.7233385"><ele>59.0</ele><time>2026-05-02T08:02:42.133Z</time></trkpt><trkpt lat="45.3518521" lon="10.7234146"><ele>60.0</ele><time>2026-05-02T08:02:45.132Z</time></trkpt><trkpt lat="45.351797" lon="10.7234839"><ele>60.0</ele><time>2026-05-02T08:02:48.131Z</time></trkpt><trkpt lat="45.3517426" lon="10.7235569"><ele>60.0</ele><time>2026-05-02T08:02:51.133Z</time></trkpt><trkpt lat="45.3517015" lon="10.723639"><ele>60.0</ele><time>2026-05-02T08:02:54.133Z</time></trkpt><trkpt lat="45.3517175" lon="10.7237372"><ele>60.0</ele><time>2026-05-02T08:02:57.132Z</time></trkpt><trkpt lat="45.3517754" lon="10.7238373"><ele>60.0</ele><time>2026-05-02T08:03:23.131Z</time></trkpt><trkpt lat="45.3518096" lon="10.7239215"><ele>60.0</ele><time>2026-05-02T08:03:26.132Z</time></trkpt><trkpt lat="45.3518679" lon="10.7240471"><ele>61.142857142857146</ele><time>2026-05-02T08:03:30.132Z</time></trkpt><trkpt lat="45.3519204" lon="10.7241425"><ele>62.28571428571428</ele><time>2026-05-02T08:03:33.132Z</time></trkpt><trkpt lat="45.3519747" lon="10.724247"><ele>63.42857142857142</ele><time>2026-05-02T08:03:36.132Z</time></trkpt><trkpt lat="45.3520087" lon="10.724324"><ele>64.57142857142857</ele><time>2026-05-02T08:03:38.131Z</time></trkpt><trkpt lat="45.3520438" lon="10.724403"><ele>65.71428571428571</ele><time>2026-05-02T08:03:40.13Z</time></trkpt><trkpt lat="45.3520789" lon="10.7244822"><ele>66.85714285714285</ele><time>2026-05-02T08:03:42.132Z</time></trkpt><trkpt lat="45.3521124" lon="10.7245627"><ele>68.0</ele><time>2026-05-02T08:03:44.132Z</time></trkpt><trkpt lat="45.3521499" lon="10.7246424"><ele>67.28571428571428</ele><time>2026-05-02T08:03:46.132Z</time></trkpt><trkpt lat="45.3521881" lon="10.7247258"><ele>66.57142857142857</ele><time>2026-05-02T08:03:48.13Z</time></trkpt><trkpt lat="45.3522258" lon="10.7248066"><ele>65.85714285714286</ele><time>2026-05-02T08:03:50.131Z</time></trkpt><trkpt lat="45.352252" lon="10.7248945"><ele>65.14285714285714</ele><time>2026-05-02T08:03:52.131Z</time></trkpt><trkpt lat="45.3522828" lon="10.7249773"><ele>64.42857142857143</ele><time>2026-05-02T08:03:54.131Z</time></trkpt><trkpt lat="45.3523141" lon="10.7250625"><ele>63.714285714285715</ele><time>2026-05-02T08:03:56.131Z</time></trkpt><trkpt lat="45.352349" lon="10.7251481"><ele>63.0</ele><time>2026-05-02T08:03:58.13Z</time></trkpt><trkpt lat="45.3523832" lon="10.7252351"><ele>63.0</ele><time>2026-05-02T08:04:00.131Z</time></trkpt><trkpt lat="45.3524184" lon="10.7253214"><ele>63.0</ele><time>2026-05-02T08:04:02.131Z</time></trkpt><trkpt lat="45.3524541" lon="10.7254081"><ele>63.0</ele><time>2026-05-02T08:04:04.131Z</time></trkpt><trkpt lat="45.3524868" lon="10.7254967"><ele>63.0</ele><time>2026-05-02T08:04:06.132Z</time></trkpt><trkpt lat="45.3525192" lon="10.7255853"><ele>63.0</ele><time>2026-05-02T08:04:08.132Z</time></trkpt><trkpt lat="45.3525526" lon="10.7256725"><ele>63.0</ele><time>2026-05-02T08:04:10.132Z</time></trkpt><trkpt lat="45.3525855" lon="10.7257615"><ele>63.0</ele><time>2026-05-02T08:04:12.131Z</time></trkpt><trkpt lat="45.3526166" lon="10.7258496"><ele>63.0</ele><time>2026-05-02T08:04:14.132Z</time></trkpt><trkpt lat="45.3526508" lon="10.7259327"><ele>63.0</ele><time>2026-05-02T08:04:16.131Z</time></trkpt><trkpt lat="45.3526818" lon="10.7260184"><ele>63.0</ele><time>2026-05-02T08:04:18.132Z</time></trkpt><trkpt lat="45.3527113" lon="10.7261067"><ele>63.0</ele><time>2026-05-02T08:04:20.131Z</time></trkpt><trkpt lat="45.3527413" lon="10.7261921"><ele>63.0</ele><time>2026-05-02T08:04:22.132Z</time></trkpt><trkpt lat="45.3527711" lon="10.726281"><ele>63.0</ele><time>2026-05-02T08:04:24.132Z</time></trkpt><trkpt lat="45.3528014" lon="10.7263692"><ele>63.0</ele><time>2026-05-02T08:04:26.131Z</time></trkpt><trkpt lat="45.3528337" lon="10.7264545"><ele>63.166666666666664</ele><time>2026-05-02T08:04:28.132Z</time></trkpt><trkpt lat="45.3528637" lon="10.7265391"><ele>63.33333333333333</ele><time>2026-05-02T08:04:30.132Z</time></trkpt><trkpt lat="45.3529082" lon="10.7266543"><ele>63.5</ele><time>2026-05-02T08:04:33.131Z</time></trkpt><trkpt lat="45.3529466" lon="10.72676"><ele>63.666666666666664</ele><time>2026-05-02T08:04:36.132Z</time></trkpt><trkpt lat="45.3529808" lon="10.7268477"><ele>63.83333333333333</ele><time>2026-05-02T08:04:39.132Z</time></trkpt><trkpt lat="45.3530148" lon="10.7269395"><ele>64.0</ele><time>2026-05-02T08:04:43.132Z</time></trkpt><trkpt lat="45.3530502" lon="10.7270275"><ele>63.99999999999999</ele><time>2026-05-02T08:04:49.132Z</time></trkpt><trkpt lat="45.3531071" lon="10.7271031"><ele>64.0</ele><time>2026-05-02T08:05:22.131Z</time></trkpt><trkpt lat="45.353156" lon="10.7271603"><ele>64.0</ele><time>2026-05-02T08:05:25.131Z</time></trkpt><trkpt lat="45.3532006" lon="10.7272464"><ele>64.0</ele><time>2026-05-02T08:05:28.132Z</time></trkpt><trkpt lat="45.3532511" lon="10.7273364"><ele>63.99999999999999</ele><time>2026-05-02T08:05:31.132Z</time></trkpt><trkpt lat="45.3533044" lon="10.7274195"><ele>64.0</ele><time>2026-05-02T08:05:34.132Z</time></trkpt><trkpt lat="45.3533638" lon="10.7275104"><ele>63.99999999999999</ele><time>2026-05-02T08:05:37.131Z</time></trkpt><trkpt lat="45.3534244" lon="10.7276028"><ele>64.0</ele><time>2026-05-02T08:05:40.131Z</time></trkpt><trkpt lat="45.3534852" lon="10.7276917"><ele>64.0</ele><time>2026-05-02T08:05:43.131Z</time></trkpt><trkpt lat="45.3535558" lon="10.7277573"><ele>64.0</ele><time>2026-05-02T08:05:46.132Z</time></trkpt><trkpt lat="45.3536254" lon="10.7278209"><ele>63.99999999999999</ele><time>2026-05-02T08:05:49.131Z</time></trkpt><trkpt lat="45.3536943" lon="10.727891"><ele>64.0</ele><time>2026-05-02T08:05:52.131Z</time></trkpt><trkpt lat="45.3537713" lon="10.7279584"><ele>64.33333333333333</ele><time>2026-05-02T08:05:55.132Z</time></trkpt><trkpt lat="45.3538393" lon="10.7280001"><ele>64.66666666666666</ele><time>2026-05-02T08:05:58.132Z</time></trkpt><trkpt lat="45.3538914" lon="10.7280535"><ele>65.0</ele><time>2026-05-02T08:06:00.132Z</time></trkpt><trkpt lat="45.3539391" lon="10.7281294"><ele>65.33333333333333</ele><time>2026-05-02T08:06:02.132Z</time></trkpt><trkpt lat="45.3539833" lon="10.728204"><ele>65.66666666666667</ele><time>2026-05-02T08:06:04.132Z</time></trkpt><trkpt lat="45.3540591" lon="10.7282752"><ele>66.0</ele><time>2026-05-02T08:06:07.131Z</time></trkpt><trkpt lat="45.3541453" lon="10.7283044"><ele>66.0</ele><time>2026-05-02T08:06:10.132Z</time></trkpt><trkpt lat="45.35421" lon="10.7283071"><ele>66.0</ele><time>2026-05-02T08:06:12.13Z</time></trkpt><trkpt lat="45.3542733" lon="10.7283287"><ele>66.0</ele><time>2026-05-02T08:06:14.132Z</time></trkpt><trkpt lat="45.35435" lon="10.7283631"><ele>66.0</ele><time>2026-05-02T08:06:17.131Z</time></trkpt><trkpt lat="45.3544149" lon="10.7283803"><ele>66.0</ele><time>2026-05-02T08:06:19.131Z</time></trkpt><trkpt lat="45.3544855" lon="10.7284065"><ele>66.0</ele><time>2026-05-02T08:06:21.13Z</time></trkpt><trkpt lat="45.354554" lon="10.7284342"><ele>66.0</ele><time>2026-05-02T08:06:23.132Z</time></trkpt><trkpt lat="45.3546307" lon="10.7284555"><ele>65.5</ele><time>2026-05-02T08:06:25.131Z</time></trkpt><trkpt lat="45.3547055" lon="10.7284736"><ele>65.0</ele><time>2026-05-02T08:06:27.132Z</time></trkpt><trkpt lat="45.3547805" lon="10.728488"><ele>64.5</ele><time>2026-05-02T08:06:29.132Z</time></trkpt><trkpt lat="45.3548549" lon="10.7285011"><ele>64.0</ele><time>2026-05-02T08:06:31.132Z</time></trkpt><trkpt lat="45.3549323" lon="10.7285129"><ele>63.5</ele><time>2026-05-02T08:06:33.131Z</time></trkpt><trkpt lat="45.3550118" lon="10.7285245"><ele>63.0</ele><time>2026-05-02T08:06:35.131Z</time></trkpt><trkpt lat="45.3550901" lon="10.728533"><ele>63.0</ele><time>2026-05-02T08:06:37.131Z</time></trkpt><trkpt lat="45.3551633" lon="10.7285491"><ele>63.0</ele><time>2026-05-02T08:06:39.132Z</time></trkpt><trkpt lat="45.3552359" lon="10.7285583"><ele>63.0</ele><time>2026-05-02T08:06:41.131Z</time></trkpt><trkpt lat="45.3553105" lon="10.728571"><ele>63.0</ele><time>2026-05-02T08:06:43.131Z</time></trkpt><trkpt lat="45.3553842" lon="10.7285774"><ele>63.0</ele><time>2026-05-02T08:06:45.132Z</time></trkpt><trkpt lat="45.3554879" lon="10.7285904"><ele>63.0</ele><time>2026-05-02T08:06:48.131Z</time></trkpt><trkpt lat="45.3555528" lon="10.7285915"><ele>65.66666666666667</ele><time>2026-05-02T08:06:50.131Z</time></trkpt><trkpt lat="45.3556555" lon="10.7285995"><ele>68.33333333333333</ele><time>2026-05-02T08:06:53.132Z</time></trkpt><trkpt lat="45.3557408" lon="10.7286192"><ele>71.0</ele><time>2026-05-02T08:06:56.054Z</time></trkpt><trkpt lat="45.3558324" lon="10.7286238"><ele>73.66666666666666</ele><time>2026-05-02T08:06:58.131Z</time></trkpt><trkpt lat="45.3558992" lon="10.7286217"><ele>76.33333333333333</ele><time>2026-05-02T08:07:00.132Z</time></trkpt><trkpt lat="45.3559645" lon="10.728625"><ele>79.0</ele><time>2026-05-02T08:07:02.131Z</time></trkpt><trkpt lat="45.356029" lon="10.7286299"><ele>79.00000000000001</ele><time>2026-05-02T08:07:04.132Z</time></trkpt><trkpt lat="45.3561216" lon="10.7286396"><ele>79.0</ele><time>2026-05-02T08:07:07.132Z</time></trkpt><trkpt lat="45.3561849" lon="10.7286469"><ele>79.0</ele><time>2026-05-02T08:07:09.131Z</time></trkpt><trkpt lat="45.356249" lon="10.7286495"><ele>79.0</ele><time>2026-05-02T08:07:11.131Z</time></trkpt><trkpt lat="45.3563131" lon="10.7286515"><ele>79.0</ele><time>2026-05-02T08:07:13.132Z</time></trkpt><trkpt lat="45.3563792" lon="10.7286542"><ele>79.00000000000001</ele><time>2026-05-02T08:07:15.132Z</time></trkpt><trkpt lat="45.3564442" lon="10.7286573"><ele>79.0</ele><time>2026-05-02T08:07:17.131Z</time></trkpt><trkpt lat="45.3565298" lon="10.72867"><ele>79.66666666666666</ele><time>2026-05-02T08:07:20.132Z</time></trkpt><trkpt lat="45.3566175" lon="10.7286824"><ele>80.33333333333333</ele><time>2026-05-02T08:07:23.131Z</time></trkpt><trkpt lat="45.3567074" lon="10.7286898"><ele>81.0</ele><time>2026-05-02T08:07:26.131Z</time></trkpt><trkpt lat="45.3568073" lon="10.7286866"><ele>81.66666666666667</ele><time>2026-05-02T08:07:29.131Z</time></trkpt><trkpt lat="45.3568805" lon="10.728702"><ele>82.33333333333334</ele><time>2026-05-02T08:07:31.132Z</time></trkpt><trkpt lat="45.3569467" lon="10.7287052"><ele>83.0</ele><time>2026-05-02T08:07:33.13Z</time></trkpt><trkpt lat="45.3570238" lon="10.7286973"><ele>83.0</ele><time>2026-05-02T08:07:35.131Z</time></trkpt><trkpt lat="45.3571272" lon="10.7287087"><ele>83.0</ele><time>2026-05-02T08:07:37.132Z</time></trkpt><trkpt lat="45.3572126" lon="10.7287228"><ele>83.0</ele><time>2026-05-02T08:07:39.132Z</time></trkpt><trkpt lat="45.3572895" lon="10.7287282"><ele>83.0</ele><time>2026-05-02T08:07:41.131Z</time></trkpt><trkpt lat="45.3573598" lon="10.7287361"><ele>83.0</ele><time>2026-05-02T08:07:43.131Z</time></trkpt><trkpt lat="45.3574459" lon="10.7287378"><ele>83.0</ele><time>2026-05-02T08:07:46.131Z</time></trkpt><trkpt lat="45.3575179" lon="10.7287456"><ele>82.57142857142857</ele><time>2026-05-02T08:07:48.131Z</time></trkpt><trkpt lat="45.3575868" lon="10.7287622"><ele>82.14285714285715</ele><time>2026-05-02T08:07:50.132Z</time></trkpt><trkpt lat="45.3576521" lon="10.7287788"><ele>81.71428571428572</ele><time>2026-05-02T08:07:52.131Z</time></trkpt><trkpt lat="45.3577169" lon="10.7287907"><ele>81.28571428571428</ele><time>2026-05-02T08:07:54.131Z</time></trkpt><trkpt lat="45.3577937" lon="10.7288032"><ele>80.85714285714286</ele><time>2026-05-02T08:07:57.132Z</time></trkpt><trkpt lat="45.357871" lon="10.7288163"><ele>80.42857142857143</ele><time>2026-05-02T08:08:00.131Z</time></trkpt><trkpt lat="45.3579461" lon="10.7288399"><ele>80.0</ele><time>2026-05-02T08:08:03.132Z</time></trkpt><trkpt lat="45.3580274" lon="10.7288713"><ele>79.16666666666667</ele><time>2026-05-02T08:08:06.132Z</time></trkpt><trkpt lat="45.3581008" lon="10.7288398"><ele>78.33333333333334</ele><time>2026-05-02T08:08:10.132Z</time></trkpt><trkpt lat="45.3581126" lon="10.7287223"><ele>77.5</ele><time>2026-05-02T08:08:14.132Z</time></trkpt><trkpt lat="45.3581632" lon="10.7286416"><ele>76.66666666666667</ele><time>2026-05-02T08:08:17.132Z</time></trkpt><trkpt lat="45.3582542" lon="10.7286344"><ele>75.83333333333333</ele><time>2026-05-02T08:08:20.132Z</time></trkpt><trkpt lat="45.3583471" lon="10.7286428"><ele>75.0</ele><time>2026-05-02T08:08:23.13Z</time></trkpt><trkpt lat="45.3584162" lon="10.7286532"><ele>75.0</ele><time>2026-05-02T08:08:25.131Z</time></trkpt><trkpt lat="45.3584966" lon="10.7286596"><ele>75.0</ele><time>2026-05-02T08:08:27.131Z</time></trkpt><trkpt lat="45.3585917" lon="10.7286411"><ele>75.0</ele><time>2026-05-02T08:08:29.131Z</time></trkpt><trkpt lat="45.3586934" lon="10.7286452"><ele>75.0</ele><time>2026-05-02T08:08:31.132Z</time></trkpt><trkpt lat="45.3588089" lon="10.7286451"><ele>75.0</ele><time>2026-05-02T08:08:33.131Z</time></trkpt><trkpt lat="45.3589315" lon="10.7286324"><ele>74.4</ele><time>2026-05-02T08:08:35.131Z</time></trkpt><trkpt lat="45.359056" lon="10.7286204"><ele>73.8</ele><time>2026-05-02T08:08:37.132Z</time></trkpt><trkpt lat="45.3591194" lon="10.728612"><ele>73.2</ele><time>2026-05-02T08:08:38.131Z</time></trkpt><trkpt lat="45.3592434" lon="10.728596"><ele>72.6</ele><time>2026-05-02T08:08:40.131Z</time></trkpt><trkpt lat="45.359341" lon="10.728589"><ele>72.0</ele><time>2026-05-02T08:08:42.131Z</time></trkpt><trkpt lat="45.3594126" lon="10.7285742"><ele>72.0</ele><time>2026-05-02T08:08:44.131Z</time></trkpt><trkpt lat="45.3593475" lon="10.7285817"><ele>72.0</ele><time>2026-05-02T08:08:51.13Z</time></trkpt><trkpt lat="45.3592658" lon="10.7285862"><ele>72.0</ele><time>2026-05-02T08:08:55.132Z</time></trkpt><trkpt lat="45.3591824" lon="10.7285988"><ele>72.0</ele><time>2026-05-02T08:08:58.132Z</time></trkpt><trkpt lat="45.3590969" lon="10.7286205"><ele>72.0</ele><time>2026-05-02T08:09:01.132Z</time></trkpt><trkpt lat="45.3590135" lon="10.7286368"><ele>72.0</ele><time>2026-05-02T08:09:04.13Z</time></trkpt><trkpt lat="45.3589285" lon="10.728647"><ele>72.5</ele><time>2026-05-02T08:09:07.131Z</time></trkpt><trkpt lat="45.3588512" lon="10.7286565"><ele>73.0</ele><time>2026-05-02T08:09:10.131Z</time></trkpt><trkpt lat="45.3587784" lon="10.7286549"><ele>73.5</ele><time>2026-05-02T08:09:13.132Z</time></trkpt><trkpt lat="45.3587045" lon="10.7286601"><ele>74.0</ele><time>2026-05-02T08:09:16.132Z</time></trkpt><trkpt lat="45.3586311" lon="10.728656"><ele>74.5</ele><time>2026-05-02T08:09:19.131Z</time></trkpt><trkpt lat="45.3585526" lon="10.7286587"><ele>75.0</ele><time>2026-05-02T08:09:22.132Z</time></trkpt><trkpt lat="45.3584761" lon="10.7286601"><ele>74.99999999999999</ele><time>2026-05-02T08:09:25.131Z</time></trkpt><trkpt lat="45.3583976" lon="10.72866"><ele>75.0</ele><time>2026-05-02T08:09:28.132Z</time></trkpt><trkpt lat="45.3583209" lon="10.7286559"><ele>75.0</ele><time>2026-05-02T08:09:31.132Z</time></trkpt><trkpt lat="45.3582456" lon="10.7286626"><ele>75.0</ele><time>2026-05-02T08:09:34.131Z</time></trkpt><trkpt lat="45.3581779" lon="10.7286803"><ele>75.0</ele><time>2026-05-02T08:09:37.131Z</time></trkpt><trkpt lat="45.3581192" lon="10.7287263"><ele>74.99999999999999</ele><time>2026-05-02T08:09:40.132Z</time></trkpt><trkpt lat="45.3580897" lon="10.7288177"><ele>75.0</ele><time>2026-05-02T08:09:43.132Z</time></trkpt><trkpt lat="45.3581068" lon="10.7289176"><ele>74.99999999999999</ele><time>2026-05-02T08:09:46.131Z</time></trkpt><trkpt lat="45.3581695" lon="10.7289425"><ele>75.0</ele><time>2026-05-02T08:09:49.132Z</time></trkpt><trkpt lat="45.3582428" lon="10.7289554"><ele>75.0</ele><time>2026-05-02T08:09:52.132Z</time></trkpt><trkpt lat="45.3583214" lon="10.728958"><ele>75.0</ele><time>2026-05-02T08:09:55.131Z</time></trkpt><trkpt lat="45.3583922" lon="10.728995"><ele>75.0</ele><time>2026-05-02T08:09:58.131Z</time></trkpt><trkpt lat="45.3584688" lon="10.729008"><ele>74.99999999999999</ele><time>2026-05-02T08:10:01.131Z</time></trkpt><trkpt lat="45.3585347" lon="10.7290236"><ele>75.0</ele><time>2026-05-02T08:10:04.131Z</time></trkpt><trkpt lat="45.3586082" lon="10.7290336"><ele>75.0</ele><time>2026-05-02T08:10:07.131Z</time></trkpt><trkpt lat="45.3586869" lon="10.7290412"><ele>75.0</ele><time>2026-05-02T08:10:10.131Z</time></trkpt><trkpt lat="45.3587699" lon="10.7290528"><ele>75.0</ele><time>2026-05-02T08:10:13.131Z</time></trkpt><trkpt lat="45.3588463" lon="10.729062"><ele>75.0</ele><time>2026-05-02T08:10:16.132Z</time></trkpt><trkpt lat="45.3589204" lon="10.7290705"><ele>75.0</ele><time>2026-05-02T08:10:19.13Z</time></trkpt><trkpt lat="45.35899" lon="10.7290769"><ele>75.0</ele><time>2026-05-02T08:10:22.131Z</time></trkpt><trkpt lat="45.3590625" lon="10.7290676"><ele>74.4</ele><time>2026-05-02T08:10:25.132Z</time></trkpt><trkpt lat="45.359137" lon="10.7290614"><ele>73.8</ele><time>2026-05-02T08:10:28.132Z</time></trkpt><trkpt lat="45.3592175" lon="10.7290647"><ele>73.2</ele><time>2026-05-02T08:10:31.131Z</time></trkpt><trkpt lat="45.3593018" lon="10.7290648"><ele>72.6</ele><time>2026-05-02T08:10:34.132Z</time></trkpt><trkpt lat="45.3593915" lon="10.7290749"><ele>72.0</ele><time>2026-05-02T08:10:37.131Z</time></trkpt><trkpt lat="45.3595408" lon="10.7290684"><ele>72.00000000000001</ele><time>2026-05-02T08:10:42.13Z</time></trkpt><trkpt lat="45.3596212" lon="10.729035"><ele>72.0</ele><time>2026-05-02T08:10:45.054Z</time></trkpt><trkpt lat="45.3597066" lon="10.7290501"><ele>72.0</ele><time>2026-05-02T08:10:47.131Z</time></trkpt><trkpt lat="45.3597765" lon="10.7290525"><ele>72.0</ele><time>2026-05-02T08:10:49.131Z</time></trkpt><trkpt lat="45.3598462" lon="10.7290563"><ele>72.0</ele><time>2026-05-02T08:10:51.131Z</time></trkpt><trkpt lat="45.3599152" lon="10.7290705"><ele>72.00000000000001</ele><time>2026-05-02T08:10:53.13Z</time></trkpt><trkpt lat="45.3599812" lon="10.7290812"><ele>72.0</ele><time>2026-05-02T08:10:55.131Z</time></trkpt><trkpt lat="45.3600448" lon="10.7290861"><ele>71.6</ele><time>2026-05-02T08:10:57.13Z</time></trkpt><trkpt lat="45.3601363" lon="10.7290796"><ele>71.2</ele><time>2026-05-02T08:11:00.129Z</time></trkpt><trkpt lat="45.3602284" lon="10.7290775"><ele>70.8</ele><time>2026-05-02T08:11:03.13Z</time></trkpt><trkpt lat="45.3603206" lon="10.7290761"><ele>70.4</ele><time>2026-05-02T08:11:06.13Z</time></trkpt><trkpt lat="45.3604125" lon="10.7290739"><ele>70.0</ele><time>2026-05-02T08:11:09.131Z</time></trkpt><trkpt lat="45.3605053" lon="10.7290642"><ele>70.0</ele><time>2026-05-02T08:11:12.131Z</time></trkpt><trkpt lat="45.3605687" lon="10.7290593"><ele>70.0</ele><time>2026-05-02T08:11:14.131Z</time></trkpt><trkpt lat="45.3606341" lon="10.7290532"><ele>70.0</ele><time>2026-05-02T08:11:16.131Z</time></trkpt><trkpt lat="45.3607023" lon="10.7290446"><ele>70.0</ele><time>2026-05-02T08:11:18.13Z</time></trkpt><trkpt lat="45.3607699" lon="10.7290397"><ele>70.0</ele><time>2026-05-02T08:11:20.129Z</time></trkpt><trkpt lat="45.3608373" lon="10.7290325"><ele>70.0</ele><time>2026-05-02T08:11:22.131Z</time></trkpt><trkpt lat="45.360903" lon="10.7290244"><ele>70.0</ele><time>2026-05-02T08:11:24.13Z</time></trkpt><trkpt lat="45.3609675" lon="10.7290173"><ele>70.0</ele><time>2026-05-02T08:11:26.131Z</time></trkpt><trkpt lat="45.3610322" lon="10.7290104"><ele>70.0</ele><time>2026-05-02T08:11:28.13Z</time></trkpt><trkpt lat="45.3610968" lon="10.7289937"><ele>70.0</ele><time>2026-05-02T08:11:30.131Z</time></trkpt><trkpt lat="45.361162" lon="10.7289778"><ele>70.0</ele><time>2026-05-02T08:11:32.13Z</time></trkpt><trkpt lat="45.3612301" lon="10.7289663"><ele>70.0</ele><time>2026-05-02T08:11:34.131Z</time></trkpt><trkpt lat="45.3612975" lon="10.7289699"><ele>70.0</ele><time>2026-05-02T08:11:36.13Z</time></trkpt><trkpt lat="45.3613644" lon="10.7289616"><ele>70.0</ele><time>2026-05-02T08:11:38.131Z</time></trkpt><trkpt lat="45.3614293" lon="10.7289478"><ele>70.33333333333333</ele><time>2026-05-02T08:11:40.13Z</time></trkpt><trkpt lat="45.3614948" lon="10.7289382"><ele>70.66666666666666</ele><time>2026-05-02T08:11:42.131Z</time></trkpt><trkpt lat="45.3615607" lon="10.7289268"><ele>71.0</ele><time>2026-05-02T08:11:44.13Z</time></trkpt><trkpt lat="45.3616543" lon="10.728909"><ele>71.33333333333333</ele><time>2026-05-02T08:11:47.131Z</time></trkpt><trkpt lat="45.3617458" lon="10.7288828"><ele>71.66666666666667</ele><time>2026-05-02T08:11:50.13Z</time></trkpt><trkpt lat="45.3618317" lon="10.728856"><ele>72.0</ele><time>2026-05-02T08:11:53.13Z</time></trkpt><trkpt lat="45.3619148" lon="10.7288196"><ele>72.0</ele><time>2026-05-02T08:11:56.131Z</time></trkpt><trkpt lat="45.3619952" lon="10.728797"><ele>72.0</ele><time>2026-05-02T08:11:59.131Z</time></trkpt><trkpt lat="45.3620665" lon="10.7287736"><ele>72.0</ele><time>2026-05-02T08:12:02.131Z</time></trkpt><trkpt lat="45.362139" lon="10.728729"><ele>72.0</ele><time>2026-05-02T08:12:05.13Z</time></trkpt><trkpt lat="45.3622143" lon="10.7286741"><ele>72.0</ele><time>2026-05-02T08:12:08.131Z</time></trkpt><trkpt lat="45.3622893" lon="10.7286219"><ele>72.0</ele><time>2026-05-02T08:12:11.131Z</time></trkpt><trkpt lat="45.3623688" lon="10.7285622"><ele>71.0</ele><time>2026-05-02T08:12:14.13Z</time></trkpt><trkpt lat="45.3624526" lon="10.7285238"><ele>70.0</ele><time>2026-05-02T08:12:17.131Z</time></trkpt><trkpt lat="45.362536" lon="10.7284629"><ele>69.0</ele><time>2026-05-02T08:12:20.131Z</time></trkpt><trkpt lat="45.362593" lon="10.728423"><ele>68.0</ele><time>2026-05-02T08:12:22.13Z</time></trkpt><trkpt lat="45.3626784" lon="10.7283658"><ele>67.0</ele><time>2026-05-02T08:12:25.13Z</time></trkpt><trkpt lat="45.3627606" lon="10.7283092"><ele>66.0</ele><time>2026-05-02T08:12:28.131Z</time></trkpt><trkpt lat="45.3628394" lon="10.728264"><ele>66.0</ele><time>2026-05-02T08:12:31.13Z</time></trkpt><trkpt lat="45.3629207" lon="10.7282032"><ele>66.0</ele><time>2026-05-02T08:12:34.131Z</time></trkpt><trkpt lat="45.3629773" lon="10.7281586"><ele>66.0</ele><time>2026-05-02T08:12:36.131Z</time></trkpt><trkpt lat="45.3630344" lon="10.7281116"><ele>66.0</ele><time>2026-05-02T08:12:38.13Z</time></trkpt><trkpt lat="45.3630906" lon="10.7280637"><ele>66.0</ele><time>2026-05-02T08:12:40.13Z</time></trkpt><trkpt lat="45.3631712" lon="10.7279962"><ele>66.0</ele><time>2026-05-02T08:12:43.13Z</time></trkpt><trkpt lat="45.3632493" lon="10.7279369"><ele>65.5</ele><time>2026-05-02T08:12:46.13Z</time></trkpt><trkpt lat="45.3633247" lon="10.7278737"><ele>65.0</ele><time>2026-05-02T08:12:49.13Z</time></trkpt><trkpt lat="45.3633797" lon="10.727828"><ele>64.5</ele><time>2026-05-02T08:12:51.131Z</time></trkpt><trkpt lat="45.3634341" lon="10.7277812"><ele>64.0</ele><time>2026-05-02T08:12:53.131Z</time></trkpt><trkpt lat="45.3635127" lon="10.7277087"><ele>63.5</ele><time>2026-05-02T08:12:56.13Z</time></trkpt><trkpt lat="45.3635705" lon="10.7276685"><ele>63.0</ele><time>2026-05-02T08:12:58.131Z</time></trkpt><trkpt lat="45.3636495" lon="10.7275965"><ele>63.0</ele><time>2026-05-02T08:13:01.13Z</time></trkpt><trkpt lat="45.3637037" lon="10.727548"><ele>63.0</ele><time>2026-05-02T08:13:03.13Z</time></trkpt><trkpt lat="45.3637583" lon="10.7274986"><ele>63.0</ele><time>2026-05-02T08:13:05.13Z</time></trkpt><trkpt lat="45.3638333" lon="10.7274289"><ele>63.0</ele><time>2026-05-02T08:13:08.13Z</time></trkpt><trkpt lat="45.3639096" lon="10.7273625"><ele>63.0</ele><time>2026-05-02T08:13:11.13Z</time></trkpt><trkpt lat="45.3639616" lon="10.7273112"><ele>63.0</ele><time>2026-05-02T08:13:13.13Z</time></trkpt><trkpt lat="45.3640415" lon="10.7272431"><ele>63.0</ele><time>2026-05-02T08:13:16.131Z</time></trkpt><trkpt lat="45.364118" lon="10.7271728"><ele>63.0</ele><time>2026-05-02T08:13:19.131Z</time></trkpt><trkpt lat="45.3641986" lon="10.7271039"><ele>63.0</ele><time>2026-05-02T08:13:22.13Z</time></trkpt><trkpt lat="45.3642781" lon="10.7270334"><ele>63.0</ele><time>2026-05-02T08:13:25.131Z</time></trkpt><trkpt lat="45.3643328" lon="10.7269826"><ele>63.0</ele><time>2026-05-02T08:13:27.131Z</time></trkpt><trkpt lat="45.3643895" lon="10.7269334"><ele>63.0</ele><time>2026-05-02T08:13:29.131Z</time></trkpt><trkpt lat="45.364446" lon="10.7268835"><ele>63.0</ele><time>2026-05-02T08:13:31.13Z</time></trkpt><trkpt lat="45.3645024" lon="10.7268332"><ele>63.0</ele><time>2026-05-02T08:13:33.129Z</time></trkpt><trkpt lat="45.3645581" lon="10.7267795"><ele>63.0</ele><time>2026-05-02T08:13:35.13Z</time></trkpt><trkpt lat="45.3646142" lon="10.7267295"><ele>63.0</ele><time>2026-05-02T08:13:37.13Z</time></trkpt><trkpt lat="45.3646722" lon="10.726681"><ele>63.0</ele><time>2026-05-02T08:13:39.131Z</time></trkpt><trkpt lat="45.3647263" lon="10.7266232"><ele>63.0</ele><time>2026-05-02T08:13:41.13Z</time></trkpt><trkpt lat="45.3647832" lon="10.7265721"><ele>63.0</ele><time>2026-05-02T08:13:43.131Z</time></trkpt><trkpt lat="45.3648397" lon="10.726522"><ele>63.0</ele><time>2026-05-02T08:13:45.131Z</time></trkpt><trkpt lat="45.3648903" lon="10.7264657"><ele>63.0</ele><time>2026-05-02T08:13:47.131Z</time></trkpt><trkpt lat="45.3649681" lon="10.7263925"><ele>63.0</ele><time>2026-05-02T08:13:50.13Z</time></trkpt><trkpt lat="45.3650372" lon="10.7263065"><ele>63.0</ele><time>2026-05-02T08:13:53.13Z</time></trkpt><trkpt lat="45.3650883" lon="10.7262062"><ele>63.0</ele><time>2026-05-02T08:13:56.131Z</time></trkpt><trkpt lat="45.3651122" lon="10.7261213"><ele>63.0</ele><time>2026-05-02T08:13:58.13Z</time></trkpt><trkpt lat="45.3651153" lon="10.726011"><ele>63.0</ele><time>2026-05-02T08:14:00.13Z</time></trkpt><trkpt lat="45.3650837" lon="10.7259019"><ele>63.0</ele><time>2026-05-02T08:14:02.131Z</time></trkpt><trkpt lat="45.365052" lon="10.725812"><ele>63.0</ele><time>2026-05-02T08:14:04.13Z</time></trkpt><trkpt lat="45.3649951" lon="10.7257207"><ele>63.0</ele><time>2026-05-02T08:14:06.131Z</time></trkpt><trkpt lat="45.3649079" lon="10.7256249"><ele>63.0</ele><time>2026-05-02T08:14:08.131Z</time></trkpt><trkpt lat="45.3648591" lon="10.7255673"><ele>63.0</ele><time>2026-05-02T08:14:09.13Z</time></trkpt><trkpt lat="45.3648167" lon="10.7254959"><ele>63.0</ele><time>2026-05-02T08:14:10.129Z</time></trkpt><trkpt lat="45.3647778" lon="10.7254145"><ele>63.0</ele><time>2026-05-02T08:14:11.131Z</time></trkpt><trkpt lat="45.3647412" lon="10.7253313"><ele>63.0</ele><time>2026-05-02T08:14:12.13Z</time></trkpt><trkpt lat="45.3647048" lon="10.7252451"><ele>63.0</ele><time>2026-05-02T08:14:13.13Z</time></trkpt><trkpt lat="45.3646706" lon="10.725165"><ele>63.0</ele><time>2026-05-02T08:14:14.13Z</time></trkpt><trkpt lat="45.3646235" lon="10.7250474"><ele>63.0</ele><time>2026-05-02T08:14:16.129Z</time></trkpt><trkpt lat="45.3646132" lon="10.7249484"><ele>63.0</ele><time>2026-05-02T08:14:18.13Z</time></trkpt><trkpt lat="45.3646438" lon="10.7248674"><ele>62.666666666666664</ele><time>2026-05-02T08:14:20.13Z</time></trkpt><trkpt lat="45.364705" lon="10.7247776"><ele>62.33333333333333</ele><time>2026-05-02T08:14:23.131Z</time></trkpt><trkpt lat="45.3647689" lon="10.7246806"><ele>62.0</ele><time>2026-05-02T08:14:26.13Z</time></trkpt><trkpt lat="45.364812" lon="10.7246117"><ele>61.666666666666664</ele><time>2026-05-02T08:14:28.13Z</time></trkpt><trkpt lat="45.3648615" lon="10.7245483"><ele>61.33333333333333</ele><time>2026-05-02T08:14:30.131Z</time></trkpt><trkpt lat="45.3649107" lon="10.7244798"><ele>61.0</ele><time>2026-05-02T08:14:32.131Z</time></trkpt><trkpt lat="45.3649614" lon="10.7244141"><ele>60.57142857142856</ele><time>2026-05-02T08:14:34.129Z</time></trkpt><trkpt lat="45.3650112" lon="10.7243446"><ele>60.14285714285714</ele><time>2026-05-02T08:14:36.131Z</time></trkpt><trkpt lat="45.3650686" lon="10.7242819"><ele>59.714285714285715</ele><time>2026-05-02T08:14:38.13Z</time></trkpt><trkpt lat="45.3651229" lon="10.7242142"><ele>59.285714285714285</ele><time>2026-05-02T08:14:40.13Z</time></trkpt><trkpt lat="45.3651788" lon="10.7241503"><ele>58.85714285714286</ele><time>2026-05-02T08:14:42.13Z</time></trkpt><trkpt lat="45.3652325" lon="10.724084"><ele>58.42857142857144</ele><time>2026-05-02T08:14:44.13Z</time></trkpt><trkpt lat="45.3652852" lon="10.7240142"><ele>58.00000000000001</ele><time>2026-05-02T08:14:46.131Z</time></trkpt><trkpt lat="45.3653338" lon="10.7239431"><ele>57.99999999999999</ele><time>2026-05-02T08:14:48.129Z</time></trkpt><trkpt lat="45.3653845" lon="10.7238817"><ele>58.0</ele><time>2026-05-02T08:14:50.13Z</time></trkpt><trkpt lat="45.365457" lon="10.7237986"><ele>58.0</ele><time>2026-05-02T08:14:53.13Z</time></trkpt><trkpt lat="45.3655066" lon="10.7237396"><ele>58.0</ele><time>2026-05-02T08:14:55.131Z</time></trkpt><trkpt lat="45.3655582" lon="10.7236763"><ele>57.99999999999999</ele><time>2026-05-02T08:14:57.131Z</time></trkpt><trkpt lat="45.3656129" lon="10.7236137"><ele>58.0</ele><time>2026-05-02T08:14:59.131Z</time></trkpt><trkpt lat="45.3656929" lon="10.7235126"><ele>58.00000000000001</ele><time>2026-05-02T08:15:02.13Z</time></trkpt><trkpt lat="45.3657478" lon="10.7234432"><ele>58.0</ele><time>2026-05-02T08:15:04.13Z</time></trkpt><trkpt lat="45.3658025" lon="10.7233733"><ele>58.00000000000001</ele><time>2026-05-02T08:15:06.131Z</time></trkpt><trkpt lat="45.3658573" lon="10.7233021"><ele>58.00000000000001</ele><time>2026-05-02T08:15:08.131Z</time></trkpt><trkpt lat="45.3659126" lon="10.7232316"><ele>58.0</ele><time>2026-05-02T08:15:10.131Z</time></trkpt><trkpt lat="45.3659673" lon="10.723161"><ele>58.00000000000001</ele><time>2026-05-02T08:15:12.131Z</time></trkpt><trkpt lat="45.3660208" lon="10.723093"><ele>58.00000000000001</ele><time>2026-05-02T08:15:14.13Z</time></trkpt><trkpt lat="45.3660718" lon="10.723024"><ele>58.00000000000001</ele><time>2026-05-02T08:15:16.131Z</time></trkpt><trkpt lat="45.3661224" lon="10.7229543"><ele>58.0</ele><time>2026-05-02T08:15:18.13Z</time></trkpt><trkpt lat="45.3661708" lon="10.72288"><ele>58.00000000000001</ele><time>2026-05-02T08:15:20.131Z</time></trkpt><trkpt lat="45.3662228" lon="10.7228104"><ele>58.00000000000001</ele><time>2026-05-02T08:15:22.13Z</time></trkpt><trkpt lat="45.3662744" lon="10.7227385"><ele>58.0</ele><time>2026-05-02T08:15:24.131Z</time></trkpt><trkpt lat="45.3663242" lon="10.7226639"><ele>58.00000000000001</ele><time>2026-05-02T08:15:26.131Z</time></trkpt><trkpt lat="45.3663721" lon="10.7225924"><ele>58.00000000000001</ele><time>2026-05-02T08:15:28.13Z</time></trkpt><trkpt lat="45.3664226" lon="10.7225186"><ele>58.571428571428584</ele><time>2026-05-02T08:15:30.13Z</time></trkpt><trkpt lat="45.3664706" lon="10.722441"><ele>59.142857142857146</ele><time>2026-05-02T08:15:32.129Z</time></trkpt><trkpt lat="45.366517" lon="10.7223633"><ele>59.71428571428572</ele><time>2026-05-02T08:15:34.13Z</time></trkpt><trkpt lat="45.3665614" lon="10.7222866"><ele>60.28571428571429</ele><time>2026-05-02T08:15:36.131Z</time></trkpt><trkpt lat="45.3666082" lon="10.7222101"><ele>60.85714285714286</ele><time>2026-05-02T08:15:38.13Z</time></trkpt><trkpt lat="45.3666551" lon="10.7221306"><ele>61.42857142857143</ele><time>2026-05-02T08:15:40.13Z</time></trkpt><trkpt lat="45.3667019" lon="10.7220509"><ele>62.0</ele><time>2026-05-02T08:15:42.13Z</time></trkpt><trkpt lat="45.3667491" lon="10.7219703"><ele>61.42857142857143</ele><time>2026-05-02T08:15:44.131Z</time></trkpt><trkpt lat="45.3667939" lon="10.7218873"><ele>60.85714285714286</ele><time>2026-05-02T08:15:46.131Z</time></trkpt><trkpt lat="45.3668371" lon="10.7218062"><ele>60.28571428571429</ele><time>2026-05-02T08:15:48.13Z</time></trkpt><trkpt lat="45.3668791" lon="10.7217245"><ele>59.71428571428572</ele><time>2026-05-02T08:15:50.131Z</time></trkpt><trkpt lat="45.3669204" lon="10.7216443"><ele>59.142857142857146</ele><time>2026-05-02T08:15:52.13Z</time></trkpt><trkpt lat="45.3669634" lon="10.7215659"><ele>58.571428571428584</ele><time>2026-05-02T08:15:54.131Z</time></trkpt><trkpt lat="45.3670069" lon="10.7214849"><ele>58.00000000000001</ele><time>2026-05-02T08:15:56.13Z</time></trkpt><trkpt lat="45.3670497" lon="10.7214052"><ele>58.00000000000001</ele><time>2026-05-02T08:15:58.131Z</time></trkpt><trkpt lat="45.367089" lon="10.7213211"><ele>58.0</ele><time>2026-05-02T08:16:00.131Z</time></trkpt><trkpt lat="45.3671298" lon="10.7212375"><ele>58.00000000000001</ele><time>2026-05-02T08:16:02.13Z</time></trkpt><trkpt lat="45.3671732" lon="10.7211559"><ele>58.00000000000001</ele><time>2026-05-02T08:16:04.131Z</time></trkpt><trkpt lat="45.3672123" lon="10.721069"><ele>58.0</ele><time>2026-05-02T08:16:06.131Z</time></trkpt><trkpt lat="45.3672496" lon="10.7209821"><ele>58.00000000000001</ele><time>2026-05-02T08:16:08.131Z</time></trkpt><trkpt lat="45.3672901" lon="10.7208959"><ele>58.00000000000001</ele><time>2026-05-02T08:16:10.13Z</time></trkpt><trkpt lat="45.3673323" lon="10.72081"><ele>58.00000000000001</ele><time>2026-05-02T08:16:12.131Z</time></trkpt><trkpt lat="45.3673678" lon="10.7207225"><ele>58.0</ele><time>2026-05-02T08:16:14.13Z</time></trkpt><trkpt lat="45.367404" lon="10.7206372"><ele>58.00000000000001</ele><time>2026-05-02T08:16:16.131Z</time></trkpt><trkpt lat="45.3674407" lon="10.7205523"><ele>58.00000000000001</ele><time>2026-05-02T08:16:18.131Z</time></trkpt><trkpt lat="45.3674779" lon="10.7204672"><ele>58.0</ele><time>2026-05-02T08:16:20.13Z</time></trkpt><trkpt lat="45.3675111" lon="10.7203905"><ele>58.00000000000001</ele><time>2026-05-02T08:16:22.13Z</time></trkpt><trkpt lat="45.3675417" lon="10.7203083"><ele>58.00000000000001</ele><time>2026-05-02T08:16:24.131Z</time></trkpt><trkpt lat="45.3675767" lon="10.720222"><ele>58.00000000000001</ele><time>2026-05-02T08:16:26.131Z</time></trkpt><trkpt lat="45.3676117" lon="10.7201331"><ele>58.0</ele><time>2026-05-02T08:16:28.131Z</time></trkpt><trkpt lat="45.3676418" lon="10.7200397"><ele>58.00000000000001</ele><time>2026-05-02T08:16:30.13Z</time></trkpt><trkpt lat="45.3676795" lon="10.7199506"><ele>58.00000000000001</ele><time>2026-05-02T08:16:32.131Z</time></trkpt><trkpt lat="45.3677127" lon="10.7198575"><ele>58.0</ele><time>2026-05-02T08:16:34.13Z</time></trkpt><trkpt lat="45.367746" lon="10.7197646"><ele>58.00000000000001</ele><time>2026-05-02T08:16:36.13Z</time></trkpt><trkpt lat="45.3677786" lon="10.7196715"><ele>58.00000000000001</ele><time>2026-05-02T08:16:38.131Z</time></trkpt><trkpt lat="45.3678125" lon="10.7195787"><ele>58.00000000000001</ele><time>2026-05-02T08:16:40.129Z</time></trkpt><trkpt lat="45.3678434" lon="10.7194839"><ele>58.0</ele><time>2026-05-02T08:16:42.129Z</time></trkpt><trkpt lat="45.3678743" lon="10.7193864"><ele>58.00000000000001</ele><time>2026-05-02T08:16:44.13Z</time></trkpt><trkpt lat="45.3679054" lon="10.7192892"><ele>58.00000000000001</ele><time>2026-05-02T08:16:46.129Z</time></trkpt><trkpt lat="45.3679366" lon="10.7191916"><ele>58.0</ele><time>2026-05-02T08:16:48.13Z</time></trkpt><trkpt lat="45.3679666" lon="10.7190937"><ele>58.00000000000001</ele><time>2026-05-02T08:16:50.13Z</time></trkpt><trkpt lat="45.367995" lon="10.7189946"><ele>58.00000000000001</ele><time>2026-05-02T08:16:52.13Z</time></trkpt><trkpt lat="45.3680229" lon="10.7188952"><ele>58.14285714285715</ele><time>2026-05-02T08:16:54.129Z</time></trkpt><trkpt lat="45.36805" lon="10.7187957"><ele>58.28571428571429</ele><time>2026-05-02T08:16:56.129Z</time></trkpt><trkpt lat="45.368076" lon="10.7186982"><ele>58.42857142857143</ele><time>2026-05-02T08:16:58.13Z</time></trkpt><trkpt lat="45.3680991" lon="10.7186028"><ele>58.57142857142858</ele><time>2026-05-02T08:17:00.13Z</time></trkpt><trkpt lat="45.3681229" lon="10.71851"><ele>58.71428571428572</ele><time>2026-05-02T08:17:02.129Z</time></trkpt><trkpt lat="45.3681448" lon="10.718414"><ele>58.857142857142854</ele><time>2026-05-02T08:17:04.128Z</time></trkpt><trkpt lat="45.3681699" lon="10.7183143"><ele>59.0</ele><time>2026-05-02T08:17:06.129Z</time></trkpt><trkpt lat="45.3681959" lon="10.7182116"><ele>59.0</ele><time>2026-05-02T08:17:08.129Z</time></trkpt><trkpt lat="45.3682199" lon="10.7181087"><ele>59.0</ele><time>2026-05-02T08:17:10.128Z</time></trkpt><trkpt lat="45.3682432" lon="10.7180086"><ele>59.0</ele><time>2026-05-02T08:17:12.129Z</time></trkpt><trkpt lat="45.3682658" lon="10.7179086"><ele>59.0</ele><time>2026-05-02T08:17:14.129Z</time></trkpt><trkpt lat="45.3682864" lon="10.7178082"><ele>59.0</ele><time>2026-05-02T08:17:16.129Z</time></trkpt><trkpt lat="45.3683002" lon="10.7177037"><ele>59.0</ele><time>2026-05-02T08:17:18.13Z</time></trkpt><trkpt lat="45.3683207" lon="10.7176014"><ele>59.0</ele><time>2026-05-02T08:17:20.129Z</time></trkpt><trkpt lat="45.3683488" lon="10.7175015"><ele>59.14285714285714</ele><time>2026-05-02T08:17:22.129Z</time></trkpt><trkpt lat="45.368383" lon="10.7174062"><ele>59.28571428571429</ele><time>2026-05-02T08:17:24.129Z</time></trkpt><trkpt lat="45.3684071" lon="10.7173058"><ele>59.42857142857143</ele><time>2026-05-02T08:17:26.13Z</time></trkpt><trkpt lat="45.3684289" lon="10.717203"><ele>59.57142857142857</ele><time>2026-05-02T08:17:28.129Z</time></trkpt><trkpt lat="45.3684522" lon="10.7171038"><ele>59.71428571428571</ele><time>2026-05-02T08:17:30.13Z</time></trkpt><trkpt lat="45.3684747" lon="10.7170047"><ele>59.85714285714286</ele><time>2026-05-02T08:17:32.13Z</time></trkpt><trkpt lat="45.3684962" lon="10.7169037"><ele>60.0</ele><time>2026-05-02T08:17:34.13Z</time></trkpt><trkpt lat="45.3685184" lon="10.7168048"><ele>60.0</ele><time>2026-05-02T08:17:36.13Z</time></trkpt><trkpt lat="45.3685458" lon="10.7167078"><ele>60.0</ele><time>2026-05-02T08:17:38.13Z</time></trkpt><trkpt lat="45.36857" lon="10.7166051"><ele>60.0</ele><time>2026-05-02T08:17:40.13Z</time></trkpt><trkpt lat="45.3685922" lon="10.7165006"><ele>60.0</ele><time>2026-05-02T08:17:42.129Z</time></trkpt><trkpt lat="45.3686168" lon="10.716395"><ele>60.0</ele><time>2026-05-02T08:17:44.13Z</time></trkpt><trkpt lat="45.3686381" lon="10.7162889"><ele>60.0</ele><time>2026-05-02T08:17:46.128Z</time></trkpt><trkpt lat="45.3686615" lon="10.7161858"><ele>60.0</ele><time>2026-05-02T08:17:48.129Z</time></trkpt><trkpt lat="45.3686895" lon="10.7160846"><ele>60.0</ele><time>2026-05-02T08:17:50.13Z</time></trkpt><trkpt lat="45.3687115" lon="10.7159811"><ele>60.0</ele><time>2026-05-02T08:17:52.13Z</time></trkpt><trkpt lat="45.3687357" lon="10.715876"><ele>60.0</ele><time>2026-05-02T08:17:54.128Z</time></trkpt><trkpt lat="45.3687612" lon="10.7157703"><ele>60.0</ele><time>2026-05-02T08:17:56.13Z</time></trkpt><trkpt lat="45.3687859" lon="10.7156688"><ele>60.0</ele><time>2026-05-02T08:17:58.129Z</time></trkpt><trkpt lat="45.3688089" lon="10.7155671"><ele>59.833333333333336</ele><time>2026-05-02T08:18:00.13Z</time></trkpt><trkpt lat="45.3688325" lon="10.7154654"><ele>59.66666666666667</ele><time>2026-05-02T08:18:02.128Z</time></trkpt><trkpt lat="45.3688572" lon="10.7153661"><ele>59.5</ele><time>2026-05-02T08:18:04.13Z</time></trkpt><trkpt lat="45.3688783" lon="10.7152666"><ele>59.333333333333336</ele><time>2026-05-02T08:18:06.13Z</time></trkpt><trkpt lat="45.3689023" lon="10.7151682"><ele>59.16666666666667</ele><time>2026-05-02T08:18:08.13Z</time></trkpt><trkpt lat="45.3689319" lon="10.7150469"><ele>59.0</ele><time>2026-05-02T08:18:11.045Z</time></trkpt><trkpt lat="45.3689627" lon="10.7149126"><ele>59.00000000000001</ele><time>2026-05-02T08:18:13.13Z</time></trkpt><trkpt lat="45.368988" lon="10.7148054"><ele>59.0</ele><time>2026-05-02T08:18:15.13Z</time></trkpt><trkpt lat="45.3690117" lon="10.7146967"><ele>59.0</ele><time>2026-05-02T08:18:17.13Z</time></trkpt><trkpt lat="45.3690348" lon="10.7145898"><ele>59.0</ele><time>2026-05-02T08:18:19.13Z</time></trkpt><trkpt lat="45.3690593" lon="10.7144838"><ele>59.00000000000001</ele><time>2026-05-02T08:18:21.13Z</time></trkpt><trkpt lat="45.3690815" lon="10.7143811"><ele>59.0</ele><time>2026-05-02T08:18:23.13Z</time></trkpt><trkpt lat="45.3691041" lon="10.7142795"><ele>58.66666666666667</ele><time>2026-05-02T08:18:25.13Z</time></trkpt><trkpt lat="45.3691249" lon="10.7141742"><ele>58.333333333333336</ele><time>2026-05-02T08:18:27.128Z</time></trkpt><trkpt lat="45.3691465" lon="10.7140689"><ele>58.0</ele><time>2026-05-02T08:18:29.129Z</time></trkpt><trkpt lat="45.3691663" lon="10.7139637"><ele>57.66666666666667</ele><time>2026-05-02T08:18:31.129Z</time></trkpt><trkpt lat="45.3691832" lon="10.7138597"><ele>57.333333333333336</ele><time>2026-05-02T08:18:33.129Z</time></trkpt><trkpt lat="45.3691974" lon="10.7137573"><ele>57.0</ele><time>2026-05-02T08:18:35.13Z</time></trkpt><trkpt lat="45.3692138" lon="10.7136572"><ele>57.14285714285714</ele><time>2026-05-02T08:18:37.129Z</time></trkpt><trkpt lat="45.3692231" lon="10.7135579"><ele>57.28571428571428</ele><time>2026-05-02T08:18:39.129Z</time></trkpt><trkpt lat="45.3692307" lon="10.7134659"><ele>57.42857142857143</ele><time>2026-05-02T08:18:41.129Z</time></trkpt><trkpt lat="45.3692325" lon="10.7133702"><ele>57.57142857142857</ele><time>2026-05-02T08:18:43.13Z</time></trkpt><trkpt lat="45.3692395" lon="10.7132733"><ele>57.714285714285715</ele><time>2026-05-02T08:18:45.128Z</time></trkpt><trkpt lat="45.3692404" lon="10.7131754"><ele>57.85714285714286</ele><time>2026-05-02T08:18:47.13Z</time></trkpt><trkpt lat="45.3692391" lon="10.7130747"><ele>58.00000000000001</ele><time>2026-05-02T08:18:49.13Z</time></trkpt><trkpt lat="45.3692387" lon="10.7129734"><ele>57.99999999999999</ele><time>2026-05-02T08:18:51.129Z</time></trkpt><trkpt lat="45.3692339" lon="10.712866"><ele>58.0</ele><time>2026-05-02T08:18:53.13Z</time></trkpt><trkpt lat="45.3692321" lon="10.7127557"><ele>58.0</ele><time>2026-05-02T08:18:55.13Z</time></trkpt><trkpt lat="45.3692318" lon="10.7126461"><ele>58.0</ele><time>2026-05-02T08:18:57.13Z</time></trkpt><trkpt lat="45.3692263" lon="10.712537"><ele>57.99999999999999</ele><time>2026-05-02T08:18:59.129Z</time></trkpt><trkpt lat="45.3692232" lon="10.7124278"><ele>58.0</ele><time>2026-05-02T08:19:01.129Z</time></trkpt><trkpt lat="45.3692215" lon="10.7123213"><ele>58.00000000000001</ele><time>2026-05-02T08:19:03.129Z</time></trkpt><trkpt lat="45.3692175" lon="10.7122138"><ele>58.0</ele><time>2026-05-02T08:19:05.13Z</time></trkpt><trkpt lat="45.3692143" lon="10.7121046"><ele>58.00000000000001</ele><time>2026-05-02T08:19:07.13Z</time></trkpt><trkpt lat="45.3692116" lon="10.7119978"><ele>58.00000000000001</ele><time>2026-05-02T08:19:09.129Z</time></trkpt><trkpt lat="45.3692078" lon="10.7118959"><ele>58.0</ele><time>2026-05-02T08:19:11.13Z</time></trkpt><trkpt lat="45.3692061" lon="10.7117953"><ele>58.00000000000001</ele><time>2026-05-02T08:19:13.13Z</time></trkpt><trkpt lat="45.3692025" lon="10.7116927"><ele>58.00000000000001</ele><time>2026-05-02T08:19:15.129Z</time></trkpt><trkpt lat="45.3692004" lon="10.7115965"><ele>57.85714285714286</ele><time>2026-05-02T08:19:17.129Z</time></trkpt><trkpt lat="45.3691961" lon="10.7114985"><ele>57.714285714285715</ele><time>2026-05-02T08:19:19.129Z</time></trkpt><trkpt lat="45.3691927" lon="10.7113975"><ele>57.57142857142857</ele><time>2026-05-02T08:19:21.13Z</time></trkpt><trkpt lat="45.369189" lon="10.7112958"><ele>57.42857142857143</ele><time>2026-05-02T08:19:23.13Z</time></trkpt><trkpt lat="45.3691859" lon="10.7111948"><ele>57.28571428571428</ele><time>2026-05-02T08:19:25.129Z</time></trkpt><trkpt lat="45.3691829" lon="10.7110962"><ele>57.14285714285714</ele><time>2026-05-02T08:19:27.13Z</time></trkpt><trkpt lat="45.3691802" lon="10.711003"><ele>57.0</ele><time>2026-05-02T08:19:29.129Z</time></trkpt><trkpt lat="45.3691728" lon="10.7108733"><ele>56.833333333333336</ele><time>2026-05-02T08:19:32.129Z</time></trkpt><trkpt lat="45.3691733" lon="10.7107527"><ele>56.66666666666667</ele><time>2026-05-02T08:19:35.13Z</time></trkpt><trkpt lat="45.3691674" lon="10.7106333"><ele>56.5</ele><time>2026-05-02T08:19:38.13Z</time></trkpt><trkpt lat="45.3691613" lon="10.7105017"><ele>56.333333333333336</ele><time>2026-05-02T08:19:41.13Z</time></trkpt><trkpt lat="45.369156" lon="10.7103674"><ele>56.16666666666667</ele><time>2026-05-02T08:19:44.13Z</time></trkpt><trkpt lat="45.3691536" lon="10.7102777"><ele>56.0</ele><time>2026-05-02T08:19:46.13Z</time></trkpt><trkpt lat="45.36915" lon="10.7101829"><ele>56.0</ele><time>2026-05-02T08:19:48.129Z</time></trkpt><trkpt lat="45.3691456" lon="10.7100876"><ele>56.0</ele><time>2026-05-02T08:19:50.13Z</time></trkpt><trkpt lat="45.3691436" lon="10.7099949"><ele>56.0</ele><time>2026-05-02T08:19:52.129Z</time></trkpt><trkpt lat="45.3691395" lon="10.709905"><ele>56.0</ele><time>2026-05-02T08:19:54.13Z</time></trkpt><trkpt lat="45.3691393" lon="10.7097743"><ele>56.0</ele><time>2026-05-02T08:19:57.129Z</time></trkpt><trkpt lat="45.3691366" lon="10.7096811"><ele>56.0</ele><time>2026-05-02T08:19:59.129Z</time></trkpt><trkpt lat="45.3691356" lon="10.7095786"><ele>56.0</ele><time>2026-05-02T08:20:01.13Z</time></trkpt><trkpt lat="45.3691365" lon="10.7094745"><ele>56.16666666666667</ele><time>2026-05-02T08:20:03.128Z</time></trkpt><trkpt lat="45.3691391" lon="10.7093685"><ele>56.333333333333336</ele><time>2026-05-02T08:20:05.13Z</time></trkpt><trkpt lat="45.3691461" lon="10.7092614"><ele>56.5</ele><time>2026-05-02T08:20:07.13Z</time></trkpt><trkpt lat="45.369155" lon="10.7091542"><ele>56.66666666666667</ele><time>2026-05-02T08:20:09.129Z</time></trkpt><trkpt lat="45.3691635" lon="10.7090471"><ele>56.833333333333336</ele><time>2026-05-02T08:20:11.13Z</time></trkpt><trkpt lat="45.3691741" lon="10.7089392"><ele>57.0</ele><time>2026-05-02T08:20:13.13Z</time></trkpt><trkpt lat="45.3691896" lon="10.7088321"><ele>57.0</ele><time>2026-05-02T08:20:15.129Z</time></trkpt><trkpt lat="45.3692049" lon="10.7087268"><ele>57.0</ele><time>2026-05-02T08:20:17.129Z</time></trkpt><trkpt lat="45.3692224" lon="10.7086222"><ele>57.0</ele><time>2026-05-02T08:20:19.129Z</time></trkpt><trkpt lat="45.3692418" lon="10.7085167"><ele>57.0</ele><time>2026-05-02T08:20:21.129Z</time></trkpt><trkpt lat="45.3692644" lon="10.7084096"><ele>57.0</ele><time>2026-05-02T08:20:23.13Z</time></trkpt><trkpt lat="45.3692868" lon="10.7083014"><ele>57.0</ele><time>2026-05-02T08:20:25.129Z</time></trkpt><trkpt lat="45.3693082" lon="10.7081958"><ele>57.0</ele><time>2026-05-02T08:20:27.129Z</time></trkpt><trkpt lat="45.3693424" lon="10.7081071"><ele>57.0</ele><time>2026-05-02T08:20:29.129Z</time></trkpt><trkpt lat="45.369368" lon="10.7080213"><ele>57.0</ele><time>2026-05-02T08:20:31.13Z</time></trkpt><trkpt lat="45.3694041" lon="10.7079043"><ele>57.0</ele><time>2026-05-02T08:20:34.129Z</time></trkpt><trkpt lat="45.3694442" lon="10.707787"><ele>57.0</ele><time>2026-05-02T08:20:37.129Z</time></trkpt><trkpt lat="45.369486" lon="10.7076755"><ele>57.0</ele><time>2026-05-02T08:20:40.129Z</time></trkpt><trkpt lat="45.3695264" lon="10.7075714"><ele>57.0</ele><time>2026-05-02T08:20:43.129Z</time></trkpt><trkpt lat="45.369564" lon="10.7074797"><ele>56.99999999999999</ele><time>2026-05-02T08:20:46.13Z</time></trkpt><trkpt lat="45.3695994" lon="10.7073944"><ele>57.0</ele><time>2026-05-02T08:20:49.129Z</time></trkpt><trkpt lat="45.3696421" lon="10.7073032"><ele>57.0</ele><time>2026-05-02T08:20:52.311Z</time></trkpt><trkpt lat="45.3696821" lon="10.7072202"><ele>56.99999999999999</ele><time>2026-05-02T08:20:54.128Z</time></trkpt><trkpt lat="45.3697192" lon="10.7071463"><ele>57.0</ele><time>2026-05-02T08:20:56.129Z</time></trkpt><trkpt lat="45.3697593" lon="10.7070691"><ele>57.0</ele><time>2026-05-02T08:20:58.129Z</time></trkpt><trkpt lat="45.3698029" lon="10.7069896"><ele>56.857142857142854</ele><time>2026-05-02T08:21:00.129Z</time></trkpt><trkpt lat="45.3698478" lon="10.7069104"><ele>56.71428571428571</ele><time>2026-05-02T08:21:02.128Z</time></trkpt><trkpt lat="45.3698952" lon="10.7068335"><ele>56.57142857142857</ele><time>2026-05-02T08:21:04.127Z</time></trkpt><trkpt lat="45.3699438" lon="10.7067603"><ele>56.42857142857143</ele><time>2026-05-02T08:21:06.129Z</time></trkpt><trkpt lat="45.369994" lon="10.7066902"><ele>56.285714285714285</ele><time>2026-05-02T08:21:08.128Z</time></trkpt><trkpt lat="45.370046" lon="10.7066211"><ele>56.14285714285714</ele><time>2026-05-02T08:21:10.129Z</time></trkpt><trkpt lat="45.3700973" lon="10.7065549"><ele>56.0</ele><time>2026-05-02T08:21:12.129Z</time></trkpt><trkpt lat="45.3701504" lon="10.7064865"><ele>56.0</ele><time>2026-05-02T08:21:14.129Z</time></trkpt><trkpt lat="45.370206" lon="10.7064191"><ele>56.0</ele><time>2026-05-02T08:21:16.129Z</time></trkpt><trkpt lat="45.3702612" lon="10.7063491"><ele>56.0</ele><time>2026-05-02T08:21:18.128Z</time></trkpt><trkpt lat="45.370317" lon="10.7062851"><ele>56.0</ele><time>2026-05-02T08:21:20.129Z</time></trkpt><trkpt lat="45.3703732" lon="10.7062306"><ele>56.0</ele><time>2026-05-02T08:21:22.129Z</time></trkpt><trkpt lat="45.3704218" lon="10.7061673"><ele>56.0</ele><time>2026-05-02T08:21:24.129Z</time></trkpt><trkpt lat="45.3704725" lon="10.7060982"><ele>56.0</ele><time>2026-05-02T08:21:26.129Z</time></trkpt><trkpt lat="45.370527" lon="10.7060329"><ele>56.285714285714285</ele><time>2026-05-02T08:21:28.129Z</time></trkpt><trkpt lat="45.37058" lon="10.7059688"><ele>56.57142857142857</ele><time>2026-05-02T08:21:30.128Z</time></trkpt><trkpt lat="45.3706318" lon="10.7059083"><ele>56.85714285714286</ele><time>2026-05-02T08:21:32.128Z</time></trkpt><trkpt lat="45.3706856" lon="10.7058464"><ele>57.142857142857146</ele><time>2026-05-02T08:21:34.129Z</time></trkpt><trkpt lat="45.3707411" lon="10.7057844"><ele>57.42857142857143</ele><time>2026-05-02T08:21:36.129Z</time></trkpt><trkpt lat="45.3707938" lon="10.7057191"><ele>57.71428571428572</ele><time>2026-05-02T08:21:38.129Z</time></trkpt><trkpt lat="45.3708476" lon="10.7056576"><ele>58.00000000000001</ele><time>2026-05-02T08:21:40.127Z</time></trkpt><trkpt lat="45.3708992" lon="10.7055925"><ele>58.00000000000001</ele><time>2026-05-02T08:21:42.129Z</time></trkpt><trkpt lat="45.3709527" lon="10.7055265"><ele>58.0</ele><time>2026-05-02T08:21:44.128Z</time></trkpt><trkpt lat="45.3710049" lon="10.7054548"><ele>58.00000000000001</ele><time>2026-05-02T08:21:46.129Z</time></trkpt><trkpt lat="45.3710595" lon="10.705387"><ele>58.00000000000001</ele><time>2026-05-02T08:21:48.129Z</time></trkpt><trkpt lat="45.3711187" lon="10.7053268"><ele>58.0</ele><time>2026-05-02T08:21:50.128Z</time></trkpt><trkpt lat="45.3711777" lon="10.7052644"><ele>58.00000000000001</ele><time>2026-05-02T08:21:52.128Z</time></trkpt><trkpt lat="45.371235" lon="10.7051988"><ele>58.00000000000001</ele><time>2026-05-02T08:21:54.128Z</time></trkpt><trkpt lat="45.371289" lon="10.7051285"><ele>57.85714285714286</ele><time>2026-05-02T08:21:56.127Z</time></trkpt><trkpt lat="45.3713426" lon="10.7050654"><ele>57.714285714285715</ele><time>2026-05-02T08:21:58.128Z</time></trkpt><trkpt lat="45.371396" lon="10.7049985"><ele>57.57142857142857</ele><time>2026-05-02T08:22:00.128Z</time></trkpt><trkpt lat="45.371454" lon="10.7049304"><ele>57.42857142857143</ele><time>2026-05-02T08:22:02.129Z</time></trkpt><trkpt lat="45.3715105" lon="10.7048613"><ele>57.28571428571428</ele><time>2026-05-02T08:22:04.129Z</time></trkpt><trkpt lat="45.3715664" lon="10.7047934"><ele>57.14285714285714</ele><time>2026-05-02T08:22:06.129Z</time></trkpt><trkpt lat="45.3716203" lon="10.7047309"><ele>57.0</ele><time>2026-05-02T08:22:08.128Z</time></trkpt><trkpt lat="45.3716752" lon="10.7046635"><ele>57.14285714285714</ele><time>2026-05-02T08:22:10.128Z</time></trkpt><trkpt lat="45.3717302" lon="10.7045974"><ele>57.28571428571428</ele><time>2026-05-02T08:22:12.129Z</time></trkpt><trkpt lat="45.3717856" lon="10.7045322"><ele>57.42857142857143</ele><time>2026-05-02T08:22:14.129Z</time></trkpt><trkpt lat="45.3718418" lon="10.7044651"><ele>57.57142857142857</ele><time>2026-05-02T08:22:16.128Z</time></trkpt><trkpt lat="45.3718952" lon="10.7043962"><ele>57.714285714285715</ele><time>2026-05-02T08:22:18.128Z</time></trkpt><trkpt lat="45.3719503" lon="10.7043332"><ele>57.85714285714286</ele><time>2026-05-02T08:22:20.129Z</time></trkpt><trkpt lat="45.3720016" lon="10.7042724"><ele>58.00000000000001</ele><time>2026-05-02T08:22:22.128Z</time></trkpt><trkpt lat="45.3720524" lon="10.7042092"><ele>58.00000000000001</ele><time>2026-05-02T08:22:24.129Z</time></trkpt><trkpt lat="45.3721059" lon="10.7041498"><ele>58.0</ele><time>2026-05-02T08:22:26.128Z</time></trkpt><trkpt lat="45.3721564" lon="10.7040909"><ele>58.00000000000001</ele><time>2026-05-02T08:22:28.127Z</time></trkpt><trkpt lat="45.372206" lon="10.7040326"><ele>58.00000000000001</ele><time>2026-05-02T08:22:30.128Z</time></trkpt><trkpt lat="45.3722548" lon="10.7039745"><ele>58.0</ele><time>2026-05-02T08:22:32.129Z</time></trkpt><trkpt lat="45.3723242" lon="10.7038873"><ele>58.00000000000001</ele><time>2026-05-02T08:22:35.128Z</time></trkpt><trkpt lat="45.3723763" lon="10.7038365"><ele>58.00000000000001</ele><time>2026-05-02T08:22:37.129Z</time></trkpt><trkpt lat="45.3724468" lon="10.7037469"><ele>58.00000000000001</ele><time>2026-05-02T08:22:40.129Z</time></trkpt><trkpt lat="45.3724952" lon="10.7036895"><ele>58.0</ele><time>2026-05-02T08:22:42.129Z</time></trkpt><trkpt lat="45.372566" lon="10.7036048"><ele>58.00000000000001</ele><time>2026-05-02T08:22:45.127Z</time></trkpt><trkpt lat="45.3726374" lon="10.7035176"><ele>58.00000000000001</ele><time>2026-05-02T08:22:48.129Z</time></trkpt><trkpt lat="45.3726898" lon="10.7034604"><ele>58.0</ele><time>2026-05-02T08:22:50.128Z</time></trkpt><trkpt lat="45.3727385" lon="10.7033982"><ele>58.00000000000001</ele><time>2026-05-02T08:22:52.129Z</time></trkpt><trkpt lat="45.372789" lon="10.7033356"><ele>58.00000000000001</ele><time>2026-05-02T08:22:54.129Z</time></trkpt><trkpt lat="45.3728409" lon="10.7032783"><ele>58.00000000000001</ele><time>2026-05-02T08:22:56.128Z</time></trkpt><trkpt lat="45.3728921" lon="10.7032197"><ele>58.0</ele><time>2026-05-02T08:22:58.129Z</time></trkpt><trkpt lat="45.3729426" lon="10.7031619"><ele>58.00000000000001</ele><time>2026-05-02T08:23:00.128Z</time></trkpt><trkpt lat="45.3730127" lon="10.7030762"><ele>58.00000000000001</ele><time>2026-05-02T08:23:03.127Z</time></trkpt><trkpt lat="45.3730596" lon="10.7030128"><ele>58.0</ele><time>2026-05-02T08:23:05.129Z</time></trkpt><trkpt lat="45.3731123" lon="10.7029582"><ele>58.00000000000001</ele><time>2026-05-02T08:23:07.128Z</time></trkpt><trkpt lat="45.3731614" lon="10.7029002"><ele>58.00000000000001</ele><time>2026-05-02T08:23:09.128Z</time></trkpt><trkpt lat="45.3732117" lon="10.7028436"><ele>58.00000000000001</ele><time>2026-05-02T08:23:11.129Z</time></trkpt><trkpt lat="45.3732625" lon="10.702789"><ele>58.0</ele><time>2026-05-02T08:23:13.127Z</time></trkpt><trkpt lat="45.3733143" lon="10.7027372"><ele>58.00000000000001</ele><time>2026-05-02T08:23:15.129Z</time></trkpt><trkpt lat="45.3733641" lon="10.7026795"><ele>58.00000000000001</ele><time>2026-05-02T08:23:17.128Z</time></trkpt><trkpt lat="45.3734153" lon="10.7026216"><ele>58.0</ele><time>2026-05-02T08:23:19.129Z</time></trkpt><trkpt lat="45.3734686" lon="10.7025671"><ele>58.00000000000001</ele><time>2026-05-02T08:23:21.128Z</time></trkpt><trkpt lat="45.3735213" lon="10.7025126"><ele>58.00000000000001</ele><time>2026-05-02T08:23:23.129Z</time></trkpt><trkpt lat="45.3735713" lon="10.7024561"><ele>58.00000000000001</ele><time>2026-05-02T08:23:25.128Z</time></trkpt><trkpt lat="45.373622" lon="10.7024006"><ele>58.0</ele><time>2026-05-02T08:23:27.129Z</time></trkpt><trkpt lat="45.3736931" lon="10.7023307"><ele>58.00000000000001</ele><time>2026-05-02T08:23:30.128Z</time></trkpt><trkpt lat="45.3737607" lon="10.702265"><ele>58.00000000000001</ele><time>2026-05-02T08:23:33.128Z</time></trkpt><trkpt lat="45.3738135" lon="10.7022144"><ele>58.0</ele><time>2026-05-02T08:23:35.128Z</time></trkpt><trkpt lat="45.3738696" lon="10.7021637"><ele>58.00000000000001</ele><time>2026-05-02T08:23:37.128Z</time></trkpt><trkpt lat="45.3739287" lon="10.7021079"><ele>58.00000000000001</ele><time>2026-05-02T08:23:39.129Z</time></trkpt><trkpt lat="45.3739896" lon="10.7020501"><ele>57.99999999999999</ele><time>2026-05-02T08:23:41.129Z</time></trkpt><trkpt lat="45.3740494" lon="10.7019897"><ele>58.0</ele><time>2026-05-02T08:23:43.129Z</time></trkpt><trkpt lat="45.3741137" lon="10.7019332"><ele>58.0</ele><time>2026-05-02T08:23:45.129Z</time></trkpt><trkpt lat="45.3741803" lon="10.7018765"><ele>58.0</ele><time>2026-05-02T08:23:47.128Z</time></trkpt><trkpt lat="45.3742461" lon="10.7018219"><ele>57.99999999999999</ele><time>2026-05-02T08:23:49.129Z</time></trkpt><trkpt lat="45.3743136" lon="10.7017698"><ele>58.0</ele><time>2026-05-02T08:23:51.129Z</time></trkpt><trkpt lat="45.3743849" lon="10.7017235"><ele>57.99999999999999</ele><time>2026-05-02T08:23:53.128Z</time></trkpt><trkpt lat="45.3744596" lon="10.7016801"><ele>58.0</ele><time>2026-05-02T08:23:55.128Z</time></trkpt><trkpt lat="45.3745344" lon="10.7016337"><ele>58.0</ele><time>2026-05-02T08:23:57.129Z</time></trkpt><trkpt lat="45.3746059" lon="10.7015795"><ele>58.0</ele><time>2026-05-02T08:23:59.128Z</time></trkpt><trkpt lat="45.3746728" lon="10.7015317"><ele>57.99999999999999</ele><time>2026-05-02T08:24:01.128Z</time></trkpt><trkpt lat="45.3747396" lon="10.7014873"><ele>58.0</ele><time>2026-05-02T08:24:03.129Z</time></trkpt><trkpt lat="45.3748077" lon="10.7014386"><ele>57.99999999999999</ele><time>2026-05-02T08:24:05.128Z</time></trkpt><trkpt lat="45.3748765" lon="10.7013903"><ele>58.0</ele><time>2026-05-02T08:24:07.129Z</time></trkpt><trkpt lat="45.3749442" lon="10.7013452"><ele>58.0</ele><time>2026-05-02T08:24:09.128Z</time></trkpt><trkpt lat="45.3750112" lon="10.7012985"><ele>58.0</ele><time>2026-05-02T08:24:11.129Z</time></trkpt><trkpt lat="45.3750792" lon="10.7012521"><ele>57.99999999999999</ele><time>2026-05-02T08:24:13.129Z</time></trkpt><trkpt lat="45.3751486" lon="10.7012061"><ele>58.0</ele><time>2026-05-02T08:24:15.129Z</time></trkpt><trkpt lat="45.3752139" lon="10.7011631"><ele>58.00000000000001</ele><time>2026-05-02T08:24:17.129Z</time></trkpt><trkpt lat="45.3752777" lon="10.7011195"><ele>58.0</ele><time>2026-05-02T08:24:19.128Z</time></trkpt><trkpt lat="45.3753452" lon="10.7010771"><ele>58.00000000000001</ele><time>2026-05-02T08:24:21.128Z</time></trkpt><trkpt lat="45.3754101" lon="10.7010315"><ele>58.00000000000001</ele><time>2026-05-02T08:24:23.129Z</time></trkpt><trkpt lat="45.3754737" lon="10.7009895"><ele>58.0</ele><time>2026-05-02T08:24:25.129Z</time></trkpt><trkpt lat="45.375536" lon="10.7009468"><ele>58.00000000000001</ele><time>2026-05-02T08:24:27.129Z</time></trkpt><trkpt lat="45.3755989" lon="10.7009034"><ele>58.00000000000001</ele><time>2026-05-02T08:24:29.128Z</time></trkpt><trkpt lat="45.3756638" lon="10.7008598"><ele>58.00000000000001</ele><time>2026-05-02T08:24:31.128Z</time></trkpt><trkpt lat="45.3757301" lon="10.7008147"><ele>58.0</ele><time>2026-05-02T08:24:33.129Z</time></trkpt><trkpt lat="45.3757975" lon="10.7007707"><ele>58.00000000000001</ele><time>2026-05-02T08:24:35.129Z</time></trkpt><trkpt lat="45.3758635" lon="10.7007276"><ele>58.00000000000001</ele><time>2026-05-02T08:24:37.129Z</time></trkpt><trkpt lat="45.3759282" lon="10.7006829"><ele>58.0</ele><time>2026-05-02T08:24:39.129Z</time></trkpt><trkpt lat="45.3759954" lon="10.7006399"><ele>58.00000000000001</ele><time>2026-05-02T08:24:41.128Z</time></trkpt><trkpt lat="45.3760621" lon="10.7005963"><ele>58.00000000000001</ele><time>2026-05-02T08:24:43.129Z</time></trkpt><trkpt lat="45.3761265" lon="10.7005509"><ele>57.99999999999999</ele><time>2026-05-02T08:24:45.128Z</time></trkpt><trkpt lat="45.3761903" lon="10.7005067"><ele>58.0</ele><time>2026-05-02T08:24:47.129Z</time></trkpt><trkpt lat="45.3762531" lon="10.7004638"><ele>58.0</ele><time>2026-05-02T08:24:49.128Z</time></trkpt><trkpt lat="45.3763104" lon="10.7004223"><ele>58.0</ele><time>2026-05-02T08:24:51.129Z</time></trkpt><trkpt lat="45.3763927" lon="10.7003723"><ele>57.99999999999999</ele><time>2026-05-02T08:24:54.128Z</time></trkpt><trkpt lat="45.3764757" lon="10.7003176"><ele>58.0</ele><time>2026-05-02T08:24:57.129Z</time></trkpt><trkpt lat="45.37656" lon="10.7002589"><ele>57.99999999999999</ele><time>2026-05-02T08:25:00.128Z</time></trkpt><trkpt lat="45.3766179" lon="10.7002193"><ele>58.0</ele><time>2026-05-02T08:25:02.129Z</time></trkpt><trkpt lat="45.3766994" lon="10.7001613"><ele>58.0</ele><time>2026-05-02T08:25:05.128Z</time></trkpt><trkpt lat="45.3767824" lon="10.7001026"><ele>58.0</ele><time>2026-05-02T08:25:08.129Z</time></trkpt><trkpt lat="45.3768371" lon="10.7000515"><ele>57.99999999999999</ele><time>2026-05-02T08:25:10.129Z</time></trkpt><trkpt lat="45.3769001" lon="10.7000036"><ele>58.0</ele><time>2026-05-02T08:25:12.128Z</time></trkpt><trkpt lat="45.3769685" lon="10.6999533"><ele>57.99999999999999</ele><time>2026-05-02T08:25:14.129Z</time></trkpt><trkpt lat="45.3770409" lon="10.6999062"><ele>58.0</ele><time>2026-05-02T08:25:16.129Z</time></trkpt><trkpt lat="45.3771164" lon="10.6998568"><ele>58.0</ele><time>2026-05-02T08:25:18.128Z</time></trkpt><trkpt lat="45.3771957" lon="10.6998108"><ele>58.0</ele><time>2026-05-02T08:25:20.128Z</time></trkpt><trkpt lat="45.3772709" lon="10.69977"><ele>57.99999999999999</ele><time>2026-05-02T08:25:22.129Z</time></trkpt><trkpt lat="45.3773357" lon="10.6997257"><ele>58.0</ele><time>2026-05-02T08:25:24.129Z</time></trkpt><trkpt lat="45.3774057" lon="10.6996779"><ele>58.166666666666664</ele><time>2026-05-02T08:25:26.129Z</time></trkpt><trkpt lat="45.3774764" lon="10.6996291"><ele>58.33333333333333</ele><time>2026-05-02T08:25:28.128Z</time></trkpt><trkpt lat="45.3775487" lon="10.6995834"><ele>58.5</ele><time>2026-05-02T08:25:30.128Z</time></trkpt><trkpt lat="45.3776202" lon="10.6995332"><ele>58.66666666666667</ele><time>2026-05-02T08:25:32.128Z</time></trkpt><trkpt lat="45.3776919" lon="10.6994856"><ele>58.833333333333336</ele><time>2026-05-02T08:25:34.128Z</time></trkpt><trkpt lat="45.3777604" lon="10.6994379"><ele>59.0</ele><time>2026-05-02T08:25:36.127Z</time></trkpt><trkpt lat="45.3778311" lon="10.6993906"><ele>59.00000000000001</ele><time>2026-05-02T08:25:38.127Z</time></trkpt><trkpt lat="45.3779025" lon="10.6993426"><ele>59.0</ele><time>2026-05-02T08:25:40.129Z</time></trkpt><trkpt lat="45.3779694" lon="10.6992955"><ele>59.0</ele><time>2026-05-02T08:25:42.128Z</time></trkpt><trkpt lat="45.3780376" lon="10.6992531"><ele>59.0</ele><time>2026-05-02T08:25:44.129Z</time></trkpt><trkpt lat="45.3781074" lon="10.6992051"><ele>59.00000000000001</ele><time>2026-05-02T08:25:46.128Z</time></trkpt><trkpt lat="45.378179" lon="10.6991527"><ele>59.0</ele><time>2026-05-02T08:25:48.129Z</time></trkpt><trkpt lat="45.3782488" lon="10.6991051"><ele>58.857142857142854</ele><time>2026-05-02T08:25:50.128Z</time></trkpt><trkpt lat="45.3783145" lon="10.6990642"><ele>58.71428571428572</ele><time>2026-05-02T08:25:52.128Z</time></trkpt><trkpt lat="45.3783803" lon="10.6990228"><ele>58.57142857142858</ele><time>2026-05-02T08:25:54.128Z</time></trkpt><trkpt lat="45.3784482" lon="10.6989753"><ele>58.42857142857143</ele><time>2026-05-02T08:25:56.128Z</time></trkpt><trkpt lat="45.3785155" lon="10.6989268"><ele>58.28571428571429</ele><time>2026-05-02T08:25:58.127Z</time></trkpt><trkpt lat="45.3785851" lon="10.6988836"><ele>58.14285714285715</ele><time>2026-05-02T08:26:00.127Z</time></trkpt><trkpt lat="45.3786538" lon="10.6988427"><ele>58.00000000000001</ele><time>2026-05-02T08:26:02.127Z</time></trkpt><trkpt lat="45.3787219" lon="10.698797"><ele>58.00000000000001</ele><time>2026-05-02T08:26:04.128Z</time></trkpt><trkpt lat="45.3787891" lon="10.6987506"><ele>58.0</ele><time>2026-05-02T08:26:06.128Z</time></trkpt><trkpt lat="45.3788578" lon="10.6987056"><ele>58.00000000000001</ele><time>2026-05-02T08:26:08.126Z</time></trkpt><trkpt lat="45.3789229" lon="10.6986593"><ele>58.00000000000001</ele><time>2026-05-02T08:26:10.127Z</time></trkpt><trkpt lat="45.3789896" lon="10.6986145"><ele>58.0</ele><time>2026-05-02T08:26:12.128Z</time></trkpt><trkpt lat="45.3790578" lon="10.6985708"><ele>58.00000000000001</ele><time>2026-05-02T08:26:14.128Z</time></trkpt><trkpt lat="45.3791248" lon="10.6985304"><ele>58.00000000000001</ele><time>2026-05-02T08:26:16.127Z</time></trkpt><trkpt lat="45.3791884" lon="10.6984865"><ele>58.14285714285715</ele><time>2026-05-02T08:26:18.126Z</time></trkpt><trkpt lat="45.379251" lon="10.6984433"><ele>58.28571428571429</ele><time>2026-05-02T08:26:20.128Z</time></trkpt><trkpt lat="45.3793129" lon="10.6984037"><ele>58.42857142857143</ele><time>2026-05-02T08:26:22.128Z</time></trkpt><trkpt lat="45.3793731" lon="10.6983651"><ele>58.57142857142858</ele><time>2026-05-02T08:26:24.127Z</time></trkpt><trkpt lat="45.3794341" lon="10.6983238"><ele>58.71428571428572</ele><time>2026-05-02T08:26:26.128Z</time></trkpt><trkpt lat="45.3794953" lon="10.6982839"><ele>58.857142857142854</ele><time>2026-05-02T08:26:28.127Z</time></trkpt><trkpt lat="45.3795542" lon="10.6982444"><ele>59.0</ele><time>2026-05-02T08:26:30.127Z</time></trkpt><trkpt lat="45.379638" lon="10.6981864"><ele>59.14285714285714</ele><time>2026-05-02T08:26:33.128Z</time></trkpt><trkpt lat="45.3796991" lon="10.6981452"><ele>59.28571428571429</ele><time>2026-05-02T08:26:35.128Z</time></trkpt><trkpt lat="45.3797594" lon="10.6981045"><ele>59.42857142857143</ele><time>2026-05-02T08:26:37.128Z</time></trkpt><trkpt lat="45.3798187" lon="10.6980617"><ele>59.57142857142857</ele><time>2026-05-02T08:26:39.127Z</time></trkpt><trkpt lat="45.3798775" lon="10.6980232"><ele>59.71428571428571</ele><time>2026-05-02T08:26:41.127Z</time></trkpt><trkpt lat="45.3799353" lon="10.6979832"><ele>59.85714285714286</ele><time>2026-05-02T08:26:43.127Z</time></trkpt><trkpt lat="45.3799959" lon="10.6979429"><ele>60.0</ele><time>2026-05-02T08:26:45.128Z</time></trkpt><trkpt lat="45.3800559" lon="10.6979079"><ele>60.0</ele><time>2026-05-02T08:26:47.128Z</time></trkpt><trkpt lat="45.3801321" lon="10.6978589"><ele>60.0</ele><time>2026-05-02T08:26:50.128Z</time></trkpt><trkpt lat="45.3802167" lon="10.6978031"><ele>60.0</ele><time>2026-05-02T08:26:53.127Z</time></trkpt><trkpt lat="45.3802736" lon="10.6977616"><ele>60.0</ele><time>2026-05-02T08:26:55.127Z</time></trkpt><trkpt lat="45.3803324" lon="10.6977224"><ele>60.0</ele><time>2026-05-02T08:26:57.128Z</time></trkpt><trkpt lat="45.3803913" lon="10.6976809"><ele>60.0</ele><time>2026-05-02T08:26:59.127Z</time></trkpt><trkpt lat="45.3804522" lon="10.6976397"><ele>60.0</ele><time>2026-05-02T08:27:01.128Z</time></trkpt><trkpt lat="45.3805142" lon="10.6975971"><ele>60.142857142857146</ele><time>2026-05-02T08:27:03.127Z</time></trkpt><trkpt lat="45.3805777" lon="10.6975537"><ele>60.28571428571428</ele><time>2026-05-02T08:27:05.128Z</time></trkpt><trkpt lat="45.3806422" lon="10.6975139"><ele>60.42857142857142</ele><time>2026-05-02T08:27:07.127Z</time></trkpt><trkpt lat="45.3807041" lon="10.6974701"><ele>60.57142857142857</ele><time>2026-05-02T08:27:09.126Z</time></trkpt><trkpt lat="45.3807643" lon="10.6974278"><ele>60.71428571428571</ele><time>2026-05-02T08:27:11.128Z</time></trkpt><trkpt lat="45.3808256" lon="10.6973858"><ele>60.85714285714285</ele><time>2026-05-02T08:27:13.128Z</time></trkpt><trkpt lat="45.380886" lon="10.6973422"><ele>60.99999999999999</ele><time>2026-05-02T08:27:15.127Z</time></trkpt><trkpt lat="45.3809459" lon="10.6973034"><ele>60.99999999999999</ele><time>2026-05-02T08:27:17.127Z</time></trkpt><trkpt lat="45.3810062" lon="10.6972625"><ele>61.0</ele><time>2026-05-02T08:27:19.127Z</time></trkpt><trkpt lat="45.3810894" lon="10.6972028"><ele>60.99999999999999</ele><time>2026-05-02T08:27:22.127Z</time></trkpt><trkpt lat="45.3811479" lon="10.6971631"><ele>60.99999999999999</ele><time>2026-05-02T08:27:24.126Z</time></trkpt><trkpt lat="45.3812077" lon="10.6971208"><ele>61.0</ele><time>2026-05-02T08:27:26.128Z</time></trkpt><trkpt lat="45.3812699" lon="10.6970777"><ele>60.99999999999999</ele><time>2026-05-02T08:27:28.126Z</time></trkpt><trkpt lat="45.3813325" lon="10.6970356"><ele>60.99999999999999</ele><time>2026-05-02T08:27:30.127Z</time></trkpt><trkpt lat="45.3813936" lon="10.6969939"><ele>60.99999999999999</ele><time>2026-05-02T08:27:32.128Z</time></trkpt><trkpt lat="45.3814524" lon="10.6969546"><ele>61.0</ele><time>2026-05-02T08:27:34.127Z</time></trkpt><trkpt lat="45.3815143" lon="10.696914"><ele>60.99999999999999</ele><time>2026-05-02T08:27:36.127Z</time></trkpt><trkpt lat="45.3815775" lon="10.6968685"><ele>60.99999999999999</ele><time>2026-05-02T08:27:38.127Z</time></trkpt><trkpt lat="45.3816404" lon="10.6968253"><ele>61.0</ele><time>2026-05-02T08:27:40.127Z</time></trkpt><trkpt lat="45.381701" lon="10.6967852"><ele>60.99999999999999</ele><time>2026-05-02T08:27:42.128Z</time></trkpt><trkpt lat="45.3817594" lon="10.6967491"><ele>60.99999999999999</ele><time>2026-05-02T08:27:44.127Z</time></trkpt><trkpt lat="45.3818493" lon="10.6966966"><ele>60.99999999999999</ele><time>2026-05-02T08:27:47.128Z</time></trkpt><trkpt lat="45.3819127" lon="10.6966622"><ele>61.0</ele><time>2026-05-02T08:27:49.128Z</time></trkpt><trkpt lat="45.381976" lon="10.6966257"><ele>60.99999999999999</ele><time>2026-05-02T08:27:51.127Z</time></trkpt><trkpt lat="45.3820402" lon="10.6965892"><ele>60.99999999999999</ele><time>2026-05-02T08:27:53.127Z</time></trkpt><trkpt lat="45.3821046" lon="10.6965516"><ele>61.0</ele><time>2026-05-02T08:27:55.128Z</time></trkpt><trkpt lat="45.3821669" lon="10.6965226"><ele>60.99999999999999</ele><time>2026-05-02T08:27:57.128Z</time></trkpt><trkpt lat="45.3822273" lon="10.6964919"><ele>60.99999999999999</ele><time>2026-05-02T08:27:59.127Z</time></trkpt><trkpt lat="45.382299" lon="10.6964631"><ele>60.99999999999999</ele><time>2026-05-02T08:28:01.128Z</time></trkpt><trkpt lat="45.3823728" lon="10.6964351"><ele>61.0</ele><time>2026-05-02T08:28:03.128Z</time></trkpt><trkpt lat="45.3824438" lon="10.6964068"><ele>60.99999999999999</ele><time>2026-05-02T08:28:05.127Z</time></trkpt><trkpt lat="45.3825131" lon="10.6963783"><ele>60.99999999999999</ele><time>2026-05-02T08:28:07.128Z</time></trkpt><trkpt lat="45.3825789" lon="10.6963579"><ele>61.0</ele><time>2026-05-02T08:28:09.128Z</time></trkpt><trkpt lat="45.3826453" lon="10.696337"><ele>60.99999999999999</ele><time>2026-05-02T08:28:11.127Z</time></trkpt><trkpt lat="45.3827135" lon="10.6963191"><ele>60.99999999999999</ele><time>2026-05-02T08:28:13.127Z</time></trkpt><trkpt lat="45.3827826" lon="10.6963038"><ele>60.99999999999999</ele><time>2026-05-02T08:28:15.127Z</time></trkpt><trkpt lat="45.3828515" lon="10.6962861"><ele>61.0</ele><time>2026-05-02T08:28:17.127Z</time></trkpt><trkpt lat="45.3829208" lon="10.6962697"><ele>60.99999999999999</ele><time>2026-05-02T08:28:19.126Z</time></trkpt><trkpt lat="45.3829904" lon="10.6962532"><ele>60.99999999999999</ele><time>2026-05-02T08:28:21.127Z</time></trkpt><trkpt lat="45.3830583" lon="10.6962411"><ele>61.0</ele><time>2026-05-02T08:28:23.127Z</time></trkpt><trkpt lat="45.3831255" lon="10.6962358"><ele>60.99999999999999</ele><time>2026-05-02T08:28:25.127Z</time></trkpt><trkpt lat="45.3831923" lon="10.6962262"><ele>60.99999999999999</ele><time>2026-05-02T08:28:27.127Z</time></trkpt><trkpt lat="45.3832593" lon="10.6962182"><ele>61.14285714285714</ele><time>2026-05-02T08:28:29.128Z</time></trkpt><trkpt lat="45.3833259" lon="10.6962108"><ele>61.285714285714285</ele><time>2026-05-02T08:28:31.128Z</time></trkpt><trkpt lat="45.3833939" lon="10.6962066"><ele>61.42857142857143</ele><time>2026-05-02T08:28:33.128Z</time></trkpt><trkpt lat="45.3834686" lon="10.6962082"><ele>61.57142857142857</ele><time>2026-05-02T08:28:36.126Z</time></trkpt><trkpt lat="45.3835414" lon="10.6961915"><ele>61.71428571428572</ele><time>2026-05-02T08:36:04.127Z</time></trkpt><trkpt lat="45.38361" lon="10.6961935"><ele>61.85714285714286</ele><time>2026-05-02T08:36:21.126Z</time></trkpt><trkpt lat="45.3836764" lon="10.6962077"><ele>62.0</ele><time>2026-05-02T08:36:25.126Z</time></trkpt><trkpt lat="45.3837517" lon="10.6962147"><ele>62.00000000000001</ele><time>2026-05-02T08:36:29.127Z</time></trkpt><trkpt lat="45.3838239" lon="10.6962159"><ele>62.0</ele><time>2026-05-02T08:36:32.127Z</time></trkpt><trkpt lat="45.3838973" lon="10.6962227"><ele>62.0</ele><time>2026-05-02T08:36:35.126Z</time></trkpt><trkpt lat="45.383973" lon="10.6962288"><ele>62.0</ele><time>2026-05-02T08:36:38.127Z</time></trkpt><trkpt lat="45.3840569" lon="10.6962414"><ele>62.00000000000001</ele><time>2026-05-02T08:36:41.127Z</time></trkpt><trkpt lat="45.3841487" lon="10.6962522"><ele>62.0</ele><time>2026-05-02T08:36:44.126Z</time></trkpt><trkpt lat="45.3842369" lon="10.6962601"><ele>62.16666666666667</ele><time>2026-05-02T08:36:47.127Z</time></trkpt><trkpt lat="45.3843221" lon="10.6962696"><ele>62.333333333333336</ele><time>2026-05-02T08:36:50.126Z</time></trkpt><trkpt lat="45.3843941" lon="10.6962738"><ele>62.5</ele><time>2026-05-02T08:36:54.126Z</time></trkpt><trkpt lat="45.3844665" lon="10.6963063"><ele>62.66666666666667</ele><time>2026-05-02T08:37:15.126Z</time></trkpt><trkpt lat="45.3845282" lon="10.6963468"><ele>62.833333333333336</ele><time>2026-05-02T08:37:22.126Z</time></trkpt><trkpt lat="45.384608" lon="10.6963498"><ele>63.0</ele><time>2026-05-02T08:37:33.127Z</time></trkpt><trkpt lat="45.3846912" lon="10.6963745"><ele>63.0</ele><time>2026-05-02T08:37:35.126Z</time></trkpt><trkpt lat="45.3847813" lon="10.6964057"><ele>63.0</ele><time>2026-05-02T08:37:37.127Z</time></trkpt><trkpt lat="45.3848654" lon="10.6964447"><ele>63.0</ele><time>2026-05-02T08:37:39.126Z</time></trkpt><trkpt lat="45.3849483" lon="10.696488"><ele>63.0</ele><time>2026-05-02T08:37:41.126Z</time></trkpt><trkpt lat="45.3850253" lon="10.6965312"><ele>63.0</ele><time>2026-05-02T08:37:43.127Z</time></trkpt><trkpt lat="45.3851" lon="10.6965746"><ele>63.0</ele><time>2026-05-02T08:37:45.127Z</time></trkpt><trkpt lat="45.3851738" lon="10.6966315"><ele>63.0</ele><time>2026-05-02T08:37:47.127Z</time></trkpt><trkpt lat="45.3852495" lon="10.6966825"><ele>63.0</ele><time>2026-05-02T08:37:49.127Z</time></trkpt><trkpt lat="45.385323" lon="10.6967375"><ele>63.0</ele><time>2026-05-02T08:37:51.126Z</time></trkpt><trkpt lat="45.3853898" lon="10.6968023"><ele>63.0</ele><time>2026-05-02T08:37:53.127Z</time></trkpt><trkpt lat="45.3854548" lon="10.6968619"><ele>63.0</ele><time>2026-05-02T08:37:55.127Z</time></trkpt><trkpt lat="45.3855236" lon="10.6969194"><ele>63.0</ele><time>2026-05-02T08:37:57.127Z</time></trkpt><trkpt lat="45.3855939" lon="10.6969755"><ele>62.666666666666664</ele><time>2026-05-02T08:37:59.127Z</time></trkpt><trkpt lat="45.3856601" lon="10.6970329"><ele>62.33333333333333</ele><time>2026-05-02T08:38:01.127Z</time></trkpt><trkpt lat="45.3857274" lon="10.6970834"><ele>62.0</ele><time>2026-05-02T08:38:03.126Z</time></trkpt><trkpt lat="45.385796" lon="10.6971301"><ele>61.666666666666664</ele><time>2026-05-02T08:38:05.127Z</time></trkpt><trkpt lat="45.3858626" lon="10.6971766"><ele>61.33333333333333</ele><time>2026-05-02T08:38:07.127Z</time></trkpt><trkpt lat="45.3859298" lon="10.6972281"><ele>61.0</ele><time>2026-05-02T08:38:09.126Z</time></trkpt><trkpt lat="45.3859916" lon="10.6972758"><ele>60.99999999999999</ele><time>2026-05-02T08:38:11.127Z</time></trkpt><trkpt lat="45.3860549" lon="10.6973255"><ele>61.0</ele><time>2026-05-02T08:38:13.126Z</time></trkpt><trkpt lat="45.3861207" lon="10.6973787"><ele>61.0</ele><time>2026-05-02T08:38:15.126Z</time></trkpt><trkpt lat="45.3861865" lon="10.6974346"><ele>61.0</ele><time>2026-05-02T08:38:17.127Z</time></trkpt><trkpt lat="45.3862528" lon="10.6974877"><ele>60.99999999999999</ele><time>2026-05-02T08:38:19.127Z</time></trkpt><trkpt lat="45.3863188" lon="10.6975408"><ele>61.0</ele><time>2026-05-02T08:38:21.126Z</time></trkpt><trkpt lat="45.386388" lon="10.6975908"><ele>61.166666666666664</ele><time>2026-05-02T08:38:23.127Z</time></trkpt><trkpt lat="45.3864564" lon="10.6976418"><ele>61.33333333333333</ele><time>2026-05-02T08:38:25.127Z</time></trkpt><trkpt lat="45.3865183" lon="10.6976958"><ele>61.5</ele><time>2026-05-02T08:38:27.126Z</time></trkpt><trkpt lat="45.3865835" lon="10.6977455"><ele>61.66666666666667</ele><time>2026-05-02T08:38:29.127Z</time></trkpt><trkpt lat="45.3866525" lon="10.6977974"><ele>61.833333333333336</ele><time>2026-05-02T08:38:31.127Z</time></trkpt><trkpt lat="45.386725" lon="10.6978525"><ele>62.0</ele><time>2026-05-02T08:38:33.127Z</time></trkpt><trkpt lat="45.3867927" lon="10.6979071"><ele>62.16666666666667</ele><time>2026-05-02T08:38:35.126Z</time></trkpt><trkpt lat="45.3868584" lon="10.6979571"><ele>62.333333333333336</ele><time>2026-05-02T08:38:37.126Z</time></trkpt><trkpt lat="45.3869286" lon="10.6980023"><ele>62.5</ele><time>2026-05-02T08:38:39.126Z</time></trkpt><trkpt lat="45.3869984" lon="10.6980494"><ele>62.66666666666667</ele><time>2026-05-02T08:38:41.127Z</time></trkpt><trkpt lat="45.3870702" lon="10.6981031"><ele>62.833333333333336</ele><time>2026-05-02T08:38:43.127Z</time></trkpt><trkpt lat="45.3871441" lon="10.6981558"><ele>63.0</ele><time>2026-05-02T08:38:45.126Z</time></trkpt><trkpt lat="45.3872181" lon="10.6982083"><ele>63.166666666666664</ele><time>2026-05-02T08:38:47.127Z</time></trkpt><trkpt lat="45.3872885" lon="10.6982596"><ele>63.33333333333333</ele><time>2026-05-02T08:38:49.127Z</time></trkpt><trkpt lat="45.3873547" lon="10.6983099"><ele>63.5</ele><time>2026-05-02T08:38:51.127Z</time></trkpt><trkpt lat="45.3874212" lon="10.6983587"><ele>63.666666666666664</ele><time>2026-05-02T08:38:53.127Z</time></trkpt><trkpt lat="45.3874894" lon="10.6984103"><ele>63.83333333333333</ele><time>2026-05-02T08:38:55.126Z</time></trkpt><trkpt lat="45.3875594" lon="10.6984619"><ele>64.0</ele><time>2026-05-02T08:38:57.126Z</time></trkpt><trkpt lat="45.3876259" lon="10.6985153"><ele>63.99999999999999</ele><time>2026-05-02T08:38:59.127Z</time></trkpt><trkpt lat="45.3876908" lon="10.698567"><ele>64.0</ele><time>2026-05-02T08:39:01.126Z</time></trkpt><trkpt lat="45.3877573" lon="10.6986158"><ele>64.0</ele><time>2026-05-02T08:39:03.126Z</time></trkpt><trkpt lat="45.387828" lon="10.6986681"><ele>64.0</ele><time>2026-05-02T08:39:05.126Z</time></trkpt><trkpt lat="45.3878968" lon="10.6987254"><ele>63.99999999999999</ele><time>2026-05-02T08:39:07.127Z</time></trkpt><trkpt lat="45.3879616" lon="10.6987751"><ele>64.0</ele><time>2026-05-02T08:39:09.127Z</time></trkpt><trkpt lat="45.3880225" lon="10.6988259"><ele>63.71428571428571</ele><time>2026-05-02T08:39:11.127Z</time></trkpt><trkpt lat="45.3880832" lon="10.6988799"><ele>63.42857142857142</ele><time>2026-05-02T08:39:13.126Z</time></trkpt><trkpt lat="45.3881472" lon="10.6989344"><ele>63.14285714285714</ele><time>2026-05-02T08:39:15.126Z</time></trkpt><trkpt lat="45.3882153" lon="10.6989887"><ele>62.85714285714286</ele><time>2026-05-02T08:39:17.126Z</time></trkpt><trkpt lat="45.388279" lon="10.6990431"><ele>62.57142857142858</ele><time>2026-05-02T08:39:19.126Z</time></trkpt><trkpt lat="45.3883393" lon="10.6990977"><ele>62.28571428571429</ele><time>2026-05-02T08:39:21.127Z</time></trkpt><trkpt lat="45.3883984" lon="10.6991518"><ele>62.0</ele><time>2026-05-02T08:39:23.126Z</time></trkpt><trkpt lat="45.3884581" lon="10.6992089"><ele>62.0</ele><time>2026-05-02T08:39:25.127Z</time></trkpt><trkpt lat="45.3885208" lon="10.6992667"><ele>62.00000000000001</ele><time>2026-05-02T08:39:27.127Z</time></trkpt><trkpt lat="45.3885841" lon="10.6993289"><ele>62.0</ele><time>2026-05-02T08:39:29.126Z</time></trkpt><trkpt lat="45.3886431" lon="10.6993922"><ele>62.0</ele><time>2026-05-02T08:39:31.126Z</time></trkpt><trkpt lat="45.3887005" lon="10.6994556"><ele>62.00000000000001</ele><time>2026-05-02T08:39:33.127Z</time></trkpt><trkpt lat="45.3887613" lon="10.6995163"><ele>62.0</ele><time>2026-05-02T08:39:35.126Z</time></trkpt><trkpt lat="45.3888203" lon="10.6995824"><ele>62.0</ele><time>2026-05-02T08:39:37.127Z</time></trkpt><trkpt lat="45.3888782" lon="10.6996413"><ele>61.66666666666667</ele><time>2026-05-02T08:39:39.126Z</time></trkpt><trkpt lat="45.3889374" lon="10.6997021"><ele>61.333333333333336</ele><time>2026-05-02T08:39:41.127Z</time></trkpt><trkpt lat="45.3889965" lon="10.6997717"><ele>61.0</ele><time>2026-05-02T08:39:43.126Z</time></trkpt><trkpt lat="45.389059" lon="10.6998415"><ele>60.66666666666667</ele><time>2026-05-02T08:39:45.125Z</time></trkpt><trkpt lat="45.3891229" lon="10.6999108"><ele>60.333333333333336</ele><time>2026-05-02T08:39:47.127Z</time></trkpt><trkpt lat="45.3891838" lon="10.6999807"><ele>60.0</ele><time>2026-05-02T08:39:49.127Z</time></trkpt><trkpt lat="45.3892414" lon="10.7000533"><ele>60.0</ele><time>2026-05-02T08:39:51.127Z</time></trkpt><trkpt lat="45.3892993" lon="10.7001266"><ele>60.0</ele><time>2026-05-02T08:39:53.127Z</time></trkpt><trkpt lat="45.3893557" lon="10.7002035"><ele>60.0</ele><time>2026-05-02T08:39:55.127Z</time></trkpt><trkpt lat="45.3894166" lon="10.7002822"><ele>60.0</ele><time>2026-05-02T08:39:57.127Z</time></trkpt><trkpt lat="45.3894755" lon="10.7003629"><ele>60.0</ele><time>2026-05-02T08:39:59.125Z</time></trkpt><trkpt lat="45.3895342" lon="10.7004407"><ele>60.0</ele><time>2026-05-02T08:40:01.126Z</time></trkpt><trkpt lat="45.3895942" lon="10.7005128"><ele>60.0</ele><time>2026-05-02T08:40:03.126Z</time></trkpt><trkpt lat="45.3896484" lon="10.7005852"><ele>60.0</ele><time>2026-05-02T08:40:05.126Z</time></trkpt><trkpt lat="45.3897033" lon="10.7006543"><ele>60.0</ele><time>2026-05-02T08:40:07.126Z</time></trkpt><trkpt lat="45.3897569" lon="10.7007297"><ele>60.0</ele><time>2026-05-02T08:40:09.127Z</time></trkpt><trkpt lat="45.3898122" lon="10.7008058"><ele>60.0</ele><time>2026-05-02T08:40:11.127Z</time></trkpt><trkpt lat="45.3898682" lon="10.7008812"><ele>60.0</ele><time>2026-05-02T08:40:13.126Z</time></trkpt><trkpt lat="45.3899228" lon="10.7009617"><ele>60.0</ele><time>2026-05-02T08:40:15.127Z</time></trkpt><trkpt lat="45.3899782" lon="10.7010448"><ele>60.0</ele><time>2026-05-02T08:40:17.126Z</time></trkpt><trkpt lat="45.3900324" lon="10.7011295"><ele>60.0</ele><time>2026-05-02T08:40:19.127Z</time></trkpt><trkpt lat="45.3900853" lon="10.7012173"><ele>60.0</ele><time>2026-05-02T08:40:21.127Z</time></trkpt><trkpt lat="45.3901398" lon="10.7013063"><ele>60.0</ele><time>2026-05-02T08:40:23.127Z</time></trkpt><trkpt lat="45.3901964" lon="10.7013936"><ele>60.0</ele><time>2026-05-02T08:40:25.125Z</time></trkpt><trkpt lat="45.3902489" lon="10.7014818"><ele>60.333333333333336</ele><time>2026-05-02T08:40:27.126Z</time></trkpt><trkpt lat="45.3903025" lon="10.7015732"><ele>60.66666666666667</ele><time>2026-05-02T08:40:29.125Z</time></trkpt><trkpt lat="45.390357" lon="10.7016674"><ele>61.0</ele><time>2026-05-02T08:40:31.125Z</time></trkpt><trkpt lat="45.3904112" lon="10.7017598"><ele>61.333333333333336</ele><time>2026-05-02T08:40:33.125Z</time></trkpt><trkpt lat="45.3904632" lon="10.7018493"><ele>61.66666666666667</ele><time>2026-05-02T08:40:35.125Z</time></trkpt><trkpt lat="45.3905115" lon="10.7019433"><ele>62.0</ele><time>2026-05-02T08:40:37.126Z</time></trkpt><trkpt lat="45.3905606" lon="10.7020343"><ele>62.16666666666667</ele><time>2026-05-02T08:40:39.125Z</time></trkpt><trkpt lat="45.390609" lon="10.7021256"><ele>62.333333333333336</ele><time>2026-05-02T08:40:41.125Z</time></trkpt><trkpt lat="45.3906556" lon="10.7022212"><ele>62.5</ele><time>2026-05-02T08:40:43.125Z</time></trkpt><trkpt lat="45.3907042" lon="10.7023183"><ele>62.66666666666667</ele><time>2026-05-02T08:40:45.125Z</time></trkpt><trkpt lat="45.390754" lon="10.7024218"><ele>62.833333333333336</ele><time>2026-05-02T08:40:47.125Z</time></trkpt><trkpt lat="45.3908059" lon="10.7025298"><ele>63.0</ele><time>2026-05-02T08:40:49.125Z</time></trkpt><trkpt lat="45.3908567" lon="10.7026382"><ele>63.0</ele><time>2026-05-02T08:40:51.125Z</time></trkpt><trkpt lat="45.3909094" lon="10.7027453"><ele>63.0</ele><time>2026-05-02T08:40:53.126Z</time></trkpt><trkpt lat="45.3909569" lon="10.7028518"><ele>63.0</ele><time>2026-05-02T08:40:55.126Z</time></trkpt><trkpt lat="45.3910558" lon="10.7031006"><ele>63.0</ele><time>2026-05-02T08:41:00.033Z</time></trkpt><trkpt lat="45.3911328" lon="10.7032427"><ele>63.166666666666664</ele><time>2026-05-02T08:41:03.03Z</time></trkpt><trkpt lat="45.3911822" lon="10.7033665"><ele>63.33333333333333</ele><time>2026-05-02T08:41:05.127Z</time></trkpt><trkpt lat="45.3912206" lon="10.7034598"><ele>63.5</ele><time>2026-05-02T08:41:07.126Z</time></trkpt><trkpt lat="45.391258" lon="10.703546"><ele>63.666666666666664</ele><time>2026-05-02T08:41:09.126Z</time></trkpt><trkpt lat="45.3912918" lon="10.7036379"><ele>63.83333333333333</ele><time>2026-05-02T08:41:11.126Z</time></trkpt><trkpt lat="45.3913272" lon="10.7037361"><ele>64.0</ele><time>2026-05-02T08:41:13.127Z</time></trkpt><trkpt lat="45.3913635" lon="10.703835"><ele>63.42857142857142</ele><time>2026-05-02T08:41:15.127Z</time></trkpt><trkpt lat="45.3913963" lon="10.7039308"><ele>62.85714285714285</ele><time>2026-05-02T08:41:17.126Z</time></trkpt><trkpt lat="45.3914277" lon="10.7040206"><ele>62.285714285714285</ele><time>2026-05-02T08:41:19.127Z</time></trkpt><trkpt lat="45.3914754" lon="10.7041305"><ele>61.71428571428571</ele><time>2026-05-02T08:41:22.127Z</time></trkpt><trkpt lat="45.3915001" lon="10.7042186"><ele>61.14285714285714</ele><time>2026-05-02T08:41:25.126Z</time></trkpt><trkpt lat="45.3915326" lon="10.704324"><ele>60.57142857142857</ele><time>2026-05-02T08:41:31.126Z</time></trkpt><trkpt lat="45.3915575" lon="10.7044086"><ele>60.0</ele><time>2026-05-02T08:41:33.127Z</time></trkpt><trkpt lat="45.3915876" lon="10.7045029"><ele>60.0</ele><time>2026-05-02T08:41:35.126Z</time></trkpt><trkpt lat="45.3916188" lon="10.7046066"><ele>60.0</ele><time>2026-05-02T08:41:37.126Z</time></trkpt><trkpt lat="45.3916458" lon="10.7047008"><ele>60.0</ele><time>2026-05-02T08:41:39.127Z</time></trkpt><trkpt lat="45.3916724" lon="10.7047894"><ele>60.0</ele><time>2026-05-02T08:41:41.126Z</time></trkpt><trkpt lat="45.3917009" lon="10.7048802"><ele>60.0</ele><time>2026-05-02T08:41:43.127Z</time></trkpt><trkpt lat="45.391725" lon="10.7049801"><ele>60.0</ele><time>2026-05-02T08:41:45.125Z</time></trkpt><trkpt lat="45.3917534" lon="10.7050765"><ele>60.0</ele><time>2026-05-02T08:41:47.127Z</time></trkpt><trkpt lat="45.391782" lon="10.705172"><ele>60.0</ele><time>2026-05-02T08:41:49.126Z</time></trkpt><trkpt lat="45.3918065" lon="10.7052633"><ele>60.0</ele><time>2026-05-02T08:41:51.126Z</time></trkpt><trkpt lat="45.3918287" lon="10.7053573"><ele>60.0</ele><time>2026-05-02T08:41:53.127Z</time></trkpt><trkpt lat="45.3918558" lon="10.7054529"><ele>60.0</ele><time>2026-05-02T08:41:55.127Z</time></trkpt><trkpt lat="45.3918837" lon="10.7055538"><ele>60.0</ele><time>2026-05-02T08:41:57.126Z</time></trkpt><trkpt lat="45.391909" lon="10.7056511"><ele>60.0</ele><time>2026-05-02T08:41:59.125Z</time></trkpt><trkpt lat="45.3919346" lon="10.7057478"><ele>60.0</ele><time>2026-05-02T08:42:01.124Z</time></trkpt><trkpt lat="45.3919604" lon="10.7058464"><ele>60.0</ele><time>2026-05-02T08:42:03.124Z</time></trkpt><trkpt lat="45.3919871" lon="10.705946"><ele>60.0</ele><time>2026-05-02T08:42:05.125Z</time></trkpt><trkpt lat="45.3920132" lon="10.7060459"><ele>60.0</ele><time>2026-05-02T08:42:07.125Z</time></trkpt><trkpt lat="45.3920404" lon="10.706142"><ele>60.0</ele><time>2026-05-02T08:42:09.124Z</time></trkpt><trkpt lat="45.3920632" lon="10.7062284"><ele>60.0</ele><time>2026-05-02T08:42:11.125Z</time></trkpt><trkpt lat="45.3920858" lon="10.7063256"><ele>60.0</ele><time>2026-05-02T08:42:13.126Z</time></trkpt><trkpt lat="45.3921134" lon="10.7064213"><ele>60.0</ele><time>2026-05-02T08:42:15.125Z</time></trkpt><trkpt lat="45.3921455" lon="10.7065355"><ele>59.833333333333336</ele><time>2026-05-02T08:42:18.126Z</time></trkpt><trkpt lat="45.3921792" lon="10.7066426"><ele>59.66666666666667</ele><time>2026-05-02T08:42:21.126Z</time></trkpt><trkpt lat="45.3922138" lon="10.7067557"><ele>59.5</ele><time>2026-05-02T08:42:24.125Z</time></trkpt><trkpt lat="45.3922471" lon="10.7068707"><ele>59.333333333333336</ele><time>2026-05-02T08:42:27.126Z</time></trkpt><trkpt lat="45.3922808" lon="10.7069906"><ele>59.16666666666667</ele><time>2026-05-02T08:42:30.126Z</time></trkpt><trkpt lat="45.392317" lon="10.7071102"><ele>59.0</ele><time>2026-05-02T08:42:33.125Z</time></trkpt><trkpt lat="45.3923558" lon="10.707232"><ele>59.0</ele><time>2026-05-02T08:42:36.126Z</time></trkpt><trkpt lat="45.3923986" lon="10.7073544"><ele>59.0</ele><time>2026-05-02T08:42:39.126Z</time></trkpt><trkpt lat="45.3924307" lon="10.707442"><ele>59.0</ele><time>2026-05-02T08:42:41.124Z</time></trkpt><trkpt lat="45.3924625" lon="10.7075312"><ele>59.0</ele><time>2026-05-02T08:42:43.125Z</time></trkpt><trkpt lat="45.3924963" lon="10.7076181"><ele>59.0</ele><time>2026-05-02T08:42:45.125Z</time></trkpt><trkpt lat="45.3925265" lon="10.7077043"><ele>59.0</ele><time>2026-05-02T08:42:47.125Z</time></trkpt><trkpt lat="45.3925558" lon="10.7077895"><ele>59.0</ele><time>2026-05-02T08:42:49.126Z</time></trkpt><trkpt lat="45.3925862" lon="10.7078743"><ele>59.14285714285714</ele><time>2026-05-02T08:42:51.126Z</time></trkpt><trkpt lat="45.3926169" lon="10.7079643"><ele>59.28571428571429</ele><time>2026-05-02T08:42:53.126Z</time></trkpt><trkpt lat="45.3926474" lon="10.7080554"><ele>59.42857142857143</ele><time>2026-05-02T08:42:55.125Z</time></trkpt><trkpt lat="45.3926763" lon="10.7081453"><ele>59.57142857142857</ele><time>2026-05-02T08:42:57.125Z</time></trkpt><trkpt lat="45.3927026" lon="10.7082372"><ele>59.71428571428571</ele><time>2026-05-02T08:42:59.125Z</time></trkpt><trkpt lat="45.3927273" lon="10.7083252"><ele>59.85714285714286</ele><time>2026-05-02T08:43:01.126Z</time></trkpt><trkpt lat="45.3927512" lon="10.7084142"><ele>60.0</ele><time>2026-05-02T08:43:03.125Z</time></trkpt><trkpt lat="45.3927763" lon="10.7085087"><ele>60.142857142857146</ele><time>2026-05-02T08:43:05.125Z</time></trkpt><trkpt lat="45.3928042" lon="10.7086013"><ele>60.28571428571428</ele><time>2026-05-02T08:43:07.125Z</time></trkpt><trkpt lat="45.3928289" lon="10.7086948"><ele>60.42857142857142</ele><time>2026-05-02T08:43:09.125Z</time></trkpt><trkpt lat="45.3928529" lon="10.7087912"><ele>60.57142857142857</ele><time>2026-05-02T08:43:11.125Z</time></trkpt><trkpt lat="45.39288" lon="10.7088898"><ele>60.71428571428571</ele><time>2026-05-02T08:43:13.126Z</time></trkpt><trkpt lat="45.3929073" lon="10.7089916"><ele>60.85714285714285</ele><time>2026-05-02T08:43:15.126Z</time></trkpt><trkpt lat="45.3929357" lon="10.7090944"><ele>60.99999999999999</ele><time>2026-05-02T08:43:17.126Z</time></trkpt><trkpt lat="45.3929633" lon="10.7091987"><ele>60.99999999999999</ele><time>2026-05-02T08:43:19.124Z</time></trkpt><trkpt lat="45.392994" lon="10.7093038"><ele>61.0</ele><time>2026-05-02T08:43:21.125Z</time></trkpt><trkpt lat="45.393024" lon="10.7094093"><ele>61.0</ele><time>2026-05-02T08:43:23.126Z</time></trkpt><trkpt lat="45.3930537" lon="10.7095185"><ele>61.0</ele><time>2026-05-02T08:43:25.124Z</time></trkpt><trkpt lat="45.3930826" lon="10.7096283"><ele>60.99999999999999</ele><time>2026-05-02T08:43:27.125Z</time></trkpt><trkpt lat="45.3931111" lon="10.7097372"><ele>61.0</ele><time>2026-05-02T08:43:29.126Z</time></trkpt><trkpt lat="45.3931402" lon="10.7098403"><ele>61.14285714285714</ele><time>2026-05-02T08:43:31.125Z</time></trkpt><trkpt lat="45.3931662" lon="10.7099368"><ele>61.285714285714285</ele><time>2026-05-02T08:43:33.126Z</time></trkpt><trkpt lat="45.3931853" lon="10.7100294"><ele>61.42857142857143</ele><time>2026-05-02T08:43:35.125Z</time></trkpt><trkpt lat="45.3931821" lon="10.710128"><ele>61.57142857142857</ele><time>2026-05-02T08:43:37.126Z</time></trkpt><trkpt lat="45.3931379" lon="10.7102067"><ele>61.71428571428572</ele><time>2026-05-02T08:43:39.125Z</time></trkpt><trkpt lat="45.3930784" lon="10.7102607"><ele>61.85714285714286</ele><time>2026-05-02T08:43:41.125Z</time></trkpt><trkpt lat="45.393016" lon="10.7103171"><ele>62.0</ele><time>2026-05-02T08:43:43.126Z</time></trkpt><trkpt lat="45.3929552" lon="10.7103806"><ele>63.16666666666667</ele><time>2026-05-02T08:43:45.125Z</time></trkpt><trkpt lat="45.3928934" lon="10.710445"><ele>64.33333333333334</ele><time>2026-05-02T08:43:47.124Z</time></trkpt><trkpt lat="45.3928342" lon="10.7105087"><ele>65.5</ele><time>2026-05-02T08:43:49.126Z</time></trkpt><trkpt lat="45.39278" lon="10.7105672"><ele>66.66666666666667</ele><time>2026-05-02T08:43:51.126Z</time></trkpt><trkpt lat="45.3927222" lon="10.7106709"><ele>67.83333333333333</ele><time>2026-05-02T08:43:54.126Z</time></trkpt><trkpt lat="45.3927414" lon="10.7107927"><ele>69.0</ele><time>2026-05-02T08:43:57.125Z</time></trkpt><trkpt lat="45.3927684" lon="10.7108738"><ele>69.0</ele><time>2026-05-02T08:43:59.126Z</time></trkpt><trkpt lat="45.3927893" lon="10.7109623"><ele>69.0</ele><time>2026-05-02T08:44:01.126Z</time></trkpt><trkpt lat="45.3928161" lon="10.7110472"><ele>69.0</ele><time>2026-05-02T08:44:04.126Z</time></trkpt><trkpt lat="45.3928488" lon="10.7111469"><ele>69.0</ele><time>2026-05-02T08:44:07.126Z</time></trkpt><trkpt lat="45.3928941" lon="10.7112585"><ele>69.0</ele><time>2026-05-02T08:44:10.126Z</time></trkpt><trkpt lat="45.3929215" lon="10.7113423"><ele>69.0</ele><time>2026-05-02T08:44:12.125Z</time></trkpt><trkpt lat="45.3929485" lon="10.7114251"><ele>69.0</ele><time>2026-05-02T08:44:14.125Z</time></trkpt><trkpt lat="45.3929776" lon="10.7115117"><ele>68.66666666666667</ele><time>2026-05-02T08:44:16.125Z</time></trkpt><trkpt lat="45.3930092" lon="10.7115996"><ele>68.33333333333333</ele><time>2026-05-02T08:44:18.125Z</time></trkpt><trkpt lat="45.3930549" lon="10.7116753"><ele>68.0</ele><time>2026-05-02T08:44:20.125Z</time></trkpt><trkpt lat="45.3931109" lon="10.7117188"><ele>67.66666666666666</ele><time>2026-05-02T08:44:22.126Z</time></trkpt><trkpt lat="45.3931869" lon="10.7117816"><ele>67.33333333333333</ele><time>2026-05-02T08:44:25.126Z</time></trkpt><trkpt lat="45.393221" lon="10.7118916"><ele>67.0</ele><time>2026-05-02T08:44:28.125Z</time></trkpt><trkpt lat="45.3931734" lon="10.7119927"><ele>67.0</ele><time>2026-05-02T08:44:31.125Z</time></trkpt><trkpt lat="45.3931052" lon="10.7119849"><ele>67.0</ele><time>2026-05-02T08:44:33.125Z</time></trkpt><trkpt lat="45.3930187" lon="10.7119462"><ele>67.0</ele><time>2026-05-02T08:44:36.126Z</time></trkpt><trkpt lat="45.3929325" lon="10.7119435"><ele>67.0</ele><time>2026-05-02T08:44:39.125Z</time></trkpt><trkpt lat="45.3928773" lon="10.7120461"><ele>67.0</ele><time>2026-05-02T08:44:42.126Z</time></trkpt><trkpt lat="45.3928884" lon="10.7121655"><ele>67.0</ele><time>2026-05-02T08:44:45.125Z</time></trkpt><trkpt lat="45.3929454" lon="10.7122466"><ele>67.0</ele><time>2026-05-02T08:44:48.125Z</time></trkpt><trkpt lat="45.3930256" lon="10.712255"><ele>67.0</ele><time>2026-05-02T08:44:51.126Z</time></trkpt><trkpt lat="45.3930857" lon="10.7123201"><ele>67.0</ele><time>2026-05-02T08:44:55.124Z</time></trkpt><trkpt lat="45.3931382" lon="10.712243"><ele>67.0</ele><time>2026-05-02T08:47:30.124Z</time></trkpt><trkpt lat="45.3931746" lon="10.7121538"><ele>67.0</ele><time>2026-05-02T08:47:34.126Z</time></trkpt><trkpt lat="45.3932228" lon="10.7120948"><ele>67.0</ele><time>2026-05-02T08:47:37.126Z</time></trkpt><trkpt lat="45.3932951" lon="10.7120313"><ele>67.0</ele><time>2026-05-02T08:47:41.124Z</time></trkpt><trkpt lat="45.3933525" lon="10.7119849"><ele>67.0</ele><time>2026-05-02T08:47:44.125Z</time></trkpt><trkpt lat="45.3934303" lon="10.711945"><ele>67.0</ele><time>2026-05-02T08:47:47.125Z</time></trkpt><trkpt lat="45.393513" lon="10.7119146"><ele>67.0</ele><time>2026-05-02T08:47:50.125Z</time></trkpt><trkpt lat="45.3935849" lon="10.7118769"><ele>67.0</ele><time>2026-05-02T08:47:53.124Z</time></trkpt><trkpt lat="45.3936532" lon="10.7118404"><ele>67.0</ele><time>2026-05-02T08:47:56.125Z</time></trkpt><trkpt lat="45.3937241" lon="10.7118125"><ele>66.83333333333333</ele><time>2026-05-02T08:47:59.125Z</time></trkpt><trkpt lat="45.3938017" lon="10.7117664"><ele>66.66666666666666</ele><time>2026-05-02T08:48:02.125Z</time></trkpt><trkpt lat="45.3938618" lon="10.711737"><ele>66.5</ele><time>2026-05-02T08:48:04.125Z</time></trkpt><trkpt lat="45.3939227" lon="10.7117024"><ele>66.33333333333333</ele><time>2026-05-02T08:48:06.124Z</time></trkpt><trkpt lat="45.3940086" lon="10.7116551"><ele>66.16666666666667</ele><time>2026-05-02T08:48:09.124Z</time></trkpt><trkpt lat="45.3940692" lon="10.71162"><ele>66.0</ele><time>2026-05-02T08:48:11.126Z</time></trkpt><trkpt lat="45.3941492" lon="10.7115809"><ele>65.33333333333333</ele><time>2026-05-02T08:48:14.126Z</time></trkpt><trkpt lat="45.3942235" lon="10.7115339"><ele>64.66666666666667</ele><time>2026-05-02T08:48:17.125Z</time></trkpt><trkpt lat="45.3943107" lon="10.7114829"><ele>64.0</ele><time>2026-05-02T08:48:20.125Z</time></trkpt><trkpt lat="45.3943744" lon="10.7114529"><ele>63.333333333333336</ele><time>2026-05-02T08:48:22.126Z</time></trkpt><trkpt lat="45.3944376" lon="10.7114248"><ele>62.66666666666667</ele><time>2026-05-02T08:48:24.125Z</time></trkpt><trkpt lat="45.3944991" lon="10.7113941"><ele>62.0</ele><time>2026-05-02T08:48:27.124Z</time></trkpt><trkpt lat="45.3945854" lon="10.7113703"><ele>62.400000000000006</ele><time>2026-05-02T08:49:34.124Z</time></trkpt><trkpt lat="45.3946769" lon="10.7113757"><ele>62.800000000000004</ele><time>2026-05-02T08:49:37.124Z</time></trkpt><trkpt lat="45.3947761" lon="10.7114251"><ele>63.2</ele><time>2026-05-02T08:49:41.094Z</time></trkpt><trkpt lat="45.394844" lon="10.7115108"><ele>63.6</ele><time>2026-05-02T08:49:44.126Z</time></trkpt><trkpt lat="45.3948975" lon="10.711607"><ele>64.0</ele><time>2026-05-02T08:49:47.125Z</time></trkpt><trkpt lat="45.3949423" lon="10.7117154"><ele>64.0</ele><time>2026-05-02T08:49:50.126Z</time></trkpt><trkpt lat="45.3949776" lon="10.711835"><ele>63.99999999999999</ele><time>2026-05-02T08:49:53.125Z</time></trkpt><trkpt lat="45.3950033" lon="10.7119181"><ele>64.0</ele><time>2026-05-02T08:49:55.125Z</time></trkpt><trkpt lat="45.3950327" lon="10.7120018"><ele>64.0</ele><time>2026-05-02T08:49:57.123Z</time></trkpt><trkpt lat="45.3950615" lon="10.7120839"><ele>63.99999999999999</ele><time>2026-05-02T08:49:59.125Z</time></trkpt><trkpt lat="45.395081" lon="10.7121726"><ele>64.0</ele><time>2026-05-02T08:50:01.124Z</time></trkpt><trkpt lat="45.3951107" lon="10.7122556"><ele>64.0</ele><time>2026-05-02T08:50:03.124Z</time></trkpt><trkpt lat="45.3951448" lon="10.7123373"><ele>64.16666666666666</ele><time>2026-05-02T08:50:05.125Z</time></trkpt><trkpt lat="45.3951756" lon="10.7124177"><ele>64.33333333333333</ele><time>2026-05-02T08:50:07.125Z</time></trkpt><trkpt lat="45.3952191" lon="10.7125337"><ele>64.5</ele><time>2026-05-02T08:50:10.124Z</time></trkpt><trkpt lat="45.3952623" lon="10.7126484"><ele>64.66666666666667</ele><time>2026-05-02T08:50:13.123Z</time></trkpt><trkpt lat="45.3953057" lon="10.7127524"><ele>64.83333333333334</ele><time>2026-05-02T08:50:16.124Z</time></trkpt><trkpt lat="45.3953398" lon="10.7128371"><ele>65.0</ele><time>2026-05-02T08:50:18.125Z</time></trkpt><trkpt lat="45.395378" lon="10.7129217"><ele>64.85714285714286</ele><time>2026-05-02T08:50:20.125Z</time></trkpt><trkpt lat="45.3954141" lon="10.7130072"><ele>64.71428571428572</ele><time>2026-05-02T08:50:22.125Z</time></trkpt><trkpt lat="45.3954538" lon="10.7130918"><ele>64.57142857142857</ele><time>2026-05-02T08:50:24.125Z</time></trkpt><trkpt lat="45.3954935" lon="10.7131714"><ele>64.42857142857143</ele><time>2026-05-02T08:50:26.124Z</time></trkpt><trkpt lat="45.3955378" lon="10.7132529"><ele>64.28571428571428</ele><time>2026-05-02T08:50:28.124Z</time></trkpt><trkpt lat="45.3955846" lon="10.7133359"><ele>64.14285714285714</ele><time>2026-05-02T08:50:30.124Z</time></trkpt><trkpt lat="45.3956324" lon="10.7134201"><ele>64.0</ele><time>2026-05-02T08:50:32.124Z</time></trkpt><trkpt lat="45.3956829" lon="10.7135039"><ele>64.16666666666666</ele><time>2026-05-02T08:50:34.125Z</time></trkpt><trkpt lat="45.3957317" lon="10.7135921"><ele>64.33333333333333</ele><time>2026-05-02T08:50:36.124Z</time></trkpt><trkpt lat="45.3957776" lon="10.7136738"><ele>64.5</ele><time>2026-05-02T08:50:38.124Z</time></trkpt><trkpt lat="45.3958177" lon="10.7137622"><ele>64.66666666666667</ele><time>2026-05-02T08:50:40.124Z</time></trkpt><trkpt lat="45.3958657" lon="10.7138464"><ele>64.83333333333334</ele><time>2026-05-02T08:50:42.124Z</time></trkpt><trkpt lat="45.3959091" lon="10.7139346"><ele>65.0</ele><time>2026-05-02T08:50:44.125Z</time></trkpt><trkpt lat="45.3959573" lon="10.7140203"><ele>65.0</ele><time>2026-05-02T08:50:46.125Z</time></trkpt><trkpt lat="45.3960096" lon="10.7141"><ele>65.0</ele><time>2026-05-02T08:50:48.124Z</time></trkpt><trkpt lat="45.396062" lon="10.7141776"><ele>65.0</ele><time>2026-05-02T08:50:50.123Z</time></trkpt><trkpt lat="45.3961141" lon="10.7142553"><ele>65.0</ele><time>2026-05-02T08:50:52.124Z</time></trkpt><trkpt lat="45.3961651" lon="10.7143323"><ele>65.0</ele><time>2026-05-02T08:50:54.125Z</time></trkpt><trkpt lat="45.3962171" lon="10.714413"><ele>65.0</ele><time>2026-05-02T08:50:56.124Z</time></trkpt><trkpt lat="45.3962703" lon="10.7144927"><ele>64.71428571428572</ele><time>2026-05-02T08:50:58.124Z</time></trkpt><trkpt lat="45.3963367" lon="10.7145589"><ele>64.42857142857143</ele><time>2026-05-02T08:51:00.125Z</time></trkpt><trkpt lat="45.3963911" lon="10.7146255"><ele>64.14285714285714</ele><time>2026-05-02T08:51:02.123Z</time></trkpt><trkpt lat="45.3964468" lon="10.7146974"><ele>63.85714285714286</ele><time>2026-05-02T08:51:04.124Z</time></trkpt><trkpt lat="45.3964967" lon="10.7147671"><ele>63.57142857142857</ele><time>2026-05-02T08:51:06.123Z</time></trkpt><trkpt lat="45.3965485" lon="10.714829"><ele>63.285714285714285</ele><time>2026-05-02T08:51:08.123Z</time></trkpt><trkpt lat="45.3966035" lon="10.7148871"><ele>63.0</ele><time>2026-05-02T08:51:10.124Z</time></trkpt><trkpt lat="45.3966643" lon="10.7149378"><ele>63.0</ele><time>2026-05-02T08:51:12.125Z</time></trkpt><trkpt lat="45.396726" lon="10.7149954"><ele>63.0</ele><time>2026-05-02T08:51:14.122Z</time></trkpt><trkpt lat="45.3967897" lon="10.715065"><ele>63.0</ele><time>2026-05-02T08:51:16.125Z</time></trkpt><trkpt lat="45.3968504" lon="10.7151289"><ele>63.0</ele><time>2026-05-02T08:51:18.125Z</time></trkpt><trkpt lat="45.3969126" lon="10.7151892"><ele>63.0</ele><time>2026-05-02T08:51:20.124Z</time></trkpt><trkpt lat="45.3969696" lon="10.7152388"><ele>63.0</ele><time>2026-05-02T08:51:22.125Z</time></trkpt><trkpt lat="45.3970264" lon="10.7152835"><ele>63.0</ele><time>2026-05-02T08:51:24.124Z</time></trkpt><trkpt lat="45.3970819" lon="10.7153335"><ele>63.833333333333336</ele><time>2026-05-02T08:51:26.124Z</time></trkpt><trkpt lat="45.397157" lon="10.7153915"><ele>64.66666666666667</ele><time>2026-05-02T08:51:29.125Z</time></trkpt><trkpt lat="45.3972165" lon="10.7154403"><ele>65.5</ele><time>2026-05-02T08:51:33.125Z</time></trkpt><trkpt lat="45.3972796" lon="10.7155031"><ele>66.33333333333334</ele><time>2026-05-02T08:57:15.123Z</time></trkpt><trkpt lat="45.3973469" lon="10.7155406"><ele>67.16666666666667</ele><time>2026-05-02T08:57:18.124Z</time></trkpt><trkpt lat="45.3974122" lon="10.7155903"><ele>68.0</ele><time>2026-05-02T08:57:21.123Z</time></trkpt><trkpt lat="45.3974894" lon="10.7156282"><ele>68.0</ele><time>2026-05-02T08:57:24.124Z</time></trkpt><trkpt lat="45.3975649" lon="10.7156789"><ele>68.0</ele><time>2026-05-02T08:57:27.123Z</time></trkpt><trkpt lat="45.3976196" lon="10.7157293"><ele>68.0</ele><time>2026-05-02T08:57:30.123Z</time></trkpt><trkpt lat="45.3976862" lon="10.7157837"><ele>68.0</ele><time>2026-05-02T08:57:33.121Z</time></trkpt><trkpt lat="45.397779" lon="10.7158292"><ele>68.0</ele><time>2026-05-02T08:57:36.122Z</time></trkpt><trkpt lat="45.3978426" lon="10.7158711"><ele>68.0</ele><time>2026-05-02T08:57:38.123Z</time></trkpt><trkpt lat="45.3979104" lon="10.7159068"><ele>67.99999999999999</ele><time>2026-05-02T08:57:40.122Z</time></trkpt><trkpt lat="45.3979713" lon="10.7159421"><ele>68.0</ele><time>2026-05-02T08:57:42.122Z</time></trkpt><trkpt lat="45.3980371" lon="10.7159655"><ele>68.0</ele><time>2026-05-02T08:57:44.124Z</time></trkpt><trkpt lat="45.3981032" lon="10.715993"><ele>68.0</ele><time>2026-05-02T08:57:46.121Z</time></trkpt><trkpt lat="45.3981703" lon="10.7160211"><ele>68.0</ele><time>2026-05-02T08:57:48.122Z</time></trkpt><trkpt lat="45.398232" lon="10.7160558"><ele>67.99999999999999</ele><time>2026-05-02T08:57:50.123Z</time></trkpt><trkpt lat="45.3982937" lon="10.7160967"><ele>68.0</ele><time>2026-05-02T08:57:52.123Z</time></trkpt><trkpt lat="45.3983713" lon="10.7161312"><ele>67.99999999999999</ele><time>2026-05-02T08:57:54.123Z</time></trkpt><trkpt lat="45.3984509" lon="10.7161627"><ele>68.0</ele><time>2026-05-02T08:57:56.122Z</time></trkpt><trkpt lat="45.398525" lon="10.716182"><ele>68.0</ele><time>2026-05-02T08:57:58.124Z</time></trkpt><trkpt lat="45.398593" lon="10.716211"><ele>68.0</ele><time>2026-05-02T08:58:00.123Z</time></trkpt><trkpt lat="45.3986635" lon="10.7162387"><ele>68.0</ele><time>2026-05-02T08:58:02.122Z</time></trkpt><trkpt lat="45.3987258" lon="10.7162729"><ele>67.99999999999999</ele><time>2026-05-02T08:58:04.123Z</time></trkpt><trkpt lat="45.3987935" lon="10.7162903"><ele>68.0</ele><time>2026-05-02T08:58:06.122Z</time></trkpt><trkpt lat="45.3988743" lon="10.7163086"><ele>68.0</ele><time>2026-05-02T08:58:08.123Z</time></trkpt><trkpt lat="45.39895" lon="10.7163353"><ele>68.0</ele><time>2026-05-02T08:58:10.123Z</time></trkpt><trkpt lat="45.3990187" lon="10.7163601"><ele>68.0</ele><time>2026-05-02T08:58:12.123Z</time></trkpt><trkpt lat="45.3990965" lon="10.7163863"><ele>68.0</ele><time>2026-05-02T08:58:14.123Z</time></trkpt><trkpt lat="45.3991732" lon="10.7164127"><ele>68.0</ele><time>2026-05-02T08:58:16.122Z</time></trkpt><trkpt lat="45.3992512" lon="10.7164432"><ele>68.0</ele><time>2026-05-02T08:58:18.124Z</time></trkpt><trkpt lat="45.3993235" lon="10.7164818"><ele>68.0</ele><time>2026-05-02T08:58:20.124Z</time></trkpt><trkpt lat="45.3993925" lon="10.7165164"><ele>68.0</ele><time>2026-05-02T08:58:22.123Z</time></trkpt><trkpt lat="45.3994606" lon="10.7165467"><ele>68.0</ele><time>2026-05-02T08:58:24.122Z</time></trkpt><trkpt lat="45.3995384" lon="10.7165794"><ele>68.0</ele><time>2026-05-02T08:58:26.123Z</time></trkpt><trkpt lat="45.3996168" lon="10.7166124"><ele>68.0</ele><time>2026-05-02T08:58:28.123Z</time></trkpt><trkpt lat="45.3996914" lon="10.7166396"><ele>68.0</ele><time>2026-05-02T08:58:30.123Z</time></trkpt><trkpt lat="45.3997655" lon="10.7166767"><ele>67.66666666666667</ele><time>2026-05-02T08:58:32.122Z</time></trkpt><trkpt lat="45.3998386" lon="10.7167078"><ele>67.33333333333334</ele><time>2026-05-02T08:58:34.122Z</time></trkpt><trkpt lat="45.3999191" lon="10.716728"><ele>67.0</ele><time>2026-05-02T08:58:36.124Z</time></trkpt><trkpt lat="45.399987" lon="10.7167572"><ele>66.66666666666667</ele><time>2026-05-02T08:58:38.124Z</time></trkpt><trkpt lat="45.4000567" lon="10.7167903"><ele>66.33333333333333</ele><time>2026-05-02T08:58:40.122Z</time></trkpt><trkpt lat="45.4001284" lon="10.7168178"><ele>66.0</ele><time>2026-05-02T08:58:42.123Z</time></trkpt><trkpt lat="45.4002068" lon="10.7168447"><ele>66.0</ele><time>2026-05-02T08:58:44.123Z</time></trkpt><trkpt lat="45.400291" lon="10.7168596"><ele>66.0</ele><time>2026-05-02T08:58:46.123Z</time></trkpt><trkpt lat="45.400383" lon="10.7168791"><ele>66.0</ele><time>2026-05-02T08:58:48.122Z</time></trkpt><trkpt lat="45.4004606" lon="10.7169129"><ele>66.0</ele><time>2026-05-02T08:58:50.122Z</time></trkpt><trkpt lat="45.4005498" lon="10.7169392"><ele>66.0</ele><time>2026-05-02T08:58:52.122Z</time></trkpt><trkpt lat="45.4006382" lon="10.7169678"><ele>66.0</ele><time>2026-05-02T08:58:54.123Z</time></trkpt><trkpt lat="45.400713" lon="10.7169954"><ele>66.0</ele><time>2026-05-02T08:58:56.122Z</time></trkpt><trkpt lat="45.4007841" lon="10.7170269"><ele>66.0</ele><time>2026-05-02T08:58:58.121Z</time></trkpt><trkpt lat="45.400853" lon="10.7170591"><ele>66.0</ele><time>2026-05-02T08:59:00.121Z</time></trkpt><trkpt lat="45.4009256" lon="10.7170846"><ele>66.0</ele><time>2026-05-02T08:59:02.123Z</time></trkpt><trkpt lat="45.4010031" lon="10.7171179"><ele>66.0</ele><time>2026-05-02T08:59:04.121Z</time></trkpt><trkpt lat="45.4010819" lon="10.71715"><ele>66.0</ele><time>2026-05-02T08:59:06.123Z</time></trkpt><trkpt lat="45.4011569" lon="10.7171794"><ele>66.0</ele><time>2026-05-02T08:59:08.123Z</time></trkpt><trkpt lat="45.4012351" lon="10.7172103"><ele>66.0</ele><time>2026-05-02T08:59:10.122Z</time></trkpt><trkpt lat="45.4013068" lon="10.7172385"><ele>66.0</ele><time>2026-05-02T08:59:12.123Z</time></trkpt><trkpt lat="45.4013794" lon="10.7172653"><ele>66.0</ele><time>2026-05-02T08:59:14.123Z</time></trkpt><trkpt lat="45.4014474" lon="10.7172803"><ele>66.0</ele><time>2026-05-02T08:59:16.123Z</time></trkpt><trkpt lat="45.4015141" lon="10.7173067"><ele>66.0</ele><time>2026-05-02T08:59:18.123Z</time></trkpt><trkpt lat="45.4015879" lon="10.7173408"><ele>66.0</ele><time>2026-05-02T08:59:20.123Z</time></trkpt><trkpt lat="45.4016609" lon="10.7173724"><ele>66.0</ele><time>2026-05-02T08:59:22.122Z</time></trkpt><trkpt lat="45.4017375" lon="10.7173971"><ele>66.0</ele><time>2026-05-02T08:59:24.122Z</time></trkpt><trkpt lat="45.4018113" lon="10.717427"><ele>66.0</ele><time>2026-05-02T08:59:26.122Z</time></trkpt><trkpt lat="45.4018927" lon="10.7174588"><ele>66.0</ele><time>2026-05-02T08:59:28.123Z</time></trkpt><trkpt lat="45.4019687" lon="10.7174866"><ele>66.0</ele><time>2026-05-02T08:59:30.122Z</time></trkpt><trkpt lat="45.40204" lon="10.7175173"><ele>66.0</ele><time>2026-05-02T08:59:32.123Z</time></trkpt><trkpt lat="45.4021102" lon="10.7175365"><ele>65.66666666666667</ele><time>2026-05-02T08:59:34.122Z</time></trkpt><trkpt lat="45.4021848" lon="10.7175645"><ele>65.33333333333333</ele><time>2026-05-02T08:59:36.123Z</time></trkpt><trkpt lat="45.4022553" lon="10.7175964"><ele>65.0</ele><time>2026-05-02T08:59:38.122Z</time></trkpt><trkpt lat="45.4023303" lon="10.7176305"><ele>64.66666666666666</ele><time>2026-05-02T08:59:40.122Z</time></trkpt><trkpt lat="45.4024038" lon="10.717664"><ele>64.33333333333333</ele><time>2026-05-02T08:59:42.122Z</time></trkpt><trkpt lat="45.4024803" lon="10.7176939"><ele>64.0</ele><time>2026-05-02T08:59:44.122Z</time></trkpt><trkpt lat="45.4025562" lon="10.7177194"><ele>63.99999999999999</ele><time>2026-05-02T08:59:46.123Z</time></trkpt><trkpt lat="45.4026276" lon="10.7177327"><ele>64.0</ele><time>2026-05-02T08:59:48.123Z</time></trkpt><trkpt lat="45.4027005" lon="10.7177506"><ele>64.0</ele><time>2026-05-02T08:59:50.122Z</time></trkpt><trkpt lat="45.4027811" lon="10.7177718"><ele>64.0</ele><time>2026-05-02T08:59:52.123Z</time></trkpt><trkpt lat="45.4028663" lon="10.7177927"><ele>63.99999999999999</ele><time>2026-05-02T08:59:54.121Z</time></trkpt><trkpt lat="45.402944" lon="10.7178224"><ele>64.0</ele><time>2026-05-02T08:59:56.123Z</time></trkpt><trkpt lat="45.4030191" lon="10.7178536"><ele>64.16666666666666</ele><time>2026-05-02T08:59:58.123Z</time></trkpt><trkpt lat="45.4030914" lon="10.7178795"><ele>64.33333333333333</ele><time>2026-05-02T09:00:00.122Z</time></trkpt><trkpt lat="45.4031583" lon="10.7178996"><ele>64.5</ele><time>2026-05-02T09:00:02.122Z</time></trkpt><trkpt lat="45.4032313" lon="10.7179242"><ele>64.66666666666667</ele><time>2026-05-02T09:00:04.122Z</time></trkpt><trkpt lat="45.4033069" lon="10.7179459"><ele>64.83333333333334</ele><time>2026-05-02T09:00:06.122Z</time></trkpt><trkpt lat="45.4033868" lon="10.7179624"><ele>65.0</ele><time>2026-05-02T09:00:08.122Z</time></trkpt><trkpt lat="45.4034646" lon="10.7179798"><ele>65.0</ele><time>2026-05-02T09:00:10.123Z</time></trkpt><trkpt lat="45.4035408" lon="10.7179976"><ele>65.0</ele><time>2026-05-02T09:00:12.122Z</time></trkpt><trkpt lat="45.4036129" lon="10.7180105"><ele>65.0</ele><time>2026-05-02T09:00:14.122Z</time></trkpt><trkpt lat="45.40369" lon="10.7180259"><ele>65.0</ele><time>2026-05-02T09:00:16.121Z</time></trkpt><trkpt lat="45.403765" lon="10.7180413"><ele>65.0</ele><time>2026-05-02T09:00:18.122Z</time></trkpt><trkpt lat="45.4038407" lon="10.7180541"><ele>65.0</ele><time>2026-05-02T09:00:20.121Z</time></trkpt><trkpt lat="45.403918" lon="10.7180649"><ele>65.0</ele><time>2026-05-02T09:00:22.121Z</time></trkpt><trkpt lat="45.4039951" lon="10.7180744"><ele>65.0</ele><time>2026-05-02T09:00:24.122Z</time></trkpt><trkpt lat="45.4040732" lon="10.718087"><ele>65.0</ele><time>2026-05-02T09:00:26.122Z</time></trkpt><trkpt lat="45.404151" lon="10.7180959"><ele>65.0</ele><time>2026-05-02T09:00:28.122Z</time></trkpt><trkpt lat="45.404228" lon="10.7181079"><ele>65.0</ele><time>2026-05-02T09:00:30.123Z</time></trkpt><trkpt lat="45.4043064" lon="10.7181083"><ele>65.0</ele><time>2026-05-02T09:00:32.122Z</time></trkpt><trkpt lat="45.4043839" lon="10.7181106"><ele>65.0</ele><time>2026-05-02T09:00:34.123Z</time></trkpt><trkpt lat="45.404456" lon="10.7181081"><ele>65.0</ele><time>2026-05-02T09:00:36.123Z</time></trkpt><trkpt lat="45.4045349" lon="10.7181079"><ele>65.0</ele><time>2026-05-02T09:00:38.121Z</time></trkpt><trkpt lat="45.4046212" lon="10.7181053"><ele>65.0</ele><time>2026-05-02T09:00:40.123Z</time></trkpt><trkpt lat="45.4047027" lon="10.7181045"><ele>65.0</ele><time>2026-05-02T09:00:42.122Z</time></trkpt><trkpt lat="45.4047763" lon="10.7181031"><ele>65.0</ele><time>2026-05-02T09:00:44.123Z</time></trkpt><trkpt lat="45.4048548" lon="10.7181057"><ele>65.0</ele><time>2026-05-02T09:00:46.122Z</time></trkpt><trkpt lat="45.4049313" lon="10.7181038"><ele>65.0</ele><time>2026-05-02T09:00:48.123Z</time></trkpt><trkpt lat="45.4050059" lon="10.7180902"><ele>65.0</ele><time>2026-05-02T09:00:50.123Z</time></trkpt><trkpt lat="45.4050807" lon="10.7180658"><ele>65.0</ele><time>2026-05-02T09:00:52.122Z</time></trkpt><trkpt lat="45.405159" lon="10.7180495"><ele>65.0</ele><time>2026-05-02T09:00:54.121Z</time></trkpt><trkpt lat="45.4052364" lon="10.7180451"><ele>65.0</ele><time>2026-05-02T09:00:56.121Z</time></trkpt><trkpt lat="45.4053061" lon="10.7180472"><ele>65.0</ele><time>2026-05-02T09:00:58.122Z</time></trkpt><trkpt lat="45.4053795" lon="10.7180362"><ele>65.0</ele><time>2026-05-02T09:01:00.122Z</time></trkpt><trkpt lat="45.4054579" lon="10.7180189"><ele>65.0</ele><time>2026-05-02T09:01:02.122Z</time></trkpt><trkpt lat="45.4055357" lon="10.7179997"><ele>65.0</ele><time>2026-05-02T09:01:04.121Z</time></trkpt><trkpt lat="45.4056106" lon="10.7179806"><ele>65.0</ele><time>2026-05-02T09:01:06.121Z</time></trkpt><trkpt lat="45.4056931" lon="10.7179638"><ele>65.0</ele><time>2026-05-02T09:01:09.122Z</time></trkpt><trkpt lat="45.4057667" lon="10.7179447"><ele>65.42857142857143</ele><time>2026-05-02T09:01:13.123Z</time></trkpt><trkpt lat="45.4058363" lon="10.7179193"><ele>65.85714285714286</ele><time>2026-05-02T09:01:16.121Z</time></trkpt><trkpt lat="45.4059212" lon="10.7179053"><ele>66.28571428571428</ele><time>2026-05-02T09:01:19.122Z</time></trkpt><trkpt lat="45.4060118" lon="10.7178787"><ele>66.71428571428572</ele><time>2026-05-02T09:01:22.121Z</time></trkpt><trkpt lat="45.4060728" lon="10.7178537"><ele>67.14285714285714</ele><time>2026-05-02T09:01:24.122Z</time></trkpt><trkpt lat="45.4061348" lon="10.7178248"><ele>67.57142857142857</ele><time>2026-05-02T09:01:26.122Z</time></trkpt><trkpt lat="45.4062006" lon="10.7178052"><ele>68.0</ele><time>2026-05-02T09:01:28.122Z</time></trkpt><trkpt lat="45.4062665" lon="10.7177829"><ele>67.66666666666667</ele><time>2026-05-02T09:01:30.123Z</time></trkpt><trkpt lat="45.4063352" lon="10.7177545"><ele>67.33333333333334</ele><time>2026-05-02T09:01:32.123Z</time></trkpt><trkpt lat="45.4064022" lon="10.7177276"><ele>67.0</ele><time>2026-05-02T09:01:34.121Z</time></trkpt><trkpt lat="45.4064696" lon="10.7176983"><ele>66.66666666666667</ele><time>2026-05-02T09:01:36.122Z</time></trkpt><trkpt lat="45.4065404" lon="10.7176623"><ele>66.33333333333333</ele><time>2026-05-02T09:01:38.122Z</time></trkpt><trkpt lat="45.4066115" lon="10.7176301"><ele>66.0</ele><time>2026-05-02T09:01:40.122Z</time></trkpt><trkpt lat="45.4067195" lon="10.7175849"><ele>66.0</ele><time>2026-05-02T09:01:43.122Z</time></trkpt><trkpt lat="45.4067912" lon="10.7175512"><ele>66.0</ele><time>2026-05-02T09:01:45.122Z</time></trkpt><trkpt lat="45.4068616" lon="10.717522"><ele>66.0</ele><time>2026-05-02T09:01:47.121Z</time></trkpt><trkpt lat="45.4069333" lon="10.7174892"><ele>66.0</ele><time>2026-05-02T09:01:49.122Z</time></trkpt><trkpt lat="45.4070033" lon="10.7174473"><ele>66.0</ele><time>2026-05-02T09:01:51.122Z</time></trkpt><trkpt lat="45.4070685" lon="10.7174078"><ele>66.0</ele><time>2026-05-02T09:01:53.122Z</time></trkpt><trkpt lat="45.4071329" lon="10.7173673"><ele>66.0</ele><time>2026-05-02T09:01:55.123Z</time></trkpt><trkpt lat="45.4071995" lon="10.7173374"><ele>66.14285714285714</ele><time>2026-05-02T09:01:57.123Z</time></trkpt><trkpt lat="45.4072667" lon="10.7173087"><ele>66.28571428571429</ele><time>2026-05-02T09:01:59.123Z</time></trkpt><trkpt lat="45.4073346" lon="10.7172808"><ele>66.42857142857143</ele><time>2026-05-02T09:02:01.122Z</time></trkpt><trkpt lat="45.4074057" lon="10.7172495"><ele>66.57142857142857</ele><time>2026-05-02T09:02:03.121Z</time></trkpt><trkpt lat="45.4074782" lon="10.7172175"><ele>66.71428571428571</ele><time>2026-05-02T09:02:05.122Z</time></trkpt><trkpt lat="45.4075495" lon="10.7171823"><ele>66.85714285714286</ele><time>2026-05-02T09:02:07.122Z</time></trkpt><trkpt lat="45.4076222" lon="10.7171516"><ele>67.0</ele><time>2026-05-02T09:02:09.122Z</time></trkpt><trkpt lat="45.4076968" lon="10.7171239"><ele>67.0</ele><time>2026-05-02T09:02:11.122Z</time></trkpt><trkpt lat="45.4077683" lon="10.7170992"><ele>67.0</ele><time>2026-05-02T09:02:13.122Z</time></trkpt><trkpt lat="45.4078374" lon="10.7170788"><ele>67.0</ele><time>2026-05-02T09:02:15.122Z</time></trkpt><trkpt lat="45.4079093" lon="10.7170521"><ele>67.0</ele><time>2026-05-02T09:02:17.122Z</time></trkpt><trkpt lat="45.4079769" lon="10.7170335"><ele>67.0</ele><time>2026-05-02T09:02:19.121Z</time></trkpt><trkpt lat="45.4080456" lon="10.7170127"><ele>67.0</ele><time>2026-05-02T09:02:21.122Z</time></trkpt><trkpt lat="45.4081207" lon="10.7169946"><ele>67.0</ele><time>2026-05-02T09:02:23.121Z</time></trkpt><trkpt lat="45.4081857" lon="10.7169771"><ele>66.85714285714286</ele><time>2026-05-02T09:02:25.122Z</time></trkpt><trkpt lat="45.4082522" lon="10.7169635"><ele>66.71428571428571</ele><time>2026-05-02T09:02:27.12Z</time></trkpt><trkpt lat="45.4083172" lon="10.7169413"><ele>66.57142857142857</ele><time>2026-05-02T09:02:29.122Z</time></trkpt><trkpt lat="45.4083856" lon="10.7169256"><ele>66.42857142857143</ele><time>2026-05-02T09:02:31.121Z</time></trkpt><trkpt lat="45.4084643" lon="10.7169077"><ele>66.28571428571429</ele><time>2026-05-02T09:02:33.121Z</time></trkpt><trkpt lat="45.4085394" lon="10.7168947"><ele>66.14285714285714</ele><time>2026-05-02T09:02:35.122Z</time></trkpt><trkpt lat="45.4086192" lon="10.7168832"><ele>66.0</ele><time>2026-05-02T09:02:37.122Z</time></trkpt><trkpt lat="45.4086935" lon="10.7168719"><ele>66.0</ele><time>2026-05-02T09:02:39.123Z</time></trkpt><trkpt lat="45.4087669" lon="10.7168587"><ele>66.0</ele><time>2026-05-02T09:02:41.123Z</time></trkpt><trkpt lat="45.4088444" lon="10.7168457"><ele>66.0</ele><time>2026-05-02T09:02:43.121Z</time></trkpt><trkpt lat="45.4089164" lon="10.7168288"><ele>66.0</ele><time>2026-05-02T09:02:45.123Z</time></trkpt><trkpt lat="45.4089895" lon="10.716817"><ele>66.0</ele><time>2026-05-02T09:02:47.122Z</time></trkpt><trkpt lat="45.4090624" lon="10.7168055"><ele>66.0</ele><time>2026-05-02T09:02:49.123Z</time></trkpt><trkpt lat="45.4091263" lon="10.716788"><ele>66.0</ele><time>2026-05-02T09:02:51.121Z</time></trkpt><trkpt lat="45.4091888" lon="10.7167693"><ele>65.57142857142857</ele><time>2026-05-02T09:02:53.122Z</time></trkpt><trkpt lat="45.4092589" lon="10.7167574"><ele>65.14285714285714</ele><time>2026-05-02T09:02:55.123Z</time></trkpt><trkpt lat="45.4093261" lon="10.7167493"><ele>64.71428571428572</ele><time>2026-05-02T09:02:57.122Z</time></trkpt><trkpt lat="45.4093915" lon="10.7167396"><ele>64.28571428571428</ele><time>2026-05-02T09:02:59.121Z</time></trkpt><trkpt lat="45.409457" lon="10.7167369"><ele>63.85714285714286</ele><time>2026-05-02T09:03:01.123Z</time></trkpt><trkpt lat="45.4095237" lon="10.7167215"><ele>63.42857142857143</ele><time>2026-05-02T09:03:03.12Z</time></trkpt><trkpt lat="45.4095885" lon="10.7167031"><ele>63.0</ele><time>2026-05-02T09:03:05.122Z</time></trkpt><trkpt lat="45.4096566" lon="10.7166908"><ele>62.85714285714286</ele><time>2026-05-02T09:03:07.123Z</time></trkpt><trkpt lat="45.4097307" lon="10.716679"><ele>62.714285714285715</ele><time>2026-05-02T09:03:09.122Z</time></trkpt><trkpt lat="45.4098029" lon="10.7166662"><ele>62.57142857142857</ele><time>2026-05-02T09:03:11.123Z</time></trkpt><trkpt lat="45.4098748" lon="10.7166398"><ele>62.42857142857143</ele><time>2026-05-02T09:03:13.122Z</time></trkpt><trkpt lat="45.4099485" lon="10.716641"><ele>62.28571428571429</ele><time>2026-05-02T09:03:15.121Z</time></trkpt><trkpt lat="45.4100199" lon="10.7166356"><ele>62.142857142857146</ele><time>2026-05-02T09:03:17.123Z</time></trkpt><trkpt lat="45.4100918" lon="10.7166228"><ele>62.0</ele><time>2026-05-02T09:03:19.12Z</time></trkpt><trkpt lat="45.4101661" lon="10.7166061"><ele>62.0</ele><time>2026-05-02T09:03:21.123Z</time></trkpt><trkpt lat="45.4102411" lon="10.7165929"><ele>62.00000000000001</ele><time>2026-05-02T09:03:23.122Z</time></trkpt><trkpt lat="45.4103176" lon="10.7165812"><ele>62.0</ele><time>2026-05-02T09:03:25.122Z</time></trkpt><trkpt lat="45.410394" lon="10.7165702"><ele>62.0</ele><time>2026-05-02T09:03:27.122Z</time></trkpt><trkpt lat="45.410465" lon="10.7165554"><ele>62.00000000000001</ele><time>2026-05-02T09:03:29.122Z</time></trkpt><trkpt lat="45.410541" lon="10.7165394"><ele>62.0</ele><time>2026-05-02T09:03:31.122Z</time></trkpt><trkpt lat="45.4106057" lon="10.7165264"><ele>62.0</ele><time>2026-05-02T09:03:33.121Z</time></trkpt><trkpt lat="45.4107005" lon="10.7165111"><ele>62.142857142857146</ele><time>2026-05-02T09:03:36.122Z</time></trkpt><trkpt lat="45.4107706" lon="10.7165019"><ele>62.28571428571429</ele><time>2026-05-02T09:03:38.121Z</time></trkpt><trkpt lat="45.4108401" lon="10.7164937"><ele>62.42857142857143</ele><time>2026-05-02T09:03:40.122Z</time></trkpt><trkpt lat="45.410913" lon="10.7164798"><ele>62.57142857142857</ele><time>2026-05-02T09:03:42.123Z</time></trkpt><trkpt lat="45.4109846" lon="10.7164685"><ele>62.714285714285715</ele><time>2026-05-02T09:03:44.123Z</time></trkpt><trkpt lat="45.4110627" lon="10.7164538"><ele>62.85714285714286</ele><time>2026-05-02T09:03:46.121Z</time></trkpt><trkpt lat="45.4111368" lon="10.7164391"><ele>63.0</ele><time>2026-05-02T09:03:48.122Z</time></trkpt><trkpt lat="45.4112052" lon="10.7164316"><ele>63.0</ele><time>2026-05-02T09:03:50.122Z</time></trkpt><trkpt lat="45.4112781" lon="10.7164191"><ele>63.0</ele><time>2026-05-02T09:03:52.121Z</time></trkpt><trkpt lat="45.41135" lon="10.7164057"><ele>63.0</ele><time>2026-05-02T09:03:54.121Z</time></trkpt><trkpt lat="45.4114185" lon="10.7163904"><ele>63.0</ele><time>2026-05-02T09:03:56.122Z</time></trkpt><trkpt lat="45.4114894" lon="10.7163787"><ele>63.0</ele><time>2026-05-02T09:03:58.121Z</time></trkpt><trkpt lat="45.4115643" lon="10.7163661"><ele>63.0</ele><time>2026-05-02T09:04:00.123Z</time></trkpt><trkpt lat="45.4116391" lon="10.7163544"><ele>63.0</ele><time>2026-05-02T09:04:02.122Z</time></trkpt><trkpt lat="45.4117233" lon="10.7163323"><ele>63.166666666666664</ele><time>2026-05-02T09:04:04.122Z</time></trkpt><trkpt lat="45.4118031" lon="10.7163211"><ele>63.33333333333333</ele><time>2026-05-02T09:04:06.121Z</time></trkpt><trkpt lat="45.4118787" lon="10.7163145"><ele>63.5</ele><time>2026-05-02T09:04:08.12Z</time></trkpt><trkpt lat="45.411954" lon="10.7163023"><ele>63.666666666666664</ele><time>2026-05-02T09:04:10.123Z</time></trkpt><trkpt lat="45.4120261" lon="10.7162845"><ele>63.83333333333333</ele><time>2026-05-02T09:04:12.121Z</time></trkpt><trkpt lat="45.4121011" lon="10.7162702"><ele>64.0</ele><time>2026-05-02T09:04:14.122Z</time></trkpt><trkpt lat="45.4121715" lon="10.7162557"><ele>64.0</ele><time>2026-05-02T09:04:16.122Z</time></trkpt><trkpt lat="45.4122427" lon="10.7162389"><ele>63.99999999999999</ele><time>2026-05-02T09:04:18.121Z</time></trkpt><trkpt lat="45.4123149" lon="10.7162176"><ele>64.0</ele><time>2026-05-02T09:04:20.12Z</time></trkpt><trkpt lat="45.4123889" lon="10.7162054"><ele>64.0</ele><time>2026-05-02T09:04:22.12Z</time></trkpt><trkpt lat="45.4124565" lon="10.7161959"><ele>63.99999999999999</ele><time>2026-05-02T09:04:24.122Z</time></trkpt><trkpt lat="45.4125247" lon="10.7161844"><ele>64.0</ele><time>2026-05-02T09:04:26.122Z</time></trkpt><trkpt lat="45.4125947" lon="10.7161745"><ele>64.0</ele><time>2026-05-02T09:04:28.121Z</time></trkpt><trkpt lat="45.4126704" lon="10.7161655"><ele>63.99999999999999</ele><time>2026-05-02T09:04:30.122Z</time></trkpt><trkpt lat="45.4127428" lon="10.7161583"><ele>64.0</ele><time>2026-05-02T09:04:32.122Z</time></trkpt><trkpt lat="45.4128201" lon="10.7161485"><ele>64.0</ele><time>2026-05-02T09:04:34.12Z</time></trkpt><trkpt lat="45.4128948" lon="10.7161348"><ele>64.0</ele><time>2026-05-02T09:04:36.122Z</time></trkpt><trkpt lat="45.4129676" lon="10.7161216"><ele>63.99999999999999</ele><time>2026-05-02T09:04:38.121Z</time></trkpt><trkpt lat="45.4130425" lon="10.71611"><ele>64.0</ele><time>2026-05-02T09:04:40.121Z</time></trkpt><trkpt lat="45.4131197" lon="10.7161007"><ele>64.0</ele><time>2026-05-02T09:04:42.122Z</time></trkpt><trkpt lat="45.4131923" lon="10.7160819"><ele>63.99999999999999</ele><time>2026-05-02T09:04:44.122Z</time></trkpt><trkpt lat="45.4132645" lon="10.7160677"><ele>64.0</ele><time>2026-05-02T09:04:46.122Z</time></trkpt><trkpt lat="45.4133373" lon="10.7160597"><ele>64.0</ele><time>2026-05-02T09:04:48.121Z</time></trkpt><trkpt lat="45.4134102" lon="10.7160482"><ele>63.99999999999999</ele><time>2026-05-02T09:04:50.121Z</time></trkpt><trkpt lat="45.4134853" lon="10.7160345"><ele>64.0</ele><time>2026-05-02T09:04:52.121Z</time></trkpt><trkpt lat="45.4135592" lon="10.7160213"><ele>64.0</ele><time>2026-05-02T09:04:54.122Z</time></trkpt><trkpt lat="45.4136343" lon="10.7160029"><ele>63.99999999999999</ele><time>2026-05-02T09:04:56.122Z</time></trkpt><trkpt lat="45.4137086" lon="10.7159885"><ele>64.0</ele><time>2026-05-02T09:04:58.121Z</time></trkpt><trkpt lat="45.4137841" lon="10.7159686"><ele>64.0</ele><time>2026-05-02T09:05:00.121Z</time></trkpt><trkpt lat="45.4138596" lon="10.7159496"><ele>64.0</ele><time>2026-05-02T09:05:02.122Z</time></trkpt><trkpt lat="45.4139357" lon="10.7159406"><ele>63.99999999999999</ele><time>2026-05-02T09:05:04.121Z</time></trkpt><trkpt lat="45.4140109" lon="10.7159297"><ele>64.0</ele><time>2026-05-02T09:05:06.121Z</time></trkpt><trkpt lat="45.4140848" lon="10.7159152"><ele>64.66666666666666</ele><time>2026-05-02T09:05:08.122Z</time></trkpt><trkpt lat="45.4141632" lon="10.7158924"><ele>65.33333333333333</ele><time>2026-05-02T09:05:10.121Z</time></trkpt><trkpt lat="45.4142441" lon="10.7158868"><ele>66.0</ele><time>2026-05-02T09:05:12.12Z</time></trkpt><trkpt lat="45.4143233" lon="10.7158806"><ele>66.66666666666667</ele><time>2026-05-02T09:05:14.121Z</time></trkpt><trkpt lat="45.414398" lon="10.7158675"><ele>67.33333333333334</ele><time>2026-05-02T09:05:16.122Z</time></trkpt><trkpt lat="45.4144744" lon="10.7158447"><ele>68.0</ele><time>2026-05-02T09:05:18.121Z</time></trkpt><trkpt lat="45.414548" lon="10.7158369"><ele>67.99999999999999</ele><time>2026-05-02T09:05:20.121Z</time></trkpt><trkpt lat="45.4146207" lon="10.7158264"><ele>68.0</ele><time>2026-05-02T09:05:22.122Z</time></trkpt><trkpt lat="45.4146937" lon="10.7158155"><ele>68.0</ele><time>2026-05-02T09:05:24.12Z</time></trkpt><trkpt lat="45.4147665" lon="10.7158023"><ele>68.0</ele><time>2026-05-02T09:05:26.122Z</time></trkpt><trkpt lat="45.414836" lon="10.7157837"><ele>68.0</ele><time>2026-05-02T09:05:28.12Z</time></trkpt><trkpt lat="45.414902" lon="10.7157744"><ele>67.99999999999999</ele><time>2026-05-02T09:05:30.121Z</time></trkpt><trkpt lat="45.4149697" lon="10.7157618"><ele>68.0</ele><time>2026-05-02T09:05:32.121Z</time></trkpt><trkpt lat="45.4150391" lon="10.7157483"><ele>68.14285714285714</ele><time>2026-05-02T09:05:34.121Z</time></trkpt><trkpt lat="45.4151093" lon="10.7157306"><ele>68.28571428571428</ele><time>2026-05-02T09:05:36.121Z</time></trkpt><trkpt lat="45.4151831" lon="10.7157157"><ele>68.42857142857143</ele><time>2026-05-02T09:05:38.122Z</time></trkpt><trkpt lat="45.4152513" lon="10.7157014"><ele>68.57142857142857</ele><time>2026-05-02T09:05:40.122Z</time></trkpt><trkpt lat="45.4153203" lon="10.7156965"><ele>68.71428571428572</ele><time>2026-05-02T09:05:42.121Z</time></trkpt><trkpt lat="45.4153943" lon="10.715682"><ele>68.85714285714286</ele><time>2026-05-02T09:05:44.121Z</time></trkpt><trkpt lat="45.4154679" lon="10.7156598"><ele>69.0</ele><time>2026-05-02T09:05:46.122Z</time></trkpt><trkpt lat="45.4155428" lon="10.715636"><ele>69.0</ele><time>2026-05-02T09:05:48.122Z</time></trkpt><trkpt lat="45.4156168" lon="10.7156133"><ele>69.0</ele><time>2026-05-02T09:05:50.121Z</time></trkpt><trkpt lat="45.4156871" lon="10.7155871"><ele>69.0</ele><time>2026-05-02T09:05:52.12Z</time></trkpt><trkpt lat="45.4157604" lon="10.7155537"><ele>69.0</ele><time>2026-05-02T09:05:54.121Z</time></trkpt><trkpt lat="45.4158302" lon="10.7155213"><ele>69.0</ele><time>2026-05-02T09:05:56.12Z</time></trkpt><trkpt lat="45.4158887" lon="10.7154873"><ele>69.0</ele><time>2026-05-02T09:05:58.122Z</time></trkpt><trkpt lat="45.4159472" lon="10.7154414"><ele>69.0</ele><time>2026-05-02T09:06:00.121Z</time></trkpt><trkpt lat="45.4160199" lon="10.7154064"><ele>69.0</ele><time>2026-05-02T09:06:02.121Z</time></trkpt><trkpt lat="45.4160843" lon="10.7153625"><ele>69.0</ele><time>2026-05-02T09:06:04.122Z</time></trkpt><trkpt lat="45.4161494" lon="10.715319"><ele>69.0</ele><time>2026-05-02T09:06:06.121Z</time></trkpt><trkpt lat="45.4162182" lon="10.7152782"><ele>69.0</ele><time>2026-05-02T09:06:08.121Z</time></trkpt><trkpt lat="45.4162839" lon="10.7152319"><ele>69.0</ele><time>2026-05-02T09:06:10.122Z</time></trkpt><trkpt lat="45.4163424" lon="10.7151783"><ele>69.0</ele><time>2026-05-02T09:06:12.121Z</time></trkpt><trkpt lat="45.4164124" lon="10.7151239"><ele>69.0</ele><time>2026-05-02T09:06:14.122Z</time></trkpt><trkpt lat="45.4164802" lon="10.7150755"><ele>68.71428571428572</ele><time>2026-05-02T09:06:16.122Z</time></trkpt><trkpt lat="45.4165458" lon="10.7150236"><ele>68.42857142857143</ele><time>2026-05-02T09:06:18.122Z</time></trkpt><trkpt lat="45.4166043" lon="10.7149754"><ele>68.14285714285714</ele><time>2026-05-02T09:06:20.12Z</time></trkpt><trkpt lat="45.4166653" lon="10.714926"><ele>67.85714285714286</ele><time>2026-05-02T09:06:22.121Z</time></trkpt><trkpt lat="45.416729" lon="10.7148722"><ele>67.57142857142857</ele><time>2026-05-02T09:06:24.12Z</time></trkpt><trkpt lat="45.4167895" lon="10.7148086"><ele>67.28571428571429</ele><time>2026-05-02T09:06:26.12Z</time></trkpt><trkpt lat="45.416852" lon="10.7147446"><ele>67.0</ele><time>2026-05-02T09:06:28.12Z</time></trkpt><trkpt lat="45.4169132" lon="10.7146796"><ele>67.0</ele><time>2026-05-02T09:06:30.12Z</time></trkpt><trkpt lat="45.4169746" lon="10.7146176"><ele>67.0</ele><time>2026-05-02T09:06:32.122Z</time></trkpt><trkpt lat="45.4170306" lon="10.71455"><ele>67.0</ele><time>2026-05-02T09:06:34.121Z</time></trkpt><trkpt lat="45.4170852" lon="10.7144815"><ele>67.0</ele><time>2026-05-02T09:06:36.121Z</time></trkpt><trkpt lat="45.4171394" lon="10.7144176"><ele>67.0</ele><time>2026-05-02T09:06:38.122Z</time></trkpt><trkpt lat="45.417194" lon="10.7143462"><ele>67.0</ele><time>2026-05-02T09:06:40.121Z</time></trkpt><trkpt lat="45.4172467" lon="10.7142778"><ele>67.0</ele><time>2026-05-02T09:06:42.12Z</time></trkpt><trkpt lat="45.417299" lon="10.7142126"><ele>67.16666666666666</ele><time>2026-05-02T09:06:44.12Z</time></trkpt><trkpt lat="45.4173487" lon="10.7141392"><ele>67.33333333333333</ele><time>2026-05-02T09:06:46.12Z</time></trkpt><trkpt lat="45.4173961" lon="10.714063"><ele>67.5</ele><time>2026-05-02T09:06:48.121Z</time></trkpt><trkpt lat="45.417442" lon="10.7139654"><ele>67.66666666666667</ele><time>2026-05-02T09:06:50.12Z</time></trkpt><trkpt lat="45.4174893" lon="10.7138878"><ele>67.83333333333334</ele><time>2026-05-02T09:06:52.121Z</time></trkpt><trkpt lat="45.4175431" lon="10.7138116"><ele>68.0</ele><time>2026-05-02T09:06:54.12Z</time></trkpt><trkpt lat="45.4175937" lon="10.7137306"><ele>67.99999999999999</ele><time>2026-05-02T09:06:56.12Z</time></trkpt><trkpt lat="45.4176406" lon="10.7136475"><ele>68.0</ele><time>2026-05-02T09:06:58.122Z</time></trkpt><trkpt lat="45.4176832" lon="10.7135596"><ele>68.0</ele><time>2026-05-02T09:07:00.121Z</time></trkpt><trkpt lat="45.4177209" lon="10.7134679"><ele>68.0</ele><time>2026-05-02T09:07:02.121Z</time></trkpt><trkpt lat="45.4177619" lon="10.7133779"><ele>68.0</ele><time>2026-05-02T09:07:04.121Z</time></trkpt><trkpt lat="45.417799" lon="10.7132894"><ele>67.99999999999999</ele><time>2026-05-02T09:07:06.03Z</time></trkpt><trkpt lat="45.4178395" lon="10.7131957"><ele>68.0</ele><time>2026-05-02T09:07:08.121Z</time></trkpt><trkpt lat="45.4178773" lon="10.7131132"><ele>68.33333333333334</ele><time>2026-05-02T09:07:10.12Z</time></trkpt><trkpt lat="45.4179093" lon="10.7130149"><ele>68.66666666666667</ele><time>2026-05-02T09:07:12.121Z</time></trkpt><trkpt lat="45.4179432" lon="10.7129279"><ele>69.0</ele><time>2026-05-02T09:07:14.121Z</time></trkpt><trkpt lat="45.4179714" lon="10.7128441"><ele>69.33333333333333</ele><time>2026-05-02T09:07:16.121Z</time></trkpt><trkpt lat="45.4180073" lon="10.7127328"><ele>69.66666666666666</ele><time>2026-05-02T09:07:19.121Z</time></trkpt><trkpt lat="45.4180399" lon="10.7126255"><ele>70.0</ele><time>2026-05-02T09:07:22.12Z</time></trkpt><trkpt lat="45.4180746" lon="10.7125032"><ele>70.42857142857143</ele><time>2026-05-02T09:07:25.12Z</time></trkpt><trkpt lat="45.4180932" lon="10.7124145"><ele>70.85714285714286</ele><time>2026-05-02T09:07:27.12Z</time></trkpt><trkpt lat="45.4181238" lon="10.7122862"><ele>71.28571428571428</ele><time>2026-05-02T09:07:30.121Z</time></trkpt><trkpt lat="45.418148" lon="10.7121937"><ele>71.71428571428572</ele><time>2026-05-02T09:07:32.121Z</time></trkpt><trkpt lat="45.4181689" lon="10.7120966"><ele>72.14285714285714</ele><time>2026-05-02T09:07:34.122Z</time></trkpt><trkpt lat="45.418188" lon="10.7119972"><ele>72.57142857142857</ele><time>2026-05-02T09:07:36.12Z</time></trkpt><trkpt lat="45.4182091" lon="10.7119004"><ele>73.0</ele><time>2026-05-02T09:07:38.121Z</time></trkpt><trkpt lat="45.4182239" lon="10.7118003"><ele>73.0</ele><time>2026-05-02T09:07:40.12Z</time></trkpt><trkpt lat="45.4182358" lon="10.7117018"><ele>73.0</ele><time>2026-05-02T09:07:42.121Z</time></trkpt><trkpt lat="45.4182518" lon="10.7116023"><ele>73.0</ele><time>2026-05-02T09:07:44.12Z</time></trkpt><trkpt lat="45.4182729" lon="10.7115009"><ele>73.0</ele><time>2026-05-02T09:07:46.121Z</time></trkpt><trkpt lat="45.4182932" lon="10.7114003"><ele>73.0</ele><time>2026-05-02T09:07:48.121Z</time></trkpt><trkpt lat="45.4183106" lon="10.7113019"><ele>73.0</ele><time>2026-05-02T09:07:50.122Z</time></trkpt><trkpt lat="45.4183283" lon="10.7112116"><ele>73.0</ele><time>2026-05-02T09:07:52.122Z</time></trkpt><trkpt lat="45.4183456" lon="10.711125"><ele>73.71428571428571</ele><time>2026-05-02T09:07:54.121Z</time></trkpt><trkpt lat="45.4183642" lon="10.7110317"><ele>74.42857142857143</ele><time>2026-05-02T09:07:56.121Z</time></trkpt><trkpt lat="45.4183824" lon="10.7109397"><ele>75.14285714285714</ele><time>2026-05-02T09:07:58.121Z</time></trkpt><trkpt lat="45.4184008" lon="10.7108443"><ele>75.85714285714286</ele><time>2026-05-02T09:08:00.121Z</time></trkpt><trkpt lat="45.4184207" lon="10.7107504"><ele>76.57142857142857</ele><time>2026-05-02T09:08:02.119Z</time></trkpt><trkpt lat="45.4184376" lon="10.7106538"><ele>77.28571428571429</ele><time>2026-05-02T09:08:04.121Z</time></trkpt><trkpt lat="45.4184564" lon="10.7105544"><ele>78.0</ele><time>2026-05-02T09:08:06.122Z</time></trkpt><trkpt lat="45.4184789" lon="10.7104611"><ele>78.0</ele><time>2026-05-02T09:08:08.121Z</time></trkpt><trkpt lat="45.4185024" lon="10.7103683"><ele>78.0</ele><time>2026-05-02T09:08:10.121Z</time></trkpt><trkpt lat="45.4185229" lon="10.7102719"><ele>78.0</ele><time>2026-05-02T09:08:12.121Z</time></trkpt><trkpt lat="45.4185406" lon="10.7101714"><ele>78.0</ele><time>2026-05-02T09:08:14.12Z</time></trkpt><trkpt lat="45.4185572" lon="10.7100665"><ele>78.0</ele><time>2026-05-02T09:08:16.121Z</time></trkpt><trkpt lat="45.4185761" lon="10.7099667"><ele>78.0</ele><time>2026-05-02T09:08:18.119Z</time></trkpt><trkpt lat="45.4185944" lon="10.7098696"><ele>78.0</ele><time>2026-05-02T09:08:20.121Z</time></trkpt><trkpt lat="45.4186098" lon="10.7097721"><ele>78.42857142857143</ele><time>2026-05-02T09:08:22.122Z</time></trkpt><trkpt lat="45.4186311" lon="10.7096736"><ele>78.85714285714285</ele><time>2026-05-02T09:08:24.12Z</time></trkpt><trkpt lat="45.4186504" lon="10.7095763"><ele>79.28571428571428</ele><time>2026-05-02T09:08:26.121Z</time></trkpt><trkpt lat="45.4186663" lon="10.7094814"><ele>79.71428571428572</ele><time>2026-05-02T09:08:28.12Z</time></trkpt><trkpt lat="45.4186821" lon="10.7093802"><ele>80.14285714285714</ele><time>2026-05-02T09:08:30.12Z</time></trkpt><trkpt lat="45.4186991" lon="10.7092825"><ele>80.57142857142857</ele><time>2026-05-02T09:08:32.12Z</time></trkpt><trkpt lat="45.4187185" lon="10.7091874"><ele>81.0</ele><time>2026-05-02T09:08:34.12Z</time></trkpt><trkpt lat="45.4187333" lon="10.7090901"><ele>81.14285714285714</ele><time>2026-05-02T09:08:36.119Z</time></trkpt><trkpt lat="45.4187515" lon="10.7089901"><ele>81.28571428571428</ele><time>2026-05-02T09:08:38.121Z</time></trkpt><trkpt lat="45.4187683" lon="10.7088826"><ele>81.42857142857142</ele><time>2026-05-02T09:08:40.121Z</time></trkpt><trkpt lat="45.4187846" lon="10.7087737"><ele>81.57142857142857</ele><time>2026-05-02T09:08:42.121Z</time></trkpt><trkpt lat="45.4188026" lon="10.7086745"><ele>81.71428571428571</ele><time>2026-05-02T09:08:44.121Z</time></trkpt><trkpt lat="45.4188217" lon="10.7085816"><ele>81.85714285714285</ele><time>2026-05-02T09:08:46.121Z</time></trkpt><trkpt lat="45.4188393" lon="10.7084855"><ele>82.0</ele><time>2026-05-02T09:08:48.121Z</time></trkpt><trkpt lat="45.4188558" lon="10.7083909"><ele>80.42857142857142</ele><time>2026-05-02T09:08:50.12Z</time></trkpt><trkpt lat="45.4188794" lon="10.7082975"><ele>78.85714285714286</ele><time>2026-05-02T09:08:52.12Z</time></trkpt><trkpt lat="45.4188981" lon="10.7081966"><ele>77.28571428571428</ele><time>2026-05-02T09:08:54.121Z</time></trkpt><trkpt lat="45.4189174" lon="10.7080992"><ele>75.71428571428571</ele><time>2026-05-02T09:08:56.12Z</time></trkpt><trkpt lat="45.4189388" lon="10.7080034"><ele>74.14285714285714</ele><time>2026-05-02T09:08:58.12Z</time></trkpt><trkpt lat="45.418959" lon="10.7079087"><ele>72.57142857142857</ele><time>2026-05-02T09:09:00.12Z</time></trkpt><trkpt lat="45.4189672" lon="10.7078156"><ele>71.0</ele><time>2026-05-02T09:09:02.12Z</time></trkpt><trkpt lat="45.4189861" lon="10.7077248"><ele>71.0</ele><time>2026-05-02T09:09:04.12Z</time></trkpt><trkpt lat="45.4190035" lon="10.7076314"><ele>71.0</ele><time>2026-05-02T09:09:06.12Z</time></trkpt><trkpt lat="45.4190272" lon="10.7075325"><ele>71.0</ele><time>2026-05-02T09:09:08.121Z</time></trkpt><trkpt lat="45.4190493" lon="10.7074348"><ele>71.0</ele><time>2026-05-02T09:09:10.121Z</time></trkpt><trkpt lat="45.4190712" lon="10.7073362"><ele>71.0</ele><time>2026-05-02T09:09:12.121Z</time></trkpt><trkpt lat="45.4190927" lon="10.7072361"><ele>71.0</ele><time>2026-05-02T09:09:14.121Z</time></trkpt><trkpt lat="45.419108" lon="10.7071355"><ele>71.0</ele><time>2026-05-02T09:09:16.121Z</time></trkpt><trkpt lat="45.4191213" lon="10.7070413"><ele>70.71428571428571</ele><time>2026-05-02T09:09:18.12Z</time></trkpt><trkpt lat="45.4191392" lon="10.7069109"><ele>70.42857142857142</ele><time>2026-05-02T09:09:21.12Z</time></trkpt><trkpt lat="45.4191595" lon="10.7067839"><ele>70.14285714285714</ele><time>2026-05-02T09:09:24.12Z</time></trkpt><trkpt lat="45.4191767" lon="10.7066967"><ele>69.85714285714286</ele><time>2026-05-02T09:09:26.12Z</time></trkpt><trkpt lat="45.4191914" lon="10.7066062"><ele>69.57142857142858</ele><time>2026-05-02T09:09:28.12Z</time></trkpt><trkpt lat="45.4192074" lon="10.706514"><ele>69.28571428571429</ele><time>2026-05-02T09:09:30.12Z</time></trkpt><trkpt lat="45.4192224" lon="10.7064197"><ele>69.0</ele><time>2026-05-02T09:09:32.121Z</time></trkpt><trkpt lat="45.4192389" lon="10.7063214"><ele>69.0</ele><time>2026-05-02T09:09:34.12Z</time></trkpt><trkpt lat="45.4192564" lon="10.706223"><ele>69.0</ele><time>2026-05-02T09:09:36.12Z</time></trkpt><trkpt lat="45.419275" lon="10.7061273"><ele>69.0</ele><time>2026-05-02T09:09:38.12Z</time></trkpt><trkpt lat="45.4192976" lon="10.7060287"><ele>69.0</ele><time>2026-05-02T09:09:40.121Z</time></trkpt><trkpt lat="45.4193173" lon="10.7059343"><ele>69.0</ele><time>2026-05-02T09:09:42.12Z</time></trkpt><trkpt lat="45.4193367" lon="10.7058372"><ele>69.0</ele><time>2026-05-02T09:09:44.12Z</time></trkpt><trkpt lat="45.4193563" lon="10.7057414"><ele>69.0</ele><time>2026-05-02T09:09:46.12Z</time></trkpt><trkpt lat="45.4193756" lon="10.7056493"><ele>69.0</ele><time>2026-05-02T09:09:48.12Z</time></trkpt><trkpt lat="45.419402" lon="10.7055606"><ele>69.0</ele><time>2026-05-02T09:09:50.12Z</time></trkpt><trkpt lat="45.419425" lon="10.7054667"><ele>69.0</ele><time>2026-05-02T09:09:52.119Z</time></trkpt><trkpt lat="45.4194467" lon="10.7053714"><ele>69.0</ele><time>2026-05-02T09:09:54.121Z</time></trkpt><trkpt lat="45.419472" lon="10.7052845"><ele>69.0</ele><time>2026-05-02T09:09:56.121Z</time></trkpt><trkpt lat="45.4195034" lon="10.7051595"><ele>69.0</ele><time>2026-05-02T09:09:59.121Z</time></trkpt><trkpt lat="45.4195258" lon="10.7050753"><ele>69.0</ele><time>2026-05-02T09:10:01.12Z</time></trkpt><trkpt lat="45.4195565" lon="10.7049598"><ele>68.83333333333333</ele><time>2026-05-02T09:10:04.119Z</time></trkpt><trkpt lat="45.4195884" lon="10.7048504"><ele>68.66666666666667</ele><time>2026-05-02T09:10:07.12Z</time></trkpt><trkpt lat="45.4196231" lon="10.7047489"><ele>68.5</ele><time>2026-05-02T09:10:10.119Z</time></trkpt><trkpt lat="45.4196647" lon="10.7046422"><ele>68.33333333333334</ele><time>2026-05-02T09:10:13.121Z</time></trkpt><trkpt lat="45.4197043" lon="10.7045269"><ele>68.16666666666667</ele><time>2026-05-02T09:10:16.121Z</time></trkpt><trkpt lat="45.4197309" lon="10.704442"><ele>68.0</ele><time>2026-05-02T09:10:18.119Z</time></trkpt><trkpt lat="45.4197589" lon="10.7043526"><ele>67.85714285714285</ele><time>2026-05-02T09:10:20.12Z</time></trkpt><trkpt lat="45.4197887" lon="10.7042615"><ele>67.71428571428571</ele><time>2026-05-02T09:10:22.12Z</time></trkpt><trkpt lat="45.4198234" lon="10.7041727"><ele>67.57142857142857</ele><time>2026-05-02T09:10:24.119Z</time></trkpt><trkpt lat="45.4198569" lon="10.7040913"><ele>67.42857142857142</ele><time>2026-05-02T09:10:26.12Z</time></trkpt><trkpt lat="45.4198878" lon="10.7040088"><ele>67.28571428571428</ele><time>2026-05-02T09:10:28.121Z</time></trkpt><trkpt lat="45.419925" lon="10.7039243"><ele>67.14285714285714</ele><time>2026-05-02T09:10:30.12Z</time></trkpt><trkpt lat="45.4199575" lon="10.7038321"><ele>67.0</ele><time>2026-05-02T09:10:32.121Z</time></trkpt><trkpt lat="45.4199976" lon="10.7037413"><ele>67.0</ele><time>2026-05-02T09:10:34.121Z</time></trkpt><trkpt lat="45.4200372" lon="10.7036509"><ele>67.0</ele><time>2026-05-02T09:10:36.12Z</time></trkpt><trkpt lat="45.4200825" lon="10.7035617"><ele>67.0</ele><time>2026-05-02T09:10:38.12Z</time></trkpt><trkpt lat="45.4201308" lon="10.7034697"><ele>67.0</ele><time>2026-05-02T09:10:40.12Z</time></trkpt><trkpt lat="45.4201758" lon="10.7033737"><ele>67.0</ele><time>2026-05-02T09:10:42.119Z</time></trkpt><trkpt lat="45.4202243" lon="10.7032834"><ele>67.0</ele><time>2026-05-02T09:10:44.12Z</time></trkpt><trkpt lat="45.4202774" lon="10.7031894"><ele>67.16666666666666</ele><time>2026-05-02T09:10:46.119Z</time></trkpt><trkpt lat="45.420336" lon="10.7030989"><ele>67.33333333333333</ele><time>2026-05-02T09:10:48.119Z</time></trkpt><trkpt lat="45.4203862" lon="10.703005"><ele>67.5</ele><time>2026-05-02T09:10:50.12Z</time></trkpt><trkpt lat="45.4204367" lon="10.7029124"><ele>67.66666666666667</ele><time>2026-05-02T09:10:52.12Z</time></trkpt><trkpt lat="45.4204903" lon="10.7028202"><ele>67.83333333333334</ele><time>2026-05-02T09:10:54.121Z</time></trkpt><trkpt lat="45.4205413" lon="10.7027345"><ele>68.0</ele><time>2026-05-02T09:10:56.121Z</time></trkpt><trkpt lat="45.4205872" lon="10.7026511"><ele>67.42857142857142</ele><time>2026-05-02T09:10:58.12Z</time></trkpt><trkpt lat="45.4206326" lon="10.702576"><ele>66.85714285714286</ele><time>2026-05-02T09:11:00.118Z</time></trkpt><trkpt lat="45.4206796" lon="10.7025081"><ele>66.28571428571428</ele><time>2026-05-02T09:11:02.12Z</time></trkpt><trkpt lat="45.4207293" lon="10.70244"><ele>65.71428571428571</ele><time>2026-05-02T09:11:04.118Z</time></trkpt><trkpt lat="45.4207767" lon="10.7023695"><ele>65.14285714285714</ele><time>2026-05-02T09:11:06.119Z</time></trkpt><trkpt lat="45.4208174" lon="10.7022967"><ele>64.57142857142857</ele><time>2026-05-02T09:11:08.12Z</time></trkpt><trkpt lat="45.4208703" lon="10.7022333"><ele>64.0</ele><time>2026-05-02T09:11:10.12Z</time></trkpt><trkpt lat="45.4209224" lon="10.702166"><ele>63.99999999999999</ele><time>2026-05-02T09:11:12.121Z</time></trkpt><trkpt lat="45.4209774" lon="10.7020948"><ele>64.0</ele><time>2026-05-02T09:11:14.12Z</time></trkpt><trkpt lat="45.4210284" lon="10.7020239"><ele>64.0</ele><time>2026-05-02T09:11:16.12Z</time></trkpt><trkpt lat="45.421079" lon="10.7019614"><ele>64.0</ele><time>2026-05-02T09:11:18.121Z</time></trkpt><trkpt lat="45.4211268" lon="10.7018997"><ele>63.99999999999999</ele><time>2026-05-02T09:11:20.118Z</time></trkpt><trkpt lat="45.4212205" lon="10.7017898"><ele>64.0</ele><time>2026-05-02T09:11:24.12Z</time></trkpt><trkpt lat="45.4212864" lon="10.7017116"><ele>64.0</ele><time>2026-05-02T09:11:27.119Z</time></trkpt><trkpt lat="45.4213526" lon="10.7016332"><ele>64.0</ele><time>2026-05-02T09:11:30.12Z</time></trkpt><trkpt lat="45.4214267" lon="10.7015565"><ele>64.0</ele><time>2026-05-02T09:11:33.118Z</time></trkpt><trkpt lat="45.4215043" lon="10.7014785"><ele>64.0</ele><time>2026-05-02T09:11:36.12Z</time></trkpt><trkpt lat="45.4215791" lon="10.7013993"><ele>64.0</ele><time>2026-05-02T09:11:39.12Z</time></trkpt><trkpt lat="45.4216543" lon="10.7013253"><ele>64.0</ele><time>2026-05-02T09:11:42.121Z</time></trkpt><trkpt lat="45.4217066" lon="10.7012749"><ele>63.99999999999999</ele><time>2026-05-02T09:11:44.12Z</time></trkpt><trkpt lat="45.4217868" lon="10.7012045"><ele>64.0</ele><time>2026-05-02T09:11:47.12Z</time></trkpt><trkpt lat="45.4218446" lon="10.7011567"><ele>64.0</ele><time>2026-05-02T09:11:49.118Z</time></trkpt><trkpt lat="45.4219014" lon="10.701101"><ele>63.99999999999999</ele><time>2026-05-02T09:11:51.12Z</time></trkpt><trkpt lat="45.4219591" lon="10.7010444"><ele>64.0</ele><time>2026-05-02T09:11:53.118Z</time></trkpt><trkpt lat="45.4220237" lon="10.7010012"><ele>64.0</ele><time>2026-05-02T09:11:55.119Z</time></trkpt><trkpt lat="45.4220888" lon="10.7009587"><ele>64.83333333333333</ele><time>2026-05-02T09:11:57.119Z</time></trkpt><trkpt lat="45.4221538" lon="10.7009173"><ele>65.66666666666666</ele><time>2026-05-02T09:11:59.12Z</time></trkpt><trkpt lat="45.4222333" lon="10.700851"><ele>66.5</ele><time>2026-05-02T09:12:02.119Z</time></trkpt><trkpt lat="45.4223119" lon="10.7007907"><ele>67.33333333333333</ele><time>2026-05-02T09:12:05.12Z</time></trkpt><trkpt lat="45.4223898" lon="10.7007544"><ele>68.16666666666667</ele><time>2026-05-02T09:12:07.119Z</time></trkpt><trkpt lat="45.4224694" lon="10.7006949"><ele>69.0</ele><time>2026-05-02T09:12:09.12Z</time></trkpt><trkpt lat="45.4225534" lon="10.7006567"><ele>69.0</ele><time>2026-05-02T09:12:11.121Z</time></trkpt><trkpt lat="45.4226209" lon="10.7006094"><ele>69.0</ele><time>2026-05-02T09:12:19.119Z</time></trkpt><trkpt lat="45.4227048" lon="10.7005659"><ele>69.0</ele><time>2026-05-02T09:12:22.119Z</time></trkpt><trkpt lat="45.4227864" lon="10.7005125"><ele>69.0</ele><time>2026-05-02T09:12:25.12Z</time></trkpt><trkpt lat="45.422848" lon="10.7004749"><ele>69.0</ele><time>2026-05-02T09:12:27.119Z</time></trkpt><trkpt lat="45.4229085" lon="10.7004357"><ele>69.0</ele><time>2026-05-02T09:12:29.121Z</time></trkpt><trkpt lat="45.4229697" lon="10.7004044"><ele>68.28571428571429</ele><time>2026-05-02T09:12:31.118Z</time></trkpt><trkpt lat="45.4230305" lon="10.7003727"><ele>67.57142857142858</ele><time>2026-05-02T09:12:33.12Z</time></trkpt><trkpt lat="45.4230961" lon="10.7003375"><ele>66.85714285714286</ele><time>2026-05-02T09:12:35.121Z</time></trkpt><trkpt lat="45.4231572" lon="10.7003087"><ele>66.14285714285714</ele><time>2026-05-02T09:12:37.119Z</time></trkpt><trkpt lat="45.4232429" lon="10.7002735"><ele>65.42857142857142</ele><time>2026-05-02T09:12:40.12Z</time></trkpt><trkpt lat="45.4233195" lon="10.700237"><ele>64.71428571428571</ele><time>2026-05-02T09:12:43.12Z</time></trkpt><trkpt lat="45.4233891" lon="10.7002164"><ele>64.0</ele><time>2026-05-02T09:12:46.119Z</time></trkpt><trkpt lat="45.4234504" lon="10.7001936"><ele>64.0</ele><time>2026-05-02T09:12:49.12Z</time></trkpt><trkpt lat="45.42352" lon="10.7001738"><ele>63.99999999999999</ele><time>2026-05-02T09:12:53.12Z</time></trkpt><trkpt lat="45.4235943" lon="10.7001506"><ele>64.0</ele><time>2026-05-02T09:12:57.12Z</time></trkpt><trkpt lat="45.4236715" lon="10.7001206"><ele>64.0</ele><time>2026-05-02T09:13:00.118Z</time></trkpt><trkpt lat="45.4237339" lon="10.7001004"><ele>63.99999999999999</ele><time>2026-05-02T09:13:02.119Z</time></trkpt><trkpt lat="45.4237975" lon="10.7000832"><ele>64.0</ele><time>2026-05-02T09:13:04.12Z</time></trkpt><trkpt lat="45.4238616" lon="10.7000632"><ele>64.0</ele><time>2026-05-02T09:13:06.12Z</time></trkpt><trkpt lat="45.4239299" lon="10.7000494"><ele>63.57142857142857</ele><time>2026-05-02T09:13:08.119Z</time></trkpt><trkpt lat="45.424" lon="10.7000341"><ele>63.14285714285714</ele><time>2026-05-02T09:13:10.119Z</time></trkpt><trkpt lat="45.4240626" lon="10.7000148"><ele>62.71428571428571</ele><time>2026-05-02T09:13:12.119Z</time></trkpt><trkpt lat="45.4241571" lon="10.699991"><ele>62.28571428571428</ele><time>2026-05-02T09:13:15.119Z</time></trkpt><trkpt lat="45.4242229" lon="10.6999791"><ele>61.857142857142854</ele><time>2026-05-02T09:13:17.12Z</time></trkpt><trkpt lat="45.4242914" lon="10.699966"><ele>61.428571428571416</ele><time>2026-05-02T09:13:19.118Z</time></trkpt><trkpt lat="45.4243549" lon="10.699956"><ele>60.99999999999999</ele><time>2026-05-02T09:13:21.12Z</time></trkpt><trkpt lat="45.4244808" lon="10.6999502"><ele>60.99999999999999</ele><time>2026-05-02T09:13:25.119Z</time></trkpt><trkpt lat="45.4245711" lon="10.6999308"><ele>61.0</ele><time>2026-05-02T09:13:28.12Z</time></trkpt><trkpt lat="45.4246597" lon="10.6999368"><ele>61.0</ele><time>2026-05-02T09:13:31.119Z</time></trkpt><trkpt lat="45.4247504" lon="10.699931"><ele>61.0</ele><time>2026-05-02T09:13:34.119Z</time></trkpt><trkpt lat="45.4248425" lon="10.6999301"><ele>60.99999999999999</ele><time>2026-05-02T09:13:37.12Z</time></trkpt><trkpt lat="45.4249091" lon="10.6999221"><ele>61.0</ele><time>2026-05-02T09:13:39.119Z</time></trkpt><trkpt lat="45.4249775" lon="10.6999306"><ele>61.71428571428571</ele><time>2026-05-02T09:13:41.12Z</time></trkpt><trkpt lat="45.4250415" lon="10.6999295"><ele>62.42857142857143</ele><time>2026-05-02T09:13:43.119Z</time></trkpt><trkpt lat="45.4251262" lon="10.6999432"><ele>63.14285714285714</ele><time>2026-05-02T09:13:46.118Z</time></trkpt><trkpt lat="45.4251926" lon="10.699948"><ele>63.857142857142854</ele><time>2026-05-02T09:13:48.119Z</time></trkpt><trkpt lat="45.4252612" lon="10.6999534"><ele>64.57142857142857</ele><time>2026-05-02T09:13:50.119Z</time></trkpt><trkpt lat="45.4253262" lon="10.6999642"><ele>65.28571428571428</ele><time>2026-05-02T09:13:52.12Z</time></trkpt><trkpt lat="45.4253937" lon="10.6999709"><ele>66.0</ele><time>2026-05-02T09:13:54.119Z</time></trkpt><trkpt lat="45.4254591" lon="10.6999737"><ele>66.0</ele><time>2026-05-02T09:13:56.118Z</time></trkpt><trkpt lat="45.4255239" lon="10.699987"><ele>66.0</ele><time>2026-05-02T09:13:58.118Z</time></trkpt><trkpt lat="45.4255917" lon="10.699995"><ele>66.0</ele><time>2026-05-02T09:14:00.119Z</time></trkpt><trkpt lat="45.4256855" lon="10.700008"><ele>66.0</ele><time>2026-05-02T09:14:03.119Z</time></trkpt><trkpt lat="45.425777" lon="10.7000161"><ele>66.0</ele><time>2026-05-02T09:14:06.119Z</time></trkpt><trkpt lat="45.4258698" lon="10.700025"><ele>66.0</ele><time>2026-05-02T09:14:09.119Z</time></trkpt><trkpt lat="45.4259614" lon="10.7000272"><ele>66.0</ele><time>2026-05-02T09:14:12.12Z</time></trkpt><trkpt lat="45.4260257" lon="10.7000338"><ele>66.0</ele><time>2026-05-02T09:14:14.119Z</time></trkpt><trkpt lat="45.4260915" lon="10.7000463"><ele>66.0</ele><time>2026-05-02T09:14:16.12Z</time></trkpt><trkpt lat="45.426156" lon="10.7000576"><ele>66.0</ele><time>2026-05-02T09:14:18.12Z</time></trkpt><trkpt lat="45.42624" lon="10.7000677"><ele>66.0</ele><time>2026-05-02T09:14:21.119Z</time></trkpt><trkpt lat="45.4263227" lon="10.7000717"><ele>66.0</ele><time>2026-05-02T09:14:24.118Z</time></trkpt><trkpt lat="45.4264079" lon="10.7000808"><ele>66.0</ele><time>2026-05-02T09:14:27.12Z</time></trkpt><trkpt lat="45.4265024" lon="10.7000845"><ele>66.0</ele><time>2026-05-02T09:14:30.119Z</time></trkpt><trkpt lat="45.4265672" lon="10.7000877"><ele>66.0</ele><time>2026-05-02T09:14:32.119Z</time></trkpt><trkpt lat="45.4266296" lon="10.7001008"><ele>66.0</ele><time>2026-05-02T09:14:34.12Z</time></trkpt><trkpt lat="45.4267226" lon="10.7001123"><ele>66.0</ele><time>2026-05-02T09:14:37.118Z</time></trkpt><trkpt lat="45.4268062" lon="10.7001231"><ele>66.0</ele><time>2026-05-02T09:14:40.12Z</time></trkpt><trkpt lat="45.4268837" lon="10.7001318"><ele>66.0</ele><time>2026-05-02T09:14:43.118Z</time></trkpt><trkpt lat="45.4269734" lon="10.7001475"><ele>66.0</ele><time>2026-05-02T09:14:46.119Z</time></trkpt><trkpt lat="45.4270379" lon="10.7001564"><ele>66.0</ele><time>2026-05-02T09:14:48.119Z</time></trkpt><trkpt lat="45.4271047" lon="10.7001649"><ele>66.0</ele><time>2026-05-02T09:14:50.118Z</time></trkpt><trkpt lat="45.42717" lon="10.7001698"><ele>66.0</ele><time>2026-05-02T09:14:52.118Z</time></trkpt><trkpt lat="45.4272356" lon="10.7001729"><ele>66.0</ele><time>2026-05-02T09:14:54.118Z</time></trkpt><trkpt lat="45.4273288" lon="10.7001797"><ele>66.0</ele><time>2026-05-02T09:14:57.118Z</time></trkpt><trkpt lat="45.4273928" lon="10.7001831"><ele>66.0</ele><time>2026-05-02T09:14:59.119Z</time></trkpt><trkpt lat="45.4274835" lon="10.7001841"><ele>66.33333333333333</ele><time>2026-05-02T09:15:02.118Z</time></trkpt><trkpt lat="45.4275789" lon="10.7001978"><ele>66.66666666666667</ele><time>2026-05-02T09:15:05.119Z</time></trkpt><trkpt lat="45.4276794" lon="10.7002134"><ele>67.0</ele><time>2026-05-02T09:15:08.119Z</time></trkpt><trkpt lat="45.4277466" lon="10.7002216"><ele>67.33333333333334</ele><time>2026-05-02T09:15:10.119Z</time></trkpt><trkpt lat="45.427811" lon="10.7002269"><ele>67.66666666666667</ele><time>2026-05-02T09:15:12.118Z</time></trkpt><trkpt lat="45.4278751" lon="10.7002394"><ele>68.0</ele><time>2026-05-02T09:15:14.119Z</time></trkpt><trkpt lat="45.4279383" lon="10.7002453"><ele>67.5</ele><time>2026-05-02T09:15:16.119Z</time></trkpt><trkpt lat="45.4280013" lon="10.7002486"><ele>67.0</ele><time>2026-05-02T09:15:18.119Z</time></trkpt><trkpt lat="45.4280904" lon="10.7002497"><ele>66.5</ele><time>2026-05-02T09:15:21.118Z</time></trkpt><trkpt lat="45.4281797" lon="10.7002579"><ele>66.0</ele><time>2026-05-02T09:15:24.12Z</time></trkpt><trkpt lat="45.4282429" lon="10.7002607"><ele>65.5</ele><time>2026-05-02T09:15:26.118Z</time></trkpt><trkpt lat="45.4283353" lon="10.700275"><ele>65.0</ele><time>2026-05-02T09:15:29.12Z</time></trkpt><trkpt lat="45.4284024" lon="10.7002869"><ele>65.00000000000001</ele><time>2026-05-02T09:15:31.118Z</time></trkpt><trkpt lat="45.4284689" lon="10.7002976"><ele>65.0</ele><time>2026-05-02T09:15:33.118Z</time></trkpt><trkpt lat="45.4285351" lon="10.700305"><ele>65.0</ele><time>2026-05-02T09:15:35.12Z</time></trkpt><trkpt lat="45.4286019" lon="10.7002951"><ele>65.0</ele><time>2026-05-02T09:15:37.12Z</time></trkpt><trkpt lat="45.4286663" lon="10.7002676"><ele>65.0</ele><time>2026-05-02T09:15:39.119Z</time></trkpt><trkpt lat="45.4287286" lon="10.7002354"><ele>65.00000000000001</ele><time>2026-05-02T09:15:41.119Z</time></trkpt><trkpt lat="45.428817" lon="10.7002272"><ele>65.0</ele><time>2026-05-02T09:15:44.117Z</time></trkpt><trkpt lat="45.4289103" lon="10.700207"><ele>65.42857142857143</ele><time>2026-05-02T09:15:47.118Z</time></trkpt><trkpt lat="45.4289763" lon="10.7002082"><ele>65.85714285714286</ele><time>2026-05-02T09:15:49.118Z</time></trkpt><trkpt lat="45.4290569" lon="10.7002275"><ele>66.28571428571428</ele><time>2026-05-02T09:15:52.118Z</time></trkpt><trkpt lat="45.4291276" lon="10.7002793"><ele>66.71428571428572</ele><time>2026-05-02T09:15:55.119Z</time></trkpt><trkpt lat="45.4292177" lon="10.7002609"><ele>67.14285714285714</ele><time>2026-05-02T09:15:58.118Z</time></trkpt><trkpt lat="45.42928" lon="10.7002322"><ele>67.57142857142857</ele><time>2026-05-02T09:16:01.12Z</time></trkpt><trkpt lat="45.4293428" lon="10.7002213"><ele>68.0</ele><time>2026-05-02T09:16:03.119Z</time></trkpt><trkpt lat="45.4294251" lon="10.7002464"><ele>66.66666666666667</ele><time>2026-05-02T09:16:05.12Z</time></trkpt><trkpt lat="45.4295017" lon="10.7002631"><ele>65.33333333333334</ele><time>2026-05-02T09:16:07.119Z</time></trkpt><trkpt lat="45.4295683" lon="10.7002691"><ele>64.0</ele><time>2026-05-02T09:16:09.119Z</time></trkpt><trkpt lat="45.4296539" lon="10.7002581"><ele>62.66666666666667</ele><time>2026-05-02T09:16:12.118Z</time></trkpt><trkpt lat="45.4297219" lon="10.7002642"><ele>61.333333333333336</ele><time>2026-05-02T09:16:14.119Z</time></trkpt><trkpt lat="45.4297963" lon="10.7002777"><ele>60.0</ele><time>2026-05-02T09:16:16.118Z</time></trkpt><trkpt lat="45.4298725" lon="10.7002805"><ele>60.0</ele><time>2026-05-02T09:16:18.118Z</time></trkpt><trkpt lat="45.4299379" lon="10.7002839"><ele>60.0</ele><time>2026-05-02T09:16:20.119Z</time></trkpt><trkpt lat="45.4300349" lon="10.7002862"><ele>60.0</ele><time>2026-05-02T09:16:23.119Z</time></trkpt><trkpt lat="45.4301036" lon="10.700292"><ele>60.0</ele><time>2026-05-02T09:16:25.118Z</time></trkpt><trkpt lat="45.4301701" lon="10.7002942"><ele>60.0</ele><time>2026-05-02T09:16:27.119Z</time></trkpt><trkpt lat="45.4302407" lon="10.7002856"><ele>60.0</ele><time>2026-05-02T09:16:29.118Z</time></trkpt><trkpt lat="45.4303153" lon="10.7002814"><ele>60.0</ele><time>2026-05-02T09:16:31.117Z</time></trkpt><trkpt lat="45.4303811" lon="10.7002771"><ele>60.0</ele><time>2026-05-02T09:16:33.117Z</time></trkpt><trkpt lat="45.4304738" lon="10.700279"><ele>60.0</ele><time>2026-05-02T09:16:36.117Z</time></trkpt><trkpt lat="45.4305656" lon="10.7002645"><ele>60.0</ele><time>2026-05-02T09:16:39.118Z</time></trkpt><trkpt lat="45.4306609" lon="10.7002594"><ele>60.0</ele><time>2026-05-02T09:16:42.118Z</time></trkpt><trkpt lat="45.4307258" lon="10.700251"><ele>60.0</ele><time>2026-05-02T09:16:44.118Z</time></trkpt><trkpt lat="45.4307927" lon="10.7002427"><ele>60.0</ele><time>2026-05-02T09:16:46.119Z</time></trkpt><trkpt lat="45.4308644" lon="10.7002403"><ele>60.85714285714286</ele><time>2026-05-02T09:16:48.118Z</time></trkpt><trkpt lat="45.4309293" lon="10.7002321"><ele>61.71428571428571</ele><time>2026-05-02T09:16:50.118Z</time></trkpt><trkpt lat="45.4309952" lon="10.7002177"><ele>62.57142857142857</ele><time>2026-05-02T09:16:52.118Z</time></trkpt><trkpt lat="45.4310855" lon="10.7002202"><ele>63.42857142857143</ele><time>2026-05-02T09:16:55.119Z</time></trkpt><trkpt lat="45.431149" lon="10.7002126"><ele>64.28571428571429</ele><time>2026-05-02T09:16:57.118Z</time></trkpt><trkpt lat="45.431242" lon="10.7001965"><ele>65.14285714285714</ele><time>2026-05-02T09:17:00.119Z</time></trkpt><trkpt lat="45.4313083" lon="10.7001882"><ele>66.0</ele><time>2026-05-02T09:17:02.119Z</time></trkpt><trkpt lat="45.4313747" lon="10.7001766"><ele>66.33333333333333</ele><time>2026-05-02T09:17:04.118Z</time></trkpt><trkpt lat="45.4314649" lon="10.7001641"><ele>66.66666666666667</ele><time>2026-05-02T09:17:07.119Z</time></trkpt><trkpt lat="45.4315575" lon="10.7001414"><ele>67.0</ele><time>2026-05-02T09:17:10.119Z</time></trkpt><trkpt lat="45.4316213" lon="10.7001196"><ele>67.33333333333334</ele><time>2026-05-02T09:17:12.118Z</time></trkpt><trkpt lat="45.4317102" lon="10.7001056"><ele>67.66666666666667</ele><time>2026-05-02T09:17:15.119Z</time></trkpt><trkpt lat="45.4317985" lon="10.7000992"><ele>68.0</ele><time>2026-05-02T09:17:18.117Z</time></trkpt><trkpt lat="45.4318887" lon="10.7000907"><ele>67.99999999999999</ele><time>2026-05-02T09:17:21.119Z</time></trkpt><trkpt lat="45.4319535" lon="10.7000767"><ele>68.0</ele><time>2026-05-02T09:17:23.119Z</time></trkpt><trkpt lat="45.4320205" lon="10.7000696"><ele>68.0</ele><time>2026-05-02T09:17:25.119Z</time></trkpt><trkpt lat="45.432085" lon="10.7000606"><ele>68.0</ele><time>2026-05-02T09:17:27.117Z</time></trkpt><trkpt lat="45.4321532" lon="10.7000476"><ele>68.0</ele><time>2026-05-02T09:17:29.118Z</time></trkpt><trkpt lat="45.4322225" lon="10.700034"><ele>67.99999999999999</ele><time>2026-05-02T09:17:31.118Z</time></trkpt><trkpt lat="45.4322871" lon="10.7000181"><ele>68.0</ele><time>2026-05-02T09:17:33.118Z</time></trkpt><trkpt lat="45.432357" lon="10.6999925"><ele>67.0</ele><time>2026-05-02T09:17:36.118Z</time></trkpt><trkpt lat="45.4324219" lon="10.6999478"><ele>66.0</ele><time>2026-05-02T09:17:39.119Z</time></trkpt><trkpt lat="45.4325117" lon="10.6999386"><ele>65.0</ele><time>2026-05-02T09:17:42.117Z</time></trkpt><trkpt lat="45.4326034" lon="10.6999263"><ele>64.0</ele><time>2026-05-02T09:17:45.118Z</time></trkpt><trkpt lat="45.4326928" lon="10.6999011"><ele>63.00000000000001</ele><time>2026-05-02T09:17:48.118Z</time></trkpt><trkpt lat="45.4327744" lon="10.6998646"><ele>62.0</ele><time>2026-05-02T09:17:51.119Z</time></trkpt><trkpt lat="45.4328593" lon="10.6998211"><ele>62.0</ele><time>2026-05-02T09:17:54.118Z</time></trkpt><trkpt lat="45.4329256" lon="10.6998146"><ele>62.00000000000001</ele><time>2026-05-02T09:17:56.117Z</time></trkpt><trkpt lat="45.4330158" lon="10.6997783"><ele>62.0</ele><time>2026-05-02T09:17:59.118Z</time></trkpt><trkpt lat="45.4330753" lon="10.6997389"><ele>62.0</ele><time>2026-05-02T09:18:01.119Z</time></trkpt><trkpt lat="45.4331357" lon="10.6997088"><ele>62.00000000000001</ele><time>2026-05-02T09:18:03.118Z</time></trkpt><trkpt lat="45.4332006" lon="10.6996867"><ele>62.0</ele><time>2026-05-02T09:18:05.119Z</time></trkpt><trkpt lat="45.4332642" lon="10.6996463"><ele>62.0</ele><time>2026-05-02T09:18:07.119Z</time></trkpt><trkpt lat="45.4333299" lon="10.6996148"><ele>62.142857142857146</ele><time>2026-05-02T09:18:09.117Z</time></trkpt><trkpt lat="45.4333978" lon="10.6995861"><ele>62.28571428571429</ele><time>2026-05-02T09:18:11.118Z</time></trkpt><trkpt lat="45.4334618" lon="10.6995535"><ele>62.42857142857143</ele><time>2026-05-02T09:18:13.118Z</time></trkpt><trkpt lat="45.4335247" lon="10.6995246"><ele>62.57142857142857</ele><time>2026-05-02T09:18:15.116Z</time></trkpt><trkpt lat="45.4335856" lon="10.6994962"><ele>62.714285714285715</ele><time>2026-05-02T09:18:17.118Z</time></trkpt><trkpt lat="45.4336483" lon="10.6994631"><ele>62.85714285714286</ele><time>2026-05-02T09:18:19.118Z</time></trkpt><trkpt lat="45.4337361" lon="10.6994112"><ele>63.0</ele><time>2026-05-02T09:18:22.117Z</time></trkpt><trkpt lat="45.4337979" lon="10.6993689"><ele>62.666666666666664</ele><time>2026-05-02T09:18:24.117Z</time></trkpt><trkpt lat="45.4338594" lon="10.699326"><ele>62.33333333333333</ele><time>2026-05-02T09:18:26.116Z</time></trkpt><trkpt lat="45.4339365" lon="10.6992697"><ele>62.0</ele><time>2026-05-02T09:18:29.117Z</time></trkpt><trkpt lat="45.434011" lon="10.6992144"><ele>61.666666666666664</ele><time>2026-05-02T09:18:32.117Z</time></trkpt><trkpt lat="45.4340835" lon="10.6991588"><ele>61.33333333333333</ele><time>2026-05-02T09:18:35.118Z</time></trkpt><trkpt lat="45.4341485" lon="10.6991133"><ele>61.0</ele><time>2026-05-02T09:18:38.118Z</time></trkpt><trkpt lat="45.4342154" lon="10.6990629"><ele>60.99999999999999</ele><time>2026-05-02T09:18:41.119Z</time></trkpt><trkpt lat="45.4342931" lon="10.6990043"><ele>61.0</ele><time>2026-05-02T09:18:44.118Z</time></trkpt><trkpt lat="45.4343975" lon="10.6989148"><ele>61.0</ele><time>2026-05-02T09:18:48.118Z</time></trkpt><trkpt lat="45.4344782" lon="10.6988442"><ele>61.0</ele><time>2026-05-02T09:18:51.119Z</time></trkpt><trkpt lat="45.4345357" lon="10.6987954"><ele>60.99999999999999</ele><time>2026-05-02T09:18:53.117Z</time></trkpt><trkpt lat="45.434595" lon="10.6987513"><ele>61.0</ele><time>2026-05-02T09:18:55.118Z</time></trkpt><trkpt lat="45.434653" lon="10.6987113"><ele>61.49999999999999</ele><time>2026-05-02T09:18:57.118Z</time></trkpt><trkpt lat="45.4347317" lon="10.6986414"><ele>62.0</ele><time>2026-05-02T09:19:00.118Z</time></trkpt><trkpt lat="45.4347871" lon="10.6985839"><ele>62.5</ele><time>2026-05-02T09:19:02.117Z</time></trkpt><trkpt lat="45.4348581" lon="10.698507"><ele>63.0</ele><time>2026-05-02T09:19:05.118Z</time></trkpt><trkpt lat="45.4349082" lon="10.6984517"><ele>63.49999999999999</ele><time>2026-05-02T09:19:08.19Z</time></trkpt><trkpt lat="45.4349699" lon="10.6983761"><ele>64.0</ele><time>2026-05-02T09:19:11.118Z</time></trkpt><trkpt lat="45.4350262" lon="10.6982937"><ele>64.28571428571428</ele><time>2026-05-02T09:19:15.117Z</time></trkpt><trkpt lat="45.4350877" lon="10.6982479"><ele>64.57142857142857</ele><time>2026-05-02T09:19:19.117Z</time></trkpt><trkpt lat="45.4351542" lon="10.6982122"><ele>64.85714285714286</ele><time>2026-05-02T09:19:23.118Z</time></trkpt><trkpt lat="45.4352193" lon="10.6981724"><ele>65.14285714285714</ele><time>2026-05-02T09:19:26.118Z</time></trkpt><trkpt lat="45.4352769" lon="10.6981317"><ele>65.42857142857143</ele><time>2026-05-02T09:19:29.117Z</time></trkpt><trkpt lat="45.435336" lon="10.6980819"><ele>65.71428571428571</ele><time>2026-05-02T09:19:33.117Z</time></trkpt><trkpt lat="45.4353966" lon="10.6980259"><ele>66.0</ele><time>2026-05-02T09:19:36.117Z</time></trkpt><trkpt lat="45.4354492" lon="10.6979684"><ele>65.71428571428571</ele><time>2026-05-02T09:19:39.118Z</time></trkpt><trkpt lat="45.4355051" lon="10.6979182"><ele>65.42857142857143</ele><time>2026-05-02T09:19:43.118Z</time></trkpt><trkpt lat="45.4355593" lon="10.6978619"><ele>65.14285714285714</ele><time>2026-05-02T09:19:47.118Z</time></trkpt><trkpt lat="45.4356292" lon="10.6978388"><ele>64.85714285714286</ele><time>2026-05-02T09:19:52.117Z</time></trkpt><trkpt lat="45.435691" lon="10.6978605"><ele>64.57142857142857</ele><time>2026-05-02T09:21:14.117Z</time></trkpt><trkpt lat="45.4356344" lon="10.6978195"><ele>64.28571428571428</ele><time>2026-05-02T09:25:27.116Z</time></trkpt><trkpt lat="45.4356934" lon="10.6978606"><ele>64.0</ele><time>2026-05-02T09:26:19.116Z</time></trkpt><trkpt lat="45.4356349" lon="10.6978216"><ele>64.0</ele><time>2026-05-02T09:36:37.119Z</time></trkpt><trkpt lat="45.4355782" lon="10.6978801"><ele>63.99999999999999</ele><time>2026-05-02T09:36:45.12Z</time></trkpt><trkpt lat="45.435509" lon="10.6979292"><ele>64.0</ele><time>2026-05-02T09:36:49.116Z</time></trkpt><trkpt lat="45.4354381" lon="10.6979826"><ele>64.0</ele><time>2026-05-02T09:36:53.117Z</time></trkpt><trkpt lat="45.4353809" lon="10.6980349"><ele>63.99999999999999</ele><time>2026-05-02T09:36:56.117Z</time></trkpt><trkpt lat="45.4353275" lon="10.6980884"><ele>64.0</ele><time>2026-05-02T09:36:59.111Z</time></trkpt><trkpt lat="45.4352721" lon="10.6981438"><ele>64.0</ele><time>2026-05-02T09:37:02.109Z</time></trkpt><trkpt lat="45.435213" lon="10.6981943"><ele>66.0</ele><time>2026-05-02T09:37:05.12Z</time></trkpt><trkpt lat="45.4351568" lon="10.6982527"><ele>66.0</ele><time>2026-05-02T09:37:08.11Z</time></trkpt><trkpt lat="45.4350844" lon="10.6982741"><ele>66.0</ele><time>2026-05-02T09:37:11.109Z</time></trkpt><trkpt lat="45.4350214" lon="10.69823"><ele>66.0</ele><time>2026-05-02T09:37:15.116Z</time></trkpt><trkpt lat="45.4350173" lon="10.6981279"><ele>66.0</ele><time>2026-05-02T09:37:19.113Z</time></trkpt><trkpt lat="45.4350173" lon="10.6981279"><ele>66.0</ele><time>2026-05-02T09:37:19.113Z</time></trkpt></trkseg><trkseg><trkpt lat="45.4348455" lon="10.6985241"><ele>66.0</ele><time>2026-05-02T12:02:27.085Z</time></trkpt><trkpt lat="45.434784" lon="10.6985732"><ele>66.0</ele><time>2026-05-02T12:02:30.085Z</time></trkpt><trkpt lat="45.4347137" lon="10.698618"><ele>66.0</ele><time>2026-05-02T12:02:33.084Z</time></trkpt><trkpt lat="45.4346561" lon="10.6986639"><ele>66.0</ele><time>2026-05-02T12:02:36.084Z</time></trkpt><trkpt lat="45.4345959" lon="10.6987106"><ele>66.0</ele><time>2026-05-02T12:02:39.084Z</time></trkpt><trkpt lat="45.4345381" lon="10.6987645"><ele>66.0</ele><time>2026-05-02T12:02:42.085Z</time></trkpt><trkpt lat="45.4344827" lon="10.6988217"><ele>66.0</ele><time>2026-05-02T12:02:45.085Z</time></trkpt><trkpt lat="45.4344252" lon="10.6988746"><ele>65.16666666666667</ele><time>2026-05-02T12:02:48.084Z</time></trkpt><trkpt lat="45.4343671" lon="10.6989287"><ele>64.33333333333333</ele><time>2026-05-02T12:02:51.084Z</time></trkpt><trkpt lat="45.4342979" lon="10.6989803"><ele>63.5</ele><time>2026-05-02T12:02:54.084Z</time></trkpt><trkpt lat="45.4342196" lon="10.6990278"><ele>62.666666666666664</ele><time>2026-05-02T12:02:57.085Z</time></trkpt><trkpt lat="45.4341485" lon="10.6990773"><ele>61.83333333333333</ele><time>2026-05-02T12:03:00.085Z</time></trkpt><trkpt lat="45.4340802" lon="10.6991274"><ele>61.0</ele><time>2026-05-02T12:03:03.084Z</time></trkpt><trkpt lat="45.434016" lon="10.6991774"><ele>60.99999999999999</ele><time>2026-05-02T12:03:06.084Z</time></trkpt><trkpt lat="45.43395" lon="10.6992224"><ele>61.0</ele><time>2026-05-02T12:03:09.084Z</time></trkpt><trkpt lat="45.4338844" lon="10.6992657"><ele>61.0</ele><time>2026-05-02T12:03:12.085Z</time></trkpt><trkpt lat="45.4338193" lon="10.6993131"><ele>61.0</ele><time>2026-05-02T12:03:15.084Z</time></trkpt><trkpt lat="45.4337478" lon="10.6993582"><ele>60.99999999999999</ele><time>2026-05-02T12:03:18.084Z</time></trkpt><trkpt lat="45.4336685" lon="10.6994114"><ele>61.0</ele><time>2026-05-02T12:03:21.084Z</time></trkpt><trkpt lat="45.4335842" lon="10.6994555"><ele>61.33333333333333</ele><time>2026-05-02T12:03:24.085Z</time></trkpt><trkpt lat="45.433503" lon="10.6994965"><ele>61.666666666666664</ele><time>2026-05-02T12:03:27.085Z</time></trkpt><trkpt lat="45.4334244" lon="10.6995451"><ele>62.0</ele><time>2026-05-02T12:03:30.084Z</time></trkpt><trkpt lat="45.433338" lon="10.6995877"><ele>62.33333333333333</ele><time>2026-05-02T12:03:33.084Z</time></trkpt><trkpt lat="45.4332558" lon="10.6996206"><ele>62.666666666666664</ele><time>2026-05-02T12:03:36.085Z</time></trkpt><trkpt lat="45.4331794" lon="10.6996622"><ele>63.0</ele><time>2026-05-02T12:03:39.084Z</time></trkpt><trkpt lat="45.4330964" lon="10.6996979"><ele>63.0</ele><time>2026-05-02T12:03:42.085Z</time></trkpt><trkpt lat="45.4330167" lon="10.6997383"><ele>63.0</ele><time>2026-05-02T12:03:45.084Z</time></trkpt><trkpt lat="45.4329291" lon="10.6997737"><ele>63.0</ele><time>2026-05-02T12:03:48.083Z</time></trkpt><trkpt lat="45.4328401" lon="10.6998029"><ele>63.0</ele><time>2026-05-02T12:03:51.085Z</time></trkpt><trkpt lat="45.4327519" lon="10.6998327"><ele>63.0</ele><time>2026-05-02T12:03:54.084Z</time></trkpt><trkpt lat="45.4326681" lon="10.6998652"><ele>63.0</ele><time>2026-05-02T12:03:57.085Z</time></trkpt><trkpt lat="45.4325901" lon="10.6998948"><ele>62.833333333333336</ele><time>2026-05-02T12:04:00.084Z</time></trkpt><trkpt lat="45.4325163" lon="10.6999196"><ele>62.66666666666667</ele><time>2026-05-02T12:04:03.085Z</time></trkpt><trkpt lat="45.4324356" lon="10.6999454"><ele>62.5</ele><time>2026-05-02T12:04:06.084Z</time></trkpt><trkpt lat="45.43235" lon="10.6999672"><ele>62.333333333333336</ele><time>2026-05-02T12:04:09.083Z</time></trkpt><trkpt lat="45.432259" lon="10.6999886"><ele>62.16666666666667</ele><time>2026-05-02T12:04:12.084Z</time></trkpt><trkpt lat="45.4321944" lon="10.7000029"><ele>62.0</ele><time>2026-05-02T12:04:14.085Z</time></trkpt><trkpt lat="45.4321298" lon="10.7000189"><ele>63.00000000000001</ele><time>2026-05-02T12:04:16.083Z</time></trkpt><trkpt lat="45.4320651" lon="10.7000348"><ele>64.0</ele><time>2026-05-02T12:04:18.085Z</time></trkpt><trkpt lat="45.4319999" lon="10.7000501"><ele>65.0</ele><time>2026-05-02T12:04:20.083Z</time></trkpt><trkpt lat="45.4319355" lon="10.7000595"><ele>66.0</ele><time>2026-05-02T12:04:22.085Z</time></trkpt><trkpt lat="45.4318452" lon="10.7000664"><ele>67.0</ele><time>2026-05-02T12:04:25.084Z</time></trkpt><trkpt lat="45.4317578" lon="10.7000895"><ele>68.0</ele><time>2026-05-02T12:04:28.085Z</time></trkpt><trkpt lat="45.4316706" lon="10.7001006"><ele>67.99999999999999</ele><time>2026-05-02T12:04:31.084Z</time></trkpt><trkpt lat="45.4315778" lon="10.7001145"><ele>68.0</ele><time>2026-05-02T12:04:34.084Z</time></trkpt><trkpt lat="45.4315135" lon="10.7001275"><ele>68.0</ele><time>2026-05-02T12:04:36.084Z</time></trkpt><trkpt lat="45.4314489" lon="10.7001368"><ele>68.0</ele><time>2026-05-02T12:04:38.084Z</time></trkpt><trkpt lat="45.4313832" lon="10.7001435"><ele>68.0</ele><time>2026-05-02T12:04:40.084Z</time></trkpt><trkpt lat="45.4313186" lon="10.7001527"><ele>67.99999999999999</ele><time>2026-05-02T12:04:42.085Z</time></trkpt><trkpt lat="45.4312499" lon="10.7001627"><ele>68.0</ele><time>2026-05-02T12:04:44.084Z</time></trkpt><trkpt lat="45.4311843" lon="10.7001718"><ele>67.66666666666667</ele><time>2026-05-02T12:04:46.083Z</time></trkpt><trkpt lat="45.431119" lon="10.7001789"><ele>67.33333333333334</ele><time>2026-05-02T12:04:48.084Z</time></trkpt><trkpt lat="45.4310565" lon="10.7001898"><ele>67.0</ele><time>2026-05-02T12:04:50.085Z</time></trkpt><trkpt lat="45.4309713" lon="10.7001983"><ele>66.66666666666667</ele><time>2026-05-02T12:04:53.084Z</time></trkpt><trkpt lat="45.4308845" lon="10.7002101"><ele>66.33333333333333</ele><time>2026-05-02T12:04:56.084Z</time></trkpt><trkpt lat="45.4307903" lon="10.7002215"><ele>66.0</ele><time>2026-05-02T12:04:59.085Z</time></trkpt><trkpt lat="45.4307259" lon="10.7002274"><ele>66.0</ele><time>2026-05-02T12:05:01.084Z</time></trkpt><trkpt lat="45.4306627" lon="10.7002332"><ele>66.0</ele><time>2026-05-02T12:05:03.085Z</time></trkpt><trkpt lat="45.4305689" lon="10.7002442"><ele>66.0</ele><time>2026-05-02T12:05:06.084Z</time></trkpt><trkpt lat="45.4305054" lon="10.7002455"><ele>66.0</ele><time>2026-05-02T12:05:08.084Z</time></trkpt><trkpt lat="45.4304123" lon="10.7002486"><ele>66.0</ele><time>2026-05-02T12:05:11.085Z</time></trkpt><trkpt lat="45.4303258" lon="10.7002568"><ele>66.0</ele><time>2026-05-02T12:05:14.085Z</time></trkpt><trkpt lat="45.4302582" lon="10.7002584"><ele>65.0</ele><time>2026-05-02T12:05:18.085Z</time></trkpt><trkpt lat="45.4301975" lon="10.7002943"><ele>64.0</ele><time>2026-05-02T12:08:36.083Z</time></trkpt><trkpt lat="45.430122" lon="10.7002963"><ele>63.0</ele><time>2026-05-02T12:08:39.082Z</time></trkpt><trkpt lat="45.4300462" lon="10.7003034"><ele>62.0</ele><time>2026-05-02T12:08:42.083Z</time></trkpt><trkpt lat="45.429977" lon="10.7003101"><ele>61.0</ele><time>2026-05-02T12:08:45.083Z</time></trkpt><trkpt lat="45.4298968" lon="10.7003025"><ele>60.0</ele><time>2026-05-02T12:08:48.082Z</time></trkpt><trkpt lat="45.4298092" lon="10.7003046"><ele>60.0</ele><time>2026-05-02T12:08:51.084Z</time></trkpt><trkpt lat="45.4297256" lon="10.7003091"><ele>60.0</ele><time>2026-05-02T12:08:54.083Z</time></trkpt><trkpt lat="45.4296386" lon="10.7003081"><ele>60.0</ele><time>2026-05-02T12:08:57.083Z</time></trkpt><trkpt lat="45.4295528" lon="10.7003133"><ele>60.0</ele><time>2026-05-02T12:09:00.084Z</time></trkpt><trkpt lat="45.4294638" lon="10.7003111"><ele>60.0</ele><time>2026-05-02T12:09:03.083Z</time></trkpt><trkpt lat="45.4293853" lon="10.7003138"><ele>60.0</ele><time>2026-05-02T12:09:06.083Z</time></trkpt><trkpt lat="45.4293042" lon="10.7003038"><ele>59.833333333333336</ele><time>2026-05-02T12:09:09.083Z</time></trkpt><trkpt lat="45.4292376" lon="10.7002832"><ele>59.66666666666667</ele><time>2026-05-02T12:09:12.083Z</time></trkpt><trkpt lat="45.4291744" lon="10.700255"><ele>59.5</ele><time>2026-05-02T12:09:14.083Z</time></trkpt><trkpt lat="45.4291064" lon="10.7002238"><ele>59.333333333333336</ele><time>2026-05-02T12:09:16.083Z</time></trkpt><trkpt lat="45.4290207" lon="10.7002013"><ele>59.16666666666667</ele><time>2026-05-02T12:09:19.082Z</time></trkpt><trkpt lat="45.4289314" lon="10.7001909"><ele>59.0</ele><time>2026-05-02T12:09:22.082Z</time></trkpt><trkpt lat="45.4288421" lon="10.7001918"><ele>59.857142857142854</ele><time>2026-05-02T12:09:25.083Z</time></trkpt><trkpt lat="45.4287614" lon="10.7002046"><ele>60.71428571428572</ele><time>2026-05-02T12:09:28.083Z</time></trkpt><trkpt lat="45.4286755" lon="10.700229"><ele>61.57142857142858</ele><time>2026-05-02T12:09:31.082Z</time></trkpt><trkpt lat="45.428614" lon="10.7002677"><ele>62.42857142857143</ele><time>2026-05-02T12:09:33.082Z</time></trkpt><trkpt lat="45.4285471" lon="10.7002814"><ele>63.28571428571429</ele><time>2026-05-02T12:09:35.083Z</time></trkpt><trkpt lat="45.4284788" lon="10.700272"><ele>64.14285714285715</ele><time>2026-05-02T12:09:37.083Z</time></trkpt><trkpt lat="45.42841" lon="10.7002664"><ele>65.0</ele><time>2026-05-02T12:09:39.083Z</time></trkpt><trkpt lat="45.4283415" lon="10.7002638"><ele>65.00000000000001</ele><time>2026-05-02T12:09:41.082Z</time></trkpt><trkpt lat="45.4282731" lon="10.7002605"><ele>65.0</ele><time>2026-05-02T12:09:43.083Z</time></trkpt><trkpt lat="45.4282041" lon="10.700256"><ele>65.0</ele><time>2026-05-02T12:09:45.082Z</time></trkpt><trkpt lat="45.4281321" lon="10.700247"><ele>65.0</ele><time>2026-05-02T12:09:47.083Z</time></trkpt><trkpt lat="45.4280576" lon="10.7002385"><ele>65.0</ele><time>2026-05-02T12:09:49.083Z</time></trkpt><trkpt lat="45.4279829" lon="10.7002292"><ele>65.00000000000001</ele><time>2026-05-02T12:09:51.083Z</time></trkpt><trkpt lat="45.4279051" lon="10.7002188"><ele>65.0</ele><time>2026-05-02T12:09:53.082Z</time></trkpt><trkpt lat="45.4278282" lon="10.7002084"><ele>65.42857142857143</ele><time>2026-05-02T12:09:55.083Z</time></trkpt><trkpt lat="45.4277559" lon="10.7002013"><ele>65.85714285714286</ele><time>2026-05-02T12:09:57.083Z</time></trkpt><trkpt lat="45.4276895" lon="10.7001946"><ele>66.28571428571428</ele><time>2026-05-02T12:09:59.082Z</time></trkpt><trkpt lat="45.4276247" lon="10.7001887"><ele>66.71428571428572</ele><time>2026-05-02T12:10:01.083Z</time></trkpt><trkpt lat="45.4275608" lon="10.7001823"><ele>67.14285714285714</ele><time>2026-05-02T12:10:03.083Z</time></trkpt><trkpt lat="45.4274971" lon="10.7001774"><ele>67.57142857142857</ele><time>2026-05-02T12:10:05.082Z</time></trkpt><trkpt lat="45.427405" lon="10.7001608"><ele>68.0</ele><time>2026-05-02T12:10:08.082Z</time></trkpt><trkpt lat="45.4273117" lon="10.700151"><ele>68.0</ele><time>2026-05-02T12:10:11.083Z</time></trkpt><trkpt lat="45.4272173" lon="10.7001407"><ele>68.0</ele><time>2026-05-02T12:10:14.083Z</time></trkpt><trkpt lat="45.427153" lon="10.7001387"><ele>68.0</ele><time>2026-05-02T12:10:16.083Z</time></trkpt><trkpt lat="45.4270619" lon="10.7001273"><ele>68.0</ele><time>2026-05-02T12:10:19.082Z</time></trkpt><trkpt lat="45.4269695" lon="10.7001193"><ele>68.0</ele><time>2026-05-02T12:10:22.083Z</time></trkpt><trkpt lat="45.4268802" lon="10.7001112"><ele>68.0</ele><time>2026-05-02T12:10:25.083Z</time></trkpt><trkpt lat="45.4267889" lon="10.7000997"><ele>67.66666666666667</ele><time>2026-05-02T12:10:28.082Z</time></trkpt><trkpt lat="45.4267251" lon="10.7000915"><ele>67.33333333333334</ele><time>2026-05-02T12:10:30.082Z</time></trkpt><trkpt lat="45.4266375" lon="10.7000815"><ele>67.0</ele><time>2026-05-02T12:10:33.083Z</time></trkpt><trkpt lat="45.4265446" lon="10.7000727"><ele>66.66666666666667</ele><time>2026-05-02T12:10:36.083Z</time></trkpt><trkpt lat="45.4264528" lon="10.70006"><ele>66.33333333333333</ele><time>2026-05-02T12:10:39.083Z</time></trkpt><trkpt lat="45.4263631" lon="10.7000519"><ele>66.0</ele><time>2026-05-02T12:10:42.083Z</time></trkpt><trkpt lat="45.4263002" lon="10.7000424"><ele>66.0</ele><time>2026-05-02T12:10:44.082Z</time></trkpt><trkpt lat="45.4262362" lon="10.7000336"><ele>66.0</ele><time>2026-05-02T12:10:46.082Z</time></trkpt><trkpt lat="45.4261704" lon="10.7000261"><ele>66.0</ele><time>2026-05-02T12:10:48.083Z</time></trkpt><trkpt lat="45.4261037" lon="10.7000167"><ele>66.0</ele><time>2026-05-02T12:10:50.081Z</time></trkpt><trkpt lat="45.4260363" lon="10.7000076"><ele>66.0</ele><time>2026-05-02T12:10:52.082Z</time></trkpt><trkpt lat="45.4259703" lon="10.6999987"><ele>66.0</ele><time>2026-05-02T12:10:54.083Z</time></trkpt><trkpt lat="45.4259033" lon="10.699993"><ele>66.0</ele><time>2026-05-02T12:10:56.083Z</time></trkpt><trkpt lat="45.4258141" lon="10.6999831"><ele>66.0</ele><time>2026-05-02T12:10:59.082Z</time></trkpt><trkpt lat="45.4257349" lon="10.699974"><ele>66.0</ele><time>2026-05-02T12:11:02.082Z</time></trkpt><trkpt lat="45.4256606" lon="10.6999641"><ele>66.0</ele><time>2026-05-02T12:11:05.083Z</time></trkpt><trkpt lat="45.4255678" lon="10.6999579"><ele>66.0</ele><time>2026-05-02T12:11:08.082Z</time></trkpt><trkpt lat="45.4255033" lon="10.6999523"><ele>66.0</ele><time>2026-05-02T12:11:10.083Z</time></trkpt><trkpt lat="45.4254394" lon="10.6999388"><ele>66.0</ele><time>2026-05-02T12:11:12.083Z</time></trkpt><trkpt lat="45.4253743" lon="10.6999333"><ele>66.0</ele><time>2026-05-02T12:11:14.082Z</time></trkpt><trkpt lat="45.4253103" lon="10.6999285"><ele>66.0</ele><time>2026-05-02T12:11:16.082Z</time></trkpt><trkpt lat="45.4252176" lon="10.6999153"><ele>66.0</ele><time>2026-05-02T12:11:19.082Z</time></trkpt><trkpt lat="45.4251235" lon="10.6999062"><ele>66.0</ele><time>2026-05-02T12:11:22.081Z</time></trkpt><trkpt lat="45.4250577" lon="10.6999065"><ele>66.0</ele><time>2026-05-02T12:11:24.082Z</time></trkpt><trkpt lat="45.4249922" lon="10.6999039"><ele>66.0</ele><time>2026-05-02T12:11:26.082Z</time></trkpt><trkpt lat="45.4249269" lon="10.6999007"><ele>66.0</ele><time>2026-05-02T12:11:28.082Z</time></trkpt><trkpt lat="45.4248608" lon="10.6999034"><ele>66.0</ele><time>2026-05-02T12:11:30.082Z</time></trkpt><trkpt lat="45.4247938" lon="10.6999036"><ele>66.0</ele><time>2026-05-02T12:11:32.083Z</time></trkpt><trkpt lat="45.4247271" lon="10.6999047"><ele>66.0</ele><time>2026-05-02T12:11:34.083Z</time></trkpt><trkpt lat="45.4246604" lon="10.6999115"><ele>66.0</ele><time>2026-05-02T12:11:36.082Z</time></trkpt><trkpt lat="45.424593" lon="10.6999142"><ele>66.0</ele><time>2026-05-02T12:11:38.082Z</time></trkpt><trkpt lat="45.4245256" lon="10.6999159"><ele>66.0</ele><time>2026-05-02T12:11:40.082Z</time></trkpt><trkpt lat="45.424459" lon="10.6999255"><ele>66.0</ele><time>2026-05-02T12:11:42.083Z</time></trkpt><trkpt lat="45.4243924" lon="10.6999332"><ele>65.28571428571428</ele><time>2026-05-02T12:11:44.083Z</time></trkpt><trkpt lat="45.4243273" lon="10.6999406"><ele>64.57142857142857</ele><time>2026-05-02T12:11:46.082Z</time></trkpt><trkpt lat="45.4242603" lon="10.6999473"><ele>63.857142857142854</ele><time>2026-05-02T12:11:48.082Z</time></trkpt><trkpt lat="45.4241933" lon="10.699957"><ele>63.14285714285714</ele><time>2026-05-02T12:11:50.082Z</time></trkpt><trkpt lat="45.424127" lon="10.6999694"><ele>62.42857142857143</ele><time>2026-05-02T12:11:52.083Z</time></trkpt><trkpt lat="45.4240595" lon="10.6999855"><ele>61.71428571428571</ele><time>2026-05-02T12:11:54.082Z</time></trkpt><trkpt lat="45.4239922" lon="10.7000017"><ele>60.99999999999999</ele><time>2026-05-02T12:11:56.082Z</time></trkpt><trkpt lat="45.4239247" lon="10.7000131"><ele>60.99999999999999</ele><time>2026-05-02T12:11:58.083Z</time></trkpt><trkpt lat="45.4238567" lon="10.7000277"><ele>61.0</ele><time>2026-05-02T12:12:00.083Z</time></trkpt><trkpt lat="45.4237905" lon="10.7000483"><ele>60.99999999999999</ele><time>2026-05-02T12:12:02.081Z</time></trkpt><trkpt lat="45.4237245" lon="10.700063"><ele>60.99999999999999</ele><time>2026-05-02T12:12:04.083Z</time></trkpt><trkpt lat="45.4236605" lon="10.7000804"><ele>61.0</ele><time>2026-05-02T12:12:06.083Z</time></trkpt><trkpt lat="45.4235968" lon="10.7001018"><ele>60.99999999999999</ele><time>2026-05-02T12:12:08.082Z</time></trkpt><trkpt lat="45.4235319" lon="10.7001234"><ele>60.99999999999999</ele><time>2026-05-02T12:12:10.082Z</time></trkpt><trkpt lat="45.4234696" lon="10.7001459"><ele>61.428571428571416</ele><time>2026-05-02T12:12:12.083Z</time></trkpt><trkpt lat="45.4234068" lon="10.7001694"><ele>61.857142857142854</ele><time>2026-05-02T12:12:14.083Z</time></trkpt><trkpt lat="45.4233417" lon="10.7001924"><ele>62.28571428571428</ele><time>2026-05-02T12:12:16.083Z</time></trkpt><trkpt lat="45.4232739" lon="10.7002202"><ele>62.71428571428571</ele><time>2026-05-02T12:12:18.083Z</time></trkpt><trkpt lat="45.423209" lon="10.7002479"><ele>63.14285714285714</ele><time>2026-05-02T12:12:20.083Z</time></trkpt><trkpt lat="45.4231468" lon="10.7002811"><ele>63.57142857142857</ele><time>2026-05-02T12:12:22.083Z</time></trkpt><trkpt lat="45.423083" lon="10.7003118"><ele>64.0</ele><time>2026-05-02T12:12:24.083Z</time></trkpt><trkpt lat="45.4230212" lon="10.7003424"><ele>64.83333333333333</ele><time>2026-05-02T12:12:26.083Z</time></trkpt><trkpt lat="45.4229612" lon="10.7003737"><ele>65.66666666666666</ele><time>2026-05-02T12:12:28.081Z</time></trkpt><trkpt lat="45.4228778" lon="10.7004193"><ele>66.5</ele><time>2026-05-02T12:12:31.082Z</time></trkpt><trkpt lat="45.4227898" lon="10.7004636"><ele>67.33333333333333</ele><time>2026-05-02T12:12:34.081Z</time></trkpt><trkpt lat="45.4227021" lon="10.7005035"><ele>68.16666666666667</ele><time>2026-05-02T12:12:37.082Z</time></trkpt><trkpt lat="45.4226205" lon="10.7005535"><ele>69.0</ele><time>2026-05-02T12:12:40.082Z</time></trkpt><trkpt lat="45.4225368" lon="10.7006081"><ele>69.0</ele><time>2026-05-02T12:12:43.08Z</time></trkpt><trkpt lat="45.4224787" lon="10.7006487"><ele>69.0</ele><time>2026-05-02T12:12:45.082Z</time></trkpt><trkpt lat="45.4223925" lon="10.7007061"><ele>69.0</ele><time>2026-05-02T12:12:48.082Z</time></trkpt><trkpt lat="45.4223324" lon="10.7007462"><ele>69.0</ele><time>2026-05-02T12:12:50.082Z</time></trkpt><trkpt lat="45.4222745" lon="10.7007894"><ele>69.0</ele><time>2026-05-02T12:12:52.083Z</time></trkpt><trkpt lat="45.4222168" lon="10.7008381"><ele>69.0</ele><time>2026-05-02T12:12:54.082Z</time></trkpt><trkpt lat="45.4221581" lon="10.7008839"><ele>69.0</ele><time>2026-05-02T12:12:56.082Z</time></trkpt><trkpt lat="45.4220973" lon="10.7009246"><ele>68.42857142857143</ele><time>2026-05-02T12:12:58.081Z</time></trkpt><trkpt lat="45.4220336" lon="10.7009699"><ele>67.85714285714286</ele><time>2026-05-02T12:13:00.082Z</time></trkpt><trkpt lat="45.4219708" lon="10.7010172"><ele>67.28571428571429</ele><time>2026-05-02T12:13:02.081Z</time></trkpt><trkpt lat="45.4219039" lon="10.7010719"><ele>66.71428571428572</ele><time>2026-05-02T12:13:04.082Z</time></trkpt><trkpt lat="45.4218402" lon="10.70113"><ele>66.14285714285714</ele><time>2026-05-02T12:13:06.081Z</time></trkpt><trkpt lat="45.4217771" lon="10.7011833"><ele>65.57142857142858</ele><time>2026-05-02T12:13:08.081Z</time></trkpt><trkpt lat="45.4217181" lon="10.7012405"><ele>65.0</ele><time>2026-05-02T12:13:10.082Z</time></trkpt><trkpt lat="45.4216608" lon="10.7013024"><ele>65.00000000000001</ele><time>2026-05-02T12:13:12.082Z</time></trkpt><trkpt lat="45.4216047" lon="10.7013657"><ele>65.0</ele><time>2026-05-02T12:13:14.081Z</time></trkpt><trkpt lat="45.4215455" lon="10.7014259"><ele>65.0</ele><time>2026-05-02T12:13:16.082Z</time></trkpt><trkpt lat="45.4214828" lon="10.701491"><ele>65.0</ele><time>2026-05-02T12:13:18.082Z</time></trkpt><trkpt lat="45.4214202" lon="10.7015491"><ele>65.0</ele><time>2026-05-02T12:13:20.081Z</time></trkpt><trkpt lat="45.421364" lon="10.7016105"><ele>65.00000000000001</ele><time>2026-05-02T12:13:22.082Z</time></trkpt><trkpt lat="45.4213058" lon="10.701676"><ele>65.0</ele><time>2026-05-02T12:13:24.082Z</time></trkpt><trkpt lat="45.4212534" lon="10.7017429"><ele>65.00000000000001</ele><time>2026-05-02T12:13:26.08Z</time></trkpt><trkpt lat="45.4211978" lon="10.7018015"><ele>65.0</ele><time>2026-05-02T12:13:28.081Z</time></trkpt><trkpt lat="45.4211479" lon="10.7018676"><ele>65.0</ele><time>2026-05-02T12:13:30.08Z</time></trkpt><trkpt lat="45.4210946" lon="10.7019297"><ele>65.0</ele><time>2026-05-02T12:13:32.08Z</time></trkpt><trkpt lat="45.4210402" lon="10.7020016"><ele>65.0</ele><time>2026-05-02T12:13:34.081Z</time></trkpt><trkpt lat="45.4209841" lon="10.7020751"><ele>65.00000000000001</ele><time>2026-05-02T12:13:36.082Z</time></trkpt><trkpt lat="45.4209262" lon="10.7021429"><ele>65.0</ele><time>2026-05-02T12:13:38.081Z</time></trkpt><trkpt lat="45.4208738" lon="10.7022151"><ele>64.85714285714286</ele><time>2026-05-02T12:13:40.081Z</time></trkpt><trkpt lat="45.4208202" lon="10.7022866"><ele>64.71428571428572</ele><time>2026-05-02T12:13:42.081Z</time></trkpt><trkpt lat="45.4207684" lon="10.7023613"><ele>64.57142857142857</ele><time>2026-05-02T12:13:44.081Z</time></trkpt><trkpt lat="45.4207167" lon="10.7024335"><ele>64.42857142857143</ele><time>2026-05-02T12:13:46.082Z</time></trkpt><trkpt lat="45.4206651" lon="10.7025026"><ele>64.28571428571428</ele><time>2026-05-02T12:13:48.081Z</time></trkpt><trkpt lat="45.4206144" lon="10.7025749"><ele>64.14285714285714</ele><time>2026-05-02T12:13:50.081Z</time></trkpt><trkpt lat="45.420565" lon="10.7026486"><ele>64.0</ele><time>2026-05-02T12:13:52.081Z</time></trkpt><trkpt lat="45.4205159" lon="10.7027231"><ele>64.57142857142857</ele><time>2026-05-02T12:13:54.081Z</time></trkpt><trkpt lat="45.4204717" lon="10.7027978"><ele>65.14285714285714</ele><time>2026-05-02T12:13:56.081Z</time></trkpt><trkpt lat="45.4204292" lon="10.702878"><ele>65.71428571428571</ele><time>2026-05-02T12:13:58.081Z</time></trkpt><trkpt lat="45.4203819" lon="10.7029518"><ele>66.28571428571428</ele><time>2026-05-02T12:14:00.081Z</time></trkpt><trkpt lat="45.4203346" lon="10.7030325"><ele>66.85714285714286</ele><time>2026-05-02T12:14:02.081Z</time></trkpt><trkpt lat="45.4202901" lon="10.7031159"><ele>67.42857142857142</ele><time>2026-05-02T12:14:04.081Z</time></trkpt><trkpt lat="45.4202472" lon="10.7031982"><ele>68.0</ele><time>2026-05-02T12:14:06.081Z</time></trkpt><trkpt lat="45.4202031" lon="10.7032808"><ele>67.99999999999999</ele><time>2026-05-02T12:14:08.081Z</time></trkpt><trkpt lat="45.4201577" lon="10.7033552"><ele>68.0</ele><time>2026-05-02T12:14:10.081Z</time></trkpt><trkpt lat="45.4201158" lon="10.7034373"><ele>68.0</ele><time>2026-05-02T12:14:12.081Z</time></trkpt><trkpt lat="45.4200737" lon="10.7035231"><ele>68.0</ele><time>2026-05-02T12:14:14.081Z</time></trkpt><trkpt lat="45.4200354" lon="10.7036125"><ele>68.0</ele><time>2026-05-02T12:14:16.081Z</time></trkpt><trkpt lat="45.4200003" lon="10.7037042"><ele>67.99999999999999</ele><time>2026-05-02T12:14:18.08Z</time></trkpt><trkpt lat="45.4199646" lon="10.7037886"><ele>68.0</ele><time>2026-05-02T12:14:20.081Z</time></trkpt><trkpt lat="45.4199245" lon="10.7038729"><ele>67.85714285714285</ele><time>2026-05-02T12:14:22.082Z</time></trkpt><trkpt lat="45.4198889" lon="10.7039613"><ele>67.71428571428571</ele><time>2026-05-02T12:14:24.079Z</time></trkpt><trkpt lat="45.4198542" lon="10.7040511"><ele>67.57142857142857</ele><time>2026-05-02T12:14:26.081Z</time></trkpt><trkpt lat="45.4198197" lon="10.7041425"><ele>67.42857142857142</ele><time>2026-05-02T12:14:28.082Z</time></trkpt><trkpt lat="45.4197861" lon="10.7042343"><ele>67.28571428571428</ele><time>2026-05-02T12:14:30.08Z</time></trkpt><trkpt lat="45.4197523" lon="10.7043223"><ele>67.14285714285714</ele><time>2026-05-02T12:14:32.081Z</time></trkpt><trkpt lat="45.4197186" lon="10.704421"><ele>67.0</ele><time>2026-05-02T12:14:34.08Z</time></trkpt><trkpt lat="45.4196858" lon="10.7045157"><ele>67.0</ele><time>2026-05-02T12:14:36.082Z</time></trkpt><trkpt lat="45.4196518" lon="10.7046036"><ele>67.0</ele><time>2026-05-02T12:14:38.08Z</time></trkpt><trkpt lat="45.419625" lon="10.7047003"><ele>67.0</ele><time>2026-05-02T12:14:40.081Z</time></trkpt><trkpt lat="45.4195946" lon="10.7047997"><ele>67.0</ele><time>2026-05-02T12:14:42.081Z</time></trkpt><trkpt lat="45.4195664" lon="10.7048965"><ele>67.0</ele><time>2026-05-02T12:14:44.082Z</time></trkpt><trkpt lat="45.4195426" lon="10.7050009"><ele>67.0</ele><time>2026-05-02T12:14:46.081Z</time></trkpt><trkpt lat="45.4195106" lon="10.7051002"><ele>67.0</ele><time>2026-05-02T12:14:48.08Z</time></trkpt><trkpt lat="45.4194837" lon="10.7051973"><ele>67.28571428571429</ele><time>2026-05-02T12:14:50.081Z</time></trkpt><trkpt lat="45.4194542" lon="10.7052923"><ele>67.57142857142857</ele><time>2026-05-02T12:14:52.081Z</time></trkpt><trkpt lat="45.4194294" lon="10.7053849"><ele>67.85714285714286</ele><time>2026-05-02T12:14:54.081Z</time></trkpt><trkpt lat="45.419409" lon="10.705475"><ele>68.14285714285714</ele><time>2026-05-02T12:14:56.081Z</time></trkpt><trkpt lat="45.4193867" lon="10.7055728"><ele>68.42857142857143</ele><time>2026-05-02T12:14:58.079Z</time></trkpt><trkpt lat="45.4193591" lon="10.7056764"><ele>68.71428571428572</ele><time>2026-05-02T12:15:00.082Z</time></trkpt><trkpt lat="45.4193346" lon="10.7057814"><ele>69.0</ele><time>2026-05-02T12:15:02.081Z</time></trkpt><trkpt lat="45.4193126" lon="10.7058833"><ele>69.0</ele><time>2026-05-02T12:15:04.081Z</time></trkpt><trkpt lat="45.4192907" lon="10.7059854"><ele>69.0</ele><time>2026-05-02T12:15:06.079Z</time></trkpt><trkpt lat="45.4192749" lon="10.7060913"><ele>69.0</ele><time>2026-05-02T12:15:08.08Z</time></trkpt><trkpt lat="45.4192564" lon="10.7061984"><ele>69.0</ele><time>2026-05-02T12:15:10.082Z</time></trkpt><trkpt lat="45.4192401" lon="10.7063041"><ele>69.0</ele><time>2026-05-02T12:15:12.08Z</time></trkpt><trkpt lat="45.4192216" lon="10.7064005"><ele>69.0</ele><time>2026-05-02T12:15:14.081Z</time></trkpt><trkpt lat="45.4192022" lon="10.7064943"><ele>69.0</ele><time>2026-05-02T12:15:16.082Z</time></trkpt><trkpt lat="45.419182" lon="10.7066307"><ele>69.0</ele><time>2026-05-02T12:15:19.081Z</time></trkpt><trkpt lat="45.4191682" lon="10.7067192"><ele>69.0</ele><time>2026-05-02T12:15:21.082Z</time></trkpt><trkpt lat="45.4191523" lon="10.7068133"><ele>69.0</ele><time>2026-05-02T12:15:23.081Z</time></trkpt><trkpt lat="45.4191366" lon="10.7069096"><ele>69.0</ele><time>2026-05-02T12:15:25.08Z</time></trkpt><trkpt lat="45.419121" lon="10.7070078"><ele>69.0</ele><time>2026-05-02T12:15:27.081Z</time></trkpt><trkpt lat="45.4191012" lon="10.7071009"><ele>69.0</ele><time>2026-05-02T12:15:29.081Z</time></trkpt><trkpt lat="45.4190651" lon="10.7073042"><ele>69.33333333333333</ele><time>2026-05-02T12:15:33.08Z</time></trkpt><trkpt lat="45.4190443" lon="10.7074119"><ele>69.66666666666667</ele><time>2026-05-02T12:15:35.079Z</time></trkpt><trkpt lat="45.4190221" lon="10.7075203"><ele>70.0</ele><time>2026-05-02T12:15:37.082Z</time></trkpt><trkpt lat="45.4189996" lon="10.7076272"><ele>70.33333333333334</ele><time>2026-05-02T12:15:39.08Z</time></trkpt><trkpt lat="45.4189751" lon="10.7077341"><ele>70.66666666666667</ele><time>2026-05-02T12:15:41.081Z</time></trkpt><trkpt lat="45.4189564" lon="10.7078404"><ele>71.0</ele><time>2026-05-02T12:15:43.082Z</time></trkpt><trkpt lat="45.4189357" lon="10.7079509"><ele>71.0</ele><time>2026-05-02T12:15:45.081Z</time></trkpt><trkpt lat="45.4189159" lon="10.7080647"><ele>71.0</ele><time>2026-05-02T12:15:47.081Z</time></trkpt><trkpt lat="45.4188962" lon="10.7081733"><ele>71.0</ele><time>2026-05-02T12:15:49.081Z</time></trkpt><trkpt lat="45.4188767" lon="10.7082833"><ele>71.0</ele><time>2026-05-02T12:15:51.081Z</time></trkpt><trkpt lat="45.4188531" lon="10.7083953"><ele>71.0</ele><time>2026-05-02T12:15:53.08Z</time></trkpt><trkpt lat="45.4188309" lon="10.7085074"><ele>71.0</ele><time>2026-05-02T12:15:55.082Z</time></trkpt><trkpt lat="45.4188096" lon="10.7086235"><ele>72.83333333333334</ele><time>2026-05-02T12:15:57.08Z</time></trkpt><trkpt lat="45.4187901" lon="10.7087407"><ele>74.66666666666667</ele><time>2026-05-02T12:15:59.081Z</time></trkpt><trkpt lat="45.4187668" lon="10.7088554"><ele>76.5</ele><time>2026-05-02T12:16:01.081Z</time></trkpt><trkpt lat="45.4187493" lon="10.7089676"><ele>78.33333333333333</ele><time>2026-05-02T12:16:03.079Z</time></trkpt><trkpt lat="45.4187311" lon="10.7090739"><ele>80.16666666666666</ele><time>2026-05-02T12:16:05.082Z</time></trkpt><trkpt lat="45.4187069" lon="10.7091714"><ele>82.0</ele><time>2026-05-02T12:16:07.081Z</time></trkpt><trkpt lat="45.4186828" lon="10.7092693"><ele>82.0</ele><time>2026-05-02T12:16:09.082Z</time></trkpt><trkpt lat="45.418663" lon="10.7093677"><ele>82.0</ele><time>2026-05-02T12:16:11.082Z</time></trkpt><trkpt lat="45.4186472" lon="10.7094751"><ele>82.0</ele><time>2026-05-02T12:16:13.081Z</time></trkpt><trkpt lat="45.4186258" lon="10.7095843"><ele>82.0</ele><time>2026-05-02T12:16:15.08Z</time></trkpt><trkpt lat="45.4186049" lon="10.7096968"><ele>82.0</ele><time>2026-05-02T12:16:17.082Z</time></trkpt><trkpt lat="45.4185806" lon="10.709808"><ele>82.0</ele><time>2026-05-02T12:16:19.081Z</time></trkpt><trkpt lat="45.4185591" lon="10.7099176"><ele>81.83333333333333</ele><time>2026-05-02T12:16:21.08Z</time></trkpt><trkpt lat="45.4185419" lon="10.7100295"><ele>81.66666666666666</ele><time>2026-05-02T12:16:23.08Z</time></trkpt><trkpt lat="45.4185265" lon="10.7101388"><ele>81.5</ele><time>2026-05-02T12:16:25.081Z</time></trkpt><trkpt lat="45.4185085" lon="10.7102418"><ele>81.33333333333333</ele><time>2026-05-02T12:16:27.081Z</time></trkpt><trkpt lat="45.4184969" lon="10.7103513"><ele>81.16666666666667</ele><time>2026-05-02T12:16:29.082Z</time></trkpt><trkpt lat="45.4184771" lon="10.7104594"><ele>81.0</ele><time>2026-05-02T12:16:31.08Z</time></trkpt><trkpt lat="45.4184501" lon="10.7105618"><ele>80.5</ele><time>2026-05-02T12:16:33.08Z</time></trkpt><trkpt lat="45.418425" lon="10.710667"><ele>80.0</ele><time>2026-05-02T12:16:35.081Z</time></trkpt><trkpt lat="45.4184052" lon="10.7107737"><ele>79.5</ele><time>2026-05-02T12:16:37.081Z</time></trkpt><trkpt lat="45.4183869" lon="10.7108778"><ele>79.0</ele><time>2026-05-02T12:16:39.08Z</time></trkpt><trkpt lat="45.4183671" lon="10.7109779"><ele>78.5</ele><time>2026-05-02T12:16:41.081Z</time></trkpt><trkpt lat="45.4183466" lon="10.711082"><ele>78.0</ele><time>2026-05-02T12:16:43.08Z</time></trkpt><trkpt lat="45.4183271" lon="10.7111859"><ele>77.16666666666667</ele><time>2026-05-02T12:16:45.081Z</time></trkpt><trkpt lat="45.4183084" lon="10.7112914"><ele>76.33333333333333</ele><time>2026-05-02T12:16:47.081Z</time></trkpt><trkpt lat="45.4182934" lon="10.7113959"><ele>75.5</ele><time>2026-05-02T12:16:49.08Z</time></trkpt><trkpt lat="45.4182702" lon="10.7114987"><ele>74.66666666666666</ele><time>2026-05-02T12:16:51.08Z</time></trkpt><trkpt lat="45.4182508" lon="10.7116058"><ele>73.83333333333333</ele><time>2026-05-02T12:16:53.081Z</time></trkpt><trkpt lat="45.4182311" lon="10.711714"><ele>73.0</ele><time>2026-05-02T12:16:55.081Z</time></trkpt><trkpt lat="45.4182114" lon="10.7118178"><ele>71.83333333333333</ele><time>2026-05-02T12:16:57.08Z</time></trkpt><trkpt lat="45.4181921" lon="10.711922"><ele>70.66666666666666</ele><time>2026-05-02T12:16:59.08Z</time></trkpt><trkpt lat="45.4181703" lon="10.7120289"><ele>69.5</ele><time>2026-05-02T12:17:01.08Z</time></trkpt><trkpt lat="45.4181482" lon="10.7121372"><ele>68.33333333333333</ele><time>2026-05-02T12:17:03.081Z</time></trkpt><trkpt lat="45.4181231" lon="10.7122468"><ele>67.16666666666667</ele><time>2026-05-02T12:17:05.08Z</time></trkpt><trkpt lat="45.4180963" lon="10.7123537"><ele>66.0</ele><time>2026-05-02T12:17:07.08Z</time></trkpt><trkpt lat="45.4180736" lon="10.7124592"><ele>66.0</ele><time>2026-05-02T12:17:09.08Z</time></trkpt><trkpt lat="45.4180433" lon="10.712575"><ele>66.0</ele><time>2026-05-02T12:17:11.081Z</time></trkpt><trkpt lat="45.4180153" lon="10.7126774"><ele>66.0</ele><time>2026-05-02T12:17:13.08Z</time></trkpt><trkpt lat="45.4179811" lon="10.7127756"><ele>66.0</ele><time>2026-05-02T12:17:15.08Z</time></trkpt><trkpt lat="45.4179421" lon="10.7128617"><ele>66.0</ele><time>2026-05-02T12:17:17.081Z</time></trkpt><trkpt lat="45.4179059" lon="10.7129568"><ele>66.0</ele><time>2026-05-02T12:17:19.081Z</time></trkpt><trkpt lat="45.417872" lon="10.7130478"><ele>66.28571428571428</ele><time>2026-05-02T12:17:21.081Z</time></trkpt><trkpt lat="45.4178338" lon="10.7131424"><ele>66.57142857142857</ele><time>2026-05-02T12:17:23.081Z</time></trkpt><trkpt lat="45.4177923" lon="10.7132281"><ele>66.85714285714286</ele><time>2026-05-02T12:17:25.08Z</time></trkpt><trkpt lat="45.4177498" lon="10.7133143"><ele>67.14285714285714</ele><time>2026-05-02T12:17:27.079Z</time></trkpt><trkpt lat="45.4177147" lon="10.713401"><ele>67.42857142857143</ele><time>2026-05-02T12:17:29.081Z</time></trkpt><trkpt lat="45.4176736" lon="10.7134816"><ele>67.71428571428571</ele><time>2026-05-02T12:17:31.081Z</time></trkpt><trkpt lat="45.4176307" lon="10.7135685"><ele>68.0</ele><time>2026-05-02T12:17:33.081Z</time></trkpt><trkpt lat="45.4175889" lon="10.7136545"><ele>67.99999999999999</ele><time>2026-05-02T12:17:35.08Z</time></trkpt><trkpt lat="45.4175483" lon="10.7137385"><ele>68.0</ele><time>2026-05-02T12:17:37.08Z</time></trkpt><trkpt lat="45.4175048" lon="10.7138184"><ele>68.0</ele><time>2026-05-02T12:17:39.081Z</time></trkpt><trkpt lat="45.4174584" lon="10.7139031"><ele>68.0</ele><time>2026-05-02T12:17:41.08Z</time></trkpt><trkpt lat="45.417414" lon="10.7139873"><ele>68.0</ele><time>2026-05-02T12:17:43.079Z</time></trkpt><trkpt lat="45.4173669" lon="10.7140672"><ele>67.99999999999999</ele><time>2026-05-02T12:17:45.081Z</time></trkpt><trkpt lat="45.4173155" lon="10.714141"><ele>68.0</ele><time>2026-05-02T12:17:47.08Z</time></trkpt><trkpt lat="45.4172661" lon="10.7142144"><ele>67.99999999999999</ele><time>2026-05-02T12:17:49.08Z</time></trkpt><trkpt lat="45.4172188" lon="10.7142823"><ele>68.0</ele><time>2026-05-02T12:17:51.08Z</time></trkpt><trkpt lat="45.417168" lon="10.7143508"><ele>68.0</ele><time>2026-05-02T12:17:53.08Z</time></trkpt><trkpt lat="45.4171159" lon="10.7144256"><ele>68.0</ele><time>2026-05-02T12:17:55.081Z</time></trkpt><trkpt lat="45.4170583" lon="10.7145007"><ele>68.0</ele><time>2026-05-02T12:17:57.08Z</time></trkpt><trkpt lat="45.4170003" lon="10.7145751"><ele>67.99999999999999</ele><time>2026-05-02T12:17:59.081Z</time></trkpt><trkpt lat="45.41694" lon="10.7146479"><ele>68.0</ele><time>2026-05-02T12:18:01.081Z</time></trkpt><trkpt lat="45.4168817" lon="10.7147199"><ele>67.83333333333334</ele><time>2026-05-02T12:18:03.08Z</time></trkpt><trkpt lat="45.4168214" lon="10.7147806"><ele>67.66666666666667</ele><time>2026-05-02T12:18:05.081Z</time></trkpt><trkpt lat="45.4167596" lon="10.7148387"><ele>67.5</ele><time>2026-05-02T12:18:07.079Z</time></trkpt><trkpt lat="45.4166962" lon="10.7148966"><ele>67.33333333333333</ele><time>2026-05-02T12:18:09.08Z</time></trkpt><trkpt lat="45.4166343" lon="10.7149483"><ele>67.16666666666666</ele><time>2026-05-02T12:18:11.081Z</time></trkpt><trkpt lat="45.4165607" lon="10.7150163"><ele>67.0</ele><time>2026-05-02T12:18:14.061Z</time></trkpt><trkpt lat="45.4164831" lon="10.7150861"><ele>67.0</ele><time>2026-05-02T12:18:16.079Z</time></trkpt><trkpt lat="45.4164049" lon="10.7151453"><ele>67.0</ele><time>2026-05-02T12:18:18.079Z</time></trkpt><trkpt lat="45.4163324" lon="10.7151965"><ele>67.0</ele><time>2026-05-02T12:18:20.08Z</time></trkpt><trkpt lat="45.4162629" lon="10.7152431"><ele>67.0</ele><time>2026-05-02T12:18:22.081Z</time></trkpt><trkpt lat="45.4161915" lon="10.7152906"><ele>67.0</ele><time>2026-05-02T12:18:24.081Z</time></trkpt><trkpt lat="45.4161194" lon="10.7153348"><ele>67.0</ele><time>2026-05-02T12:18:26.079Z</time></trkpt><trkpt lat="45.4160491" lon="10.7153767"><ele>67.33333333333333</ele><time>2026-05-02T12:18:28.08Z</time></trkpt><trkpt lat="45.4159787" lon="10.7154172"><ele>67.66666666666666</ele><time>2026-05-02T12:18:30.08Z</time></trkpt><trkpt lat="45.4159066" lon="10.7154596"><ele>68.0</ele><time>2026-05-02T12:18:32.081Z</time></trkpt><trkpt lat="45.4158331" lon="10.7154963"><ele>68.33333333333333</ele><time>2026-05-02T12:18:34.079Z</time></trkpt><trkpt lat="45.4157609" lon="10.7155283"><ele>68.66666666666667</ele><time>2026-05-02T12:18:36.079Z</time></trkpt><trkpt lat="45.4156905" lon="10.7155572"><ele>69.0</ele><time>2026-05-02T12:18:38.08Z</time></trkpt><trkpt lat="45.4156171" lon="10.7155857"><ele>69.0</ele><time>2026-05-02T12:18:40.08Z</time></trkpt><trkpt lat="45.415541" lon="10.7156105"><ele>69.0</ele><time>2026-05-02T12:18:42.079Z</time></trkpt><trkpt lat="45.4154702" lon="10.7156316"><ele>69.0</ele><time>2026-05-02T12:18:44.08Z</time></trkpt><trkpt lat="45.4153972" lon="10.7156511"><ele>69.0</ele><time>2026-05-02T12:18:46.08Z</time></trkpt><trkpt lat="45.4153265" lon="10.7156709"><ele>69.0</ele><time>2026-05-02T12:18:48.079Z</time></trkpt><trkpt lat="45.4152576" lon="10.7156829"><ele>69.0</ele><time>2026-05-02T12:18:50.081Z</time></trkpt><trkpt lat="45.4151894" lon="10.7156968"><ele>69.0</ele><time>2026-05-02T12:18:52.08Z</time></trkpt><trkpt lat="45.4151143" lon="10.7157095"><ele>69.0</ele><time>2026-05-02T12:18:54.08Z</time></trkpt><trkpt lat="45.4150412" lon="10.7157261"><ele>69.0</ele><time>2026-05-02T12:18:56.081Z</time></trkpt><trkpt lat="45.4149717" lon="10.7157346"><ele>69.0</ele><time>2026-05-02T12:18:58.081Z</time></trkpt><trkpt lat="45.4149004" lon="10.7157468"><ele>69.0</ele><time>2026-05-02T12:19:00.081Z</time></trkpt><trkpt lat="45.4148284" lon="10.7157653"><ele>69.0</ele><time>2026-05-02T12:19:02.079Z</time></trkpt><trkpt lat="45.4147602" lon="10.7157836"><ele>69.0</ele><time>2026-05-02T12:19:04.079Z</time></trkpt><trkpt lat="45.4146917" lon="10.7157977"><ele>69.0</ele><time>2026-05-02T12:19:06.081Z</time></trkpt><trkpt lat="45.4146205" lon="10.715806"><ele>68.85714285714286</ele><time>2026-05-02T12:19:08.08Z</time></trkpt><trkpt lat="45.4145448" lon="10.7158207"><ele>68.71428571428572</ele><time>2026-05-02T12:19:10.08Z</time></trkpt><trkpt lat="45.4144743" lon="10.7158241"><ele>68.57142857142857</ele><time>2026-05-02T12:19:12.081Z</time></trkpt><trkpt lat="45.4144015" lon="10.7158441"><ele>68.42857142857143</ele><time>2026-05-02T12:19:14.08Z</time></trkpt><trkpt lat="45.4143274" lon="10.7158647"><ele>68.28571428571428</ele><time>2026-05-02T12:19:16.079Z</time></trkpt><trkpt lat="45.4142543" lon="10.7158833"><ele>68.14285714285714</ele><time>2026-05-02T12:19:18.08Z</time></trkpt><trkpt lat="45.4141807" lon="10.7158938"><ele>68.0</ele><time>2026-05-02T12:19:20.079Z</time></trkpt><trkpt lat="45.414109" lon="10.7158994"><ele>67.99999999999999</ele><time>2026-05-02T12:19:22.079Z</time></trkpt><trkpt lat="45.4140388" lon="10.7159073"><ele>68.0</ele><time>2026-05-02T12:19:24.08Z</time></trkpt><trkpt lat="45.4139662" lon="10.7159178"><ele>68.0</ele><time>2026-05-02T12:19:26.078Z</time></trkpt><trkpt lat="45.4138983" lon="10.7159326"><ele>68.0</ele><time>2026-05-02T12:19:28.08Z</time></trkpt><trkpt lat="45.4138312" lon="10.7159411"><ele>68.0</ele><time>2026-05-02T12:19:30.081Z</time></trkpt><trkpt lat="45.4137592" lon="10.715946"><ele>67.99999999999999</ele><time>2026-05-02T12:19:32.08Z</time></trkpt><trkpt lat="45.4136849" lon="10.7159643"><ele>68.0</ele><time>2026-05-02T12:19:34.08Z</time></trkpt><trkpt lat="45.4136132" lon="10.7159829"><ele>67.42857142857142</ele><time>2026-05-02T12:19:36.079Z</time></trkpt><trkpt lat="45.4135452" lon="10.7160046"><ele>66.85714285714286</ele><time>2026-05-02T12:19:38.079Z</time></trkpt><trkpt lat="45.4134767" lon="10.716027"><ele>66.28571428571428</ele><time>2026-05-02T12:19:40.08Z</time></trkpt><trkpt lat="45.4134044" lon="10.7160363"><ele>65.71428571428571</ele><time>2026-05-02T12:19:42.08Z</time></trkpt><trkpt lat="45.4133272" lon="10.716042"><ele>65.14285714285714</ele><time>2026-05-02T12:19:44.08Z</time></trkpt><trkpt lat="45.413251" lon="10.7160514"><ele>64.57142857142857</ele><time>2026-05-02T12:19:46.079Z</time></trkpt><trkpt lat="45.4131749" lon="10.7160645"><ele>64.0</ele><time>2026-05-02T12:19:48.079Z</time></trkpt><trkpt lat="45.4131042" lon="10.7160749"><ele>64.0</ele><time>2026-05-02T12:19:50.08Z</time></trkpt><trkpt lat="45.4130309" lon="10.7160869"><ele>63.99999999999999</ele><time>2026-05-02T12:19:52.079Z</time></trkpt><trkpt lat="45.4129572" lon="10.7160934"><ele>64.0</ele><time>2026-05-02T12:19:54.08Z</time></trkpt><trkpt lat="45.4128856" lon="10.7161049"><ele>64.0</ele><time>2026-05-02T12:19:56.079Z</time></trkpt><trkpt lat="45.4128138" lon="10.7161131"><ele>63.99999999999999</ele><time>2026-05-02T12:19:58.08Z</time></trkpt><trkpt lat="45.4127412" lon="10.7161252"><ele>64.0</ele><time>2026-05-02T12:20:00.08Z</time></trkpt><trkpt lat="45.4126759" lon="10.7161378"><ele>64.0</ele><time>2026-05-02T12:20:02.08Z</time></trkpt><trkpt lat="45.412605" lon="10.7161483"><ele>63.99999999999999</ele><time>2026-05-02T12:20:04.08Z</time></trkpt><trkpt lat="45.4125336" lon="10.7161599"><ele>64.0</ele><time>2026-05-02T12:20:06.08Z</time></trkpt><trkpt lat="45.4124602" lon="10.7161705"><ele>64.0</ele><time>2026-05-02T12:20:08.079Z</time></trkpt><trkpt lat="45.4123842" lon="10.716184"><ele>64.0</ele><time>2026-05-02T12:20:10.08Z</time></trkpt><trkpt lat="45.4123072" lon="10.7162026"><ele>63.99999999999999</ele><time>2026-05-02T12:20:12.08Z</time></trkpt><trkpt lat="45.4122307" lon="10.7162205"><ele>64.0</ele><time>2026-05-02T12:20:14.079Z</time></trkpt><trkpt lat="45.4121577" lon="10.7162314"><ele>64.0</ele><time>2026-05-02T12:20:16.08Z</time></trkpt><trkpt lat="45.4120842" lon="10.716242"><ele>63.99999999999999</ele><time>2026-05-02T12:20:18.08Z</time></trkpt><trkpt lat="45.4120137" lon="10.7162519"><ele>64.0</ele><time>2026-05-02T12:20:20.079Z</time></trkpt><trkpt lat="45.4119423" lon="10.7162703"><ele>64.0</ele><time>2026-05-02T12:20:22.08Z</time></trkpt><trkpt lat="45.4118692" lon="10.7162879"><ele>63.99999999999999</ele><time>2026-05-02T12:20:24.079Z</time></trkpt><trkpt lat="45.4117953" lon="10.7163023"><ele>64.0</ele><time>2026-05-02T12:20:26.078Z</time></trkpt><trkpt lat="45.4117245" lon="10.7163129"><ele>64.0</ele><time>2026-05-02T12:20:28.08Z</time></trkpt><trkpt lat="45.4116526" lon="10.7163264"><ele>63.99999999999999</ele><time>2026-05-02T12:20:30.079Z</time></trkpt><trkpt lat="45.4115801" lon="10.7163406"><ele>64.0</ele><time>2026-05-02T12:20:32.08Z</time></trkpt><trkpt lat="45.4115036" lon="10.7163499"><ele>64.0</ele><time>2026-05-02T12:20:34.08Z</time></trkpt><trkpt lat="45.4114258" lon="10.7163606"><ele>64.0</ele><time>2026-05-02T12:20:36.079Z</time></trkpt><trkpt lat="45.411347" lon="10.7163739"><ele>63.99999999999999</ele><time>2026-05-02T12:20:38.08Z</time></trkpt><trkpt lat="45.4112701" lon="10.7163908"><ele>64.0</ele><time>2026-05-02T12:20:40.08Z</time></trkpt><trkpt lat="45.4111917" lon="10.7164038"><ele>63.83333333333333</ele><time>2026-05-02T12:20:42.079Z</time></trkpt><trkpt lat="45.4111101" lon="10.7164162"><ele>63.666666666666664</ele><time>2026-05-02T12:20:44.079Z</time></trkpt><trkpt lat="45.4110308" lon="10.7164305"><ele>63.5</ele><time>2026-05-02T12:20:46.079Z</time></trkpt><trkpt lat="45.4109529" lon="10.7164457"><ele>63.33333333333333</ele><time>2026-05-02T12:20:48.079Z</time></trkpt><trkpt lat="45.4108758" lon="10.716452"><ele>63.166666666666664</ele><time>2026-05-02T12:20:50.078Z</time></trkpt><trkpt lat="45.4107926" lon="10.7164624"><ele>63.0</ele><time>2026-05-02T12:20:52.08Z</time></trkpt><trkpt lat="45.4107138" lon="10.7164838"><ele>63.0</ele><time>2026-05-02T12:20:54.079Z</time></trkpt><trkpt lat="45.4106331" lon="10.7164988"><ele>63.0</ele><time>2026-05-02T12:20:56.08Z</time></trkpt><trkpt lat="45.4105599" lon="10.7165046"><ele>63.0</ele><time>2026-05-02T12:20:58.079Z</time></trkpt><trkpt lat="45.410488" lon="10.7165156"><ele>63.0</ele><time>2026-05-02T12:21:00.08Z</time></trkpt><trkpt lat="45.4104148" lon="10.7165246"><ele>63.0</ele><time>2026-05-02T12:21:02.078Z</time></trkpt><trkpt lat="45.4103424" lon="10.7165408"><ele>63.0</ele><time>2026-05-02T12:21:04.08Z</time></trkpt><trkpt lat="45.4102677" lon="10.7165558"><ele>63.0</ele><time>2026-05-02T12:21:06.08Z</time></trkpt><trkpt lat="45.4101937" lon="10.7165718"><ele>62.833333333333336</ele><time>2026-05-02T12:21:08.08Z</time></trkpt><trkpt lat="45.410117" lon="10.7165756"><ele>62.66666666666667</ele><time>2026-05-02T12:21:10.08Z</time></trkpt><trkpt lat="45.4100366" lon="10.7165876"><ele>62.5</ele><time>2026-05-02T12:21:12.079Z</time></trkpt><trkpt lat="45.4099631" lon="10.7166016"><ele>62.333333333333336</ele><time>2026-05-02T12:21:14.079Z</time></trkpt><trkpt lat="45.4098878" lon="10.7166144"><ele>62.16666666666667</ele><time>2026-05-02T12:21:16.08Z</time></trkpt><trkpt lat="45.4098134" lon="10.7166296"><ele>62.0</ele><time>2026-05-02T12:21:18.08Z</time></trkpt><trkpt lat="45.4097453" lon="10.7166434"><ele>62.16666666666667</ele><time>2026-05-02T12:21:20.078Z</time></trkpt><trkpt lat="45.4096558" lon="10.716656"><ele>62.333333333333336</ele><time>2026-05-02T12:21:23.079Z</time></trkpt><trkpt lat="45.4095756" lon="10.716676"><ele>62.5</ele><time>2026-05-02T12:21:26.08Z</time></trkpt><trkpt lat="45.4095064" lon="10.716689"><ele>62.66666666666667</ele><time>2026-05-02T12:21:29.079Z</time></trkpt><trkpt lat="45.4094452" lon="10.7167117"><ele>62.833333333333336</ele><time>2026-05-02T12:21:46.079Z</time></trkpt><trkpt lat="45.4093774" lon="10.7167235"><ele>63.0</ele><time>2026-05-02T12:21:49.078Z</time></trkpt><trkpt lat="45.4093" lon="10.7167412"><ele>63.0</ele><time>2026-05-02T12:21:52.078Z</time></trkpt><trkpt lat="45.409208" lon="10.7167486"><ele>63.0</ele><time>2026-05-02T12:21:55.079Z</time></trkpt><trkpt lat="45.4091441" lon="10.7167579"><ele>63.0</ele><time>2026-05-02T12:21:57.078Z</time></trkpt><trkpt lat="45.4090817" lon="10.7167735"><ele>63.0</ele><time>2026-05-02T12:21:59.078Z</time></trkpt><trkpt lat="45.409018" lon="10.7167852"><ele>63.0</ele><time>2026-05-02T12:22:01.079Z</time></trkpt><trkpt lat="45.4089552" lon="10.716801"><ele>63.0</ele><time>2026-05-02T12:22:03.078Z</time></trkpt><trkpt lat="45.4088889" lon="10.7168078"><ele>63.0</ele><time>2026-05-02T12:22:05.079Z</time></trkpt><trkpt lat="45.408821" lon="10.7168197"><ele>63.285714285714285</ele><time>2026-05-02T12:22:07.078Z</time></trkpt><trkpt lat="45.4087526" lon="10.7168315"><ele>63.57142857142857</ele><time>2026-05-02T12:22:09.078Z</time></trkpt><trkpt lat="45.4086859" lon="10.7168441"><ele>63.85714285714286</ele><time>2026-05-02T12:22:11.077Z</time></trkpt><trkpt lat="45.4086208" lon="10.7168573"><ele>64.14285714285714</ele><time>2026-05-02T12:22:13.079Z</time></trkpt><trkpt lat="45.4085556" lon="10.7168687"><ele>64.42857142857143</ele><time>2026-05-02T12:22:15.079Z</time></trkpt><trkpt lat="45.4084863" lon="10.7168797"><ele>64.71428571428572</ele><time>2026-05-02T12:22:17.079Z</time></trkpt><trkpt lat="45.4084169" lon="10.7168946"><ele>65.0</ele><time>2026-05-02T12:22:19.079Z</time></trkpt><trkpt lat="45.4083452" lon="10.7169101"><ele>65.00000000000001</ele><time>2026-05-02T12:22:21.08Z</time></trkpt><trkpt lat="45.4082727" lon="10.7169317"><ele>65.0</ele><time>2026-05-02T12:22:23.08Z</time></trkpt><trkpt lat="45.4082042" lon="10.7169518"><ele>65.0</ele><time>2026-05-02T12:22:25.078Z</time></trkpt><trkpt lat="45.4081341" lon="10.7169702"><ele>65.0</ele><time>2026-05-02T12:22:27.08Z</time></trkpt><trkpt lat="45.4080624" lon="10.7169867"><ele>65.0</ele><time>2026-05-02T12:22:29.078Z</time></trkpt><trkpt lat="45.4079888" lon="10.7170084"><ele>65.00000000000001</ele><time>2026-05-02T12:22:31.079Z</time></trkpt><trkpt lat="45.4079175" lon="10.7170308"><ele>65.0</ele><time>2026-05-02T12:22:33.079Z</time></trkpt><trkpt lat="45.407845" lon="10.7170513"><ele>65.28571428571429</ele><time>2026-05-02T12:22:35.08Z</time></trkpt><trkpt lat="45.4077761" lon="10.7170808"><ele>65.57142857142857</ele><time>2026-05-02T12:22:37.077Z</time></trkpt><trkpt lat="45.4077044" lon="10.7171114"><ele>65.85714285714286</ele><time>2026-05-02T12:22:39.079Z</time></trkpt><trkpt lat="45.4076324" lon="10.7171407"><ele>66.14285714285714</ele><time>2026-05-02T12:22:41.077Z</time></trkpt><trkpt lat="45.4075612" lon="10.7171703"><ele>66.42857142857143</ele><time>2026-05-02T12:22:43.079Z</time></trkpt><trkpt lat="45.4074906" lon="10.7171985"><ele>66.71428571428572</ele><time>2026-05-02T12:22:45.08Z</time></trkpt><trkpt lat="45.4074212" lon="10.7172229"><ele>67.0</ele><time>2026-05-02T12:22:47.077Z</time></trkpt><trkpt lat="45.4073492" lon="10.7172484"><ele>67.0</ele><time>2026-05-02T12:22:49.079Z</time></trkpt><trkpt lat="45.407279" lon="10.7172842"><ele>67.0</ele><time>2026-05-02T12:22:51.079Z</time></trkpt><trkpt lat="45.4072082" lon="10.7173214"><ele>67.0</ele><time>2026-05-02T12:22:53.079Z</time></trkpt><trkpt lat="45.4071365" lon="10.7173552"><ele>67.0</ele><time>2026-05-02T12:22:55.078Z</time></trkpt><trkpt lat="45.407066" lon="10.7173887"><ele>67.0</ele><time>2026-05-02T12:22:57.079Z</time></trkpt><trkpt lat="45.4069938" lon="10.7174259"><ele>67.0</ele><time>2026-05-02T12:22:59.079Z</time></trkpt><trkpt lat="45.4069178" lon="10.7174576"><ele>66.83333333333333</ele><time>2026-05-02T12:23:01.08Z</time></trkpt><trkpt lat="45.4068461" lon="10.717496"><ele>66.66666666666666</ele><time>2026-05-02T12:23:03.079Z</time></trkpt><trkpt lat="45.4067738" lon="10.7175341"><ele>66.5</ele><time>2026-05-02T12:23:05.079Z</time></trkpt><trkpt lat="45.406703" lon="10.7175734"><ele>66.33333333333333</ele><time>2026-05-02T12:23:07.079Z</time></trkpt><trkpt lat="45.4066341" lon="10.717606"><ele>66.16666666666667</ele><time>2026-05-02T12:23:09.079Z</time></trkpt><trkpt lat="45.40656" lon="10.7176394"><ele>66.0</ele><time>2026-05-02T12:23:11.08Z</time></trkpt><trkpt lat="45.4064833" lon="10.717674"><ele>66.0</ele><time>2026-05-02T12:23:13.078Z</time></trkpt><trkpt lat="45.4064064" lon="10.7177078"><ele>66.0</ele><time>2026-05-02T12:23:15.077Z</time></trkpt><trkpt lat="45.4063281" lon="10.7177351"><ele>66.0</ele><time>2026-05-02T12:23:17.08Z</time></trkpt><trkpt lat="45.406252" lon="10.7177626"><ele>66.0</ele><time>2026-05-02T12:23:19.08Z</time></trkpt><trkpt lat="45.4061761" lon="10.7177927"><ele>66.0</ele><time>2026-05-02T12:23:21.078Z</time></trkpt><trkpt lat="45.4061004" lon="10.7178201"><ele>66.0</ele><time>2026-05-02T12:23:23.079Z</time></trkpt><trkpt lat="45.4060252" lon="10.7178517"><ele>66.33333333333333</ele><time>2026-05-02T12:23:25.079Z</time></trkpt><trkpt lat="45.4059504" lon="10.717877"><ele>66.66666666666667</ele><time>2026-05-02T12:23:27.079Z</time></trkpt><trkpt lat="45.4058739" lon="10.7178976"><ele>67.0</ele><time>2026-05-02T12:23:29.078Z</time></trkpt><trkpt lat="45.4057964" lon="10.717918"><ele>67.33333333333334</ele><time>2026-05-02T12:23:31.078Z</time></trkpt><trkpt lat="45.4057202" lon="10.7179341"><ele>67.66666666666667</ele><time>2026-05-02T12:23:33.08Z</time></trkpt><trkpt lat="45.4056443" lon="10.717951"><ele>68.0</ele><time>2026-05-02T12:23:35.079Z</time></trkpt><trkpt lat="45.4055675" lon="10.7179732"><ele>67.5</ele><time>2026-05-02T12:23:37.079Z</time></trkpt><trkpt lat="45.4054909" lon="10.717991"><ele>67.0</ele><time>2026-05-02T12:23:39.079Z</time></trkpt><trkpt lat="45.4054087" lon="10.7180063"><ele>66.5</ele><time>2026-05-02T12:23:41.079Z</time></trkpt><trkpt lat="45.4053237" lon="10.7180234"><ele>66.0</ele><time>2026-05-02T12:23:43.079Z</time></trkpt><trkpt lat="45.405244" lon="10.7180357"><ele>65.5</ele><time>2026-05-02T12:23:45.077Z</time></trkpt><trkpt lat="45.4051739" lon="10.7180454"><ele>65.0</ele><time>2026-05-02T12:23:47.078Z</time></trkpt><trkpt lat="45.4051011" lon="10.7180519"><ele>65.0</ele><time>2026-05-02T12:23:49.079Z</time></trkpt><trkpt lat="45.4050245" lon="10.7180578"><ele>65.0</ele><time>2026-05-02T12:23:51.079Z</time></trkpt><trkpt lat="45.4049467" lon="10.7180647"><ele>65.0</ele><time>2026-05-02T12:23:53.079Z</time></trkpt><trkpt lat="45.4048699" lon="10.7180666"><ele>65.0</ele><time>2026-05-02T12:23:55.079Z</time></trkpt><trkpt lat="45.4047936" lon="10.718068"><ele>65.0</ele><time>2026-05-02T12:23:57.079Z</time></trkpt><trkpt lat="45.4047162" lon="10.7180714"><ele>65.0</ele><time>2026-05-02T12:23:59.077Z</time></trkpt><trkpt lat="45.4046398" lon="10.7180732"><ele>65.0</ele><time>2026-05-02T12:24:01.078Z</time></trkpt><trkpt lat="45.404562" lon="10.7180742"><ele>65.0</ele><time>2026-05-02T12:24:03.077Z</time></trkpt><trkpt lat="45.4044826" lon="10.7180761"><ele>65.0</ele><time>2026-05-02T12:24:05.077Z</time></trkpt><trkpt lat="45.404404" lon="10.7180735"><ele>65.0</ele><time>2026-05-02T12:24:07.077Z</time></trkpt><trkpt lat="45.4043251" lon="10.7180724"><ele>65.0</ele><time>2026-05-02T12:24:09.077Z</time></trkpt><trkpt lat="45.4042467" lon="10.7180696"><ele>65.0</ele><time>2026-05-02T12:24:11.079Z</time></trkpt><trkpt lat="45.4041666" lon="10.7180678"><ele>65.0</ele><time>2026-05-02T12:24:13.077Z</time></trkpt><trkpt lat="45.4040825" lon="10.7180614"><ele>65.0</ele><time>2026-05-02T12:24:15.078Z</time></trkpt><trkpt lat="45.4040032" lon="10.7180553"><ele>65.0</ele><time>2026-05-02T12:24:17.079Z</time></trkpt><trkpt lat="45.4039232" lon="10.7180479"><ele>65.0</ele><time>2026-05-02T12:24:19.078Z</time></trkpt><trkpt lat="45.4038429" lon="10.7180352"><ele>65.0</ele><time>2026-05-02T12:24:21.078Z</time></trkpt><trkpt lat="45.4037608" lon="10.7180234"><ele>65.0</ele><time>2026-05-02T12:24:23.079Z</time></trkpt><trkpt lat="45.403678" lon="10.7180068"><ele>65.0</ele><time>2026-05-02T12:24:25.077Z</time></trkpt><trkpt lat="45.4035945" lon="10.7179837"><ele>65.0</ele><time>2026-05-02T12:24:27.079Z</time></trkpt><trkpt lat="45.4035161" lon="10.7179683"><ele>65.0</ele><time>2026-05-02T12:24:29.079Z</time></trkpt><trkpt lat="45.403436" lon="10.7179513"><ele>65.0</ele><time>2026-05-02T12:24:31.078Z</time></trkpt><trkpt lat="45.4033591" lon="10.7179347"><ele>65.0</ele><time>2026-05-02T12:24:33.079Z</time></trkpt><trkpt lat="45.4032901" lon="10.717923"><ele>65.0</ele><time>2026-05-02T12:24:35.077Z</time></trkpt><trkpt lat="45.4032204" lon="10.7179072"><ele>65.00000000000001</ele><time>2026-05-02T12:24:37.078Z</time></trkpt><trkpt lat="45.40315" lon="10.7178914"><ele>65.0</ele><time>2026-05-02T12:24:39.078Z</time></trkpt><trkpt lat="45.4030774" lon="10.717871"><ele>65.0</ele><time>2026-05-02T12:24:41.079Z</time></trkpt><trkpt lat="45.4030075" lon="10.7178483"><ele>65.0</ele><time>2026-05-02T12:24:43.078Z</time></trkpt><trkpt lat="45.4029414" lon="10.7178231"><ele>65.0</ele><time>2026-05-02T12:24:45.078Z</time></trkpt><trkpt lat="45.4028759" lon="10.7178036"><ele>65.00000000000001</ele><time>2026-05-02T12:24:47.078Z</time></trkpt><trkpt lat="45.402812" lon="10.7177795"><ele>65.0</ele><time>2026-05-02T12:24:49.078Z</time></trkpt><trkpt lat="45.4027515" lon="10.7177537"><ele>64.83333333333334</ele><time>2026-05-02T12:24:51.077Z</time></trkpt><trkpt lat="45.4026708" lon="10.7177242"><ele>64.66666666666667</ele><time>2026-05-02T12:24:54.077Z</time></trkpt><trkpt lat="45.4026004" lon="10.7176929"><ele>64.5</ele><time>2026-05-02T12:26:04.078Z</time></trkpt><trkpt lat="45.4025339" lon="10.7176679"><ele>64.33333333333333</ele><time>2026-05-02T12:26:07.079Z</time></trkpt><trkpt lat="45.402455" lon="10.7176455"><ele>64.16666666666666</ele><time>2026-05-02T12:26:10.079Z</time></trkpt><trkpt lat="45.4023676" lon="10.717617"><ele>64.0</ele><time>2026-05-02T12:26:13.079Z</time></trkpt><trkpt lat="45.4022838" lon="10.7175753"><ele>64.0</ele><time>2026-05-02T12:26:16.078Z</time></trkpt><trkpt lat="45.402196" lon="10.7175391"><ele>63.99999999999999</ele><time>2026-05-02T12:26:19.078Z</time></trkpt><trkpt lat="45.4021353" lon="10.7175112"><ele>64.0</ele><time>2026-05-02T12:26:21.077Z</time></trkpt><trkpt lat="45.4020673" lon="10.7174821"><ele>64.0</ele><time>2026-05-02T12:26:23.077Z</time></trkpt><trkpt lat="45.4019966" lon="10.717454"><ele>63.99999999999999</ele><time>2026-05-02T12:26:25.077Z</time></trkpt><trkpt lat="45.4019263" lon="10.7174291"><ele>64.0</ele><time>2026-05-02T12:26:27.078Z</time></trkpt><trkpt lat="45.4018557" lon="10.7174043"><ele>64.0</ele><time>2026-05-02T12:26:29.079Z</time></trkpt><trkpt lat="45.4017835" lon="10.7173773"><ele>64.28571428571428</ele><time>2026-05-02T12:26:31.078Z</time></trkpt><trkpt lat="45.4017134" lon="10.717345"><ele>64.57142857142857</ele><time>2026-05-02T12:26:33.078Z</time></trkpt><trkpt lat="45.4016451" lon="10.7173151"><ele>64.85714285714286</ele><time>2026-05-02T12:26:35.078Z</time></trkpt><trkpt lat="45.4015705" lon="10.7172945"><ele>65.14285714285714</ele><time>2026-05-02T12:26:37.078Z</time></trkpt><trkpt lat="45.4014958" lon="10.7172663"><ele>65.42857142857143</ele><time>2026-05-02T12:26:39.079Z</time></trkpt><trkpt lat="45.4014205" lon="10.7172377"><ele>65.71428571428571</ele><time>2026-05-02T12:26:41.079Z</time></trkpt><trkpt lat="45.4013498" lon="10.7172275"><ele>66.0</ele><time>2026-05-02T12:26:43.077Z</time></trkpt><trkpt lat="45.4012835" lon="10.7172068"><ele>66.0</ele><time>2026-05-02T12:26:45.077Z</time></trkpt><trkpt lat="45.4012015" lon="10.7171668"><ele>66.0</ele><time>2026-05-02T12:26:47.609Z</time></trkpt><trkpt lat="45.4011258" lon="10.7171308"><ele>66.0</ele><time>2026-05-02T12:26:50.005Z</time></trkpt><trkpt lat="45.4010605" lon="10.7171084"><ele>66.0</ele><time>2026-05-02T12:26:51.078Z</time></trkpt><trkpt lat="45.4009831" lon="10.7170821"><ele>66.0</ele><time>2026-05-02T12:26:53.078Z</time></trkpt><trkpt lat="45.4009064" lon="10.7170625"><ele>66.0</ele><time>2026-05-02T12:26:55.079Z</time></trkpt><trkpt lat="45.4008018" lon="10.7170281"><ele>66.0</ele><time>2026-05-02T12:26:58.077Z</time></trkpt><trkpt lat="45.4007396" lon="10.7170028"><ele>66.0</ele><time>2026-05-02T12:27:00.078Z</time></trkpt><trkpt lat="45.4006695" lon="10.716979"><ele>66.0</ele><time>2026-05-02T12:27:02.077Z</time></trkpt><trkpt lat="45.4005947" lon="10.7169539"><ele>66.0</ele><time>2026-05-02T12:27:04.078Z</time></trkpt><trkpt lat="45.4005245" lon="10.7169385"><ele>66.0</ele><time>2026-05-02T12:27:06.078Z</time></trkpt><trkpt lat="45.4004565" lon="10.7169031"><ele>66.0</ele><time>2026-05-02T12:27:08.078Z</time></trkpt><trkpt lat="45.4003891" lon="10.7168776"><ele>66.0</ele><time>2026-05-02T12:27:10.078Z</time></trkpt><trkpt lat="45.4003178" lon="10.7168473"><ele>66.0</ele><time>2026-05-02T12:27:12.078Z</time></trkpt><trkpt lat="45.4002465" lon="10.7168241"><ele>66.0</ele><time>2026-05-02T12:27:14.077Z</time></trkpt><trkpt lat="45.400164" lon="10.716787"><ele>66.0</ele><time>2026-05-02T12:27:16.078Z</time></trkpt><trkpt lat="45.4000947" lon="10.7167606"><ele>66.0</ele><time>2026-05-02T12:27:18.078Z</time></trkpt><trkpt lat="45.4000243" lon="10.71674"><ele>66.0</ele><time>2026-05-02T12:27:20.078Z</time></trkpt><trkpt lat="45.3999561" lon="10.7167153"><ele>66.0</ele><time>2026-05-02T12:27:22.076Z</time></trkpt><trkpt lat="45.3998865" lon="10.7166833"><ele>66.0</ele><time>2026-05-02T12:27:24.078Z</time></trkpt><trkpt lat="45.3998117" lon="10.7166486"><ele>66.0</ele><time>2026-05-02T12:27:26.077Z</time></trkpt><trkpt lat="45.3997403" lon="10.7166179"><ele>66.0</ele><time>2026-05-02T12:27:28.079Z</time></trkpt><trkpt lat="45.3996669" lon="10.7165966"><ele>66.0</ele><time>2026-05-02T12:27:30.079Z</time></trkpt><trkpt lat="45.3995959" lon="10.7165704"><ele>66.0</ele><time>2026-05-02T12:27:32.077Z</time></trkpt><trkpt lat="45.3995219" lon="10.7165404"><ele>66.0</ele><time>2026-05-02T12:27:34.077Z</time></trkpt><trkpt lat="45.3994431" lon="10.71651"><ele>66.0</ele><time>2026-05-02T12:27:36.077Z</time></trkpt><trkpt lat="45.3993639" lon="10.7164723"><ele>66.33333333333333</ele><time>2026-05-02T12:27:38.077Z</time></trkpt><trkpt lat="45.3992842" lon="10.7164411"><ele>66.66666666666667</ele><time>2026-05-02T12:27:40.079Z</time></trkpt><trkpt lat="45.3992038" lon="10.7164102"><ele>67.0</ele><time>2026-05-02T12:27:42.077Z</time></trkpt><trkpt lat="45.3991243" lon="10.7163934"><ele>67.33333333333334</ele><time>2026-05-02T12:27:44.076Z</time></trkpt><trkpt lat="45.3990448" lon="10.7163674"><ele>67.66666666666667</ele><time>2026-05-02T12:27:46.077Z</time></trkpt><trkpt lat="45.3989654" lon="10.7163391"><ele>68.0</ele><time>2026-05-02T12:27:48.078Z</time></trkpt><trkpt lat="45.3988942" lon="10.7163055"><ele>68.16666666666667</ele><time>2026-05-02T12:27:50.077Z</time></trkpt><trkpt lat="45.3988286" lon="10.7162772"><ele>68.33333333333334</ele><time>2026-05-02T12:27:52.078Z</time></trkpt><trkpt lat="45.3987475" lon="10.716255"><ele>68.5</ele><time>2026-05-02T12:27:54.078Z</time></trkpt><trkpt lat="45.3986819" lon="10.7162301"><ele>68.66666666666667</ele><time>2026-05-02T12:27:56.078Z</time></trkpt><trkpt lat="45.3986071" lon="10.7162086"><ele>68.83333333333333</ele><time>2026-05-02T12:27:58.077Z</time></trkpt><trkpt lat="45.3985247" lon="10.7161782"><ele>69.0</ele><time>2026-05-02T12:28:00.077Z</time></trkpt><trkpt lat="45.3984396" lon="10.7161446"><ele>69.0</ele><time>2026-05-02T12:28:02.077Z</time></trkpt><trkpt lat="45.398364" lon="10.7160998"><ele>69.0</ele><time>2026-05-02T12:28:04.076Z</time></trkpt><trkpt lat="45.3982872" lon="10.7160675"><ele>69.0</ele><time>2026-05-02T12:28:06.078Z</time></trkpt><trkpt lat="45.3982208" lon="10.7160259"><ele>69.0</ele><time>2026-05-02T12:28:08.076Z</time></trkpt><trkpt lat="45.3981461" lon="10.7159891"><ele>69.0</ele><time>2026-05-02T12:28:10.077Z</time></trkpt><trkpt lat="45.3980619" lon="10.7159569"><ele>69.0</ele><time>2026-05-02T12:28:12.077Z</time></trkpt><trkpt lat="45.397982" lon="10.7159191"><ele>68.83333333333333</ele><time>2026-05-02T12:28:14.077Z</time></trkpt><trkpt lat="45.3979086" lon="10.7158798"><ele>68.66666666666667</ele><time>2026-05-02T12:28:16.077Z</time></trkpt><trkpt lat="45.3978399" lon="10.7158347"><ele>68.5</ele><time>2026-05-02T12:28:18.078Z</time></trkpt><trkpt lat="45.397767" lon="10.7157896"><ele>68.33333333333334</ele><time>2026-05-02T12:28:20.077Z</time></trkpt><trkpt lat="45.3977001" lon="10.7157523"><ele>68.16666666666667</ele><time>2026-05-02T12:28:22.078Z</time></trkpt><trkpt lat="45.3976438" lon="10.7156947"><ele>68.0</ele><time>2026-05-02T12:28:24.078Z</time></trkpt><trkpt lat="45.3975723" lon="10.7156495"><ele>68.0</ele><time>2026-05-02T12:28:26.077Z</time></trkpt><trkpt lat="45.3975047" lon="10.7155924"><ele>68.0</ele><time>2026-05-02T12:28:28.078Z</time></trkpt><trkpt lat="45.3974301" lon="10.7155449"><ele>68.0</ele><time>2026-05-02T12:28:30.078Z</time></trkpt><trkpt lat="45.3973588" lon="10.7154963"><ele>68.0</ele><time>2026-05-02T12:28:32.078Z</time></trkpt><trkpt lat="45.3972864" lon="10.7154553"><ele>68.0</ele><time>2026-05-02T12:28:34.077Z</time></trkpt><trkpt lat="45.397224" lon="10.7154047"><ele>68.0</ele><time>2026-05-02T12:28:36.078Z</time></trkpt><trkpt lat="45.3971612" lon="10.7153465"><ele>68.14285714285714</ele><time>2026-05-02T12:28:38.076Z</time></trkpt><trkpt lat="45.3971016" lon="10.7152885"><ele>68.28571428571428</ele><time>2026-05-02T12:28:40.078Z</time></trkpt><trkpt lat="45.3970441" lon="10.7152402"><ele>68.42857142857143</ele><time>2026-05-02T12:28:42.078Z</time></trkpt><trkpt lat="45.3969848" lon="10.7151923"><ele>68.57142857142857</ele><time>2026-05-02T12:28:44.077Z</time></trkpt><trkpt lat="45.3969227" lon="10.7151418"><ele>68.71428571428572</ele><time>2026-05-02T12:28:46.078Z</time></trkpt><trkpt lat="45.3968618" lon="10.7150812"><ele>68.85714285714286</ele><time>2026-05-02T12:28:48.078Z</time></trkpt><trkpt lat="45.3967997" lon="10.7150226"><ele>69.0</ele><time>2026-05-02T12:28:50.077Z</time></trkpt><trkpt lat="45.3967378" lon="10.7149619"><ele>68.14285714285714</ele><time>2026-05-02T12:28:52.078Z</time></trkpt><trkpt lat="45.3966782" lon="10.7148974"><ele>67.28571428571429</ele><time>2026-05-02T12:28:54.078Z</time></trkpt><trkpt lat="45.3966236" lon="10.7148277"><ele>66.42857142857143</ele><time>2026-05-02T12:28:56.077Z</time></trkpt><trkpt lat="45.3965656" lon="10.714766"><ele>65.57142857142857</ele><time>2026-05-02T12:28:58.077Z</time></trkpt><trkpt lat="45.3965123" lon="10.7147009"><ele>64.71428571428572</ele><time>2026-05-02T12:29:00.077Z</time></trkpt><trkpt lat="45.3964592" lon="10.7146355"><ele>63.85714285714286</ele><time>2026-05-02T12:29:02.078Z</time></trkpt><trkpt lat="45.3964019" lon="10.7145667"><ele>63.0</ele><time>2026-05-02T12:29:04.078Z</time></trkpt><trkpt lat="45.3963491" lon="10.7144919"><ele>63.333333333333336</ele><time>2026-05-02T12:29:06.078Z</time></trkpt><trkpt lat="45.3962926" lon="10.7144154"><ele>63.66666666666667</ele><time>2026-05-02T12:29:08.077Z</time></trkpt><trkpt lat="45.3962355" lon="10.7143408"><ele>64.0</ele><time>2026-05-02T12:29:10.077Z</time></trkpt><trkpt lat="45.3961795" lon="10.7142661"><ele>64.33333333333334</ele><time>2026-05-02T12:29:12.077Z</time></trkpt><trkpt lat="45.3961247" lon="10.7141908"><ele>64.66666666666667</ele><time>2026-05-02T12:29:14.076Z</time></trkpt><trkpt lat="45.3960719" lon="10.7141137"><ele>65.0</ele><time>2026-05-02T12:29:16.077Z</time></trkpt><trkpt lat="45.3960117" lon="10.7140231"><ele>65.0</ele><time>2026-05-02T12:29:19.085Z</time></trkpt><trkpt lat="45.3959185" lon="10.7138835"><ele>65.0</ele><time>2026-05-02T12:29:22.078Z</time></trkpt><trkpt lat="45.3958671" lon="10.7137977"><ele>65.0</ele><time>2026-05-02T12:29:24.078Z</time></trkpt><trkpt lat="45.3958151" lon="10.7137091"><ele>65.0</ele><time>2026-05-02T12:29:26.077Z</time></trkpt><trkpt lat="45.3957614" lon="10.7136183"><ele>65.0</ele><time>2026-05-02T12:29:28.076Z</time></trkpt><trkpt lat="45.3957083" lon="10.713529"><ele>64.85714285714286</ele><time>2026-05-02T12:29:30.076Z</time></trkpt><trkpt lat="45.3956605" lon="10.7134399"><ele>64.71428571428572</ele><time>2026-05-02T12:29:32.077Z</time></trkpt><trkpt lat="45.3956167" lon="10.7133525"><ele>64.57142857142857</ele><time>2026-05-02T12:29:34.077Z</time></trkpt><trkpt lat="45.3955743" lon="10.7132704"><ele>64.42857142857143</ele><time>2026-05-02T12:29:36.076Z</time></trkpt><trkpt lat="45.3955341" lon="10.7131869"><ele>64.28571428571428</ele><time>2026-05-02T12:29:38.076Z</time></trkpt><trkpt lat="45.3954943" lon="10.713105"><ele>64.14285714285714</ele><time>2026-05-02T12:29:40.076Z</time></trkpt><trkpt lat="45.3954553" lon="10.7130182"><ele>64.0</ele><time>2026-05-02T12:29:42.077Z</time></trkpt><trkpt lat="45.3954161" lon="10.7129319"><ele>64.16666666666666</ele><time>2026-05-02T12:29:44.078Z</time></trkpt><trkpt lat="45.3953779" lon="10.7128384"><ele>64.33333333333333</ele><time>2026-05-02T12:29:46.077Z</time></trkpt><trkpt lat="45.3953399" lon="10.7127438"><ele>64.5</ele><time>2026-05-02T12:29:48.077Z</time></trkpt><trkpt lat="45.3953021" lon="10.7126499"><ele>64.66666666666667</ele><time>2026-05-02T12:29:50.076Z</time></trkpt><trkpt lat="45.3952652" lon="10.7125561"><ele>64.83333333333334</ele><time>2026-05-02T12:29:52.077Z</time></trkpt><trkpt lat="45.3952283" lon="10.7124646"><ele>65.0</ele><time>2026-05-02T12:29:54.076Z</time></trkpt><trkpt lat="45.3951929" lon="10.7123703"><ele>65.0</ele><time>2026-05-02T12:29:56.077Z</time></trkpt><trkpt lat="45.3951608" lon="10.7122764"><ele>65.0</ele><time>2026-05-02T12:29:58.076Z</time></trkpt><trkpt lat="45.3951286" lon="10.7121797"><ele>65.0</ele><time>2026-05-02T12:30:00.077Z</time></trkpt><trkpt lat="45.3950973" lon="10.7120811"><ele>65.0</ele><time>2026-05-02T12:30:02.077Z</time></trkpt><trkpt lat="45.3950668" lon="10.7119826"><ele>65.0</ele><time>2026-05-02T12:30:04.076Z</time></trkpt><trkpt lat="45.3950408" lon="10.7118831"><ele>65.0</ele><time>2026-05-02T12:30:06.077Z</time></trkpt><trkpt lat="45.3950091" lon="10.7117829"><ele>64.83333333333334</ele><time>2026-05-02T12:30:08.077Z</time></trkpt><trkpt lat="45.3949821" lon="10.7116853"><ele>64.66666666666667</ele><time>2026-05-02T12:30:10.078Z</time></trkpt><trkpt lat="45.394955" lon="10.7115908"><ele>64.5</ele><time>2026-05-02T12:30:12.077Z</time></trkpt><trkpt lat="45.3949094" lon="10.7115029"><ele>64.33333333333333</ele><time>2026-05-02T12:30:14.076Z</time></trkpt><trkpt lat="45.3948552" lon="10.7114264"><ele>64.16666666666666</ele><time>2026-05-02T12:30:16.076Z</time></trkpt><trkpt lat="45.3947909" lon="10.7113624"><ele>64.0</ele><time>2026-05-02T12:30:18.078Z</time></trkpt><trkpt lat="45.3947194" lon="10.7113188"><ele>63.71428571428571</ele><time>2026-05-02T12:30:20.077Z</time></trkpt><trkpt lat="45.3946473" lon="10.7113025"><ele>63.42857142857142</ele><time>2026-05-02T12:30:22.076Z</time></trkpt><trkpt lat="45.3945761" lon="10.7113226"><ele>63.14285714285714</ele><time>2026-05-02T12:30:24.077Z</time></trkpt><trkpt lat="45.3945076" lon="10.7113565"><ele>62.85714285714286</ele><time>2026-05-02T12:30:26.077Z</time></trkpt><trkpt lat="45.3944396" lon="10.7113917"><ele>62.57142857142858</ele><time>2026-05-02T12:30:28.078Z</time></trkpt><trkpt lat="45.394369" lon="10.7114302"><ele>62.28571428571429</ele><time>2026-05-02T12:30:30.078Z</time></trkpt><trkpt lat="45.3943025" lon="10.7114736"><ele>62.0</ele><time>2026-05-02T12:30:32.076Z</time></trkpt><trkpt lat="45.3942378" lon="10.7115107"><ele>62.0</ele><time>2026-05-02T12:30:34.076Z</time></trkpt><trkpt lat="45.3941768" lon="10.7115448"><ele>62.00000000000001</ele><time>2026-05-02T12:30:36.076Z</time></trkpt><trkpt lat="45.3941129" lon="10.7115787"><ele>62.0</ele><time>2026-05-02T12:30:38.076Z</time></trkpt><trkpt lat="45.3940467" lon="10.7116185"><ele>62.0</ele><time>2026-05-02T12:30:40.078Z</time></trkpt><trkpt lat="45.3939746" lon="10.7116556"><ele>62.00000000000001</ele><time>2026-05-02T12:30:42.078Z</time></trkpt><trkpt lat="45.3939023" lon="10.7116934"><ele>62.0</ele><time>2026-05-02T12:30:44.078Z</time></trkpt><trkpt lat="45.3938319" lon="10.7117364"><ele>62.0</ele><time>2026-05-02T12:30:46.078Z</time></trkpt><trkpt lat="45.3937607" lon="10.7117791"><ele>62.57142857142858</ele><time>2026-05-02T12:30:48.077Z</time></trkpt><trkpt lat="45.3937024" lon="10.7118206"><ele>63.14285714285715</ele><time>2026-05-02T12:30:50.078Z</time></trkpt><trkpt lat="45.393637" lon="10.7118649"><ele>63.714285714285715</ele><time>2026-05-02T12:30:52.077Z</time></trkpt><trkpt lat="45.3935665" lon="10.7119026"><ele>64.28571428571429</ele><time>2026-05-02T12:30:54.078Z</time></trkpt><trkpt lat="45.3934967" lon="10.7119292"><ele>64.85714285714286</ele><time>2026-05-02T12:30:56.076Z</time></trkpt><trkpt lat="45.3934304" lon="10.7119656"><ele>65.42857142857143</ele><time>2026-05-02T12:30:58.076Z</time></trkpt><trkpt lat="45.3933638" lon="10.7120017"><ele>66.0</ele><time>2026-05-02T12:31:00.078Z</time></trkpt><trkpt lat="45.3932963" lon="10.7120496"><ele>66.14285714285714</ele><time>2026-05-02T12:31:02.077Z</time></trkpt><trkpt lat="45.3932284" lon="10.7121006"><ele>66.28571428571429</ele><time>2026-05-02T12:31:04.075Z</time></trkpt><trkpt lat="45.3931669" lon="10.7121599"><ele>66.42857142857143</ele><time>2026-05-02T12:31:06.078Z</time></trkpt><trkpt lat="45.3931086" lon="10.7122173"><ele>66.57142857142857</ele><time>2026-05-02T12:31:08.076Z</time></trkpt><trkpt lat="45.3930475" lon="10.7122537"><ele>66.71428571428571</ele><time>2026-05-02T12:31:10.078Z</time></trkpt><trkpt lat="45.3929773" lon="10.7122609"><ele>66.85714285714286</ele><time>2026-05-02T12:31:12.077Z</time></trkpt><trkpt lat="45.3929106" lon="10.7122182"><ele>67.0</ele><time>2026-05-02T12:31:14.076Z</time></trkpt><trkpt lat="45.3928799" lon="10.7121176"><ele>67.0</ele><time>2026-05-02T12:31:16.078Z</time></trkpt><trkpt lat="45.3928965" lon="10.7120028"><ele>67.0</ele><time>2026-05-02T12:31:18.076Z</time></trkpt><trkpt lat="45.3929739" lon="10.7119431"><ele>67.0</ele><time>2026-05-02T12:31:20.077Z</time></trkpt><trkpt lat="45.3930685" lon="10.7119719"><ele>67.0</ele><time>2026-05-02T12:31:22.076Z</time></trkpt><trkpt lat="45.3931666" lon="10.7119634"><ele>67.0</ele><time>2026-05-02T12:31:24.076Z</time></trkpt><trkpt lat="45.393202" lon="10.7118426"><ele>66.83333333333333</ele><time>2026-05-02T12:31:26.077Z</time></trkpt><trkpt lat="45.3931633" lon="10.711733"><ele>66.66666666666666</ele><time>2026-05-02T12:31:28.076Z</time></trkpt><trkpt lat="45.393097" lon="10.7116673"><ele>66.5</ele><time>2026-05-02T12:31:30.077Z</time></trkpt><trkpt lat="45.3930287" lon="10.7115985"><ele>66.33333333333333</ele><time>2026-05-02T12:31:32.077Z</time></trkpt><trkpt lat="45.392988" lon="10.7114952"><ele>66.16666666666667</ele><time>2026-05-02T12:31:34.076Z</time></trkpt><trkpt lat="45.3929568" lon="10.7113989"><ele>66.0</ele><time>2026-05-02T12:31:36.077Z</time></trkpt><trkpt lat="45.3929288" lon="10.7113107"><ele>66.42857142857143</ele><time>2026-05-02T12:31:38.077Z</time></trkpt><trkpt lat="45.3928997" lon="10.7112271"><ele>66.85714285714286</ele><time>2026-05-02T12:31:40.077Z</time></trkpt><trkpt lat="45.3928621" lon="10.7111483"><ele>67.28571428571429</ele><time>2026-05-02T12:31:42.075Z</time></trkpt><trkpt lat="45.392838" lon="10.7110641"><ele>67.71428571428572</ele><time>2026-05-02T12:31:44.076Z</time></trkpt><trkpt lat="45.3928173" lon="10.710973"><ele>68.14285714285715</ele><time>2026-05-02T12:31:46.077Z</time></trkpt><trkpt lat="45.3927873" lon="10.7108817"><ele>68.57142857142857</ele><time>2026-05-02T12:31:48.078Z</time></trkpt><trkpt lat="45.392762" lon="10.7107926"><ele>69.0</ele><time>2026-05-02T12:31:50.077Z</time></trkpt><trkpt lat="45.3927325" lon="10.7107111"><ele>69.0</ele><time>2026-05-02T12:31:52.076Z</time></trkpt><trkpt lat="45.3927589" lon="10.7106239"><ele>69.0</ele><time>2026-05-02T12:31:54.077Z</time></trkpt><trkpt lat="45.3928138" lon="10.7105477"><ele>69.0</ele><time>2026-05-02T12:31:56.077Z</time></trkpt><trkpt lat="45.3928772" lon="10.710479"><ele>69.0</ele><time>2026-05-02T12:31:58.076Z</time></trkpt><trkpt lat="45.3929428" lon="10.7104085"><ele>69.0</ele><time>2026-05-02T12:32:00.075Z</time></trkpt><trkpt lat="45.3930091" lon="10.7103389"><ele>69.0</ele><time>2026-05-02T12:32:02.078Z</time></trkpt><trkpt lat="45.3930716" lon="10.7102754"><ele>68.0</ele><time>2026-05-02T12:32:04.077Z</time></trkpt><trkpt lat="45.3931377" lon="10.7102075"><ele>67.0</ele><time>2026-05-02T12:32:06.077Z</time></trkpt><trkpt lat="45.3931845" lon="10.7101301"><ele>66.0</ele><time>2026-05-02T12:32:08.078Z</time></trkpt><trkpt lat="45.3931996" lon="10.7100295"><ele>65.0</ele><time>2026-05-02T12:32:10.078Z</time></trkpt><trkpt lat="45.3931797" lon="10.7099378"><ele>64.0</ele><time>2026-05-02T12:32:12.076Z</time></trkpt><trkpt lat="45.393155" lon="10.7098459"><ele>63.0</ele><time>2026-05-02T12:32:14.077Z</time></trkpt><trkpt lat="45.3931216" lon="10.7097491"><ele>62.0</ele><time>2026-05-02T12:32:16.077Z</time></trkpt><trkpt lat="45.3930868" lon="10.7096512"><ele>62.00000000000001</ele><time>2026-05-02T12:32:18.077Z</time></trkpt><trkpt lat="45.3930648" lon="10.7095438"><ele>62.0</ele><time>2026-05-02T12:32:20.078Z</time></trkpt><trkpt lat="45.3930401" lon="10.7094361"><ele>62.0</ele><time>2026-05-02T12:32:22.077Z</time></trkpt><trkpt lat="45.3930116" lon="10.709336"><ele>62.0</ele><time>2026-05-02T12:32:24.077Z</time></trkpt><trkpt lat="45.3929808" lon="10.7092367"><ele>62.00000000000001</ele><time>2026-05-02T12:32:26.077Z</time></trkpt><trkpt lat="45.3929575" lon="10.7091344"><ele>62.0</ele><time>2026-05-02T12:32:28.077Z</time></trkpt><trkpt lat="45.3929303" lon="10.7090316"><ele>61.833333333333336</ele><time>2026-05-02T12:32:30.076Z</time></trkpt><trkpt lat="45.3928973" lon="10.7089277"><ele>61.66666666666667</ele><time>2026-05-02T12:32:32.078Z</time></trkpt><trkpt lat="45.3928667" lon="10.708824"><ele>61.5</ele><time>2026-05-02T12:32:34.076Z</time></trkpt><trkpt lat="45.3928336" lon="10.7087261"><ele>61.33333333333333</ele><time>2026-05-02T12:32:36.077Z</time></trkpt><trkpt lat="45.3928002" lon="10.7086255"><ele>61.166666666666664</ele><time>2026-05-02T12:32:38.077Z</time></trkpt><trkpt lat="45.392777" lon="10.7085185"><ele>61.0</ele><time>2026-05-02T12:32:40.076Z</time></trkpt><trkpt lat="45.3927462" lon="10.7084123"><ele>60.83333333333333</ele><time>2026-05-02T12:32:42.077Z</time></trkpt><trkpt lat="45.3927123" lon="10.7083053"><ele>60.666666666666664</ele><time>2026-05-02T12:32:44.076Z</time></trkpt><trkpt lat="45.3926833" lon="10.708193"><ele>60.5</ele><time>2026-05-02T12:32:46.076Z</time></trkpt><trkpt lat="45.3926502" lon="10.70808"><ele>60.33333333333333</ele><time>2026-05-02T12:32:48.077Z</time></trkpt><trkpt lat="45.3926184" lon="10.7079696"><ele>60.166666666666664</ele><time>2026-05-02T12:32:50.077Z</time></trkpt><trkpt lat="45.3925833" lon="10.7078653"><ele>60.0</ele><time>2026-05-02T12:32:52.077Z</time></trkpt><trkpt lat="45.3925481" lon="10.7077635"><ele>59.833333333333336</ele><time>2026-05-02T12:32:54.077Z</time></trkpt><trkpt lat="45.3925101" lon="10.7076628"><ele>59.66666666666667</ele><time>2026-05-02T12:32:56.077Z</time></trkpt><trkpt lat="45.3924692" lon="10.7075618"><ele>59.5</ele><time>2026-05-02T12:32:58.077Z</time></trkpt><trkpt lat="45.3924291" lon="10.7074654"><ele>59.333333333333336</ele><time>2026-05-02T12:33:00.077Z</time></trkpt><trkpt lat="45.3923921" lon="10.7073642"><ele>59.16666666666667</ele><time>2026-05-02T12:33:02.077Z</time></trkpt><trkpt lat="45.3923584" lon="10.7072659"><ele>59.0</ele><time>2026-05-02T12:33:04.077Z</time></trkpt><trkpt lat="45.3923266" lon="10.7071582"><ele>59.00000000000001</ele><time>2026-05-02T12:33:06.076Z</time></trkpt><trkpt lat="45.3922953" lon="10.7070515"><ele>59.0</ele><time>2026-05-02T12:33:08.077Z</time></trkpt><trkpt lat="45.3922627" lon="10.7069431"><ele>59.0</ele><time>2026-05-02T12:33:10.077Z</time></trkpt><trkpt lat="45.3922348" lon="10.7068434"><ele>59.0</ele><time>2026-05-02T12:33:12.077Z</time></trkpt><trkpt lat="45.392205" lon="10.7067411"><ele>59.00000000000001</ele><time>2026-05-02T12:33:14.076Z</time></trkpt><trkpt lat="45.3921712" lon="10.7066411"><ele>59.0</ele><time>2026-05-02T12:33:16.075Z</time></trkpt><trkpt lat="45.3921428" lon="10.7065376"><ele>59.2</ele><time>2026-05-02T12:33:18.076Z</time></trkpt><trkpt lat="45.3921112" lon="10.7064286"><ele>59.400000000000006</ele><time>2026-05-02T12:33:20.077Z</time></trkpt><trkpt lat="45.3920754" lon="10.7062979"><ele>59.6</ele><time>2026-05-02T12:33:22.076Z</time></trkpt><trkpt lat="45.3920554" lon="10.7061747"><ele>59.8</ele><time>2026-05-02T12:33:24.075Z</time></trkpt><trkpt lat="45.3920188" lon="10.7060527"><ele>60.0</ele><time>2026-05-02T12:33:26.076Z</time></trkpt><trkpt lat="45.391987" lon="10.7059217"><ele>60.0</ele><time>2026-05-02T12:33:28.077Z</time></trkpt><trkpt lat="45.391955" lon="10.7058061"><ele>60.0</ele><time>2026-05-02T12:33:30.076Z</time></trkpt><trkpt lat="45.3919246" lon="10.7056978"><ele>60.0</ele><time>2026-05-02T12:33:32.076Z</time></trkpt><trkpt lat="45.3918979" lon="10.7055776"><ele>60.0</ele><time>2026-05-02T12:33:34.076Z</time></trkpt><trkpt lat="45.3918504" lon="10.7053945"><ele>60.0</ele><time>2026-05-02T12:33:37.077Z</time></trkpt><trkpt lat="45.3918226" lon="10.7052851"><ele>60.0</ele><time>2026-05-02T12:33:39.077Z</time></trkpt><trkpt lat="45.3917893" lon="10.7051751"><ele>60.0</ele><time>2026-05-02T12:33:41.076Z</time></trkpt><trkpt lat="45.3917595" lon="10.7050705"><ele>60.0</ele><time>2026-05-02T12:33:43.076Z</time></trkpt><trkpt lat="45.3917296" lon="10.7049687"><ele>60.0</ele><time>2026-05-02T12:33:45.077Z</time></trkpt><trkpt lat="45.3917021" lon="10.70487"><ele>60.0</ele><time>2026-05-02T12:33:47.077Z</time></trkpt><trkpt lat="45.3916779" lon="10.7047749"><ele>60.0</ele><time>2026-05-02T12:33:49.077Z</time></trkpt><trkpt lat="45.3916508" lon="10.7046795"><ele>60.0</ele><time>2026-05-02T12:33:51.077Z</time></trkpt><trkpt lat="45.3916232" lon="10.7045911"><ele>60.0</ele><time>2026-05-02T12:33:53.076Z</time></trkpt><trkpt lat="45.3915984" lon="10.7045047"><ele>60.0</ele><time>2026-05-02T12:33:55.076Z</time></trkpt><trkpt lat="45.3915675" lon="10.7043833"><ele>60.0</ele><time>2026-05-02T12:33:58.077Z</time></trkpt><trkpt lat="45.3915157" lon="10.7042847"><ele>60.0</ele><time>2026-05-02T12:34:01.077Z</time></trkpt><trkpt lat="45.3914548" lon="10.704259"><ele>60.0</ele><time>2026-05-02T12:34:19.077Z</time></trkpt><trkpt lat="45.3913909" lon="10.7042441"><ele>60.0</ele><time>2026-05-02T12:34:42.076Z</time></trkpt><trkpt lat="45.3913675" lon="10.7043362"><ele>60.0</ele><time>2026-05-02T12:35:26.076Z</time></trkpt><trkpt lat="45.3913427" lon="10.7044332"><ele>60.0</ele><time>2026-05-02T12:35:34.077Z</time></trkpt><trkpt lat="45.3913188" lon="10.7045244"><ele>60.0</ele><time>2026-05-02T12:35:40.077Z</time></trkpt><trkpt lat="45.3912521" lon="10.704546"><ele>60.0</ele><time>2026-05-02T12:35:48.077Z</time></trkpt><trkpt lat="45.3913169" lon="10.704521"><ele>60.0</ele><time>2026-05-02T12:36:53.076Z</time></trkpt><trkpt lat="45.3913446" lon="10.7044219"><ele>60.0</ele><time>2026-05-02T12:37:01.075Z</time></trkpt><trkpt lat="45.3913832" lon="10.7043378"><ele>60.0</ele><time>2026-05-02T12:37:07.082Z</time></trkpt><trkpt lat="45.391417" lon="10.7042522"><ele>59.714285714285715</ele><time>2026-05-02T12:37:14.081Z</time></trkpt><trkpt lat="45.3914528" lon="10.7041665"><ele>59.42857142857143</ele><time>2026-05-02T12:37:30.072Z</time></trkpt><trkpt lat="45.391434" lon="10.7040795"><ele>59.142857142857146</ele><time>2026-05-02T12:37:37.07Z</time></trkpt><trkpt lat="45.391412" lon="10.7039934"><ele>58.85714285714286</ele><time>2026-05-02T12:38:06.079Z</time></trkpt><trkpt lat="45.3913826" lon="10.7039066"><ele>58.57142857142857</ele><time>2026-05-02T12:38:08.07Z</time></trkpt><trkpt lat="45.3913505" lon="10.7038136"><ele>58.28571428571429</ele><time>2026-05-02T12:38:10.075Z</time></trkpt><trkpt lat="45.3913159" lon="10.7037224"><ele>58.00000000000001</ele><time>2026-05-02T12:38:12.073Z</time></trkpt><trkpt lat="45.3912838" lon="10.7036183"><ele>58.99999999999999</ele><time>2026-05-02T12:38:14.081Z</time></trkpt><trkpt lat="45.3912471" lon="10.7035123"><ele>60.0</ele><time>2026-05-02T12:38:16.075Z</time></trkpt><trkpt lat="45.3912062" lon="10.7034134"><ele>61.0</ele><time>2026-05-02T12:38:18.073Z</time></trkpt><trkpt lat="45.3911736" lon="10.7033204"><ele>62.0</ele><time>2026-05-02T12:38:20.08Z</time></trkpt><trkpt lat="45.3911316" lon="10.7032247"><ele>62.99999999999999</ele><time>2026-05-02T12:38:22.081Z</time></trkpt><trkpt lat="45.3910908" lon="10.7031269"><ele>64.0</ele><time>2026-05-02T12:38:24.077Z</time></trkpt><trkpt lat="45.3910474" lon="10.7030227"><ele>63.99999999999999</ele><time>2026-05-02T12:38:26.075Z</time></trkpt><trkpt lat="45.3910051" lon="10.7029146"><ele>64.0</ele><time>2026-05-02T12:38:28.081Z</time></trkpt><trkpt lat="45.3909609" lon="10.7028116"><ele>64.0</ele><time>2026-05-02T12:38:30.073Z</time></trkpt><trkpt lat="45.3909129" lon="10.702713"><ele>64.0</ele><time>2026-05-02T12:38:32.08Z</time></trkpt><trkpt lat="45.3908687" lon="10.7026262"><ele>63.99999999999999</ele><time>2026-05-02T12:38:34.082Z</time></trkpt><trkpt lat="45.3908269" lon="10.7025341"><ele>64.0</ele><time>2026-05-02T12:38:36.079Z</time></trkpt><trkpt lat="45.3907791" lon="10.7024349"><ele>63.800000000000004</ele><time>2026-05-02T12:38:38.072Z</time></trkpt><trkpt lat="45.3907383" lon="10.7023429"><ele>63.60000000000001</ele><time>2026-05-02T12:38:40.077Z</time></trkpt><trkpt lat="45.3906523" lon="10.7021894"><ele>63.4</ele><time>2026-05-02T12:38:43.988Z</time></trkpt><trkpt lat="45.3906004" lon="10.7020901"><ele>63.2</ele><time>2026-05-02T12:38:46.073Z</time></trkpt><trkpt lat="45.3905502" lon="10.7019943"><ele>63.0</ele><time>2026-05-02T12:38:48.075Z</time></trkpt><trkpt lat="45.3904992" lon="10.7018964"><ele>62.833333333333336</ele><time>2026-05-02T12:38:50.075Z</time></trkpt><trkpt lat="45.3904446" lon="10.7018072"><ele>62.66666666666667</ele><time>2026-05-02T12:38:52.074Z</time></trkpt><trkpt lat="45.3903878" lon="10.7017195"><ele>62.5</ele><time>2026-05-02T12:38:54.075Z</time></trkpt><trkpt lat="45.3903372" lon="10.7016187"><ele>62.333333333333336</ele><time>2026-05-02T12:38:56.075Z</time></trkpt><trkpt lat="45.3902837" lon="10.701519"><ele>62.16666666666667</ele><time>2026-05-02T12:38:58.074Z</time></trkpt><trkpt lat="45.3902332" lon="10.7014265"><ele>62.0</ele><time>2026-05-02T12:39:00.076Z</time></trkpt><trkpt lat="45.3901528" lon="10.7012961"><ele>62.00000000000001</ele><time>2026-05-02T12:39:03.075Z</time></trkpt><trkpt lat="45.390098" lon="10.7012127"><ele>62.0</ele><time>2026-05-02T12:39:05.075Z</time></trkpt><trkpt lat="45.3900346" lon="10.7011339"><ele>62.0</ele><time>2026-05-02T12:39:07.077Z</time></trkpt><trkpt lat="45.3899832" lon="10.7010401"><ele>62.0</ele><time>2026-05-02T12:39:09.075Z</time></trkpt><trkpt lat="45.3899365" lon="10.7009387"><ele>62.00000000000001</ele><time>2026-05-02T12:39:11.074Z</time></trkpt><trkpt lat="45.3899466" lon="10.7008435"><ele>62.0</ele><time>2026-05-02T12:39:13.075Z</time></trkpt><trkpt lat="45.3898464" lon="10.7008039"><ele>61.6</ele><time>2026-05-02T12:39:15.074Z</time></trkpt><trkpt lat="45.3897762" lon="10.7007335"><ele>61.2</ele><time>2026-05-02T12:39:17.075Z</time></trkpt><trkpt lat="45.3897091" lon="10.7006368"><ele>60.8</ele><time>2026-05-02T12:39:19.075Z</time></trkpt><trkpt lat="45.3896404" lon="10.7005395"><ele>60.4</ele><time>2026-05-02T12:39:21.074Z</time></trkpt><trkpt lat="45.3895729" lon="10.7004588"><ele>60.0</ele><time>2026-05-02T12:39:23.075Z</time></trkpt><trkpt lat="45.3895128" lon="10.7003633"><ele>60.0</ele><time>2026-05-02T12:39:25.075Z</time></trkpt><trkpt lat="45.3894412" lon="10.7002759"><ele>60.0</ele><time>2026-05-02T12:39:27.076Z</time></trkpt><trkpt lat="45.3893826" lon="10.7001943"><ele>60.0</ele><time>2026-05-02T12:39:29.075Z</time></trkpt><trkpt lat="45.3893205" lon="10.7001107"><ele>60.0</ele><time>2026-05-02T12:39:31.076Z</time></trkpt><trkpt lat="45.3892573" lon="10.7000264"><ele>60.0</ele><time>2026-05-02T12:39:33.075Z</time></trkpt><trkpt lat="45.3891941" lon="10.6999504"><ele>60.0</ele><time>2026-05-02T12:39:35.075Z</time></trkpt><trkpt lat="45.3891282" lon="10.699871"><ele>60.0</ele><time>2026-05-02T12:39:37.076Z</time></trkpt><trkpt lat="45.3890662" lon="10.6997899"><ele>60.0</ele><time>2026-05-02T12:39:39.076Z</time></trkpt><trkpt lat="45.3889999" lon="10.6997165"><ele>60.0</ele><time>2026-05-02T12:39:41.075Z</time></trkpt><trkpt lat="45.3889304" lon="10.6996438"><ele>60.0</ele><time>2026-05-02T12:39:43.074Z</time></trkpt><trkpt lat="45.3888654" lon="10.6995674"><ele>60.0</ele><time>2026-05-02T12:39:45.075Z</time></trkpt><trkpt lat="45.3887989" lon="10.6994949"><ele>60.0</ele><time>2026-05-02T12:39:47.074Z</time></trkpt><trkpt lat="45.3887266" lon="10.6994251"><ele>60.333333333333336</ele><time>2026-05-02T12:39:49.074Z</time></trkpt><trkpt lat="45.3886615" lon="10.6993576"><ele>60.66666666666667</ele><time>2026-05-02T12:39:51.075Z</time></trkpt><trkpt lat="45.3885969" lon="10.699287"><ele>61.0</ele><time>2026-05-02T12:39:53.076Z</time></trkpt><trkpt lat="45.3885255" lon="10.699213"><ele>61.333333333333336</ele><time>2026-05-02T12:39:55.074Z</time></trkpt><trkpt lat="45.3884565" lon="10.6991487"><ele>61.66666666666667</ele><time>2026-05-02T12:39:57.076Z</time></trkpt><trkpt lat="45.3883863" lon="10.6990907"><ele>62.0</ele><time>2026-05-02T12:39:59.075Z</time></trkpt><trkpt lat="45.3883206" lon="10.6990297"><ele>62.0</ele><time>2026-05-02T12:40:01.075Z</time></trkpt><trkpt lat="45.3882496" lon="10.6989673"><ele>62.0</ele><time>2026-05-02T12:40:03.075Z</time></trkpt><trkpt lat="45.3881758" lon="10.6988998"><ele>62.0</ele><time>2026-05-02T12:40:05.075Z</time></trkpt><trkpt lat="45.3880977" lon="10.6988297"><ele>62.0</ele><time>2026-05-02T12:40:07.075Z</time></trkpt><trkpt lat="45.3880147" lon="10.6987679"><ele>62.0</ele><time>2026-05-02T12:40:09.074Z</time></trkpt><trkpt lat="45.3879311" lon="10.6987042"><ele>62.333333333333336</ele><time>2026-05-02T12:40:11.074Z</time></trkpt><trkpt lat="45.3878498" lon="10.6986364"><ele>62.66666666666667</ele><time>2026-05-02T12:40:13.074Z</time></trkpt><trkpt lat="45.3877707" lon="10.6985693"><ele>63.0</ele><time>2026-05-02T12:40:15.075Z</time></trkpt><trkpt lat="45.3876987" lon="10.6985147"><ele>63.33333333333333</ele><time>2026-05-02T12:40:17.076Z</time></trkpt><trkpt lat="45.387622" lon="10.6984634"><ele>63.666666666666664</ele><time>2026-05-02T12:40:19.074Z</time></trkpt><trkpt lat="45.3875573" lon="10.698411"><ele>64.0</ele><time>2026-05-02T12:40:21.074Z</time></trkpt><trkpt lat="45.3874902" lon="10.6983635"><ele>63.99999999999999</ele><time>2026-05-02T12:40:23.075Z</time></trkpt><trkpt lat="45.3874177" lon="10.6983042"><ele>64.0</ele><time>2026-05-02T12:40:25.074Z</time></trkpt><trkpt lat="45.3873375" lon="10.6982463"><ele>64.0</ele><time>2026-05-02T12:40:27.075Z</time></trkpt><trkpt lat="45.3872482" lon="10.6981848"><ele>64.0</ele><time>2026-05-02T12:40:29.074Z</time></trkpt><trkpt lat="45.3871652" lon="10.6981215"><ele>63.99999999999999</ele><time>2026-05-02T12:40:31.074Z</time></trkpt><trkpt lat="45.3870947" lon="10.6980645"><ele>64.0</ele><time>2026-05-02T12:40:33.074Z</time></trkpt><trkpt lat="45.3870247" lon="10.6980087"><ele>63.83333333333333</ele><time>2026-05-02T12:40:35.075Z</time></trkpt><trkpt lat="45.3869576" lon="10.697963"><ele>63.666666666666664</ele><time>2026-05-02T12:40:37.074Z</time></trkpt><trkpt lat="45.3868564" lon="10.6978937"><ele>63.5</ele><time>2026-05-02T12:40:40.074Z</time></trkpt><trkpt lat="45.3867829" lon="10.6978309"><ele>63.33333333333333</ele><time>2026-05-02T12:40:42.989Z</time></trkpt><trkpt lat="45.3867218" lon="10.6977864"><ele>63.166666666666664</ele><time>2026-05-02T12:40:44.074Z</time></trkpt><trkpt lat="45.3866502" lon="10.6977316"><ele>63.0</ele><time>2026-05-02T12:40:46.075Z</time></trkpt><trkpt lat="45.3865806" lon="10.6976797"><ele>62.833333333333336</ele><time>2026-05-02T12:40:48.075Z</time></trkpt><trkpt lat="45.3865106" lon="10.6976326"><ele>62.66666666666667</ele><time>2026-05-02T12:40:50.074Z</time></trkpt><trkpt lat="45.3864409" lon="10.6975837"><ele>62.5</ele><time>2026-05-02T12:40:52.074Z</time></trkpt><trkpt lat="45.3863713" lon="10.6975329"><ele>62.333333333333336</ele><time>2026-05-02T12:40:54.073Z</time></trkpt><trkpt lat="45.3863059" lon="10.6974793"><ele>62.16666666666667</ele><time>2026-05-02T12:40:56.074Z</time></trkpt><trkpt lat="45.3862406" lon="10.6974233"><ele>62.0</ele><time>2026-05-02T12:40:58.074Z</time></trkpt><trkpt lat="45.3861666" lon="10.6973741"><ele>61.833333333333336</ele><time>2026-05-02T12:41:00.074Z</time></trkpt><trkpt lat="45.3860945" lon="10.6973291"><ele>61.66666666666667</ele><time>2026-05-02T12:41:02.075Z</time></trkpt><trkpt lat="45.3860224" lon="10.6972731"><ele>61.5</ele><time>2026-05-02T12:41:04.075Z</time></trkpt><trkpt lat="45.3859465" lon="10.6972107"><ele>61.33333333333333</ele><time>2026-05-02T12:41:06.074Z</time></trkpt><trkpt lat="45.3858671" lon="10.6971478"><ele>61.166666666666664</ele><time>2026-05-02T12:41:08.075Z</time></trkpt><trkpt lat="45.385785" lon="10.6970805"><ele>61.0</ele><time>2026-05-02T12:41:10.075Z</time></trkpt><trkpt lat="45.3856952" lon="10.6970358"><ele>61.0</ele><time>2026-05-02T12:41:12.075Z</time></trkpt><trkpt lat="45.3856033" lon="10.6969714"><ele>60.99999999999999</ele><time>2026-05-02T12:41:14.074Z</time></trkpt><trkpt lat="45.3855169" lon="10.6969067"><ele>60.99999999999999</ele><time>2026-05-02T12:41:16.073Z</time></trkpt><trkpt lat="45.3854301" lon="10.6968268"><ele>61.0</ele><time>2026-05-02T12:41:18.075Z</time></trkpt><trkpt lat="45.3853419" lon="10.6967573"><ele>61.0</ele><time>2026-05-02T12:41:20.075Z</time></trkpt><trkpt lat="45.3852549" lon="10.6966859"><ele>61.33333333333333</ele><time>2026-05-02T12:41:22.075Z</time></trkpt><trkpt lat="45.3851763" lon="10.6966224"><ele>61.666666666666664</ele><time>2026-05-02T12:41:24.075Z</time></trkpt><trkpt lat="45.3851065" lon="10.6965656"><ele>62.0</ele><time>2026-05-02T12:41:26.075Z</time></trkpt><trkpt lat="45.3850419" lon="10.6965187"><ele>62.33333333333333</ele><time>2026-05-02T12:41:28.074Z</time></trkpt><trkpt lat="45.3849684" lon="10.6964785"><ele>62.666666666666664</ele><time>2026-05-02T12:41:30.074Z</time></trkpt><trkpt lat="45.384895" lon="10.6964419"><ele>63.0</ele><time>2026-05-02T12:41:32.075Z</time></trkpt><trkpt lat="45.3848221" lon="10.6964125"><ele>63.0</ele><time>2026-05-02T12:41:34.074Z</time></trkpt><trkpt lat="45.3847554" lon="10.6963862"><ele>63.0</ele><time>2026-05-02T12:41:36.073Z</time></trkpt><trkpt lat="45.3846946" lon="10.6963591"><ele>63.0</ele><time>2026-05-02T12:41:38.074Z</time></trkpt><trkpt lat="45.3846129" lon="10.6963327"><ele>63.0</ele><time>2026-05-02T12:41:41.074Z</time></trkpt><trkpt lat="45.3845448" lon="10.696322"><ele>63.0</ele><time>2026-05-02T12:41:44.075Z</time></trkpt><trkpt lat="45.3844805" lon="10.6963078"><ele>63.0</ele><time>2026-05-02T12:41:47.075Z</time></trkpt><trkpt lat="45.384416" lon="10.6962644"><ele>63.0</ele><time>2026-05-02T12:41:50.075Z</time></trkpt><trkpt lat="45.3843509" lon="10.6962637"><ele>63.0</ele><time>2026-05-02T12:41:52.074Z</time></trkpt><trkpt lat="45.3842469" lon="10.696248"><ele>63.0</ele><time>2026-05-02T12:41:54.075Z</time></trkpt><trkpt lat="45.384138" lon="10.6962445"><ele>63.0</ele><time>2026-05-02T12:41:56.075Z</time></trkpt><trkpt lat="45.3840296" lon="10.6962179"><ele>63.0</ele><time>2026-05-02T12:41:58.075Z</time></trkpt><trkpt lat="45.3839328" lon="10.6961993"><ele>63.0</ele><time>2026-05-02T12:42:00.073Z</time></trkpt><trkpt lat="45.3838305" lon="10.6961994"><ele>62.8</ele><time>2026-05-02T12:42:02.074Z</time></trkpt><trkpt lat="45.3837316" lon="10.6962034"><ele>62.599999999999994</ele><time>2026-05-02T12:42:04.075Z</time></trkpt><trkpt lat="45.3836286" lon="10.696206"><ele>62.400000000000006</ele><time>2026-05-02T12:42:06.075Z</time></trkpt><trkpt lat="45.3835271" lon="10.6961938"><ele>62.2</ele><time>2026-05-02T12:42:08.074Z</time></trkpt><trkpt lat="45.3834166" lon="10.6961969"><ele>62.0</ele><time>2026-05-02T12:42:10.074Z</time></trkpt><trkpt lat="45.3833189" lon="10.696208"><ele>62.0</ele><time>2026-05-02T12:42:12.075Z</time></trkpt><trkpt lat="45.3832222" lon="10.6962065"><ele>62.0</ele><time>2026-05-02T12:42:14.074Z</time></trkpt><trkpt lat="45.3831235" lon="10.6962197"><ele>62.0</ele><time>2026-05-02T12:42:16.075Z</time></trkpt><trkpt lat="45.3830242" lon="10.6962461"><ele>62.0</ele><time>2026-05-02T12:42:18.075Z</time></trkpt><trkpt lat="45.3829316" lon="10.696271"><ele>62.0</ele><time>2026-05-02T12:42:20.072Z</time></trkpt><trkpt lat="45.3828264" lon="10.6962715"><ele>61.8</ele><time>2026-05-02T12:42:22.075Z</time></trkpt><trkpt lat="45.3827236" lon="10.6962995"><ele>61.6</ele><time>2026-05-02T12:42:24.074Z</time></trkpt><trkpt lat="45.3826278" lon="10.6963284"><ele>61.39999999999999</ele><time>2026-05-02T12:42:26.074Z</time></trkpt><trkpt lat="45.3825363" lon="10.6963553"><ele>61.199999999999996</ele><time>2026-05-02T12:42:28.075Z</time></trkpt><trkpt lat="45.3824364" lon="10.6963986"><ele>61.0</ele><time>2026-05-02T12:42:30.074Z</time></trkpt><trkpt lat="45.3823338" lon="10.6964279"><ele>60.99999999999999</ele><time>2026-05-02T12:42:32.074Z</time></trkpt><trkpt lat="45.382266" lon="10.6964557"><ele>61.0</ele><time>2026-05-02T12:42:34.075Z</time></trkpt><trkpt lat="45.3821842" lon="10.6964978"><ele>61.0</ele><time>2026-05-02T12:42:36.073Z</time></trkpt><trkpt lat="45.3820985" lon="10.6965435"><ele>61.0</ele><time>2026-05-02T12:42:38.075Z</time></trkpt><trkpt lat="45.3820218" lon="10.6965918"><ele>60.99999999999999</ele><time>2026-05-02T12:42:40.073Z</time></trkpt><trkpt lat="45.3819419" lon="10.6966413"><ele>61.0</ele><time>2026-05-02T12:42:42.075Z</time></trkpt><trkpt lat="45.3818615" lon="10.6966905"><ele>60.99999999999999</ele><time>2026-05-02T12:42:44.075Z</time></trkpt><trkpt lat="45.3817816" lon="10.6967422"><ele>61.0</ele><time>2026-05-02T12:42:46.073Z</time></trkpt><trkpt lat="45.3817047" lon="10.6967891"><ele>61.0</ele><time>2026-05-02T12:42:48.074Z</time></trkpt><trkpt lat="45.3816316" lon="10.6968408"><ele>61.0</ele><time>2026-05-02T12:42:50.074Z</time></trkpt><trkpt lat="45.3815547" lon="10.6968852"><ele>60.99999999999999</ele><time>2026-05-02T12:42:52.073Z</time></trkpt><trkpt lat="45.3814776" lon="10.6969357"><ele>61.0</ele><time>2026-05-02T12:42:54.074Z</time></trkpt><trkpt lat="45.3813993" lon="10.6969861"><ele>60.99999999999999</ele><time>2026-05-02T12:42:56.073Z</time></trkpt><trkpt lat="45.3813203" lon="10.697041"><ele>61.0</ele><time>2026-05-02T12:42:58.075Z</time></trkpt><trkpt lat="45.3812421" lon="10.697096"><ele>61.0</ele><time>2026-05-02T12:43:00.074Z</time></trkpt><trkpt lat="45.3811637" lon="10.6971467"><ele>61.0</ele><time>2026-05-02T12:43:02.073Z</time></trkpt><trkpt lat="45.3810856" lon="10.6971968"><ele>60.99999999999999</ele><time>2026-05-02T12:43:04.074Z</time></trkpt><trkpt lat="45.3810019" lon="10.6972478"><ele>61.0</ele><time>2026-05-02T12:43:06.074Z</time></trkpt><trkpt lat="45.3809159" lon="10.6973054"><ele>60.99999999999999</ele><time>2026-05-02T12:43:08.074Z</time></trkpt><trkpt lat="45.380836" lon="10.6973625"><ele>61.0</ele><time>2026-05-02T12:43:10.075Z</time></trkpt><trkpt lat="45.3807587" lon="10.6974158"><ele>61.0</ele><time>2026-05-02T12:43:12.075Z</time></trkpt><trkpt lat="45.3806781" lon="10.6974698"><ele>61.0</ele><time>2026-05-02T12:43:14.074Z</time></trkpt><trkpt lat="45.3805987" lon="10.6975214"><ele>60.99999999999999</ele><time>2026-05-02T12:43:16.073Z</time></trkpt><trkpt lat="45.3805176" lon="10.6975731"><ele>61.0</ele><time>2026-05-02T12:43:18.074Z</time></trkpt><trkpt lat="45.38044" lon="10.6976235"><ele>60.99999999999999</ele><time>2026-05-02T12:43:20.074Z</time></trkpt><trkpt lat="45.3803639" lon="10.6976769"><ele>61.0</ele><time>2026-05-02T12:43:22.074Z</time></trkpt><trkpt lat="45.3802861" lon="10.6977309"><ele>61.0</ele><time>2026-05-02T12:43:24.074Z</time></trkpt><trkpt lat="45.3802054" lon="10.6977852"><ele>61.0</ele><time>2026-05-02T12:43:26.075Z</time></trkpt><trkpt lat="45.3801257" lon="10.6978425"><ele>60.99999999999999</ele><time>2026-05-02T12:43:28.074Z</time></trkpt><trkpt lat="45.380045" lon="10.6978924"><ele>61.0</ele><time>2026-05-02T12:43:30.075Z</time></trkpt><trkpt lat="45.3799714" lon="10.6979503"><ele>60.83333333333333</ele><time>2026-05-02T12:43:32.075Z</time></trkpt><trkpt lat="45.379895" lon="10.6980132"><ele>60.666666666666664</ele><time>2026-05-02T12:43:34.074Z</time></trkpt><trkpt lat="45.3798133" lon="10.6980661"><ele>60.5</ele><time>2026-05-02T12:43:36.072Z</time></trkpt><trkpt lat="45.3797373" lon="10.6981211"><ele>60.33333333333333</ele><time>2026-05-02T12:43:38.075Z</time></trkpt><trkpt lat="45.3796626" lon="10.6981726"><ele>60.166666666666664</ele><time>2026-05-02T12:43:40.075Z</time></trkpt><trkpt lat="45.3795889" lon="10.6982229"><ele>60.0</ele><time>2026-05-02T12:43:42.073Z</time></trkpt><trkpt lat="45.3795135" lon="10.6982713"><ele>59.833333333333336</ele><time>2026-05-02T12:43:44.073Z</time></trkpt><trkpt lat="45.3794373" lon="10.6983152"><ele>59.66666666666667</ele><time>2026-05-02T12:43:46.074Z</time></trkpt><trkpt lat="45.3793616" lon="10.6983701"><ele>59.5</ele><time>2026-05-02T12:43:48.075Z</time></trkpt><trkpt lat="45.3792819" lon="10.6984163"><ele>59.333333333333336</ele><time>2026-05-02T12:43:50.075Z</time></trkpt><trkpt lat="45.379202" lon="10.6984571"><ele>59.16666666666667</ele><time>2026-05-02T12:43:52.073Z</time></trkpt><trkpt lat="45.3791253" lon="10.6985067"><ele>59.0</ele><time>2026-05-02T12:43:54.074Z</time></trkpt><trkpt lat="45.3790478" lon="10.6985582"><ele>59.00000000000001</ele><time>2026-05-02T12:43:56.073Z</time></trkpt><trkpt lat="45.378971" lon="10.6986101"><ele>59.0</ele><time>2026-05-02T12:43:58.075Z</time></trkpt><trkpt lat="45.3788945" lon="10.698664"><ele>59.0</ele><time>2026-05-02T12:44:00.072Z</time></trkpt><trkpt lat="45.3788194" lon="10.6987216"><ele>59.0</ele><time>2026-05-02T12:44:02.075Z</time></trkpt><trkpt lat="45.3787413" lon="10.6987726"><ele>59.00000000000001</ele><time>2026-05-02T12:44:04.072Z</time></trkpt><trkpt lat="45.3786648" lon="10.6988221"><ele>59.0</ele><time>2026-05-02T12:44:06.072Z</time></trkpt><trkpt lat="45.3785868" lon="10.6988761"><ele>58.833333333333336</ele><time>2026-05-02T12:44:08.075Z</time></trkpt><trkpt lat="45.3785074" lon="10.6989262"><ele>58.66666666666667</ele><time>2026-05-02T12:44:10.074Z</time></trkpt><trkpt lat="45.3784299" lon="10.6989738"><ele>58.5</ele><time>2026-05-02T12:44:12.073Z</time></trkpt><trkpt lat="45.3783522" lon="10.6990281"><ele>58.33333333333333</ele><time>2026-05-02T12:44:14.074Z</time></trkpt><trkpt lat="45.3782754" lon="10.6990795"><ele>58.166666666666664</ele><time>2026-05-02T12:44:16.073Z</time></trkpt><trkpt lat="45.3781966" lon="10.6991359"><ele>58.0</ele><time>2026-05-02T12:44:18.073Z</time></trkpt><trkpt lat="45.3781226" lon="10.6991946"><ele>57.99999999999999</ele><time>2026-05-02T12:44:20.074Z</time></trkpt><trkpt lat="45.3780444" lon="10.6992487"><ele>58.0</ele><time>2026-05-02T12:44:22.073Z</time></trkpt><trkpt lat="45.3779691" lon="10.6993009"><ele>58.0</ele><time>2026-05-02T12:44:24.073Z</time></trkpt><trkpt lat="45.3778924" lon="10.6993586"><ele>58.0</ele><time>2026-05-02T12:44:26.074Z</time></trkpt><trkpt lat="45.3778196" lon="10.699411"><ele>57.99999999999999</ele><time>2026-05-02T12:44:28.075Z</time></trkpt><trkpt lat="45.3777444" lon="10.6994589"><ele>58.0</ele><time>2026-05-02T12:44:30.074Z</time></trkpt><trkpt lat="45.3776704" lon="10.6995111"><ele>58.166666666666664</ele><time>2026-05-02T12:44:32.073Z</time></trkpt><trkpt lat="45.3775933" lon="10.6995612"><ele>58.33333333333333</ele><time>2026-05-02T12:44:34.074Z</time></trkpt><trkpt lat="45.3775199" lon="10.6996159"><ele>58.5</ele><time>2026-05-02T12:44:36.073Z</time></trkpt><trkpt lat="45.3774427" lon="10.6996657"><ele>58.66666666666667</ele><time>2026-05-02T12:44:38.072Z</time></trkpt><trkpt lat="45.3773615" lon="10.6997203"><ele>58.833333333333336</ele><time>2026-05-02T12:44:40.073Z</time></trkpt><trkpt lat="45.3772796" lon="10.6997684"><ele>59.0</ele><time>2026-05-02T12:44:42.073Z</time></trkpt><trkpt lat="45.3771996" lon="10.6998303"><ele>58.800000000000004</ele><time>2026-05-02T12:44:44.072Z</time></trkpt><trkpt lat="45.3771156" lon="10.6998856"><ele>58.60000000000001</ele><time>2026-05-02T12:44:46.073Z</time></trkpt><trkpt lat="45.3770345" lon="10.6999384"><ele>58.4</ele><time>2026-05-02T12:44:48.074Z</time></trkpt><trkpt lat="45.3769462" lon="10.6999979"><ele>58.2</ele><time>2026-05-02T12:44:50.074Z</time></trkpt><trkpt lat="45.3768642" lon="10.7000488"><ele>58.0</ele><time>2026-05-02T12:44:52.073Z</time></trkpt><trkpt lat="45.3767838" lon="10.7000989"><ele>57.99999999999999</ele><time>2026-05-02T12:44:54.073Z</time></trkpt><trkpt lat="45.3767077" lon="10.700146"><ele>58.0</ele><time>2026-05-02T12:44:56.075Z</time></trkpt><trkpt lat="45.3766294" lon="10.7002008"><ele>58.0</ele><time>2026-05-02T12:44:58.073Z</time></trkpt><trkpt lat="45.3765497" lon="10.7002538"><ele>58.0</ele><time>2026-05-02T12:45:00.073Z</time></trkpt><trkpt lat="45.3764735" lon="10.7003095"><ele>57.99999999999999</ele><time>2026-05-02T12:45:02.074Z</time></trkpt><trkpt lat="45.376394" lon="10.7003625"><ele>58.0</ele><time>2026-05-02T12:45:04.073Z</time></trkpt><trkpt lat="45.3763218" lon="10.7004103"><ele>57.99999999999999</ele><time>2026-05-02T12:45:06.073Z</time></trkpt><trkpt lat="45.3762618" lon="10.7004573"><ele>58.0</ele><time>2026-05-02T12:45:09.074Z</time></trkpt><trkpt lat="45.3761853" lon="10.7005113"><ele>58.0</ele><time>2026-05-02T12:45:12.073Z</time></trkpt><trkpt lat="45.3761157" lon="10.700543"><ele>58.0</ele><time>2026-05-02T12:45:14.072Z</time></trkpt><trkpt lat="45.3760421" lon="10.7005883"><ele>57.99999999999999</ele><time>2026-05-02T12:45:16.074Z</time></trkpt><trkpt lat="45.3759688" lon="10.7006381"><ele>58.0</ele><time>2026-05-02T12:45:18.074Z</time></trkpt><trkpt lat="45.3758945" lon="10.700692"><ele>57.99999999999999</ele><time>2026-05-02T12:45:20.074Z</time></trkpt><trkpt lat="45.3758177" lon="10.7007446"><ele>58.0</ele><time>2026-05-02T12:45:22.074Z</time></trkpt><trkpt lat="45.3757383" lon="10.700795"><ele>58.0</ele><time>2026-05-02T12:45:24.074Z</time></trkpt><trkpt lat="45.3756584" lon="10.7008457"><ele>58.0</ele><time>2026-05-02T12:45:26.074Z</time></trkpt><trkpt lat="45.3755801" lon="10.7008973"><ele>57.99999999999999</ele><time>2026-05-02T12:45:28.073Z</time></trkpt><trkpt lat="45.375505" lon="10.7009476"><ele>58.0</ele><time>2026-05-02T12:45:30.074Z</time></trkpt><trkpt lat="45.3754308" lon="10.7009966"><ele>57.99999999999999</ele><time>2026-05-02T12:45:32.073Z</time></trkpt><trkpt lat="45.3753507" lon="10.7010423"><ele>58.0</ele><time>2026-05-02T12:45:34.074Z</time></trkpt><trkpt lat="45.3752728" lon="10.7010961"><ele>58.0</ele><time>2026-05-02T12:45:36.073Z</time></trkpt><trkpt lat="45.3751954" lon="10.7011536"><ele>58.0</ele><time>2026-05-02T12:45:38.073Z</time></trkpt><trkpt lat="45.3751149" lon="10.7012058"><ele>57.99999999999999</ele><time>2026-05-02T12:45:40.074Z</time></trkpt><trkpt lat="45.3750315" lon="10.701255"><ele>58.0</ele><time>2026-05-02T12:45:42.074Z</time></trkpt><trkpt lat="45.3749548" lon="10.701314"><ele>57.99999999999999</ele><time>2026-05-02T12:45:44.073Z</time></trkpt><trkpt lat="45.3748741" lon="10.7013639"><ele>58.0</ele><time>2026-05-02T12:45:46.074Z</time></trkpt><trkpt lat="45.3747969" lon="10.7014252"><ele>58.0</ele><time>2026-05-02T12:45:48.072Z</time></trkpt><trkpt lat="45.3747199" lon="10.7014772"><ele>58.0</ele><time>2026-05-02T12:45:50.073Z</time></trkpt><trkpt lat="45.3746429" lon="10.7015308"><ele>57.99999999999999</ele><time>2026-05-02T12:45:52.074Z</time></trkpt><trkpt lat="45.3745616" lon="10.701591"><ele>58.0</ele><time>2026-05-02T12:45:54.073Z</time></trkpt><trkpt lat="45.3744769" lon="10.7016474"><ele>58.0</ele><time>2026-05-02T12:45:56.073Z</time></trkpt><trkpt lat="45.3743957" lon="10.7017083"><ele>58.0</ele><time>2026-05-02T12:45:58.074Z</time></trkpt><trkpt lat="45.3743177" lon="10.7017671"><ele>58.0</ele><time>2026-05-02T12:46:00.073Z</time></trkpt><trkpt lat="45.3742396" lon="10.7018262"><ele>58.0</ele><time>2026-05-02T12:46:02.073Z</time></trkpt><trkpt lat="45.3741592" lon="10.7018866"><ele>58.0</ele><time>2026-05-02T12:46:04.073Z</time></trkpt><trkpt lat="45.3740785" lon="10.7019545"><ele>58.0</ele><time>2026-05-02T12:46:06.074Z</time></trkpt><trkpt lat="45.3740026" lon="10.7020174"><ele>58.0</ele><time>2026-05-02T12:46:08.074Z</time></trkpt><trkpt lat="45.3739291" lon="10.7020874"><ele>58.0</ele><time>2026-05-02T12:46:10.072Z</time></trkpt><trkpt lat="45.3738605" lon="10.702159"><ele>58.0</ele><time>2026-05-02T12:46:12.073Z</time></trkpt><trkpt lat="45.3737809" lon="10.7022293"><ele>58.0</ele><time>2026-05-02T12:46:14.074Z</time></trkpt><trkpt lat="45.3737002" lon="10.7023027"><ele>57.99999999999999</ele><time>2026-05-02T12:46:16.072Z</time></trkpt><trkpt lat="45.3736278" lon="10.7023758"><ele>58.0</ele><time>2026-05-02T12:46:18.074Z</time></trkpt><trkpt lat="45.3735611" lon="10.7024476"><ele>58.0</ele><time>2026-05-02T12:46:20.074Z</time></trkpt><trkpt lat="45.3734946" lon="10.7025124"><ele>58.0</ele><time>2026-05-02T12:46:22.074Z</time></trkpt><trkpt lat="45.3734271" lon="10.7025785"><ele>57.99999999999999</ele><time>2026-05-02T12:46:24.074Z</time></trkpt><trkpt lat="45.3733609" lon="10.7026467"><ele>58.0</ele><time>2026-05-02T12:46:26.073Z</time></trkpt><trkpt lat="45.3732942" lon="10.7027152"><ele>57.99999999999999</ele><time>2026-05-02T12:46:28.073Z</time></trkpt><trkpt lat="45.3732318" lon="10.7027865"><ele>58.0</ele><time>2026-05-02T12:46:30.073Z</time></trkpt><trkpt lat="45.3731655" lon="10.7028597"><ele>58.0</ele><time>2026-05-02T12:46:32.074Z</time></trkpt><trkpt lat="45.3731029" lon="10.7029387"><ele>58.0</ele><time>2026-05-02T12:46:34.073Z</time></trkpt><trkpt lat="45.3730377" lon="10.7030101"><ele>57.99999999999999</ele><time>2026-05-02T12:46:36.074Z</time></trkpt><trkpt lat="45.3729777" lon="10.7030826"><ele>58.0</ele><time>2026-05-02T12:46:38.073Z</time></trkpt><trkpt lat="45.3729129" lon="10.7031545"><ele>57.99999999999999</ele><time>2026-05-02T12:46:40.074Z</time></trkpt><trkpt lat="45.3728496" lon="10.7032327"><ele>58.0</ele><time>2026-05-02T12:46:42.073Z</time></trkpt><trkpt lat="45.3727888" lon="10.7033049"><ele>58.0</ele><time>2026-05-02T12:46:44.073Z</time></trkpt><trkpt lat="45.3727315" lon="10.7033771"><ele>58.0</ele><time>2026-05-02T12:46:46.072Z</time></trkpt><trkpt lat="45.3726704" lon="10.7034532"><ele>57.99999999999999</ele><time>2026-05-02T12:46:48.074Z</time></trkpt><trkpt lat="45.3726079" lon="10.7035239"><ele>58.0</ele><time>2026-05-02T12:46:50.074Z</time></trkpt><trkpt lat="45.3725434" lon="10.7035964"><ele>57.99999999999999</ele><time>2026-05-02T12:46:52.074Z</time></trkpt><trkpt lat="45.3724802" lon="10.7036721"><ele>58.0</ele><time>2026-05-02T12:46:54.074Z</time></trkpt><trkpt lat="45.372413" lon="10.703761"><ele>58.0</ele><time>2026-05-02T12:46:56.074Z</time></trkpt><trkpt lat="45.3723454" lon="10.7038449"><ele>58.0</ele><time>2026-05-02T12:46:58.074Z</time></trkpt><trkpt lat="45.3722803" lon="10.7039255"><ele>57.99999999999999</ele><time>2026-05-02T12:47:00.074Z</time></trkpt><trkpt lat="45.3722159" lon="10.7039952"><ele>58.0</ele><time>2026-05-02T12:47:02.073Z</time></trkpt><trkpt lat="45.3721538" lon="10.7040616"><ele>57.99999999999999</ele><time>2026-05-02T12:47:04.073Z</time></trkpt><trkpt lat="45.3720911" lon="10.7041401"><ele>58.0</ele><time>2026-05-02T12:47:06.072Z</time></trkpt><trkpt lat="45.3720304" lon="10.7042215"><ele>58.0</ele><time>2026-05-02T12:47:08.074Z</time></trkpt><trkpt lat="45.3719653" lon="10.7043013"><ele>58.0</ele><time>2026-05-02T12:47:10.074Z</time></trkpt><trkpt lat="45.3719002" lon="10.7043845"><ele>57.99999999999999</ele><time>2026-05-02T12:47:12.073Z</time></trkpt><trkpt lat="45.3718373" lon="10.7044708"><ele>58.0</ele><time>2026-05-02T12:47:14.073Z</time></trkpt><trkpt lat="45.3717707" lon="10.7045596"><ele>58.166666666666664</ele><time>2026-05-02T12:47:16.074Z</time></trkpt><trkpt lat="45.3717021" lon="10.7046329"><ele>58.33333333333333</ele><time>2026-05-02T12:47:18.074Z</time></trkpt><trkpt lat="45.3716309" lon="10.704707"><ele>58.5</ele><time>2026-05-02T12:47:20.074Z</time></trkpt><trkpt lat="45.371566" lon="10.7047883"><ele>58.66666666666667</ele><time>2026-05-02T12:47:22.072Z</time></trkpt><trkpt lat="45.3715019" lon="10.7048511"><ele>58.833333333333336</ele><time>2026-05-02T12:47:24.073Z</time></trkpt><trkpt lat="45.3714369" lon="10.70492"><ele>59.0</ele><time>2026-05-02T12:47:26.073Z</time></trkpt><trkpt lat="45.3713698" lon="10.704996"><ele>58.833333333333336</ele><time>2026-05-02T12:47:28.073Z</time></trkpt><trkpt lat="45.3713054" lon="10.7050709"><ele>58.66666666666667</ele><time>2026-05-02T12:47:30.072Z</time></trkpt><trkpt lat="45.3712449" lon="10.7051416"><ele>58.5</ele><time>2026-05-02T12:47:32.073Z</time></trkpt><trkpt lat="45.3711804" lon="10.7052174"><ele>58.33333333333333</ele><time>2026-05-02T12:47:34.073Z</time></trkpt><trkpt lat="45.3711143" lon="10.7052997"><ele>58.166666666666664</ele><time>2026-05-02T12:47:36.074Z</time></trkpt><trkpt lat="45.3710501" lon="10.7053872"><ele>58.0</ele><time>2026-05-02T12:47:38.071Z</time></trkpt><trkpt lat="45.3709817" lon="10.7054611"><ele>57.99999999999999</ele><time>2026-05-02T12:47:40.073Z</time></trkpt><trkpt lat="45.3709206" lon="10.7055462"><ele>58.0</ele><time>2026-05-02T12:47:42.073Z</time></trkpt><trkpt lat="45.3708523" lon="10.7056299"><ele>58.0</ele><time>2026-05-02T12:47:44.073Z</time></trkpt><trkpt lat="45.3707786" lon="10.7057128"><ele>58.0</ele><time>2026-05-02T12:47:46.072Z</time></trkpt><trkpt lat="45.3707111" lon="10.705789"><ele>57.99999999999999</ele><time>2026-05-02T12:47:48.072Z</time></trkpt><trkpt lat="45.3706444" lon="10.7058594"><ele>58.0</ele><time>2026-05-02T12:47:50.073Z</time></trkpt><trkpt lat="45.3705807" lon="10.7059317"><ele>58.166666666666664</ele><time>2026-05-02T12:47:52.072Z</time></trkpt><trkpt lat="45.3705169" lon="10.7060069"><ele>58.33333333333333</ele><time>2026-05-02T12:47:54.073Z</time></trkpt><trkpt lat="45.3704505" lon="10.7060861"><ele>58.5</ele><time>2026-05-02T12:47:56.073Z</time></trkpt><trkpt lat="45.3703831" lon="10.7061655"><ele>58.66666666666667</ele><time>2026-05-02T12:47:58.074Z</time></trkpt><trkpt lat="45.3703158" lon="10.7062451"><ele>58.833333333333336</ele><time>2026-05-02T12:48:00.073Z</time></trkpt><trkpt lat="45.3702504" lon="10.7063297"><ele>59.0</ele><time>2026-05-02T12:48:02.074Z</time></trkpt><trkpt lat="45.370184" lon="10.7064086"><ele>58.50000000000001</ele><time>2026-05-02T12:48:04.074Z</time></trkpt><trkpt lat="45.3701221" lon="10.7064936"><ele>58.0</ele><time>2026-05-02T12:48:06.073Z</time></trkpt><trkpt lat="45.370056" lon="10.7065739"><ele>57.5</ele><time>2026-05-02T12:48:08.073Z</time></trkpt><trkpt lat="45.3699947" lon="10.7066544"><ele>57.0</ele><time>2026-05-02T12:48:10.073Z</time></trkpt><trkpt lat="45.3699348" lon="10.7067407"><ele>56.50000000000001</ele><time>2026-05-02T12:48:12.073Z</time></trkpt><trkpt lat="45.3698791" lon="10.7068287"><ele>56.0</ele><time>2026-05-02T12:48:14.072Z</time></trkpt><trkpt lat="45.3698243" lon="10.7069166"><ele>56.00000000000001</ele><time>2026-05-02T12:48:16.073Z</time></trkpt><trkpt lat="45.3697722" lon="10.7070097"><ele>56.0</ele><time>2026-05-02T12:48:18.073Z</time></trkpt><trkpt lat="45.3697221" lon="10.7071018"><ele>56.0</ele><time>2026-05-02T12:48:20.074Z</time></trkpt><trkpt lat="45.3696774" lon="10.7071922"><ele>56.0</ele><time>2026-05-02T12:48:22.072Z</time></trkpt><trkpt lat="45.3696333" lon="10.7072846"><ele>56.00000000000001</ele><time>2026-05-02T12:48:24.074Z</time></trkpt><trkpt lat="45.3695949" lon="10.7073785"><ele>56.0</ele><time>2026-05-02T12:48:26.072Z</time></trkpt><trkpt lat="45.3695537" lon="10.7074712"><ele>56.16666666666667</ele><time>2026-05-02T12:48:28.072Z</time></trkpt><trkpt lat="45.3695107" lon="10.7075776"><ele>56.333333333333336</ele><time>2026-05-02T12:48:30.074Z</time></trkpt><trkpt lat="45.3694733" lon="10.707684"><ele>56.5</ele><time>2026-05-02T12:48:32.074Z</time></trkpt><trkpt lat="45.3694355" lon="10.7077891"><ele>56.66666666666667</ele><time>2026-05-02T12:48:34.073Z</time></trkpt><trkpt lat="45.3693987" lon="10.7078974"><ele>56.833333333333336</ele><time>2026-05-02T12:48:36.074Z</time></trkpt><trkpt lat="45.3693701" lon="10.7080076"><ele>57.0</ele><time>2026-05-02T12:48:38.073Z</time></trkpt><trkpt lat="45.3693422" lon="10.7081197"><ele>57.0</ele><time>2026-05-02T12:48:40.074Z</time></trkpt><trkpt lat="45.369312" lon="10.7082321"><ele>57.0</ele><time>2026-05-02T12:48:42.074Z</time></trkpt><trkpt lat="45.3692816" lon="10.708338"><ele>57.0</ele><time>2026-05-02T12:48:44.072Z</time></trkpt><trkpt lat="45.3692515" lon="10.7084418"><ele>57.0</ele><time>2026-05-02T12:48:46.073Z</time></trkpt><trkpt lat="45.3692254" lon="10.708549"><ele>57.0</ele><time>2026-05-02T12:48:48.072Z</time></trkpt><trkpt lat="45.3692056" lon="10.7086649"><ele>57.0</ele><time>2026-05-02T12:48:50.073Z</time></trkpt><trkpt lat="45.3691911" lon="10.708791"><ele>57.0</ele><time>2026-05-02T12:48:52.073Z</time></trkpt><trkpt lat="45.3691737" lon="10.7089101"><ele>57.0</ele><time>2026-05-02T12:48:54.072Z</time></trkpt><trkpt lat="45.3691635" lon="10.7090377"><ele>57.0</ele><time>2026-05-02T12:48:56.074Z</time></trkpt><trkpt lat="45.3691525" lon="10.7091609"><ele>57.0</ele><time>2026-05-02T12:48:58.073Z</time></trkpt><trkpt lat="45.3691492" lon="10.7092701"><ele>57.0</ele><time>2026-05-02T12:49:00.073Z</time></trkpt><trkpt lat="45.3691376" lon="10.7093736"><ele>57.0</ele><time>2026-05-02T12:49:02.072Z</time></trkpt><trkpt lat="45.3691345" lon="10.7094911"><ele>56.833333333333336</ele><time>2026-05-02T12:49:04.073Z</time></trkpt><trkpt lat="45.3691336" lon="10.7096107"><ele>56.66666666666667</ele><time>2026-05-02T12:49:06.074Z</time></trkpt><trkpt lat="45.3691326" lon="10.7097304"><ele>56.5</ele><time>2026-05-02T12:49:08.074Z</time></trkpt><trkpt lat="45.3691307" lon="10.7098534"><ele>56.333333333333336</ele><time>2026-05-02T12:49:10.072Z</time></trkpt><trkpt lat="45.3691296" lon="10.7099695"><ele>56.16666666666667</ele><time>2026-05-02T12:49:12.074Z</time></trkpt><trkpt lat="45.3691389" lon="10.7100994"><ele>56.0</ele><time>2026-05-02T12:49:14.074Z</time></trkpt><trkpt lat="45.3691444" lon="10.7102226"><ele>55.833333333333336</ele><time>2026-05-02T12:49:16.073Z</time></trkpt><trkpt lat="45.3691478" lon="10.7103467"><ele>55.66666666666667</ele><time>2026-05-02T12:49:18.073Z</time></trkpt><trkpt lat="45.3691517" lon="10.7104666"><ele>55.5</ele><time>2026-05-02T12:49:20.073Z</time></trkpt><trkpt lat="45.3691554" lon="10.7105826"><ele>55.33333333333333</ele><time>2026-05-02T12:49:22.073Z</time></trkpt><trkpt lat="45.3691625" lon="10.7107006"><ele>55.166666666666664</ele><time>2026-05-02T12:49:24.074Z</time></trkpt><trkpt lat="45.36917" lon="10.7108209"><ele>55.0</ele><time>2026-05-02T12:49:26.073Z</time></trkpt><trkpt lat="45.3691775" lon="10.7109424"><ele>54.99999999999999</ele><time>2026-05-02T12:49:28.072Z</time></trkpt><trkpt lat="45.3691792" lon="10.7110672"><ele>55.0</ele><time>2026-05-02T12:49:30.073Z</time></trkpt><trkpt lat="45.3691863" lon="10.7111908"><ele>55.0</ele><time>2026-05-02T12:49:32.072Z</time></trkpt><trkpt lat="45.369193" lon="10.7113188"><ele>55.0</ele><time>2026-05-02T12:49:34.073Z</time></trkpt><trkpt lat="45.3691978" lon="10.7114462"><ele>54.99999999999999</ele><time>2026-05-02T12:49:36.073Z</time></trkpt><trkpt lat="45.3691991" lon="10.7115659"><ele>55.0</ele><time>2026-05-02T12:49:38.072Z</time></trkpt><trkpt lat="45.3692" lon="10.7116937"><ele>55.33333333333333</ele><time>2026-05-02T12:49:40.073Z</time></trkpt><trkpt lat="45.3692025" lon="10.7118201"><ele>55.666666666666664</ele><time>2026-05-02T12:49:42.074Z</time></trkpt><trkpt lat="45.3692075" lon="10.7119486"><ele>56.0</ele><time>2026-05-02T12:49:44.072Z</time></trkpt><trkpt lat="45.369215" lon="10.712064"><ele>56.33333333333333</ele><time>2026-05-02T12:49:46.072Z</time></trkpt><trkpt lat="45.3692173" lon="10.7121749"><ele>56.666666666666664</ele><time>2026-05-02T12:49:48.073Z</time></trkpt><trkpt lat="45.3692194" lon="10.7122935"><ele>57.0</ele><time>2026-05-02T12:49:50.073Z</time></trkpt><trkpt lat="45.3692178" lon="10.7124143"><ele>57.166666666666664</ele><time>2026-05-02T12:49:52.072Z</time></trkpt><trkpt lat="45.3692183" lon="10.7125372"><ele>57.33333333333333</ele><time>2026-05-02T12:49:54.072Z</time></trkpt><trkpt lat="45.369226" lon="10.7126609"><ele>57.5</ele><time>2026-05-02T12:49:56.072Z</time></trkpt><trkpt lat="45.3692308" lon="10.7127851"><ele>57.666666666666664</ele><time>2026-05-02T12:49:58.071Z</time></trkpt><trkpt lat="45.3692345" lon="10.7129091"><ele>57.83333333333333</ele><time>2026-05-02T12:50:00.072Z</time></trkpt><trkpt lat="45.3692367" lon="10.7130287"><ele>58.0</ele><time>2026-05-02T12:50:02.071Z</time></trkpt><trkpt lat="45.3692367" lon="10.7131466"><ele>57.99999999999999</ele><time>2026-05-02T12:50:04.072Z</time></trkpt><trkpt lat="45.3692336" lon="10.7132648"><ele>58.0</ele><time>2026-05-02T12:50:06.074Z</time></trkpt><trkpt lat="45.3692294" lon="10.7133857"><ele>58.0</ele><time>2026-05-02T12:50:08.074Z</time></trkpt><trkpt lat="45.3692192" lon="10.7135095"><ele>58.0</ele><time>2026-05-02T12:50:10.073Z</time></trkpt><trkpt lat="45.3692081" lon="10.7136309"><ele>57.99999999999999</ele><time>2026-05-02T12:50:12.072Z</time></trkpt><trkpt lat="45.3691929" lon="10.7137533"><ele>58.0</ele><time>2026-05-02T12:50:14.073Z</time></trkpt><trkpt lat="45.3691742" lon="10.7138739"><ele>57.83333333333333</ele><time>2026-05-02T12:50:16.073Z</time></trkpt><trkpt lat="45.3691548" lon="10.7139907"><ele>57.666666666666664</ele><time>2026-05-02T12:50:18.071Z</time></trkpt><trkpt lat="45.3691287" lon="10.7140981"><ele>57.5</ele><time>2026-05-02T12:50:20.074Z</time></trkpt><trkpt lat="45.3691069" lon="10.7142135"><ele>57.33333333333333</ele><time>2026-05-02T12:50:22.073Z</time></trkpt><trkpt lat="45.3690853" lon="10.7143262"><ele>57.166666666666664</ele><time>2026-05-02T12:50:24.072Z</time></trkpt><trkpt lat="45.369058" lon="10.7144439"><ele>57.0</ele><time>2026-05-02T12:50:26.072Z</time></trkpt><trkpt lat="45.3690336" lon="10.7145684"><ele>57.0</ele><time>2026-05-02T12:50:28.072Z</time></trkpt><trkpt lat="45.3690089" lon="10.7146958"><ele>57.0</ele><time>2026-05-02T12:50:30.072Z</time></trkpt><trkpt lat="45.3689846" lon="10.7148068"><ele>57.0</ele><time>2026-05-02T12:50:32.073Z</time></trkpt><trkpt lat="45.368957" lon="10.7149253"><ele>57.0</ele><time>2026-05-02T12:50:34.073Z</time></trkpt><trkpt lat="45.3689315" lon="10.7150397"><ele>57.0</ele><time>2026-05-02T12:50:36.072Z</time></trkpt><trkpt lat="45.3689049" lon="10.7151532"><ele>57.0</ele><time>2026-05-02T12:50:38.072Z</time></trkpt><trkpt lat="45.3688717" lon="10.7152668"><ele>57.0</ele><time>2026-05-02T12:50:40.073Z</time></trkpt><trkpt lat="45.3688441" lon="10.7153812"><ele>57.0</ele><time>2026-05-02T12:50:42.071Z</time></trkpt><trkpt lat="45.3688113" lon="10.7154946"><ele>57.0</ele><time>2026-05-02T12:50:44.073Z</time></trkpt><trkpt lat="45.3687833" lon="10.7156057"><ele>57.0</ele><time>2026-05-02T12:50:46.073Z</time></trkpt><trkpt lat="45.3687576" lon="10.7157233"><ele>57.0</ele><time>2026-05-02T12:50:48.072Z</time></trkpt><trkpt lat="45.3687312" lon="10.7158434"><ele>57.0</ele><time>2026-05-02T12:50:50.072Z</time></trkpt><trkpt lat="45.3687049" lon="10.7159607"><ele>57.5</ele><time>2026-05-02T12:50:52.072Z</time></trkpt><trkpt lat="45.3686787" lon="10.7160711"><ele>58.0</ele><time>2026-05-02T12:50:54.072Z</time></trkpt><trkpt lat="45.3686599" lon="10.7161805"><ele>58.5</ele><time>2026-05-02T12:50:56.072Z</time></trkpt><trkpt lat="45.368628" lon="10.7162956"><ele>59.0</ele><time>2026-05-02T12:50:58.072Z</time></trkpt><trkpt lat="45.3685988" lon="10.7164111"><ele>59.5</ele><time>2026-05-02T12:51:00.072Z</time></trkpt><trkpt lat="45.3685741" lon="10.7165237"><ele>60.0</ele><time>2026-05-02T12:51:02.073Z</time></trkpt><trkpt lat="45.3685525" lon="10.716637"><ele>60.0</ele><time>2026-05-02T12:51:04.072Z</time></trkpt><trkpt lat="45.3685307" lon="10.7167475"><ele>60.0</ele><time>2026-05-02T12:51:06.072Z</time></trkpt><trkpt lat="45.3685002" lon="10.7168592"><ele>60.0</ele><time>2026-05-02T12:51:08.072Z</time></trkpt><trkpt lat="45.3684718" lon="10.7169724"><ele>60.0</ele><time>2026-05-02T12:51:10.073Z</time></trkpt><trkpt lat="45.3684382" lon="10.7170819"><ele>60.0</ele><time>2026-05-02T12:51:12.072Z</time></trkpt><trkpt lat="45.3684097" lon="10.7171961"><ele>60.0</ele><time>2026-05-02T12:51:14.072Z</time></trkpt><trkpt lat="45.3683816" lon="10.717312"><ele>60.0</ele><time>2026-05-02T12:51:16.073Z</time></trkpt><trkpt lat="45.3683544" lon="10.7174247"><ele>60.0</ele><time>2026-05-02T12:51:18.072Z</time></trkpt><trkpt lat="45.3683281" lon="10.7175396"><ele>60.0</ele><time>2026-05-02T12:51:20.072Z</time></trkpt><trkpt lat="45.3683006" lon="10.71765"><ele>60.0</ele><time>2026-05-02T12:51:22.073Z</time></trkpt><trkpt lat="45.368274" lon="10.7177626"><ele>60.0</ele><time>2026-05-02T12:51:24.073Z</time></trkpt><trkpt lat="45.3682482" lon="10.7178734"><ele>60.0</ele><time>2026-05-02T12:51:26.072Z</time></trkpt><trkpt lat="45.3682261" lon="10.7179851"><ele>59.833333333333336</ele><time>2026-05-02T12:51:28.071Z</time></trkpt><trkpt lat="45.3682091" lon="10.718098"><ele>59.66666666666667</ele><time>2026-05-02T12:51:30.073Z</time></trkpt><trkpt lat="45.3681826" lon="10.7182076"><ele>59.5</ele><time>2026-05-02T12:51:32.072Z</time></trkpt><trkpt lat="45.368158" lon="10.7183155"><ele>59.333333333333336</ele><time>2026-05-02T12:51:34.072Z</time></trkpt><trkpt lat="45.3681373" lon="10.7184221"><ele>59.16666666666667</ele><time>2026-05-02T12:51:36.072Z</time></trkpt><trkpt lat="45.3681141" lon="10.7185271"><ele>59.0</ele><time>2026-05-02T12:51:38.073Z</time></trkpt><trkpt lat="45.3680828" lon="10.7186334"><ele>58.66666666666667</ele><time>2026-05-02T12:51:40.073Z</time></trkpt><trkpt lat="45.3680503" lon="10.7187448"><ele>58.333333333333336</ele><time>2026-05-02T12:51:42.072Z</time></trkpt><trkpt lat="45.3680206" lon="10.7188551"><ele>58.0</ele><time>2026-05-02T12:51:44.072Z</time></trkpt><trkpt lat="45.3679905" lon="10.7189627"><ele>57.66666666666667</ele><time>2026-05-02T12:51:46.073Z</time></trkpt><trkpt lat="45.3679586" lon="10.7190724"><ele>57.333333333333336</ele><time>2026-05-02T12:51:48.073Z</time></trkpt><trkpt lat="45.3679268" lon="10.7191836"><ele>57.0</ele><time>2026-05-02T12:51:50.073Z</time></trkpt><trkpt lat="45.3678952" lon="10.7192921"><ele>57.2</ele><time>2026-05-02T12:51:52.073Z</time></trkpt><trkpt lat="45.3678536" lon="10.7194152"><ele>57.400000000000006</ele><time>2026-05-02T12:51:54.073Z</time></trkpt><trkpt lat="45.3678132" lon="10.7195361"><ele>57.599999999999994</ele><time>2026-05-02T12:51:56.072Z</time></trkpt><trkpt lat="45.3677734" lon="10.7196541"><ele>57.8</ele><time>2026-05-02T12:51:58.072Z</time></trkpt><trkpt lat="45.3677332" lon="10.7197758"><ele>58.0</ele><time>2026-05-02T12:52:00.073Z</time></trkpt><trkpt lat="45.3676912" lon="10.7198918"><ele>58.0</ele><time>2026-05-02T12:52:02.073Z</time></trkpt><trkpt lat="45.3676523" lon="10.720005"><ele>58.0</ele><time>2026-05-02T12:52:04.072Z</time></trkpt><trkpt lat="45.3676067" lon="10.720121"><ele>58.0</ele><time>2026-05-02T12:52:06.072Z</time></trkpt><trkpt lat="45.3675621" lon="10.7202451"><ele>58.0</ele><time>2026-05-02T12:52:08.073Z</time></trkpt><trkpt lat="45.3675135" lon="10.7203576"><ele>58.0</ele><time>2026-05-02T12:52:10.073Z</time></trkpt><trkpt lat="45.3674638" lon="10.7204804"><ele>58.2</ele><time>2026-05-02T12:52:12.071Z</time></trkpt><trkpt lat="45.3674179" lon="10.7206001"><ele>58.4</ele><time>2026-05-02T12:52:14.073Z</time></trkpt><trkpt lat="45.3673693" lon="10.7207109"><ele>58.60000000000001</ele><time>2026-05-02T12:52:16.071Z</time></trkpt><trkpt lat="45.3673189" lon="10.7208219"><ele>58.800000000000004</ele><time>2026-05-02T12:52:18.073Z</time></trkpt><trkpt lat="45.3672658" lon="10.7209292"><ele>59.0</ele><time>2026-05-02T12:52:20.073Z</time></trkpt><trkpt lat="45.3672149" lon="10.7210502"><ele>58.833333333333336</ele><time>2026-05-02T12:52:22.071Z</time></trkpt><trkpt lat="45.3671648" lon="10.721155"><ele>58.66666666666667</ele><time>2026-05-02T12:52:24.072Z</time></trkpt><trkpt lat="45.3671163" lon="10.7212573"><ele>58.5</ele><time>2026-05-02T12:52:26.073Z</time></trkpt><trkpt lat="45.3670654" lon="10.7213407"><ele>58.33333333333333</ele><time>2026-05-02T12:52:28.072Z</time></trkpt><trkpt lat="45.3670181" lon="10.721416"><ele>58.166666666666664</ele><time>2026-05-02T12:52:30.072Z</time></trkpt><trkpt lat="45.366982" lon="10.7214936"><ele>58.0</ele><time>2026-05-02T12:52:32.07Z</time></trkpt><trkpt lat="45.3669443" lon="10.7215709"><ele>58.00000000000001</ele><time>2026-05-02T12:52:34.073Z</time></trkpt><trkpt lat="45.3669039" lon="10.7216527"><ele>58.0</ele><time>2026-05-02T12:52:36.072Z</time></trkpt><trkpt lat="45.3668579" lon="10.7217341"><ele>58.00000000000001</ele><time>2026-05-02T12:52:38.071Z</time></trkpt><trkpt lat="45.3668186" lon="10.7218263"><ele>58.00000000000001</ele><time>2026-05-02T12:52:40.072Z</time></trkpt><trkpt lat="45.366775" lon="10.7219138"><ele>58.0</ele><time>2026-05-02T12:52:42.072Z</time></trkpt><trkpt lat="45.3667189" lon="10.7219916"><ele>58.00000000000001</ele><time>2026-05-02T12:52:44.072Z</time></trkpt><trkpt lat="45.3666657" lon="10.7220691"><ele>58.00000000000001</ele><time>2026-05-02T12:52:46.073Z</time></trkpt><trkpt lat="45.3666129" lon="10.7221519"><ele>57.83333333333333</ele><time>2026-05-02T12:52:48.072Z</time></trkpt><trkpt lat="45.3665651" lon="10.7222407"><ele>57.666666666666664</ele><time>2026-05-02T12:52:50.071Z</time></trkpt><trkpt lat="45.36651" lon="10.7223183"><ele>57.5</ele><time>2026-05-02T12:52:52.071Z</time></trkpt><trkpt lat="45.3664626" lon="10.7224109"><ele>57.33333333333333</ele><time>2026-05-02T12:52:54.073Z</time></trkpt><trkpt lat="45.3664058" lon="10.722486"><ele>57.166666666666664</ele><time>2026-05-02T12:52:56.073Z</time></trkpt><trkpt lat="45.3663636" lon="10.7225531"><ele>57.0</ele><time>2026-05-02T12:52:58.073Z</time></trkpt><trkpt lat="45.3662992" lon="10.7226462"><ele>57.0</ele><time>2026-05-02T12:53:01.073Z</time></trkpt><trkpt lat="45.3662505" lon="10.7227231"><ele>57.0</ele><time>2026-05-02T12:53:03.071Z</time></trkpt><trkpt lat="45.3661965" lon="10.7228016"><ele>57.0</ele><time>2026-05-02T12:53:05.072Z</time></trkpt><trkpt lat="45.3661407" lon="10.722884"><ele>57.0</ele><time>2026-05-02T12:53:07.073Z</time></trkpt><trkpt lat="45.3660847" lon="10.7229651"><ele>57.0</ele><time>2026-05-02T12:53:09.072Z</time></trkpt><trkpt lat="45.3660301" lon="10.72305"><ele>57.0</ele><time>2026-05-02T12:53:11.071Z</time></trkpt><trkpt lat="45.3659743" lon="10.7231359"><ele>57.166666666666664</ele><time>2026-05-02T12:53:13.072Z</time></trkpt><trkpt lat="45.3659157" lon="10.72323"><ele>57.33333333333333</ele><time>2026-05-02T12:53:15.073Z</time></trkpt><trkpt lat="45.3658566" lon="10.7233121"><ele>57.5</ele><time>2026-05-02T12:53:17.073Z</time></trkpt><trkpt lat="45.3657853" lon="10.7233838"><ele>57.666666666666664</ele><time>2026-05-02T12:53:19.072Z</time></trkpt><trkpt lat="45.365713" lon="10.7234615"><ele>57.83333333333333</ele><time>2026-05-02T12:53:21.07Z</time></trkpt><trkpt lat="45.3656444" lon="10.7235382"><ele>58.0</ele><time>2026-05-02T12:53:23.073Z</time></trkpt><trkpt lat="45.3655753" lon="10.7236245"><ele>57.99999999999999</ele><time>2026-05-02T12:53:25.072Z</time></trkpt><trkpt lat="45.3655098" lon="10.7237034"><ele>58.0</ele><time>2026-05-02T12:53:27.071Z</time></trkpt><trkpt lat="45.3654453" lon="10.7237823"><ele>58.0</ele><time>2026-05-02T12:53:29.071Z</time></trkpt><trkpt lat="45.3653785" lon="10.7238577"><ele>58.0</ele><time>2026-05-02T12:53:31.071Z</time></trkpt><trkpt lat="45.3653158" lon="10.7239397"><ele>57.99999999999999</ele><time>2026-05-02T12:53:33.073Z</time></trkpt><trkpt lat="45.3652458" lon="10.7240128"><ele>58.0</ele><time>2026-05-02T12:53:35.072Z</time></trkpt><trkpt lat="45.3651793" lon="10.7240881"><ele>57.99999999999999</ele><time>2026-05-02T12:53:37.07Z</time></trkpt><trkpt lat="45.3651192" lon="10.7241715"><ele>58.0</ele><time>2026-05-02T12:53:39.072Z</time></trkpt><trkpt lat="45.3650582" lon="10.724252"><ele>58.0</ele><time>2026-05-02T12:53:41.072Z</time></trkpt><trkpt lat="45.3649987" lon="10.7243305"><ele>58.0</ele><time>2026-05-02T12:53:43.072Z</time></trkpt><trkpt lat="45.3649398" lon="10.7244063"><ele>57.99999999999999</ele><time>2026-05-02T12:53:45.071Z</time></trkpt><trkpt lat="45.364886" lon="10.7244687"><ele>58.0</ele><time>2026-05-02T12:53:47.073Z</time></trkpt><trkpt lat="45.3648241" lon="10.7245537"><ele>57.83333333333333</ele><time>2026-05-02T12:53:50.072Z</time></trkpt><trkpt lat="45.36476" lon="10.724635"><ele>57.666666666666664</ele><time>2026-05-02T12:53:53.071Z</time></trkpt><trkpt lat="45.3646958" lon="10.7247361"><ele>57.5</ele><time>2026-05-02T12:53:56.072Z</time></trkpt><trkpt lat="45.3646381" lon="10.7248331"><ele>57.33333333333333</ele><time>2026-05-02T12:53:59.073Z</time></trkpt><trkpt lat="45.364599" lon="10.7249244"><ele>57.166666666666664</ele><time>2026-05-02T12:54:02.072Z</time></trkpt><trkpt lat="45.3646025" lon="10.7250283"><ele>57.0</ele><time>2026-05-02T12:54:05.072Z</time></trkpt><trkpt lat="45.3646537" lon="10.7251437"><ele>57.666666666666664</ele><time>2026-05-02T12:54:08.071Z</time></trkpt><trkpt lat="45.3646978" lon="10.7252226"><ele>58.33333333333333</ele><time>2026-05-02T12:54:10.072Z</time></trkpt><trkpt lat="45.3647435" lon="10.7253123"><ele>59.0</ele><time>2026-05-02T12:54:12.071Z</time></trkpt><trkpt lat="45.3647716" lon="10.7253999"><ele>59.666666666666664</ele><time>2026-05-02T12:54:14.072Z</time></trkpt><trkpt lat="45.3648107" lon="10.7255048"><ele>60.33333333333333</ele><time>2026-05-02T12:54:17.072Z</time></trkpt><trkpt lat="45.3648676" lon="10.7255899"><ele>61.0</ele><time>2026-05-02T12:54:20.073Z</time></trkpt><trkpt lat="45.3649434" lon="10.7256396"><ele>61.33333333333333</ele><time>2026-05-02T12:54:23.073Z</time></trkpt><trkpt lat="45.3650069" lon="10.7257066"><ele>61.666666666666664</ele><time>2026-05-02T12:54:26.072Z</time></trkpt><trkpt lat="45.3650496" lon="10.7257972"><ele>62.0</ele><time>2026-05-02T12:54:29.073Z</time></trkpt><trkpt lat="45.3650883" lon="10.7259015"><ele>62.33333333333333</ele><time>2026-05-02T12:54:32.073Z</time></trkpt><trkpt lat="45.365124" lon="10.7260067"><ele>62.666666666666664</ele><time>2026-05-02T12:54:35.073Z</time></trkpt><trkpt lat="45.3651509" lon="10.726102"><ele>63.0</ele><time>2026-05-02T12:54:38.072Z</time></trkpt><trkpt lat="45.3651558" lon="10.7261923"><ele>64.33333333333333</ele><time>2026-05-02T12:54:41.072Z</time></trkpt><trkpt lat="45.365084" lon="10.7262319"><ele>65.66666666666667</ele><time>2026-05-02T12:55:24.073Z</time></trkpt><trkpt lat="45.3650289" lon="10.7262955"><ele>67.0</ele><time>2026-05-02T12:55:34.072Z</time></trkpt><trkpt lat="45.3649779" lon="10.7263507"><ele>68.33333333333334</ele><time>2026-05-02T12:56:39.071Z</time></trkpt><trkpt lat="45.3649225" lon="10.7264086"><ele>69.66666666666667</ele><time>2026-05-02T12:56:42.072Z</time></trkpt><trkpt lat="45.3648547" lon="10.7264711"><ele>71.0</ele><time>2026-05-02T12:56:45.071Z</time></trkpt><trkpt lat="45.3647818" lon="10.726547"><ele>71.0</ele><time>2026-05-02T12:56:48.072Z</time></trkpt><trkpt lat="45.3647041" lon="10.7266172"><ele>71.0</ele><time>2026-05-02T12:56:51.072Z</time></trkpt><trkpt lat="45.3646502" lon="10.7266684"><ele>71.0</ele><time>2026-05-02T12:56:53.072Z</time></trkpt><trkpt lat="45.3645945" lon="10.7267238"><ele>71.0</ele><time>2026-05-02T12:56:55.072Z</time></trkpt><trkpt lat="45.3645384" lon="10.7267738"><ele>71.0</ele><time>2026-05-02T12:56:57.071Z</time></trkpt><trkpt lat="45.3644856" lon="10.726829"><ele>71.0</ele><time>2026-05-02T12:56:59.072Z</time></trkpt><trkpt lat="45.3644037" lon="10.7269041"><ele>71.14285714285714</ele><time>2026-05-02T12:57:02.072Z</time></trkpt><trkpt lat="45.3643459" lon="10.7269569"><ele>71.28571428571428</ele><time>2026-05-02T12:57:04.07Z</time></trkpt><trkpt lat="45.3642931" lon="10.7270082"><ele>71.42857142857143</ele><time>2026-05-02T12:57:06.071Z</time></trkpt><trkpt lat="45.3642398" lon="10.7270591"><ele>71.57142857142857</ele><time>2026-05-02T12:57:08.07Z</time></trkpt><trkpt lat="45.3641819" lon="10.7271082"><ele>71.71428571428572</ele><time>2026-05-02T12:57:10.07Z</time></trkpt><trkpt lat="45.3641265" lon="10.7271632"><ele>71.85714285714286</ele><time>2026-05-02T12:57:12.071Z</time></trkpt><trkpt lat="45.3640695" lon="10.7272147"><ele>72.0</ele><time>2026-05-02T12:57:14.071Z</time></trkpt><trkpt lat="45.3640134" lon="10.7272664"><ele>72.00000000000001</ele><time>2026-05-02T12:57:16.071Z</time></trkpt><trkpt lat="45.3639557" lon="10.7273207"><ele>72.0</ele><time>2026-05-02T12:57:18.072Z</time></trkpt><trkpt lat="45.3638972" lon="10.7273707"><ele>72.0</ele><time>2026-05-02T12:57:20.071Z</time></trkpt><trkpt lat="45.3638428" lon="10.7274273"><ele>72.0</ele><time>2026-05-02T12:57:22.071Z</time></trkpt><trkpt lat="45.3637795" lon="10.7274785"><ele>72.0</ele><time>2026-05-02T12:57:24.072Z</time></trkpt><trkpt lat="45.3637158" lon="10.7275389"><ele>72.00000000000001</ele><time>2026-05-02T12:57:26.071Z</time></trkpt><trkpt lat="45.3636597" lon="10.7276011"><ele>72.0</ele><time>2026-05-02T12:57:28.072Z</time></trkpt><trkpt lat="45.3635984" lon="10.7276497"><ele>72.42857142857143</ele><time>2026-05-02T12:57:30.072Z</time></trkpt><trkpt lat="45.363533" lon="10.7276996"><ele>72.85714285714286</ele><time>2026-05-02T12:57:32.071Z</time></trkpt><trkpt lat="45.3634735" lon="10.7277578"><ele>73.28571428571428</ele><time>2026-05-02T12:57:34.072Z</time></trkpt><trkpt lat="45.363412" lon="10.7278045"><ele>73.71428571428572</ele><time>2026-05-02T12:57:36.072Z</time></trkpt><trkpt lat="45.3633477" lon="10.7278607"><ele>74.14285714285714</ele><time>2026-05-02T12:57:38.071Z</time></trkpt><trkpt lat="45.363284" lon="10.7279176"><ele>74.57142857142857</ele><time>2026-05-02T12:57:40.072Z</time></trkpt><trkpt lat="45.3632163" lon="10.7279698"><ele>75.0</ele><time>2026-05-02T12:57:42.071Z</time></trkpt><trkpt lat="45.3631557" lon="10.7280196"><ele>75.0</ele><time>2026-05-02T12:57:44.071Z</time></trkpt><trkpt lat="45.3630952" lon="10.7280761"><ele>75.0</ele><time>2026-05-02T12:57:46.071Z</time></trkpt><trkpt lat="45.3630225" lon="10.7281203"><ele>75.0</ele><time>2026-05-02T12:57:48.07Z</time></trkpt><trkpt lat="45.3629536" lon="10.7281741"><ele>75.0</ele><time>2026-05-02T12:57:50.071Z</time></trkpt><trkpt lat="45.3628813" lon="10.7282244"><ele>75.0</ele><time>2026-05-02T12:57:52.072Z</time></trkpt><trkpt lat="45.3628094" lon="10.7282694"><ele>75.0</ele><time>2026-05-02T12:57:54.072Z</time></trkpt><trkpt lat="45.3627354" lon="10.7283128"><ele>75.66666666666667</ele><time>2026-05-02T12:57:56.07Z</time></trkpt><trkpt lat="45.3626635" lon="10.7283648"><ele>76.33333333333333</ele><time>2026-05-02T12:57:58.071Z</time></trkpt><trkpt lat="45.3625902" lon="10.7284135"><ele>77.0</ele><time>2026-05-02T12:58:00.071Z</time></trkpt><trkpt lat="45.362517" lon="10.7284611"><ele>77.66666666666666</ele><time>2026-05-02T12:58:02.072Z</time></trkpt><trkpt lat="45.3624403" lon="10.7285026"><ele>78.33333333333333</ele><time>2026-05-02T12:58:04.072Z</time></trkpt><trkpt lat="45.3623667" lon="10.7285489"><ele>79.0</ele><time>2026-05-02T12:58:06.072Z</time></trkpt><trkpt lat="45.3622905" lon="10.7285968"><ele>79.0</ele><time>2026-05-02T12:58:08.071Z</time></trkpt><trkpt lat="45.3622191" lon="10.7286473"><ele>79.0</ele><time>2026-05-02T12:58:10.071Z</time></trkpt><trkpt lat="45.362142" lon="10.7287024"><ele>79.0</ele><time>2026-05-02T12:58:12.071Z</time></trkpt><trkpt lat="45.3620648" lon="10.728753"><ele>79.0</ele><time>2026-05-02T12:58:14.071Z</time></trkpt><trkpt lat="45.3619905" lon="10.72879"><ele>79.0</ele><time>2026-05-02T12:58:16.07Z</time></trkpt><trkpt lat="45.3619107" lon="10.7288163"><ele>79.0</ele><time>2026-05-02T12:58:18.072Z</time></trkpt><trkpt lat="45.3618309" lon="10.7288355"><ele>77.83333333333333</ele><time>2026-05-02T12:58:20.072Z</time></trkpt><trkpt lat="45.3617498" lon="10.7288582"><ele>76.66666666666666</ele><time>2026-05-02T12:58:22.071Z</time></trkpt><trkpt lat="45.3616789" lon="10.7288753"><ele>75.5</ele><time>2026-05-02T12:58:24.07Z</time></trkpt><trkpt lat="45.3616059" lon="10.7288984"><ele>74.33333333333333</ele><time>2026-05-02T12:58:26.071Z</time></trkpt><trkpt lat="45.3615286" lon="10.7289177"><ele>73.16666666666667</ele><time>2026-05-02T12:58:28.071Z</time></trkpt><trkpt lat="45.3614431" lon="10.7289241"><ele>72.0</ele><time>2026-05-02T12:58:30.072Z</time></trkpt><trkpt lat="45.361355" lon="10.7289285"><ele>71.66666666666667</ele><time>2026-05-02T12:58:32.072Z</time></trkpt><trkpt lat="45.3612681" lon="10.7289355"><ele>71.33333333333333</ele><time>2026-05-02T12:58:34.072Z</time></trkpt><trkpt lat="45.3611806" lon="10.7289541"><ele>71.0</ele><time>2026-05-02T12:58:36.072Z</time></trkpt><trkpt lat="45.3610895" lon="10.728968"><ele>70.66666666666666</ele><time>2026-05-02T12:58:38.071Z</time></trkpt><trkpt lat="45.3609976" lon="10.7289828"><ele>70.33333333333333</ele><time>2026-05-02T12:58:40.07Z</time></trkpt><trkpt lat="45.3609082" lon="10.728995"><ele>70.0</ele><time>2026-05-02T12:58:42.072Z</time></trkpt><trkpt lat="45.3608221" lon="10.7290089"><ele>70.0</ele><time>2026-05-02T12:58:44.072Z</time></trkpt><trkpt lat="45.3607351" lon="10.7290195"><ele>70.0</ele><time>2026-05-02T12:58:46.069Z</time></trkpt><trkpt lat="45.3606472" lon="10.7290264"><ele>70.0</ele><time>2026-05-02T12:58:48.07Z</time></trkpt><trkpt lat="45.3605591" lon="10.7290329"><ele>70.0</ele><time>2026-05-02T12:58:50.07Z</time></trkpt><trkpt lat="45.3604664" lon="10.7290495"><ele>70.0</ele><time>2026-05-02T12:58:52.071Z</time></trkpt><trkpt lat="45.3603798" lon="10.729066"><ele>70.0</ele><time>2026-05-02T12:58:54.071Z</time></trkpt><trkpt lat="45.3602941" lon="10.7290636"><ele>70.0</ele><time>2026-05-02T12:58:56.071Z</time></trkpt><trkpt lat="45.3602105" lon="10.7290613"><ele>70.0</ele><time>2026-05-02T12:58:58.069Z</time></trkpt><trkpt lat="45.3601292" lon="10.729067"><ele>70.0</ele><time>2026-05-02T12:59:00.071Z</time></trkpt><trkpt lat="45.3600447" lon="10.7290703"><ele>70.0</ele><time>2026-05-02T12:59:02.069Z</time></trkpt><trkpt lat="45.3599597" lon="10.7290654"><ele>70.0</ele><time>2026-05-02T12:59:04.072Z</time></trkpt><trkpt lat="45.3598753" lon="10.7290582"><ele>70.0</ele><time>2026-05-02T12:59:06.072Z</time></trkpt><trkpt lat="45.3597923" lon="10.7290617"><ele>70.0</ele><time>2026-05-02T12:59:08.071Z</time></trkpt><trkpt lat="45.3597026" lon="10.7290734"><ele>70.0</ele><time>2026-05-02T12:59:10.07Z</time></trkpt><trkpt lat="45.3596244" lon="10.7290792"><ele>70.0</ele><time>2026-05-02T12:59:12.07Z</time></trkpt><trkpt lat="45.3595538" lon="10.7290527"><ele>70.0</ele><time>2026-05-02T12:59:14.07Z</time></trkpt><trkpt lat="45.359467" lon="10.7290586"><ele>70.0</ele><time>2026-05-02T12:59:16.071Z</time></trkpt><trkpt lat="45.3593834" lon="10.7290541"><ele>70.0</ele><time>2026-05-02T12:59:18.071Z</time></trkpt><trkpt lat="45.3592967" lon="10.7290561"><ele>70.33333333333333</ele><time>2026-05-02T12:59:20.069Z</time></trkpt><trkpt lat="45.3592164" lon="10.729046"><ele>70.66666666666666</ele><time>2026-05-02T12:59:22.071Z</time></trkpt><trkpt lat="45.3591334" lon="10.7290439"><ele>71.0</ele><time>2026-05-02T12:59:24.071Z</time></trkpt><trkpt lat="45.3590522" lon="10.7290452"><ele>71.33333333333333</ele><time>2026-05-02T12:59:26.071Z</time></trkpt><trkpt lat="45.3589768" lon="10.7290411"><ele>71.66666666666667</ele><time>2026-05-02T12:59:28.071Z</time></trkpt><trkpt lat="45.3589007" lon="10.7290367"><ele>72.0</ele><time>2026-05-02T12:59:30.07Z</time></trkpt><trkpt lat="45.3588287" lon="10.7290153"><ele>72.5</ele><time>2026-05-02T12:59:32.071Z</time></trkpt><trkpt lat="45.3587446" lon="10.7290044"><ele>73.0</ele><time>2026-05-02T12:59:34.071Z</time></trkpt><trkpt lat="45.358665" lon="10.7289932"><ele>73.5</ele><time>2026-05-02T12:59:36.071Z</time></trkpt><trkpt lat="45.3585872" lon="10.7289824"><ele>74.0</ele><time>2026-05-02T12:59:38.07Z</time></trkpt><trkpt lat="45.3585059" lon="10.7289739"><ele>74.5</ele><time>2026-05-02T12:59:40.071Z</time></trkpt><trkpt lat="45.358416" lon="10.7289359"><ele>75.0</ele><time>2026-05-02T12:59:42.07Z</time></trkpt><trkpt lat="45.3583321" lon="10.7289116"><ele>75.0</ele><time>2026-05-02T12:59:44.071Z</time></trkpt><trkpt lat="45.3582363" lon="10.7288947"><ele>75.0</ele><time>2026-05-02T12:59:46.071Z</time></trkpt><trkpt lat="45.3581475" lon="10.7288943"><ele>75.0</ele><time>2026-05-02T12:59:48.071Z</time></trkpt><trkpt lat="45.3580523" lon="10.7288867"><ele>75.0</ele><time>2026-05-02T12:59:50.071Z</time></trkpt><trkpt lat="45.357976" lon="10.7288788"><ele>75.0</ele><time>2026-05-02T12:59:52.071Z</time></trkpt><trkpt lat="45.3578954" lon="10.728862"><ele>75.0</ele><time>2026-05-02T12:59:54.072Z</time></trkpt><trkpt lat="45.3578017" lon="10.7288505"><ele>76.0</ele><time>2026-05-02T12:59:56.07Z</time></trkpt><trkpt lat="45.3577077" lon="10.7288286"><ele>77.0</ele><time>2026-05-02T12:59:58.071Z</time></trkpt><trkpt lat="45.3576189" lon="10.7288092"><ele>78.0</ele><time>2026-05-02T13:00:00.071Z</time></trkpt><trkpt lat="45.3575189" lon="10.7287953"><ele>79.0</ele><time>2026-05-02T13:00:02.071Z</time></trkpt><trkpt lat="45.3574247" lon="10.7287782"><ele>80.0</ele><time>2026-05-02T13:00:04.071Z</time></trkpt><trkpt lat="45.3573252" lon="10.7287733"><ele>80.0</ele><time>2026-05-02T13:00:06.071Z</time></trkpt><trkpt lat="45.3572324" lon="10.7287577"><ele>80.0</ele><time>2026-05-02T13:00:08.07Z</time></trkpt><trkpt lat="45.3571442" lon="10.7287353"><ele>80.0</ele><time>2026-05-02T13:00:10.071Z</time></trkpt><trkpt lat="45.3570557" lon="10.7287261"><ele>80.0</ele><time>2026-05-02T13:00:12.071Z</time></trkpt><trkpt lat="45.356979" lon="10.728705"><ele>80.0</ele><time>2026-05-02T13:00:14.072Z</time></trkpt><trkpt lat="45.3568974" lon="10.7287143"><ele>80.0</ele><time>2026-05-02T13:00:16.07Z</time></trkpt><trkpt lat="45.3568089" lon="10.7287104"><ele>79.8</ele><time>2026-05-02T13:00:18.07Z</time></trkpt><trkpt lat="45.3567184" lon="10.7287019"><ele>79.6</ele><time>2026-05-02T13:00:20.071Z</time></trkpt><trkpt lat="45.356626" lon="10.7286745"><ele>79.4</ele><time>2026-05-02T13:00:22.07Z</time></trkpt><trkpt lat="45.3565415" lon="10.7286593"><ele>79.2</ele><time>2026-05-02T13:00:24.071Z</time></trkpt><trkpt lat="45.3564485" lon="10.7286444"><ele>79.0</ele><time>2026-05-02T13:00:26.071Z</time></trkpt><trkpt lat="45.3563554" lon="10.7286318"><ele>79.0</ele><time>2026-05-02T13:00:28.07Z</time></trkpt><trkpt lat="45.3562647" lon="10.7286304"><ele>79.0</ele><time>2026-05-02T13:00:30.07Z</time></trkpt><trkpt lat="45.3561692" lon="10.7286172"><ele>79.0</ele><time>2026-05-02T13:00:32.071Z</time></trkpt><trkpt lat="45.3560676" lon="10.7286178"><ele>79.0</ele><time>2026-05-02T13:00:34.07Z</time></trkpt><trkpt lat="45.355963" lon="10.7286045"><ele>79.0</ele><time>2026-05-02T13:00:36.07Z</time></trkpt><trkpt lat="45.3558423" lon="10.7285945"><ele>79.0</ele><time>2026-05-02T13:00:38.072Z</time></trkpt><trkpt lat="45.3557281" lon="10.7285894"><ele>79.0</ele><time>2026-05-02T13:00:40.07Z</time></trkpt><trkpt lat="45.3556223" lon="10.7285872"><ele>79.0</ele><time>2026-05-02T13:00:42.071Z</time></trkpt><trkpt lat="45.3555274" lon="10.7285747"><ele>79.0</ele><time>2026-05-02T13:00:44.071Z</time></trkpt><trkpt lat="45.3554305" lon="10.7285687"><ele>79.0</ele><time>2026-05-02T13:00:46.07Z</time></trkpt><trkpt lat="45.3553369" lon="10.7285577"><ele>75.8</ele><time>2026-05-02T13:00:48.071Z</time></trkpt><trkpt lat="45.3552364" lon="10.7285466"><ele>72.60000000000001</ele><time>2026-05-02T13:00:50.071Z</time></trkpt><trkpt lat="45.3551377" lon="10.7285327"><ele>69.4</ele><time>2026-05-02T13:00:52.07Z</time></trkpt><trkpt lat="45.3550466" lon="10.7285185"><ele>66.2</ele><time>2026-05-02T13:00:54.07Z</time></trkpt><trkpt lat="45.3549482" lon="10.7285029"><ele>63.0</ele><time>2026-05-02T13:00:56.071Z</time></trkpt><trkpt lat="45.3548561" lon="10.7284849"><ele>63.0</ele><time>2026-05-02T13:00:58.071Z</time></trkpt><trkpt lat="45.3547617" lon="10.7284605"><ele>63.0</ele><time>2026-05-02T13:01:00.07Z</time></trkpt><trkpt lat="45.3546792" lon="10.7284429"><ele>63.0</ele><time>2026-05-02T13:01:02.071Z</time></trkpt><trkpt lat="45.3546067" lon="10.7284228"><ele>63.0</ele><time>2026-05-02T13:01:04.07Z</time></trkpt><trkpt lat="45.3545325" lon="10.7283861"><ele>63.0</ele><time>2026-05-02T13:01:06.07Z</time></trkpt><trkpt lat="45.3544499" lon="10.728356"><ele>63.0</ele><time>2026-05-02T13:01:08.07Z</time></trkpt><trkpt lat="45.3543722" lon="10.7283185"><ele>63.42857142857143</ele><time>2026-05-02T13:01:10.07Z</time></trkpt><trkpt lat="45.3543042" lon="10.7282791"><ele>63.85714285714286</ele><time>2026-05-02T13:01:12.07Z</time></trkpt><trkpt lat="45.3542317" lon="10.7282658"><ele>64.28571428571428</ele><time>2026-05-02T13:01:14.071Z</time></trkpt><trkpt lat="45.3541634" lon="10.7282458"><ele>64.71428571428572</ele><time>2026-05-02T13:01:16.071Z</time></trkpt><trkpt lat="45.3540975" lon="10.728227"><ele>65.14285714285714</ele><time>2026-05-02T13:01:18.071Z</time></trkpt><trkpt lat="45.354031" lon="10.7281974"><ele>65.57142857142857</ele><time>2026-05-02T13:01:20.07Z</time></trkpt><trkpt lat="45.3539817" lon="10.7281272"><ele>66.0</ele><time>2026-05-02T13:01:22.07Z</time></trkpt><trkpt lat="45.3539344" lon="10.728048"><ele>66.0</ele><time>2026-05-02T13:01:24.07Z</time></trkpt><trkpt lat="45.3538783" lon="10.727993"><ele>66.0</ele><time>2026-05-02T13:01:26.071Z</time></trkpt><trkpt lat="45.3538021" lon="10.7279253"><ele>66.0</ele><time>2026-05-02T13:01:29.071Z</time></trkpt><trkpt lat="45.3537289" lon="10.7278639"><ele>66.0</ele><time>2026-05-02T13:01:32.07Z</time></trkpt><trkpt lat="45.3536683" lon="10.7278189"><ele>66.0</ele><time>2026-05-02T13:01:34.07Z</time></trkpt><trkpt lat="45.3536117" lon="10.7277749"><ele>66.0</ele><time>2026-05-02T13:01:36.071Z</time></trkpt><trkpt lat="45.3535362" lon="10.7277111"><ele>65.66666666666667</ele><time>2026-05-02T13:01:39.071Z</time></trkpt><trkpt lat="45.3534768" lon="10.7276622"><ele>65.33333333333333</ele><time>2026-05-02T13:01:42.07Z</time></trkpt><trkpt lat="45.3534131" lon="10.7275918"><ele>65.0</ele><time>2026-05-02T13:01:45.071Z</time></trkpt><trkpt lat="45.3533673" lon="10.7275265"><ele>64.66666666666666</ele><time>2026-05-02T13:01:47.071Z</time></trkpt><trkpt lat="45.3533055" lon="10.72742"><ele>64.33333333333333</ele><time>2026-05-02T13:01:50.07Z</time></trkpt><trkpt lat="45.3532509" lon="10.7273562"><ele>64.0</ele><time>2026-05-02T13:01:52.07Z</time></trkpt><trkpt lat="45.3532003" lon="10.7272883"><ele>64.0</ele><time>2026-05-02T13:01:54.071Z</time></trkpt><trkpt lat="45.353149" lon="10.7272278"><ele>63.99999999999999</ele><time>2026-05-02T13:01:57.071Z</time></trkpt><trkpt lat="45.3531001" lon="10.7271654"><ele>64.0</ele><time>2026-05-02T13:02:02.069Z</time></trkpt><trkpt lat="45.353075" lon="10.7270455"><ele>64.0</ele><time>2026-05-02T13:02:46.069Z</time></trkpt><trkpt lat="45.3531043" lon="10.7269605"><ele>63.99999999999999</ele><time>2026-05-02T13:02:52.071Z</time></trkpt><trkpt lat="45.3531271" lon="10.7268615"><ele>64.0</ele><time>2026-05-02T13:02:58.069Z</time></trkpt><trkpt lat="45.3531579" lon="10.7267786"><ele>64.0</ele><time>2026-05-02T13:03:06.07Z</time></trkpt><trkpt lat="45.3531477" lon="10.7268673"><ele>64.0</ele><time>2026-05-02T13:03:47.071Z</time></trkpt><trkpt lat="45.3531073" lon="10.7269494"><ele>63.99999999999999</ele><time>2026-05-02T13:03:54.07Z</time></trkpt><trkpt lat="45.353075" lon="10.7270351"><ele>64.0</ele><time>2026-05-02T13:04:04.07Z</time></trkpt><trkpt lat="45.3530631" lon="10.7271352"><ele>64.0</ele><time>2026-05-02T13:04:10.069Z</time></trkpt><trkpt lat="45.3530461" lon="10.7272271"><ele>63.99999999999999</ele><time>2026-05-02T13:04:51.069Z</time></trkpt><trkpt lat="45.3530588" lon="10.7273248"><ele>64.0</ele><time>2026-05-02T13:05:06.07Z</time></trkpt><trkpt lat="45.3530359" lon="10.7272378"><ele>64.0</ele><time>2026-05-02T13:05:36.07Z</time></trkpt><trkpt lat="45.3530376" lon="10.727141"><ele>64.28571428571428</ele><time>2026-05-02T13:05:41.07Z</time></trkpt><trkpt lat="45.3530339" lon="10.7270444"><ele>64.57142857142857</ele><time>2026-05-02T13:05:49.069Z</time></trkpt><trkpt lat="45.3530028" lon="10.7269599"><ele>64.85714285714286</ele><time>2026-05-02T13:05:55.07Z</time></trkpt><trkpt lat="45.3529528" lon="10.7268847"><ele>65.14285714285714</ele><time>2026-05-02T13:06:01.07Z</time></trkpt><trkpt lat="45.3528864" lon="10.7269129"><ele>65.42857142857143</ele><time>2026-05-02T13:06:08.07Z</time></trkpt><trkpt lat="45.3528826" lon="10.7268226"><ele>65.71428571428571</ele><time>2026-05-02T13:13:18.068Z</time></trkpt><trkpt lat="45.3529268" lon="10.7267382"><ele>66.0</ele><time>2026-05-02T13:13:30.068Z</time></trkpt><trkpt lat="45.3528991" lon="10.7266442"><ele>66.0</ele><time>2026-05-02T13:13:34.068Z</time></trkpt><trkpt lat="45.3528655" lon="10.726545"><ele>66.0</ele><time>2026-05-02T13:13:38.068Z</time></trkpt><trkpt lat="45.3528191" lon="10.7264596"><ele>66.0</ele><time>2026-05-02T13:13:42.066Z</time></trkpt><trkpt lat="45.352788" lon="10.7263512"><ele>66.0</ele><time>2026-05-02T13:13:46.068Z</time></trkpt><trkpt lat="45.3527554" lon="10.726252"><ele>66.0</ele><time>2026-05-02T13:13:49.067Z</time></trkpt><trkpt lat="45.3527205" lon="10.7261433"><ele>66.0</ele><time>2026-05-02T13:13:52.068Z</time></trkpt><trkpt lat="45.3526914" lon="10.7260474"><ele>65.5</ele><time>2026-05-02T13:13:55.067Z</time></trkpt><trkpt lat="45.3526558" lon="10.7259532"><ele>65.0</ele><time>2026-05-02T13:13:58.068Z</time></trkpt><trkpt lat="45.3526195" lon="10.7258549"><ele>64.5</ele><time>2026-05-02T13:14:01.067Z</time></trkpt><trkpt lat="45.3525804" lon="10.7257579"><ele>64.0</ele><time>2026-05-02T13:14:04.067Z</time></trkpt><trkpt lat="45.3525456" lon="10.7256442"><ele>63.5</ele><time>2026-05-02T13:14:07.065Z</time></trkpt><trkpt lat="45.3525012" lon="10.7255333"><ele>63.0</ele><time>2026-05-02T13:14:10.067Z</time></trkpt><trkpt lat="45.3524624" lon="10.7254184"><ele>63.0</ele><time>2026-05-02T13:14:13.068Z</time></trkpt><trkpt lat="45.3524309" lon="10.725339"><ele>63.0</ele><time>2026-05-02T13:14:15.068Z</time></trkpt><trkpt lat="45.3523963" lon="10.7252622"><ele>63.0</ele><time>2026-05-02T13:14:17.068Z</time></trkpt><trkpt lat="45.3523662" lon="10.7251814"><ele>63.0</ele><time>2026-05-02T13:14:19.068Z</time></trkpt><trkpt lat="45.3523319" lon="10.7251042"><ele>63.0</ele><time>2026-05-02T13:14:21.067Z</time></trkpt><trkpt lat="45.3522862" lon="10.7249949"><ele>63.0</ele><time>2026-05-02T13:14:24.067Z</time></trkpt><trkpt lat="45.3522464" lon="10.7248809"><ele>63.0</ele><time>2026-05-02T13:14:27.066Z</time></trkpt><trkpt lat="45.3522139" lon="10.7248033"><ele>63.714285714285715</ele><time>2026-05-02T13:14:29.066Z</time></trkpt><trkpt lat="45.3521794" lon="10.724727"><ele>64.42857142857143</ele><time>2026-05-02T13:14:31.067Z</time></trkpt><trkpt lat="45.3521415" lon="10.7246488"><ele>65.14285714285714</ele><time>2026-05-02T13:14:33.068Z</time></trkpt><trkpt lat="45.3521053" lon="10.7245673"><ele>65.85714285714286</ele><time>2026-05-02T13:14:35.067Z</time></trkpt><trkpt lat="45.3520731" lon="10.7244844"><ele>66.57142857142857</ele><time>2026-05-02T13:14:37.067Z</time></trkpt><trkpt lat="45.3520368" lon="10.7244088"><ele>67.28571428571428</ele><time>2026-05-02T13:14:39.066Z</time></trkpt><trkpt lat="45.3520007" lon="10.7243332"><ele>68.0</ele><time>2026-05-02T13:14:41.067Z</time></trkpt><trkpt lat="45.3519644" lon="10.7242543"><ele>67.99999999999999</ele><time>2026-05-02T13:14:43.068Z</time></trkpt><trkpt lat="45.3519235" lon="10.7241803"><ele>68.0</ele><time>2026-05-02T13:14:45.067Z</time></trkpt><trkpt lat="45.3518883" lon="10.7240957"><ele>68.0</ele><time>2026-05-02T13:14:47.068Z</time></trkpt><trkpt lat="45.3518581" lon="10.7240121"><ele>68.0</ele><time>2026-05-02T13:14:49.067Z</time></trkpt><trkpt lat="45.3518292" lon="10.723924"><ele>68.0</ele><time>2026-05-02T13:14:51.067Z</time></trkpt><trkpt lat="45.3517955" lon="10.7238368"><ele>67.99999999999999</ele><time>2026-05-02T13:14:53.067Z</time></trkpt><trkpt lat="45.3517634" lon="10.7237578"><ele>68.0</ele><time>2026-05-02T13:14:55.067Z</time></trkpt><trkpt lat="45.351729" lon="10.7236527"><ele>66.4</ele><time>2026-05-02T13:14:58.068Z</time></trkpt><trkpt lat="45.3517296" lon="10.7235605"><ele>64.8</ele><time>2026-05-02T13:15:00.067Z</time></trkpt><trkpt lat="45.3518056" lon="10.7234726"><ele>63.2</ele><time>2026-05-02T13:15:02.067Z</time></trkpt><trkpt lat="45.3518913" lon="10.7233547"><ele>61.6</ele><time>2026-05-02T13:15:04.068Z</time></trkpt><trkpt lat="45.3519519" lon="10.7232073"><ele>60.0</ele><time>2026-05-02T13:15:06.066Z</time></trkpt><trkpt lat="45.3519544" lon="10.7230417"><ele>60.0</ele><time>2026-05-02T13:15:08.067Z</time></trkpt><trkpt lat="45.351918" lon="10.7228996"><ele>60.0</ele><time>2026-05-02T13:15:10.068Z</time></trkpt><trkpt lat="45.3518807" lon="10.7227678"><ele>60.0</ele><time>2026-05-02T13:15:12.068Z</time></trkpt><trkpt lat="45.3518529" lon="10.7226383"><ele>60.0</ele><time>2026-05-02T13:15:14.067Z</time></trkpt><trkpt lat="45.3518233" lon="10.7225196"><ele>60.0</ele><time>2026-05-02T13:15:16.066Z</time></trkpt><trkpt lat="45.3517905" lon="10.7224073"><ele>59.0</ele><time>2026-05-02T13:15:18.066Z</time></trkpt><trkpt lat="45.3517549" lon="10.7223001"><ele>58.0</ele><time>2026-05-02T13:15:20.068Z</time></trkpt><trkpt lat="45.3517252" lon="10.7222073"><ele>57.0</ele><time>2026-05-02T13:15:22.065Z</time></trkpt><trkpt lat="45.3516932" lon="10.7221066"><ele>56.0</ele><time>2026-05-02T13:15:24.065Z</time></trkpt><trkpt lat="45.3516618" lon="10.7220072"><ele>55.0</ele><time>2026-05-02T13:15:26.066Z</time></trkpt><trkpt lat="45.3516326" lon="10.7219091"><ele>54.0</ele><time>2026-05-02T13:15:28.066Z</time></trkpt><trkpt lat="45.3516038" lon="10.7218095"><ele>53.5</ele><time>2026-05-02T13:15:30.066Z</time></trkpt><trkpt lat="45.3515721" lon="10.7217105"><ele>53.0</ele><time>2026-05-02T13:15:32.067Z</time></trkpt><trkpt lat="45.3515406" lon="10.7216102"><ele>52.5</ele><time>2026-05-02T13:15:34.068Z</time></trkpt><trkpt lat="45.351511" lon="10.7215127"><ele>52.0</ele><time>2026-05-02T13:15:36.066Z</time></trkpt><trkpt lat="45.3514814" lon="10.7214028"><ele>51.5</ele><time>2026-05-02T13:15:38.068Z</time></trkpt><trkpt lat="45.3514514" lon="10.7212871"><ele>51.0</ele><time>2026-05-02T13:15:40.067Z</time></trkpt><trkpt lat="45.3514222" lon="10.721178"><ele>51.0</ele><time>2026-05-02T13:15:42.066Z</time></trkpt><trkpt lat="45.3513939" lon="10.72107"><ele>51.0</ele><time>2026-05-02T13:15:44.068Z</time></trkpt><trkpt lat="45.3513678" lon="10.7209641"><ele>51.0</ele><time>2026-05-02T13:15:46.067Z</time></trkpt><trkpt lat="45.3513402" lon="10.7208561"><ele>51.0</ele><time>2026-05-02T13:15:48.067Z</time></trkpt><trkpt lat="45.3513107" lon="10.7207463"><ele>51.0</ele><time>2026-05-02T13:15:50.067Z</time></trkpt><trkpt lat="45.3512806" lon="10.7206375"><ele>51.0</ele><time>2026-05-02T13:15:52.067Z</time></trkpt><trkpt lat="45.3512515" lon="10.720522"><ele>51.833333333333336</ele><time>2026-05-02T13:15:54.066Z</time></trkpt><trkpt lat="45.3512196" lon="10.720412"><ele>52.66666666666667</ele><time>2026-05-02T13:15:56.067Z</time></trkpt><trkpt lat="45.3511908" lon="10.720305"><ele>53.5</ele><time>2026-05-02T13:15:58.067Z</time></trkpt><trkpt lat="45.3511693" lon="10.7201977"><ele>54.333333333333336</ele><time>2026-05-02T13:16:00.068Z</time></trkpt><trkpt lat="45.3511434" lon="10.7200906"><ele>55.16666666666667</ele><time>2026-05-02T13:16:02.066Z</time></trkpt><trkpt lat="45.3511207" lon="10.7199841"><ele>56.0</ele><time>2026-05-02T13:16:04.067Z</time></trkpt><trkpt lat="45.3510968" lon="10.7198791"><ele>56.00000000000001</ele><time>2026-05-02T13:16:06.066Z</time></trkpt><trkpt lat="45.3510698" lon="10.7197696"><ele>56.0</ele><time>2026-05-02T13:16:08.066Z</time></trkpt><trkpt lat="45.3510438" lon="10.7196667"><ele>56.0</ele><time>2026-05-02T13:16:10.066Z</time></trkpt><trkpt lat="45.3510147" lon="10.7195627"><ele>56.0</ele><time>2026-05-02T13:16:12.066Z</time></trkpt><trkpt lat="45.3509851" lon="10.7194582"><ele>56.00000000000001</ele><time>2026-05-02T13:16:14.067Z</time></trkpt><trkpt lat="45.3509615" lon="10.7193628"><ele>56.0</ele><time>2026-05-02T13:16:16.067Z</time></trkpt><trkpt lat="45.3509361" lon="10.7192634"><ele>55.57142857142857</ele><time>2026-05-02T13:16:18.066Z</time></trkpt><trkpt lat="45.3509088" lon="10.7191584"><ele>55.14285714285714</ele><time>2026-05-02T13:16:20.065Z</time></trkpt><trkpt lat="45.3508849" lon="10.7190571"><ele>54.714285714285715</ele><time>2026-05-02T13:16:22.067Z</time></trkpt><trkpt lat="45.3508605" lon="10.7189645"><ele>54.285714285714285</ele><time>2026-05-02T13:16:24.067Z</time></trkpt><trkpt lat="45.3508361" lon="10.7188686"><ele>53.857142857142854</ele><time>2026-05-02T13:16:26.066Z</time></trkpt><trkpt lat="45.3508123" lon="10.7187761"><ele>53.42857142857143</ele><time>2026-05-02T13:16:28.067Z</time></trkpt><trkpt lat="45.3507895" lon="10.7186843"><ele>53.0</ele><time>2026-05-02T13:16:30.066Z</time></trkpt><trkpt lat="45.3507637" lon="10.718593"><ele>52.85714285714286</ele><time>2026-05-02T13:16:32.067Z</time></trkpt><trkpt lat="45.3507442" lon="10.7185017"><ele>52.71428571428571</ele><time>2026-05-02T13:16:34.067Z</time></trkpt><trkpt lat="45.3507237" lon="10.7184078"><ele>52.57142857142857</ele><time>2026-05-02T13:16:36.067Z</time></trkpt><trkpt lat="45.3507048" lon="10.7183121"><ele>52.42857142857143</ele><time>2026-05-02T13:16:38.066Z</time></trkpt><trkpt lat="45.3506851" lon="10.7182149"><ele>52.28571428571429</ele><time>2026-05-02T13:16:40.066Z</time></trkpt><trkpt lat="45.3506636" lon="10.7181174"><ele>52.14285714285714</ele><time>2026-05-02T13:16:42.066Z</time></trkpt><trkpt lat="45.3506415" lon="10.7180205"><ele>52.0</ele><time>2026-05-02T13:16:44.066Z</time></trkpt><trkpt lat="45.3506239" lon="10.7179251"><ele>52.0</ele><time>2026-05-02T13:16:46.067Z</time></trkpt><trkpt lat="45.3506096" lon="10.7178296"><ele>52.0</ele><time>2026-05-02T13:16:48.066Z</time></trkpt><trkpt lat="45.3505906" lon="10.7177366"><ele>52.0</ele><time>2026-05-02T13:16:50.067Z</time></trkpt><trkpt lat="45.3505715" lon="10.7176433"><ele>52.0</ele><time>2026-05-02T13:16:52.067Z</time></trkpt><trkpt lat="45.3505531" lon="10.7175485"><ele>52.0</ele><time>2026-05-02T13:16:54.067Z</time></trkpt><trkpt lat="45.3509615" lon="10.7193628"><ele>52.14285714285714</ele><time>2026-05-02T13:16:16.067Z</time></trkpt><trkpt lat="45.3509361" lon="10.7192634"><ele>52.28571428571429</ele><time>2026-05-02T13:16:18.066Z</time></trkpt><trkpt lat="45.3509088" lon="10.7191584"><ele>52.42857142857143</ele><time>2026-05-02T13:16:20.065Z</time></trkpt><trkpt lat="45.3508849" lon="10.7190571"><ele>52.57142857142857</ele><time>2026-05-02T13:16:22.067Z</time></trkpt><trkpt lat="45.3508605" lon="10.7189645"><ele>52.71428571428571</ele><time>2026-05-02T13:16:24.067Z</time></trkpt><trkpt lat="45.3508361" lon="10.7188686"><ele>52.85714285714286</ele><time>2026-05-02T13:16:26.066Z</time></trkpt><trkpt lat="45.3508123" lon="10.7187761"><ele>53.0</ele><time>2026-05-02T13:16:28.067Z</time></trkpt><trkpt lat="45.3507895" lon="10.7186843"><ele>53.0</ele><time>2026-05-02T13:16:30.066Z</time></trkpt><trkpt lat="45.3507637" lon="10.718593"><ele>53.0</ele><time>2026-05-02T13:16:32.067Z</time></trkpt><trkpt lat="45.3507442" lon="10.7185017"><ele>53.0</ele><time>2026-05-02T13:16:34.067Z</time></trkpt><trkpt lat="45.3507237" lon="10.7184078"><ele>53.0</ele><time>2026-05-02T13:16:36.067Z</time></trkpt><trkpt lat="45.3507048" lon="10.7183121"><ele>53.0</ele><time>2026-05-02T13:16:38.066Z</time></trkpt><trkpt lat="45.3506851" lon="10.7182149"><ele>53.0</ele><time>2026-05-02T13:16:40.066Z</time></trkpt><trkpt lat="45.3506636" lon="10.7181174"><ele>53.0</ele><time>2026-05-02T13:16:42.066Z</time></trkpt><trkpt lat="45.3506415" lon="10.7180205"><ele>53.0</ele><time>2026-05-02T13:16:44.066Z</time></trkpt><trkpt lat="45.3506239" lon="10.7179251"><ele>53.0</ele><time>2026-05-02T13:16:46.067Z</time></trkpt><trkpt lat="45.3506096" lon="10.7178296"><ele>53.0</ele><time>2026-05-02T13:16:48.066Z</time></trkpt><trkpt lat="45.3505906" lon="10.7177366"><ele>53.0</ele><time>2026-05-02T13:16:50.067Z</time></trkpt><trkpt lat="45.3505715" lon="10.7176433"><ele>53.0</ele><time>2026-05-02T13:16:52.067Z</time></trkpt><trkpt lat="45.3505531" lon="10.7175485"><ele>53.0</ele><time>2026-05-02T13:16:54.067Z</time></trkpt><trkpt lat="45.3505361" lon="10.7174582"><ele>53.0</ele><time>2026-05-02T13:16:56.067Z</time></trkpt><trkpt lat="45.3505176" lon="10.7173664"><ele>53.0</ele><time>2026-05-02T13:16:58.066Z</time></trkpt><trkpt lat="45.3504998" lon="10.7172697"><ele>53.0</ele><time>2026-05-02T13:17:00.066Z</time></trkpt><trkpt lat="45.3504798" lon="10.7171705"><ele>53.0</ele><time>2026-05-02T13:17:02.066Z</time></trkpt><trkpt lat="45.35046" lon="10.7170702"><ele>53.0</ele><time>2026-05-02T13:17:04.067Z</time></trkpt><trkpt lat="45.3504398" lon="10.71697"><ele>53.0</ele><time>2026-05-02T13:17:06.067Z</time></trkpt><trkpt lat="45.3504184" lon="10.7168756"><ele>53.0</ele><time>2026-05-02T13:17:08.067Z</time></trkpt><trkpt lat="45.3503971" lon="10.7167779"><ele>53.0</ele><time>2026-05-02T13:17:10.067Z</time></trkpt><trkpt lat="45.3503748" lon="10.716684"><ele>53.0</ele><time>2026-05-02T13:17:12.067Z</time></trkpt><trkpt lat="45.3503509" lon="10.7165877"><ele>53.0</ele><time>2026-05-02T13:17:14.067Z</time></trkpt><trkpt lat="45.3503285" lon="10.7164966"><ele>53.0</ele><time>2026-05-02T13:17:16.066Z</time></trkpt><trkpt lat="45.3503056" lon="10.7164022"><ele>53.0</ele><time>2026-05-02T13:17:18.066Z</time></trkpt><trkpt lat="45.350283" lon="10.7163075"><ele>53.0</ele><time>2026-05-02T13:17:20.066Z</time></trkpt><trkpt lat="45.3502599" lon="10.7162133"><ele>53.0</ele><time>2026-05-02T13:17:22.067Z</time></trkpt><trkpt lat="45.3502397" lon="10.7161199"><ele>53.0</ele><time>2026-05-02T13:17:24.066Z</time></trkpt><trkpt lat="45.3502196" lon="10.7160309"><ele>53.0</ele><time>2026-05-02T13:17:26.066Z</time></trkpt><trkpt lat="45.3501964" lon="10.7159409"><ele>53.0</ele><time>2026-05-02T13:17:28.067Z</time></trkpt><trkpt lat="45.3501707" lon="10.7158478"><ele>53.0</ele><time>2026-05-02T13:17:30.066Z</time></trkpt><trkpt lat="45.3501459" lon="10.7157549"><ele>53.0</ele><time>2026-05-02T13:17:32.066Z</time></trkpt><trkpt lat="45.350121" lon="10.7156635"><ele>53.0</ele><time>2026-05-02T13:17:34.067Z</time></trkpt><trkpt lat="45.3500961" lon="10.7155747"><ele>53.0</ele><time>2026-05-02T13:17:36.066Z</time></trkpt><trkpt lat="45.3500712" lon="10.7154832"><ele>53.0</ele><time>2026-05-02T13:17:38.066Z</time></trkpt><trkpt lat="45.3500459" lon="10.7153937"><ele>53.0</ele><time>2026-05-02T13:17:40.067Z</time></trkpt><trkpt lat="45.3500173" lon="10.7153062"><ele>53.0</ele><time>2026-05-02T13:17:42.065Z</time></trkpt><trkpt lat="45.349984" lon="10.7152202"><ele>53.0</ele><time>2026-05-02T13:17:44.065Z</time></trkpt><trkpt lat="45.3499513" lon="10.7151388"><ele>53.0</ele><time>2026-05-02T13:17:46.067Z</time></trkpt><trkpt lat="45.3499143" lon="10.7150583"><ele>53.0</ele><time>2026-05-02T13:17:48.065Z</time></trkpt><trkpt lat="45.3498759" lon="10.7149804"><ele>53.0</ele><time>2026-05-02T13:17:50.066Z</time></trkpt><trkpt lat="45.3498416" lon="10.7148992"><ele>53.0</ele><time>2026-05-02T13:17:52.067Z</time></trkpt><trkpt lat="45.3498057" lon="10.7148211"><ele>52.85714285714286</ele><time>2026-05-02T13:17:54.066Z</time></trkpt><trkpt lat="45.3497682" lon="10.7147398"><ele>52.71428571428571</ele><time>2026-05-02T13:17:56.067Z</time></trkpt><trkpt lat="45.3497331" lon="10.7146539"><ele>52.57142857142857</ele><time>2026-05-02T13:17:58.067Z</time></trkpt><trkpt lat="45.3496925" lon="10.7145627"><ele>52.42857142857143</ele><time>2026-05-02T13:18:00.067Z</time></trkpt><trkpt lat="45.3496483" lon="10.7144752"><ele>52.28571428571429</ele><time>2026-05-02T13:18:02.067Z</time></trkpt><trkpt lat="45.3496045" lon="10.7143828"><ele>52.14285714285714</ele><time>2026-05-02T13:18:04.066Z</time></trkpt><trkpt lat="45.3495621" lon="10.7142873"><ele>52.0</ele><time>2026-05-02T13:18:06.066Z</time></trkpt><trkpt lat="45.3495171" lon="10.7141893"><ele>51.83333333333333</ele><time>2026-05-02T13:18:08.065Z</time></trkpt><trkpt lat="45.3494704" lon="10.7140898"><ele>51.666666666666664</ele><time>2026-05-02T13:18:10.066Z</time></trkpt><trkpt lat="45.3494249" lon="10.7139824"><ele>51.5</ele><time>2026-05-02T13:18:12.066Z</time></trkpt><trkpt lat="45.3493721" lon="10.7138741"><ele>51.33333333333333</ele><time>2026-05-02T13:18:14.064Z</time></trkpt><trkpt lat="45.3493308" lon="10.7137669"><ele>51.166666666666664</ele><time>2026-05-02T13:18:16.066Z</time></trkpt><trkpt lat="45.3492845" lon="10.7136701"><ele>51.0</ele><time>2026-05-02T13:18:18.067Z</time></trkpt><trkpt lat="45.3492379" lon="10.7135776"><ele>51.285714285714285</ele><time>2026-05-02T13:18:20.065Z</time></trkpt><trkpt lat="45.3491985" lon="10.7134909"><ele>51.57142857142857</ele><time>2026-05-02T13:18:22.065Z</time></trkpt><trkpt lat="45.3491614" lon="10.7134004"><ele>51.85714285714286</ele><time>2026-05-02T13:18:24.066Z</time></trkpt><trkpt lat="45.3491257" lon="10.7133201"><ele>52.14285714285714</ele><time>2026-05-02T13:18:26.065Z</time></trkpt><trkpt lat="45.3490884" lon="10.7132372"><ele>52.42857142857142</ele><time>2026-05-02T13:18:28.066Z</time></trkpt><trkpt lat="45.3490502" lon="10.7131533"><ele>52.714285714285715</ele><time>2026-05-02T13:18:30.066Z</time></trkpt><trkpt lat="45.349011" lon="10.7130697"><ele>53.0</ele><time>2026-05-02T13:18:32.067Z</time></trkpt><trkpt lat="45.3489706" lon="10.7129827"><ele>53.00000000000001</ele><time>2026-05-02T13:18:34.065Z</time></trkpt><trkpt lat="45.3489277" lon="10.7128931"><ele>53.0</ele><time>2026-05-02T13:18:36.066Z</time></trkpt><trkpt lat="45.348883" lon="10.7128054"><ele>53.0</ele><time>2026-05-02T13:18:38.067Z</time></trkpt><trkpt lat="45.3488385" lon="10.7127163"><ele>53.0</ele><time>2026-05-02T13:18:40.065Z</time></trkpt><trkpt lat="45.348794" lon="10.7126276"><ele>53.00000000000001</ele><time>2026-05-02T13:18:42.067Z</time></trkpt><trkpt lat="45.3487491" lon="10.7125436"><ele>53.0</ele><time>2026-05-02T13:18:44.065Z</time></trkpt><trkpt lat="45.3487039" lon="10.7124604"><ele>53.0</ele><time>2026-05-02T13:18:46.065Z</time></trkpt><trkpt lat="45.3486552" lon="10.7123806"><ele>53.0</ele><time>2026-05-02T13:18:48.066Z</time></trkpt><trkpt lat="45.3486041" lon="10.7123038"><ele>53.0</ele><time>2026-05-02T13:18:50.067Z</time></trkpt><trkpt lat="45.3485532" lon="10.7122287"><ele>53.0</ele><time>2026-05-02T13:18:52.067Z</time></trkpt><trkpt lat="45.348507" lon="10.7121492"><ele>53.0</ele><time>2026-05-02T13:18:54.066Z</time></trkpt><trkpt lat="45.3484534" lon="10.7120777"><ele>53.0</ele><time>2026-05-02T13:18:56.066Z</time></trkpt><trkpt lat="45.3483992" lon="10.7120069"><ele>53.0</ele><time>2026-05-02T13:18:58.066Z</time></trkpt><trkpt lat="45.3483451" lon="10.711935"><ele>53.00000000000001</ele><time>2026-05-02T13:19:00.065Z</time></trkpt><trkpt lat="45.3482842" lon="10.7118636"><ele>53.0</ele><time>2026-05-02T13:19:02.064Z</time></trkpt><trkpt lat="45.3482217" lon="10.7117916"><ele>53.0</ele><time>2026-05-02T13:19:04.066Z</time></trkpt><trkpt lat="45.3481632" lon="10.7117145"><ele>53.0</ele><time>2026-05-02T13:19:06.067Z</time></trkpt><trkpt lat="45.3481054" lon="10.7116406"><ele>53.00000000000001</ele><time>2026-05-02T13:19:08.067Z</time></trkpt><trkpt lat="45.3480491" lon="10.7115787"><ele>53.0</ele><time>2026-05-02T13:19:10.066Z</time></trkpt><trkpt lat="45.3479923" lon="10.7115192"><ele>53.00000000000001</ele><time>2026-05-02T13:19:12.065Z</time></trkpt><trkpt lat="45.3479341" lon="10.7114579"><ele>53.0</ele><time>2026-05-02T13:19:14.065Z</time></trkpt><trkpt lat="45.3478708" lon="10.7113993"><ele>53.0</ele><time>2026-05-02T13:19:16.065Z</time></trkpt><trkpt lat="45.3478065" lon="10.7113444"><ele>53.0</ele><time>2026-05-02T13:19:18.066Z</time></trkpt><trkpt lat="45.3477383" lon="10.7112914"><ele>53.00000000000001</ele><time>2026-05-02T13:19:20.064Z</time></trkpt><trkpt lat="45.3476707" lon="10.7112393"><ele>53.0</ele><time>2026-05-02T13:19:22.066Z</time></trkpt><trkpt lat="45.3476" lon="10.7111887"><ele>53.0</ele><time>2026-05-02T13:19:24.066Z</time></trkpt><trkpt lat="45.3475267" lon="10.7111431"><ele>53.0</ele><time>2026-05-02T13:19:26.066Z</time></trkpt><trkpt lat="45.3474526" lon="10.7110971"><ele>53.0</ele><time>2026-05-02T13:19:28.066Z</time></trkpt><trkpt lat="45.3473787" lon="10.7110531"><ele>53.0</ele><time>2026-05-02T13:19:30.067Z</time></trkpt><trkpt lat="45.3472343" lon="10.7109746"><ele>53.0</ele><time>2026-05-02T13:19:34.065Z</time></trkpt><trkpt lat="45.3471612" lon="10.7109327"><ele>52.66666666666667</ele><time>2026-05-02T13:19:36.066Z</time></trkpt><trkpt lat="45.3470888" lon="10.7108919"><ele>52.333333333333336</ele><time>2026-05-02T13:19:38.066Z</time></trkpt><trkpt lat="45.347017" lon="10.7108532"><ele>52.0</ele><time>2026-05-02T13:19:40.065Z</time></trkpt><trkpt lat="45.3469457" lon="10.7108144"><ele>51.66666666666667</ele><time>2026-05-02T13:19:42.066Z</time></trkpt><trkpt lat="45.3468744" lon="10.7107781"><ele>51.333333333333336</ele><time>2026-05-02T13:19:44.066Z</time></trkpt><trkpt lat="45.3468035" lon="10.7107401"><ele>51.0</ele><time>2026-05-02T13:19:46.065Z</time></trkpt><trkpt lat="45.3467314" lon="10.7107057"><ele>51.0</ele><time>2026-05-02T13:19:48.066Z</time></trkpt><trkpt lat="45.346658" lon="10.710673"><ele>51.0</ele><time>2026-05-02T13:19:50.066Z</time></trkpt><trkpt lat="45.3465852" lon="10.7106415"><ele>51.0</ele><time>2026-05-02T13:19:52.065Z</time></trkpt><trkpt lat="45.3465119" lon="10.7106105"><ele>51.0</ele><time>2026-05-02T13:19:54.066Z</time></trkpt><trkpt lat="45.3464369" lon="10.7105797"><ele>51.0</ele><time>2026-05-02T13:19:56.065Z</time></trkpt><trkpt lat="45.3463629" lon="10.7105493"><ele>51.0</ele><time>2026-05-02T13:19:58.067Z</time></trkpt><trkpt lat="45.3462918" lon="10.7105211"><ele>51.166666666666664</ele><time>2026-05-02T13:20:00.066Z</time></trkpt><trkpt lat="45.3462192" lon="10.7104946"><ele>51.33333333333333</ele><time>2026-05-02T13:20:02.066Z</time></trkpt><trkpt lat="45.3461455" lon="10.7104659"><ele>51.5</ele><time>2026-05-02T13:20:04.067Z</time></trkpt><trkpt lat="45.3460729" lon="10.7104384"><ele>51.666666666666664</ele><time>2026-05-02T13:20:06.066Z</time></trkpt><trkpt lat="45.345997" lon="10.710417"><ele>51.83333333333333</ele><time>2026-05-02T13:20:08.065Z</time></trkpt><trkpt lat="45.3459204" lon="10.7103983"><ele>52.0</ele><time>2026-05-02T13:20:10.066Z</time></trkpt><trkpt lat="45.345846" lon="10.7103767"><ele>52.0</ele><time>2026-05-02T13:20:12.066Z</time></trkpt><trkpt lat="45.3457733" lon="10.7103563"><ele>52.0</ele><time>2026-05-02T13:20:14.066Z</time></trkpt><trkpt lat="45.3457014" lon="10.7103388"><ele>52.0</ele><time>2026-05-02T13:20:16.065Z</time></trkpt><trkpt lat="45.3456277" lon="10.7103212"><ele>52.0</ele><time>2026-05-02T13:20:18.065Z</time></trkpt><trkpt lat="45.3455557" lon="10.7103029"><ele>52.0</ele><time>2026-05-02T13:20:20.065Z</time></trkpt><trkpt lat="45.3454817" lon="10.7102828"><ele>52.0</ele><time>2026-05-02T13:20:22.066Z</time></trkpt><trkpt lat="45.3454086" lon="10.7102661"><ele>52.0</ele><time>2026-05-02T13:20:24.066Z</time></trkpt><trkpt lat="45.3453353" lon="10.7102509"><ele>51.83333333333333</ele><time>2026-05-02T13:20:26.065Z</time></trkpt><trkpt lat="45.3452657" lon="10.7102386"><ele>51.666666666666664</ele><time>2026-05-02T13:20:28.065Z</time></trkpt><trkpt lat="45.3451942" lon="10.7102244"><ele>51.5</ele><time>2026-05-02T13:20:30.066Z</time></trkpt><trkpt lat="45.3451217" lon="10.7102099"><ele>51.33333333333333</ele><time>2026-05-02T13:20:32.066Z</time></trkpt><trkpt lat="45.3450482" lon="10.7101985"><ele>51.166666666666664</ele><time>2026-05-02T13:20:34.065Z</time></trkpt><trkpt lat="45.3449706" lon="10.7101873"><ele>51.0</ele><time>2026-05-02T13:20:36.067Z</time></trkpt><trkpt lat="45.3448873" lon="10.7101787"><ele>51.0</ele><time>2026-05-02T13:20:38.066Z</time></trkpt><trkpt lat="45.3448023" lon="10.7101703"><ele>51.0</ele><time>2026-05-02T13:20:40.066Z</time></trkpt><trkpt lat="45.344718" lon="10.7101621"><ele>51.0</ele><time>2026-05-02T13:20:42.065Z</time></trkpt><trkpt lat="45.3446367" lon="10.7101573"><ele>51.0</ele><time>2026-05-02T13:20:44.066Z</time></trkpt><trkpt lat="45.3445619" lon="10.7101536"><ele>51.0</ele><time>2026-05-02T13:20:46.065Z</time></trkpt><trkpt lat="45.3444901" lon="10.7101477"><ele>51.0</ele><time>2026-05-02T13:20:48.066Z</time></trkpt><trkpt lat="45.3443758" lon="10.7101444"><ele>50.833333333333336</ele><time>2026-05-02T13:20:51.066Z</time></trkpt><trkpt lat="45.3442986" lon="10.7101398"><ele>50.66666666666667</ele><time>2026-05-02T13:20:53.066Z</time></trkpt><trkpt lat="45.3442223" lon="10.7101345"><ele>50.5</ele><time>2026-05-02T13:20:55.066Z</time></trkpt><trkpt lat="45.34415" lon="10.7101343"><ele>50.333333333333336</ele><time>2026-05-02T13:20:57.066Z</time></trkpt><trkpt lat="45.3440749" lon="10.7101358"><ele>50.16666666666667</ele><time>2026-05-02T13:20:59.065Z</time></trkpt><trkpt lat="45.3439973" lon="10.7101362"><ele>50.0</ele><time>2026-05-02T13:21:01.066Z</time></trkpt><trkpt lat="45.3439187" lon="10.71014"><ele>50.16666666666667</ele><time>2026-05-02T13:21:03.065Z</time></trkpt><trkpt lat="45.3438391" lon="10.7101471"><ele>50.333333333333336</ele><time>2026-05-02T13:21:05.066Z</time></trkpt><trkpt lat="45.3437598" lon="10.7101542"><ele>50.5</ele><time>2026-05-02T13:21:07.066Z</time></trkpt><trkpt lat="45.3436823" lon="10.7101614"><ele>50.66666666666667</ele><time>2026-05-02T13:21:09.065Z</time></trkpt><trkpt lat="45.3436044" lon="10.710168"><ele>50.833333333333336</ele><time>2026-05-02T13:21:11.066Z</time></trkpt><trkpt lat="45.343527" lon="10.7101755"><ele>51.0</ele><time>2026-05-02T13:21:13.065Z</time></trkpt><trkpt lat="45.3434523" lon="10.7101833"><ele>51.0</ele><time>2026-05-02T13:21:15.066Z</time></trkpt><trkpt lat="45.3433761" lon="10.7101941"><ele>51.0</ele><time>2026-05-02T13:21:17.065Z</time></trkpt><trkpt lat="45.3432994" lon="10.7102059"><ele>51.0</ele><time>2026-05-02T13:21:19.064Z</time></trkpt><trkpt lat="45.3432256" lon="10.710214"><ele>51.0</ele><time>2026-05-02T13:21:21.066Z</time></trkpt><trkpt lat="45.3431533" lon="10.7102226"><ele>51.0</ele><time>2026-05-02T13:21:23.066Z</time></trkpt><trkpt lat="45.3430794" lon="10.7102389"><ele>51.0</ele><time>2026-05-02T13:21:25.066Z</time></trkpt><trkpt lat="45.343007" lon="10.7102583"><ele>51.0</ele><time>2026-05-02T13:21:27.066Z</time></trkpt><trkpt lat="45.3429327" lon="10.7102764"><ele>50.85714285714286</ele><time>2026-05-02T13:21:29.066Z</time></trkpt><trkpt lat="45.3428576" lon="10.7102935"><ele>50.714285714285715</ele><time>2026-05-02T13:21:31.066Z</time></trkpt><trkpt lat="45.3427853" lon="10.7103108"><ele>50.57142857142857</ele><time>2026-05-02T13:21:33.066Z</time></trkpt><trkpt lat="45.3427126" lon="10.7103248"><ele>50.42857142857143</ele><time>2026-05-02T13:21:35.065Z</time></trkpt><trkpt lat="45.3426386" lon="10.7103447"><ele>50.285714285714285</ele><time>2026-05-02T13:21:37.065Z</time></trkpt><trkpt lat="45.3425672" lon="10.7103641"><ele>50.142857142857146</ele><time>2026-05-02T13:21:39.065Z</time></trkpt><trkpt lat="45.3424941" lon="10.7103853"><ele>50.0</ele><time>2026-05-02T13:21:41.066Z</time></trkpt><trkpt lat="45.3424206" lon="10.7104052"><ele>50.00000000000001</ele><time>2026-05-02T13:21:43.066Z</time></trkpt><trkpt lat="45.342347" lon="10.7104248"><ele>50.0</ele><time>2026-05-02T13:21:45.066Z</time></trkpt><trkpt lat="45.3422717" lon="10.7104481"><ele>50.0</ele><time>2026-05-02T13:21:47.064Z</time></trkpt><trkpt lat="45.3421963" lon="10.7104727"><ele>50.0</ele><time>2026-05-02T13:21:49.066Z</time></trkpt><trkpt lat="45.3421201" lon="10.7104982"><ele>50.00000000000001</ele><time>2026-05-02T13:21:51.066Z</time></trkpt><trkpt lat="45.342044" lon="10.7105285"><ele>50.0</ele><time>2026-05-02T13:21:53.066Z</time></trkpt><trkpt lat="45.3419695" lon="10.7105595"><ele>50.00000000000001</ele><time>2026-05-02T13:21:55.064Z</time></trkpt><trkpt lat="45.3418949" lon="10.7105915"><ele>50.0</ele><time>2026-05-02T13:21:57.065Z</time></trkpt><trkpt lat="45.3418213" lon="10.7106253"><ele>50.0</ele><time>2026-05-02T13:21:59.064Z</time></trkpt><trkpt lat="45.3417494" lon="10.7106571"><ele>50.0</ele><time>2026-05-02T13:22:01.064Z</time></trkpt><trkpt lat="45.3416751" lon="10.7106905"><ele>50.00000000000001</ele><time>2026-05-02T13:22:03.066Z</time></trkpt><trkpt lat="45.3416019" lon="10.7107265"><ele>50.0</ele><time>2026-05-02T13:22:05.064Z</time></trkpt><trkpt lat="45.341528" lon="10.7107623"><ele>50.00000000000001</ele><time>2026-05-02T13:22:07.065Z</time></trkpt><trkpt lat="45.3414539" lon="10.7107961"><ele>50.0</ele><time>2026-05-02T13:22:09.065Z</time></trkpt><trkpt lat="45.3413829" lon="10.7108331"><ele>50.0</ele><time>2026-05-02T13:22:11.066Z</time></trkpt><trkpt lat="45.3413221" lon="10.7108681"><ele>50.0</ele><time>2026-05-02T13:22:13.066Z</time></trkpt><trkpt lat="45.3412364" lon="10.7109108"><ele>50.00000000000001</ele><time>2026-05-02T13:22:16.063Z</time></trkpt><trkpt lat="45.3411511" lon="10.7109622"><ele>50.0</ele><time>2026-05-02T13:22:19.065Z</time></trkpt><trkpt lat="45.3410927" lon="10.710999"><ele>49.85714285714286</ele><time>2026-05-02T13:22:21.066Z</time></trkpt><trkpt lat="45.3410341" lon="10.7110335"><ele>49.714285714285715</ele><time>2026-05-02T13:22:23.065Z</time></trkpt><trkpt lat="45.3409441" lon="10.7110783"><ele>49.57142857142857</ele><time>2026-05-02T13:22:26.066Z</time></trkpt><trkpt lat="45.3408831" lon="10.7111162"><ele>49.42857142857143</ele><time>2026-05-02T13:22:28.066Z</time></trkpt><trkpt lat="45.3408221" lon="10.7111539"><ele>49.285714285714285</ele><time>2026-05-02T13:22:30.065Z</time></trkpt><trkpt lat="45.3407601" lon="10.7111908"><ele>49.142857142857146</ele><time>2026-05-02T13:22:32.066Z</time></trkpt><trkpt lat="45.3406982" lon="10.7112287"><ele>49.0</ele><time>2026-05-02T13:22:34.065Z</time></trkpt><trkpt lat="45.3406346" lon="10.7112667"><ele>49.142857142857146</ele><time>2026-05-02T13:22:36.066Z</time></trkpt><trkpt lat="45.3405697" lon="10.7113022"><ele>49.285714285714285</ele><time>2026-05-02T13:22:38.066Z</time></trkpt><trkpt lat="45.3405036" lon="10.7113407"><ele>49.42857142857143</ele><time>2026-05-02T13:22:40.063Z</time></trkpt><trkpt lat="45.3404347" lon="10.7113782"><ele>49.57142857142857</ele><time>2026-05-02T13:22:42.065Z</time></trkpt><trkpt lat="45.3403654" lon="10.711417"><ele>49.714285714285715</ele><time>2026-05-02T13:22:44.065Z</time></trkpt><trkpt lat="45.3402945" lon="10.7114588"><ele>49.85714285714286</ele><time>2026-05-02T13:22:46.065Z</time></trkpt><trkpt lat="45.3402226" lon="10.7115025"><ele>50.0</ele><time>2026-05-02T13:22:48.065Z</time></trkpt><trkpt lat="45.3401506" lon="10.7115448"><ele>50.00000000000001</ele><time>2026-05-02T13:22:50.065Z</time></trkpt><trkpt lat="45.3400796" lon="10.7115876"><ele>50.0</ele><time>2026-05-02T13:22:52.066Z</time></trkpt><trkpt lat="45.3400065" lon="10.711632"><ele>50.0</ele><time>2026-05-02T13:22:54.066Z</time></trkpt><trkpt lat="45.3399348" lon="10.7116751"><ele>50.0</ele><time>2026-05-02T13:22:56.064Z</time></trkpt><trkpt lat="45.339863" lon="10.711719"><ele>50.00000000000001</ele><time>2026-05-02T13:22:58.065Z</time></trkpt><trkpt lat="45.3397905" lon="10.711764"><ele>50.0</ele><time>2026-05-02T13:23:00.065Z</time></trkpt><trkpt lat="45.3397167" lon="10.7118075"><ele>50.00000000000001</ele><time>2026-05-02T13:23:02.065Z</time></trkpt><trkpt lat="45.3396467" lon="10.7118505"><ele>50.0</ele><time>2026-05-02T13:23:04.066Z</time></trkpt><trkpt lat="45.3395791" lon="10.711891"><ele>50.0</ele><time>2026-05-02T13:23:06.066Z</time></trkpt><trkpt lat="45.3395059" lon="10.7119345"><ele>50.0</ele><time>2026-05-02T13:23:08.065Z</time></trkpt><trkpt lat="45.3394337" lon="10.7119803"><ele>50.00000000000001</ele><time>2026-05-02T13:23:10.065Z</time></trkpt><trkpt lat="45.3393631" lon="10.7120251"><ele>50.0</ele><time>2026-05-02T13:23:12.066Z</time></trkpt><trkpt lat="45.3392924" lon="10.7120707"><ele>50.00000000000001</ele><time>2026-05-02T13:23:14.065Z</time></trkpt><trkpt lat="45.3392201" lon="10.7121159"><ele>50.0</ele><time>2026-05-02T13:23:16.065Z</time></trkpt><trkpt lat="45.3391475" lon="10.7121609"><ele>50.0</ele><time>2026-05-02T13:23:18.066Z</time></trkpt><trkpt lat="45.339075" lon="10.7122038"><ele>50.0</ele><time>2026-05-02T13:23:20.065Z</time></trkpt><trkpt lat="45.3390033" lon="10.7122431"><ele>50.00000000000001</ele><time>2026-05-02T13:23:22.066Z</time></trkpt><trkpt lat="45.3389357" lon="10.7122844"><ele>50.0</ele><time>2026-05-02T13:23:24.064Z</time></trkpt><trkpt lat="45.3388674" lon="10.7123278"><ele>50.16666666666667</ele><time>2026-05-02T13:23:26.065Z</time></trkpt><trkpt lat="45.3387965" lon="10.7123703"><ele>50.333333333333336</ele><time>2026-05-02T13:23:28.064Z</time></trkpt><trkpt lat="45.3387268" lon="10.7124133"><ele>50.5</ele><time>2026-05-02T13:23:30.064Z</time></trkpt><trkpt lat="45.338658" lon="10.7124582"><ele>50.66666666666667</ele><time>2026-05-02T13:23:32.065Z</time></trkpt><trkpt lat="45.3385882" lon="10.7124994"><ele>50.833333333333336</ele><time>2026-05-02T13:23:34.065Z</time></trkpt><trkpt lat="45.3385162" lon="10.7125411"><ele>51.0</ele><time>2026-05-02T13:23:36.064Z</time></trkpt><trkpt lat="45.3384424" lon="10.7125802"><ele>51.0</ele><time>2026-05-02T13:23:38.065Z</time></trkpt><trkpt lat="45.3383689" lon="10.7126189"><ele>51.0</ele><time>2026-05-02T13:23:40.065Z</time></trkpt><trkpt lat="45.3382959" lon="10.7126593"><ele>51.0</ele><time>2026-05-02T13:23:42.065Z</time></trkpt><trkpt lat="45.3382234" lon="10.7127059"><ele>51.0</ele><time>2026-05-02T13:23:44.065Z</time></trkpt><trkpt lat="45.3381505" lon="10.7127518"><ele>51.0</ele><time>2026-05-02T13:23:46.065Z</time></trkpt><trkpt lat="45.3380776" lon="10.7127973"><ele>51.0</ele><time>2026-05-02T13:23:48.065Z</time></trkpt><trkpt lat="45.3380044" lon="10.7128393"><ele>51.333333333333336</ele><time>2026-05-02T13:23:50.066Z</time></trkpt><trkpt lat="45.3379321" lon="10.7128802"><ele>51.66666666666667</ele><time>2026-05-02T13:23:52.065Z</time></trkpt><trkpt lat="45.3378599" lon="10.7129228"><ele>52.0</ele><time>2026-05-02T13:23:54.066Z</time></trkpt><trkpt lat="45.3377877" lon="10.7129629"><ele>52.333333333333336</ele><time>2026-05-02T13:23:56.065Z</time></trkpt><trkpt lat="45.3377173" lon="10.7130034"><ele>52.66666666666667</ele><time>2026-05-02T13:23:58.065Z</time></trkpt><trkpt lat="45.3376464" lon="10.7130456"><ele>53.0</ele><time>2026-05-02T13:24:00.064Z</time></trkpt><trkpt lat="45.3375776" lon="10.7130902"><ele>53.0</ele><time>2026-05-02T13:24:02.063Z</time></trkpt><trkpt lat="45.3375107" lon="10.7131302"><ele>53.0</ele><time>2026-05-02T13:24:04.065Z</time></trkpt><trkpt lat="45.3374453" lon="10.7131712"><ele>53.0</ele><time>2026-05-02T13:24:06.064Z</time></trkpt><trkpt lat="45.3373783" lon="10.7132128"><ele>53.0</ele><time>2026-05-02T13:24:08.066Z</time></trkpt><trkpt lat="45.3373114" lon="10.7132537"><ele>53.0</ele><time>2026-05-02T13:24:10.064Z</time></trkpt><trkpt lat="45.3372474" lon="10.7132966"><ele>53.0</ele><time>2026-05-02T13:24:12.065Z</time></trkpt><trkpt lat="45.3371822" lon="10.713331"><ele>53.0</ele><time>2026-05-02T13:24:14.064Z</time></trkpt><trkpt lat="45.3371151" lon="10.7133675"><ele>53.285714285714285</ele><time>2026-05-02T13:24:16.065Z</time></trkpt><trkpt lat="45.3370485" lon="10.7134086"><ele>53.57142857142857</ele><time>2026-05-02T13:24:18.065Z</time></trkpt><trkpt lat="45.3369785" lon="10.7134508"><ele>53.857142857142854</ele><time>2026-05-02T13:24:20.064Z</time></trkpt><trkpt lat="45.3369091" lon="10.7134936"><ele>54.14285714285714</ele><time>2026-05-02T13:24:22.064Z</time></trkpt><trkpt lat="45.3368415" lon="10.7135374"><ele>54.42857142857143</ele><time>2026-05-02T13:24:24.064Z</time></trkpt><trkpt lat="45.336774" lon="10.7135799"><ele>54.71428571428571</ele><time>2026-05-02T13:24:26.064Z</time></trkpt><trkpt lat="45.336706" lon="10.713619"><ele>55.0</ele><time>2026-05-02T13:24:28.064Z</time></trkpt><trkpt lat="45.3366429" lon="10.7136598"><ele>55.28571428571428</ele><time>2026-05-02T13:24:30.065Z</time></trkpt><trkpt lat="45.3365807" lon="10.7136984"><ele>55.57142857142857</ele><time>2026-05-02T13:24:32.065Z</time></trkpt><trkpt lat="45.3365194" lon="10.7137338"><ele>55.857142857142854</ele><time>2026-05-02T13:24:34.065Z</time></trkpt><trkpt lat="45.3364541" lon="10.7137726"><ele>56.14285714285714</ele><time>2026-05-02T13:24:36.065Z</time></trkpt><trkpt lat="45.3363873" lon="10.7138145"><ele>56.42857142857142</ele><time>2026-05-02T13:24:38.065Z</time></trkpt><trkpt lat="45.3363196" lon="10.7138557"><ele>56.71428571428571</ele><time>2026-05-02T13:24:40.065Z</time></trkpt><trkpt lat="45.3362535" lon="10.7138941"><ele>57.0</ele><time>2026-05-02T13:24:42.065Z</time></trkpt><trkpt lat="45.3361866" lon="10.7139339"><ele>57.0</ele><time>2026-05-02T13:24:44.064Z</time></trkpt><trkpt lat="45.3361209" lon="10.7139752"><ele>56.99999999999999</ele><time>2026-05-02T13:24:46.065Z</time></trkpt><trkpt lat="45.3360543" lon="10.7140155"><ele>57.0</ele><time>2026-05-02T13:24:48.065Z</time></trkpt><trkpt lat="45.335991" lon="10.7140528"><ele>57.0</ele><time>2026-05-02T13:24:50.066Z</time></trkpt><trkpt lat="45.3359246" lon="10.7140921"><ele>56.99999999999999</ele><time>2026-05-02T13:24:52.066Z</time></trkpt><trkpt lat="45.3358536" lon="10.7141361"><ele>57.0</ele><time>2026-05-02T13:24:54.065Z</time></trkpt><trkpt lat="45.3357802" lon="10.714182"><ele>57.0</ele><time>2026-05-02T13:24:56.065Z</time></trkpt><trkpt lat="45.33571" lon="10.7142245"><ele>57.0</ele><time>2026-05-02T13:24:58.064Z</time></trkpt><trkpt lat="45.3356406" lon="10.7142691"><ele>57.0</ele><time>2026-05-02T13:25:00.065Z</time></trkpt><trkpt lat="45.3355678" lon="10.7143157"><ele>57.0</ele><time>2026-05-02T13:25:02.066Z</time></trkpt><trkpt lat="45.3354952" lon="10.7143591"><ele>57.0</ele><time>2026-05-02T13:25:04.064Z</time></trkpt><trkpt lat="45.3354251" lon="10.7143993"><ele>57.0</ele><time>2026-05-02T13:25:06.066Z</time></trkpt><trkpt lat="45.3353657" lon="10.7144311"><ele>57.0</ele><time>2026-05-02T13:25:08.065Z</time></trkpt><trkpt lat="45.3352919" lon="10.7144774"><ele>56.833333333333336</ele><time>2026-05-02T13:25:11.066Z</time></trkpt><trkpt lat="45.3352174" lon="10.7145232"><ele>56.66666666666667</ele><time>2026-05-02T13:25:14.065Z</time></trkpt><trkpt lat="45.335127" lon="10.714574"><ele>56.5</ele><time>2026-05-02T13:25:17.066Z</time></trkpt><trkpt lat="45.3350618" lon="10.7146112"><ele>56.333333333333336</ele><time>2026-05-02T13:25:19.066Z</time></trkpt><trkpt lat="45.3349772" lon="10.7146596"><ele>56.16666666666667</ele><time>2026-05-02T13:25:21.065Z</time></trkpt><trkpt lat="45.3348765" lon="10.7147197"><ele>56.0</ele><time>2026-05-02T13:25:23.065Z</time></trkpt><trkpt lat="45.3347749" lon="10.714782"><ele>55.50000000000001</ele><time>2026-05-02T13:25:25.065Z</time></trkpt><trkpt lat="45.3346805" lon="10.7148508"><ele>55.0</ele><time>2026-05-02T13:25:27.064Z</time></trkpt><trkpt lat="45.3346047" lon="10.7149052"><ele>54.5</ele><time>2026-05-02T13:25:29.065Z</time></trkpt><trkpt lat="45.3345309" lon="10.7149457"><ele>54.0</ele><time>2026-05-02T13:25:31.065Z</time></trkpt><trkpt lat="45.3344642" lon="10.7149939"><ele>53.50000000000001</ele><time>2026-05-02T13:25:33.064Z</time></trkpt><trkpt lat="45.3343986" lon="10.7150207"><ele>53.0</ele><time>2026-05-02T13:25:35.065Z</time></trkpt><trkpt lat="45.3343307" lon="10.7150649"><ele>53.0</ele><time>2026-05-02T13:25:37.064Z</time></trkpt><trkpt lat="45.3342587" lon="10.715098"><ele>53.0</ele><time>2026-05-02T13:25:39.064Z</time></trkpt><trkpt lat="45.3341885" lon="10.7151377"><ele>53.0</ele><time>2026-05-02T13:25:41.065Z</time></trkpt><trkpt lat="45.3341196" lon="10.7151756"><ele>53.0</ele><time>2026-05-02T13:25:43.066Z</time></trkpt><trkpt lat="45.3340506" lon="10.715213"><ele>53.0</ele><time>2026-05-02T13:25:45.064Z</time></trkpt><trkpt lat="45.3339825" lon="10.7152487"><ele>53.0</ele><time>2026-05-02T13:25:47.065Z</time></trkpt><trkpt lat="45.3339102" lon="10.7152826"><ele>53.0</ele><time>2026-05-02T13:25:49.065Z</time></trkpt><trkpt lat="45.3338334" lon="10.71532"><ele>53.42857142857143</ele><time>2026-05-02T13:25:51.065Z</time></trkpt><trkpt lat="45.3337634" lon="10.7153492"><ele>53.857142857142854</ele><time>2026-05-02T13:25:53.064Z</time></trkpt><trkpt lat="45.3336943" lon="10.7153684"><ele>54.285714285714285</ele><time>2026-05-02T13:25:55.064Z</time></trkpt><trkpt lat="45.333622" lon="10.7153978"><ele>54.714285714285715</ele><time>2026-05-02T13:25:57.065Z</time></trkpt><trkpt lat="45.3335506" lon="10.7154262"><ele>55.14285714285714</ele><time>2026-05-02T13:25:59.065Z</time></trkpt><trkpt lat="45.3334811" lon="10.7154501"><ele>55.57142857142857</ele><time>2026-05-02T13:26:01.063Z</time></trkpt><trkpt lat="45.3334127" lon="10.7154771"><ele>56.0</ele><time>2026-05-02T13:26:03.065Z</time></trkpt><trkpt lat="45.3333397" lon="10.7155062"><ele>56.00000000000001</ele><time>2026-05-02T13:26:05.064Z</time></trkpt><trkpt lat="45.3332669" lon="10.7155305"><ele>56.0</ele><time>2026-05-02T13:26:07.064Z</time></trkpt><trkpt lat="45.3331886" lon="10.7155513"><ele>56.0</ele><time>2026-05-02T13:26:09.063Z</time></trkpt><trkpt lat="45.3331052" lon="10.7155684"><ele>56.0</ele><time>2026-05-02T13:26:11.066Z</time></trkpt><trkpt lat="45.3330265" lon="10.7155875"><ele>56.00000000000001</ele><time>2026-05-02T13:26:13.064Z</time></trkpt><trkpt lat="45.332951" lon="10.7156142"><ele>56.0</ele><time>2026-05-02T13:26:15.064Z</time></trkpt><trkpt lat="45.3328759" lon="10.7156323"><ele>55.66666666666667</ele><time>2026-05-02T13:26:17.064Z</time></trkpt><trkpt lat="45.3328036" lon="10.7156478"><ele>55.333333333333336</ele><time>2026-05-02T13:26:19.064Z</time></trkpt><trkpt lat="45.3327318" lon="10.7156646"><ele>55.0</ele><time>2026-05-02T13:26:21.065Z</time></trkpt><trkpt lat="45.3326538" lon="10.7156824"><ele>54.66666666666667</ele><time>2026-05-02T13:26:23.064Z</time></trkpt><trkpt lat="45.3325753" lon="10.7157015"><ele>54.333333333333336</ele><time>2026-05-02T13:26:25.065Z</time></trkpt><trkpt lat="45.3324982" lon="10.7157205"><ele>54.0</ele><time>2026-05-02T13:26:27.065Z</time></trkpt><trkpt lat="45.3324229" lon="10.7157349"><ele>54.0</ele><time>2026-05-02T13:26:29.065Z</time></trkpt><trkpt lat="45.3323467" lon="10.7157454"><ele>54.0</ele><time>2026-05-02T13:26:31.063Z</time></trkpt><trkpt lat="45.3322701" lon="10.7157528"><ele>54.0</ele><time>2026-05-02T13:26:33.063Z</time></trkpt><trkpt lat="45.3321928" lon="10.7157641"><ele>54.0</ele><time>2026-05-02T13:26:35.064Z</time></trkpt><trkpt lat="45.3321172" lon="10.7157724"><ele>54.0</ele><time>2026-05-02T13:26:37.064Z</time></trkpt><trkpt lat="45.3320408" lon="10.7157804"><ele>54.0</ele><time>2026-05-02T13:26:39.064Z</time></trkpt><trkpt lat="45.3319619" lon="10.7157893"><ele>53.5</ele><time>2026-05-02T13:26:41.065Z</time></trkpt><trkpt lat="45.3318824" lon="10.7157901"><ele>53.0</ele><time>2026-05-02T13:26:43.065Z</time></trkpt><trkpt lat="45.3318006" lon="10.7157971"><ele>52.5</ele><time>2026-05-02T13:26:45.064Z</time></trkpt><trkpt lat="45.3317181" lon="10.7158002"><ele>52.0</ele><time>2026-05-02T13:26:47.064Z</time></trkpt><trkpt lat="45.3316375" lon="10.7157999"><ele>51.5</ele><time>2026-05-02T13:26:49.064Z</time></trkpt><trkpt lat="45.3315591" lon="10.7157993"><ele>51.0</ele><time>2026-05-02T13:26:51.064Z</time></trkpt><trkpt lat="45.3314819" lon="10.715797"><ele>51.0</ele><time>2026-05-02T13:26:53.064Z</time></trkpt><trkpt lat="45.3314052" lon="10.7157941"><ele>51.0</ele><time>2026-05-02T13:26:55.064Z</time></trkpt><trkpt lat="45.3313286" lon="10.7157942"><ele>51.0</ele><time>2026-05-02T13:26:57.065Z</time></trkpt><trkpt lat="45.3312506" lon="10.7157938"><ele>51.0</ele><time>2026-05-02T13:26:59.063Z</time></trkpt><trkpt lat="45.3311707" lon="10.7157908"><ele>51.0</ele><time>2026-05-02T13:27:01.064Z</time></trkpt><trkpt lat="45.3310918" lon="10.7157868"><ele>51.0</ele><time>2026-05-02T13:27:03.065Z</time></trkpt><trkpt lat="45.3310131" lon="10.7157802"><ele>51.0</ele><time>2026-05-02T13:27:05.065Z</time></trkpt><trkpt lat="45.3309354" lon="10.7157755"><ele>51.0</ele><time>2026-05-02T13:27:07.064Z</time></trkpt><trkpt lat="45.3308574" lon="10.715768"><ele>51.0</ele><time>2026-05-02T13:27:09.065Z</time></trkpt><trkpt lat="45.3307781" lon="10.7157573"><ele>51.0</ele><time>2026-05-02T13:27:11.064Z</time></trkpt><trkpt lat="45.3306987" lon="10.7157456"><ele>51.0</ele><time>2026-05-02T13:27:13.064Z</time></trkpt><trkpt lat="45.3306254" lon="10.7157285"><ele>51.0</ele><time>2026-05-02T13:27:15.065Z</time></trkpt><trkpt lat="45.3305584" lon="10.7157152"><ele>51.166666666666664</ele><time>2026-05-02T13:27:17.065Z</time></trkpt><trkpt lat="45.3304924" lon="10.7157036"><ele>51.33333333333333</ele><time>2026-05-02T13:27:19.064Z</time></trkpt><trkpt lat="45.3304232" lon="10.7156905"><ele>51.5</ele><time>2026-05-02T13:27:21.065Z</time></trkpt><trkpt lat="45.3303431" lon="10.7156672"><ele>51.666666666666664</ele><time>2026-05-02T13:27:23.064Z</time></trkpt><trkpt lat="45.3302541" lon="10.71565"><ele>51.83333333333333</ele><time>2026-05-02T13:27:25.063Z</time></trkpt><trkpt lat="45.3301683" lon="10.7156263"><ele>52.0</ele><time>2026-05-02T13:27:27.064Z</time></trkpt><trkpt lat="45.3300894" lon="10.7156068"><ele>52.0</ele><time>2026-05-02T13:27:29.065Z</time></trkpt><trkpt lat="45.3300171" lon="10.7155847"><ele>52.0</ele><time>2026-05-02T13:27:31.064Z</time></trkpt><trkpt lat="45.329943" lon="10.7155582"><ele>52.0</ele><time>2026-05-02T13:27:33.063Z</time></trkpt><trkpt lat="45.3298684" lon="10.7155392"><ele>52.0</ele><time>2026-05-02T13:27:35.064Z</time></trkpt><trkpt lat="45.329796" lon="10.7155167"><ele>52.0</ele><time>2026-05-02T13:27:37.064Z</time></trkpt><trkpt lat="45.3297256" lon="10.7154952"><ele>52.0</ele><time>2026-05-02T13:27:39.063Z</time></trkpt><trkpt lat="45.329652" lon="10.7154735"><ele>52.0</ele><time>2026-05-02T13:27:41.064Z</time></trkpt><trkpt lat="45.3295773" lon="10.7154552"><ele>52.166666666666664</ele><time>2026-05-02T13:27:43.064Z</time></trkpt><trkpt lat="45.3295032" lon="10.715435"><ele>52.33333333333333</ele><time>2026-05-02T13:27:45.063Z</time></trkpt><trkpt lat="45.3294293" lon="10.7154102"><ele>52.5</ele><time>2026-05-02T13:27:47.065Z</time></trkpt><trkpt lat="45.3293559" lon="10.7153822"><ele>52.66666666666667</ele><time>2026-05-02T13:27:49.064Z</time></trkpt><trkpt lat="45.3292822" lon="10.7153575"><ele>52.833333333333336</ele><time>2026-05-02T13:27:51.063Z</time></trkpt><trkpt lat="45.3292102" lon="10.7153328"><ele>53.0</ele><time>2026-05-02T13:27:53.065Z</time></trkpt><trkpt lat="45.3291373" lon="10.7153086"><ele>53.00000000000001</ele><time>2026-05-02T13:27:55.063Z</time></trkpt><trkpt lat="45.3290626" lon="10.7152851"><ele>53.0</ele><time>2026-05-02T13:27:57.065Z</time></trkpt><trkpt lat="45.3289878" lon="10.7152657"><ele>53.0</ele><time>2026-05-02T13:27:59.065Z</time></trkpt><trkpt lat="45.3289132" lon="10.715246"><ele>53.0</ele><time>2026-05-02T13:28:01.064Z</time></trkpt><trkpt lat="45.3288373" lon="10.7152252"><ele>53.00000000000001</ele><time>2026-05-02T13:28:03.064Z</time></trkpt><trkpt lat="45.3287607" lon="10.7152031"><ele>53.0</ele><time>2026-05-02T13:28:05.065Z</time></trkpt><trkpt lat="45.3286856" lon="10.7151788"><ele>51.833333333333336</ele><time>2026-05-02T13:28:07.063Z</time></trkpt><trkpt lat="45.3286119" lon="10.715158"><ele>50.66666666666667</ele><time>2026-05-02T13:28:09.065Z</time></trkpt><trkpt lat="45.3285393" lon="10.7151377"><ele>49.5</ele><time>2026-05-02T13:28:11.063Z</time></trkpt><trkpt lat="45.3284655" lon="10.7151169"><ele>48.333333333333336</ele><time>2026-05-02T13:28:13.064Z</time></trkpt><trkpt lat="45.3283891" lon="10.7150994"><ele>47.16666666666667</ele><time>2026-05-02T13:28:15.065Z</time></trkpt><trkpt lat="45.328312" lon="10.7150797"><ele>46.0</ele><time>2026-05-02T13:28:17.064Z</time></trkpt><trkpt lat="45.3282348" lon="10.7150525"><ele>46.0</ele><time>2026-05-02T13:28:19.064Z</time></trkpt><trkpt lat="45.3281588" lon="10.7150267"><ele>46.0</ele><time>2026-05-02T13:28:21.065Z</time></trkpt><trkpt lat="45.3280808" lon="10.7150024"><ele>46.0</ele><time>2026-05-02T13:28:23.064Z</time></trkpt><trkpt lat="45.3280023" lon="10.7149816"><ele>46.0</ele><time>2026-05-02T13:28:25.064Z</time></trkpt><trkpt lat="45.3279263" lon="10.7149587"><ele>46.0</ele><time>2026-05-02T13:28:27.065Z</time></trkpt><trkpt lat="45.3278494" lon="10.7149368"><ele>46.0</ele><time>2026-05-02T13:28:29.064Z</time></trkpt><trkpt lat="45.3277697" lon="10.7149148"><ele>46.0</ele><time>2026-05-02T13:28:31.065Z</time></trkpt><trkpt lat="45.3276872" lon="10.7148939"><ele>46.0</ele><time>2026-05-02T13:28:33.065Z</time></trkpt><trkpt lat="45.3276045" lon="10.7148726"><ele>46.0</ele><time>2026-05-02T13:28:35.063Z</time></trkpt><trkpt lat="45.3275248" lon="10.7148508"><ele>46.0</ele><time>2026-05-02T13:28:37.065Z</time></trkpt><trkpt lat="45.3274466" lon="10.7148278"><ele>46.0</ele><time>2026-05-02T13:28:39.063Z</time></trkpt><trkpt lat="45.327369" lon="10.7148044"><ele>46.0</ele><time>2026-05-02T13:28:41.065Z</time></trkpt><trkpt lat="45.3272928" lon="10.7147835"><ele>46.333333333333336</ele><time>2026-05-02T13:28:43.063Z</time></trkpt><trkpt lat="45.3272149" lon="10.7147584"><ele>46.66666666666667</ele><time>2026-05-02T13:28:45.063Z</time></trkpt><trkpt lat="45.3271355" lon="10.7147355"><ele>47.0</ele><time>2026-05-02T13:28:47.064Z</time></trkpt><trkpt lat="45.3270557" lon="10.7147159"><ele>47.333333333333336</ele><time>2026-05-02T13:28:49.063Z</time></trkpt><trkpt lat="45.3269763" lon="10.7146921"><ele>47.666666666666664</ele><time>2026-05-02T13:28:51.063Z</time></trkpt><trkpt lat="45.3269013" lon="10.7146689"><ele>48.0</ele><time>2026-05-02T13:28:53.065Z</time></trkpt><trkpt lat="45.3268265" lon="10.71465"><ele>48.0</ele><time>2026-05-02T13:28:55.063Z</time></trkpt><trkpt lat="45.3267545" lon="10.7146314"><ele>48.0</ele><time>2026-05-02T13:28:57.064Z</time></trkpt><trkpt lat="45.3266754" lon="10.7146085"><ele>48.0</ele><time>2026-05-02T13:28:59.064Z</time></trkpt><trkpt lat="45.3265975" lon="10.714587"><ele>48.0</ele><time>2026-05-02T13:29:01.064Z</time></trkpt><trkpt lat="45.3265193" lon="10.714565"><ele>48.0</ele><time>2026-05-02T13:29:03.063Z</time></trkpt><trkpt lat="45.3264419" lon="10.7145425"><ele>48.0</ele><time>2026-05-02T13:29:05.064Z</time></trkpt><trkpt lat="45.3263651" lon="10.7145171"><ele>48.166666666666664</ele><time>2026-05-02T13:29:07.065Z</time></trkpt><trkpt lat="45.3262882" lon="10.7144954"><ele>48.33333333333333</ele><time>2026-05-02T13:29:09.065Z</time></trkpt><trkpt lat="45.3262112" lon="10.7144741"><ele>48.5</ele><time>2026-05-02T13:29:11.065Z</time></trkpt><trkpt lat="45.3261323" lon="10.7144507"><ele>48.666666666666664</ele><time>2026-05-02T13:29:13.064Z</time></trkpt><trkpt lat="45.3260541" lon="10.7144239"><ele>48.83333333333333</ele><time>2026-05-02T13:29:15.064Z</time></trkpt><trkpt lat="45.3259732" lon="10.714403"><ele>49.0</ele><time>2026-05-02T13:29:17.063Z</time></trkpt><trkpt lat="45.325893" lon="10.7143842"><ele>48.99999999999999</ele><time>2026-05-02T13:29:19.064Z</time></trkpt><trkpt lat="45.3258145" lon="10.714365"><ele>49.0</ele><time>2026-05-02T13:29:21.063Z</time></trkpt><trkpt lat="45.3257419" lon="10.7143462"><ele>49.0</ele><time>2026-05-02T13:29:23.063Z</time></trkpt><trkpt lat="45.3256688" lon="10.7143283"><ele>49.0</ele><time>2026-05-02T13:29:25.064Z</time></trkpt><trkpt lat="45.3255924" lon="10.7143093"><ele>48.99999999999999</ele><time>2026-05-02T13:29:27.064Z</time></trkpt><trkpt lat="45.3255148" lon="10.7142905"><ele>49.0</ele><time>2026-05-02T13:29:29.065Z</time></trkpt><trkpt lat="45.3254395" lon="10.7142699"><ele>48.83333333333333</ele><time>2026-05-02T13:29:31.064Z</time></trkpt><trkpt lat="45.3253631" lon="10.7142472"><ele>48.666666666666664</ele><time>2026-05-02T13:29:33.065Z</time></trkpt><trkpt lat="45.3252866" lon="10.7142257"><ele>48.5</ele><time>2026-05-02T13:29:35.063Z</time></trkpt><trkpt lat="45.3252119" lon="10.7142051"><ele>48.33333333333333</ele><time>2026-05-02T13:29:37.063Z</time></trkpt><trkpt lat="45.3251392" lon="10.7141886"><ele>48.166666666666664</ele><time>2026-05-02T13:29:39.064Z</time></trkpt><trkpt lat="45.3250687" lon="10.7141695"><ele>48.0</ele><time>2026-05-02T13:29:41.064Z</time></trkpt><trkpt lat="45.3249926" lon="10.7141486"><ele>47.99999999999999</ele><time>2026-05-02T13:29:43.065Z</time></trkpt><trkpt lat="45.3249209" lon="10.7141286"><ele>48.0</ele><time>2026-05-02T13:29:45.064Z</time></trkpt><trkpt lat="45.3248498" lon="10.7141099"><ele>48.0</ele><time>2026-05-02T13:29:47.063Z</time></trkpt><trkpt lat="45.324781" lon="10.7140905"><ele>48.0</ele><time>2026-05-02T13:29:49.063Z</time></trkpt><trkpt lat="45.324711" lon="10.7140777"><ele>48.0</ele><time>2026-05-02T13:29:51.063Z</time></trkpt><trkpt lat="45.3246421" lon="10.7140652"><ele>47.99999999999999</ele><time>2026-05-02T13:29:53.065Z</time></trkpt><trkpt lat="45.3245699" lon="10.7140477"><ele>48.0</ele><time>2026-05-02T13:29:55.065Z</time></trkpt><trkpt lat="45.3244928" lon="10.7140211"><ele>48.0</ele><time>2026-05-02T13:29:57.064Z</time></trkpt><trkpt lat="45.3244152" lon="10.7139966"><ele>48.0</ele><time>2026-05-02T13:29:59.063Z</time></trkpt><trkpt lat="45.3243369" lon="10.7139753"><ele>48.0</ele><time>2026-05-02T13:30:01.063Z</time></trkpt><trkpt lat="45.3242628" lon="10.7139511"><ele>48.0</ele><time>2026-05-02T13:30:03.063Z</time></trkpt><trkpt lat="45.3241937" lon="10.7139247"><ele>48.0</ele><time>2026-05-02T13:30:05.064Z</time></trkpt><trkpt lat="45.324126" lon="10.7139021"><ele>48.0</ele><time>2026-05-02T13:30:07.065Z</time></trkpt><trkpt lat="45.3240474" lon="10.7138658"><ele>48.0</ele><time>2026-05-02T13:30:09.063Z</time></trkpt><trkpt lat="45.3239751" lon="10.7138255"><ele>48.0</ele><time>2026-05-02T13:30:11.064Z</time></trkpt><trkpt lat="45.3238977" lon="10.7137967"><ele>48.0</ele><time>2026-05-02T13:30:13.064Z</time></trkpt><trkpt lat="45.3238248" lon="10.7137626"><ele>48.0</ele><time>2026-05-02T13:30:15.063Z</time></trkpt><trkpt lat="45.3237485" lon="10.7137235"><ele>48.0</ele><time>2026-05-02T13:30:17.063Z</time></trkpt><trkpt lat="45.3236723" lon="10.7136847"><ele>48.0</ele><time>2026-05-02T13:30:19.065Z</time></trkpt><trkpt lat="45.3235979" lon="10.7136462"><ele>48.0</ele><time>2026-05-02T13:30:21.064Z</time></trkpt><trkpt lat="45.3235278" lon="10.7136041"><ele>48.0</ele><time>2026-05-02T13:30:23.065Z</time></trkpt><trkpt lat="45.3234585" lon="10.7135577"><ele>48.0</ele><time>2026-05-02T13:30:25.064Z</time></trkpt><trkpt lat="45.3233844" lon="10.7135135"><ele>48.0</ele><time>2026-05-02T13:30:27.063Z</time></trkpt><trkpt lat="45.3233118" lon="10.7134714"><ele>48.0</ele><time>2026-05-02T13:30:29.065Z</time></trkpt><trkpt lat="45.3232398" lon="10.7134283"><ele>48.0</ele><time>2026-05-02T13:30:31.063Z</time></trkpt><trkpt lat="45.323166" lon="10.7133815"><ele>48.0</ele><time>2026-05-02T13:30:33.064Z</time></trkpt><trkpt lat="45.323093" lon="10.7133364"><ele>48.0</ele><time>2026-05-02T13:30:35.064Z</time></trkpt><trkpt lat="45.3230237" lon="10.713286"><ele>48.0</ele><time>2026-05-02T13:30:37.065Z</time></trkpt><trkpt lat="45.3229543" lon="10.7132341"><ele>48.0</ele><time>2026-05-02T13:30:39.064Z</time></trkpt><trkpt lat="45.3228856" lon="10.7131818"><ele>48.0</ele><time>2026-05-02T13:30:41.063Z</time></trkpt><trkpt lat="45.3228163" lon="10.7131313"><ele>48.0</ele><time>2026-05-02T13:30:43.064Z</time></trkpt><trkpt lat="45.3227468" lon="10.7130814"><ele>48.0</ele><time>2026-05-02T13:30:45.064Z</time></trkpt><trkpt lat="45.3226783" lon="10.7130259"><ele>48.0</ele><time>2026-05-02T13:30:47.065Z</time></trkpt><trkpt lat="45.3226076" lon="10.7129695"><ele>48.0</ele><time>2026-05-02T13:30:49.064Z</time></trkpt><trkpt lat="45.3225367" lon="10.7129105"><ele>48.0</ele><time>2026-05-02T13:30:51.065Z</time></trkpt><trkpt lat="45.3224664" lon="10.712848"><ele>48.0</ele><time>2026-05-02T13:30:53.064Z</time></trkpt><trkpt lat="45.3223968" lon="10.7127864"><ele>48.0</ele><time>2026-05-02T13:30:55.064Z</time></trkpt><trkpt lat="45.3223276" lon="10.7127249"><ele>48.0</ele><time>2026-05-02T13:30:57.064Z</time></trkpt><trkpt lat="45.32226" lon="10.7126603"><ele>48.0</ele><time>2026-05-02T13:30:59.062Z</time></trkpt><trkpt lat="45.3221923" lon="10.7125976"><ele>48.0</ele><time>2026-05-02T13:31:01.064Z</time></trkpt><trkpt lat="45.3221277" lon="10.7125362"><ele>48.0</ele><time>2026-05-02T13:31:03.063Z</time></trkpt><trkpt lat="45.3220634" lon="10.7124771"><ele>48.0</ele><time>2026-05-02T13:31:05.064Z</time></trkpt><trkpt lat="45.3220018" lon="10.7124134"><ele>48.0</ele><time>2026-05-02T13:31:07.063Z</time></trkpt><trkpt lat="45.3219412" lon="10.7123469"><ele>47.857142857142854</ele><time>2026-05-02T13:31:09.063Z</time></trkpt><trkpt lat="45.3218802" lon="10.7122846"><ele>47.714285714285715</ele><time>2026-05-02T13:31:11.064Z</time></trkpt><trkpt lat="45.3218222" lon="10.7122201"><ele>47.57142857142857</ele><time>2026-05-02T13:31:13.063Z</time></trkpt><trkpt lat="45.3217659" lon="10.7121558"><ele>47.42857142857143</ele><time>2026-05-02T13:31:15.062Z</time></trkpt><trkpt lat="45.3217094" lon="10.7120872"><ele>47.285714285714285</ele><time>2026-05-02T13:31:17.064Z</time></trkpt><trkpt lat="45.321656" lon="10.7120207"><ele>47.14285714285714</ele><time>2026-05-02T13:31:19.063Z</time></trkpt><trkpt lat="45.3216055" lon="10.7119649"><ele>47.0</ele><time>2026-05-02T13:31:21.063Z</time></trkpt><trkpt lat="45.3215404" lon="10.7118813"><ele>47.0</ele><time>2026-05-02T13:31:24.063Z</time></trkpt><trkpt lat="45.3214804" lon="10.7118082"><ele>47.0</ele><time>2026-05-02T13:31:27.063Z</time></trkpt><trkpt lat="45.3214085" lon="10.7117188"><ele>47.0</ele><time>2026-05-02T13:31:30.064Z</time></trkpt><trkpt lat="45.321357" lon="10.711651"><ele>47.0</ele><time>2026-05-02T13:31:32.064Z</time></trkpt><trkpt lat="45.3213052" lon="10.7115845"><ele>47.0</ele><time>2026-05-02T13:31:34.064Z</time></trkpt><trkpt lat="45.3212564" lon="10.7115171"><ele>47.0</ele><time>2026-05-02T13:31:36.064Z</time></trkpt><trkpt lat="45.3212106" lon="10.7114446"><ele>47.0</ele><time>2026-05-02T13:31:38.064Z</time></trkpt><trkpt lat="45.3211655" lon="10.7113702"><ele>47.0</ele><time>2026-05-02T13:31:40.064Z</time></trkpt><trkpt lat="45.3211175" lon="10.7112966"><ele>47.0</ele><time>2026-05-02T13:31:42.064Z</time></trkpt><trkpt lat="45.3210712" lon="10.7112216"><ele>47.0</ele><time>2026-05-02T13:31:44.063Z</time></trkpt><trkpt lat="45.3210272" lon="10.711149"><ele>47.0</ele><time>2026-05-02T13:31:46.064Z</time></trkpt><trkpt lat="45.3209827" lon="10.7110764"><ele>47.0</ele><time>2026-05-02T13:31:48.064Z</time></trkpt><trkpt lat="45.3209384" lon="10.7110024"><ele>47.0</ele><time>2026-05-02T13:31:50.062Z</time></trkpt><trkpt lat="45.3208902" lon="10.7109247"><ele>47.0</ele><time>2026-05-02T13:31:52.062Z</time></trkpt><trkpt lat="45.3208413" lon="10.7108476"><ele>47.0</ele><time>2026-05-02T13:31:54.062Z</time></trkpt><trkpt lat="45.3207922" lon="10.7107678"><ele>47.0</ele><time>2026-05-02T13:31:56.064Z</time></trkpt><trkpt lat="45.3207444" lon="10.7106888"><ele>47.0</ele><time>2026-05-02T13:31:58.063Z</time></trkpt><trkpt lat="45.3206945" lon="10.7106112"><ele>47.0</ele><time>2026-05-02T13:32:00.063Z</time></trkpt><trkpt lat="45.320642" lon="10.7105336"><ele>47.0</ele><time>2026-05-02T13:32:02.064Z</time></trkpt><trkpt lat="45.32059" lon="10.7104556"><ele>47.0</ele><time>2026-05-02T13:32:04.064Z</time></trkpt><trkpt lat="45.3205365" lon="10.7103824"><ele>47.14285714285714</ele><time>2026-05-02T13:32:06.064Z</time></trkpt><trkpt lat="45.3204841" lon="10.7103068"><ele>47.285714285714285</ele><time>2026-05-02T13:32:08.064Z</time></trkpt><trkpt lat="45.3204331" lon="10.7102288"><ele>47.42857142857143</ele><time>2026-05-02T13:32:10.063Z</time></trkpt><trkpt lat="45.3203823" lon="10.710153"><ele>47.57142857142857</ele><time>2026-05-02T13:32:12.063Z</time></trkpt><trkpt lat="45.3203304" lon="10.7100806"><ele>47.714285714285715</ele><time>2026-05-02T13:32:14.062Z</time></trkpt><trkpt lat="45.3202749" lon="10.7100086"><ele>47.857142857142854</ele><time>2026-05-02T13:32:16.064Z</time></trkpt><trkpt lat="45.3202183" lon="10.709938"><ele>48.0</ele><time>2026-05-02T13:32:18.062Z</time></trkpt><trkpt lat="45.3201637" lon="10.7098688"><ele>47.99999999999999</ele><time>2026-05-02T13:32:20.064Z</time></trkpt><trkpt lat="45.3201085" lon="10.7098004"><ele>48.0</ele><time>2026-05-02T13:32:22.064Z</time></trkpt><trkpt lat="45.3200524" lon="10.7097341"><ele>48.0</ele><time>2026-05-02T13:32:24.063Z</time></trkpt><trkpt lat="45.3199968" lon="10.7096715"><ele>48.0</ele><time>2026-05-02T13:32:26.064Z</time></trkpt><trkpt lat="45.3199407" lon="10.7096042"><ele>48.0</ele><time>2026-05-02T13:32:28.064Z</time></trkpt><trkpt lat="45.31989" lon="10.709543"><ele>47.99999999999999</ele><time>2026-05-02T13:32:30.064Z</time></trkpt><trkpt lat="45.3198375" lon="10.7094868"><ele>48.0</ele><time>2026-05-02T13:32:32.064Z</time></trkpt><trkpt lat="45.319764" lon="10.7094065"><ele>47.71428571428571</ele><time>2026-05-02T13:32:35.064Z</time></trkpt><trkpt lat="45.3197098" lon="10.709348"><ele>47.42857142857143</ele><time>2026-05-02T13:32:37.064Z</time></trkpt><trkpt lat="45.3196523" lon="10.7092883"><ele>47.14285714285714</ele><time>2026-05-02T13:32:39.064Z</time></trkpt><trkpt lat="45.3195912" lon="10.7092312"><ele>46.857142857142854</ele><time>2026-05-02T13:32:41.064Z</time></trkpt><trkpt lat="45.3195295" lon="10.7091778"><ele>46.57142857142857</ele><time>2026-05-02T13:32:43.063Z</time></trkpt><trkpt lat="45.3194656" lon="10.7091261"><ele>46.285714285714285</ele><time>2026-05-02T13:32:45.063Z</time></trkpt><trkpt lat="45.3194039" lon="10.7090853"><ele>46.0</ele><time>2026-05-02T13:32:47.064Z</time></trkpt><trkpt lat="45.3193196" lon="10.7090269"><ele>46.0</ele><time>2026-05-02T13:32:50.063Z</time></trkpt><trkpt lat="45.3192403" lon="10.7089599"><ele>46.0</ele><time>2026-05-02T13:32:53.064Z</time></trkpt><trkpt lat="45.319158" lon="10.7088987"><ele>46.0</ele><time>2026-05-02T13:32:56.064Z</time></trkpt><trkpt lat="45.3191027" lon="10.7088541"><ele>46.0</ele><time>2026-05-02T13:32:58.063Z</time></trkpt><trkpt lat="45.3190187" lon="10.7087939"><ele>46.0</ele><time>2026-05-02T13:33:01.064Z</time></trkpt><trkpt lat="45.3189617" lon="10.7087556"><ele>46.0</ele><time>2026-05-02T13:33:03.064Z</time></trkpt><trkpt lat="45.3189062" lon="10.7087123"><ele>46.142857142857146</ele><time>2026-05-02T13:33:05.064Z</time></trkpt><trkpt lat="45.3188487" lon="10.708666"><ele>46.285714285714285</ele><time>2026-05-02T13:33:07.064Z</time></trkpt><trkpt lat="45.3187894" lon="10.7086232"><ele>46.42857142857143</ele><time>2026-05-02T13:33:09.062Z</time></trkpt><trkpt lat="45.3187288" lon="10.7085754"><ele>46.57142857142857</ele><time>2026-05-02T13:33:11.064Z</time></trkpt><trkpt lat="45.3186671" lon="10.7085263"><ele>46.71428571428571</ele><time>2026-05-02T13:33:13.063Z</time></trkpt><trkpt lat="45.3186051" lon="10.7084769"><ele>46.857142857142854</ele><time>2026-05-02T13:33:15.063Z</time></trkpt><trkpt lat="45.3185383" lon="10.7084314"><ele>47.0</ele><time>2026-05-02T13:33:17.064Z</time></trkpt><trkpt lat="45.3184723" lon="10.708387"><ele>47.0</ele><time>2026-05-02T13:33:19.064Z</time></trkpt><trkpt lat="45.3184104" lon="10.7083315"><ele>47.0</ele><time>2026-05-02T13:33:21.064Z</time></trkpt><trkpt lat="45.318347" lon="10.7082781"><ele>47.0</ele><time>2026-05-02T13:33:23.063Z</time></trkpt><trkpt lat="45.3182827" lon="10.7082284"><ele>47.0</ele><time>2026-05-02T13:33:25.063Z</time></trkpt><trkpt lat="45.3182186" lon="10.7081772"><ele>47.0</ele><time>2026-05-02T13:33:27.064Z</time></trkpt><trkpt lat="45.3181529" lon="10.7081253"><ele>47.0</ele><time>2026-05-02T13:33:29.063Z</time></trkpt><trkpt lat="45.3180865" lon="10.7080741"><ele>47.0</ele><time>2026-05-02T13:33:31.063Z</time></trkpt><trkpt lat="45.3180192" lon="10.7080229"><ele>47.0</ele><time>2026-05-02T13:33:33.062Z</time></trkpt><trkpt lat="45.3179516" lon="10.7079684"><ele>47.0</ele><time>2026-05-02T13:33:35.064Z</time></trkpt><trkpt lat="45.3178859" lon="10.7079134"><ele>47.0</ele><time>2026-05-02T13:33:37.063Z</time></trkpt><trkpt lat="45.3178216" lon="10.707865"><ele>47.0</ele><time>2026-05-02T13:33:39.064Z</time></trkpt><trkpt lat="45.3177632" lon="10.7078223"><ele>47.0</ele><time>2026-05-02T13:33:41.062Z</time></trkpt><trkpt lat="45.3177069" lon="10.7077774"><ele>47.0</ele><time>2026-05-02T13:33:43.062Z</time></trkpt><trkpt lat="45.3176494" lon="10.7077296"><ele>47.0</ele><time>2026-05-02T13:33:45.064Z</time></trkpt><trkpt lat="45.3175876" lon="10.7076817"><ele>47.0</ele><time>2026-05-02T13:33:47.062Z</time></trkpt><trkpt lat="45.3175229" lon="10.7076341"><ele>47.0</ele><time>2026-05-02T13:33:49.062Z</time></trkpt><trkpt lat="45.3174577" lon="10.7075893"><ele>47.0</ele><time>2026-05-02T13:33:51.063Z</time></trkpt><trkpt lat="45.317391" lon="10.7075389"><ele>47.0</ele><time>2026-05-02T13:33:53.064Z</time></trkpt><trkpt lat="45.3173221" lon="10.7074878"><ele>47.0</ele><time>2026-05-02T13:33:55.064Z</time></trkpt><trkpt lat="45.317252" lon="10.7074341"><ele>47.0</ele><time>2026-05-02T13:33:57.064Z</time></trkpt><trkpt lat="45.3171867" lon="10.7073811"><ele>47.0</ele><time>2026-05-02T13:33:59.062Z</time></trkpt><trkpt lat="45.3171252" lon="10.7073323"><ele>47.0</ele><time>2026-05-02T13:34:01.063Z</time></trkpt><trkpt lat="45.3170686" lon="10.7072883"><ele>47.0</ele><time>2026-05-02T13:34:03.063Z</time></trkpt><trkpt lat="45.3170133" lon="10.7072437"><ele>47.0</ele><time>2026-05-02T13:34:05.606Z</time></trkpt><trkpt lat="45.3169315" lon="10.7071812"><ele>47.0</ele><time>2026-05-02T13:34:08.062Z</time></trkpt><trkpt lat="45.3168702" lon="10.7071388"><ele>47.0</ele><time>2026-05-02T13:34:10.063Z</time></trkpt><trkpt lat="45.3168081" lon="10.7070924"><ele>47.0</ele><time>2026-05-02T13:34:12.064Z</time></trkpt><trkpt lat="45.3167459" lon="10.707044"><ele>47.0</ele><time>2026-05-02T13:34:14.063Z</time></trkpt><trkpt lat="45.316684" lon="10.7069973"><ele>47.0</ele><time>2026-05-02T13:34:16.064Z</time></trkpt><trkpt lat="45.3166226" lon="10.7069502"><ele>47.0</ele><time>2026-05-02T13:34:18.063Z</time></trkpt><trkpt lat="45.3165663" lon="10.7069034"><ele>47.0</ele><time>2026-05-02T13:34:20.064Z</time></trkpt><trkpt lat="45.3164931" lon="10.7068501"><ele>47.0</ele><time>2026-05-02T13:34:23.064Z</time></trkpt><trkpt lat="45.3164322" lon="10.7068016"><ele>47.0</ele><time>2026-05-02T13:34:26.063Z</time></trkpt><trkpt lat="45.316372" lon="10.7067538"><ele>47.0</ele><time>2026-05-02T13:34:29.062Z</time></trkpt><trkpt lat="45.3163035" lon="10.7066983"><ele>47.166666666666664</ele><time>2026-05-02T13:34:32.064Z</time></trkpt><trkpt lat="45.3162211" lon="10.706634"><ele>47.33333333333333</ele><time>2026-05-02T13:34:35.063Z</time></trkpt><trkpt lat="45.3161619" lon="10.7065881"><ele>47.5</ele><time>2026-05-02T13:34:37.063Z</time></trkpt><trkpt lat="45.3160996" lon="10.7065384"><ele>47.666666666666664</ele><time>2026-05-02T13:34:39.063Z</time></trkpt><trkpt lat="45.3160338" lon="10.7064881"><ele>47.833333333333336</ele><time>2026-05-02T13:34:41.062Z</time></trkpt><trkpt lat="45.3159682" lon="10.7064353"><ele>48.0</ele><time>2026-05-02T13:34:43.064Z</time></trkpt><trkpt lat="45.3159022" lon="10.7063826"><ele>48.0</ele><time>2026-05-02T13:34:45.062Z</time></trkpt><trkpt lat="45.3158363" lon="10.7063319"><ele>48.0</ele><time>2026-05-02T13:34:47.063Z</time></trkpt><trkpt lat="45.3157711" lon="10.7062796"><ele>48.0</ele><time>2026-05-02T13:34:49.063Z</time></trkpt><trkpt lat="45.3157036" lon="10.7062251"><ele>48.0</ele><time>2026-05-02T13:34:51.064Z</time></trkpt><trkpt lat="45.3156368" lon="10.7061689"><ele>48.0</ele><time>2026-05-02T13:34:53.063Z</time></trkpt><trkpt lat="45.3155677" lon="10.7061148"><ele>48.0</ele><time>2026-05-02T13:34:55.063Z</time></trkpt><trkpt lat="45.315496" lon="10.7060632"><ele>47.666666666666664</ele><time>2026-05-02T13:34:57.062Z</time></trkpt><trkpt lat="45.3154242" lon="10.7060118"><ele>47.333333333333336</ele><time>2026-05-02T13:34:59.064Z</time></trkpt><trkpt lat="45.3153537" lon="10.7059596"><ele>47.0</ele><time>2026-05-02T13:35:01.063Z</time></trkpt><trkpt lat="45.3152835" lon="10.7059049"><ele>46.66666666666667</ele><time>2026-05-02T13:35:03.064Z</time></trkpt><trkpt lat="45.3152116" lon="10.7058509"><ele>46.333333333333336</ele><time>2026-05-02T13:35:05.062Z</time></trkpt><trkpt lat="45.3151409" lon="10.7057949"><ele>46.0</ele><time>2026-05-02T13:35:07.063Z</time></trkpt><trkpt lat="45.315069" lon="10.7057389"><ele>46.0</ele><time>2026-05-02T13:35:09.064Z</time></trkpt><trkpt lat="45.3150026" lon="10.7056862"><ele>46.0</ele><time>2026-05-02T13:35:11.064Z</time></trkpt><trkpt lat="45.3149395" lon="10.7056369"><ele>46.0</ele><time>2026-05-02T13:35:13.062Z</time></trkpt><trkpt lat="45.3148782" lon="10.7055897"><ele>46.0</ele><time>2026-05-02T13:35:15.063Z</time></trkpt><trkpt lat="45.3148197" lon="10.705546"><ele>46.0</ele><time>2026-05-02T13:35:17.061Z</time></trkpt><trkpt lat="45.3147613" lon="10.7055007"><ele>46.0</ele><time>2026-05-02T13:35:19.063Z</time></trkpt><trkpt lat="45.3146982" lon="10.70545"><ele>46.0</ele><time>2026-05-02T13:35:21.063Z</time></trkpt><trkpt lat="45.3146335" lon="10.7053973"><ele>46.0</ele><time>2026-05-02T13:35:23.063Z</time></trkpt><trkpt lat="45.3145676" lon="10.7053453"><ele>46.0</ele><time>2026-05-02T13:35:25.062Z</time></trkpt><trkpt lat="45.3145009" lon="10.705295"><ele>46.0</ele><time>2026-05-02T13:35:27.063Z</time></trkpt><trkpt lat="45.314434" lon="10.7052485"><ele>46.0</ele><time>2026-05-02T13:35:29.062Z</time></trkpt><trkpt lat="45.3143728" lon="10.705206"><ele>46.0</ele><time>2026-05-02T13:35:31.063Z</time></trkpt><trkpt lat="45.3143151" lon="10.7051562"><ele>46.0</ele><time>2026-05-02T13:35:33.063Z</time></trkpt><trkpt lat="45.3142512" lon="10.7051072"><ele>46.0</ele><time>2026-05-02T13:35:35.063Z</time></trkpt><trkpt lat="45.3141765" lon="10.705066"><ele>45.833333333333336</ele><time>2026-05-02T13:35:37.062Z</time></trkpt><trkpt lat="45.3141024" lon="10.7050152"><ele>45.66666666666667</ele><time>2026-05-02T13:35:39.063Z</time></trkpt><trkpt lat="45.3140322" lon="10.7049569"><ele>45.5</ele><time>2026-05-02T13:35:41.062Z</time></trkpt><trkpt lat="45.3139607" lon="10.704899"><ele>45.333333333333336</ele><time>2026-05-02T13:35:43.062Z</time></trkpt><trkpt lat="45.3138893" lon="10.7048382"><ele>45.166666666666664</ele><time>2026-05-02T13:35:45.061Z</time></trkpt><trkpt lat="45.3138198" lon="10.7047762"><ele>45.0</ele><time>2026-05-02T13:35:47.063Z</time></trkpt><trkpt lat="45.313751" lon="10.7047168"><ele>45.0</ele><time>2026-05-02T13:35:49.064Z</time></trkpt><trkpt lat="45.3136793" lon="10.704657"><ele>45.0</ele><time>2026-05-02T13:35:51.061Z</time></trkpt><trkpt lat="45.3136058" lon="10.7046002"><ele>45.0</ele><time>2026-05-02T13:35:53.062Z</time></trkpt><trkpt lat="45.3135327" lon="10.7045402"><ele>45.0</ele><time>2026-05-02T13:35:55.063Z</time></trkpt><trkpt lat="45.313455" lon="10.7044804"><ele>45.0</ele><time>2026-05-02T13:35:57.063Z</time></trkpt><trkpt lat="45.3133796" lon="10.7044206"><ele>45.0</ele><time>2026-05-02T13:35:59.063Z</time></trkpt><trkpt lat="45.3133062" lon="10.7043586"><ele>45.166666666666664</ele><time>2026-05-02T13:36:01.063Z</time></trkpt><trkpt lat="45.3132291" lon="10.7043054"><ele>45.333333333333336</ele><time>2026-05-02T13:36:03.064Z</time></trkpt><trkpt lat="45.3131528" lon="10.704253"><ele>45.5</ele><time>2026-05-02T13:36:05.063Z</time></trkpt><trkpt lat="45.3130806" lon="10.7041962"><ele>45.66666666666667</ele><time>2026-05-02T13:36:07.062Z</time></trkpt><trkpt lat="45.3130086" lon="10.704137"><ele>45.833333333333336</ele><time>2026-05-02T13:36:09.063Z</time></trkpt><trkpt lat="45.3129369" lon="10.7040825"><ele>46.0</ele><time>2026-05-02T13:36:11.063Z</time></trkpt><trkpt lat="45.3128629" lon="10.7040306"><ele>46.0</ele><time>2026-05-02T13:36:13.063Z</time></trkpt><trkpt lat="45.3127904" lon="10.7039819"><ele>46.0</ele><time>2026-05-02T13:36:15.063Z</time></trkpt><trkpt lat="45.3127192" lon="10.7039328"><ele>46.0</ele><time>2026-05-02T13:36:17.062Z</time></trkpt><trkpt lat="45.312645" lon="10.7038801"><ele>46.0</ele><time>2026-05-02T13:36:19.062Z</time></trkpt><trkpt lat="45.3125731" lon="10.7038236"><ele>46.0</ele><time>2026-05-02T13:36:21.062Z</time></trkpt><trkpt lat="45.3125019" lon="10.7037681"><ele>46.0</ele><time>2026-05-02T13:36:23.064Z</time></trkpt><trkpt lat="45.3124286" lon="10.7037114"><ele>46.0</ele><time>2026-05-02T13:36:25.062Z</time></trkpt><trkpt lat="45.3123557" lon="10.7036573"><ele>46.0</ele><time>2026-05-02T13:36:27.062Z</time></trkpt><trkpt lat="45.3122828" lon="10.7035993"><ele>46.0</ele><time>2026-05-02T13:36:29.063Z</time></trkpt><trkpt lat="45.312214" lon="10.703544"><ele>46.0</ele><time>2026-05-02T13:36:31.063Z</time></trkpt><trkpt lat="45.3121449" lon="10.7034895"><ele>46.0</ele><time>2026-05-02T13:36:33.063Z</time></trkpt><trkpt lat="45.3120773" lon="10.7034335"><ele>46.0</ele><time>2026-05-02T13:36:35.063Z</time></trkpt><trkpt lat="45.3120057" lon="10.7033783"><ele>45.833333333333336</ele><time>2026-05-02T13:36:37.063Z</time></trkpt><trkpt lat="45.3119336" lon="10.7033237"><ele>45.66666666666667</ele><time>2026-05-02T13:36:39.063Z</time></trkpt><trkpt lat="45.3118644" lon="10.7032681"><ele>45.5</ele><time>2026-05-02T13:36:41.062Z</time></trkpt><trkpt lat="45.311795" lon="10.7032105"><ele>45.333333333333336</ele><time>2026-05-02T13:36:43.064Z</time></trkpt><trkpt lat="45.3117236" lon="10.7031537"><ele>45.166666666666664</ele><time>2026-05-02T13:36:45.063Z</time></trkpt><trkpt lat="45.3116502" lon="10.7030973"><ele>45.0</ele><time>2026-05-02T13:36:47.062Z</time></trkpt><trkpt lat="45.3115758" lon="10.7030454"><ele>45.0</ele><time>2026-05-02T13:36:49.062Z</time></trkpt><trkpt lat="45.3115039" lon="10.7029934"><ele>45.0</ele><time>2026-05-02T13:36:51.064Z</time></trkpt><trkpt lat="45.3114379" lon="10.7029455"><ele>45.0</ele><time>2026-05-02T13:36:53.064Z</time></trkpt><trkpt lat="45.3113746" lon="10.7029033"><ele>45.0</ele><time>2026-05-02T13:36:55.064Z</time></trkpt><trkpt lat="45.3113078" lon="10.7028596"><ele>45.0</ele><time>2026-05-02T13:36:57.064Z</time></trkpt><trkpt lat="45.3112407" lon="10.702817"><ele>45.0</ele><time>2026-05-02T13:36:59.064Z</time></trkpt><trkpt lat="45.3111709" lon="10.7027736"><ele>45.0</ele><time>2026-05-02T13:37:01.063Z</time></trkpt><trkpt lat="45.3111027" lon="10.7027308"><ele>45.333333333333336</ele><time>2026-05-02T13:37:03.063Z</time></trkpt><trkpt lat="45.3110341" lon="10.7026838"><ele>45.666666666666664</ele><time>2026-05-02T13:37:05.063Z</time></trkpt><trkpt lat="45.3109692" lon="10.7026332"><ele>46.0</ele><time>2026-05-02T13:37:07.063Z</time></trkpt><trkpt lat="45.3109007" lon="10.7025782"><ele>46.33333333333333</ele><time>2026-05-02T13:37:09.063Z</time></trkpt><trkpt lat="45.3108322" lon="10.7025184"><ele>46.666666666666664</ele><time>2026-05-02T13:37:11.063Z</time></trkpt><trkpt lat="45.3107627" lon="10.7024575"><ele>47.0</ele><time>2026-05-02T13:37:13.063Z</time></trkpt><trkpt lat="45.3106974" lon="10.7024016"><ele>47.0</ele><time>2026-05-02T13:37:15.063Z</time></trkpt><trkpt lat="45.3106373" lon="10.7023581"><ele>47.0</ele><time>2026-05-02T13:37:17.063Z</time></trkpt><trkpt lat="45.3105764" lon="10.702322"><ele>47.0</ele><time>2026-05-02T13:37:19.062Z</time></trkpt><trkpt lat="45.3105181" lon="10.7022882"><ele>47.0</ele><time>2026-05-02T13:37:21.063Z</time></trkpt><trkpt lat="45.3104385" lon="10.7022472"><ele>47.0</ele><time>2026-05-02T13:37:24.064Z</time></trkpt><trkpt lat="45.3103477" lon="10.7022258"><ele>47.0</ele><time>2026-05-02T13:37:27.063Z</time></trkpt><trkpt lat="45.310276" lon="10.7022048"><ele>47.0</ele><time>2026-05-02T13:37:29.064Z</time></trkpt><trkpt lat="45.3102038" lon="10.7021899"><ele>46.83333333333333</ele><time>2026-05-02T13:37:31.063Z</time></trkpt><trkpt lat="45.3101329" lon="10.702167"><ele>46.666666666666664</ele><time>2026-05-02T13:37:33.063Z</time></trkpt><trkpt lat="45.3100499" lon="10.7021459"><ele>46.5</ele><time>2026-05-02T13:37:35.063Z</time></trkpt><trkpt lat="45.3099629" lon="10.7021166"><ele>46.333333333333336</ele><time>2026-05-02T13:37:37.063Z</time></trkpt><trkpt lat="45.309873" lon="10.7020942"><ele>46.16666666666667</ele><time>2026-05-02T13:37:39.063Z</time></trkpt><trkpt lat="45.3097851" lon="10.7020662"><ele>46.0</ele><time>2026-05-02T13:37:41.062Z</time></trkpt><trkpt lat="45.3097012" lon="10.7020272"><ele>46.0</ele><time>2026-05-02T13:37:43.064Z</time></trkpt><trkpt lat="45.3096162" lon="10.7019832"><ele>46.0</ele><time>2026-05-02T13:37:45.063Z</time></trkpt><trkpt lat="45.3095251" lon="10.701932"><ele>46.0</ele><time>2026-05-02T13:37:47.063Z</time></trkpt><trkpt lat="45.3094353" lon="10.7018813"><ele>46.0</ele><time>2026-05-02T13:37:49.062Z</time></trkpt><trkpt lat="45.3093435" lon="10.7018315"><ele>46.0</ele><time>2026-05-02T13:37:51.063Z</time></trkpt><trkpt lat="45.3092615" lon="10.7017854"><ele>46.0</ele><time>2026-05-02T13:37:53.063Z</time></trkpt><trkpt lat="45.3091796" lon="10.7017381"><ele>46.0</ele><time>2026-05-02T13:37:55.063Z</time></trkpt><trkpt lat="45.3090984" lon="10.7016955"><ele>46.0</ele><time>2026-05-02T13:37:57.062Z</time></trkpt><trkpt lat="45.3090123" lon="10.7016512"><ele>46.0</ele><time>2026-05-02T13:37:59.062Z</time></trkpt><trkpt lat="45.3089261" lon="10.701603"><ele>46.0</ele><time>2026-05-02T13:38:01.063Z</time></trkpt><trkpt lat="45.3088436" lon="10.7015537"><ele>46.0</ele><time>2026-05-02T13:38:03.063Z</time></trkpt><trkpt lat="45.3087647" lon="10.7015158"><ele>46.0</ele><time>2026-05-02T13:38:05.062Z</time></trkpt><trkpt lat="45.3086817" lon="10.7014793"><ele>46.0</ele><time>2026-05-02T13:38:07.063Z</time></trkpt><trkpt lat="45.3086" lon="10.7014464"><ele>46.0</ele><time>2026-05-02T13:38:09.063Z</time></trkpt><trkpt lat="45.3085205" lon="10.7014075"><ele>46.0</ele><time>2026-05-02T13:38:11.063Z</time></trkpt><trkpt lat="45.3084443" lon="10.701369"><ele>46.0</ele><time>2026-05-02T13:38:13.062Z</time></trkpt><trkpt lat="45.3083656" lon="10.701334"><ele>46.0</ele><time>2026-05-02T13:38:15.062Z</time></trkpt><trkpt lat="45.3082891" lon="10.7012967"><ele>46.0</ele><time>2026-05-02T13:38:17.062Z</time></trkpt><trkpt lat="45.3082118" lon="10.7012611"><ele>46.0</ele><time>2026-05-02T13:38:19.063Z</time></trkpt><trkpt lat="45.3081309" lon="10.701228"><ele>46.0</ele><time>2026-05-02T13:38:21.061Z</time></trkpt><trkpt lat="45.3080487" lon="10.7011937"><ele>46.0</ele><time>2026-05-02T13:38:23.062Z</time></trkpt><trkpt lat="45.307967" lon="10.7011596"><ele>46.0</ele><time>2026-05-02T13:38:25.062Z</time></trkpt><trkpt lat="45.3078875" lon="10.7011274"><ele>46.0</ele><time>2026-05-02T13:38:27.063Z</time></trkpt><trkpt lat="45.3078125" lon="10.7010971"><ele>46.0</ele><time>2026-05-02T13:38:29.063Z</time></trkpt><trkpt lat="45.30774" lon="10.7010695"><ele>46.0</ele><time>2026-05-02T13:38:31.062Z</time></trkpt><trkpt lat="45.3076639" lon="10.7010452"><ele>46.0</ele><time>2026-05-02T13:38:33.063Z</time></trkpt><trkpt lat="45.3075849" lon="10.7010227"><ele>46.0</ele><time>2026-05-02T13:38:35.064Z</time></trkpt><trkpt lat="45.3075021" lon="10.7010028"><ele>46.0</ele><time>2026-05-02T13:38:37.063Z</time></trkpt><trkpt lat="45.3074266" lon="10.7009739"><ele>46.0</ele><time>2026-05-02T13:38:39.061Z</time></trkpt><trkpt lat="45.3073524" lon="10.7009691"><ele>46.0</ele><time>2026-05-02T13:38:41.063Z</time></trkpt><trkpt lat="45.3072802" lon="10.7009681"><ele>46.0</ele><time>2026-05-02T13:38:43.061Z</time></trkpt><trkpt lat="45.3072105" lon="10.7009445"><ele>46.0</ele><time>2026-05-02T13:38:45.062Z</time></trkpt><trkpt lat="45.3071365" lon="10.7009322"><ele>46.0</ele><time>2026-05-02T13:38:47.062Z</time></trkpt><trkpt lat="45.3070584" lon="10.7009308"><ele>46.0</ele><time>2026-05-02T13:38:49.062Z</time></trkpt><trkpt lat="45.3069816" lon="10.7009279"><ele>46.0</ele><time>2026-05-02T13:38:51.062Z</time></trkpt><trkpt lat="45.3069041" lon="10.7009228"><ele>46.0</ele><time>2026-05-02T13:38:53.063Z</time></trkpt><trkpt lat="45.3068278" lon="10.7009121"><ele>46.0</ele><time>2026-05-02T13:38:55.063Z</time></trkpt><trkpt lat="45.3067476" lon="10.7009074"><ele>46.0</ele><time>2026-05-02T13:38:57.063Z</time></trkpt><trkpt lat="45.306666" lon="10.7008998"><ele>46.0</ele><time>2026-05-02T13:38:59.063Z</time></trkpt><trkpt lat="45.30658" lon="10.7008869"><ele>46.0</ele><time>2026-05-02T13:39:01.063Z</time></trkpt><trkpt lat="45.3065062" lon="10.7008755"><ele>46.0</ele><time>2026-05-02T13:39:03.063Z</time></trkpt><trkpt lat="45.3064274" lon="10.7008758"><ele>45.66666666666667</ele><time>2026-05-02T13:39:05.062Z</time></trkpt><trkpt lat="45.3063516" lon="10.7008768"><ele>45.333333333333336</ele><time>2026-05-02T13:39:07.062Z</time></trkpt><trkpt lat="45.3062807" lon="10.7008788"><ele>45.0</ele><time>2026-05-02T13:39:09.062Z</time></trkpt><trkpt lat="45.3062058" lon="10.7008786"><ele>44.666666666666664</ele><time>2026-05-02T13:39:11.063Z</time></trkpt><trkpt lat="45.3061291" lon="10.7008792"><ele>44.33333333333333</ele><time>2026-05-02T13:39:13.062Z</time></trkpt><trkpt lat="45.3060508" lon="10.7008907"><ele>44.0</ele><time>2026-05-02T13:39:15.061Z</time></trkpt><trkpt lat="45.3059718" lon="10.7009047"><ele>44.0</ele><time>2026-05-02T13:39:17.063Z</time></trkpt><trkpt lat="45.3058946" lon="10.7009305"><ele>44.0</ele><time>2026-05-02T13:39:19.063Z</time></trkpt><trkpt lat="45.3058163" lon="10.7009585"><ele>44.0</ele><time>2026-05-02T13:39:21.063Z</time></trkpt><trkpt lat="45.3057429" lon="10.7009945"><ele>44.0</ele><time>2026-05-02T13:39:23.063Z</time></trkpt><trkpt lat="45.3056684" lon="10.7010339"><ele>44.0</ele><time>2026-05-02T13:39:25.062Z</time></trkpt><trkpt lat="45.3055928" lon="10.7010761"><ele>44.0</ele><time>2026-05-02T13:39:27.063Z</time></trkpt><trkpt lat="45.3055173" lon="10.7011307"><ele>43.83333333333333</ele><time>2026-05-02T13:39:29.063Z</time></trkpt><trkpt lat="45.3054466" lon="10.7011861"><ele>43.666666666666664</ele><time>2026-05-02T13:39:31.062Z</time></trkpt><trkpt lat="45.305377" lon="10.701245"><ele>43.5</ele><time>2026-05-02T13:39:33.063Z</time></trkpt><trkpt lat="45.3053111" lon="10.7013119"><ele>43.333333333333336</ele><time>2026-05-02T13:39:35.062Z</time></trkpt><trkpt lat="45.3052465" lon="10.7013894"><ele>43.16666666666667</ele><time>2026-05-02T13:39:37.063Z</time></trkpt><trkpt lat="45.305184" lon="10.7014701"><ele>43.0</ele><time>2026-05-02T13:39:39.063Z</time></trkpt><trkpt lat="45.3051294" lon="10.7015589"><ele>43.0</ele><time>2026-05-02T13:39:41.063Z</time></trkpt><trkpt lat="45.3050751" lon="10.7016495"><ele>43.0</ele><time>2026-05-02T13:39:43.063Z</time></trkpt><trkpt lat="45.3050231" lon="10.7017476"><ele>43.0</ele><time>2026-05-02T13:39:45.062Z</time></trkpt><trkpt lat="45.3049744" lon="10.7018565"><ele>43.0</ele><time>2026-05-02T13:39:47.062Z</time></trkpt><trkpt lat="45.3049181" lon="10.7019616"><ele>43.0</ele><time>2026-05-02T13:39:49.063Z</time></trkpt><trkpt lat="45.3048763" lon="10.7020497"><ele>43.0</ele><time>2026-05-02T13:39:51.063Z</time></trkpt><trkpt lat="45.3048241" lon="10.7021413"><ele>43.16666666666667</ele><time>2026-05-02T13:39:53.063Z</time></trkpt><trkpt lat="45.3047725" lon="10.7022312"><ele>43.333333333333336</ele><time>2026-05-02T13:39:55.06Z</time></trkpt><trkpt lat="45.304723" lon="10.7023299"><ele>43.5</ele><time>2026-05-02T13:39:57.063Z</time></trkpt><trkpt lat="45.3046744" lon="10.7024222"><ele>43.666666666666664</ele><time>2026-05-02T13:39:59.062Z</time></trkpt><trkpt lat="45.304623" lon="10.7025112"><ele>43.83333333333333</ele><time>2026-05-02T13:40:01.063Z</time></trkpt><trkpt lat="45.3045699" lon="10.7026053"><ele>44.0</ele><time>2026-05-02T13:40:03.063Z</time></trkpt><trkpt lat="45.3045161" lon="10.7026984"><ele>43.83333333333333</ele><time>2026-05-02T13:40:05.064Z</time></trkpt><trkpt lat="45.3044612" lon="10.7027908"><ele>43.666666666666664</ele><time>2026-05-02T13:40:07.062Z</time></trkpt><trkpt lat="45.3044023" lon="10.7028802"><ele>43.5</ele><time>2026-05-02T13:40:09.062Z</time></trkpt><trkpt lat="45.3043474" lon="10.7029712"><ele>43.333333333333336</ele><time>2026-05-02T13:40:11.063Z</time></trkpt><trkpt lat="45.3042918" lon="10.7030546"><ele>43.16666666666667</ele><time>2026-05-02T13:40:13.062Z</time></trkpt><trkpt lat="45.3042354" lon="10.7031378"><ele>43.0</ele><time>2026-05-02T13:40:15.063Z</time></trkpt><trkpt lat="45.3041784" lon="10.7032249"><ele>43.0</ele><time>2026-05-02T13:40:17.063Z</time></trkpt><trkpt lat="45.304122" lon="10.7033123"><ele>43.0</ele><time>2026-05-02T13:40:19.062Z</time></trkpt><trkpt lat="45.3040723" lon="10.7034038"><ele>43.0</ele><time>2026-05-02T13:40:21.06Z</time></trkpt><trkpt lat="45.3040297" lon="10.7035025"><ele>43.0</ele><time>2026-05-02T13:40:23.062Z</time></trkpt><trkpt lat="45.3039863" lon="10.7036076"><ele>43.0</ele><time>2026-05-02T13:40:25.063Z</time></trkpt><trkpt lat="45.3039499" lon="10.7037145"><ele>43.0</ele><time>2026-05-02T13:40:27.063Z</time></trkpt><trkpt lat="45.3039114" lon="10.7038208"><ele>43.16666666666667</ele><time>2026-05-02T13:40:29.062Z</time></trkpt><trkpt lat="45.3038763" lon="10.70393"><ele>43.333333333333336</ele><time>2026-05-02T13:40:31.061Z</time></trkpt><trkpt lat="45.3038416" lon="10.7040382"><ele>43.5</ele><time>2026-05-02T13:40:33.063Z</time></trkpt><trkpt lat="45.3038126" lon="10.7041547"><ele>43.666666666666664</ele><time>2026-05-02T13:40:35.061Z</time></trkpt><trkpt lat="45.3037826" lon="10.7042724"><ele>43.83333333333333</ele><time>2026-05-02T13:40:37.063Z</time></trkpt><trkpt lat="45.3037565" lon="10.7043924"><ele>44.0</ele><time>2026-05-02T13:40:39.062Z</time></trkpt><trkpt lat="45.3037344" lon="10.7045109"><ele>44.0</ele><time>2026-05-02T13:40:41.062Z</time></trkpt><trkpt lat="45.3037108" lon="10.7046272"><ele>44.0</ele><time>2026-05-02T13:40:43.062Z</time></trkpt><trkpt lat="45.3036889" lon="10.7047446"><ele>44.0</ele><time>2026-05-02T13:40:45.06Z</time></trkpt><trkpt lat="45.3036698" lon="10.7048625"><ele>44.0</ele><time>2026-05-02T13:40:47.063Z</time></trkpt><trkpt lat="45.3036519" lon="10.7049869"><ele>44.0</ele><time>2026-05-02T13:40:49.061Z</time></trkpt><trkpt lat="45.3036392" lon="10.7051045"><ele>44.0</ele><time>2026-05-02T13:40:51.063Z</time></trkpt><trkpt lat="45.3036272" lon="10.7052247"><ele>43.666666666666664</ele><time>2026-05-02T13:40:53.063Z</time></trkpt><trkpt lat="45.3036191" lon="10.7053433"><ele>43.33333333333333</ele><time>2026-05-02T13:40:55.063Z</time></trkpt><trkpt lat="45.3036184" lon="10.7054593"><ele>43.0</ele><time>2026-05-02T13:40:57.061Z</time></trkpt><trkpt lat="45.3036201" lon="10.7055759"><ele>42.666666666666664</ele><time>2026-05-02T13:40:59.063Z</time></trkpt><trkpt lat="45.3036254" lon="10.7056921"><ele>42.333333333333336</ele><time>2026-05-02T13:41:01.061Z</time></trkpt><trkpt lat="45.3036344" lon="10.7058119"><ele>42.0</ele><time>2026-05-02T13:41:03.062Z</time></trkpt><trkpt lat="45.3036423" lon="10.7059308"><ele>42.0</ele><time>2026-05-02T13:41:05.062Z</time></trkpt><trkpt lat="45.3036528" lon="10.7060454"><ele>42.0</ele><time>2026-05-02T13:41:07.063Z</time></trkpt><trkpt lat="45.3036608" lon="10.7061653"><ele>42.0</ele><time>2026-05-02T13:41:09.06Z</time></trkpt><trkpt lat="45.303668" lon="10.7062854"><ele>42.0</ele><time>2026-05-02T13:41:11.062Z</time></trkpt><trkpt lat="45.3036799" lon="10.7064041"><ele>42.0</ele><time>2026-05-02T13:41:13.062Z</time></trkpt><trkpt lat="45.3036907" lon="10.7065239"><ele>42.0</ele><time>2026-05-02T13:41:15.063Z</time></trkpt><trkpt lat="45.3036983" lon="10.7066466"><ele>42.0</ele><time>2026-05-02T13:41:17.063Z</time></trkpt><trkpt lat="45.3037038" lon="10.7067682"><ele>42.0</ele><time>2026-05-02T13:41:19.061Z</time></trkpt><trkpt lat="45.3037113" lon="10.7068894"><ele>42.0</ele><time>2026-05-02T13:41:21.062Z</time></trkpt><trkpt lat="45.3037167" lon="10.7070241"><ele>42.0</ele><time>2026-05-02T13:41:23.061Z</time></trkpt><trkpt lat="45.3037216" lon="10.7071642"><ele>42.0</ele><time>2026-05-02T13:41:25.062Z</time></trkpt><trkpt lat="45.303724" lon="10.7073083"><ele>42.166666666666664</ele><time>2026-05-02T13:41:27.063Z</time></trkpt><trkpt lat="45.3037281" lon="10.7074527"><ele>42.333333333333336</ele><time>2026-05-02T13:41:29.062Z</time></trkpt><trkpt lat="45.3037264" lon="10.7076012"><ele>42.5</ele><time>2026-05-02T13:41:31.062Z</time></trkpt><trkpt lat="45.3037291" lon="10.7077245"><ele>42.66666666666667</ele><time>2026-05-02T13:41:33.061Z</time></trkpt><trkpt lat="45.3037337" lon="10.707828"><ele>42.833333333333336</ele><time>2026-05-02T13:41:35.061Z</time></trkpt><trkpt lat="45.3037445" lon="10.7079259"><ele>43.0</ele><time>2026-05-02T13:41:37.062Z</time></trkpt><trkpt lat="45.303748" lon="10.7080294"><ele>43.0</ele><time>2026-05-02T13:41:40.062Z</time></trkpt><trkpt lat="45.3037452" lon="10.7081413"><ele>43.0</ele><time>2026-05-02T13:41:45.061Z</time></trkpt><trkpt lat="45.3037513" lon="10.7082674"><ele>43.0</ele><time>2026-05-02T13:41:48.062Z</time></trkpt><trkpt lat="45.3037471" lon="10.7083592"><ele>43.0</ele><time>2026-05-02T13:41:50.062Z</time></trkpt><trkpt lat="45.3037517" lon="10.7084679"><ele>43.0</ele><time>2026-05-02T13:51:05.06Z</time></trkpt><trkpt lat="45.3037174" lon="10.7085848"><ele>43.0</ele><time>2026-05-02T13:51:08.06Z</time></trkpt><trkpt lat="45.3037065" lon="10.7086738"><ele>43.0</ele><time>2026-05-02T13:51:10.059Z</time></trkpt><trkpt lat="45.3037006" lon="10.7087942"><ele>43.0</ele><time>2026-05-02T13:51:12.06Z</time></trkpt><trkpt lat="45.3036942" lon="10.7089327"><ele>43.0</ele><time>2026-05-02T13:51:14.059Z</time></trkpt><trkpt lat="45.3036842" lon="10.7090691"><ele>43.0</ele><time>2026-05-02T13:51:16.059Z</time></trkpt><trkpt lat="45.3036786" lon="10.7092123"><ele>43.0</ele><time>2026-05-02T13:51:18.06Z</time></trkpt><trkpt lat="45.3036594" lon="10.7093541"><ele>43.0</ele><time>2026-05-02T13:51:20.06Z</time></trkpt><trkpt lat="45.3036437" lon="10.7095006"><ele>43.0</ele><time>2026-05-02T13:51:22.059Z</time></trkpt><trkpt lat="45.3036382" lon="10.7096326"><ele>43.0</ele><time>2026-05-02T13:51:24.061Z</time></trkpt><trkpt lat="45.3036186" lon="10.7097785"><ele>43.0</ele><time>2026-05-02T13:51:26.061Z</time></trkpt><trkpt lat="45.3036078" lon="10.7099244"><ele>43.0</ele><time>2026-05-02T13:51:28.059Z</time></trkpt><trkpt lat="45.3036013" lon="10.7100664"><ele>43.0</ele><time>2026-05-02T13:51:30.059Z</time></trkpt><trkpt lat="45.303588" lon="10.7101959"><ele>43.0</ele><time>2026-05-02T13:51:32.061Z</time></trkpt><trkpt lat="45.3035736" lon="10.7103237"><ele>43.0</ele><time>2026-05-02T13:51:34.061Z</time></trkpt><trkpt lat="45.3035543" lon="10.7104482"><ele>43.0</ele><time>2026-05-02T13:51:36.059Z</time></trkpt><trkpt lat="45.303544" lon="10.7105799"><ele>43.0</ele><time>2026-05-02T13:51:38.061Z</time></trkpt><trkpt lat="45.3035262" lon="10.7106956"><ele>43.0</ele><time>2026-05-02T13:51:40.06Z</time></trkpt><trkpt lat="45.3035101" lon="10.710801"><ele>43.16666666666667</ele><time>2026-05-02T13:51:42.059Z</time></trkpt><trkpt lat="45.30349" lon="10.7109087"><ele>43.333333333333336</ele><time>2026-05-02T13:51:44.06Z</time></trkpt><trkpt lat="45.3034681" lon="10.7110148"><ele>43.5</ele><time>2026-05-02T13:51:46.061Z</time></trkpt><trkpt lat="45.303445" lon="10.711117"><ele>43.666666666666664</ele><time>2026-05-02T13:51:48.06Z</time></trkpt><trkpt lat="45.3034216" lon="10.7112189"><ele>43.83333333333333</ele><time>2026-05-02T13:51:50.06Z</time></trkpt><trkpt lat="45.3034077" lon="10.7113301"><ele>44.0</ele><time>2026-05-02T13:51:52.059Z</time></trkpt><trkpt lat="45.3033892" lon="10.7114377"><ele>44.0</ele><time>2026-05-02T13:51:54.061Z</time></trkpt><trkpt lat="45.3033699" lon="10.7115429"><ele>44.0</ele><time>2026-05-02T13:51:56.06Z</time></trkpt><trkpt lat="45.3033514" lon="10.7116484"><ele>44.0</ele><time>2026-05-02T13:51:58.06Z</time></trkpt><trkpt lat="45.3033295" lon="10.711755"><ele>44.0</ele><time>2026-05-02T13:52:00.06Z</time></trkpt><trkpt lat="45.3033086" lon="10.7118645"><ele>44.0</ele><time>2026-05-02T13:52:02.059Z</time></trkpt><trkpt lat="45.3032828" lon="10.7119751"><ele>44.0</ele><time>2026-05-02T13:52:04.06Z</time></trkpt><trkpt lat="45.303259" lon="10.7120786"><ele>44.0</ele><time>2026-05-02T13:52:06.059Z</time></trkpt><trkpt lat="45.3032337" lon="10.7121775"><ele>44.0</ele><time>2026-05-02T13:52:08.06Z</time></trkpt><trkpt lat="45.3032124" lon="10.7122675"><ele>44.0</ele><time>2026-05-02T13:52:10.061Z</time></trkpt><trkpt lat="45.3031912" lon="10.7123615"><ele>44.0</ele><time>2026-05-02T13:52:12.06Z</time></trkpt><trkpt lat="45.3031706" lon="10.7124484"><ele>44.0</ele><time>2026-05-02T13:52:14.061Z</time></trkpt><trkpt lat="45.3031444" lon="10.7125339"><ele>44.0</ele><time>2026-05-02T13:52:16.06Z</time></trkpt><trkpt lat="45.303116" lon="10.7126243"><ele>44.0</ele><time>2026-05-02T13:52:18.059Z</time></trkpt><trkpt lat="45.3030867" lon="10.7127118"><ele>43.714285714285715</ele><time>2026-05-02T13:52:20.061Z</time></trkpt><trkpt lat="45.3030573" lon="10.7127955"><ele>43.42857142857143</ele><time>2026-05-02T13:52:22.061Z</time></trkpt><trkpt lat="45.3030195" lon="10.7129085"><ele>43.14285714285714</ele><time>2026-05-02T13:52:25.06Z</time></trkpt><trkpt lat="45.3029874" lon="10.7130135"><ele>42.85714285714286</ele><time>2026-05-02T13:52:28.06Z</time></trkpt><trkpt lat="45.3029523" lon="10.7131092"><ele>42.57142857142857</ele><time>2026-05-02T13:52:31.06Z</time></trkpt><trkpt lat="45.3029229" lon="10.7131951"><ele>42.285714285714285</ele><time>2026-05-02T13:52:34.06Z</time></trkpt><trkpt lat="45.3028969" lon="10.7132807"><ele>42.0</ele><time>2026-05-02T13:52:37.059Z</time></trkpt><trkpt lat="45.3028666" lon="10.7133802"><ele>42.0</ele><time>2026-05-02T13:52:41.059Z</time></trkpt><trkpt lat="45.3028319" lon="10.7134659"><ele>42.0</ele><time>2026-05-02T13:52:44.06Z</time></trkpt><trkpt lat="45.302803" lon="10.7135513"><ele>42.0</ele><time>2026-05-02T13:52:47.06Z</time></trkpt><trkpt lat="45.3027713" lon="10.7136569"><ele>42.0</ele><time>2026-05-02T13:52:50.06Z</time></trkpt><trkpt lat="45.3027353" lon="10.7137699"><ele>42.0</ele><time>2026-05-02T13:52:53.06Z</time></trkpt><trkpt lat="45.3026883" lon="10.7138799"><ele>42.0</ele><time>2026-05-02T13:52:56.06Z</time></trkpt><trkpt lat="45.3026328" lon="10.7139898"><ele>42.0</ele><time>2026-05-02T13:52:59.058Z</time></trkpt><trkpt lat="45.3025965" lon="10.7140789"><ele>42.0</ele><time>2026-05-02T13:53:01.06Z</time></trkpt><trkpt lat="45.3025526" lon="10.7141671"><ele>42.0</ele><time>2026-05-02T13:53:03.059Z</time></trkpt><trkpt lat="45.3025173" lon="10.7142568"><ele>42.0</ele><time>2026-05-02T13:53:05.059Z</time></trkpt><trkpt lat="45.3024839" lon="10.7143468"><ele>42.0</ele><time>2026-05-02T13:53:07.061Z</time></trkpt><trkpt lat="45.3024456" lon="10.7144312"><ele>42.0</ele><time>2026-05-02T13:53:09.059Z</time></trkpt><trkpt lat="45.3024075" lon="10.7145159"><ele>42.0</ele><time>2026-05-02T13:53:11.06Z</time></trkpt><trkpt lat="45.3023688" lon="10.714599"><ele>42.142857142857146</ele><time>2026-05-02T13:53:13.058Z</time></trkpt><trkpt lat="45.3023329" lon="10.7146805"><ele>42.285714285714285</ele><time>2026-05-02T13:53:15.058Z</time></trkpt><trkpt lat="45.3022969" lon="10.7147664"><ele>42.42857142857143</ele><time>2026-05-02T13:53:17.059Z</time></trkpt><trkpt lat="45.3022592" lon="10.7148599"><ele>42.57142857142857</ele><time>2026-05-02T13:53:19.06Z</time></trkpt><trkpt lat="45.3022175" lon="10.7149587"><ele>42.714285714285715</ele><time>2026-05-02T13:53:21.06Z</time></trkpt><trkpt lat="45.3021778" lon="10.715053"><ele>42.85714285714286</ele><time>2026-05-02T13:53:23.06Z</time></trkpt><trkpt lat="45.3021364" lon="10.7151456"><ele>43.0</ele><time>2026-05-02T13:53:25.061Z</time></trkpt><trkpt lat="45.3020961" lon="10.7152405"><ele>43.16666666666667</ele><time>2026-05-02T13:53:27.059Z</time></trkpt><trkpt lat="45.3020517" lon="10.7153356"><ele>43.333333333333336</ele><time>2026-05-02T13:53:29.059Z</time></trkpt><trkpt lat="45.3020047" lon="10.7154307"><ele>43.5</ele><time>2026-05-02T13:53:31.061Z</time></trkpt><trkpt lat="45.3019551" lon="10.7155217"><ele>43.666666666666664</ele><time>2026-05-02T13:53:33.06Z</time></trkpt><trkpt lat="45.3019095" lon="10.7156212"><ele>43.83333333333333</ele><time>2026-05-02T13:53:35.06Z</time></trkpt><trkpt lat="45.3018636" lon="10.7157188"><ele>44.0</ele><time>2026-05-02T13:53:37.06Z</time></trkpt><trkpt lat="45.3018191" lon="10.7158138"><ele>44.0</ele><time>2026-05-02T13:53:39.06Z</time></trkpt><trkpt lat="45.3017748" lon="10.7159032"><ele>44.0</ele><time>2026-05-02T13:53:41.06Z</time></trkpt><trkpt lat="45.3017306" lon="10.7159927"><ele>44.0</ele><time>2026-05-02T13:53:43.06Z</time></trkpt><trkpt lat="45.3016873" lon="10.7160789"><ele>44.0</ele><time>2026-05-02T13:53:45.061Z</time></trkpt><trkpt lat="45.3016388" lon="10.7161608"><ele>44.0</ele><time>2026-05-02T13:53:47.06Z</time></trkpt><trkpt lat="45.3015929" lon="10.7162457"><ele>44.0</ele><time>2026-05-02T13:53:49.06Z</time></trkpt><trkpt lat="45.3015464" lon="10.7163385"><ele>44.0</ele><time>2026-05-02T13:53:51.06Z</time></trkpt><trkpt lat="45.3015044" lon="10.7164283"><ele>44.0</ele><time>2026-05-02T13:53:53.06Z</time></trkpt><trkpt lat="45.3014562" lon="10.7165105"><ele>44.0</ele><time>2026-05-02T13:53:55.06Z</time></trkpt><trkpt lat="45.3014109" lon="10.7166032"><ele>44.0</ele><time>2026-05-02T13:53:57.06Z</time></trkpt><trkpt lat="45.3013695" lon="10.7166888"><ele>44.0</ele><time>2026-05-02T13:53:59.06Z</time></trkpt><trkpt lat="45.3013209" lon="10.7167782"><ele>44.0</ele><time>2026-05-02T13:54:01.059Z</time></trkpt><trkpt lat="45.3012714" lon="10.7168645"><ele>44.0</ele><time>2026-05-02T13:54:03.061Z</time></trkpt><trkpt lat="45.3012271" lon="10.7169569"><ele>44.0</ele><time>2026-05-02T13:54:05.059Z</time></trkpt><trkpt lat="45.3011804" lon="10.7170385"><ele>44.0</ele><time>2026-05-02T13:54:07.06Z</time></trkpt><trkpt lat="45.3011265" lon="10.7171107"><ele>44.0</ele><time>2026-05-02T13:54:09.059Z</time></trkpt><trkpt lat="45.3010703" lon="10.7172038"><ele>44.0</ele><time>2026-05-02T13:54:11.06Z</time></trkpt><trkpt lat="45.301012" lon="10.7173015"><ele>44.0</ele><time>2026-05-02T13:54:13.06Z</time></trkpt><trkpt lat="45.3009535" lon="10.7173864"><ele>44.0</ele><time>2026-05-02T13:54:15.06Z</time></trkpt><trkpt lat="45.300906" lon="10.7174677"><ele>44.0</ele><time>2026-05-02T13:54:17.06Z</time></trkpt><trkpt lat="45.3008519" lon="10.7175422"><ele>44.0</ele><time>2026-05-02T13:54:19.059Z</time></trkpt><trkpt lat="45.3008187" lon="10.7176252"><ele>44.0</ele><time>2026-05-02T13:54:21.059Z</time></trkpt><trkpt lat="45.3007752" lon="10.717718"><ele>44.0</ele><time>2026-05-02T13:54:23.06Z</time></trkpt><trkpt lat="45.3007141" lon="10.7177978"><ele>44.0</ele><time>2026-05-02T13:54:25.06Z</time></trkpt><trkpt lat="45.3006554" lon="10.7178847"><ele>44.0</ele><time>2026-05-02T13:54:27.06Z</time></trkpt><trkpt lat="45.3005933" lon="10.7179676"><ele>44.0</ele><time>2026-05-02T13:54:29.06Z</time></trkpt><trkpt lat="45.3005376" lon="10.7180578"><ele>44.0</ele><time>2026-05-02T13:54:31.061Z</time></trkpt><trkpt lat="45.3004774" lon="10.7181435"><ele>44.0</ele><time>2026-05-02T13:54:33.06Z</time></trkpt><trkpt lat="45.3004109" lon="10.7182367"><ele>44.0</ele><time>2026-05-02T13:54:35.06Z</time></trkpt><trkpt lat="45.3003494" lon="10.7183155"><ele>44.0</ele><time>2026-05-02T13:54:37.06Z</time></trkpt><trkpt lat="45.3002823" lon="10.7184061"><ele>44.0</ele><time>2026-05-02T13:54:39.06Z</time></trkpt><trkpt lat="45.3002106" lon="10.7185064"><ele>44.0</ele><time>2026-05-02T13:54:41.06Z</time></trkpt><trkpt lat="45.3001387" lon="10.7185867"><ele>44.0</ele><time>2026-05-02T13:54:43.059Z</time></trkpt><trkpt lat="45.3000678" lon="10.7186656"><ele>44.0</ele><time>2026-05-02T13:54:45.059Z</time></trkpt><trkpt lat="45.2999938" lon="10.7187439"><ele>44.0</ele><time>2026-05-02T13:54:47.059Z</time></trkpt><trkpt lat="45.2999341" lon="10.718813"><ele>44.0</ele><time>2026-05-02T13:54:49.059Z</time></trkpt><trkpt lat="45.2998707" lon="10.7189047"><ele>44.0</ele><time>2026-05-02T13:54:51.06Z</time></trkpt><trkpt lat="45.2998093" lon="10.7189903"><ele>44.0</ele><time>2026-05-02T13:54:53.06Z</time></trkpt><trkpt lat="45.2997493" lon="10.7190708"><ele>44.0</ele><time>2026-05-02T13:54:55.06Z</time></trkpt><trkpt lat="45.2996847" lon="10.7191514"><ele>44.0</ele><time>2026-05-02T13:54:57.06Z</time></trkpt><trkpt lat="45.2996218" lon="10.7192395"><ele>44.0</ele><time>2026-05-02T13:54:59.059Z</time></trkpt><trkpt lat="45.2995616" lon="10.7193261"><ele>44.5</ele><time>2026-05-02T13:55:01.06Z</time></trkpt><trkpt lat="45.2995015" lon="10.7194094"><ele>45.0</ele><time>2026-05-02T13:55:03.06Z</time></trkpt><trkpt lat="45.2994417" lon="10.719489"><ele>45.5</ele><time>2026-05-02T13:55:05.06Z</time></trkpt><trkpt lat="45.2993836" lon="10.7195633"><ele>46.0</ele><time>2026-05-02T13:55:07.058Z</time></trkpt><trkpt lat="45.2993241" lon="10.719643"><ele>46.5</ele><time>2026-05-02T13:55:09.059Z</time></trkpt><trkpt lat="45.2992644" lon="10.7197247"><ele>47.0</ele><time>2026-05-02T13:55:11.059Z</time></trkpt><trkpt lat="45.2992013" lon="10.719807"><ele>47.0</ele><time>2026-05-02T13:55:13.06Z</time></trkpt><trkpt lat="45.2991392" lon="10.7198904"><ele>47.0</ele><time>2026-05-02T13:55:15.06Z</time></trkpt><trkpt lat="45.2990742" lon="10.7199732"><ele>47.0</ele><time>2026-05-02T13:55:17.06Z</time></trkpt><trkpt lat="45.2990089" lon="10.7200592"><ele>47.0</ele><time>2026-05-02T13:55:19.06Z</time></trkpt><trkpt lat="45.2989451" lon="10.7201375"><ele>47.0</ele><time>2026-05-02T13:55:21.06Z</time></trkpt><trkpt lat="45.2988864" lon="10.7202071"><ele>47.0</ele><time>2026-05-02T13:55:23.059Z</time></trkpt><trkpt lat="45.2988359" lon="10.7202791"><ele>46.5</ele><time>2026-05-02T13:55:25.059Z</time></trkpt><trkpt lat="45.2987824" lon="10.7203452"><ele>46.0</ele><time>2026-05-02T13:55:27.06Z</time></trkpt><trkpt lat="45.298723" lon="10.7204001"><ele>45.5</ele><time>2026-05-02T13:55:29.059Z</time></trkpt><trkpt lat="45.2986676" lon="10.720457"><ele>45.0</ele><time>2026-05-02T13:55:31.06Z</time></trkpt><trkpt lat="45.2986067" lon="10.7205154"><ele>44.5</ele><time>2026-05-02T13:55:33.06Z</time></trkpt><trkpt lat="45.2985229" lon="10.7205912"><ele>44.0</ele><time>2026-05-02T13:55:36.06Z</time></trkpt><trkpt lat="45.2984632" lon="10.7206517"><ele>44.0</ele><time>2026-05-02T13:55:38.059Z</time></trkpt><trkpt lat="45.2984061" lon="10.7207189"><ele>44.0</ele><time>2026-05-02T13:55:40.06Z</time></trkpt><trkpt lat="45.2983501" lon="10.7207837"><ele>44.0</ele><time>2026-05-02T13:55:42.059Z</time></trkpt><trkpt lat="45.2982934" lon="10.7208481"><ele>44.0</ele><time>2026-05-02T13:55:44.059Z</time></trkpt><trkpt lat="45.2982393" lon="10.7209083"><ele>44.0</ele><time>2026-05-02T13:55:46.059Z</time></trkpt><trkpt lat="45.2981859" lon="10.7209738"><ele>44.0</ele><time>2026-05-02T13:55:48.059Z</time></trkpt><trkpt lat="45.2981318" lon="10.7210322"><ele>44.0</ele><time>2026-05-02T13:55:50.06Z</time></trkpt><trkpt lat="45.2980814" lon="10.7210877"><ele>44.0</ele><time>2026-05-02T13:55:52.06Z</time></trkpt><trkpt lat="45.2980334" lon="10.7211486"><ele>44.0</ele><time>2026-05-02T13:55:54.059Z</time></trkpt><trkpt lat="45.2979662" lon="10.7212354"><ele>44.0</ele><time>2026-05-02T13:55:57.059Z</time></trkpt><trkpt lat="45.297901" lon="10.7213137"><ele>44.0</ele><time>2026-05-02T13:56:00.06Z</time></trkpt><trkpt lat="45.2978543" lon="10.7213773"><ele>44.0</ele><time>2026-05-02T13:56:02.06Z</time></trkpt><trkpt lat="45.297794" lon="10.7214419"><ele>44.0</ele><time>2026-05-02T13:56:04.059Z</time></trkpt><trkpt lat="45.2977209" lon="10.7215103"><ele>44.0</ele><time>2026-05-02T13:56:06.059Z</time></trkpt><trkpt lat="45.2976437" lon="10.7215831"><ele>44.0</ele><time>2026-05-02T13:56:08.058Z</time></trkpt><trkpt lat="45.2975675" lon="10.7216671"><ele>44.0</ele><time>2026-05-02T13:56:10.059Z</time></trkpt><trkpt lat="45.2974854" lon="10.7217619"><ele>44.0</ele><time>2026-05-02T13:56:12.06Z</time></trkpt><trkpt lat="45.2974062" lon="10.721847"><ele>44.0</ele><time>2026-05-02T13:56:14.059Z</time></trkpt><trkpt lat="45.2973314" lon="10.7219218"><ele>44.166666666666664</ele><time>2026-05-02T13:56:16.058Z</time></trkpt><trkpt lat="45.2972691" lon="10.7219968"><ele>44.33333333333333</ele><time>2026-05-02T13:56:18.06Z</time></trkpt><trkpt lat="45.2972021" lon="10.7220697"><ele>44.5</ele><time>2026-05-02T13:56:20.06Z</time></trkpt><trkpt lat="45.2971352" lon="10.7221351"><ele>44.666666666666664</ele><time>2026-05-02T13:56:22.059Z</time></trkpt><trkpt lat="45.2970701" lon="10.7222011"><ele>44.833333333333336</ele><time>2026-05-02T13:56:24.059Z</time></trkpt><trkpt lat="45.2970085" lon="10.7222645"><ele>45.0</ele><time>2026-05-02T13:56:26.059Z</time></trkpt><trkpt lat="45.2969483" lon="10.7223343"><ele>45.0</ele><time>2026-05-02T13:56:28.059Z</time></trkpt><trkpt lat="45.2968894" lon="10.7224073"><ele>45.0</ele><time>2026-05-02T13:56:30.059Z</time></trkpt><trkpt lat="45.296829" lon="10.7224761"><ele>45.0</ele><time>2026-05-02T13:56:32.06Z</time></trkpt><trkpt lat="45.2967696" lon="10.7225479"><ele>45.0</ele><time>2026-05-02T13:56:34.06Z</time></trkpt><trkpt lat="45.2967072" lon="10.7226188"><ele>45.0</ele><time>2026-05-02T13:56:36.06Z</time></trkpt><trkpt lat="45.2966429" lon="10.7226913"><ele>45.0</ele><time>2026-05-02T13:56:38.058Z</time></trkpt><trkpt lat="45.2965754" lon="10.722765"><ele>44.833333333333336</ele><time>2026-05-02T13:56:40.057Z</time></trkpt><trkpt lat="45.2965114" lon="10.7228393"><ele>44.666666666666664</ele><time>2026-05-02T13:56:42.059Z</time></trkpt><trkpt lat="45.2964452" lon="10.7229108"><ele>44.5</ele><time>2026-05-02T13:56:44.059Z</time></trkpt><trkpt lat="45.2963798" lon="10.7229825"><ele>44.33333333333333</ele><time>2026-05-02T13:56:46.06Z</time></trkpt><trkpt lat="45.2963131" lon="10.7230468"><ele>44.166666666666664</ele><time>2026-05-02T13:56:48.059Z</time></trkpt><trkpt lat="45.2962481" lon="10.7231186"><ele>44.0</ele><time>2026-05-02T13:56:50.059Z</time></trkpt><trkpt lat="45.2961842" lon="10.7231877"><ele>43.83333333333333</ele><time>2026-05-02T13:56:52.06Z</time></trkpt><trkpt lat="45.2961188" lon="10.7232525"><ele>43.666666666666664</ele><time>2026-05-02T13:56:54.06Z</time></trkpt><trkpt lat="45.2960558" lon="10.7233211"><ele>43.5</ele><time>2026-05-02T13:56:56.06Z</time></trkpt><trkpt lat="45.2959934" lon="10.7233923"><ele>43.333333333333336</ele><time>2026-05-02T13:56:58.059Z</time></trkpt><trkpt lat="45.2959313" lon="10.7234596"><ele>43.16666666666667</ele><time>2026-05-02T13:57:00.057Z</time></trkpt><trkpt lat="45.2958688" lon="10.7235278"><ele>43.0</ele><time>2026-05-02T13:57:02.059Z</time></trkpt><trkpt lat="45.2958107" lon="10.7235935"><ele>43.0</ele><time>2026-05-02T13:57:04.059Z</time></trkpt><trkpt lat="45.2957507" lon="10.7236586"><ele>43.0</ele><time>2026-05-02T13:57:06.059Z</time></trkpt><trkpt lat="45.2956904" lon="10.7237266"><ele>43.0</ele><time>2026-05-02T13:57:08.059Z</time></trkpt><trkpt lat="45.2956302" lon="10.7237959"><ele>43.0</ele><time>2026-05-02T13:57:10.059Z</time></trkpt><trkpt lat="45.2955681" lon="10.7238643"><ele>43.0</ele><time>2026-05-02T13:57:12.059Z</time></trkpt><trkpt lat="45.2955059" lon="10.7239373"><ele>43.0</ele><time>2026-05-02T13:57:14.059Z</time></trkpt><trkpt lat="45.2954425" lon="10.7240114"><ele>43.0</ele><time>2026-05-02T13:57:16.058Z</time></trkpt><trkpt lat="45.2953782" lon="10.7240858"><ele>43.0</ele><time>2026-05-02T13:57:18.058Z</time></trkpt><trkpt lat="45.2953143" lon="10.7241603"><ele>43.0</ele><time>2026-05-02T13:57:20.059Z</time></trkpt><trkpt lat="45.2952508" lon="10.7242303"><ele>43.0</ele><time>2026-05-02T13:57:22.057Z</time></trkpt><trkpt lat="45.2951873" lon="10.7243003"><ele>43.0</ele><time>2026-05-02T13:57:24.059Z</time></trkpt><trkpt lat="45.2951273" lon="10.7243697"><ele>43.0</ele><time>2026-05-02T13:57:26.06Z</time></trkpt><trkpt lat="45.2950653" lon="10.7244368"><ele>43.16666666666667</ele><time>2026-05-02T13:57:28.058Z</time></trkpt><trkpt lat="45.2950047" lon="10.7245072"><ele>43.333333333333336</ele><time>2026-05-02T13:57:30.059Z</time></trkpt><trkpt lat="45.2949454" lon="10.7245739"><ele>43.5</ele><time>2026-05-02T13:57:32.06Z</time></trkpt><trkpt lat="45.2948874" lon="10.7246374"><ele>43.666666666666664</ele><time>2026-05-02T13:57:34.06Z</time></trkpt><trkpt lat="45.2948251" lon="10.7246981"><ele>43.83333333333333</ele><time>2026-05-02T13:57:36.057Z</time></trkpt><trkpt lat="45.2947638" lon="10.7247616"><ele>44.0</ele><time>2026-05-02T13:57:38.06Z</time></trkpt><trkpt lat="45.2947028" lon="10.7248358"><ele>44.166666666666664</ele><time>2026-05-02T13:57:40.059Z</time></trkpt><trkpt lat="45.2946392" lon="10.7249097"><ele>44.33333333333333</ele><time>2026-05-02T13:57:42.059Z</time></trkpt><trkpt lat="45.294573" lon="10.7249828"><ele>44.5</ele><time>2026-05-02T13:57:44.06Z</time></trkpt><trkpt lat="45.2945078" lon="10.7250633"><ele>44.666666666666664</ele><time>2026-05-02T13:57:46.059Z</time></trkpt><trkpt lat="45.2944424" lon="10.7251368"><ele>44.833333333333336</ele><time>2026-05-02T13:57:48.059Z</time></trkpt><trkpt lat="45.2943768" lon="10.725209"><ele>45.0</ele><time>2026-05-02T13:57:50.06Z</time></trkpt><trkpt lat="45.2943101" lon="10.7252812"><ele>44.666666666666664</ele><time>2026-05-02T13:57:52.058Z</time></trkpt><trkpt lat="45.2942399" lon="10.72535"><ele>44.333333333333336</ele><time>2026-05-02T13:57:54.057Z</time></trkpt><trkpt lat="45.294171" lon="10.7254149"><ele>44.0</ele><time>2026-05-02T13:57:56.058Z</time></trkpt><trkpt lat="45.2941025" lon="10.725478"><ele>43.66666666666667</ele><time>2026-05-02T13:57:58.058Z</time></trkpt><trkpt lat="45.2940317" lon="10.725537"><ele>43.333333333333336</ele><time>2026-05-02T13:58:00.059Z</time></trkpt><trkpt lat="45.2939605" lon="10.7255982"><ele>43.0</ele><time>2026-05-02T13:58:02.059Z</time></trkpt><trkpt lat="45.2938917" lon="10.7256592"><ele>42.833333333333336</ele><time>2026-05-02T13:58:04.058Z</time></trkpt><trkpt lat="45.2938211" lon="10.7257227"><ele>42.66666666666667</ele><time>2026-05-02T13:58:06.059Z</time></trkpt><trkpt lat="45.2937488" lon="10.7257846"><ele>42.5</ele><time>2026-05-02T13:58:08.06Z</time></trkpt><trkpt lat="45.2936753" lon="10.7258412"><ele>42.333333333333336</ele><time>2026-05-02T13:58:10.06Z</time></trkpt><trkpt lat="45.2936025" lon="10.7258976"><ele>42.166666666666664</ele><time>2026-05-02T13:58:12.059Z</time></trkpt><trkpt lat="45.2935314" lon="10.7259546"><ele>42.0</ele><time>2026-05-02T13:58:14.059Z</time></trkpt><trkpt lat="45.2934604" lon="10.7260166"><ele>42.0</ele><time>2026-05-02T13:58:16.058Z</time></trkpt><trkpt lat="45.2933863" lon="10.7260796"><ele>42.0</ele><time>2026-05-02T13:58:18.059Z</time></trkpt><trkpt lat="45.2933144" lon="10.7261363"><ele>42.0</ele><time>2026-05-02T13:58:20.059Z</time></trkpt><trkpt lat="45.2932469" lon="10.7261881"><ele>42.0</ele><time>2026-05-02T13:58:22.059Z</time></trkpt><trkpt lat="45.2931767" lon="10.7262379"><ele>42.0</ele><time>2026-05-02T13:58:24.059Z</time></trkpt><trkpt lat="45.2931097" lon="10.7262873"><ele>42.0</ele><time>2026-05-02T13:58:26.058Z</time></trkpt><trkpt lat="45.2930445" lon="10.7263389"><ele>42.0</ele><time>2026-05-02T13:58:28.057Z</time></trkpt><trkpt lat="45.2929827" lon="10.7263833"><ele>42.0</ele><time>2026-05-02T13:58:30.059Z</time></trkpt><trkpt lat="45.2929131" lon="10.7264329"><ele>42.0</ele><time>2026-05-02T13:58:32.059Z</time></trkpt><trkpt lat="45.2928397" lon="10.7264818"><ele>42.0</ele><time>2026-05-02T13:58:34.059Z</time></trkpt><trkpt lat="45.29277" lon="10.7265219"><ele>42.0</ele><time>2026-05-02T13:58:36.059Z</time></trkpt><trkpt lat="45.2927018" lon="10.7265657"><ele>42.0</ele><time>2026-05-02T13:58:38.059Z</time></trkpt><trkpt lat="45.2926307" lon="10.7266104"><ele>42.0</ele><time>2026-05-02T13:58:40.059Z</time></trkpt><trkpt lat="45.2925565" lon="10.7266594"><ele>42.0</ele><time>2026-05-02T13:58:42.058Z</time></trkpt><trkpt lat="45.2924847" lon="10.7267003"><ele>42.0</ele><time>2026-05-02T13:58:44.058Z</time></trkpt><trkpt lat="45.292413" lon="10.726735"><ele>42.0</ele><time>2026-05-02T13:58:46.058Z</time></trkpt><trkpt lat="45.2923332" lon="10.7267825"><ele>42.0</ele><time>2026-05-02T13:58:48.059Z</time></trkpt><trkpt lat="45.2922576" lon="10.7268187"><ele>42.0</ele><time>2026-05-02T13:58:50.058Z</time></trkpt><trkpt lat="45.2921848" lon="10.7268565"><ele>42.57142857142857</ele><time>2026-05-02T13:58:51.988Z</time></trkpt><trkpt lat="45.2921181" lon="10.7268951"><ele>43.14285714285714</ele><time>2026-05-02T13:58:54.059Z</time></trkpt><trkpt lat="45.2920472" lon="10.7269342"><ele>43.714285714285715</ele><time>2026-05-02T13:58:56.059Z</time></trkpt><trkpt lat="45.2919829" lon="10.7269646"><ele>44.285714285714285</ele><time>2026-05-02T13:58:58.058Z</time></trkpt><trkpt lat="45.2919177" lon="10.726994"><ele>44.857142857142854</ele><time>2026-05-02T13:59:00.058Z</time></trkpt><trkpt lat="45.2918458" lon="10.7270269"><ele>45.42857142857143</ele><time>2026-05-02T13:59:02.058Z</time></trkpt><trkpt lat="45.291771" lon="10.7270581"><ele>46.0</ele><time>2026-05-02T13:59:04.058Z</time></trkpt><trkpt lat="45.2916925" lon="10.727093"><ele>46.0</ele><time>2026-05-02T13:59:06.059Z</time></trkpt><trkpt lat="45.2916128" lon="10.7271303"><ele>46.0</ele><time>2026-05-02T13:59:08.058Z</time></trkpt><trkpt lat="45.2915362" lon="10.7271647"><ele>46.0</ele><time>2026-05-02T13:59:10.058Z</time></trkpt><trkpt lat="45.2914589" lon="10.7271951"><ele>46.0</ele><time>2026-05-02T13:59:12.059Z</time></trkpt><trkpt lat="45.2913814" lon="10.7272253"><ele>46.0</ele><time>2026-05-02T13:59:14.059Z</time></trkpt><trkpt lat="45.2913046" lon="10.7272496"><ele>46.0</ele><time>2026-05-02T13:59:16.059Z</time></trkpt><trkpt lat="45.2912287" lon="10.7272757"><ele>46.5</ele><time>2026-05-02T13:59:18.059Z</time></trkpt><trkpt lat="45.2911539" lon="10.7272974"><ele>47.0</ele><time>2026-05-02T13:59:20.058Z</time></trkpt><trkpt lat="45.2910774" lon="10.7273209"><ele>47.5</ele><time>2026-05-02T13:59:22.059Z</time></trkpt><trkpt lat="45.2909991" lon="10.7273427"><ele>48.0</ele><time>2026-05-02T13:59:24.059Z</time></trkpt><trkpt lat="45.2909241" lon="10.7273712"><ele>48.49999999999999</ele><time>2026-05-02T13:59:26.059Z</time></trkpt><trkpt lat="45.2908507" lon="10.727393"><ele>49.0</ele><time>2026-05-02T13:59:28.058Z</time></trkpt><trkpt lat="45.2907777" lon="10.7274146"><ele>48.99999999999999</ele><time>2026-05-02T13:59:30.058Z</time></trkpt><trkpt lat="45.2907021" lon="10.7274363"><ele>49.0</ele><time>2026-05-02T13:59:32.06Z</time></trkpt><trkpt lat="45.2906274" lon="10.72746"><ele>49.0</ele><time>2026-05-02T13:59:34.058Z</time></trkpt><trkpt lat="45.2905517" lon="10.7274806"><ele>49.0</ele><time>2026-05-02T13:59:36.059Z</time></trkpt><trkpt lat="45.2904746" lon="10.7275011"><ele>48.99999999999999</ele><time>2026-05-02T13:59:38.058Z</time></trkpt><trkpt lat="45.2903961" lon="10.7275232"><ele>49.0</ele><time>2026-05-02T13:59:40.058Z</time></trkpt><trkpt lat="45.2903171" lon="10.7275452"><ele>48.99999999999999</ele><time>2026-05-02T13:59:42.058Z</time></trkpt><trkpt lat="45.2902363" lon="10.7275667"><ele>49.0</ele><time>2026-05-02T13:59:44.059Z</time></trkpt><trkpt lat="45.2901581" lon="10.7275844"><ele>49.0</ele><time>2026-05-02T13:59:46.057Z</time></trkpt><trkpt lat="45.2900787" lon="10.7276054"><ele>49.0</ele><time>2026-05-02T13:59:48.058Z</time></trkpt><trkpt lat="45.2899977" lon="10.7276269"><ele>48.99999999999999</ele><time>2026-05-02T13:59:50.059Z</time></trkpt><trkpt lat="45.2899175" lon="10.7276445"><ele>49.0</ele><time>2026-05-02T13:59:52.059Z</time></trkpt><trkpt lat="45.2898373" lon="10.7276621"><ele>48.83333333333333</ele><time>2026-05-02T13:59:54.058Z</time></trkpt><trkpt lat="45.289755" lon="10.727684"><ele>48.666666666666664</ele><time>2026-05-02T13:59:56.058Z</time></trkpt><trkpt lat="45.2896738" lon="10.7277056"><ele>48.5</ele><time>2026-05-02T13:59:58.058Z</time></trkpt><trkpt lat="45.2895951" lon="10.7277264"><ele>48.33333333333333</ele><time>2026-05-02T14:00:00.059Z</time></trkpt><trkpt lat="45.2895193" lon="10.7277522"><ele>48.166666666666664</ele><time>2026-05-02T14:00:02.059Z</time></trkpt><trkpt lat="45.2894484" lon="10.727769"><ele>48.0</ele><time>2026-05-02T14:00:04.058Z</time></trkpt><trkpt lat="45.2893816" lon="10.7277857"><ele>47.857142857142854</ele><time>2026-05-02T14:00:06.058Z</time></trkpt><trkpt lat="45.2893154" lon="10.7278012"><ele>47.714285714285715</ele><time>2026-05-02T14:00:08.058Z</time></trkpt><trkpt lat="45.2892446" lon="10.727816"><ele>47.57142857142857</ele><time>2026-05-02T14:00:10.058Z</time></trkpt><trkpt lat="45.2891722" lon="10.7278353"><ele>47.42857142857143</ele><time>2026-05-02T14:00:12.059Z</time></trkpt><trkpt lat="45.2890997" lon="10.7278502"><ele>47.285714285714285</ele><time>2026-05-02T14:00:14.058Z</time></trkpt><trkpt lat="45.2890268" lon="10.727869"><ele>47.14285714285714</ele><time>2026-05-02T14:00:16.058Z</time></trkpt><trkpt lat="45.2889532" lon="10.7278918"><ele>47.0</ele><time>2026-05-02T14:00:18.059Z</time></trkpt><trkpt lat="45.2888794" lon="10.7279098"><ele>47.0</ele><time>2026-05-02T14:00:20.059Z</time></trkpt><trkpt lat="45.2888052" lon="10.7279319"><ele>47.0</ele><time>2026-05-02T14:00:22.058Z</time></trkpt><trkpt lat="45.2887328" lon="10.7279567"><ele>47.0</ele><time>2026-05-02T14:00:24.058Z</time></trkpt><trkpt lat="45.2886587" lon="10.727976"><ele>47.0</ele><time>2026-05-02T14:00:26.059Z</time></trkpt><trkpt lat="45.288583" lon="10.7279936"><ele>47.0</ele><time>2026-05-02T14:00:28.059Z</time></trkpt><trkpt lat="45.2885068" lon="10.7280125"><ele>47.0</ele><time>2026-05-02T14:00:30.058Z</time></trkpt><trkpt lat="45.2884311" lon="10.728037"><ele>47.0</ele><time>2026-05-02T14:00:32.059Z</time></trkpt><trkpt lat="45.2883544" lon="10.7280562"><ele>47.0</ele><time>2026-05-02T14:00:34.058Z</time></trkpt><trkpt lat="45.2882772" lon="10.7280745"><ele>47.0</ele><time>2026-05-02T14:00:36.058Z</time></trkpt><trkpt lat="45.2882026" lon="10.7280934"><ele>47.0</ele><time>2026-05-02T14:00:38.057Z</time></trkpt><trkpt lat="45.2881281" lon="10.7281133"><ele>47.0</ele><time>2026-05-02T14:00:40.058Z</time></trkpt><trkpt lat="45.2880523" lon="10.7281326"><ele>47.0</ele><time>2026-05-02T14:00:42.059Z</time></trkpt><trkpt lat="45.2879759" lon="10.7281542"><ele>46.5</ele><time>2026-05-02T14:00:44.059Z</time></trkpt><trkpt lat="45.2878996" lon="10.7281722"><ele>46.0</ele><time>2026-05-02T14:00:46.059Z</time></trkpt><trkpt lat="45.287821" lon="10.7281914"><ele>45.5</ele><time>2026-05-02T14:00:48.059Z</time></trkpt><trkpt lat="45.287744" lon="10.728214"><ele>45.0</ele><time>2026-05-02T14:00:50.059Z</time></trkpt><trkpt lat="45.2876634" lon="10.7282388"><ele>44.5</ele><time>2026-05-02T14:00:52.059Z</time></trkpt><trkpt lat="45.2875827" lon="10.728261"><ele>44.0</ele><time>2026-05-02T14:00:54.059Z</time></trkpt><trkpt lat="45.2875038" lon="10.7282825"><ele>44.0</ele><time>2026-05-02T14:00:56.059Z</time></trkpt><trkpt lat="45.287426" lon="10.7283065"><ele>44.0</ele><time>2026-05-02T14:00:58.059Z</time></trkpt><trkpt lat="45.2873483" lon="10.7283246"><ele>44.0</ele><time>2026-05-02T14:01:00.058Z</time></trkpt><trkpt lat="45.2872708" lon="10.728347"><ele>44.0</ele><time>2026-05-02T14:01:02.058Z</time></trkpt><trkpt lat="45.2871938" lon="10.7283713"><ele>44.0</ele><time>2026-05-02T14:01:04.059Z</time></trkpt><trkpt lat="45.2871164" lon="10.7283939"><ele>44.0</ele><time>2026-05-02T14:01:06.058Z</time></trkpt><trkpt lat="45.2870409" lon="10.7284118"><ele>44.166666666666664</ele><time>2026-05-02T14:01:08.058Z</time></trkpt><trkpt lat="45.2869621" lon="10.7284355"><ele>44.33333333333333</ele><time>2026-05-02T14:01:10.058Z</time></trkpt><trkpt lat="45.2868833" lon="10.7284579"><ele>44.5</ele><time>2026-05-02T14:01:12.059Z</time></trkpt><trkpt lat="45.286804" lon="10.728481"><ele>44.666666666666664</ele><time>2026-05-02T14:01:14.058Z</time></trkpt><trkpt lat="45.2867257" lon="10.728502"><ele>44.833333333333336</ele><time>2026-05-02T14:01:16.058Z</time></trkpt><trkpt lat="45.2866459" lon="10.728525"><ele>45.0</ele><time>2026-05-02T14:01:18.058Z</time></trkpt><trkpt lat="45.2865644" lon="10.7285484"><ele>45.0</ele><time>2026-05-02T14:01:20.059Z</time></trkpt><trkpt lat="45.2864811" lon="10.7285724"><ele>45.0</ele><time>2026-05-02T14:01:22.058Z</time></trkpt><trkpt lat="45.2864008" lon="10.728595"><ele>45.0</ele><time>2026-05-02T14:01:24.058Z</time></trkpt><trkpt lat="45.2863249" lon="10.7286094"><ele>45.0</ele><time>2026-05-02T14:01:26.057Z</time></trkpt><trkpt lat="45.2862473" lon="10.7286259"><ele>45.0</ele><time>2026-05-02T14:01:28.057Z</time></trkpt><trkpt lat="45.2861684" lon="10.7286434"><ele>45.0</ele><time>2026-05-02T14:01:30.059Z</time></trkpt><trkpt lat="45.2860887" lon="10.7286622"><ele>44.5</ele><time>2026-05-02T14:01:32.058Z</time></trkpt><trkpt lat="45.286008" lon="10.728678"><ele>44.0</ele><time>2026-05-02T14:01:34.059Z</time></trkpt><trkpt lat="45.2859275" lon="10.7286975"><ele>43.5</ele><time>2026-05-02T14:01:36.057Z</time></trkpt><trkpt lat="45.2858469" lon="10.7287176"><ele>43.0</ele><time>2026-05-02T14:01:38.059Z</time></trkpt><trkpt lat="45.2857664" lon="10.7287382"><ele>42.5</ele><time>2026-05-02T14:01:40.058Z</time></trkpt><trkpt lat="45.285687" lon="10.7287586"><ele>42.0</ele><time>2026-05-02T14:01:42.058Z</time></trkpt><trkpt lat="45.2856074" lon="10.7287793"><ele>42.166666666666664</ele><time>2026-05-02T14:01:44.058Z</time></trkpt><trkpt lat="45.2855296" lon="10.7287998"><ele>42.333333333333336</ele><time>2026-05-02T14:01:46.059Z</time></trkpt><trkpt lat="45.285454" lon="10.7288219"><ele>42.5</ele><time>2026-05-02T14:01:48.058Z</time></trkpt><trkpt lat="45.2853791" lon="10.7288397"><ele>42.66666666666667</ele><time>2026-05-02T14:01:50.059Z</time></trkpt><trkpt lat="45.2853014" lon="10.7288584"><ele>42.833333333333336</ele><time>2026-05-02T14:01:52.058Z</time></trkpt><trkpt lat="45.2852236" lon="10.7288795"><ele>43.0</ele><time>2026-05-02T14:01:54.057Z</time></trkpt><trkpt lat="45.2851434" lon="10.7289025"><ele>43.0</ele><time>2026-05-02T14:01:56.057Z</time></trkpt><trkpt lat="45.2850617" lon="10.7289238"><ele>43.0</ele><time>2026-05-02T14:01:58.059Z</time></trkpt><trkpt lat="45.2849814" lon="10.7289475"><ele>43.0</ele><time>2026-05-02T14:02:00.058Z</time></trkpt><trkpt lat="45.2848991" lon="10.7289684"><ele>43.0</ele><time>2026-05-02T14:02:02.058Z</time></trkpt><trkpt lat="45.2848191" lon="10.7289886"><ele>43.0</ele><time>2026-05-02T14:02:04.058Z</time></trkpt><trkpt lat="45.2847381" lon="10.7290036"><ele>43.0</ele><time>2026-05-02T14:02:06.058Z</time></trkpt><trkpt lat="45.2846596" lon="10.7290235"><ele>43.16666666666667</ele><time>2026-05-02T14:02:08.058Z</time></trkpt><trkpt lat="45.2845851" lon="10.7290423"><ele>43.333333333333336</ele><time>2026-05-02T14:02:10.057Z</time></trkpt><trkpt lat="45.2845077" lon="10.7290609"><ele>43.5</ele><time>2026-05-02T14:02:12.058Z</time></trkpt><trkpt lat="45.2844301" lon="10.7290852"><ele>43.666666666666664</ele><time>2026-05-02T14:02:14.057Z</time></trkpt><trkpt lat="45.2843537" lon="10.7291088"><ele>43.83333333333333</ele><time>2026-05-02T14:02:16.058Z</time></trkpt><trkpt lat="45.2842778" lon="10.7291329"><ele>44.0</ele><time>2026-05-02T14:02:18.058Z</time></trkpt><trkpt lat="45.2842011" lon="10.7291515"><ele>44.0</ele><time>2026-05-02T14:02:20.058Z</time></trkpt><trkpt lat="45.2841246" lon="10.7291709"><ele>44.0</ele><time>2026-05-02T14:02:22.059Z</time></trkpt><trkpt lat="45.284049" lon="10.7291937"><ele>44.0</ele><time>2026-05-02T14:02:24.059Z</time></trkpt><trkpt lat="45.28397" lon="10.7292109"><ele>44.0</ele><time>2026-05-02T14:02:26.058Z</time></trkpt><trkpt lat="45.2838902" lon="10.7292296"><ele>44.0</ele><time>2026-05-02T14:02:28.058Z</time></trkpt><trkpt lat="45.2838127" lon="10.729254"><ele>44.0</ele><time>2026-05-02T14:02:30.057Z</time></trkpt><trkpt lat="45.2837331" lon="10.7292755"><ele>44.166666666666664</ele><time>2026-05-02T14:02:32.059Z</time></trkpt><trkpt lat="45.283656" lon="10.7293027"><ele>44.33333333333333</ele><time>2026-05-02T14:02:34.056Z</time></trkpt><trkpt lat="45.2835768" lon="10.7293222"><ele>44.5</ele><time>2026-05-02T14:02:36.057Z</time></trkpt><trkpt lat="45.2834954" lon="10.7293425"><ele>44.666666666666664</ele><time>2026-05-02T14:02:38.057Z</time></trkpt><trkpt lat="45.2834165" lon="10.7293615"><ele>44.833333333333336</ele><time>2026-05-02T14:02:40.059Z</time></trkpt><trkpt lat="45.283341" lon="10.7293841"><ele>45.0</ele><time>2026-05-02T14:02:42.058Z</time></trkpt><trkpt lat="45.2832647" lon="10.7294026"><ele>45.0</ele><time>2026-05-02T14:02:44.059Z</time></trkpt><trkpt lat="45.2831882" lon="10.7294271"><ele>45.0</ele><time>2026-05-02T14:02:46.059Z</time></trkpt><trkpt lat="45.2831134" lon="10.7294415"><ele>45.0</ele><time>2026-05-02T14:02:48.057Z</time></trkpt><trkpt lat="45.2830419" lon="10.7294674"><ele>45.0</ele><time>2026-05-02T14:02:50.059Z</time></trkpt><trkpt lat="45.2829758" lon="10.7294963"><ele>45.0</ele><time>2026-05-02T14:02:52.058Z</time></trkpt><trkpt lat="45.2828826" lon="10.7295222"><ele>45.0</ele><time>2026-05-02T14:02:55.057Z</time></trkpt><trkpt lat="45.2828207" lon="10.7295449"><ele>45.166666666666664</ele><time>2026-05-02T14:02:57.058Z</time></trkpt><trkpt lat="45.2827408" lon="10.7295783"><ele>45.333333333333336</ele><time>2026-05-02T14:03:00.058Z</time></trkpt><trkpt lat="45.2826689" lon="10.7296153"><ele>45.5</ele><time>2026-05-02T14:03:03.058Z</time></trkpt><trkpt lat="45.2825887" lon="10.7296459"><ele>45.66666666666667</ele><time>2026-05-02T14:03:07.057Z</time></trkpt><trkpt lat="45.2825212" lon="10.7296698"><ele>45.833333333333336</ele><time>2026-05-02T14:03:10.058Z</time></trkpt><trkpt lat="45.2824282" lon="10.7297062"><ele>46.0</ele><time>2026-05-02T14:03:13.057Z</time></trkpt><trkpt lat="45.2823432" lon="10.7297272"><ele>46.0</ele><time>2026-05-02T14:03:15.058Z</time></trkpt><trkpt lat="45.2822482" lon="10.7297371"><ele>46.0</ele><time>2026-05-02T14:03:17.058Z</time></trkpt><trkpt lat="45.2821481" lon="10.7297536"><ele>46.0</ele><time>2026-05-02T14:03:19.056Z</time></trkpt><trkpt lat="45.2820407" lon="10.7297806"><ele>46.0</ele><time>2026-05-02T14:03:21.058Z</time></trkpt><trkpt lat="45.2819389" lon="10.7298065"><ele>46.0</ele><time>2026-05-02T14:03:23.058Z</time></trkpt><trkpt lat="45.2818339" lon="10.7298213"><ele>46.0</ele><time>2026-05-02T14:03:25.057Z</time></trkpt><trkpt lat="45.2817347" lon="10.7298406"><ele>46.0</ele><time>2026-05-02T14:03:27.057Z</time></trkpt><trkpt lat="45.2816409" lon="10.7298626"><ele>46.0</ele><time>2026-05-02T14:03:29.058Z</time></trkpt><trkpt lat="45.2815489" lon="10.7298879"><ele>46.0</ele><time>2026-05-02T14:03:31.058Z</time></trkpt><trkpt lat="45.2814646" lon="10.7299039"><ele>46.0</ele><time>2026-05-02T14:03:33.058Z</time></trkpt><trkpt lat="45.2813863" lon="10.7299216"><ele>45.5</ele><time>2026-05-02T14:03:35.059Z</time></trkpt><trkpt lat="45.2813095" lon="10.7299483"><ele>45.0</ele><time>2026-05-02T14:03:37.058Z</time></trkpt><trkpt lat="45.281236" lon="10.729967"><ele>44.5</ele><time>2026-05-02T14:03:39.059Z</time></trkpt><trkpt lat="45.2811657" lon="10.7299753"><ele>44.0</ele><time>2026-05-02T14:03:41.058Z</time></trkpt><trkpt lat="45.2810897" lon="10.7299935"><ele>43.5</ele><time>2026-05-02T14:03:43.057Z</time></trkpt><trkpt lat="45.2810114" lon="10.7300206"><ele>43.0</ele><time>2026-05-02T14:03:45.058Z</time></trkpt><trkpt lat="45.2809313" lon="10.7300498"><ele>43.0</ele><time>2026-05-02T14:03:47.059Z</time></trkpt><trkpt lat="45.2808504" lon="10.7300755"><ele>43.0</ele><time>2026-05-02T14:03:49.058Z</time></trkpt><trkpt lat="45.2807721" lon="10.7301024"><ele>43.0</ele><time>2026-05-02T14:03:51.057Z</time></trkpt><trkpt lat="45.2806965" lon="10.7301306"><ele>43.0</ele><time>2026-05-02T14:03:53.057Z</time></trkpt><trkpt lat="45.28062" lon="10.7301519"><ele>43.0</ele><time>2026-05-02T14:03:55.058Z</time></trkpt><trkpt lat="45.2805447" lon="10.7301693"><ele>43.0</ele><time>2026-05-02T14:03:57.057Z</time></trkpt><trkpt lat="45.2804765" lon="10.7301897"><ele>43.28571428571429</ele><time>2026-05-02T14:03:59.057Z</time></trkpt><trkpt lat="45.2804124" lon="10.7302053"><ele>43.57142857142857</ele><time>2026-05-02T14:04:01.059Z</time></trkpt><trkpt lat="45.2803484" lon="10.7302234"><ele>43.85714285714286</ele><time>2026-05-02T14:04:03.058Z</time></trkpt><trkpt lat="45.2802811" lon="10.73024"><ele>44.142857142857146</ele><time>2026-05-02T14:04:05.057Z</time></trkpt><trkpt lat="45.2802144" lon="10.7302522"><ele>44.42857142857143</ele><time>2026-05-02T14:04:07.058Z</time></trkpt><trkpt lat="45.2801479" lon="10.7302659"><ele>44.714285714285715</ele><time>2026-05-02T14:04:09.056Z</time></trkpt><trkpt lat="45.2800783" lon="10.7302802"><ele>45.0</ele><time>2026-05-02T14:04:11.059Z</time></trkpt><trkpt lat="45.2800126" lon="10.7302943"><ele>45.0</ele><time>2026-05-02T14:04:13.057Z</time></trkpt><trkpt lat="45.2799451" lon="10.7303099"><ele>45.0</ele><time>2026-05-02T14:04:15.058Z</time></trkpt><trkpt lat="45.279874" lon="10.7303229"><ele>45.0</ele><time>2026-05-02T14:04:17.058Z</time></trkpt><trkpt lat="45.2798035" lon="10.7303368"><ele>45.0</ele><time>2026-05-02T14:04:19.057Z</time></trkpt><trkpt lat="45.2797343" lon="10.7303573"><ele>45.0</ele><time>2026-05-02T14:04:21.057Z</time></trkpt><trkpt lat="45.2796623" lon="10.7303683"><ele>45.0</ele><time>2026-05-02T14:04:23.058Z</time></trkpt><trkpt lat="45.2795853" lon="10.7303859"><ele>45.0</ele><time>2026-05-02T14:04:25.058Z</time></trkpt><trkpt lat="45.2795101" lon="10.7304011"><ele>44.833333333333336</ele><time>2026-05-02T14:04:27.057Z</time></trkpt><trkpt lat="45.2794348" lon="10.7304164"><ele>44.666666666666664</ele><time>2026-05-02T14:04:29.057Z</time></trkpt><trkpt lat="45.2793599" lon="10.7304313"><ele>44.5</ele><time>2026-05-02T14:04:31.057Z</time></trkpt><trkpt lat="45.2792828" lon="10.730444"><ele>44.33333333333333</ele><time>2026-05-02T14:04:33.058Z</time></trkpt><trkpt lat="45.2792033" lon="10.7304571"><ele>44.166666666666664</ele><time>2026-05-02T14:04:35.057Z</time></trkpt><trkpt lat="45.2791219" lon="10.7304677"><ele>44.0</ele><time>2026-05-02T14:04:37.058Z</time></trkpt><trkpt lat="45.2790399" lon="10.7304765"><ele>44.0</ele><time>2026-05-02T14:04:39.057Z</time></trkpt><trkpt lat="45.2789583" lon="10.7304852"><ele>44.0</ele><time>2026-05-02T14:04:41.058Z</time></trkpt><trkpt lat="45.278876" lon="10.7304905"><ele>44.0</ele><time>2026-05-02T14:04:43.057Z</time></trkpt><trkpt lat="45.2787973" lon="10.7304924"><ele>44.0</ele><time>2026-05-02T14:04:45.057Z</time></trkpt><trkpt lat="45.2787207" lon="10.7304979"><ele>44.0</ele><time>2026-05-02T14:04:47.058Z</time></trkpt><trkpt lat="45.2786442" lon="10.730504"><ele>44.0</ele><time>2026-05-02T14:04:49.058Z</time></trkpt><trkpt lat="45.278565" lon="10.7305071"><ele>43.33333333333333</ele><time>2026-05-02T14:04:51.057Z</time></trkpt><trkpt lat="45.2784873" lon="10.730514"><ele>42.666666666666664</ele><time>2026-05-02T14:04:53.058Z</time></trkpt><trkpt lat="45.2784116" lon="10.7305177"><ele>42.0</ele><time>2026-05-02T14:04:55.058Z</time></trkpt><trkpt lat="45.2783309" lon="10.7305229"><ele>41.333333333333336</ele><time>2026-05-02T14:04:57.058Z</time></trkpt><trkpt lat="45.2782567" lon="10.7305284"><ele>40.66666666666667</ele><time>2026-05-02T14:04:59.057Z</time></trkpt><trkpt lat="45.2781825" lon="10.7305281"><ele>40.0</ele><time>2026-05-02T14:05:01.058Z</time></trkpt><trkpt lat="45.2781061" lon="10.7305311"><ele>40.16666666666667</ele><time>2026-05-02T14:05:03.057Z</time></trkpt><trkpt lat="45.278028" lon="10.7305319"><ele>40.333333333333336</ele><time>2026-05-02T14:05:05.057Z</time></trkpt><trkpt lat="45.2779467" lon="10.7305301"><ele>40.5</ele><time>2026-05-02T14:05:07.058Z</time></trkpt><trkpt lat="45.2778662" lon="10.7305294"><ele>40.666666666666664</ele><time>2026-05-02T14:05:09.058Z</time></trkpt><trkpt lat="45.277785" lon="10.7305247"><ele>40.83333333333333</ele><time>2026-05-02T14:05:11.058Z</time></trkpt><trkpt lat="45.2777001" lon="10.7305154"><ele>41.0</ele><time>2026-05-02T14:05:13.058Z</time></trkpt><trkpt lat="45.2776158" lon="10.7305138"><ele>41.0</ele><time>2026-05-02T14:05:15.058Z</time></trkpt><trkpt lat="45.2775312" lon="10.7305109"><ele>41.0</ele><time>2026-05-02T14:05:17.058Z</time></trkpt><trkpt lat="45.2774484" lon="10.7305075"><ele>41.0</ele><time>2026-05-02T14:05:19.058Z</time></trkpt><trkpt lat="45.2773674" lon="10.7305067"><ele>41.0</ele><time>2026-05-02T14:05:21.057Z</time></trkpt><trkpt lat="45.2772861" lon="10.730506"><ele>41.0</ele><time>2026-05-02T14:05:23.057Z</time></trkpt><trkpt lat="45.2772022" lon="10.7304954"><ele>41.0</ele><time>2026-05-02T14:05:25.057Z</time></trkpt><trkpt lat="45.277122" lon="10.7304816"><ele>41.0</ele><time>2026-05-02T14:05:27.059Z</time></trkpt><trkpt lat="45.2770422" lon="10.7304688"><ele>41.0</ele><time>2026-05-02T14:05:29.058Z</time></trkpt><trkpt lat="45.2769601" lon="10.730454"><ele>41.0</ele><time>2026-05-02T14:05:31.058Z</time></trkpt><trkpt lat="45.2768602" lon="10.7304339"><ele>41.0</ele><time>2026-05-02T14:05:33.983Z</time></trkpt><trkpt lat="45.2767161" lon="10.7304068"><ele>41.0</ele><time>2026-05-02T14:05:37.057Z</time></trkpt><trkpt lat="45.2766357" lon="10.7303876"><ele>41.0</ele><time>2026-05-02T14:05:39.058Z</time></trkpt><trkpt lat="45.2765557" lon="10.7303697"><ele>41.0</ele><time>2026-05-02T14:05:41.057Z</time></trkpt><trkpt lat="45.2764762" lon="10.730353"><ele>41.0</ele><time>2026-05-02T14:05:43.058Z</time></trkpt><trkpt lat="45.2763973" lon="10.7303386"><ele>41.0</ele><time>2026-05-02T14:05:45.057Z</time></trkpt><trkpt lat="45.2763193" lon="10.7303171"><ele>41.0</ele><time>2026-05-02T14:05:47.057Z</time></trkpt><trkpt lat="45.2762418" lon="10.7303037"><ele>41.0</ele><time>2026-05-02T14:05:49.058Z</time></trkpt><trkpt lat="45.276166" lon="10.7302847"><ele>41.0</ele><time>2026-05-02T14:05:51.058Z</time></trkpt><trkpt lat="45.2760888" lon="10.730265"><ele>41.0</ele><time>2026-05-02T14:05:53.057Z</time></trkpt><trkpt lat="45.2760098" lon="10.7302478"><ele>41.0</ele><time>2026-05-02T14:05:55.058Z</time></trkpt><trkpt lat="45.2759322" lon="10.7302267"><ele>41.0</ele><time>2026-05-02T14:05:57.058Z</time></trkpt><trkpt lat="45.2758552" lon="10.7302075"><ele>41.0</ele><time>2026-05-02T14:05:59.058Z</time></trkpt><trkpt lat="45.2757781" lon="10.7301785"><ele>41.0</ele><time>2026-05-02T14:06:01.057Z</time></trkpt><trkpt lat="45.2756954" lon="10.7301566"><ele>41.0</ele><time>2026-05-02T14:06:03.057Z</time></trkpt><trkpt lat="45.2756124" lon="10.730138"><ele>41.0</ele><time>2026-05-02T14:06:05.057Z</time></trkpt><trkpt lat="45.2755302" lon="10.7301156"><ele>41.0</ele><time>2026-05-02T14:06:07.058Z</time></trkpt><trkpt lat="45.2754494" lon="10.7300913"><ele>41.0</ele><time>2026-05-02T14:06:09.058Z</time></trkpt><trkpt lat="45.2753691" lon="10.7300704"><ele>41.0</ele><time>2026-05-02T14:06:11.057Z</time></trkpt><trkpt lat="45.2752915" lon="10.7300475"><ele>41.0</ele><time>2026-05-02T14:06:13.058Z</time></trkpt><trkpt lat="45.2752134" lon="10.7300206"><ele>41.0</ele><time>2026-05-02T14:06:15.057Z</time></trkpt><trkpt lat="45.2751371" lon="10.7299942"><ele>41.0</ele><time>2026-05-02T14:06:17.057Z</time></trkpt><trkpt lat="45.2750649" lon="10.7299654"><ele>41.0</ele><time>2026-05-02T14:06:19.058Z</time></trkpt><trkpt lat="45.2749911" lon="10.7299366"><ele>41.0</ele><time>2026-05-02T14:06:21.057Z</time></trkpt><trkpt lat="45.2749148" lon="10.7299084"><ele>41.0</ele><time>2026-05-02T14:06:23.058Z</time></trkpt><trkpt lat="45.2748399" lon="10.7298824"><ele>41.0</ele><time>2026-05-02T14:06:25.058Z</time></trkpt><trkpt lat="45.2747675" lon="10.7298463"><ele>41.166666666666664</ele><time>2026-05-02T14:06:27.058Z</time></trkpt><trkpt lat="45.2746941" lon="10.7298134"><ele>41.33333333333333</ele><time>2026-05-02T14:06:29.058Z</time></trkpt><trkpt lat="45.2746199" lon="10.7297759"><ele>41.5</ele><time>2026-05-02T14:06:31.056Z</time></trkpt><trkpt lat="45.2745441" lon="10.729746"><ele>41.666666666666664</ele><time>2026-05-02T14:06:33.058Z</time></trkpt><trkpt lat="45.2744701" lon="10.7297044"><ele>41.833333333333336</ele><time>2026-05-02T14:06:35.058Z</time></trkpt><trkpt lat="45.2743945" lon="10.729667"><ele>42.0</ele><time>2026-05-02T14:06:37.057Z</time></trkpt><trkpt lat="45.2743196" lon="10.7296295"><ele>42.0</ele><time>2026-05-02T14:06:39.058Z</time></trkpt><trkpt lat="45.2742443" lon="10.7295931"><ele>42.0</ele><time>2026-05-02T14:06:41.058Z</time></trkpt><trkpt lat="45.2741733" lon="10.7295595"><ele>42.0</ele><time>2026-05-02T14:06:43.057Z</time></trkpt><trkpt lat="45.2740993" lon="10.7295268"><ele>42.0</ele><time>2026-05-02T14:06:45.058Z</time></trkpt><trkpt lat="45.274027" lon="10.729495"><ele>42.0</ele><time>2026-05-02T14:06:47.057Z</time></trkpt><trkpt lat="45.2739541" lon="10.7294627"><ele>42.0</ele><time>2026-05-02T14:06:49.058Z</time></trkpt><trkpt lat="45.273881" lon="10.7294196"><ele>42.0</ele><time>2026-05-02T14:06:51.057Z</time></trkpt><trkpt lat="45.2738044" lon="10.7293786"><ele>42.0</ele><time>2026-05-02T14:06:53.058Z</time></trkpt><trkpt lat="45.2737248" lon="10.7293442"><ele>42.0</ele><time>2026-05-02T14:06:55.058Z</time></trkpt><trkpt lat="45.273651" lon="10.7293059"><ele>42.0</ele><time>2026-05-02T14:06:57.057Z</time></trkpt><trkpt lat="45.2735713" lon="10.7292753"><ele>42.0</ele><time>2026-05-02T14:06:59.058Z</time></trkpt><trkpt lat="45.273494" lon="10.7292441"><ele>42.0</ele><time>2026-05-02T14:07:01.057Z</time></trkpt><trkpt lat="45.2734171" lon="10.7292051"><ele>42.0</ele><time>2026-05-02T14:07:03.058Z</time></trkpt><trkpt lat="45.2733392" lon="10.7291655"><ele>42.0</ele><time>2026-05-02T14:07:05.056Z</time></trkpt><trkpt lat="45.2732629" lon="10.7291289"><ele>42.0</ele><time>2026-05-02T14:07:07.057Z</time></trkpt><trkpt lat="45.2731915" lon="10.7290833"><ele>42.0</ele><time>2026-05-02T14:07:09.057Z</time></trkpt><trkpt lat="45.2731202" lon="10.7290438"><ele>42.0</ele><time>2026-05-02T14:07:11.058Z</time></trkpt><trkpt lat="45.2730482" lon="10.729007"><ele>42.0</ele><time>2026-05-02T14:07:13.057Z</time></trkpt><trkpt lat="45.2729785" lon="10.7289732"><ele>42.0</ele><time>2026-05-02T14:07:15.057Z</time></trkpt><trkpt lat="45.2729124" lon="10.7289395"><ele>42.0</ele><time>2026-05-02T14:07:17.058Z</time></trkpt><trkpt lat="45.2728437" lon="10.7289162"><ele>42.0</ele><time>2026-05-02T14:07:19.058Z</time></trkpt><trkpt lat="45.2727736" lon="10.7288853"><ele>42.0</ele><time>2026-05-02T14:07:21.057Z</time></trkpt><trkpt lat="45.2727035" lon="10.7288503"><ele>42.0</ele><time>2026-05-02T14:07:23.057Z</time></trkpt><trkpt lat="45.2726317" lon="10.7288141"><ele>42.0</ele><time>2026-05-02T14:07:25.058Z</time></trkpt><trkpt lat="45.2725594" lon="10.7287781"><ele>42.0</ele><time>2026-05-02T14:07:27.056Z</time></trkpt><trkpt lat="45.2724843" lon="10.7287456"><ele>42.0</ele><time>2026-05-02T14:07:29.055Z</time></trkpt><trkpt lat="45.2724089" lon="10.7287141"><ele>42.0</ele><time>2026-05-02T14:07:31.058Z</time></trkpt><trkpt lat="45.2723348" lon="10.7286864"><ele>42.0</ele><time>2026-05-02T14:07:33.058Z</time></trkpt><trkpt lat="45.2722662" lon="10.7286474"><ele>42.0</ele><time>2026-05-02T14:07:35.057Z</time></trkpt><trkpt lat="45.2722004" lon="10.7286144"><ele>42.0</ele><time>2026-05-02T14:07:37.058Z</time></trkpt><trkpt lat="45.272138" lon="10.728586"><ele>42.0</ele><time>2026-05-02T14:07:39.056Z</time></trkpt><trkpt lat="45.2720741" lon="10.7285617"><ele>42.0</ele><time>2026-05-02T14:07:41.057Z</time></trkpt><trkpt lat="45.2720006" lon="10.7285274"><ele>42.5</ele><time>2026-05-02T14:07:43.058Z</time></trkpt><trkpt lat="45.2719311" lon="10.7284994"><ele>43.0</ele><time>2026-05-02T14:07:45.058Z</time></trkpt><trkpt lat="45.271863" lon="10.7284683"><ele>43.5</ele><time>2026-05-02T14:07:47.057Z</time></trkpt><trkpt lat="45.2717843" lon="10.728437"><ele>44.0</ele><time>2026-05-02T14:07:49.056Z</time></trkpt><trkpt lat="45.2717103" lon="10.7284161"><ele>44.5</ele><time>2026-05-02T14:07:51.056Z</time></trkpt><trkpt lat="45.2716402" lon="10.7283846"><ele>45.0</ele><time>2026-05-02T14:07:53.057Z</time></trkpt><trkpt lat="45.2715589" lon="10.7283568"><ele>45.0</ele><time>2026-05-02T14:07:55.058Z</time></trkpt><trkpt lat="45.2714795" lon="10.7283344"><ele>45.0</ele><time>2026-05-02T14:07:57.056Z</time></trkpt><trkpt lat="45.2714068" lon="10.72832"><ele>45.0</ele><time>2026-05-02T14:07:59.057Z</time></trkpt><trkpt lat="45.2713362" lon="10.7282996"><ele>45.0</ele><time>2026-05-02T14:08:01.058Z</time></trkpt><trkpt lat="45.2712716" lon="10.7282816"><ele>45.0</ele><time>2026-05-02T14:08:03.056Z</time></trkpt><trkpt lat="45.2712085" lon="10.7282663"><ele>45.0</ele><time>2026-05-02T14:08:05.056Z</time></trkpt><trkpt lat="45.2711409" lon="10.7282503"><ele>45.0</ele><time>2026-05-02T14:08:07.058Z</time></trkpt><trkpt lat="45.2710686" lon="10.728235"><ele>45.14285714285714</ele><time>2026-05-02T14:08:09.056Z</time></trkpt><trkpt lat="45.2709958" lon="10.728218"><ele>45.28571428571429</ele><time>2026-05-02T14:08:11.057Z</time></trkpt><trkpt lat="45.2709191" lon="10.7281994"><ele>45.42857142857143</ele><time>2026-05-02T14:08:13.058Z</time></trkpt><trkpt lat="45.2708459" lon="10.7281887"><ele>45.57142857142857</ele><time>2026-05-02T14:08:15.057Z</time></trkpt><trkpt lat="45.2707758" lon="10.7281722"><ele>45.71428571428571</ele><time>2026-05-02T14:08:17.058Z</time></trkpt><trkpt lat="45.2706973" lon="10.7281585"><ele>45.85714285714286</ele><time>2026-05-02T14:08:19.058Z</time></trkpt><trkpt lat="45.2706237" lon="10.7281486"><ele>46.0</ele><time>2026-05-02T14:08:21.057Z</time></trkpt><trkpt lat="45.2705475" lon="10.7281418"><ele>45.66666666666667</ele><time>2026-05-02T14:08:23.057Z</time></trkpt><trkpt lat="45.2704692" lon="10.7281366"><ele>45.333333333333336</ele><time>2026-05-02T14:08:25.057Z</time></trkpt><trkpt lat="45.2703873" lon="10.7281263"><ele>45.0</ele><time>2026-05-02T14:08:27.057Z</time></trkpt><trkpt lat="45.2703042" lon="10.7281165"><ele>44.666666666666664</ele><time>2026-05-02T14:08:29.058Z</time></trkpt><trkpt lat="45.2702254" lon="10.7281007"><ele>44.33333333333333</ele><time>2026-05-02T14:08:31.057Z</time></trkpt><trkpt lat="45.2701522" lon="10.7280961"><ele>44.0</ele><time>2026-05-02T14:08:33.056Z</time></trkpt><trkpt lat="45.2700787" lon="10.7280928"><ele>44.0</ele><time>2026-05-02T14:08:35.056Z</time></trkpt><trkpt lat="45.2700059" lon="10.7280933"><ele>44.0</ele><time>2026-05-02T14:08:37.057Z</time></trkpt><trkpt lat="45.2699261" lon="10.7280952"><ele>44.0</ele><time>2026-05-02T14:08:39.058Z</time></trkpt><trkpt lat="45.2698441" lon="10.7280987"><ele>44.0</ele><time>2026-05-02T14:08:41.057Z</time></trkpt><trkpt lat="45.2697584" lon="10.7281074"><ele>44.0</ele><time>2026-05-02T14:08:43.057Z</time></trkpt><trkpt lat="45.2696718" lon="10.7281109"><ele>44.0</ele><time>2026-05-02T14:08:45.058Z</time></trkpt><trkpt lat="45.2695868" lon="10.7281155"><ele>43.5</ele><time>2026-05-02T14:08:47.057Z</time></trkpt><trkpt lat="45.2695043" lon="10.7281226"><ele>43.0</ele><time>2026-05-02T14:08:49.056Z</time></trkpt><trkpt lat="45.2694202" lon="10.7281288"><ele>42.5</ele><time>2026-05-02T14:08:51.057Z</time></trkpt><trkpt lat="45.2693408" lon="10.7281408"><ele>42.0</ele><time>2026-05-02T14:08:53.058Z</time></trkpt><trkpt lat="45.269259" lon="10.7281486"><ele>41.5</ele><time>2026-05-02T14:08:55.056Z</time></trkpt><trkpt lat="45.2691803" lon="10.7281614"><ele>41.0</ele><time>2026-05-02T14:08:57.057Z</time></trkpt><trkpt lat="45.2691006" lon="10.7281767"><ele>41.0</ele><time>2026-05-02T14:08:59.056Z</time></trkpt><trkpt lat="45.2690198" lon="10.7281916"><ele>41.0</ele><time>2026-05-02T14:09:01.057Z</time></trkpt><trkpt lat="45.2689372" lon="10.7282091"><ele>41.0</ele><time>2026-05-02T14:09:03.056Z</time></trkpt><trkpt lat="45.2688543" lon="10.7282315"><ele>41.0</ele><time>2026-05-02T14:09:05.058Z</time></trkpt><trkpt lat="45.2687715" lon="10.7282496"><ele>41.0</ele><time>2026-05-02T14:09:07.056Z</time></trkpt><trkpt lat="45.2686868" lon="10.7282654"><ele>41.0</ele><time>2026-05-02T14:09:09.058Z</time></trkpt><trkpt lat="45.2686006" lon="10.7282817"><ele>40.83333333333333</ele><time>2026-05-02T14:09:11.057Z</time></trkpt><trkpt lat="45.2685156" lon="10.7282991"><ele>40.666666666666664</ele><time>2026-05-02T14:09:13.057Z</time></trkpt><trkpt lat="45.2684316" lon="10.7283169"><ele>40.5</ele><time>2026-05-02T14:09:15.057Z</time></trkpt><trkpt lat="45.2683487" lon="10.728339"><ele>40.333333333333336</ele><time>2026-05-02T14:09:17.058Z</time></trkpt><trkpt lat="45.2682647" lon="10.7283579"><ele>40.16666666666667</ele><time>2026-05-02T14:09:19.058Z</time></trkpt><trkpt lat="45.2681812" lon="10.7283757"><ele>40.0</ele><time>2026-05-02T14:09:21.057Z</time></trkpt><trkpt lat="45.2680987" lon="10.728401"><ele>40.66666666666667</ele><time>2026-05-02T14:09:23.057Z</time></trkpt><trkpt lat="45.2680183" lon="10.7284211"><ele>41.333333333333336</ele><time>2026-05-02T14:09:25.057Z</time></trkpt><trkpt lat="45.2679397" lon="10.728449"><ele>42.0</ele><time>2026-05-02T14:09:27.057Z</time></trkpt><trkpt lat="45.2678633" lon="10.7284772"><ele>42.666666666666664</ele><time>2026-05-02T14:09:29.058Z</time></trkpt><trkpt lat="45.26779" lon="10.728505"><ele>43.33333333333333</ele><time>2026-05-02T14:09:31.056Z</time></trkpt><trkpt lat="45.2677205" lon="10.7285277"><ele>44.0</ele><time>2026-05-02T14:09:33.056Z</time></trkpt><trkpt lat="45.2676495" lon="10.7285525"><ele>43.33333333333333</ele><time>2026-05-02T14:09:35.057Z</time></trkpt><trkpt lat="45.2675781" lon="10.7285601"><ele>42.666666666666664</ele><time>2026-05-02T14:09:37.057Z</time></trkpt><trkpt lat="45.2675089" lon="10.7285635"><ele>42.0</ele><time>2026-05-02T14:09:39.056Z</time></trkpt><trkpt lat="45.2674344" lon="10.7285706"><ele>41.333333333333336</ele><time>2026-05-02T14:09:41.056Z</time></trkpt><trkpt lat="45.2673498" lon="10.7285887"><ele>40.66666666666667</ele><time>2026-05-02T14:09:43.057Z</time></trkpt><trkpt lat="45.2672539" lon="10.7286018"><ele>40.0</ele><time>2026-05-02T14:09:45.057Z</time></trkpt><trkpt lat="45.2671532" lon="10.7286197"><ele>39.8</ele><time>2026-05-02T14:09:47.058Z</time></trkpt><trkpt lat="45.2670504" lon="10.7286242"><ele>39.6</ele><time>2026-05-02T14:09:49.057Z</time></trkpt><trkpt lat="45.2669509" lon="10.728644"><ele>39.4</ele><time>2026-05-02T14:09:51.056Z</time></trkpt><trkpt lat="45.2668566" lon="10.7286656"><ele>39.2</ele><time>2026-05-02T14:09:53.056Z</time></trkpt><trkpt lat="45.2667698" lon="10.7286951"><ele>39.0</ele><time>2026-05-02T14:09:55.056Z</time></trkpt><trkpt lat="45.2666918" lon="10.728695"><ele>39.0</ele><time>2026-05-02T14:09:57.056Z</time></trkpt><trkpt lat="45.2666057" lon="10.7287199"><ele>39.0</ele><time>2026-05-02T14:09:59.056Z</time></trkpt><trkpt lat="45.2665195" lon="10.728734"><ele>39.0</ele><time>2026-05-02T14:10:01.056Z</time></trkpt><trkpt lat="45.2664339" lon="10.7287537"><ele>39.0</ele><time>2026-05-02T14:10:03.057Z</time></trkpt><trkpt lat="45.2663485" lon="10.7287736"><ele>39.0</ele><time>2026-05-02T14:10:05.055Z</time></trkpt><trkpt lat="45.2662642" lon="10.7287961"><ele>39.0</ele><time>2026-05-02T14:10:07.055Z</time></trkpt><trkpt lat="45.2661783" lon="10.728817"><ele>39.333333333333336</ele><time>2026-05-02T14:10:09.057Z</time></trkpt><trkpt lat="45.2660942" lon="10.7288351"><ele>39.666666666666664</ele><time>2026-05-02T14:10:11.057Z</time></trkpt><trkpt lat="45.2660115" lon="10.7288528"><ele>40.0</ele><time>2026-05-02T14:10:13.057Z</time></trkpt><trkpt lat="45.2659292" lon="10.7288769"><ele>40.33333333333333</ele><time>2026-05-02T14:10:15.056Z</time></trkpt><trkpt lat="45.2658443" lon="10.7288964"><ele>40.666666666666664</ele><time>2026-05-02T14:10:17.055Z</time></trkpt><trkpt lat="45.2657609" lon="10.7289151"><ele>41.0</ele><time>2026-05-02T14:10:19.057Z</time></trkpt><trkpt lat="45.2656777" lon="10.728935"><ele>41.5</ele><time>2026-05-02T14:10:21.056Z</time></trkpt><trkpt lat="45.2655935" lon="10.7289584"><ele>42.0</ele><time>2026-05-02T14:10:23.057Z</time></trkpt><trkpt lat="45.2655118" lon="10.7289795"><ele>42.5</ele><time>2026-05-02T14:10:25.057Z</time></trkpt><trkpt lat="45.2654307" lon="10.7290025"><ele>43.0</ele><time>2026-05-02T14:10:27.056Z</time></trkpt><trkpt lat="45.2653477" lon="10.7290185"><ele>43.5</ele><time>2026-05-02T14:10:29.057Z</time></trkpt><trkpt lat="45.2652667" lon="10.7290342"><ele>44.0</ele><time>2026-05-02T14:10:31.056Z</time></trkpt><trkpt lat="45.2651878" lon="10.7290559"><ele>44.0</ele><time>2026-05-02T14:10:33.056Z</time></trkpt><trkpt lat="45.2651111" lon="10.7290728"><ele>44.0</ele><time>2026-05-02T14:10:35.056Z</time></trkpt><trkpt lat="45.2650319" lon="10.7290853"><ele>44.0</ele><time>2026-05-02T14:10:37.057Z</time></trkpt><trkpt lat="45.2649525" lon="10.7291055"><ele>44.0</ele><time>2026-05-02T14:10:39.056Z</time></trkpt><trkpt lat="45.2648703" lon="10.7291248"><ele>44.0</ele><time>2026-05-02T14:10:41.057Z</time></trkpt><trkpt lat="45.264789" lon="10.7291447"><ele>44.0</ele><time>2026-05-02T14:10:43.057Z</time></trkpt><trkpt lat="45.2647089" lon="10.7291644"><ele>44.0</ele><time>2026-05-02T14:10:45.057Z</time></trkpt><trkpt lat="45.2646285" lon="10.7291819"><ele>44.0</ele><time>2026-05-02T14:10:47.056Z</time></trkpt><trkpt lat="45.264548" lon="10.7292037"><ele>44.0</ele><time>2026-05-02T14:10:49.057Z</time></trkpt><trkpt lat="45.2644677" lon="10.7292179"><ele>44.0</ele><time>2026-05-02T14:10:51.057Z</time></trkpt><trkpt lat="45.2643882" lon="10.7292358"><ele>44.0</ele><time>2026-05-02T14:10:53.056Z</time></trkpt><trkpt lat="45.2643074" lon="10.7292533"><ele>44.0</ele><time>2026-05-02T14:10:55.055Z</time></trkpt><trkpt lat="45.2642254" lon="10.7292693"><ele>44.0</ele><time>2026-05-02T14:10:57.057Z</time></trkpt><trkpt lat="45.2641428" lon="10.7292864"><ele>44.0</ele><time>2026-05-02T14:10:59.056Z</time></trkpt><trkpt lat="45.2640602" lon="10.7293043"><ele>44.0</ele><time>2026-05-02T14:11:01.057Z</time></trkpt><trkpt lat="45.2639779" lon="10.7293221"><ele>44.0</ele><time>2026-05-02T14:11:03.057Z</time></trkpt><trkpt lat="45.2638959" lon="10.7293444"><ele>44.0</ele><time>2026-05-02T14:11:05.057Z</time></trkpt><trkpt lat="45.2638133" lon="10.7293612"><ele>44.0</ele><time>2026-05-02T14:11:07.056Z</time></trkpt><trkpt lat="45.2637287" lon="10.7293782"><ele>43.5</ele><time>2026-05-02T14:11:09.056Z</time></trkpt><trkpt lat="45.2636468" lon="10.7294001"><ele>43.0</ele><time>2026-05-02T14:11:11.056Z</time></trkpt><trkpt lat="45.2635624" lon="10.7294218"><ele>42.5</ele><time>2026-05-02T14:11:13.054Z</time></trkpt><trkpt lat="45.2634786" lon="10.7294423"><ele>42.0</ele><time>2026-05-02T14:11:15.056Z</time></trkpt><trkpt lat="45.2633927" lon="10.7294636"><ele>41.5</ele><time>2026-05-02T14:11:17.056Z</time></trkpt><trkpt lat="45.2633066" lon="10.7294821"><ele>41.0</ele><time>2026-05-02T14:11:19.057Z</time></trkpt><trkpt lat="45.2632206" lon="10.7295001"><ele>41.0</ele><time>2026-05-02T14:11:21.057Z</time></trkpt><trkpt lat="45.263137" lon="10.7295222"><ele>41.0</ele><time>2026-05-02T14:11:23.056Z</time></trkpt><trkpt lat="45.2630552" lon="10.729541"><ele>41.0</ele><time>2026-05-02T14:11:25.055Z</time></trkpt><trkpt lat="45.2629733" lon="10.7295576"><ele>41.0</ele><time>2026-05-02T14:11:27.057Z</time></trkpt><trkpt lat="45.262894" lon="10.7295738"><ele>41.0</ele><time>2026-05-02T14:11:29.056Z</time></trkpt><trkpt lat="45.2628132" lon="10.7295873"><ele>41.0</ele><time>2026-05-02T14:11:31.055Z</time></trkpt><trkpt lat="45.2627296" lon="10.7296034"><ele>40.83333333333333</ele><time>2026-05-02T14:11:33.056Z</time></trkpt><trkpt lat="45.2626433" lon="10.7296244"><ele>40.666666666666664</ele><time>2026-05-02T14:11:35.057Z</time></trkpt><trkpt lat="45.2625576" lon="10.7296432"><ele>40.5</ele><time>2026-05-02T14:11:37.055Z</time></trkpt><trkpt lat="45.26247" lon="10.7296649"><ele>40.333333333333336</ele><time>2026-05-02T14:11:39.057Z</time></trkpt><trkpt lat="45.2623857" lon="10.729683"><ele>40.16666666666667</ele><time>2026-05-02T14:11:41.056Z</time></trkpt><trkpt lat="45.2623015" lon="10.729703"><ele>40.0</ele><time>2026-05-02T14:11:43.056Z</time></trkpt><trkpt lat="45.2622179" lon="10.7297182"><ele>39.833333333333336</ele><time>2026-05-02T14:11:45.056Z</time></trkpt><trkpt lat="45.2621344" lon="10.7297371"><ele>39.66666666666667</ele><time>2026-05-02T14:11:47.057Z</time></trkpt><trkpt lat="45.2620516" lon="10.729758"><ele>39.5</ele><time>2026-05-02T14:11:49.056Z</time></trkpt><trkpt lat="45.261969" lon="10.7297798"><ele>39.333333333333336</ele><time>2026-05-02T14:11:51.056Z</time></trkpt><trkpt lat="45.2618868" lon="10.7298027"><ele>39.166666666666664</ele><time>2026-05-02T14:11:53.055Z</time></trkpt><trkpt lat="45.2618029" lon="10.729826"><ele>39.0</ele><time>2026-05-02T14:11:55.057Z</time></trkpt><trkpt lat="45.261717" lon="10.7298476"><ele>39.0</ele><time>2026-05-02T14:11:57.057Z</time></trkpt><trkpt lat="45.2616316" lon="10.7298716"><ele>39.0</ele><time>2026-05-02T14:11:59.056Z</time></trkpt><trkpt lat="45.261545" lon="10.7298886"><ele>39.0</ele><time>2026-05-02T14:12:01.056Z</time></trkpt><trkpt lat="45.2614612" lon="10.7299084"><ele>39.0</ele><time>2026-05-02T14:12:03.056Z</time></trkpt><trkpt lat="45.2613753" lon="10.729934"><ele>39.0</ele><time>2026-05-02T14:12:05.055Z</time></trkpt><trkpt lat="45.2612915" lon="10.7299432"><ele>39.0</ele><time>2026-05-02T14:12:07.056Z</time></trkpt><trkpt lat="45.2612066" lon="10.7299609"><ele>39.166666666666664</ele><time>2026-05-02T14:12:09.056Z</time></trkpt><trkpt lat="45.2611258" lon="10.7299774"><ele>39.333333333333336</ele><time>2026-05-02T14:12:11.056Z</time></trkpt><trkpt lat="45.2610447" lon="10.7299897"><ele>39.5</ele><time>2026-05-02T14:12:13.055Z</time></trkpt><trkpt lat="45.2609628" lon="10.730011"><ele>39.66666666666667</ele><time>2026-05-02T14:12:15.056Z</time></trkpt><trkpt lat="45.2608805" lon="10.7300292"><ele>39.833333333333336</ele><time>2026-05-02T14:12:17.055Z</time></trkpt><trkpt lat="45.2607995" lon="10.7300504"><ele>40.0</ele><time>2026-05-02T14:12:19.057Z</time></trkpt><trkpt lat="45.2607125" lon="10.7300711"><ele>40.0</ele><time>2026-05-02T14:12:21.056Z</time></trkpt><trkpt lat="45.2606279" lon="10.7300966"><ele>40.0</ele><time>2026-05-02T14:12:23.057Z</time></trkpt><trkpt lat="45.2605418" lon="10.7301097"><ele>40.0</ele><time>2026-05-02T14:12:25.057Z</time></trkpt><trkpt lat="45.2604582" lon="10.7301239"><ele>40.0</ele><time>2026-05-02T14:12:27.056Z</time></trkpt><trkpt lat="45.2603766" lon="10.7301431"><ele>40.0</ele><time>2026-05-02T14:12:29.055Z</time></trkpt><trkpt lat="45.2602915" lon="10.7301619"><ele>40.0</ele><time>2026-05-02T14:12:31.055Z</time></trkpt><trkpt lat="45.2602063" lon="10.7301853"><ele>40.0</ele><time>2026-05-02T14:12:33.055Z</time></trkpt><trkpt lat="45.2601184" lon="10.7302018"><ele>40.0</ele><time>2026-05-02T14:12:35.057Z</time></trkpt><trkpt lat="45.2600347" lon="10.7302194"><ele>40.0</ele><time>2026-05-02T14:12:37.056Z</time></trkpt><trkpt lat="45.2599488" lon="10.7302388"><ele>40.0</ele><time>2026-05-02T14:12:39.055Z</time></trkpt><trkpt lat="45.2598617" lon="10.7302501"><ele>40.0</ele><time>2026-05-02T14:12:41.054Z</time></trkpt><trkpt lat="45.2597798" lon="10.73027"><ele>40.0</ele><time>2026-05-02T14:12:43.055Z</time></trkpt><trkpt lat="45.259698" lon="10.7302926"><ele>40.333333333333336</ele><time>2026-05-02T14:12:45.057Z</time></trkpt><trkpt lat="45.2596179" lon="10.7303154"><ele>40.66666666666667</ele><time>2026-05-02T14:12:47.056Z</time></trkpt><trkpt lat="45.2595347" lon="10.7303322"><ele>41.0</ele><time>2026-05-02T14:12:49.055Z</time></trkpt><trkpt lat="45.2594622" lon="10.7303514"><ele>41.333333333333336</ele><time>2026-05-02T14:12:51.056Z</time></trkpt><trkpt lat="45.2593879" lon="10.7303745"><ele>41.666666666666664</ele><time>2026-05-02T14:12:53.057Z</time></trkpt><trkpt lat="45.2593137" lon="10.730415"><ele>42.0</ele><time>2026-05-02T14:12:55.056Z</time></trkpt><trkpt lat="45.2592425" lon="10.730463"><ele>42.0</ele><time>2026-05-02T14:12:57.056Z</time></trkpt><trkpt lat="45.2591753" lon="10.7305263"><ele>42.0</ele><time>2026-05-02T14:12:59.056Z</time></trkpt><trkpt lat="45.2591123" lon="10.7306025"><ele>42.0</ele><time>2026-05-02T14:13:01.056Z</time></trkpt><trkpt lat="45.2590539" lon="10.7306808"><ele>42.0</ele><time>2026-05-02T14:13:03.057Z</time></trkpt><trkpt lat="45.2590024" lon="10.7307663"><ele>42.0</ele><time>2026-05-02T14:13:05.057Z</time></trkpt><trkpt lat="45.2589582" lon="10.7308576"><ele>42.0</ele><time>2026-05-02T14:13:07.056Z</time></trkpt><trkpt lat="45.2589171" lon="10.7309577"><ele>41.833333333333336</ele><time>2026-05-02T14:13:09.056Z</time></trkpt><trkpt lat="45.2588763" lon="10.73106"><ele>41.666666666666664</ele><time>2026-05-02T14:13:11.056Z</time></trkpt><trkpt lat="45.2588317" lon="10.7311562"><ele>41.5</ele><time>2026-05-02T14:13:13.055Z</time></trkpt><trkpt lat="45.2587918" lon="10.7312486"><ele>41.33333333333333</ele><time>2026-05-02T14:13:15.055Z</time></trkpt><trkpt lat="45.2587581" lon="10.7313401"><ele>41.166666666666664</ele><time>2026-05-02T14:13:17.055Z</time></trkpt><trkpt lat="45.2587256" lon="10.731436"><ele>41.0</ele><time>2026-05-02T14:13:19.056Z</time></trkpt><trkpt lat="45.2586894" lon="10.7315288"><ele>41.0</ele><time>2026-05-02T14:13:21.056Z</time></trkpt><trkpt lat="45.2586426" lon="10.7316063"><ele>41.0</ele><time>2026-05-02T14:13:23.057Z</time></trkpt><trkpt lat="45.2585979" lon="10.7316838"><ele>41.0</ele><time>2026-05-02T14:13:25.055Z</time></trkpt><trkpt lat="45.2585393" lon="10.7317538"><ele>41.0</ele><time>2026-05-02T14:13:28.056Z</time></trkpt><trkpt lat="45.2585387" lon="10.7318625"><ele>41.0</ele><time>2026-05-02T14:17:50.054Z</time></trkpt><trkpt lat="45.2584845" lon="10.731972"><ele>41.0</ele><time>2026-05-02T14:17:53.054Z</time></trkpt><trkpt lat="45.2584422" lon="10.7320644"><ele>41.0</ele><time>2026-05-02T14:17:55.054Z</time></trkpt><trkpt lat="45.2583965" lon="10.7321575"><ele>41.0</ele><time>2026-05-02T14:17:57.055Z</time></trkpt><trkpt lat="45.2583497" lon="10.7322523"><ele>41.0</ele><time>2026-05-02T14:17:59.054Z</time></trkpt><trkpt lat="45.2582992" lon="10.7323431"><ele>41.0</ele><time>2026-05-02T14:18:01.054Z</time></trkpt><trkpt lat="45.2582443" lon="10.7324361"><ele>41.0</ele><time>2026-05-02T14:18:03.055Z</time></trkpt><trkpt lat="45.2581886" lon="10.7325343"><ele>41.0</ele><time>2026-05-02T14:18:05.054Z</time></trkpt><trkpt lat="45.2581257" lon="10.7326208"><ele>40.83333333333333</ele><time>2026-05-02T14:18:07.054Z</time></trkpt><trkpt lat="45.2580628" lon="10.7326995"><ele>40.666666666666664</ele><time>2026-05-02T14:18:09.054Z</time></trkpt><trkpt lat="45.2579949" lon="10.7327699"><ele>40.5</ele><time>2026-05-02T14:18:11.055Z</time></trkpt><trkpt lat="45.2579238" lon="10.7328365"><ele>40.333333333333336</ele><time>2026-05-02T14:18:13.055Z</time></trkpt><trkpt lat="45.2578521" lon="10.7328949"><ele>40.16666666666667</ele><time>2026-05-02T14:18:15.054Z</time></trkpt><trkpt lat="45.2577807" lon="10.7329486"><ele>40.0</ele><time>2026-05-02T14:18:17.054Z</time></trkpt><trkpt lat="45.2577051" lon="10.7330016"><ele>40.0</ele><time>2026-05-02T14:18:19.054Z</time></trkpt><trkpt lat="45.2576328" lon="10.7330467"><ele>40.0</ele><time>2026-05-02T14:18:21.054Z</time></trkpt><trkpt lat="45.2575583" lon="10.7330815"><ele>40.0</ele><time>2026-05-02T14:18:23.054Z</time></trkpt><trkpt lat="45.2574869" lon="10.7330977"><ele>40.0</ele><time>2026-05-02T14:18:25.055Z</time></trkpt><trkpt lat="45.257421" lon="10.7331208"><ele>40.0</ele><time>2026-05-02T14:18:27.055Z</time></trkpt><trkpt lat="45.2573585" lon="10.7331336"><ele>40.0</ele><time>2026-05-02T14:18:29.055Z</time></trkpt><trkpt lat="45.2572935" lon="10.733159"><ele>40.0</ele><time>2026-05-02T14:18:31.054Z</time></trkpt><trkpt lat="45.2572252" lon="10.7331805"><ele>40.0</ele><time>2026-05-02T14:18:33.053Z</time></trkpt><trkpt lat="45.2571564" lon="10.733196"><ele>40.0</ele><time>2026-05-02T14:18:35.054Z</time></trkpt><trkpt lat="45.2570905" lon="10.7332067"><ele>40.0</ele><time>2026-05-02T14:18:37.054Z</time></trkpt><trkpt lat="45.257024" lon="10.7332222"><ele>40.0</ele><time>2026-05-02T14:18:39.054Z</time></trkpt><trkpt lat="45.2569544" lon="10.7332306"><ele>40.0</ele><time>2026-05-02T14:18:41.053Z</time></trkpt><trkpt lat="45.2568793" lon="10.7332364"><ele>40.0</ele><time>2026-05-02T14:18:43.055Z</time></trkpt><trkpt lat="45.2568053" lon="10.7332382"><ele>40.0</ele><time>2026-05-02T14:18:45.053Z</time></trkpt><trkpt lat="45.2567255" lon="10.7332324"><ele>40.0</ele><time>2026-05-02T14:18:47.055Z</time></trkpt><trkpt lat="45.2566461" lon="10.7332184"><ele>40.0</ele><time>2026-05-02T14:18:49.054Z</time></trkpt><trkpt lat="45.2565655" lon="10.7332023"><ele>40.0</ele><time>2026-05-02T14:18:51.055Z</time></trkpt><trkpt lat="45.2564836" lon="10.7331839"><ele>40.0</ele><time>2026-05-02T14:18:53.055Z</time></trkpt><trkpt lat="45.2564027" lon="10.7331628"><ele>40.0</ele><time>2026-05-02T14:18:55.055Z</time></trkpt><trkpt lat="45.2563262" lon="10.7331328"><ele>40.0</ele><time>2026-05-02T14:18:57.055Z</time></trkpt><trkpt lat="45.2562474" lon="10.7331075"><ele>39.833333333333336</ele><time>2026-05-02T14:18:59.055Z</time></trkpt><trkpt lat="45.2561651" lon="10.7330752"><ele>39.66666666666667</ele><time>2026-05-02T14:19:01.054Z</time></trkpt><trkpt lat="45.2560891" lon="10.7330388"><ele>39.5</ele><time>2026-05-02T14:19:03.053Z</time></trkpt><trkpt lat="45.2560153" lon="10.7330038"><ele>39.333333333333336</ele><time>2026-05-02T14:19:05.054Z</time></trkpt><trkpt lat="45.2559438" lon="10.7329652"><ele>39.166666666666664</ele><time>2026-05-02T14:19:07.054Z</time></trkpt><trkpt lat="45.2558754" lon="10.7329292"><ele>39.0</ele><time>2026-05-02T14:19:09.053Z</time></trkpt><trkpt lat="45.2558018" lon="10.7328979"><ele>39.0</ele><time>2026-05-02T14:19:11.055Z</time></trkpt><trkpt lat="45.2557386" lon="10.7328659"><ele>39.0</ele><time>2026-05-02T14:19:13.055Z</time></trkpt><trkpt lat="45.255677" lon="10.732829"><ele>39.0</ele><time>2026-05-02T14:19:15.054Z</time></trkpt><trkpt lat="45.2556094" lon="10.7327986"><ele>39.0</ele><time>2026-05-02T14:19:17.054Z</time></trkpt><trkpt lat="45.2555254" lon="10.7327967"><ele>39.0</ele><time>2026-05-02T14:19:19.055Z</time></trkpt><trkpt lat="45.255436" lon="10.7327945"><ele>39.0</ele><time>2026-05-02T14:19:21.054Z</time></trkpt><trkpt lat="45.2553581" lon="10.732788"><ele>38.714285714285715</ele><time>2026-05-02T14:19:23.053Z</time></trkpt><trkpt lat="45.2552796" lon="10.7327838"><ele>38.42857142857142</ele><time>2026-05-02T14:19:25.053Z</time></trkpt><trkpt lat="45.2552045" lon="10.7327836"><ele>38.14285714285714</ele><time>2026-05-02T14:19:27.054Z</time></trkpt><trkpt lat="45.2551313" lon="10.7327833"><ele>37.85714285714286</ele><time>2026-05-02T14:19:29.054Z</time></trkpt><trkpt lat="45.2550624" lon="10.7327902"><ele>37.57142857142857</ele><time>2026-05-02T14:19:31.054Z</time></trkpt><trkpt lat="45.2549947" lon="10.7328084"><ele>37.285714285714285</ele><time>2026-05-02T14:19:32.963Z</time></trkpt><trkpt lat="45.2549249" lon="10.7328119"><ele>37.0</ele><time>2026-05-02T14:19:35.054Z</time></trkpt><trkpt lat="45.2548363" lon="10.7328219"><ele>36.66666666666667</ele><time>2026-05-02T14:19:38.054Z</time></trkpt><trkpt lat="45.2547512" lon="10.7328413"><ele>36.333333333333336</ele><time>2026-05-02T14:19:41.053Z</time></trkpt><trkpt lat="45.2547715" lon="10.7327464"><ele>36.0</ele><time>2026-05-02T14:19:45.053Z</time></trkpt><trkpt lat="45.2547775" lon="10.7326136"><ele>35.666666666666664</ele><time>2026-05-02T14:19:48.054Z</time></trkpt><trkpt lat="45.254767" lon="10.7325046"><ele>35.33333333333333</ele><time>2026-05-02T14:19:50.054Z</time></trkpt><trkpt lat="45.2547139" lon="10.7323933"><ele>35.0</ele><time>2026-05-02T14:19:52.054Z</time></trkpt><trkpt lat="45.2546201" lon="10.7323328"><ele>35.0</ele><time>2026-05-02T14:19:54.054Z</time></trkpt><trkpt lat="45.2545135" lon="10.7322908"><ele>35.0</ele><time>2026-05-02T14:19:56.054Z</time></trkpt><trkpt lat="45.2544169" lon="10.7322735"><ele>35.0</ele><time>2026-05-02T14:19:58.053Z</time></trkpt><trkpt lat="45.2543249" lon="10.7322377"><ele>35.0</ele><time>2026-05-02T14:20:00.053Z</time></trkpt><trkpt lat="45.2542412" lon="10.7321931"><ele>35.0</ele><time>2026-05-02T14:20:02.053Z</time></trkpt><trkpt lat="45.2541644" lon="10.7321437"><ele>35.0</ele><time>2026-05-02T14:20:04.054Z</time></trkpt><trkpt lat="45.2540949" lon="10.7320955"><ele>35.0</ele><time>2026-05-02T14:20:06.054Z</time></trkpt><trkpt lat="45.2540238" lon="10.7320599"><ele>35.0</ele><time>2026-05-02T14:20:08.053Z</time></trkpt><trkpt lat="45.2539552" lon="10.7320275"><ele>35.0</ele><time>2026-05-02T14:20:10.054Z</time></trkpt><trkpt lat="45.2538914" lon="10.731993"><ele>35.0</ele><time>2026-05-02T14:20:12.053Z</time></trkpt><trkpt lat="45.2538329" lon="10.731957"><ele>35.0</ele><time>2026-05-02T14:20:14.054Z</time></trkpt><trkpt lat="45.2537638" lon="10.7319288"><ele>35.0</ele><time>2026-05-02T14:20:16.053Z</time></trkpt><trkpt lat="45.2536835" lon="10.7318987"><ele>35.0</ele><time>2026-05-02T14:20:18.053Z</time></trkpt><trkpt lat="45.2535825" lon="10.7318939"><ele>35.0</ele><time>2026-05-02T14:20:20.055Z</time></trkpt><trkpt lat="45.2534755" lon="10.7318845"><ele>35.0</ele><time>2026-05-02T14:20:22.054Z</time></trkpt><trkpt lat="45.2533651" lon="10.7318604"><ele>35.0</ele><time>2026-05-02T14:20:24.053Z</time></trkpt><trkpt lat="45.2532522" lon="10.7318205"><ele>35.0</ele><time>2026-05-02T14:20:26.053Z</time></trkpt><trkpt lat="45.253149" lon="10.7317623"><ele>34.6</ele><time>2026-05-02T14:20:28.054Z</time></trkpt><trkpt lat="45.2530502" lon="10.7316971"><ele>34.2</ele><time>2026-05-02T14:20:30.054Z</time></trkpt><trkpt lat="45.252954" lon="10.731629"><ele>33.8</ele><time>2026-05-02T14:20:32.053Z</time></trkpt><trkpt lat="45.2528561" lon="10.7315671"><ele>33.4</ele><time>2026-05-02T14:20:34.053Z</time></trkpt><trkpt lat="45.2527532" lon="10.7315124"><ele>33.0</ele><time>2026-05-02T14:20:36.054Z</time></trkpt><trkpt lat="45.2526532" lon="10.7314595"><ele>33.0</ele><time>2026-05-02T14:20:38.054Z</time></trkpt><trkpt lat="45.2525543" lon="10.7314085"><ele>33.0</ele><time>2026-05-02T14:20:40.054Z</time></trkpt><trkpt lat="45.2524615" lon="10.7313563"><ele>33.0</ele><time>2026-05-02T14:20:42.054Z</time></trkpt><trkpt lat="45.2523711" lon="10.7313044"><ele>33.0</ele><time>2026-05-02T14:20:44.054Z</time></trkpt><trkpt lat="45.2522794" lon="10.7312549"><ele>33.0</ele><time>2026-05-02T14:20:46.054Z</time></trkpt><trkpt lat="45.2521934" lon="10.7312134"><ele>33.0</ele><time>2026-05-02T14:20:48.054Z</time></trkpt><trkpt lat="45.2521126" lon="10.7311728"><ele>33.0</ele><time>2026-05-02T14:20:50.053Z</time></trkpt><trkpt lat="45.252029" lon="10.7311358"><ele>33.0</ele><time>2026-05-02T14:20:52.054Z</time></trkpt><trkpt lat="45.2519451" lon="10.7310921"><ele>33.0</ele><time>2026-05-02T14:20:54.054Z</time></trkpt><trkpt lat="45.2518635" lon="10.7310494"><ele>33.0</ele><time>2026-05-02T14:20:56.053Z</time></trkpt><trkpt lat="45.2517834" lon="10.731006"><ele>33.0</ele><time>2026-05-02T14:20:58.053Z</time></trkpt><trkpt lat="45.251703" lon="10.7309743"><ele>33.0</ele><time>2026-05-02T14:21:00.054Z</time></trkpt><trkpt lat="45.251626" lon="10.7309341"><ele>33.0</ele><time>2026-05-02T14:21:02.053Z</time></trkpt><trkpt lat="45.2515511" lon="10.7308988"><ele>33.0</ele><time>2026-05-02T14:21:04.054Z</time></trkpt><trkpt lat="45.2514738" lon="10.7308711"><ele>33.0</ele><time>2026-05-02T14:21:06.054Z</time></trkpt><trkpt lat="45.251394" lon="10.7308423"><ele>33.0</ele><time>2026-05-02T14:21:08.053Z</time></trkpt><trkpt lat="45.2513156" lon="10.7308196"><ele>33.0</ele><time>2026-05-02T14:21:10.054Z</time></trkpt><trkpt lat="45.2512357" lon="10.7308002"><ele>33.0</ele><time>2026-05-02T14:21:12.054Z</time></trkpt><trkpt lat="45.2511577" lon="10.7307773"><ele>33.0</ele><time>2026-05-02T14:21:14.054Z</time></trkpt><trkpt lat="45.2510783" lon="10.7307596"><ele>33.0</ele><time>2026-05-02T14:21:16.053Z</time></trkpt><trkpt lat="45.2509972" lon="10.7307468"><ele>33.0</ele><time>2026-05-02T14:21:18.053Z</time></trkpt><trkpt lat="45.2509136" lon="10.7307312"><ele>33.0</ele><time>2026-05-02T14:21:20.054Z</time></trkpt><trkpt lat="45.2508284" lon="10.7307214"><ele>33.0</ele><time>2026-05-02T14:21:22.054Z</time></trkpt><trkpt lat="45.2507403" lon="10.7307068"><ele>33.0</ele><time>2026-05-02T14:21:24.054Z</time></trkpt><trkpt lat="45.2506517" lon="10.7306941"><ele>33.0</ele><time>2026-05-02T14:21:26.054Z</time></trkpt><trkpt lat="45.2505664" lon="10.7306824"><ele>33.0</ele><time>2026-05-02T14:21:28.054Z</time></trkpt><trkpt lat="45.2504857" lon="10.7306754"><ele>33.0</ele><time>2026-05-02T14:21:30.053Z</time></trkpt><trkpt lat="45.250408" lon="10.7306669"><ele>33.0</ele><time>2026-05-02T14:21:32.054Z</time></trkpt><trkpt lat="45.250333" lon="10.7306575"><ele>33.0</ele><time>2026-05-02T14:21:34.053Z</time></trkpt><trkpt lat="45.2502594" lon="10.7306505"><ele>33.0</ele><time>2026-05-02T14:21:36.052Z</time></trkpt><trkpt lat="45.2501847" lon="10.7306458"><ele>33.0</ele><time>2026-05-02T14:21:38.054Z</time></trkpt><trkpt lat="45.2501166" lon="10.7306419"><ele>33.0</ele><time>2026-05-02T14:21:40.054Z</time></trkpt><trkpt lat="45.250053" lon="10.7306444"><ele>33.0</ele><time>2026-05-02T14:21:42.054Z</time></trkpt><trkpt lat="45.2499635" lon="10.7306396"><ele>33.0</ele><time>2026-05-02T14:21:45.054Z</time></trkpt><trkpt lat="45.2498758" lon="10.7306363"><ele>33.0</ele><time>2026-05-02T14:21:48.054Z</time></trkpt><trkpt lat="45.2497923" lon="10.7306284"><ele>33.0</ele><time>2026-05-02T14:21:51.054Z</time></trkpt><trkpt lat="45.2497183" lon="10.7306294"><ele>33.0</ele><time>2026-05-02T14:21:54.053Z</time></trkpt><trkpt lat="45.2496387" lon="10.7306154"><ele>33.0</ele><time>2026-05-02T14:21:57.053Z</time></trkpt><trkpt lat="45.2495771" lon="10.730593"><ele>33.0</ele><time>2026-05-02T14:21:59.052Z</time></trkpt><trkpt lat="45.2495081" lon="10.7305708"><ele>33.0</ele><time>2026-05-02T14:22:01.054Z</time></trkpt><trkpt lat="45.2494334" lon="10.7305502"><ele>33.0</ele><time>2026-05-02T14:22:03.054Z</time></trkpt><trkpt lat="45.2493517" lon="10.7305282"><ele>33.0</ele><time>2026-05-02T14:22:05.053Z</time></trkpt><trkpt lat="45.2492619" lon="10.7305057"><ele>33.0</ele><time>2026-05-02T14:22:07.052Z</time></trkpt><trkpt lat="45.249159" lon="10.7304753"><ele>33.0</ele><time>2026-05-02T14:22:09.054Z</time></trkpt><trkpt lat="45.2489384" lon="10.7304309"><ele>33.0</ele><time>2026-05-02T14:22:13.053Z</time></trkpt><trkpt lat="45.2487266" lon="10.7303828"><ele>32.666666666666664</ele><time>2026-05-02T14:22:17.053Z</time></trkpt><trkpt lat="45.2486278" lon="10.7303675"><ele>32.333333333333336</ele><time>2026-05-02T14:22:19.053Z</time></trkpt><trkpt lat="45.2485358" lon="10.7303575"><ele>32.0</ele><time>2026-05-02T14:22:21.054Z</time></trkpt><trkpt lat="45.2484539" lon="10.7303438"><ele>31.666666666666668</ele><time>2026-05-02T14:22:23.052Z</time></trkpt><trkpt lat="45.248373" lon="10.7303402"><ele>31.333333333333336</ele><time>2026-05-02T14:22:25.053Z</time></trkpt><trkpt lat="45.2482925" lon="10.7303258"><ele>31.0</ele><time>2026-05-02T14:22:27.052Z</time></trkpt><trkpt lat="45.2482154" lon="10.7303114"><ele>31.000000000000004</ele><time>2026-05-02T14:22:29.053Z</time></trkpt><trkpt lat="45.2481388" lon="10.7302974"><ele>31.0</ele><time>2026-05-02T14:22:31.053Z</time></trkpt><trkpt lat="45.2480628" lon="10.7302854"><ele>31.0</ele><time>2026-05-02T14:22:33.054Z</time></trkpt><trkpt lat="45.2479869" lon="10.7302702"><ele>31.0</ele><time>2026-05-02T14:22:35.052Z</time></trkpt><trkpt lat="45.2479108" lon="10.7302597"><ele>31.000000000000004</ele><time>2026-05-02T14:22:37.054Z</time></trkpt><trkpt lat="45.2478348" lon="10.730249"><ele>31.0</ele><time>2026-05-02T14:22:39.053Z</time></trkpt><trkpt lat="45.2477587" lon="10.730241"><ele>31.0</ele><time>2026-05-02T14:22:41.053Z</time></trkpt><trkpt lat="45.2476824" lon="10.730234"><ele>31.000000000000004</ele><time>2026-05-02T14:22:43.053Z</time></trkpt><trkpt lat="45.2476063" lon="10.7302259"><ele>31.0</ele><time>2026-05-02T14:22:45.052Z</time></trkpt><trkpt lat="45.2475347" lon="10.7302106"><ele>31.0</ele><time>2026-05-02T14:22:47.053Z</time></trkpt><trkpt lat="45.247464" lon="10.7301927"><ele>31.000000000000004</ele><time>2026-05-02T14:22:49.052Z</time></trkpt><trkpt lat="45.2473927" lon="10.7301796"><ele>31.0</ele><time>2026-05-02T14:22:51.053Z</time></trkpt><trkpt lat="45.2473206" lon="10.7301657"><ele>31.0</ele><time>2026-05-02T14:22:53.053Z</time></trkpt><trkpt lat="45.2472448" lon="10.7301577"><ele>31.000000000000004</ele><time>2026-05-02T14:22:55.051Z</time></trkpt><trkpt lat="45.2471673" lon="10.7301484"><ele>31.0</ele><time>2026-05-02T14:22:57.052Z</time></trkpt><trkpt lat="45.2470908" lon="10.7301322"><ele>31.0</ele><time>2026-05-02T14:22:59.054Z</time></trkpt><trkpt lat="45.247014" lon="10.7301186"><ele>31.0</ele><time>2026-05-02T14:23:01.053Z</time></trkpt><trkpt lat="45.2469373" lon="10.7301035"><ele>31.000000000000004</ele><time>2026-05-02T14:23:03.053Z</time></trkpt><trkpt lat="45.2468595" lon="10.7300921"><ele>31.0</ele><time>2026-05-02T14:23:05.054Z</time></trkpt><trkpt lat="45.2467817" lon="10.7300822"><ele>31.000000000000004</ele><time>2026-05-02T14:23:07.053Z</time></trkpt><trkpt lat="45.2467054" lon="10.7300708"><ele>31.0</ele><time>2026-05-02T14:23:09.053Z</time></trkpt><trkpt lat="45.2466274" lon="10.7300574"><ele>31.0</ele><time>2026-05-02T14:23:11.052Z</time></trkpt><trkpt lat="45.2465476" lon="10.7300473"><ele>31.0</ele><time>2026-05-02T14:23:13.054Z</time></trkpt><trkpt lat="45.2464612" lon="10.7300397"><ele>31.000000000000004</ele><time>2026-05-02T14:23:15.053Z</time></trkpt><trkpt lat="45.2463839" lon="10.7300284"><ele>31.0</ele><time>2026-05-02T14:23:17.054Z</time></trkpt><trkpt lat="45.2463041" lon="10.7300245"><ele>31.142857142857146</ele><time>2026-05-02T14:23:19.054Z</time></trkpt><trkpt lat="45.2462353" lon="10.7300126"><ele>31.28571428571429</ele><time>2026-05-02T14:23:21.051Z</time></trkpt><trkpt lat="45.2461634" lon="10.7300046"><ele>31.42857142857143</ele><time>2026-05-02T14:23:23.053Z</time></trkpt><trkpt lat="45.2460921" lon="10.7299993"><ele>31.57142857142857</ele><time>2026-05-02T14:23:25.053Z</time></trkpt><trkpt lat="45.2460248" lon="10.7299947"><ele>31.71428571428571</ele><time>2026-05-02T14:23:27.053Z</time></trkpt><trkpt lat="45.2459603" lon="10.7299942"><ele>31.857142857142854</ele><time>2026-05-02T14:23:29.053Z</time></trkpt><trkpt lat="45.2458962" lon="10.7299883"><ele>32.0</ele><time>2026-05-02T14:23:31.052Z</time></trkpt><trkpt lat="45.2458034" lon="10.729985"><ele>31.999999999999996</ele><time>2026-05-02T14:23:34.053Z</time></trkpt><trkpt lat="45.2457363" lon="10.7299708"><ele>32.0</ele><time>2026-05-02T14:23:36.054Z</time></trkpt><trkpt lat="45.2456564" lon="10.7299548"><ele>32.0</ele><time>2026-05-02T14:23:38.052Z</time></trkpt><trkpt lat="45.2455689" lon="10.7299364"><ele>32.0</ele><time>2026-05-02T14:23:40.054Z</time></trkpt><trkpt lat="45.2454778" lon="10.7299262"><ele>31.999999999999996</ele><time>2026-05-02T14:23:42.051Z</time></trkpt><trkpt lat="45.2453806" lon="10.729905"><ele>32.0</ele><time>2026-05-02T14:23:44.053Z</time></trkpt><trkpt lat="45.245282" lon="10.7298922"><ele>31.999999999999996</ele><time>2026-05-02T14:23:46.053Z</time></trkpt><trkpt lat="45.2451857" lon="10.7298799"><ele>32.0</ele><time>2026-05-02T14:23:48.052Z</time></trkpt><trkpt lat="45.2450949" lon="10.7298691"><ele>32.0</ele><time>2026-05-02T14:23:50.052Z</time></trkpt><trkpt lat="45.2450069" lon="10.7298547"><ele>32.0</ele><time>2026-05-02T14:23:52.052Z</time></trkpt><trkpt lat="45.244926" lon="10.7298443"><ele>31.999999999999996</ele><time>2026-05-02T14:23:54.052Z</time></trkpt><trkpt lat="45.2448432" lon="10.7298235"><ele>32.0</ele><time>2026-05-02T14:23:56.052Z</time></trkpt><trkpt lat="45.2447576" lon="10.7298093"><ele>31.999999999999996</ele><time>2026-05-02T14:23:58.053Z</time></trkpt><trkpt lat="45.2446725" lon="10.7297939"><ele>32.0</ele><time>2026-05-02T14:24:00.053Z</time></trkpt><trkpt lat="45.2445898" lon="10.7297814"><ele>32.0</ele><time>2026-05-02T14:24:02.053Z</time></trkpt><trkpt lat="45.2445097" lon="10.7297693"><ele>32.0</ele><time>2026-05-02T14:24:04.053Z</time></trkpt><trkpt lat="45.2444292" lon="10.7297538"><ele>31.999999999999996</ele><time>2026-05-02T14:24:06.053Z</time></trkpt><trkpt lat="45.2443474" lon="10.7297428"><ele>32.0</ele><time>2026-05-02T14:24:08.053Z</time></trkpt><trkpt lat="45.2442678" lon="10.7297296"><ele>31.999999999999996</ele><time>2026-05-02T14:24:10.053Z</time></trkpt><trkpt lat="45.2441868" lon="10.7297183"><ele>32.0</ele><time>2026-05-02T14:24:12.053Z</time></trkpt><trkpt lat="45.2441085" lon="10.7297062"><ele>32.0</ele><time>2026-05-02T14:24:14.053Z</time></trkpt><trkpt lat="45.2440321" lon="10.7296943"><ele>32.0</ele><time>2026-05-02T14:24:16.053Z</time></trkpt><trkpt lat="45.2439536" lon="10.7296821"><ele>31.999999999999996</ele><time>2026-05-02T14:24:18.052Z</time></trkpt><trkpt lat="45.2438748" lon="10.7296688"><ele>32.0</ele><time>2026-05-02T14:24:20.053Z</time></trkpt><trkpt lat="45.2437977" lon="10.729651"><ele>31.833333333333332</ele><time>2026-05-02T14:24:22.053Z</time></trkpt><trkpt lat="45.2437179" lon="10.7296312"><ele>31.666666666666664</ele><time>2026-05-02T14:24:24.052Z</time></trkpt><trkpt lat="45.2436393" lon="10.7296123"><ele>31.5</ele><time>2026-05-02T14:24:26.051Z</time></trkpt><trkpt lat="45.243556" lon="10.7295978"><ele>31.333333333333336</ele><time>2026-05-02T14:24:28.052Z</time></trkpt><trkpt lat="45.243475" lon="10.7295804"><ele>31.166666666666668</ele><time>2026-05-02T14:24:30.052Z</time></trkpt><trkpt lat="45.2434005" lon="10.7295675"><ele>31.0</ele><time>2026-05-02T14:24:32.053Z</time></trkpt><trkpt lat="45.2433223" lon="10.729552"><ele>31.000000000000004</ele><time>2026-05-02T14:24:34.053Z</time></trkpt><trkpt lat="45.243245" lon="10.7295373"><ele>31.0</ele><time>2026-05-02T14:24:36.052Z</time></trkpt><trkpt lat="45.2431653" lon="10.7295229"><ele>31.0</ele><time>2026-05-02T14:24:38.052Z</time></trkpt><trkpt lat="45.2430852" lon="10.7295121"><ele>31.0</ele><time>2026-05-02T14:24:40.051Z</time></trkpt><trkpt lat="45.2430054" lon="10.7295091"><ele>31.000000000000004</ele><time>2026-05-02T14:24:42.052Z</time></trkpt><trkpt lat="45.2429264" lon="10.7295089"><ele>31.0</ele><time>2026-05-02T14:24:44.052Z</time></trkpt><trkpt lat="45.2428509" lon="10.7295005"><ele>31.0</ele><time>2026-05-02T14:24:46.053Z</time></trkpt><trkpt lat="45.2427771" lon="10.7294936"><ele>31.000000000000004</ele><time>2026-05-02T14:24:48.051Z</time></trkpt><trkpt lat="45.2427032" lon="10.7294907"><ele>31.0</ele><time>2026-05-02T14:24:50.052Z</time></trkpt><trkpt lat="45.2426343" lon="10.7294868"><ele>31.0</ele><time>2026-05-02T14:24:52.051Z</time></trkpt><trkpt lat="45.2425699" lon="10.7294817"><ele>31.000000000000004</ele><time>2026-05-02T14:24:54.052Z</time></trkpt><trkpt lat="45.2425071" lon="10.7294753"><ele>31.0</ele><time>2026-05-02T14:24:56.053Z</time></trkpt><trkpt lat="45.2424169" lon="10.7294655"><ele>31.0</ele><time>2026-05-02T14:24:59.053Z</time></trkpt><trkpt lat="45.2423311" lon="10.7294422"><ele>30.833333333333336</ele><time>2026-05-02T14:25:02.051Z</time></trkpt><trkpt lat="45.242263" lon="10.7294273"><ele>30.666666666666668</ele><time>2026-05-02T14:25:04.052Z</time></trkpt><trkpt lat="45.2421866" lon="10.7294087"><ele>30.5</ele><time>2026-05-02T14:25:06.052Z</time></trkpt><trkpt lat="45.2421035" lon="10.7293852"><ele>30.333333333333336</ele><time>2026-05-02T14:25:08.052Z</time></trkpt><trkpt lat="45.2420098" lon="10.7293565"><ele>30.166666666666668</ele><time>2026-05-02T14:25:10.053Z</time></trkpt><trkpt lat="45.2419134" lon="10.7293246"><ele>30.0</ele><time>2026-05-02T14:25:12.052Z</time></trkpt><trkpt lat="45.24181" lon="10.7293053"><ele>30.0</ele><time>2026-05-02T14:25:14.051Z</time></trkpt><trkpt lat="45.2416996" lon="10.729287"><ele>30.0</ele><time>2026-05-02T14:25:16.052Z</time></trkpt><trkpt lat="45.2415947" lon="10.7292651"><ele>30.0</ele><time>2026-05-02T14:25:18.051Z</time></trkpt><trkpt lat="45.2414936" lon="10.7292487"><ele>30.0</ele><time>2026-05-02T14:25:20.052Z</time></trkpt><trkpt lat="45.2413916" lon="10.7292307"><ele>30.0</ele><time>2026-05-02T14:25:22.051Z</time></trkpt><trkpt lat="45.2412978" lon="10.7292204"><ele>29.833333333333332</ele><time>2026-05-02T14:25:24.053Z</time></trkpt><trkpt lat="45.2412128" lon="10.7292134"><ele>29.666666666666664</ele><time>2026-05-02T14:25:26.052Z</time></trkpt><trkpt lat="45.2411344" lon="10.7292059"><ele>29.5</ele><time>2026-05-02T14:25:28.051Z</time></trkpt><trkpt lat="45.2410557" lon="10.7291917"><ele>29.333333333333332</ele><time>2026-05-02T14:25:30.053Z</time></trkpt><trkpt lat="45.2409704" lon="10.7291786"><ele>29.166666666666664</ele><time>2026-05-02T14:25:32.05Z</time></trkpt><trkpt lat="45.2408854" lon="10.7291689"><ele>29.0</ele><time>2026-05-02T14:25:34.052Z</time></trkpt><trkpt lat="45.2408054" lon="10.7291575"><ele>28.999999999999996</ele><time>2026-05-02T14:25:36.051Z</time></trkpt><trkpt lat="45.2407263" lon="10.7291455"><ele>29.0</ele><time>2026-05-02T14:25:38.053Z</time></trkpt><trkpt lat="45.24064" lon="10.7291336"><ele>29.0</ele><time>2026-05-02T14:25:40.051Z</time></trkpt><trkpt lat="45.2405484" lon="10.7291213"><ele>29.0</ele><time>2026-05-02T14:25:42.051Z</time></trkpt><trkpt lat="45.2404542" lon="10.7291084"><ele>28.999999999999996</ele><time>2026-05-02T14:25:44.051Z</time></trkpt><trkpt lat="45.240371" lon="10.7290927"><ele>29.0</ele><time>2026-05-02T14:25:46.051Z</time></trkpt><trkpt lat="45.240289" lon="10.7290814"><ele>29.2</ele><time>2026-05-02T14:25:48.052Z</time></trkpt><trkpt lat="45.2401956" lon="10.729074"><ele>29.4</ele><time>2026-05-02T14:25:50.051Z</time></trkpt><trkpt lat="45.2400966" lon="10.7290559"><ele>29.6</ele><time>2026-05-02T14:25:52.052Z</time></trkpt><trkpt lat="45.2400025" lon="10.7290409"><ele>29.8</ele><time>2026-05-02T14:25:54.052Z</time></trkpt><trkpt lat="45.2399085" lon="10.7290255"><ele>30.0</ele><time>2026-05-02T14:25:56.052Z</time></trkpt><trkpt lat="45.239825" lon="10.7290129"><ele>30.0</ele><time>2026-05-02T14:25:58.052Z</time></trkpt><trkpt lat="45.239746" lon="10.7290027"><ele>30.0</ele><time>2026-05-02T14:26:00.051Z</time></trkpt><trkpt lat="45.2396642" lon="10.7289843"><ele>30.0</ele><time>2026-05-02T14:26:02.051Z</time></trkpt><trkpt lat="45.2395828" lon="10.7289735"><ele>30.0</ele><time>2026-05-02T14:26:04.051Z</time></trkpt><trkpt lat="45.2395004" lon="10.7289647"><ele>30.0</ele><time>2026-05-02T14:26:06.052Z</time></trkpt><trkpt lat="45.2394199" lon="10.7289552"><ele>30.0</ele><time>2026-05-02T14:26:08.051Z</time></trkpt><trkpt lat="45.2393406" lon="10.7289468"><ele>30.0</ele><time>2026-05-02T14:26:10.052Z</time></trkpt><trkpt lat="45.2392633" lon="10.728933"><ele>30.0</ele><time>2026-05-02T14:26:12.052Z</time></trkpt><trkpt lat="45.239187" lon="10.7289154"><ele>30.0</ele><time>2026-05-02T14:26:14.052Z</time></trkpt><trkpt lat="45.2391117" lon="10.7289"><ele>30.0</ele><time>2026-05-02T14:26:16.053Z</time></trkpt><trkpt lat="45.239034" lon="10.7288782"><ele>30.0</ele><time>2026-05-02T14:26:18.05Z</time></trkpt><trkpt lat="45.2389524" lon="10.7288626"><ele>30.0</ele><time>2026-05-02T14:26:20.052Z</time></trkpt><trkpt lat="45.2388694" lon="10.7288472"><ele>30.166666666666668</ele><time>2026-05-02T14:26:22.051Z</time></trkpt><trkpt lat="45.2387839" lon="10.7288336"><ele>30.333333333333336</ele><time>2026-05-02T14:26:24.052Z</time></trkpt><trkpt lat="45.2387023" lon="10.7288176"><ele>30.5</ele><time>2026-05-02T14:26:26.051Z</time></trkpt><trkpt lat="45.2386194" lon="10.7288034"><ele>30.666666666666668</ele><time>2026-05-02T14:26:28.05Z</time></trkpt><trkpt lat="45.2385357" lon="10.7287868"><ele>30.833333333333336</ele><time>2026-05-02T14:26:30.052Z</time></trkpt><trkpt lat="45.2384527" lon="10.7287715"><ele>31.0</ele><time>2026-05-02T14:26:32.052Z</time></trkpt><trkpt lat="45.2383696" lon="10.728754"><ele>31.000000000000004</ele><time>2026-05-02T14:26:34.052Z</time></trkpt><trkpt lat="45.2382856" lon="10.7287397"><ele>31.0</ele><time>2026-05-02T14:26:36.052Z</time></trkpt><trkpt lat="45.2382001" lon="10.7287241"><ele>31.0</ele><time>2026-05-02T14:26:38.05Z</time></trkpt><trkpt lat="45.2381162" lon="10.7287087"><ele>31.0</ele><time>2026-05-02T14:26:40.051Z</time></trkpt><trkpt lat="45.2380345" lon="10.7286952"><ele>31.000000000000004</ele><time>2026-05-02T14:26:42.052Z</time></trkpt><trkpt lat="45.2379525" lon="10.7286834"><ele>31.0</ele><time>2026-05-02T14:26:44.051Z</time></trkpt><trkpt lat="45.2378724" lon="10.7286723"><ele>30.666666666666668</ele><time>2026-05-02T14:26:46.052Z</time></trkpt><trkpt lat="45.2377915" lon="10.7286585"><ele>30.333333333333336</ele><time>2026-05-02T14:26:48.052Z</time></trkpt><trkpt lat="45.2377066" lon="10.7286425"><ele>30.0</ele><time>2026-05-02T14:26:50.052Z</time></trkpt><trkpt lat="45.2376226" lon="10.7286284"><ele>29.666666666666664</ele><time>2026-05-02T14:26:52.051Z</time></trkpt><trkpt lat="45.2375367" lon="10.7286151"><ele>29.333333333333332</ele><time>2026-05-02T14:26:54.052Z</time></trkpt><trkpt lat="45.2374488" lon="10.7286016"><ele>29.0</ele><time>2026-05-02T14:26:56.051Z</time></trkpt><trkpt lat="45.2373522" lon="10.7285921"><ele>28.999999999999996</ele><time>2026-05-02T14:26:58.051Z</time></trkpt><trkpt lat="45.2372641" lon="10.7285762"><ele>29.0</ele><time>2026-05-02T14:27:00.051Z</time></trkpt><trkpt lat="45.2371749" lon="10.7285627"><ele>29.0</ele><time>2026-05-02T14:27:02.05Z</time></trkpt><trkpt lat="45.2370892" lon="10.728557"><ele>29.0</ele><time>2026-05-02T14:27:04.052Z</time></trkpt><trkpt lat="45.2370042" lon="10.728555"><ele>28.999999999999996</ele><time>2026-05-02T14:27:06.052Z</time></trkpt><trkpt lat="45.2369257" lon="10.7285457"><ele>29.0</ele><time>2026-05-02T14:27:08.052Z</time></trkpt><trkpt lat="45.2368558" lon="10.728542"><ele>29.0</ele><time>2026-05-02T14:27:10.05Z</time></trkpt><trkpt lat="45.2367642" lon="10.728527"><ele>29.0</ele><time>2026-05-02T14:27:13.051Z</time></trkpt><trkpt lat="45.2366933" lon="10.7285129"><ele>29.0</ele><time>2026-05-02T14:27:15.051Z</time></trkpt><trkpt lat="45.2366088" lon="10.7284958"><ele>29.0</ele><time>2026-05-02T14:27:17.051Z</time></trkpt><trkpt lat="45.2365052" lon="10.7284783"><ele>29.0</ele><time>2026-05-02T14:27:19.051Z</time></trkpt><trkpt lat="45.2363973" lon="10.7284595"><ele>28.999999999999996</ele><time>2026-05-02T14:27:21.052Z</time></trkpt><trkpt lat="45.2362879" lon="10.7284347"><ele>29.0</ele><time>2026-05-02T14:27:23.052Z</time></trkpt><trkpt lat="45.2362001" lon="10.7284142"><ele>29.0</ele><time>2026-05-02T14:27:25.052Z</time></trkpt><trkpt lat="45.2361191" lon="10.7284018"><ele>29.0</ele><time>2026-05-02T14:27:27.051Z</time></trkpt><trkpt lat="45.2360399" lon="10.7283857"><ele>28.999999999999996</ele><time>2026-05-02T14:27:29.051Z</time></trkpt><trkpt lat="45.2359576" lon="10.7283709"><ele>29.0</ele><time>2026-05-02T14:27:31.05Z</time></trkpt><trkpt lat="45.2358733" lon="10.7283587"><ele>28.999999999999996</ele><time>2026-05-02T14:27:33.051Z</time></trkpt><trkpt lat="45.2357889" lon="10.7283518"><ele>29.0</ele><time>2026-05-02T14:27:35.051Z</time></trkpt><trkpt lat="45.2357071" lon="10.7283382"><ele>29.0</ele><time>2026-05-02T14:27:37.051Z</time></trkpt><trkpt lat="45.2356254" lon="10.7283236"><ele>29.0</ele><time>2026-05-02T14:27:39.05Z</time></trkpt><trkpt lat="45.2355408" lon="10.7283103"><ele>28.999999999999996</ele><time>2026-05-02T14:27:41.052Z</time></trkpt><trkpt lat="45.2354535" lon="10.7282993"><ele>29.0</ele><time>2026-05-02T14:27:43.05Z</time></trkpt><trkpt lat="45.2353631" lon="10.7282899"><ele>29.333333333333332</ele><time>2026-05-02T14:27:45.05Z</time></trkpt><trkpt lat="45.2352793" lon="10.7282733"><ele>29.666666666666664</ele><time>2026-05-02T14:27:47.052Z</time></trkpt><trkpt lat="45.2351915" lon="10.7282656"><ele>30.0</ele><time>2026-05-02T14:27:49.052Z</time></trkpt><trkpt lat="45.2351082" lon="10.7282496"><ele>30.333333333333336</ele><time>2026-05-02T14:27:51.051Z</time></trkpt><trkpt lat="45.2350268" lon="10.7282342"><ele>30.666666666666668</ele><time>2026-05-02T14:27:53.05Z</time></trkpt><trkpt lat="45.2349445" lon="10.7282142"><ele>31.0</ele><time>2026-05-02T14:27:55.052Z</time></trkpt><trkpt lat="45.2348632" lon="10.7281958"><ele>31.000000000000004</ele><time>2026-05-02T14:27:57.052Z</time></trkpt><trkpt lat="45.2347832" lon="10.7281783"><ele>31.0</ele><time>2026-05-02T14:27:59.052Z</time></trkpt><trkpt lat="45.2347026" lon="10.7281636"><ele>31.0</ele><time>2026-05-02T14:28:01.052Z</time></trkpt><trkpt lat="45.2346197" lon="10.7281554"><ele>31.0</ele><time>2026-05-02T14:28:03.05Z</time></trkpt><trkpt lat="45.2345353" lon="10.7281454"><ele>31.000000000000004</ele><time>2026-05-02T14:28:05.052Z</time></trkpt><trkpt lat="45.2344497" lon="10.7281356"><ele>31.0</ele><time>2026-05-02T14:28:07.052Z</time></trkpt><trkpt lat="45.23436" lon="10.7281239"><ele>31.000000000000004</ele><time>2026-05-02T14:28:09.052Z</time></trkpt><trkpt lat="45.2342728" lon="10.728115"><ele>31.0</ele><time>2026-05-02T14:28:11.05Z</time></trkpt><trkpt lat="45.234186" lon="10.7281009"><ele>31.0</ele><time>2026-05-02T14:28:13.052Z</time></trkpt><trkpt lat="45.234105" lon="10.7280908"><ele>31.0</ele><time>2026-05-02T14:28:15.052Z</time></trkpt><trkpt lat="45.2340218" lon="10.7280852"><ele>31.000000000000004</ele><time>2026-05-02T14:28:17.051Z</time></trkpt><trkpt lat="45.2339356" lon="10.7280738"><ele>31.0</ele><time>2026-05-02T14:28:19.051Z</time></trkpt><trkpt lat="45.2338522" lon="10.7280592"><ele>30.833333333333336</ele><time>2026-05-02T14:28:21.05Z</time></trkpt><trkpt lat="45.2337718" lon="10.7280427"><ele>30.666666666666668</ele><time>2026-05-02T14:28:23.052Z</time></trkpt><trkpt lat="45.2336916" lon="10.7280267"><ele>30.5</ele><time>2026-05-02T14:28:25.052Z</time></trkpt><trkpt lat="45.2336103" lon="10.7280107"><ele>30.333333333333336</ele><time>2026-05-02T14:28:27.05Z</time></trkpt><trkpt lat="45.233526" lon="10.7279925"><ele>30.166666666666668</ele><time>2026-05-02T14:28:29.051Z</time></trkpt><trkpt lat="45.2334428" lon="10.7279733"><ele>30.0</ele><time>2026-05-02T14:28:31.05Z</time></trkpt><trkpt lat="45.2333578" lon="10.7279566"><ele>30.0</ele><time>2026-05-02T14:28:33.05Z</time></trkpt><trkpt lat="45.2332711" lon="10.7279373"><ele>30.0</ele><time>2026-05-02T14:28:35.051Z</time></trkpt><trkpt lat="45.2331821" lon="10.727922"><ele>30.0</ele><time>2026-05-02T14:28:37.052Z</time></trkpt><trkpt lat="45.2330961" lon="10.7279127"><ele>30.0</ele><time>2026-05-02T14:28:39.051Z</time></trkpt><trkpt lat="45.2330118" lon="10.7278938"><ele>30.0</ele><time>2026-05-02T14:28:41.052Z</time></trkpt><trkpt lat="45.2329244" lon="10.7278821"><ele>30.0</ele><time>2026-05-02T14:28:43.051Z</time></trkpt><trkpt lat="45.2328367" lon="10.7278729"><ele>29.833333333333332</ele><time>2026-05-02T14:28:45.05Z</time></trkpt><trkpt lat="45.2327474" lon="10.7278678"><ele>29.666666666666664</ele><time>2026-05-02T14:28:47.051Z</time></trkpt><trkpt lat="45.232658" lon="10.7278563"><ele>29.5</ele><time>2026-05-02T14:28:49.052Z</time></trkpt><trkpt lat="45.2325677" lon="10.7278444"><ele>29.333333333333332</ele><time>2026-05-02T14:28:51.052Z</time></trkpt><trkpt lat="45.232484" lon="10.727829"><ele>29.166666666666664</ele><time>2026-05-02T14:28:53.052Z</time></trkpt><trkpt lat="45.2323988" lon="10.7278075"><ele>29.0</ele><time>2026-05-02T14:28:55.052Z</time></trkpt><trkpt lat="45.2323172" lon="10.7277967"><ele>28.999999999999996</ele><time>2026-05-02T14:28:57.051Z</time></trkpt><trkpt lat="45.2322313" lon="10.7277858"><ele>29.0</ele><time>2026-05-02T14:28:59.052Z</time></trkpt><trkpt lat="45.2321455" lon="10.7277772"><ele>29.0</ele><time>2026-05-02T14:29:01.05Z</time></trkpt><trkpt lat="45.2320562" lon="10.7277645"><ele>29.0</ele><time>2026-05-02T14:29:03.051Z</time></trkpt><trkpt lat="45.2319709" lon="10.7277503"><ele>28.999999999999996</ele><time>2026-05-02T14:29:05.05Z</time></trkpt><trkpt lat="45.2318864" lon="10.7277347"><ele>29.0</ele><time>2026-05-02T14:29:07.051Z</time></trkpt><trkpt lat="45.2318" lon="10.7277201"><ele>28.999999999999996</ele><time>2026-05-02T14:29:09.051Z</time></trkpt><trkpt lat="45.2317142" lon="10.7277078"><ele>29.0</ele><time>2026-05-02T14:29:11.051Z</time></trkpt><trkpt lat="45.2316275" lon="10.7276953"><ele>29.0</ele><time>2026-05-02T14:29:13.05Z</time></trkpt><trkpt lat="45.2315392" lon="10.7276834"><ele>29.0</ele><time>2026-05-02T14:29:15.052Z</time></trkpt><trkpt lat="45.2314494" lon="10.7276689"><ele>28.999999999999996</ele><time>2026-05-02T14:29:17.051Z</time></trkpt><trkpt lat="45.2313579" lon="10.7276583"><ele>29.0</ele><time>2026-05-02T14:29:19.051Z</time></trkpt><trkpt lat="45.2312662" lon="10.7276425"><ele>28.999999999999996</ele><time>2026-05-02T14:29:21.052Z</time></trkpt><trkpt lat="45.2311744" lon="10.7276251"><ele>29.0</ele><time>2026-05-02T14:29:23.05Z</time></trkpt><trkpt lat="45.2310928" lon="10.7276215"><ele>29.0</ele><time>2026-05-02T14:29:25.051Z</time></trkpt><trkpt lat="45.2310084" lon="10.7276131"><ele>29.0</ele><time>2026-05-02T14:29:27.051Z</time></trkpt><trkpt lat="45.2309215" lon="10.7275995"><ele>28.999999999999996</ele><time>2026-05-02T14:29:29.051Z</time></trkpt><trkpt lat="45.2308377" lon="10.7275838"><ele>29.0</ele><time>2026-05-02T14:29:31.051Z</time></trkpt><trkpt lat="45.2307567" lon="10.7275691"><ele>28.999999999999996</ele><time>2026-05-02T14:29:33.05Z</time></trkpt><trkpt lat="45.2306741" lon="10.7275498"><ele>29.0</ele><time>2026-05-02T14:29:35.051Z</time></trkpt><trkpt lat="45.2305893" lon="10.7275355"><ele>29.0</ele><time>2026-05-02T14:29:37.05Z</time></trkpt><trkpt lat="45.230503" lon="10.7275255"><ele>29.0</ele><time>2026-05-02T14:29:39.05Z</time></trkpt><trkpt lat="45.230417" lon="10.7275107"><ele>28.999999999999996</ele><time>2026-05-02T14:29:41.051Z</time></trkpt><trkpt lat="45.2303321" lon="10.7274994"><ele>29.0</ele><time>2026-05-02T14:29:43.052Z</time></trkpt><trkpt lat="45.2302496" lon="10.7274778"><ele>28.833333333333332</ele><time>2026-05-02T14:29:45.05Z</time></trkpt><trkpt lat="45.2301681" lon="10.7274549"><ele>28.666666666666664</ele><time>2026-05-02T14:29:47.05Z</time></trkpt><trkpt lat="45.2300846" lon="10.7274281"><ele>28.5</ele><time>2026-05-02T14:29:49.051Z</time></trkpt><trkpt lat="45.2299962" lon="10.727405"><ele>28.333333333333336</ele><time>2026-05-02T14:29:51.051Z</time></trkpt><trkpt lat="45.2299074" lon="10.7273767"><ele>28.166666666666668</ele><time>2026-05-02T14:29:53.051Z</time></trkpt><trkpt lat="45.2298173" lon="10.7273488"><ele>28.0</ele><time>2026-05-02T14:29:55.051Z</time></trkpt><trkpt lat="45.2297318" lon="10.7273241"><ele>28.000000000000004</ele><time>2026-05-02T14:29:57.049Z</time></trkpt><trkpt lat="45.2296528" lon="10.7273002"><ele>28.0</ele><time>2026-05-02T14:29:59.051Z</time></trkpt><trkpt lat="45.2295856" lon="10.727262"><ele>28.0</ele><time>2026-05-02T14:30:01.05Z</time></trkpt><trkpt lat="45.2295085" lon="10.7272367"><ele>28.0</ele><time>2026-05-02T14:30:03.05Z</time></trkpt><trkpt lat="45.2294283" lon="10.7272057"><ele>28.000000000000004</ele><time>2026-05-02T14:30:05.051Z</time></trkpt><trkpt lat="45.2293495" lon="10.7271766"><ele>28.0</ele><time>2026-05-02T14:30:07.051Z</time></trkpt><trkpt lat="45.229269" lon="10.7271445"><ele>28.000000000000004</ele><time>2026-05-02T14:30:09.05Z</time></trkpt><trkpt lat="45.2291835" lon="10.7271125"><ele>28.0</ele><time>2026-05-02T14:30:11.052Z</time></trkpt><trkpt lat="45.229097" lon="10.7270798"><ele>28.0</ele><time>2026-05-02T14:30:13.051Z</time></trkpt><trkpt lat="45.2290133" lon="10.7270446"><ele>28.0</ele><time>2026-05-02T14:30:15.051Z</time></trkpt><trkpt lat="45.2289258" lon="10.7270164"><ele>28.000000000000004</ele><time>2026-05-02T14:30:17.05Z</time></trkpt><trkpt lat="45.2288427" lon="10.7269702"><ele>28.0</ele><time>2026-05-02T14:30:19.051Z</time></trkpt><trkpt lat="45.228763" lon="10.7269185"><ele>28.166666666666668</ele><time>2026-05-02T14:30:21.05Z</time></trkpt><trkpt lat="45.2286807" lon="10.7268856"><ele>28.333333333333336</ele><time>2026-05-02T14:30:23.051Z</time></trkpt><trkpt lat="45.2286065" lon="10.7268475"><ele>28.5</ele><time>2026-05-02T14:30:25.05Z</time></trkpt><trkpt lat="45.2285324" lon="10.7268057"><ele>28.666666666666664</ele><time>2026-05-02T14:30:27.05Z</time></trkpt><trkpt lat="45.2284579" lon="10.7267689"><ele>28.833333333333332</ele><time>2026-05-02T14:30:29.051Z</time></trkpt><trkpt lat="45.2283831" lon="10.7267312"><ele>29.0</ele><time>2026-05-02T14:30:31.049Z</time></trkpt><trkpt lat="45.2283062" lon="10.7266921"><ele>28.999999999999996</ele><time>2026-05-02T14:30:33.049Z</time></trkpt><trkpt lat="45.2282261" lon="10.7266463"><ele>29.0</ele><time>2026-05-02T14:30:35.05Z</time></trkpt><trkpt lat="45.2281382" lon="10.7265991"><ele>29.0</ele><time>2026-05-02T14:30:37.052Z</time></trkpt><trkpt lat="45.2280563" lon="10.7265711"><ele>29.0</ele><time>2026-05-02T14:30:39.051Z</time></trkpt><trkpt lat="45.2279742" lon="10.7265658"><ele>28.999999999999996</ele><time>2026-05-02T14:30:41.051Z</time></trkpt><trkpt lat="45.2278843" lon="10.7265445"><ele>29.0</ele><time>2026-05-02T14:30:43.052Z</time></trkpt><trkpt lat="45.2277844" lon="10.7265176"><ele>29.2</ele><time>2026-05-02T14:30:45.051Z</time></trkpt><trkpt lat="45.2276796" lon="10.7264756"><ele>29.4</ele><time>2026-05-02T14:30:47.051Z</time></trkpt><trkpt lat="45.2275821" lon="10.7264223"><ele>29.6</ele><time>2026-05-02T14:30:49.051Z</time></trkpt><trkpt lat="45.2275066" lon="10.7263684"><ele>29.8</ele><time>2026-05-02T14:30:51.051Z</time></trkpt><trkpt lat="45.2274283" lon="10.7262851"><ele>30.0</ele><time>2026-05-02T14:30:53.05Z</time></trkpt><trkpt lat="45.2273501" lon="10.7262006"><ele>29.833333333333332</ele><time>2026-05-02T14:30:55.051Z</time></trkpt><trkpt lat="45.2272874" lon="10.7261211"><ele>29.666666666666664</ele><time>2026-05-02T14:30:57.05Z</time></trkpt><trkpt lat="45.2272181" lon="10.726057"><ele>29.5</ele><time>2026-05-02T14:30:59.051Z</time></trkpt><trkpt lat="45.2271568" lon="10.725992"><ele>29.333333333333332</ele><time>2026-05-02T14:31:01.051Z</time></trkpt><trkpt lat="45.2271067" lon="10.7259187"><ele>29.166666666666664</ele><time>2026-05-02T14:31:03.052Z</time></trkpt><trkpt lat="45.227061" lon="10.7258426"><ele>29.0</ele><time>2026-05-02T14:31:05.051Z</time></trkpt><trkpt lat="45.2270033" lon="10.7257662"><ele>28.999999999999996</ele><time>2026-05-02T14:31:07.05Z</time></trkpt><trkpt lat="45.2269334" lon="10.7256998"><ele>29.0</ele><time>2026-05-02T14:31:09.05Z</time></trkpt><trkpt lat="45.2268615" lon="10.7256356"><ele>29.0</ele><time>2026-05-02T14:31:11.05Z</time></trkpt><trkpt lat="45.2267933" lon="10.7255698"><ele>29.0</ele><time>2026-05-02T14:31:13.049Z</time></trkpt><trkpt lat="45.2267276" lon="10.7255082"><ele>28.999999999999996</ele><time>2026-05-02T14:31:15.051Z</time></trkpt><trkpt lat="45.226662" lon="10.725449"><ele>29.0</ele><time>2026-05-02T14:31:17.051Z</time></trkpt><trkpt lat="45.2265929" lon="10.7253913"><ele>28.999999999999996</ele><time>2026-05-02T14:31:19.05Z</time></trkpt><trkpt lat="45.2265243" lon="10.7253288"><ele>29.0</ele><time>2026-05-02T14:31:21.05Z</time></trkpt><trkpt lat="45.2264534" lon="10.7252624"><ele>29.0</ele><time>2026-05-02T14:31:23.05Z</time></trkpt><trkpt lat="45.2263804" lon="10.7251973"><ele>29.0</ele><time>2026-05-02T14:31:25.051Z</time></trkpt><trkpt lat="45.2263039" lon="10.725134"><ele>28.999999999999996</ele><time>2026-05-02T14:31:27.049Z</time></trkpt><trkpt lat="45.2262267" lon="10.7250684"><ele>29.0</ele><time>2026-05-02T14:31:29.049Z</time></trkpt><trkpt lat="45.2261519" lon="10.725004"><ele>29.4</ele><time>2026-05-02T14:31:31.05Z</time></trkpt><trkpt lat="45.2260656" lon="10.7249236"><ele>29.799999999999997</ele><time>2026-05-02T14:31:33.957Z</time></trkpt><trkpt lat="45.2259746" lon="10.7248541"><ele>30.200000000000003</ele><time>2026-05-02T14:31:36.051Z</time></trkpt><trkpt lat="45.2259061" lon="10.7247972"><ele>30.6</ele><time>2026-05-02T14:31:38.05Z</time></trkpt><trkpt lat="45.2258345" lon="10.7247372"><ele>31.0</ele><time>2026-05-02T14:31:40.051Z</time></trkpt><trkpt lat="45.2257629" lon="10.7246752"><ele>31.000000000000004</ele><time>2026-05-02T14:31:42.051Z</time></trkpt><trkpt lat="45.2256939" lon="10.7246183"><ele>31.0</ele><time>2026-05-02T14:31:44.051Z</time></trkpt><trkpt lat="45.2256233" lon="10.7245539"><ele>31.0</ele><time>2026-05-02T14:31:46.05Z</time></trkpt><trkpt lat="45.2255553" lon="10.7244937"><ele>31.0</ele><time>2026-05-02T14:31:48.05Z</time></trkpt><trkpt lat="45.2254862" lon="10.7244377"><ele>31.000000000000004</ele><time>2026-05-02T14:31:50.05Z</time></trkpt><trkpt lat="45.22542" lon="10.7243802"><ele>31.0</ele><time>2026-05-02T14:31:52.051Z</time></trkpt><trkpt lat="45.2253165" lon="10.7242929"><ele>30.833333333333336</ele><time>2026-05-02T14:31:55.051Z</time></trkpt><trkpt lat="45.2252497" lon="10.724232"><ele>30.666666666666668</ele><time>2026-05-02T14:31:57.051Z</time></trkpt><trkpt lat="45.2251803" lon="10.7241745"><ele>30.5</ele><time>2026-05-02T14:31:59.05Z</time></trkpt><trkpt lat="45.2251033" lon="10.7241152"><ele>30.333333333333336</ele><time>2026-05-02T14:32:01.051Z</time></trkpt><trkpt lat="45.2250265" lon="10.7240489"><ele>30.166666666666668</ele><time>2026-05-02T14:32:03.051Z</time></trkpt><trkpt lat="45.224952" lon="10.7239822"><ele>30.0</ele><time>2026-05-02T14:32:05.051Z</time></trkpt><trkpt lat="45.2248757" lon="10.7239259"><ele>29.666666666666668</ele><time>2026-05-02T14:32:07.051Z</time></trkpt><trkpt lat="45.2248029" lon="10.7238592"><ele>29.333333333333336</ele><time>2026-05-02T14:32:09.051Z</time></trkpt><trkpt lat="45.2247288" lon="10.7237972"><ele>29.0</ele><time>2026-05-02T14:32:11.05Z</time></trkpt><trkpt lat="45.2246542" lon="10.7237351"><ele>28.666666666666668</ele><time>2026-05-02T14:32:13.05Z</time></trkpt><trkpt lat="45.2245709" lon="10.7236773"><ele>28.333333333333336</ele><time>2026-05-02T14:32:15.051Z</time></trkpt><trkpt lat="45.2245033" lon="10.7236191"><ele>28.0</ele><time>2026-05-02T14:32:17.05Z</time></trkpt><trkpt lat="45.2244282" lon="10.7235636"><ele>28.000000000000004</ele><time>2026-05-02T14:32:19.051Z</time></trkpt><trkpt lat="45.2243575" lon="10.7235097"><ele>28.0</ele><time>2026-05-02T14:32:21.051Z</time></trkpt><trkpt lat="45.2242874" lon="10.723456"><ele>28.0</ele><time>2026-05-02T14:32:23.051Z</time></trkpt><trkpt lat="45.224219" lon="10.7233968"><ele>28.0</ele><time>2026-05-02T14:32:25.049Z</time></trkpt><trkpt lat="45.2241522" lon="10.7233329"><ele>28.000000000000004</ele><time>2026-05-02T14:32:27.05Z</time></trkpt><trkpt lat="45.2240814" lon="10.7232683"><ele>28.0</ele><time>2026-05-02T14:32:29.05Z</time></trkpt><trkpt lat="45.2240126" lon="10.723201"><ele>28.000000000000004</ele><time>2026-05-02T14:32:31.049Z</time></trkpt><trkpt lat="45.2239435" lon="10.7231286"><ele>28.0</ele><time>2026-05-02T14:32:33.051Z</time></trkpt><trkpt lat="45.2238746" lon="10.7230552"><ele>28.0</ele><time>2026-05-02T14:32:35.05Z</time></trkpt><trkpt lat="45.2238001" lon="10.7229909"><ele>28.0</ele><time>2026-05-02T14:32:37.05Z</time></trkpt><trkpt lat="45.2237264" lon="10.7229298"><ele>28.000000000000004</ele><time>2026-05-02T14:32:39.05Z</time></trkpt><trkpt lat="45.2236531" lon="10.7228647"><ele>28.0</ele><time>2026-05-02T14:32:41.051Z</time></trkpt><trkpt lat="45.2235817" lon="10.722802"><ele>28.000000000000004</ele><time>2026-05-02T14:32:43.051Z</time></trkpt><trkpt lat="45.223512" lon="10.7227308"><ele>28.0</ele><time>2026-05-02T14:32:45.05Z</time></trkpt><trkpt lat="45.2234322" lon="10.7226777"><ele>28.0</ele><time>2026-05-02T14:32:47.049Z</time></trkpt><trkpt lat="45.2233578" lon="10.7226155"><ele>28.0</ele><time>2026-05-02T14:32:49.049Z</time></trkpt><trkpt lat="45.2232821" lon="10.7225517"><ele>28.000000000000004</ele><time>2026-05-02T14:32:51.05Z</time></trkpt><trkpt lat="45.2232125" lon="10.7224822"><ele>28.0</ele><time>2026-05-02T14:32:53.05Z</time></trkpt><trkpt lat="45.2231401" lon="10.7224115"><ele>28.166666666666668</ele><time>2026-05-02T14:32:55.05Z</time></trkpt><trkpt lat="45.2230624" lon="10.7223342"><ele>28.333333333333336</ele><time>2026-05-02T14:32:57.051Z</time></trkpt><trkpt lat="45.2229863" lon="10.7222749"><ele>28.5</ele><time>2026-05-02T14:32:59.051Z</time></trkpt><trkpt lat="45.2229087" lon="10.722213"><ele>28.666666666666664</ele><time>2026-05-02T14:33:01.051Z</time></trkpt><trkpt lat="45.2228371" lon="10.7221412"><ele>28.833333333333332</ele><time>2026-05-02T14:33:03.05Z</time></trkpt><trkpt lat="45.2227586" lon="10.7220829"><ele>29.0</ele><time>2026-05-02T14:33:05.051Z</time></trkpt><trkpt lat="45.2226788" lon="10.7220287"><ele>28.999999999999996</ele><time>2026-05-02T14:33:07.05Z</time></trkpt><trkpt lat="45.2225998" lon="10.7219683"><ele>29.0</ele><time>2026-05-02T14:33:09.05Z</time></trkpt><trkpt lat="45.2225267" lon="10.7218979"><ele>29.0</ele><time>2026-05-02T14:33:11.051Z</time></trkpt><trkpt lat="45.2224533" lon="10.7218264"><ele>29.0</ele><time>2026-05-02T14:33:13.05Z</time></trkpt><trkpt lat="45.2223803" lon="10.7217599"><ele>28.999999999999996</ele><time>2026-05-02T14:33:15.05Z</time></trkpt><trkpt lat="45.2223046" lon="10.7217021"><ele>29.0</ele><time>2026-05-02T14:33:17.049Z</time></trkpt><trkpt lat="45.2222307" lon="10.7216368"><ele>28.999999999999996</ele><time>2026-05-02T14:33:19.049Z</time></trkpt><trkpt lat="45.2221529" lon="10.7215778"><ele>29.0</ele><time>2026-05-02T14:33:21.051Z</time></trkpt><trkpt lat="45.2220763" lon="10.7215321"><ele>29.0</ele><time>2026-05-02T14:33:23.049Z</time></trkpt><trkpt lat="45.2219995" lon="10.7214712"><ele>29.0</ele><time>2026-05-02T14:33:25.051Z</time></trkpt><trkpt lat="45.2219258" lon="10.721411"><ele>28.999999999999996</ele><time>2026-05-02T14:33:27.051Z</time></trkpt><trkpt lat="45.2218525" lon="10.72134"><ele>29.0</ele><time>2026-05-02T14:33:29.049Z</time></trkpt><trkpt lat="45.2217764" lon="10.721272"><ele>29.0</ele><time>2026-05-02T14:33:31.051Z</time></trkpt><trkpt lat="45.2217016" lon="10.7212051"><ele>29.0</ele><time>2026-05-02T14:33:33.051Z</time></trkpt><trkpt lat="45.2216233" lon="10.7211479"><ele>29.0</ele><time>2026-05-02T14:33:35.049Z</time></trkpt><trkpt lat="45.2215433" lon="10.7210836"><ele>29.0</ele><time>2026-05-02T14:33:37.051Z</time></trkpt><trkpt lat="45.221456" lon="10.7210247"><ele>29.0</ele><time>2026-05-02T14:33:39.05Z</time></trkpt><trkpt lat="45.221381" lon="10.7209695"><ele>29.0</ele><time>2026-05-02T14:33:41.049Z</time></trkpt><trkpt lat="45.2213043" lon="10.7209066"><ele>29.0</ele><time>2026-05-02T14:33:43.049Z</time></trkpt><trkpt lat="45.2212321" lon="10.7208404"><ele>29.0</ele><time>2026-05-02T14:33:45.05Z</time></trkpt><trkpt lat="45.221151" lon="10.7207773"><ele>29.0</ele><time>2026-05-02T14:33:47.049Z</time></trkpt><trkpt lat="45.2210721" lon="10.7207115"><ele>29.0</ele><time>2026-05-02T14:33:49.05Z</time></trkpt><trkpt lat="45.2209825" lon="10.7206255"><ele>29.0</ele><time>2026-05-02T14:33:51.049Z</time></trkpt><trkpt lat="45.2208864" lon="10.7205354"><ele>29.0</ele><time>2026-05-02T14:33:53.048Z</time></trkpt><trkpt lat="45.2207938" lon="10.7204465"><ele>29.0</ele><time>2026-05-02T14:33:55.051Z</time></trkpt><trkpt lat="45.2207013" lon="10.7203676"><ele>29.0</ele><time>2026-05-02T14:33:57.05Z</time></trkpt><trkpt lat="45.2206128" lon="10.7202946"><ele>29.0</ele><time>2026-05-02T14:33:59.049Z</time></trkpt><trkpt lat="45.2205253" lon="10.7202301"><ele>28.6</ele><time>2026-05-02T14:34:01.05Z</time></trkpt><trkpt lat="45.2204371" lon="10.720151"><ele>28.2</ele><time>2026-05-02T14:34:03.05Z</time></trkpt><trkpt lat="45.2203509" lon="10.7200784"><ele>27.800000000000004</ele><time>2026-05-02T14:34:05.049Z</time></trkpt><trkpt lat="45.2202606" lon="10.72"><ele>27.400000000000002</ele><time>2026-05-02T14:34:07.049Z</time></trkpt><trkpt lat="45.2201722" lon="10.7199179"><ele>27.0</ele><time>2026-05-02T14:34:09.049Z</time></trkpt><trkpt lat="45.2200842" lon="10.7198454"><ele>27.0</ele><time>2026-05-02T14:34:11.049Z</time></trkpt><trkpt lat="45.2200087" lon="10.719749"><ele>27.000000000000004</ele><time>2026-05-02T14:34:13.051Z</time></trkpt><trkpt lat="45.2199253" lon="10.7196646"><ele>27.000000000000004</ele><time>2026-05-02T14:34:15.05Z</time></trkpt><trkpt lat="45.2198438" lon="10.7195891"><ele>27.0</ele><time>2026-05-02T14:34:17.05Z</time></trkpt><trkpt lat="45.2197636" lon="10.7195252"><ele>27.0</ele><time>2026-05-02T14:34:19.05Z</time></trkpt><trkpt lat="45.2196877" lon="10.7194612"><ele>27.0</ele><time>2026-05-02T14:34:21.048Z</time></trkpt><trkpt lat="45.2196028" lon="10.719389"><ele>27.000000000000004</ele><time>2026-05-02T14:34:23.05Z</time></trkpt><trkpt lat="45.2195298" lon="10.7193057"><ele>27.000000000000004</ele><time>2026-05-02T14:34:25.051Z</time></trkpt><trkpt lat="45.2194498" lon="10.7192321"><ele>27.0</ele><time>2026-05-02T14:34:27.05Z</time></trkpt><trkpt lat="45.2193723" lon="10.7191673"><ele>27.0</ele><time>2026-05-02T14:34:29.05Z</time></trkpt><trkpt lat="45.2192852" lon="10.7191103"><ele>27.0</ele><time>2026-05-02T14:34:31.051Z</time></trkpt><trkpt lat="45.2192138" lon="10.7190492"><ele>27.0</ele><time>2026-05-02T14:34:33.048Z</time></trkpt><trkpt lat="45.219144" lon="10.7189828"><ele>27.0</ele><time>2026-05-02T14:34:35.049Z</time></trkpt><trkpt lat="45.2190672" lon="10.7189266"><ele>27.0</ele><time>2026-05-02T14:34:37.05Z</time></trkpt><trkpt lat="45.2189954" lon="10.7188653"><ele>27.0</ele><time>2026-05-02T14:34:39.05Z</time></trkpt><trkpt lat="45.2189241" lon="10.7187971"><ele>27.0</ele><time>2026-05-02T14:34:41.051Z</time></trkpt><trkpt lat="45.2188484" lon="10.7187367"><ele>27.166666666666668</ele><time>2026-05-02T14:34:43.051Z</time></trkpt><trkpt lat="45.2187735" lon="10.7186742"><ele>27.333333333333336</ele><time>2026-05-02T14:34:45.051Z</time></trkpt><trkpt lat="45.2186997" lon="10.7186123"><ele>27.5</ele><time>2026-05-02T14:34:47.05Z</time></trkpt><trkpt lat="45.2186311" lon="10.7185506"><ele>27.666666666666668</ele><time>2026-05-02T14:34:49.049Z</time></trkpt><trkpt lat="45.2185602" lon="10.7184956"><ele>27.833333333333336</ele><time>2026-05-02T14:34:51.049Z</time></trkpt><trkpt lat="45.2184903" lon="10.7184396"><ele>28.0</ele><time>2026-05-02T14:34:53.05Z</time></trkpt><trkpt lat="45.2184193" lon="10.7183756"><ele>28.000000000000004</ele><time>2026-05-02T14:34:55.049Z</time></trkpt><trkpt lat="45.2183534" lon="10.7183172"><ele>28.0</ele><time>2026-05-02T14:34:57.05Z</time></trkpt><trkpt lat="45.21829" lon="10.7182535"><ele>28.0</ele><time>2026-05-02T14:34:59.05Z</time></trkpt><trkpt lat="45.2182236" lon="10.718191"><ele>28.0</ele><time>2026-05-02T14:35:01.051Z</time></trkpt><trkpt lat="45.2181549" lon="10.7181357"><ele>28.000000000000004</ele><time>2026-05-02T14:35:03.048Z</time></trkpt><trkpt lat="45.218092" lon="10.7180796"><ele>28.0</ele><time>2026-05-02T14:35:05.05Z</time></trkpt><trkpt lat="45.2180296" lon="10.7180202"><ele>27.833333333333336</ele><time>2026-05-02T14:35:07.049Z</time></trkpt><trkpt lat="45.2179659" lon="10.7179619"><ele>27.666666666666668</ele><time>2026-05-02T14:35:09.051Z</time></trkpt><trkpt lat="45.2178994" lon="10.7179051"><ele>27.5</ele><time>2026-05-02T14:35:11.05Z</time></trkpt><trkpt lat="45.2178319" lon="10.7178431"><ele>27.333333333333336</ele><time>2026-05-02T14:35:13.049Z</time></trkpt><trkpt lat="45.2177645" lon="10.7177856"><ele>27.166666666666668</ele><time>2026-05-02T14:35:15.05Z</time></trkpt><trkpt lat="45.2176954" lon="10.7177347"><ele>27.0</ele><time>2026-05-02T14:35:17.051Z</time></trkpt><trkpt lat="45.2176293" lon="10.7176738"><ele>27.0</ele><time>2026-05-02T14:35:19.05Z</time></trkpt><trkpt lat="45.217562" lon="10.7176159"><ele>27.0</ele><time>2026-05-02T14:35:21.05Z</time></trkpt><trkpt lat="45.2174946" lon="10.7175654"><ele>27.0</ele><time>2026-05-02T14:35:23.049Z</time></trkpt><trkpt lat="45.2174289" lon="10.7175067"><ele>27.0</ele><time>2026-05-02T14:35:25.05Z</time></trkpt><trkpt lat="45.2173615" lon="10.7174495"><ele>27.0</ele><time>2026-05-02T14:35:27.049Z</time></trkpt><trkpt lat="45.2172953" lon="10.7173943"><ele>27.0</ele><time>2026-05-02T14:35:29.051Z</time></trkpt><trkpt lat="45.2172256" lon="10.7173362"><ele>27.0</ele><time>2026-05-02T14:35:31.05Z</time></trkpt><trkpt lat="45.2171477" lon="10.7172739"><ele>27.0</ele><time>2026-05-02T14:35:33.049Z</time></trkpt><trkpt lat="45.2170703" lon="10.7172139"><ele>27.0</ele><time>2026-05-02T14:35:35.05Z</time></trkpt><trkpt lat="45.216998" lon="10.7171504"><ele>27.0</ele><time>2026-05-02T14:35:37.05Z</time></trkpt><trkpt lat="45.21693" lon="10.7170899"><ele>27.0</ele><time>2026-05-02T14:35:39.05Z</time></trkpt><trkpt lat="45.2168636" lon="10.7170275"><ele>27.0</ele><time>2026-05-02T14:35:41.048Z</time></trkpt><trkpt lat="45.2167938" lon="10.7169683"><ele>27.0</ele><time>2026-05-02T14:35:43.05Z</time></trkpt><trkpt lat="45.2167279" lon="10.7169054"><ele>27.0</ele><time>2026-05-02T14:35:45.05Z</time></trkpt><trkpt lat="45.2166607" lon="10.7168443"><ele>27.0</ele><time>2026-05-02T14:35:47.049Z</time></trkpt><trkpt lat="45.2165911" lon="10.7167879"><ele>27.0</ele><time>2026-05-02T14:35:49.048Z</time></trkpt><trkpt lat="45.216518" lon="10.7167303"><ele>27.0</ele><time>2026-05-02T14:35:51.049Z</time></trkpt><trkpt lat="45.2164449" lon="10.716671"><ele>27.0</ele><time>2026-05-02T14:35:53.05Z</time></trkpt><trkpt lat="45.2163735" lon="10.7166157"><ele>27.166666666666668</ele><time>2026-05-02T14:35:55.05Z</time></trkpt><trkpt lat="45.216304" lon="10.7165561"><ele>27.333333333333336</ele><time>2026-05-02T14:35:57.049Z</time></trkpt><trkpt lat="45.2162345" lon="10.7164906"><ele>27.5</ele><time>2026-05-02T14:35:59.049Z</time></trkpt><trkpt lat="45.2161629" lon="10.7164249"><ele>27.666666666666668</ele><time>2026-05-02T14:36:01.049Z</time></trkpt><trkpt lat="45.2160901" lon="10.7163608"><ele>27.833333333333336</ele><time>2026-05-02T14:36:03.049Z</time></trkpt><trkpt lat="45.2160164" lon="10.7163003"><ele>28.0</ele><time>2026-05-02T14:36:05.05Z</time></trkpt><trkpt lat="45.2159453" lon="10.7162377"><ele>28.000000000000004</ele><time>2026-05-02T14:36:07.049Z</time></trkpt><trkpt lat="45.2158705" lon="10.7161805"><ele>28.0</ele><time>2026-05-02T14:36:09.05Z</time></trkpt><trkpt lat="45.2157976" lon="10.7161169"><ele>28.0</ele><time>2026-05-02T14:36:11.05Z</time></trkpt><trkpt lat="45.2157207" lon="10.716056"><ele>28.0</ele><time>2026-05-02T14:36:13.049Z</time></trkpt><trkpt lat="45.2156499" lon="10.7159922"><ele>28.000000000000004</ele><time>2026-05-02T14:36:15.049Z</time></trkpt><trkpt lat="45.2155778" lon="10.7159312"><ele>28.0</ele><time>2026-05-02T14:36:17.049Z</time></trkpt><trkpt lat="45.2155031" lon="10.7158723"><ele>28.000000000000004</ele><time>2026-05-02T14:36:19.05Z</time></trkpt><trkpt lat="45.215432" lon="10.7158119"><ele>28.0</ele><time>2026-05-02T14:36:21.049Z</time></trkpt><trkpt lat="45.2153613" lon="10.7157501"><ele>28.0</ele><time>2026-05-02T14:36:23.05Z</time></trkpt><trkpt lat="45.2152924" lon="10.7156881"><ele>28.0</ele><time>2026-05-02T14:36:25.049Z</time></trkpt><trkpt lat="45.2152233" lon="10.7156256"><ele>28.000000000000004</ele><time>2026-05-02T14:36:27.05Z</time></trkpt><trkpt lat="45.2151525" lon="10.715561"><ele>28.0</ele><time>2026-05-02T14:36:29.05Z</time></trkpt><trkpt lat="45.2150816" lon="10.7154989"><ele>28.0</ele><time>2026-05-02T14:36:31.049Z</time></trkpt><trkpt lat="45.2150113" lon="10.7154334"><ele>27.999999999999996</ele><time>2026-05-02T14:36:33.049Z</time></trkpt><trkpt lat="45.2149399" lon="10.7153708"><ele>27.999999999999996</ele><time>2026-05-02T14:36:35.05Z</time></trkpt><trkpt lat="45.2148666" lon="10.7153119"><ele>28.0</ele><time>2026-05-02T14:36:37.049Z</time></trkpt><trkpt lat="45.214762" lon="10.7152217"><ele>28.0</ele><time>2026-05-02T14:36:40.051Z</time></trkpt><trkpt lat="45.2146935" lon="10.7151639"><ele>28.166666666666668</ele><time>2026-05-02T14:36:42.05Z</time></trkpt><trkpt lat="45.2146259" lon="10.7151006"><ele>28.333333333333336</ele><time>2026-05-02T14:36:44.049Z</time></trkpt><trkpt lat="45.214554" lon="10.7150427"><ele>28.5</ele><time>2026-05-02T14:36:46.049Z</time></trkpt><trkpt lat="45.2144836" lon="10.7149826"><ele>28.666666666666664</ele><time>2026-05-02T14:36:48.05Z</time></trkpt><trkpt lat="45.2144142" lon="10.7149271"><ele>28.833333333333332</ele><time>2026-05-02T14:36:50.049Z</time></trkpt><trkpt lat="45.2143469" lon="10.7148759"><ele>29.0</ele><time>2026-05-02T14:36:52.05Z</time></trkpt><trkpt lat="45.2142829" lon="10.7148221"><ele>29.000000000000004</ele><time>2026-05-02T14:36:54.048Z</time></trkpt><trkpt lat="45.2142241" lon="10.7147682"><ele>29.0</ele><time>2026-05-02T14:36:56.048Z</time></trkpt><trkpt lat="45.214163" lon="10.7147198"><ele>29.000000000000004</ele><time>2026-05-02T14:36:58.05Z</time></trkpt><trkpt lat="45.2141003" lon="10.7146838"><ele>29.000000000000004</ele><time>2026-05-02T14:37:00.05Z</time></trkpt><trkpt lat="45.2140422" lon="10.7146451"><ele>29.0</ele><time>2026-05-02T14:37:02.048Z</time></trkpt><trkpt lat="45.2139674" lon="10.7146004"><ele>29.000000000000004</ele><time>2026-05-02T14:37:05.049Z</time></trkpt><trkpt lat="45.213891" lon="10.714536"><ele>29.000000000000004</ele><time>2026-05-02T14:37:08.049Z</time></trkpt><trkpt lat="45.2138385" lon="10.7144752"><ele>28.4</ele><time>2026-05-02T14:37:10.049Z</time></trkpt><trkpt lat="45.2137764" lon="10.7144092"><ele>27.799999999999997</ele><time>2026-05-02T14:37:12.05Z</time></trkpt><trkpt lat="45.2137099" lon="10.7143343"><ele>27.200000000000003</ele><time>2026-05-02T14:37:14.048Z</time></trkpt><trkpt lat="45.2136367" lon="10.7142602"><ele>26.6</ele><time>2026-05-02T14:37:16.049Z</time></trkpt><trkpt lat="45.2135511" lon="10.7141776"><ele>26.0</ele><time>2026-05-02T14:37:18.048Z</time></trkpt><trkpt lat="45.2134566" lon="10.7141024"><ele>26.0</ele><time>2026-05-02T14:37:20.049Z</time></trkpt><trkpt lat="45.2133677" lon="10.7140206"><ele>26.0</ele><time>2026-05-02T14:37:22.049Z</time></trkpt><trkpt lat="45.2132746" lon="10.713955"><ele>26.0</ele><time>2026-05-02T14:37:24.05Z</time></trkpt><trkpt lat="45.2131883" lon="10.7138878"><ele>26.0</ele><time>2026-05-02T14:37:26.05Z</time></trkpt><trkpt lat="45.2131093" lon="10.7138331"><ele>26.0</ele><time>2026-05-02T14:37:28.049Z</time></trkpt><trkpt lat="45.2130319" lon="10.7137655"><ele>26.166666666666664</ele><time>2026-05-02T14:37:30.049Z</time></trkpt><trkpt lat="45.2129551" lon="10.7137088"><ele>26.333333333333332</ele><time>2026-05-02T14:37:32.049Z</time></trkpt><trkpt lat="45.2128747" lon="10.7136545"><ele>26.5</ele><time>2026-05-02T14:37:34.05Z</time></trkpt><trkpt lat="45.2127948" lon="10.7136028"><ele>26.666666666666664</ele><time>2026-05-02T14:37:36.049Z</time></trkpt><trkpt lat="45.2127142" lon="10.7135493"><ele>26.833333333333332</ele><time>2026-05-02T14:37:38.049Z</time></trkpt><trkpt lat="45.2126294" lon="10.7134986"><ele>27.0</ele><time>2026-05-02T14:37:40.05Z</time></trkpt><trkpt lat="45.2125489" lon="10.7134503"><ele>27.0</ele><time>2026-05-02T14:37:42.049Z</time></trkpt><trkpt lat="45.2124659" lon="10.7133987"><ele>27.0</ele><time>2026-05-02T14:37:44.049Z</time></trkpt><trkpt lat="45.2123826" lon="10.7133549"><ele>27.0</ele><time>2026-05-02T14:37:46.049Z</time></trkpt><trkpt lat="45.2122997" lon="10.713313"><ele>27.0</ele><time>2026-05-02T14:37:48.05Z</time></trkpt><trkpt lat="45.2122162" lon="10.7132746"><ele>27.0</ele><time>2026-05-02T14:37:50.05Z</time></trkpt><trkpt lat="45.2121361" lon="10.7132347"><ele>27.0</ele><time>2026-05-02T14:37:52.049Z</time></trkpt><trkpt lat="45.2120562" lon="10.7131976"><ele>27.0</ele><time>2026-05-02T14:37:54.048Z</time></trkpt><trkpt lat="45.2119757" lon="10.7131653"><ele>27.0</ele><time>2026-05-02T14:37:56.049Z</time></trkpt><trkpt lat="45.2118941" lon="10.7131366"><ele>27.0</ele><time>2026-05-02T14:37:58.05Z</time></trkpt><trkpt lat="45.2118129" lon="10.7131036"><ele>27.0</ele><time>2026-05-02T14:38:00.049Z</time></trkpt><trkpt lat="45.2117278" lon="10.7130712"><ele>27.0</ele><time>2026-05-02T14:38:02.05Z</time></trkpt><trkpt lat="45.2116407" lon="10.7130454"><ele>27.0</ele><time>2026-05-02T14:38:04.049Z</time></trkpt><trkpt lat="45.2115538" lon="10.713019"><ele>26.666666666666668</ele><time>2026-05-02T14:38:06.049Z</time></trkpt><trkpt lat="45.2114748" lon="10.7129876"><ele>26.333333333333336</ele><time>2026-05-02T14:38:08.048Z</time></trkpt><trkpt lat="45.2113964" lon="10.7129608"><ele>26.0</ele><time>2026-05-02T14:38:10.05Z</time></trkpt><trkpt lat="45.2113124" lon="10.7129395"><ele>25.666666666666668</ele><time>2026-05-02T14:38:12.05Z</time></trkpt><trkpt lat="45.2112252" lon="10.7129252"><ele>25.333333333333336</ele><time>2026-05-02T14:38:14.048Z</time></trkpt><trkpt lat="45.2111377" lon="10.7129046"><ele>25.0</ele><time>2026-05-02T14:38:16.049Z</time></trkpt><trkpt lat="45.2110506" lon="10.71288"><ele>25.000000000000004</ele><time>2026-05-02T14:38:18.048Z</time></trkpt><trkpt lat="45.2109643" lon="10.7128638"><ele>25.0</ele><time>2026-05-02T14:38:20.049Z</time></trkpt><trkpt lat="45.2108797" lon="10.712846"><ele>25.0</ele><time>2026-05-02T14:38:22.049Z</time></trkpt><trkpt lat="45.2107952" lon="10.7128317"><ele>25.0</ele><time>2026-05-02T14:38:24.05Z</time></trkpt><trkpt lat="45.2107095" lon="10.7128137"><ele>25.000000000000004</ele><time>2026-05-02T14:38:26.049Z</time></trkpt><trkpt lat="45.2106218" lon="10.7127979"><ele>25.0</ele><time>2026-05-02T14:38:28.049Z</time></trkpt><trkpt lat="45.2105355" lon="10.7127831"><ele>25.166666666666668</ele><time>2026-05-02T14:38:30.049Z</time></trkpt><trkpt lat="45.2104474" lon="10.7127738"><ele>25.333333333333336</ele><time>2026-05-02T14:38:32.047Z</time></trkpt><trkpt lat="45.2103594" lon="10.712763"><ele>25.5</ele><time>2026-05-02T14:38:34.05Z</time></trkpt><trkpt lat="45.2102759" lon="10.7127398"><ele>25.666666666666664</ele><time>2026-05-02T14:38:36.05Z</time></trkpt><trkpt lat="45.2101946" lon="10.7127083"><ele>25.833333333333332</ele><time>2026-05-02T14:38:38.05Z</time></trkpt><trkpt lat="45.2101082" lon="10.7126856"><ele>26.0</ele><time>2026-05-02T14:38:40.049Z</time></trkpt><trkpt lat="45.2100152" lon="10.7126585"><ele>26.0</ele><time>2026-05-02T14:38:42.049Z</time></trkpt><trkpt lat="45.2099221" lon="10.7126288"><ele>26.0</ele><time>2026-05-02T14:38:44.049Z</time></trkpt><trkpt lat="45.2098224" lon="10.7126129"><ele>26.0</ele><time>2026-05-02T14:38:46.049Z</time></trkpt><trkpt lat="45.2097154" lon="10.7125974"><ele>26.0</ele><time>2026-05-02T14:38:48.049Z</time></trkpt><trkpt lat="45.209598" lon="10.7125785"><ele>26.0</ele><time>2026-05-02T14:38:50.05Z</time></trkpt><trkpt lat="45.2094844" lon="10.7125532"><ele>25.5</ele><time>2026-05-02T14:38:52.05Z</time></trkpt><trkpt lat="45.2093692" lon="10.7125241"><ele>25.0</ele><time>2026-05-02T14:38:54.048Z</time></trkpt><trkpt lat="45.2092519" lon="10.7125074"><ele>24.5</ele><time>2026-05-02T14:38:56.049Z</time></trkpt><trkpt lat="45.209137" lon="10.7125029"><ele>24.0</ele><time>2026-05-02T14:38:58.048Z</time></trkpt><trkpt lat="45.2090281" lon="10.7124886"><ele>24.2</ele><time>2026-05-02T14:39:00.049Z</time></trkpt><trkpt lat="45.2089256" lon="10.7124808"><ele>24.4</ele><time>2026-05-02T14:39:02.048Z</time></trkpt><trkpt lat="45.2088282" lon="10.712469"><ele>24.6</ele><time>2026-05-02T14:39:04.048Z</time></trkpt><trkpt lat="45.208738" lon="10.7124602"><ele>24.8</ele><time>2026-05-02T14:39:06.049Z</time></trkpt><trkpt lat="45.2086455" lon="10.7124455"><ele>25.0</ele><time>2026-05-02T14:39:08.049Z</time></trkpt><trkpt lat="45.2085645" lon="10.7124273"><ele>25.000000000000004</ele><time>2026-05-02T14:39:10.049Z</time></trkpt><trkpt lat="45.2084801" lon="10.7124129"><ele>25.0</ele><time>2026-05-02T14:39:12.05Z</time></trkpt><trkpt lat="45.2083971" lon="10.712397"><ele>25.0</ele><time>2026-05-02T14:39:14.049Z</time></trkpt><trkpt lat="45.2083156" lon="10.7123872"><ele>25.0</ele><time>2026-05-02T14:39:16.048Z</time></trkpt><trkpt lat="45.208233" lon="10.712377"><ele>25.000000000000004</ele><time>2026-05-02T14:39:18.047Z</time></trkpt><trkpt lat="45.2081531" lon="10.7123641"><ele>25.0</ele><time>2026-05-02T14:39:20.048Z</time></trkpt><trkpt lat="45.2080763" lon="10.7123463"><ele>25.333333333333336</ele><time>2026-05-02T14:39:22.048Z</time></trkpt><trkpt lat="45.207994" lon="10.7123225"><ele>25.666666666666668</ele><time>2026-05-02T14:39:24.05Z</time></trkpt><trkpt lat="45.2079147" lon="10.7122972"><ele>26.0</ele><time>2026-05-02T14:39:26.048Z</time></trkpt><trkpt lat="45.2078357" lon="10.7122801"><ele>26.333333333333336</ele><time>2026-05-02T14:39:28.048Z</time></trkpt><trkpt lat="45.2077575" lon="10.7122646"><ele>26.666666666666668</ele><time>2026-05-02T14:39:30.048Z</time></trkpt><trkpt lat="45.2076887" lon="10.7122374"><ele>27.0</ele><time>2026-05-02T14:39:32.049Z</time></trkpt><trkpt lat="45.207614" lon="10.7122186"><ele>27.0</ele><time>2026-05-02T14:39:34.05Z</time></trkpt><trkpt lat="45.2075348" lon="10.7122066"><ele>27.0</ele><time>2026-05-02T14:39:36.048Z</time></trkpt><trkpt lat="45.2074545" lon="10.7122027"><ele>27.0</ele><time>2026-05-02T14:39:38.049Z</time></trkpt><trkpt lat="45.2073792" lon="10.7121903"><ele>27.0</ele><time>2026-05-02T14:39:40.049Z</time></trkpt><trkpt lat="45.2073044" lon="10.7121743"><ele>27.0</ele><time>2026-05-02T14:39:42.048Z</time></trkpt><trkpt lat="45.2072296" lon="10.712157"><ele>27.0</ele><time>2026-05-02T14:39:44.048Z</time></trkpt><trkpt lat="45.207155" lon="10.7121402"><ele>26.833333333333332</ele><time>2026-05-02T14:39:46.048Z</time></trkpt><trkpt lat="45.2070753" lon="10.7121274"><ele>26.666666666666664</ele><time>2026-05-02T14:39:48.05Z</time></trkpt><trkpt lat="45.2069943" lon="10.7121151"><ele>26.5</ele><time>2026-05-02T14:39:50.048Z</time></trkpt><trkpt lat="45.2069134" lon="10.7121086"><ele>26.333333333333332</ele><time>2026-05-02T14:39:52.049Z</time></trkpt><trkpt lat="45.2068362" lon="10.7120952"><ele>26.166666666666664</ele><time>2026-05-02T14:39:54.048Z</time></trkpt><trkpt lat="45.2067604" lon="10.7120806"><ele>26.0</ele><time>2026-05-02T14:39:56.049Z</time></trkpt><trkpt lat="45.2066855" lon="10.7120738"><ele>25.999999999999996</ele><time>2026-05-02T14:39:58.048Z</time></trkpt><trkpt lat="45.2066116" lon="10.7120605"><ele>26.0</ele><time>2026-05-02T14:40:00.047Z</time></trkpt><trkpt lat="45.206538" lon="10.7120436"><ele>26.0</ele><time>2026-05-02T14:40:02.049Z</time></trkpt><trkpt lat="45.2064652" lon="10.7120275"><ele>26.0</ele><time>2026-05-02T14:40:04.049Z</time></trkpt><trkpt lat="45.2063882" lon="10.7120167"><ele>25.999999999999996</ele><time>2026-05-02T14:40:06.05Z</time></trkpt><trkpt lat="45.2063071" lon="10.7120036"><ele>26.0</ele><time>2026-05-02T14:40:08.049Z</time></trkpt><trkpt lat="45.2062283" lon="10.7119904"><ele>25.333333333333332</ele><time>2026-05-02T14:40:10.048Z</time></trkpt><trkpt lat="45.2061544" lon="10.7119657"><ele>24.666666666666664</ele><time>2026-05-02T14:40:12.049Z</time></trkpt><trkpt lat="45.2060808" lon="10.7119499"><ele>24.0</ele><time>2026-05-02T14:40:14.048Z</time></trkpt><trkpt lat="45.206007" lon="10.7119416"><ele>23.333333333333332</ele><time>2026-05-02T14:40:16.049Z</time></trkpt><trkpt lat="45.205925" lon="10.7119313"><ele>22.666666666666664</ele><time>2026-05-02T14:40:18.048Z</time></trkpt><trkpt lat="45.2058394" lon="10.7119333"><ele>22.0</ele><time>2026-05-02T14:40:20.05Z</time></trkpt><trkpt lat="45.2057599" lon="10.7119197"><ele>22.0</ele><time>2026-05-02T14:40:22.049Z</time></trkpt><trkpt lat="45.2056788" lon="10.711913"><ele>22.0</ele><time>2026-05-02T14:40:24.049Z</time></trkpt><trkpt lat="45.2055992" lon="10.7119044"><ele>22.0</ele><time>2026-05-02T14:40:26.05Z</time></trkpt><trkpt lat="45.2055191" lon="10.7118962"><ele>22.0</ele><time>2026-05-02T14:40:28.048Z</time></trkpt><trkpt lat="45.2054334" lon="10.7118835"><ele>22.0</ele><time>2026-05-02T14:40:30.049Z</time></trkpt><trkpt lat="45.2053504" lon="10.7118765"><ele>22.0</ele><time>2026-05-02T14:40:32.049Z</time></trkpt><trkpt lat="45.2052718" lon="10.7118751"><ele>22.333333333333332</ele><time>2026-05-02T14:40:34.049Z</time></trkpt><trkpt lat="45.2051896" lon="10.7118794"><ele>22.666666666666664</ele><time>2026-05-02T14:40:36.05Z</time></trkpt><trkpt lat="45.2051016" lon="10.7118761"><ele>23.0</ele><time>2026-05-02T14:40:38.048Z</time></trkpt><trkpt lat="45.2050174" lon="10.7118674"><ele>23.333333333333332</ele><time>2026-05-02T14:40:40.05Z</time></trkpt><trkpt lat="45.2049321" lon="10.7118642"><ele>23.666666666666668</ele><time>2026-05-02T14:40:42.049Z</time></trkpt><trkpt lat="45.2048465" lon="10.7118629"><ele>24.0</ele><time>2026-05-02T14:40:44.047Z</time></trkpt><trkpt lat="45.2047621" lon="10.7118666"><ele>24.0</ele><time>2026-05-02T14:40:46.05Z</time></trkpt><trkpt lat="45.2046716" lon="10.7118655"><ele>24.0</ele><time>2026-05-02T14:40:48.049Z</time></trkpt><trkpt lat="45.2045826" lon="10.7118632"><ele>24.0</ele><time>2026-05-02T14:40:50.049Z</time></trkpt><trkpt lat="45.2044921" lon="10.71186"><ele>24.0</ele><time>2026-05-02T14:40:52.049Z</time></trkpt><trkpt lat="45.2044063" lon="10.7118597"><ele>24.0</ele><time>2026-05-02T14:40:54.049Z</time></trkpt><trkpt lat="45.2043146" lon="10.7118631"><ele>24.0</ele><time>2026-05-02T14:40:56.047Z</time></trkpt><trkpt lat="45.2042245" lon="10.7118668"><ele>24.0</ele><time>2026-05-02T14:40:58.049Z</time></trkpt><trkpt lat="45.2041367" lon="10.7118724"><ele>24.0</ele><time>2026-05-02T14:41:00.049Z</time></trkpt><trkpt lat="45.2040481" lon="10.7118859"><ele>24.0</ele><time>2026-05-02T14:41:02.049Z</time></trkpt><trkpt lat="45.2039452" lon="10.7119172"><ele>24.0</ele><time>2026-05-02T14:41:04.047Z</time></trkpt><trkpt lat="45.2038283" lon="10.7119365"><ele>24.0</ele><time>2026-05-02T14:41:06.05Z</time></trkpt><trkpt lat="45.2037123" lon="10.7119675"><ele>24.0</ele><time>2026-05-02T14:41:08.049Z</time></trkpt><trkpt lat="45.2035946" lon="10.7119784"><ele>24.0</ele><time>2026-05-02T14:41:10.049Z</time></trkpt><trkpt lat="45.203475" lon="10.7119982"><ele>24.0</ele><time>2026-05-02T14:41:12.048Z</time></trkpt><trkpt lat="45.2033666" lon="10.7120192"><ele>24.0</ele><time>2026-05-02T14:41:14.049Z</time></trkpt><trkpt lat="45.2032621" lon="10.7120424"><ele>24.0</ele><time>2026-05-02T14:41:16.049Z</time></trkpt><trkpt lat="45.2031621" lon="10.7120663"><ele>24.0</ele><time>2026-05-02T14:41:18.048Z</time></trkpt><trkpt lat="45.2030701" lon="10.7120965"><ele>24.0</ele><time>2026-05-02T14:41:20.049Z</time></trkpt><trkpt lat="45.2029714" lon="10.7121095"><ele>24.0</ele><time>2026-05-02T14:41:22.049Z</time></trkpt><trkpt lat="45.2028866" lon="10.712133"><ele>24.0</ele><time>2026-05-02T14:41:24.048Z</time></trkpt><trkpt lat="45.2028048" lon="10.7121504"><ele>24.0</ele><time>2026-05-02T14:41:26.049Z</time></trkpt><trkpt lat="45.202717" lon="10.7121746"><ele>24.0</ele><time>2026-05-02T14:41:28.048Z</time></trkpt><trkpt lat="45.2026365" lon="10.7122113"><ele>24.0</ele><time>2026-05-02T14:41:30.049Z</time></trkpt><trkpt lat="45.2025473" lon="10.7122345"><ele>24.0</ele><time>2026-05-02T14:41:32.048Z</time></trkpt><trkpt lat="45.2024555" lon="10.7122615"><ele>24.0</ele><time>2026-05-02T14:41:34.049Z</time></trkpt><trkpt lat="45.2023731" lon="10.7122713"><ele>24.0</ele><time>2026-05-02T14:41:36.048Z</time></trkpt><trkpt lat="45.2022951" lon="10.7122853"><ele>24.166666666666668</ele><time>2026-05-02T14:41:38.047Z</time></trkpt><trkpt lat="45.2022154" lon="10.7123003"><ele>24.333333333333336</ele><time>2026-05-02T14:41:40.049Z</time></trkpt><trkpt lat="45.2021336" lon="10.7123201"><ele>24.5</ele><time>2026-05-02T14:41:42.049Z</time></trkpt><trkpt lat="45.2020588" lon="10.7123459"><ele>24.666666666666668</ele><time>2026-05-02T14:41:44.049Z</time></trkpt><trkpt lat="45.2019855" lon="10.7123644"><ele>24.833333333333336</ele><time>2026-05-02T14:41:46.049Z</time></trkpt><trkpt lat="45.201904" lon="10.7123921"><ele>25.0</ele><time>2026-05-02T14:41:48.049Z</time></trkpt><trkpt lat="45.2018239" lon="10.7124235"><ele>25.000000000000004</ele><time>2026-05-02T14:41:50.048Z</time></trkpt><trkpt lat="45.2017448" lon="10.7124482"><ele>25.0</ele><time>2026-05-02T14:41:52.049Z</time></trkpt><trkpt lat="45.2016745" lon="10.7124721"><ele>25.0</ele><time>2026-05-02T14:41:54.048Z</time></trkpt><trkpt lat="45.2016058" lon="10.7124893"><ele>25.0</ele><time>2026-05-02T14:41:56.048Z</time></trkpt><trkpt lat="45.2015307" lon="10.7125101"><ele>25.0</ele><time>2026-05-02T14:41:59.049Z</time></trkpt><trkpt lat="45.2014569" lon="10.7125366"><ele>25.000000000000004</ele><time>2026-05-02T14:42:02.049Z</time></trkpt><trkpt lat="45.2013966" lon="10.7125653"><ele>25.0</ele><time>2026-05-02T14:42:04.047Z</time></trkpt><trkpt lat="45.2013292" lon="10.7126016"><ele>24.571428571428573</ele><time>2026-05-02T14:42:06.049Z</time></trkpt><trkpt lat="45.2012545" lon="10.7126022"><ele>24.142857142857142</ele><time>2026-05-02T14:42:08.048Z</time></trkpt><trkpt lat="45.201184" lon="10.7126233"><ele>23.714285714285715</ele><time>2026-05-02T14:42:10.049Z</time></trkpt><trkpt lat="45.2011145" lon="10.7126362"><ele>23.285714285714285</ele><time>2026-05-02T14:42:12.049Z</time></trkpt><trkpt lat="45.2010432" lon="10.7126496"><ele>22.857142857142858</ele><time>2026-05-02T14:42:14.048Z</time></trkpt><trkpt lat="45.2009697" lon="10.7126705"><ele>22.42857142857143</ele><time>2026-05-02T14:42:16.048Z</time></trkpt><trkpt lat="45.2008923" lon="10.7126829"><ele>22.0</ele><time>2026-05-02T14:42:18.047Z</time></trkpt><trkpt lat="45.2008183" lon="10.7126958"><ele>22.0</ele><time>2026-05-02T14:42:20.049Z</time></trkpt><trkpt lat="45.2007395" lon="10.7127125"><ele>22.0</ele><time>2026-05-02T14:42:22.049Z</time></trkpt><trkpt lat="45.2006634" lon="10.712732"><ele>22.0</ele><time>2026-05-02T14:42:24.049Z</time></trkpt><trkpt lat="45.2005845" lon="10.7127571"><ele>22.0</ele><time>2026-05-02T14:42:26.048Z</time></trkpt><trkpt lat="45.2005018" lon="10.7127816"><ele>22.0</ele><time>2026-05-02T14:42:28.049Z</time></trkpt><trkpt lat="45.2004165" lon="10.7128082"><ele>22.0</ele><time>2026-05-02T14:42:30.048Z</time></trkpt><trkpt lat="45.2003338" lon="10.7128334"><ele>22.333333333333332</ele><time>2026-05-02T14:42:32.049Z</time></trkpt><trkpt lat="45.2002507" lon="10.7128529"><ele>22.666666666666664</ele><time>2026-05-02T14:42:34.049Z</time></trkpt><trkpt lat="45.2001706" lon="10.7128738"><ele>23.0</ele><time>2026-05-02T14:42:36.049Z</time></trkpt><trkpt lat="45.2000892" lon="10.7129021"><ele>23.333333333333332</ele><time>2026-05-02T14:42:38.049Z</time></trkpt><trkpt lat="45.2000065" lon="10.7129244"><ele>23.666666666666668</ele><time>2026-05-02T14:42:40.047Z</time></trkpt><trkpt lat="45.1999227" lon="10.7129448"><ele>24.0</ele><time>2026-05-02T14:42:42.048Z</time></trkpt><trkpt lat="45.1998399" lon="10.7129685"><ele>23.333333333333332</ele><time>2026-05-02T14:42:44.049Z</time></trkpt><trkpt lat="45.1997605" lon="10.7129882"><ele>22.666666666666668</ele><time>2026-05-02T14:42:46.047Z</time></trkpt><trkpt lat="45.1996771" lon="10.7130065"><ele>22.0</ele><time>2026-05-02T14:42:48.048Z</time></trkpt><trkpt lat="45.1995925" lon="10.7130281"><ele>21.333333333333336</ele><time>2026-05-02T14:42:50.049Z</time></trkpt><trkpt lat="45.1995084" lon="10.7130582"><ele>20.666666666666668</ele><time>2026-05-02T14:42:52.048Z</time></trkpt><trkpt lat="45.1994277" lon="10.7130829"><ele>20.0</ele><time>2026-05-02T14:42:54.048Z</time></trkpt><trkpt lat="45.1993485" lon="10.7131097"><ele>20.0</ele><time>2026-05-02T14:42:56.049Z</time></trkpt><trkpt lat="45.1992679" lon="10.7131382"><ele>20.0</ele><time>2026-05-02T14:42:58.048Z</time></trkpt><trkpt lat="45.1991883" lon="10.7131637"><ele>20.0</ele><time>2026-05-02T14:43:00.047Z</time></trkpt><trkpt lat="45.1991076" lon="10.7131915"><ele>20.0</ele><time>2026-05-02T14:43:02.049Z</time></trkpt><trkpt lat="45.1990233" lon="10.7132204"><ele>20.0</ele><time>2026-05-02T14:43:04.047Z</time></trkpt><trkpt lat="45.19894" lon="10.7132538"><ele>20.0</ele><time>2026-05-02T14:43:06.049Z</time></trkpt><trkpt lat="45.1988608" lon="10.7132967"><ele>20.166666666666668</ele><time>2026-05-02T14:43:08.048Z</time></trkpt><trkpt lat="45.1987853" lon="10.713348"><ele>20.333333333333336</ele><time>2026-05-02T14:43:10.048Z</time></trkpt><trkpt lat="45.198712" lon="10.7133974"><ele>20.5</ele><time>2026-05-02T14:43:12.047Z</time></trkpt><trkpt lat="45.1986401" lon="10.7134517"><ele>20.666666666666668</ele><time>2026-05-02T14:43:14.048Z</time></trkpt><trkpt lat="45.1985668" lon="10.7135103"><ele>20.833333333333332</ele><time>2026-05-02T14:43:16.048Z</time></trkpt><trkpt lat="45.1984952" lon="10.7135683"><ele>21.0</ele><time>2026-05-02T14:43:18.048Z</time></trkpt><trkpt lat="45.1984243" lon="10.713625"><ele>21.166666666666668</ele><time>2026-05-02T14:43:20.049Z</time></trkpt><trkpt lat="45.1983552" lon="10.7136868"><ele>21.333333333333332</ele><time>2026-05-02T14:43:22.047Z</time></trkpt><trkpt lat="45.1982835" lon="10.713744"><ele>21.5</ele><time>2026-05-02T14:43:24.048Z</time></trkpt><trkpt lat="45.1982128" lon="10.7137988"><ele>21.666666666666664</ele><time>2026-05-02T14:43:26.048Z</time></trkpt><trkpt lat="45.1981393" lon="10.7138564"><ele>21.833333333333332</ele><time>2026-05-02T14:43:28.048Z</time></trkpt><trkpt lat="45.1980634" lon="10.7139183"><ele>22.0</ele><time>2026-05-02T14:43:30.047Z</time></trkpt><trkpt lat="45.1979863" lon="10.7139746"><ele>22.0</ele><time>2026-05-02T14:43:32.049Z</time></trkpt><trkpt lat="45.1979101" lon="10.7140328"><ele>22.0</ele><time>2026-05-02T14:43:34.049Z</time></trkpt><trkpt lat="45.1978346" lon="10.7140903"><ele>22.0</ele><time>2026-05-02T14:43:36.048Z</time></trkpt><trkpt lat="45.1977583" lon="10.7141442"><ele>22.0</ele><time>2026-05-02T14:43:38.049Z</time></trkpt><trkpt lat="45.1976858" lon="10.7141992"><ele>22.0</ele><time>2026-05-02T14:43:40.047Z</time></trkpt><trkpt lat="45.197615" lon="10.7142579"><ele>22.0</ele><time>2026-05-02T14:43:42.048Z</time></trkpt><trkpt lat="45.1975426" lon="10.7143151"><ele>22.0</ele><time>2026-05-02T14:43:44.048Z</time></trkpt><trkpt lat="45.1974722" lon="10.7143717"><ele>22.0</ele><time>2026-05-02T14:43:46.048Z</time></trkpt><trkpt lat="45.1974" lon="10.7144257"><ele>22.0</ele><time>2026-05-02T14:43:48.048Z</time></trkpt><trkpt lat="45.1973273" lon="10.7144784"><ele>22.0</ele><time>2026-05-02T14:43:50.048Z</time></trkpt><trkpt lat="45.1972565" lon="10.7145308"><ele>22.0</ele><time>2026-05-02T14:43:52.049Z</time></trkpt><trkpt lat="45.1971821" lon="10.7145792"><ele>22.0</ele><time>2026-05-02T14:43:54.047Z</time></trkpt><trkpt lat="45.1971051" lon="10.7146285"><ele>21.666666666666664</ele><time>2026-05-02T14:43:56.047Z</time></trkpt><trkpt lat="45.1970297" lon="10.7146787"><ele>21.333333333333332</ele><time>2026-05-02T14:43:58.047Z</time></trkpt><trkpt lat="45.1969531" lon="10.7147324"><ele>21.0</ele><time>2026-05-02T14:44:00.048Z</time></trkpt><trkpt lat="45.1968769" lon="10.7147777"><ele>20.666666666666668</ele><time>2026-05-02T14:44:02.049Z</time></trkpt><trkpt lat="45.1968031" lon="10.7148201"><ele>20.333333333333336</ele><time>2026-05-02T14:44:04.048Z</time></trkpt><trkpt lat="45.1967276" lon="10.7148622"><ele>20.0</ele><time>2026-05-02T14:44:06.049Z</time></trkpt><trkpt lat="45.1966511" lon="10.7149062"><ele>20.0</ele><time>2026-05-02T14:44:08.049Z</time></trkpt><trkpt lat="45.1965807" lon="10.7149556"><ele>20.0</ele><time>2026-05-02T14:44:10.049Z</time></trkpt><trkpt lat="45.1965094" lon="10.7150082"><ele>20.0</ele><time>2026-05-02T14:44:12.048Z</time></trkpt><trkpt lat="45.1964304" lon="10.7150731"><ele>20.0</ele><time>2026-05-02T14:44:14.049Z</time></trkpt><trkpt lat="45.1963573" lon="10.7151485"><ele>20.0</ele><time>2026-05-02T14:44:16.049Z</time></trkpt><trkpt lat="45.1962916" lon="10.7152257"><ele>20.0</ele><time>2026-05-02T14:44:18.049Z</time></trkpt><trkpt lat="45.1962285" lon="10.7153142"><ele>20.166666666666668</ele><time>2026-05-02T14:44:20.046Z</time></trkpt><trkpt lat="45.1961783" lon="10.715409"><ele>20.333333333333336</ele><time>2026-05-02T14:44:22.049Z</time></trkpt><trkpt lat="45.1961339" lon="10.7155056"><ele>20.5</ele><time>2026-05-02T14:44:24.048Z</time></trkpt><trkpt lat="45.1960861" lon="10.7156118"><ele>20.666666666666668</ele><time>2026-05-02T14:44:26.049Z</time></trkpt><trkpt lat="45.1960418" lon="10.7157178"><ele>20.833333333333332</ele><time>2026-05-02T14:44:28.049Z</time></trkpt><trkpt lat="45.196001" lon="10.7158221"><ele>21.0</ele><time>2026-05-02T14:44:30.048Z</time></trkpt><trkpt lat="45.195959" lon="10.7159268"><ele>21.0</ele><time>2026-05-02T14:44:32.048Z</time></trkpt><trkpt lat="45.1959198" lon="10.7160311"><ele>21.0</ele><time>2026-05-02T14:44:34.049Z</time></trkpt><trkpt lat="45.1958817" lon="10.7161371"><ele>21.0</ele><time>2026-05-02T14:44:36.048Z</time></trkpt><trkpt lat="45.1958414" lon="10.7162414"><ele>21.0</ele><time>2026-05-02T14:44:38.049Z</time></trkpt><trkpt lat="45.1957972" lon="10.7163463"><ele>21.0</ele><time>2026-05-02T14:44:40.048Z</time></trkpt><trkpt lat="45.1957503" lon="10.716454"><ele>21.0</ele><time>2026-05-02T14:44:42.048Z</time></trkpt><trkpt lat="45.1957092" lon="10.7165639"><ele>20.666666666666668</ele><time>2026-05-02T14:44:44.049Z</time></trkpt><trkpt lat="45.1956682" lon="10.7166663"><ele>20.333333333333332</ele><time>2026-05-02T14:44:46.049Z</time></trkpt><trkpt lat="45.1956257" lon="10.7167739"><ele>20.0</ele><time>2026-05-02T14:44:48.048Z</time></trkpt><trkpt lat="45.1955868" lon="10.7168835"><ele>19.666666666666664</ele><time>2026-05-02T14:44:50.048Z</time></trkpt><trkpt lat="45.1955469" lon="10.7169899"><ele>19.333333333333332</ele><time>2026-05-02T14:44:52.047Z</time></trkpt><trkpt lat="45.1955051" lon="10.7170942"><ele>19.0</ele><time>2026-05-02T14:44:54.048Z</time></trkpt><trkpt lat="45.195465" lon="10.7171958"><ele>19.0</ele><time>2026-05-02T14:44:56.047Z</time></trkpt><trkpt lat="45.1954268" lon="10.7173016"><ele>19.0</ele><time>2026-05-02T14:44:58.048Z</time></trkpt><trkpt lat="45.1953848" lon="10.7174037"><ele>19.0</ele><time>2026-05-02T14:45:00.046Z</time></trkpt><trkpt lat="45.1953447" lon="10.7175061"><ele>19.0</ele><time>2026-05-02T14:45:02.048Z</time></trkpt><trkpt lat="45.1953055" lon="10.7176119"><ele>19.0</ele><time>2026-05-02T14:45:04.048Z</time></trkpt><trkpt lat="45.1952642" lon="10.71771"><ele>19.0</ele><time>2026-05-02T14:45:06.048Z</time></trkpt><trkpt lat="45.1952287" lon="10.7178063"><ele>19.333333333333332</ele><time>2026-05-02T14:45:08.048Z</time></trkpt><trkpt lat="45.1951957" lon="10.7179009"><ele>19.666666666666664</ele><time>2026-05-02T14:45:10.048Z</time></trkpt><trkpt lat="45.1951607" lon="10.718"><ele>20.0</ele><time>2026-05-02T14:45:12.049Z</time></trkpt><trkpt lat="45.1951338" lon="10.7180884"><ele>20.333333333333332</ele><time>2026-05-02T14:45:14.048Z</time></trkpt><trkpt lat="45.1950989" lon="10.718213"><ele>20.666666666666668</ele><time>2026-05-02T14:45:17.048Z</time></trkpt><trkpt lat="45.1950852" lon="10.7183351"><ele>21.0</ele><time>2026-05-02T14:45:20.047Z</time></trkpt><trkpt lat="45.1950393" lon="10.7184197"><ele>21.0</ele><time>2026-05-02T14:45:23.047Z</time></trkpt><trkpt lat="45.1949863" lon="10.7185017"><ele>21.0</ele><time>2026-05-02T14:45:26.048Z</time></trkpt><trkpt lat="45.194936" lon="10.7186028"><ele>21.0</ele><time>2026-05-02T14:45:29.048Z</time></trkpt><trkpt lat="45.1948955" lon="10.7186861"><ele>21.0</ele><time>2026-05-02T14:45:31.047Z</time></trkpt><trkpt lat="45.1948546" lon="10.7187808"><ele>21.0</ele><time>2026-05-02T14:45:33.048Z</time></trkpt><trkpt lat="45.1948158" lon="10.7188808"><ele>21.0</ele><time>2026-05-02T14:45:35.048Z</time></trkpt><trkpt lat="45.1947748" lon="10.718979"><ele>21.0</ele><time>2026-05-02T14:45:37.048Z</time></trkpt><trkpt lat="45.1947309" lon="10.7190803"><ele>21.0</ele><time>2026-05-02T14:45:39.048Z</time></trkpt><trkpt lat="45.1946901" lon="10.7191787"><ele>21.0</ele><time>2026-05-02T14:45:41.048Z</time></trkpt><trkpt lat="45.19465" lon="10.7192802"><ele>21.0</ele><time>2026-05-02T14:45:43.048Z</time></trkpt><trkpt lat="45.1946087" lon="10.7193787"><ele>21.0</ele><time>2026-05-02T14:45:45.048Z</time></trkpt><trkpt lat="45.194565" lon="10.7194782"><ele>21.0</ele><time>2026-05-02T14:45:47.046Z</time></trkpt><trkpt lat="45.1945227" lon="10.7195807"><ele>21.0</ele><time>2026-05-02T14:45:49.048Z</time></trkpt><trkpt lat="45.1944817" lon="10.7196857"><ele>21.0</ele><time>2026-05-02T14:45:51.048Z</time></trkpt><trkpt lat="45.1944405" lon="10.7197886"><ele>21.0</ele><time>2026-05-02T14:45:53.049Z</time></trkpt><trkpt lat="45.1943986" lon="10.7198924"><ele>21.0</ele><time>2026-05-02T14:45:55.048Z</time></trkpt><trkpt lat="45.1943561" lon="10.7199967"><ele>21.0</ele><time>2026-05-02T14:45:57.048Z</time></trkpt><trkpt lat="45.1943115" lon="10.7200989"><ele>21.0</ele><time>2026-05-02T14:45:59.048Z</time></trkpt><trkpt lat="45.1942701" lon="10.7202065"><ele>21.166666666666668</ele><time>2026-05-02T14:46:01.048Z</time></trkpt><trkpt lat="45.1942274" lon="10.7203133"><ele>21.333333333333332</ele><time>2026-05-02T14:46:03.048Z</time></trkpt><trkpt lat="45.194186" lon="10.720423"><ele>21.5</ele><time>2026-05-02T14:46:05.047Z</time></trkpt><trkpt lat="45.194145" lon="10.720527"><ele>21.666666666666664</ele><time>2026-05-02T14:46:07.048Z</time></trkpt><trkpt lat="45.1941021" lon="10.7206314"><ele>21.833333333333332</ele><time>2026-05-02T14:46:09.048Z</time></trkpt><trkpt lat="45.1940601" lon="10.7207409"><ele>22.0</ele><time>2026-05-02T14:46:11.047Z</time></trkpt><trkpt lat="45.194017" lon="10.7208476"><ele>22.0</ele><time>2026-05-02T14:46:13.048Z</time></trkpt><trkpt lat="45.1939733" lon="10.7209522"><ele>22.0</ele><time>2026-05-02T14:46:15.047Z</time></trkpt><trkpt lat="45.193929" lon="10.7210586"><ele>22.0</ele><time>2026-05-02T14:46:17.047Z</time></trkpt><trkpt lat="45.1938835" lon="10.7211626"><ele>22.0</ele><time>2026-05-02T14:46:19.048Z</time></trkpt><trkpt lat="45.1938449" lon="10.721273"><ele>22.0</ele><time>2026-05-02T14:46:21.048Z</time></trkpt><trkpt lat="45.1938016" lon="10.7213889"><ele>22.0</ele><time>2026-05-02T14:46:23.047Z</time></trkpt><trkpt lat="45.1937573" lon="10.721502"><ele>22.0</ele><time>2026-05-02T14:46:25.048Z</time></trkpt><trkpt lat="45.1937123" lon="10.7216148"><ele>22.0</ele><time>2026-05-02T14:46:27.048Z</time></trkpt><trkpt lat="45.193674" lon="10.7217209"><ele>22.0</ele><time>2026-05-02T14:46:29.048Z</time></trkpt><trkpt lat="45.1936281" lon="10.7218297"><ele>22.0</ele><time>2026-05-02T14:46:31.046Z</time></trkpt><trkpt lat="45.1935848" lon="10.7219354"><ele>22.0</ele><time>2026-05-02T14:46:33.048Z</time></trkpt><trkpt lat="45.1935402" lon="10.7220456"><ele>22.0</ele><time>2026-05-02T14:46:35.047Z</time></trkpt><trkpt lat="45.1934965" lon="10.7221542"><ele>22.166666666666664</ele><time>2026-05-02T14:46:37.047Z</time></trkpt><trkpt lat="45.1934541" lon="10.7222635"><ele>22.333333333333332</ele><time>2026-05-02T14:46:39.048Z</time></trkpt><trkpt lat="45.1934113" lon="10.7223713"><ele>22.5</ele><time>2026-05-02T14:46:41.048Z</time></trkpt><trkpt lat="45.1933745" lon="10.7224835"><ele>22.666666666666668</ele><time>2026-05-02T14:46:43.047Z</time></trkpt><trkpt lat="45.1933299" lon="10.7225883"><ele>22.833333333333336</ele><time>2026-05-02T14:46:45.048Z</time></trkpt><trkpt lat="45.193286" lon="10.7226925"><ele>23.0</ele><time>2026-05-02T14:46:47.047Z</time></trkpt><trkpt lat="45.1932436" lon="10.7227975"><ele>23.0</ele><time>2026-05-02T14:46:49.047Z</time></trkpt><trkpt lat="45.1932022" lon="10.7228961"><ele>23.0</ele><time>2026-05-02T14:46:51.047Z</time></trkpt><trkpt lat="45.1931615" lon="10.7230015"><ele>23.0</ele><time>2026-05-02T14:46:53.047Z</time></trkpt><trkpt lat="45.1931198" lon="10.723108"><ele>23.0</ele><time>2026-05-02T14:46:55.048Z</time></trkpt><trkpt lat="45.193082" lon="10.7232227"><ele>23.0</ele><time>2026-05-02T14:46:57.048Z</time></trkpt><trkpt lat="45.1930343" lon="10.7233305"><ele>23.0</ele><time>2026-05-02T14:46:59.048Z</time></trkpt><trkpt lat="45.192995" lon="10.7234397"><ele>23.0</ele><time>2026-05-02T14:47:01.048Z</time></trkpt><trkpt lat="45.1929508" lon="10.7235468"><ele>23.0</ele><time>2026-05-02T14:47:03.048Z</time></trkpt><trkpt lat="45.1929187" lon="10.7236532"><ele>23.0</ele><time>2026-05-02T14:47:05.048Z</time></trkpt><trkpt lat="45.1928743" lon="10.7237592"><ele>23.0</ele><time>2026-05-02T14:47:07.048Z</time></trkpt><trkpt lat="45.192821" lon="10.7238699"><ele>23.0</ele><time>2026-05-02T14:47:09.048Z</time></trkpt><trkpt lat="45.1927818" lon="10.7239791"><ele>23.0</ele><time>2026-05-02T14:47:11.048Z</time></trkpt><trkpt lat="45.1927387" lon="10.7240911"><ele>23.166666666666668</ele><time>2026-05-02T14:47:13.048Z</time></trkpt><trkpt lat="45.192691" lon="10.7242052"><ele>23.333333333333336</ele><time>2026-05-02T14:47:15.048Z</time></trkpt><trkpt lat="45.1926571" lon="10.7243112"><ele>23.5</ele><time>2026-05-02T14:47:17.048Z</time></trkpt><trkpt lat="45.1926165" lon="10.7244142"><ele>23.666666666666668</ele><time>2026-05-02T14:47:19.047Z</time></trkpt><trkpt lat="45.1925758" lon="10.7245204"><ele>23.833333333333332</ele><time>2026-05-02T14:47:21.047Z</time></trkpt><trkpt lat="45.1925332" lon="10.7246272"><ele>24.0</ele><time>2026-05-02T14:47:23.048Z</time></trkpt><trkpt lat="45.1924931" lon="10.7247368"><ele>24.0</ele><time>2026-05-02T14:47:25.047Z</time></trkpt><trkpt lat="45.1924571" lon="10.7248461"><ele>24.0</ele><time>2026-05-02T14:47:27.047Z</time></trkpt><trkpt lat="45.1924198" lon="10.7249525"><ele>24.0</ele><time>2026-05-02T14:47:29.047Z</time></trkpt><trkpt lat="45.1923808" lon="10.7250491"><ele>24.0</ele><time>2026-05-02T14:47:31.048Z</time></trkpt><trkpt lat="45.1923384" lon="10.7251429"><ele>24.0</ele><time>2026-05-02T14:47:33.048Z</time></trkpt><trkpt lat="45.1922962" lon="10.7252355"><ele>24.0</ele><time>2026-05-02T14:47:35.048Z</time></trkpt><trkpt lat="45.1922549" lon="10.7253305"><ele>23.666666666666668</ele><time>2026-05-02T14:47:37.047Z</time></trkpt><trkpt lat="45.1922123" lon="10.7254294"><ele>23.333333333333332</ele><time>2026-05-02T14:47:39.047Z</time></trkpt><trkpt lat="45.1921703" lon="10.7255318"><ele>23.0</ele><time>2026-05-02T14:47:41.047Z</time></trkpt><trkpt lat="45.1921268" lon="10.7256339"><ele>22.666666666666664</ele><time>2026-05-02T14:47:43.048Z</time></trkpt><trkpt lat="45.1920843" lon="10.7257334"><ele>22.333333333333332</ele><time>2026-05-02T14:47:45.046Z</time></trkpt><trkpt lat="45.192044" lon="10.7258343"><ele>22.0</ele><time>2026-05-02T14:47:47.047Z</time></trkpt><trkpt lat="45.1920037" lon="10.7259351"><ele>22.0</ele><time>2026-05-02T14:47:49.048Z</time></trkpt><trkpt lat="45.1919645" lon="10.7260311"><ele>22.0</ele><time>2026-05-02T14:47:51.047Z</time></trkpt><trkpt lat="45.1919309" lon="10.7261325"><ele>22.0</ele><time>2026-05-02T14:47:53.048Z</time></trkpt><trkpt lat="45.1919001" lon="10.7262258"><ele>22.0</ele><time>2026-05-02T14:47:55.047Z</time></trkpt><trkpt lat="45.1918692" lon="10.7263091"><ele>22.0</ele><time>2026-05-02T14:47:57.048Z</time></trkpt><trkpt lat="45.1918385" lon="10.7263892"><ele>22.0</ele><time>2026-05-02T14:47:59.048Z</time></trkpt><trkpt lat="45.1918058" lon="10.7264719"><ele>22.0</ele><time>2026-05-02T14:48:01.047Z</time></trkpt><trkpt lat="45.1917698" lon="10.726566"><ele>22.166666666666664</ele><time>2026-05-02T14:48:03.047Z</time></trkpt><trkpt lat="45.1917306" lon="10.7266605"><ele>22.333333333333332</ele><time>2026-05-02T14:48:05.046Z</time></trkpt><trkpt lat="45.1916882" lon="10.7267586"><ele>22.5</ele><time>2026-05-02T14:48:07.048Z</time></trkpt><trkpt lat="45.1916513" lon="10.7268606"><ele>22.666666666666668</ele><time>2026-05-02T14:48:09.048Z</time></trkpt><trkpt lat="45.1916074" lon="10.7269553"><ele>22.833333333333336</ele><time>2026-05-02T14:48:11.047Z</time></trkpt><trkpt lat="45.1915628" lon="10.7270569"><ele>23.0</ele><time>2026-05-02T14:48:13.048Z</time></trkpt><trkpt lat="45.1915196" lon="10.727161"><ele>23.0</ele><time>2026-05-02T14:48:15.047Z</time></trkpt><trkpt lat="45.191478" lon="10.7272643"><ele>23.0</ele><time>2026-05-02T14:48:17.048Z</time></trkpt><trkpt lat="45.191437" lon="10.7273726"><ele>23.0</ele><time>2026-05-02T14:48:19.047Z</time></trkpt><trkpt lat="45.1913951" lon="10.7274751"><ele>23.0</ele><time>2026-05-02T14:48:21.048Z</time></trkpt><trkpt lat="45.1913554" lon="10.7275745"><ele>23.0</ele><time>2026-05-02T14:48:23.045Z</time></trkpt><trkpt lat="45.1913196" lon="10.7276718"><ele>23.0</ele><time>2026-05-02T14:48:25.046Z</time></trkpt><trkpt lat="45.1912815" lon="10.7277673"><ele>23.0</ele><time>2026-05-02T14:48:27.048Z</time></trkpt><trkpt lat="45.1912406" lon="10.7278646"><ele>23.0</ele><time>2026-05-02T14:48:29.047Z</time></trkpt><trkpt lat="45.1912006" lon="10.7279696"><ele>23.0</ele><time>2026-05-02T14:48:31.047Z</time></trkpt><trkpt lat="45.1911594" lon="10.7280766"><ele>23.0</ele><time>2026-05-02T14:48:33.048Z</time></trkpt><trkpt lat="45.1911237" lon="10.7281801"><ele>23.0</ele><time>2026-05-02T14:48:35.045Z</time></trkpt><trkpt lat="45.191086" lon="10.7282829"><ele>23.0</ele><time>2026-05-02T14:48:37.048Z</time></trkpt><trkpt lat="45.1910465" lon="10.7283883"><ele>23.0</ele><time>2026-05-02T14:48:39.046Z</time></trkpt><trkpt lat="45.1910041" lon="10.7284834"><ele>23.0</ele><time>2026-05-02T14:48:41.046Z</time></trkpt><trkpt lat="45.1909665" lon="10.7285824"><ele>23.0</ele><time>2026-05-02T14:48:43.047Z</time></trkpt><trkpt lat="45.1909283" lon="10.7286833"><ele>23.0</ele><time>2026-05-02T14:48:45.047Z</time></trkpt><trkpt lat="45.1908848" lon="10.7287816"><ele>23.0</ele><time>2026-05-02T14:48:47.046Z</time></trkpt><trkpt lat="45.1908425" lon="10.7288858"><ele>23.0</ele><time>2026-05-02T14:48:49.047Z</time></trkpt><trkpt lat="45.1907998" lon="10.728989"><ele>23.0</ele><time>2026-05-02T14:48:51.048Z</time></trkpt><trkpt lat="45.1907629" lon="10.7290882"><ele>23.0</ele><time>2026-05-02T14:48:53.048Z</time></trkpt><trkpt lat="45.1907257" lon="10.7291862"><ele>23.0</ele><time>2026-05-02T14:48:55.047Z</time></trkpt><trkpt lat="45.1906868" lon="10.7292864"><ele>23.0</ele><time>2026-05-02T14:48:57.047Z</time></trkpt><trkpt lat="45.1906506" lon="10.7293872"><ele>23.0</ele><time>2026-05-02T14:48:59.047Z</time></trkpt><trkpt lat="45.1906069" lon="10.7294876"><ele>23.0</ele><time>2026-05-02T14:49:01.045Z</time></trkpt><trkpt lat="45.1905637" lon="10.7295857"><ele>23.333333333333336</ele><time>2026-05-02T14:49:03.047Z</time></trkpt><trkpt lat="45.1905237" lon="10.7296834"><ele>23.666666666666668</ele><time>2026-05-02T14:49:05.047Z</time></trkpt><trkpt lat="45.190485" lon="10.7297783"><ele>24.0</ele><time>2026-05-02T14:49:07.047Z</time></trkpt><trkpt lat="45.1904452" lon="10.7298761"><ele>24.333333333333336</ele><time>2026-05-02T14:49:09.047Z</time></trkpt><trkpt lat="45.1904038" lon="10.7299729"><ele>24.666666666666668</ele><time>2026-05-02T14:49:11.046Z</time></trkpt><trkpt lat="45.1903632" lon="10.7300728"><ele>25.0</ele><time>2026-05-02T14:49:13.046Z</time></trkpt><trkpt lat="45.190323" lon="10.7301732"><ele>25.000000000000004</ele><time>2026-05-02T14:49:15.048Z</time></trkpt><trkpt lat="45.1902867" lon="10.7302712"><ele>25.0</ele><time>2026-05-02T14:49:17.047Z</time></trkpt><trkpt lat="45.190251" lon="10.7303703"><ele>25.0</ele><time>2026-05-02T14:49:19.048Z</time></trkpt><trkpt lat="45.1902167" lon="10.7304682"><ele>25.0</ele><time>2026-05-02T14:49:21.048Z</time></trkpt><trkpt lat="45.1901805" lon="10.7305626"><ele>25.000000000000004</ele><time>2026-05-02T14:49:23.047Z</time></trkpt><trkpt lat="45.1901419" lon="10.730654"><ele>25.0</ele><time>2026-05-02T14:49:25.046Z</time></trkpt><trkpt lat="45.1901054" lon="10.73075"><ele>25.000000000000004</ele><time>2026-05-02T14:49:27.048Z</time></trkpt><trkpt lat="45.1900759" lon="10.7308454"><ele>25.0</ele><time>2026-05-02T14:49:29.047Z</time></trkpt><trkpt lat="45.1900457" lon="10.7309302"><ele>25.0</ele><time>2026-05-02T14:49:31.047Z</time></trkpt><trkpt lat="45.1900136" lon="10.7310172"><ele>25.0</ele><time>2026-05-02T14:49:34.047Z</time></trkpt><trkpt lat="45.1899789" lon="10.7311055"><ele>25.0</ele><time>2026-05-02T14:57:05.045Z</time></trkpt><trkpt lat="45.1899398" lon="10.731213"><ele>25.000000000000004</ele><time>2026-05-02T14:57:09.045Z</time></trkpt><trkpt lat="45.1899155" lon="10.7313198"><ele>25.0</ele><time>2026-05-02T14:57:12.046Z</time></trkpt><trkpt lat="45.1898905" lon="10.7314381"><ele>25.166666666666668</ele><time>2026-05-02T14:57:15.045Z</time></trkpt><trkpt lat="45.1898616" lon="10.7315598"><ele>25.333333333333336</ele><time>2026-05-02T14:57:18.046Z</time></trkpt><trkpt lat="45.1898444" lon="10.7316731"><ele>25.5</ele><time>2026-05-02T14:57:21.046Z</time></trkpt><trkpt lat="45.1898241" lon="10.7317725"><ele>25.666666666666664</ele><time>2026-05-02T14:57:24.044Z</time></trkpt><trkpt lat="45.1898048" lon="10.731883"><ele>25.833333333333332</ele><time>2026-05-02T14:57:28.044Z</time></trkpt><trkpt lat="45.1897948" lon="10.7319777"><ele>26.0</ele><time>2026-05-02T14:57:31.045Z</time></trkpt><trkpt lat="45.1897813" lon="10.7320792"><ele>25.499999999999996</ele><time>2026-05-02T14:57:34.043Z</time></trkpt><trkpt lat="45.1897746" lon="10.7321953"><ele>25.0</ele><time>2026-05-02T14:57:37.045Z</time></trkpt><trkpt lat="45.1897633" lon="10.7323157"><ele>24.5</ele><time>2026-05-02T14:57:40.046Z</time></trkpt><trkpt lat="45.189756" lon="10.7324262"><ele>24.0</ele><time>2026-05-02T14:57:43.044Z</time></trkpt><trkpt lat="45.1897512" lon="10.732529"><ele>23.5</ele><time>2026-05-02T14:57:46.046Z</time></trkpt><trkpt lat="45.1897417" lon="10.7326325"><ele>23.0</ele><time>2026-05-02T14:57:49.045Z</time></trkpt><trkpt lat="45.1896818" lon="10.7326993"><ele>23.0</ele><time>2026-05-02T14:57:52.045Z</time></trkpt><trkpt lat="45.1896103" lon="10.7327671"><ele>23.0</ele><time>2026-05-02T14:57:55.044Z</time></trkpt><trkpt lat="45.1895369" lon="10.7328399"><ele>23.0</ele><time>2026-05-02T14:57:58.044Z</time></trkpt><trkpt lat="45.1894625" lon="10.7329153"><ele>23.0</ele><time>2026-05-02T14:58:01.045Z</time></trkpt><trkpt lat="45.1894098" lon="10.7329737"><ele>23.0</ele><time>2026-05-02T14:58:03.044Z</time></trkpt><trkpt lat="45.1893541" lon="10.7330291"><ele>23.0</ele><time>2026-05-02T14:58:05.044Z</time></trkpt><trkpt lat="45.1892913" lon="10.7330809"><ele>23.0</ele><time>2026-05-02T14:58:07.045Z</time></trkpt><trkpt lat="45.189241" lon="10.7331611"><ele>23.0</ele><time>2026-05-02T14:58:09.045Z</time></trkpt><trkpt lat="45.1891864" lon="10.733235"><ele>23.0</ele><time>2026-05-02T14:58:11.046Z</time></trkpt><trkpt lat="45.1891332" lon="10.7333048"><ele>23.0</ele><time>2026-05-02T14:58:13.045Z</time></trkpt><trkpt lat="45.1890976" lon="10.7333889"><ele>23.0</ele><time>2026-05-02T14:58:15.045Z</time></trkpt><trkpt lat="45.1890898" lon="10.7334887"><ele>23.0</ele><time>2026-05-02T14:58:17.044Z</time></trkpt><trkpt lat="45.1890865" lon="10.7335928"><ele>23.0</ele><time>2026-05-02T14:58:19.046Z</time></trkpt><trkpt lat="45.1890835" lon="10.7337035"><ele>22.833333333333336</ele><time>2026-05-02T14:58:21.046Z</time></trkpt><trkpt lat="45.189082" lon="10.7338292"><ele>22.666666666666668</ele><time>2026-05-02T14:58:23.045Z</time></trkpt><trkpt lat="45.1890786" lon="10.7339558"><ele>22.5</ele><time>2026-05-02T14:58:25.045Z</time></trkpt><trkpt lat="45.1890741" lon="10.7340743"><ele>22.333333333333332</ele><time>2026-05-02T14:58:27.046Z</time></trkpt><trkpt lat="45.1890681" lon="10.7341904"><ele>22.166666666666664</ele><time>2026-05-02T14:58:29.045Z</time></trkpt><trkpt lat="45.1890656" lon="10.734306"><ele>22.0</ele><time>2026-05-02T14:58:31.046Z</time></trkpt><trkpt lat="45.1890611" lon="10.7344202"><ele>21.857142857142858</ele><time>2026-05-02T14:58:33.045Z</time></trkpt><trkpt lat="45.1890551" lon="10.7345319"><ele>21.714285714285715</ele><time>2026-05-02T14:58:35.045Z</time></trkpt><trkpt lat="45.1890495" lon="10.7346453"><ele>21.57142857142857</ele><time>2026-05-02T14:58:37.045Z</time></trkpt><trkpt lat="45.189044" lon="10.73475"><ele>21.42857142857143</ele><time>2026-05-02T14:58:39.045Z</time></trkpt><trkpt lat="45.189039" lon="10.7348506"><ele>21.285714285714285</ele><time>2026-05-02T14:58:41.044Z</time></trkpt><trkpt lat="45.1890339" lon="10.7349508"><ele>21.142857142857142</ele><time>2026-05-02T14:58:43.045Z</time></trkpt><trkpt lat="45.1890228" lon="10.7350508"><ele>21.0</ele><time>2026-05-02T14:58:45.044Z</time></trkpt><trkpt lat="45.1890181" lon="10.735148"><ele>21.0</ele><time>2026-05-02T14:58:47.044Z</time></trkpt><trkpt lat="45.1890117" lon="10.7352485"><ele>21.0</ele><time>2026-05-02T14:58:49.045Z</time></trkpt><trkpt lat="45.1890049" lon="10.7353532"><ele>21.0</ele><time>2026-05-02T14:58:51.044Z</time></trkpt><trkpt lat="45.1889996" lon="10.7354577"><ele>21.0</ele><time>2026-05-02T14:58:53.044Z</time></trkpt><trkpt lat="45.188997" lon="10.7355644"><ele>21.0</ele><time>2026-05-02T14:58:55.044Z</time></trkpt><trkpt lat="45.1889886" lon="10.7356713"><ele>21.0</ele><time>2026-05-02T14:58:57.046Z</time></trkpt><trkpt lat="45.1889802" lon="10.7357764"><ele>21.0</ele><time>2026-05-02T14:58:59.045Z</time></trkpt><trkpt lat="45.1889754" lon="10.7358872"><ele>20.857142857142858</ele><time>2026-05-02T14:59:01.044Z</time></trkpt><trkpt lat="45.1889709" lon="10.7359982"><ele>20.714285714285715</ele><time>2026-05-02T14:59:03.044Z</time></trkpt><trkpt lat="45.1889642" lon="10.736104"><ele>20.57142857142857</ele><time>2026-05-02T14:59:05.045Z</time></trkpt><trkpt lat="45.1889601" lon="10.7362065"><ele>20.42857142857143</ele><time>2026-05-02T14:59:07.044Z</time></trkpt><trkpt lat="45.1889561" lon="10.7363086"><ele>20.285714285714285</ele><time>2026-05-02T14:59:09.045Z</time></trkpt><trkpt lat="45.1889519" lon="10.7364147"><ele>20.142857142857142</ele><time>2026-05-02T14:59:11.046Z</time></trkpt><trkpt lat="45.1889476" lon="10.7365228"><ele>20.0</ele><time>2026-05-02T14:59:13.045Z</time></trkpt><trkpt lat="45.1889424" lon="10.7366326"><ele>20.0</ele><time>2026-05-02T14:59:15.045Z</time></trkpt><trkpt lat="45.1889394" lon="10.7367432"><ele>20.0</ele><time>2026-05-02T14:59:17.045Z</time></trkpt><trkpt lat="45.1889351" lon="10.7368552"><ele>20.0</ele><time>2026-05-02T14:59:19.046Z</time></trkpt><trkpt lat="45.1889289" lon="10.736966"><ele>20.0</ele><time>2026-05-02T14:59:21.044Z</time></trkpt><trkpt lat="45.1889226" lon="10.7370752"><ele>20.0</ele><time>2026-05-02T14:59:23.046Z</time></trkpt><trkpt lat="45.1889149" lon="10.7371843"><ele>20.0</ele><time>2026-05-02T14:59:25.046Z</time></trkpt><trkpt lat="45.1889077" lon="10.7372951"><ele>20.166666666666668</ele><time>2026-05-02T14:59:27.045Z</time></trkpt><trkpt lat="45.1889012" lon="10.737407"><ele>20.333333333333336</ele><time>2026-05-02T14:59:29.045Z</time></trkpt><trkpt lat="45.1888955" lon="10.7375188"><ele>20.5</ele><time>2026-05-02T14:59:31.045Z</time></trkpt><trkpt lat="45.1888893" lon="10.7376284"><ele>20.666666666666668</ele><time>2026-05-02T14:59:33.046Z</time></trkpt><trkpt lat="45.1888824" lon="10.737741"><ele>20.833333333333332</ele><time>2026-05-02T14:59:35.045Z</time></trkpt><trkpt lat="45.1888753" lon="10.7378541"><ele>21.0</ele><time>2026-05-02T14:59:37.045Z</time></trkpt><trkpt lat="45.1888717" lon="10.7379641"><ele>21.0</ele><time>2026-05-02T14:59:39.044Z</time></trkpt><trkpt lat="45.1888684" lon="10.7380807"><ele>21.0</ele><time>2026-05-02T14:59:41.046Z</time></trkpt><trkpt lat="45.188864" lon="10.738195"><ele>21.0</ele><time>2026-05-02T14:59:43.045Z</time></trkpt><trkpt lat="45.1888568" lon="10.7383073"><ele>21.0</ele><time>2026-05-02T14:59:45.046Z</time></trkpt><trkpt lat="45.1888512" lon="10.7384206"><ele>21.0</ele><time>2026-05-02T14:59:47.045Z</time></trkpt><trkpt lat="45.1888414" lon="10.7385347"><ele>21.0</ele><time>2026-05-02T14:59:49.044Z</time></trkpt><trkpt lat="45.1888348" lon="10.738646"><ele>21.0</ele><time>2026-05-02T14:59:51.045Z</time></trkpt><trkpt lat="45.1888326" lon="10.7387564"><ele>21.0</ele><time>2026-05-02T14:59:53.045Z</time></trkpt><trkpt lat="45.1888281" lon="10.7388684"><ele>21.0</ele><time>2026-05-02T14:59:55.046Z</time></trkpt><trkpt lat="45.1888214" lon="10.7389809"><ele>21.0</ele><time>2026-05-02T14:59:57.044Z</time></trkpt><trkpt lat="45.1888124" lon="10.7390937"><ele>21.0</ele><time>2026-05-02T14:59:59.045Z</time></trkpt><trkpt lat="45.1888056" lon="10.7392078"><ele>21.0</ele><time>2026-05-02T15:00:01.045Z</time></trkpt><trkpt lat="45.1887986" lon="10.7393202"><ele>20.833333333333332</ele><time>2026-05-02T15:00:03.044Z</time></trkpt><trkpt lat="45.1887908" lon="10.739435"><ele>20.666666666666668</ele><time>2026-05-02T15:00:05.045Z</time></trkpt><trkpt lat="45.1887847" lon="10.7395491"><ele>20.5</ele><time>2026-05-02T15:00:07.043Z</time></trkpt><trkpt lat="45.1887808" lon="10.7396603"><ele>20.333333333333336</ele><time>2026-05-02T15:00:09.045Z</time></trkpt><trkpt lat="45.1887793" lon="10.7397716"><ele>20.166666666666668</ele><time>2026-05-02T15:00:11.044Z</time></trkpt><trkpt lat="45.1887761" lon="10.7398864"><ele>20.0</ele><time>2026-05-02T15:00:13.044Z</time></trkpt><trkpt lat="45.1887713" lon="10.7400032"><ele>20.0</ele><time>2026-05-02T15:00:15.043Z</time></trkpt><trkpt lat="45.1887677" lon="10.7401184"><ele>20.0</ele><time>2026-05-02T15:00:17.045Z</time></trkpt><trkpt lat="45.188766" lon="10.7402361"><ele>20.0</ele><time>2026-05-02T15:00:19.044Z</time></trkpt><trkpt lat="45.1887593" lon="10.7403545"><ele>20.0</ele><time>2026-05-02T15:00:21.045Z</time></trkpt><trkpt lat="45.188754" lon="10.7404696"><ele>20.0</ele><time>2026-05-02T15:00:23.045Z</time></trkpt><trkpt lat="45.1887502" lon="10.7405841"><ele>20.0</ele><time>2026-05-02T15:00:25.044Z</time></trkpt><trkpt lat="45.1887456" lon="10.7406948"><ele>20.0</ele><time>2026-05-02T15:00:27.045Z</time></trkpt><trkpt lat="45.1887395" lon="10.7408088"><ele>20.0</ele><time>2026-05-02T15:00:29.045Z</time></trkpt><trkpt lat="45.1887349" lon="10.7409235"><ele>20.0</ele><time>2026-05-02T15:00:31.043Z</time></trkpt><trkpt lat="45.1887246" lon="10.7410428"><ele>20.0</ele><time>2026-05-02T15:00:33.043Z</time></trkpt><trkpt lat="45.1887141" lon="10.7411623"><ele>20.0</ele><time>2026-05-02T15:00:35.045Z</time></trkpt><trkpt lat="45.188706" lon="10.7412813"><ele>20.0</ele><time>2026-05-02T15:00:37.045Z</time></trkpt><trkpt lat="45.1887035" lon="10.7413964"><ele>20.0</ele><time>2026-05-02T15:00:39.045Z</time></trkpt><trkpt lat="45.1886969" lon="10.7415126"><ele>20.0</ele><time>2026-05-02T15:00:41.044Z</time></trkpt><trkpt lat="45.1886925" lon="10.7416286"><ele>20.0</ele><time>2026-05-02T15:00:43.044Z</time></trkpt><trkpt lat="45.1886903" lon="10.741743"><ele>20.0</ele><time>2026-05-02T15:00:45.044Z</time></trkpt><trkpt lat="45.188685" lon="10.7418576"><ele>20.0</ele><time>2026-05-02T15:00:47.044Z</time></trkpt><trkpt lat="45.1886799" lon="10.7419737"><ele>20.0</ele><time>2026-05-02T15:00:49.044Z</time></trkpt><trkpt lat="45.1886723" lon="10.7420924"><ele>20.0</ele><time>2026-05-02T15:00:51.043Z</time></trkpt><trkpt lat="45.188665" lon="10.7422076"><ele>20.0</ele><time>2026-05-02T15:00:53.043Z</time></trkpt><trkpt lat="45.1886595" lon="10.74232"><ele>20.0</ele><time>2026-05-02T15:00:55.043Z</time></trkpt><trkpt lat="45.1886539" lon="10.7424338"><ele>20.0</ele><time>2026-05-02T15:00:57.043Z</time></trkpt><trkpt lat="45.1886512" lon="10.7425506"><ele>20.0</ele><time>2026-05-02T15:00:59.045Z</time></trkpt><trkpt lat="45.188648" lon="10.7426687"><ele>20.0</ele><time>2026-05-02T15:01:01.045Z</time></trkpt><trkpt lat="45.188641" lon="10.7427887"><ele>20.166666666666668</ele><time>2026-05-02T15:01:03.045Z</time></trkpt><trkpt lat="45.1886336" lon="10.7429075"><ele>20.333333333333336</ele><time>2026-05-02T15:01:05.044Z</time></trkpt><trkpt lat="45.1886256" lon="10.7430264"><ele>20.5</ele><time>2026-05-02T15:01:07.044Z</time></trkpt><trkpt lat="45.1886182" lon="10.7431428"><ele>20.666666666666668</ele><time>2026-05-02T15:01:09.044Z</time></trkpt><trkpt lat="45.1886092" lon="10.7432569"><ele>20.833333333333332</ele><time>2026-05-02T15:01:11.045Z</time></trkpt><trkpt lat="45.188599" lon="10.7433708"><ele>21.0</ele><time>2026-05-02T15:01:13.044Z</time></trkpt><trkpt lat="45.188591" lon="10.7434793"><ele>20.857142857142858</ele><time>2026-05-02T15:01:15.045Z</time></trkpt><trkpt lat="45.188582" lon="10.7435823"><ele>20.714285714285715</ele><time>2026-05-02T15:01:17.044Z</time></trkpt><trkpt lat="45.1885758" lon="10.7436781"><ele>20.57142857142857</ele><time>2026-05-02T15:01:19.045Z</time></trkpt><trkpt lat="45.1885661" lon="10.7437687"><ele>20.42857142857143</ele><time>2026-05-02T15:01:21.045Z</time></trkpt><trkpt lat="45.1885639" lon="10.7438957"><ele>20.285714285714285</ele><time>2026-05-02T15:01:24.043Z</time></trkpt><trkpt lat="45.1885601" lon="10.743994"><ele>20.142857142857142</ele><time>2026-05-02T15:01:26.045Z</time></trkpt><trkpt lat="45.1885541" lon="10.7441005"><ele>20.0</ele><time>2026-05-02T15:01:28.044Z</time></trkpt><trkpt lat="45.1885482" lon="10.7442133"><ele>20.0</ele><time>2026-05-02T15:01:30.044Z</time></trkpt><trkpt lat="45.1885438" lon="10.7443291"><ele>20.0</ele><time>2026-05-02T15:01:32.044Z</time></trkpt><trkpt lat="45.1885382" lon="10.7444487"><ele>20.0</ele><time>2026-05-02T15:01:34.045Z</time></trkpt><trkpt lat="45.188535" lon="10.7445666"><ele>20.0</ele><time>2026-05-02T15:01:36.043Z</time></trkpt><trkpt lat="45.1885274" lon="10.7446777"><ele>20.0</ele><time>2026-05-02T15:01:38.044Z</time></trkpt><trkpt lat="45.1885205" lon="10.7447904"><ele>20.0</ele><time>2026-05-02T15:01:40.044Z</time></trkpt><trkpt lat="45.1885154" lon="10.7449049"><ele>20.166666666666668</ele><time>2026-05-02T15:01:42.045Z</time></trkpt><trkpt lat="45.1885103" lon="10.7450174"><ele>20.333333333333336</ele><time>2026-05-02T15:01:44.045Z</time></trkpt><trkpt lat="45.1885029" lon="10.7451286"><ele>20.5</ele><time>2026-05-02T15:01:46.044Z</time></trkpt><trkpt lat="45.188497" lon="10.7452428"><ele>20.666666666666668</ele><time>2026-05-02T15:01:48.045Z</time></trkpt><trkpt lat="45.188493" lon="10.7453596"><ele>20.833333333333332</ele><time>2026-05-02T15:01:50.044Z</time></trkpt><trkpt lat="45.1884887" lon="10.7454762"><ele>21.0</ele><time>2026-05-02T15:01:52.045Z</time></trkpt><trkpt lat="45.1884823" lon="10.7455919"><ele>21.0</ele><time>2026-05-02T15:01:54.044Z</time></trkpt><trkpt lat="45.1884755" lon="10.7457075"><ele>21.0</ele><time>2026-05-02T15:01:56.044Z</time></trkpt><trkpt lat="45.1884715" lon="10.745819"><ele>21.0</ele><time>2026-05-02T15:01:58.044Z</time></trkpt><trkpt lat="45.1884687" lon="10.745931"><ele>21.0</ele><time>2026-05-02T15:02:00.045Z</time></trkpt><trkpt lat="45.1884629" lon="10.7460442"><ele>21.0</ele><time>2026-05-02T15:02:02.043Z</time></trkpt><trkpt lat="45.1884582" lon="10.746158"><ele>21.0</ele><time>2026-05-02T15:02:04.044Z</time></trkpt><trkpt lat="45.1884541" lon="10.7462693"><ele>21.0</ele><time>2026-05-02T15:02:06.044Z</time></trkpt><trkpt lat="45.1884464" lon="10.746382"><ele>21.0</ele><time>2026-05-02T15:02:08.045Z</time></trkpt><trkpt lat="45.1884412" lon="10.7464988"><ele>21.0</ele><time>2026-05-02T15:02:10.045Z</time></trkpt><trkpt lat="45.1884348" lon="10.7466125"><ele>21.0</ele><time>2026-05-02T15:02:12.043Z</time></trkpt><trkpt lat="45.1884271" lon="10.7467272"><ele>21.0</ele><time>2026-05-02T15:02:14.043Z</time></trkpt><trkpt lat="45.1884196" lon="10.7468418"><ele>21.0</ele><time>2026-05-02T15:02:16.044Z</time></trkpt><trkpt lat="45.188416" lon="10.7469605"><ele>21.0</ele><time>2026-05-02T15:02:18.044Z</time></trkpt><trkpt lat="45.1884083" lon="10.7470761"><ele>21.0</ele><time>2026-05-02T15:02:20.043Z</time></trkpt><trkpt lat="45.1884021" lon="10.7471889"><ele>21.0</ele><time>2026-05-02T15:02:22.045Z</time></trkpt><trkpt lat="45.1883942" lon="10.7473027"><ele>21.0</ele><time>2026-05-02T15:02:24.043Z</time></trkpt><trkpt lat="45.1883885" lon="10.7474168"><ele>21.0</ele><time>2026-05-02T15:02:26.044Z</time></trkpt><trkpt lat="45.1883847" lon="10.7475286"><ele>21.0</ele><time>2026-05-02T15:02:28.043Z</time></trkpt><trkpt lat="45.1883763" lon="10.7476401"><ele>21.0</ele><time>2026-05-02T15:02:30.045Z</time></trkpt><trkpt lat="45.1883709" lon="10.7477522"><ele>21.0</ele><time>2026-05-02T15:02:32.043Z</time></trkpt><trkpt lat="45.1883616" lon="10.7478636"><ele>21.0</ele><time>2026-05-02T15:02:34.044Z</time></trkpt><trkpt lat="45.1883523" lon="10.7479769"><ele>21.0</ele><time>2026-05-02T15:02:36.044Z</time></trkpt><trkpt lat="45.1883443" lon="10.7480901"><ele>21.0</ele><time>2026-05-02T15:02:38.045Z</time></trkpt><trkpt lat="45.1883403" lon="10.7481999"><ele>21.0</ele><time>2026-05-02T15:02:40.043Z</time></trkpt><trkpt lat="45.1883356" lon="10.7483112"><ele>21.0</ele><time>2026-05-02T15:02:42.044Z</time></trkpt><trkpt lat="45.1883326" lon="10.7484218"><ele>21.0</ele><time>2026-05-02T15:02:44.044Z</time></trkpt><trkpt lat="45.1883263" lon="10.7485327"><ele>21.0</ele><time>2026-05-02T15:02:46.044Z</time></trkpt><trkpt lat="45.1883216" lon="10.7486423"><ele>21.0</ele><time>2026-05-02T15:02:48.044Z</time></trkpt><trkpt lat="45.1883191" lon="10.748756"><ele>21.0</ele><time>2026-05-02T15:02:50.045Z</time></trkpt><trkpt lat="45.1883177" lon="10.7488736"><ele>21.0</ele><time>2026-05-02T15:02:52.045Z</time></trkpt><trkpt lat="45.1883133" lon="10.7489916"><ele>21.166666666666668</ele><time>2026-05-02T15:02:54.043Z</time></trkpt><trkpt lat="45.1883065" lon="10.7491083"><ele>21.333333333333332</ele><time>2026-05-02T15:02:56.043Z</time></trkpt><trkpt lat="45.1882942" lon="10.7492252"><ele>21.5</ele><time>2026-05-02T15:02:58.046Z</time></trkpt><trkpt lat="45.1882899" lon="10.7493365"><ele>21.666666666666664</ele><time>2026-05-02T15:03:00.045Z</time></trkpt><trkpt lat="45.1882857" lon="10.7494497"><ele>21.833333333333332</ele><time>2026-05-02T15:03:02.044Z</time></trkpt><trkpt lat="45.1882806" lon="10.7495628"><ele>22.0</ele><time>2026-05-02T15:03:04.045Z</time></trkpt><trkpt lat="45.1882756" lon="10.7496778"><ele>22.0</ele><time>2026-05-02T15:03:06.044Z</time></trkpt><trkpt lat="45.1882714" lon="10.7497922"><ele>22.0</ele><time>2026-05-02T15:03:08.044Z</time></trkpt><trkpt lat="45.188266" lon="10.7499072"><ele>22.0</ele><time>2026-05-02T15:03:10.044Z</time></trkpt><trkpt lat="45.1882603" lon="10.7500212"><ele>22.0</ele><time>2026-05-02T15:03:12.044Z</time></trkpt><trkpt lat="45.1882539" lon="10.7501338"><ele>22.0</ele><time>2026-05-02T15:03:14.045Z</time></trkpt><trkpt lat="45.1882495" lon="10.7502468"><ele>22.0</ele><time>2026-05-02T15:03:16.044Z</time></trkpt><trkpt lat="45.1882433" lon="10.7503586"><ele>22.0</ele><time>2026-05-02T15:03:18.044Z</time></trkpt><trkpt lat="45.1882382" lon="10.7504714"><ele>22.0</ele><time>2026-05-02T15:03:20.045Z</time></trkpt><trkpt lat="45.1882327" lon="10.7505811"><ele>22.0</ele><time>2026-05-02T15:03:22.045Z</time></trkpt><trkpt lat="45.1882272" lon="10.7506919"><ele>22.0</ele><time>2026-05-02T15:03:24.044Z</time></trkpt><trkpt lat="45.1882225" lon="10.7508075"><ele>22.0</ele><time>2026-05-02T15:03:26.044Z</time></trkpt><trkpt lat="45.1882169" lon="10.7509214"><ele>22.0</ele><time>2026-05-02T15:03:28.045Z</time></trkpt><trkpt lat="45.1882109" lon="10.7510322"><ele>21.666666666666664</ele><time>2026-05-02T15:03:30.044Z</time></trkpt><trkpt lat="45.1882069" lon="10.7511442"><ele>21.333333333333332</ele><time>2026-05-02T15:03:32.043Z</time></trkpt><trkpt lat="45.1882031" lon="10.7512582"><ele>21.0</ele><time>2026-05-02T15:03:34.044Z</time></trkpt><trkpt lat="45.1881977" lon="10.7513775"><ele>20.666666666666668</ele><time>2026-05-02T15:03:36.042Z</time></trkpt><trkpt lat="45.1881927" lon="10.7514954"><ele>20.333333333333336</ele><time>2026-05-02T15:03:38.043Z</time></trkpt><trkpt lat="45.1881826" lon="10.7516121"><ele>20.0</ele><time>2026-05-02T15:03:40.045Z</time></trkpt><trkpt lat="45.1881758" lon="10.7517276"><ele>20.0</ele><time>2026-05-02T15:03:42.043Z</time></trkpt><trkpt lat="45.1881704" lon="10.7518378"><ele>20.0</ele><time>2026-05-02T15:03:44.044Z</time></trkpt><trkpt lat="45.188167" lon="10.7519466"><ele>20.0</ele><time>2026-05-02T15:03:46.045Z</time></trkpt><trkpt lat="45.1881568" lon="10.7520594"><ele>20.0</ele><time>2026-05-02T15:03:48.043Z</time></trkpt><trkpt lat="45.1881508" lon="10.7521701"><ele>20.0</ele><time>2026-05-02T15:03:50.044Z</time></trkpt><trkpt lat="45.1881444" lon="10.75228"><ele>20.0</ele><time>2026-05-02T15:03:52.045Z</time></trkpt><trkpt lat="45.1881338" lon="10.752394"><ele>20.0</ele><time>2026-05-02T15:03:54.044Z</time></trkpt><trkpt lat="45.1881261" lon="10.7525099"><ele>20.0</ele><time>2026-05-02T15:03:56.043Z</time></trkpt><trkpt lat="45.1881212" lon="10.7526202"><ele>20.0</ele><time>2026-05-02T15:03:58.044Z</time></trkpt><trkpt lat="45.1881153" lon="10.752728"><ele>20.0</ele><time>2026-05-02T15:04:00.044Z</time></trkpt><trkpt lat="45.1881116" lon="10.7528391"><ele>20.0</ele><time>2026-05-02T15:04:02.043Z</time></trkpt><trkpt lat="45.1881084" lon="10.7529482"><ele>20.0</ele><time>2026-05-02T15:04:04.044Z</time></trkpt><trkpt lat="45.1881032" lon="10.7530573"><ele>20.0</ele><time>2026-05-02T15:04:06.043Z</time></trkpt><trkpt lat="45.1881005" lon="10.7531718"><ele>20.0</ele><time>2026-05-02T15:04:08.043Z</time></trkpt><trkpt lat="45.1880943" lon="10.75329"><ele>20.0</ele><time>2026-05-02T15:04:10.045Z</time></trkpt><trkpt lat="45.1880884" lon="10.7534147"><ele>20.0</ele><time>2026-05-02T15:04:12.044Z</time></trkpt><trkpt lat="45.1880832" lon="10.7535341"><ele>20.0</ele><time>2026-05-02T15:04:14.043Z</time></trkpt><trkpt lat="45.1880751" lon="10.7536452"><ele>20.0</ele><time>2026-05-02T15:04:16.043Z</time></trkpt><trkpt lat="45.1880692" lon="10.7537581"><ele>19.833333333333336</ele><time>2026-05-02T15:04:18.044Z</time></trkpt><trkpt lat="45.1880666" lon="10.7538746"><ele>19.666666666666668</ele><time>2026-05-02T15:04:20.043Z</time></trkpt><trkpt lat="45.1880657" lon="10.7539897"><ele>19.5</ele><time>2026-05-02T15:04:22.043Z</time></trkpt><trkpt lat="45.1880589" lon="10.754103"><ele>19.333333333333332</ele><time>2026-05-02T15:04:24.043Z</time></trkpt><trkpt lat="45.1880528" lon="10.7542149"><ele>19.166666666666664</ele><time>2026-05-02T15:04:26.044Z</time></trkpt><trkpt lat="45.1880489" lon="10.7543312"><ele>19.0</ele><time>2026-05-02T15:04:28.044Z</time></trkpt><trkpt lat="45.1880441" lon="10.7544443"><ele>18.833333333333332</ele><time>2026-05-02T15:04:30.044Z</time></trkpt><trkpt lat="45.1880319" lon="10.7545504"><ele>18.666666666666664</ele><time>2026-05-02T15:04:32.044Z</time></trkpt><trkpt lat="45.1880296" lon="10.7546538"><ele>18.5</ele><time>2026-05-02T15:04:34.042Z</time></trkpt><trkpt lat="45.1880265" lon="10.7547632"><ele>18.333333333333332</ele><time>2026-05-02T15:04:36.043Z</time></trkpt><trkpt lat="45.1880215" lon="10.7548753"><ele>18.166666666666668</ele><time>2026-05-02T15:04:38.043Z</time></trkpt><trkpt lat="45.1880133" lon="10.7549854"><ele>18.0</ele><time>2026-05-02T15:04:40.043Z</time></trkpt><trkpt lat="45.1880043" lon="10.7550928"><ele>18.0</ele><time>2026-05-02T15:04:42.045Z</time></trkpt><trkpt lat="45.1879995" lon="10.7552013"><ele>18.0</ele><time>2026-05-02T15:04:44.043Z</time></trkpt><trkpt lat="45.1879979" lon="10.7553066"><ele>18.0</ele><time>2026-05-02T15:04:46.044Z</time></trkpt><trkpt lat="45.1879977" lon="10.7554111"><ele>18.0</ele><time>2026-05-02T15:04:48.044Z</time></trkpt><trkpt lat="45.1879953" lon="10.7555183"><ele>18.0</ele><time>2026-05-02T15:04:50.043Z</time></trkpt><trkpt lat="45.1879903" lon="10.7556279"><ele>18.0</ele><time>2026-05-02T15:04:52.045Z</time></trkpt><trkpt lat="45.1879784" lon="10.7557328"><ele>18.0</ele><time>2026-05-02T15:04:54.044Z</time></trkpt><trkpt lat="45.1879723" lon="10.7558403"><ele>18.0</ele><time>2026-05-02T15:04:56.044Z</time></trkpt><trkpt lat="45.1879688" lon="10.7559484"><ele>18.0</ele><time>2026-05-02T15:04:58.044Z</time></trkpt><trkpt lat="45.1879611" lon="10.7560571"><ele>18.0</ele><time>2026-05-02T15:05:00.043Z</time></trkpt><trkpt lat="45.1879573" lon="10.7561668"><ele>18.0</ele><time>2026-05-02T15:05:02.043Z</time></trkpt><trkpt lat="45.1879542" lon="10.7562816"><ele>18.0</ele><time>2026-05-02T15:05:04.044Z</time></trkpt><trkpt lat="45.1879481" lon="10.7563974"><ele>18.166666666666668</ele><time>2026-05-02T15:05:06.044Z</time></trkpt><trkpt lat="45.1879407" lon="10.756512"><ele>18.333333333333332</ele><time>2026-05-02T15:05:08.044Z</time></trkpt><trkpt lat="45.1879333" lon="10.7566281"><ele>18.5</ele><time>2026-05-02T15:05:10.044Z</time></trkpt><trkpt lat="45.1879305" lon="10.7567428"><ele>18.666666666666664</ele><time>2026-05-02T15:05:12.044Z</time></trkpt><trkpt lat="45.1879263" lon="10.7568583"><ele>18.833333333333332</ele><time>2026-05-02T15:05:14.044Z</time></trkpt><trkpt lat="45.1879196" lon="10.7569754"><ele>19.0</ele><time>2026-05-02T15:05:16.043Z</time></trkpt><trkpt lat="45.1879149" lon="10.7570942"><ele>19.0</ele><time>2026-05-02T15:05:18.044Z</time></trkpt><trkpt lat="45.1879136" lon="10.757207"><ele>19.0</ele><time>2026-05-02T15:05:20.043Z</time></trkpt><trkpt lat="45.1879073" lon="10.7573208"><ele>19.0</ele><time>2026-05-02T15:05:22.043Z</time></trkpt><trkpt lat="45.1878971" lon="10.7574307"><ele>19.0</ele><time>2026-05-02T15:05:24.044Z</time></trkpt><trkpt lat="45.1878836" lon="10.7575404"><ele>19.0</ele><time>2026-05-02T15:05:26.044Z</time></trkpt><trkpt lat="45.1878743" lon="10.7576473"><ele>19.0</ele><time>2026-05-02T15:05:28.044Z</time></trkpt><trkpt lat="45.1878604" lon="10.7577523"><ele>19.0</ele><time>2026-05-02T15:05:30.043Z</time></trkpt><trkpt lat="45.1878456" lon="10.7578601"><ele>19.0</ele><time>2026-05-02T15:05:32.043Z</time></trkpt><trkpt lat="45.1878377" lon="10.757966"><ele>19.0</ele><time>2026-05-02T15:05:34.044Z</time></trkpt><trkpt lat="45.1878279" lon="10.7580702"><ele>19.0</ele><time>2026-05-02T15:05:36.043Z</time></trkpt><trkpt lat="45.1878174" lon="10.75818"><ele>19.0</ele><time>2026-05-02T15:05:38.044Z</time></trkpt><trkpt lat="45.1878057" lon="10.7582914"><ele>19.0</ele><time>2026-05-02T15:05:40.044Z</time></trkpt><trkpt lat="45.1877983" lon="10.7584012"><ele>19.0</ele><time>2026-05-02T15:05:42.043Z</time></trkpt><trkpt lat="45.1877864" lon="10.7585096"><ele>19.0</ele><time>2026-05-02T15:05:44.043Z</time></trkpt><trkpt lat="45.1877714" lon="10.7586206"><ele>19.0</ele><time>2026-05-02T15:05:46.043Z</time></trkpt><trkpt lat="45.1877547" lon="10.7587313"><ele>19.0</ele><time>2026-05-02T15:05:48.044Z</time></trkpt><trkpt lat="45.18774" lon="10.7588432"><ele>19.0</ele><time>2026-05-02T15:05:50.044Z</time></trkpt><trkpt lat="45.1877256" lon="10.7589559"><ele>19.0</ele><time>2026-05-02T15:05:52.044Z</time></trkpt><trkpt lat="45.1877147" lon="10.7590674"><ele>19.0</ele><time>2026-05-02T15:05:54.044Z</time></trkpt><trkpt lat="45.1876993" lon="10.7591819"><ele>19.0</ele><time>2026-05-02T15:05:56.043Z</time></trkpt><trkpt lat="45.1876864" lon="10.7592905"><ele>19.0</ele><time>2026-05-02T15:05:58.043Z</time></trkpt><trkpt lat="45.1876695" lon="10.759397"><ele>19.0</ele><time>2026-05-02T15:06:00.044Z</time></trkpt><trkpt lat="45.1876564" lon="10.7595084"><ele>19.0</ele><time>2026-05-02T15:06:02.044Z</time></trkpt><trkpt lat="45.1876443" lon="10.7596186"><ele>19.0</ele><time>2026-05-02T15:06:04.042Z</time></trkpt><trkpt lat="45.1876338" lon="10.7597264"><ele>19.0</ele><time>2026-05-02T15:06:06.044Z</time></trkpt><trkpt lat="45.1876197" lon="10.7598341"><ele>19.0</ele><time>2026-05-02T15:06:08.044Z</time></trkpt><trkpt lat="45.1876046" lon="10.7599359"><ele>19.0</ele><time>2026-05-02T15:06:10.044Z</time></trkpt><trkpt lat="45.1875915" lon="10.7600379"><ele>19.0</ele><time>2026-05-02T15:06:12.044Z</time></trkpt><trkpt lat="45.1875792" lon="10.7601447"><ele>19.0</ele><time>2026-05-02T15:06:14.042Z</time></trkpt><trkpt lat="45.1875582" lon="10.7602504"><ele>19.0</ele><time>2026-05-02T15:06:16.043Z</time></trkpt><trkpt lat="45.1875406" lon="10.7603488"><ele>19.0</ele><time>2026-05-02T15:06:18.044Z</time></trkpt><trkpt lat="45.18753" lon="10.7604402"><ele>19.333333333333332</ele><time>2026-05-02T15:06:20.044Z</time></trkpt><trkpt lat="45.1875106" lon="10.7605663"><ele>19.666666666666664</ele><time>2026-05-02T15:06:23.044Z</time></trkpt><trkpt lat="45.1874992" lon="10.7606914"><ele>20.0</ele><time>2026-05-02T15:06:26.043Z</time></trkpt><trkpt lat="45.1874857" lon="10.7607855"><ele>20.333333333333332</ele><time>2026-05-02T15:06:28.043Z</time></trkpt><trkpt lat="45.1874765" lon="10.7608913"><ele>20.666666666666668</ele><time>2026-05-02T15:06:30.042Z</time></trkpt><trkpt lat="45.1874711" lon="10.7610011"><ele>21.0</ele><time>2026-05-02T15:06:32.043Z</time></trkpt><trkpt lat="45.187463" lon="10.7611149"><ele>21.428571428571427</ele><time>2026-05-02T15:06:34.043Z</time></trkpt><trkpt lat="45.1874504" lon="10.7612257"><ele>21.857142857142858</ele><time>2026-05-02T15:06:36.043Z</time></trkpt><trkpt lat="45.1874426" lon="10.7613325"><ele>22.285714285714285</ele><time>2026-05-02T15:06:38.044Z</time></trkpt><trkpt lat="45.1874287" lon="10.7614368"><ele>22.714285714285715</ele><time>2026-05-02T15:06:40.044Z</time></trkpt><trkpt lat="45.1874138" lon="10.7615426"><ele>23.142857142857142</ele><time>2026-05-02T15:06:42.044Z</time></trkpt><trkpt lat="45.1873987" lon="10.7616419"><ele>23.57142857142857</ele><time>2026-05-02T15:06:44.042Z</time></trkpt><trkpt lat="45.1873869" lon="10.7617411"><ele>24.0</ele><time>2026-05-02T15:06:46.042Z</time></trkpt><trkpt lat="45.1873729" lon="10.7618473"><ele>23.833333333333332</ele><time>2026-05-02T15:06:48.044Z</time></trkpt><trkpt lat="45.187359" lon="10.7619567"><ele>23.666666666666668</ele><time>2026-05-02T15:06:50.042Z</time></trkpt><trkpt lat="45.1873446" lon="10.762069"><ele>23.5</ele><time>2026-05-02T15:06:52.042Z</time></trkpt><trkpt lat="45.1873323" lon="10.7621784"><ele>23.333333333333336</ele><time>2026-05-02T15:06:54.043Z</time></trkpt><trkpt lat="45.1873205" lon="10.7622907"><ele>23.166666666666668</ele><time>2026-05-02T15:06:56.043Z</time></trkpt><trkpt lat="45.1873049" lon="10.7624013"><ele>23.0</ele><time>2026-05-02T15:06:58.042Z</time></trkpt><trkpt lat="45.187293" lon="10.7625098"><ele>22.666666666666668</ele><time>2026-05-02T15:07:00.044Z</time></trkpt><trkpt lat="45.1872819" lon="10.7626157"><ele>22.333333333333336</ele><time>2026-05-02T15:07:02.042Z</time></trkpt><trkpt lat="45.1872768" lon="10.7627249"><ele>22.0</ele><time>2026-05-02T15:07:04.043Z</time></trkpt><trkpt lat="45.1872645" lon="10.7628336"><ele>21.666666666666668</ele><time>2026-05-02T15:07:06.044Z</time></trkpt><trkpt lat="45.1872554" lon="10.7629411"><ele>21.333333333333332</ele><time>2026-05-02T15:07:08.042Z</time></trkpt><trkpt lat="45.187242" lon="10.7630498"><ele>21.0</ele><time>2026-05-02T15:07:10.043Z</time></trkpt><trkpt lat="45.1872248" lon="10.7631581"><ele>21.0</ele><time>2026-05-02T15:07:12.043Z</time></trkpt><trkpt lat="45.1872052" lon="10.7632642"><ele>21.0</ele><time>2026-05-02T15:07:14.043Z</time></trkpt><trkpt lat="45.1871938" lon="10.7633759"><ele>21.0</ele><time>2026-05-02T15:07:16.044Z</time></trkpt><trkpt lat="45.1871797" lon="10.7634861"><ele>21.0</ele><time>2026-05-02T15:07:18.043Z</time></trkpt><trkpt lat="45.1871663" lon="10.7635955"><ele>21.0</ele><time>2026-05-02T15:07:20.044Z</time></trkpt><trkpt lat="45.1871536" lon="10.7637057"><ele>21.0</ele><time>2026-05-02T15:07:22.044Z</time></trkpt><trkpt lat="45.1871399" lon="10.7638095"><ele>21.0</ele><time>2026-05-02T15:07:24.042Z</time></trkpt><trkpt lat="45.1871293" lon="10.7639128"><ele>21.0</ele><time>2026-05-02T15:07:26.043Z</time></trkpt><trkpt lat="45.1871169" lon="10.7640176"><ele>21.0</ele><time>2026-05-02T15:07:28.044Z</time></trkpt><trkpt lat="45.1871032" lon="10.7641227"><ele>21.0</ele><time>2026-05-02T15:07:30.043Z</time></trkpt><trkpt lat="45.1870923" lon="10.7642312"><ele>21.0</ele><time>2026-05-02T15:07:32.043Z</time></trkpt><trkpt lat="45.1870789" lon="10.7643421"><ele>21.0</ele><time>2026-05-02T15:07:34.042Z</time></trkpt><trkpt lat="45.1870657" lon="10.7644491"><ele>20.857142857142858</ele><time>2026-05-02T15:07:36.042Z</time></trkpt><trkpt lat="45.1870518" lon="10.764559"><ele>20.714285714285715</ele><time>2026-05-02T15:07:38.043Z</time></trkpt><trkpt lat="45.187038" lon="10.7646688"><ele>20.57142857142857</ele><time>2026-05-02T15:07:40.044Z</time></trkpt><trkpt lat="45.187027" lon="10.764779"><ele>20.42857142857143</ele><time>2026-05-02T15:07:42.043Z</time></trkpt><trkpt lat="45.1870119" lon="10.7648786"><ele>20.285714285714285</ele><time>2026-05-02T15:07:44.043Z</time></trkpt><trkpt lat="45.1869992" lon="10.7649735"><ele>20.142857142857142</ele><time>2026-05-02T15:07:46.042Z</time></trkpt><trkpt lat="45.1869869" lon="10.765062"><ele>20.0</ele><time>2026-05-02T15:07:48.043Z</time></trkpt><trkpt lat="45.1869725" lon="10.7651929"><ele>20.285714285714285</ele><time>2026-05-02T15:07:51.043Z</time></trkpt><trkpt lat="45.1869647" lon="10.7653204"><ele>20.571428571428573</ele><time>2026-05-02T15:07:54.043Z</time></trkpt><trkpt lat="45.1869559" lon="10.7654132"><ele>20.857142857142858</ele><time>2026-05-02T15:07:56.042Z</time></trkpt><trkpt lat="45.1869376" lon="10.7655119"><ele>21.142857142857142</ele><time>2026-05-02T15:07:58.043Z</time></trkpt><trkpt lat="45.1869268" lon="10.765613"><ele>21.428571428571427</ele><time>2026-05-02T15:08:00.043Z</time></trkpt><trkpt lat="45.1869094" lon="10.765716"><ele>21.714285714285715</ele><time>2026-05-02T15:08:02.044Z</time></trkpt><trkpt lat="45.1868976" lon="10.7658125"><ele>22.0</ele><time>2026-05-02T15:08:04.043Z</time></trkpt><trkpt lat="45.1868875" lon="10.7659053"><ele>22.0</ele><time>2026-05-02T15:08:06.043Z</time></trkpt><trkpt lat="45.1868728" lon="10.7660308"><ele>22.0</ele><time>2026-05-02T15:08:09.044Z</time></trkpt><trkpt lat="45.1868679" lon="10.7661383"><ele>22.0</ele><time>2026-05-02T15:08:12.042Z</time></trkpt><trkpt lat="45.1868102" lon="10.7662075"><ele>22.0</ele><time>2026-05-02T15:08:15.042Z</time></trkpt><trkpt lat="45.1867507" lon="10.7661628"><ele>22.0</ele><time>2026-05-02T15:08:17.044Z</time></trkpt><trkpt lat="45.1866907" lon="10.7661019"><ele>22.0</ele><time>2026-05-02T15:08:19.043Z</time></trkpt><trkpt lat="45.1866305" lon="10.7660339"><ele>22.0</ele><time>2026-05-02T15:08:21.044Z</time></trkpt><trkpt lat="45.1865642" lon="10.7660342"><ele>22.0</ele><time>2026-05-02T15:08:23.043Z</time></trkpt><trkpt lat="45.1865158" lon="10.766118"><ele>22.0</ele><time>2026-05-02T15:08:25.042Z</time></trkpt><trkpt lat="45.1864799" lon="10.7662126"><ele>22.0</ele><time>2026-05-02T15:08:27.042Z</time></trkpt><trkpt lat="45.1864449" lon="10.7663008"><ele>22.0</ele><time>2026-05-02T15:08:29.042Z</time></trkpt><trkpt lat="45.1864165" lon="10.7663852"><ele>22.0</ele><time>2026-05-02T15:08:31.043Z</time></trkpt><trkpt lat="45.1863841" lon="10.7665008"><ele>22.0</ele><time>2026-05-02T15:08:34.043Z</time></trkpt><trkpt lat="45.1863503" lon="10.7666079"><ele>21.714285714285715</ele><time>2026-05-02T15:08:37.044Z</time></trkpt><trkpt lat="45.1863163" lon="10.7667222"><ele>21.428571428571427</ele><time>2026-05-02T15:08:40.044Z</time></trkpt><trkpt lat="45.186288" lon="10.7668032"><ele>21.142857142857142</ele><time>2026-05-02T15:08:42.042Z</time></trkpt><trkpt lat="45.1862575" lon="10.7668817"><ele>20.857142857142858</ele><time>2026-05-02T15:08:44.043Z</time></trkpt><trkpt lat="45.1862265" lon="10.7669616"><ele>20.571428571428573</ele><time>2026-05-02T15:08:46.041Z</time></trkpt><trkpt lat="45.1861899" lon="10.7670366"><ele>20.285714285714285</ele><time>2026-05-02T15:08:48.044Z</time></trkpt><trkpt lat="45.1861525" lon="10.7671093"><ele>20.0</ele><time>2026-05-02T15:08:50.044Z</time></trkpt><trkpt lat="45.1860905" lon="10.7672125"><ele>19.857142857142858</ele><time>2026-05-02T15:08:53.043Z</time></trkpt><trkpt lat="45.186043" lon="10.7672794"><ele>19.714285714285715</ele><time>2026-05-02T15:08:55.042Z</time></trkpt><trkpt lat="45.1859948" lon="10.7673421"><ele>19.57142857142857</ele><time>2026-05-02T15:08:57.042Z</time></trkpt><trkpt lat="45.1859435" lon="10.7673943"><ele>19.42857142857143</ele><time>2026-05-02T15:08:59.042Z</time></trkpt><trkpt lat="45.1858923" lon="10.7674479"><ele>19.28571428571429</ele><time>2026-05-02T15:09:01.042Z</time></trkpt><trkpt lat="45.1858394" lon="10.7675056"><ele>19.142857142857142</ele><time>2026-05-02T15:09:03.043Z</time></trkpt><trkpt lat="45.1857895" lon="10.7675689"><ele>19.0</ele><time>2026-05-02T15:09:05.042Z</time></trkpt><trkpt lat="45.1857381" lon="10.7676334"><ele>19.0</ele><time>2026-05-02T15:09:07.042Z</time></trkpt><trkpt lat="45.1856914" lon="10.7677069"><ele>19.0</ele><time>2026-05-02T15:09:09.042Z</time></trkpt><trkpt lat="45.1856463" lon="10.7677713"><ele>19.0</ele><time>2026-05-02T15:09:11.042Z</time></trkpt><trkpt lat="45.1855808" lon="10.7677564"><ele>19.0</ele><time>2026-05-02T15:09:13.042Z</time></trkpt><trkpt lat="45.1855203" lon="10.7676984"><ele>19.0</ele><time>2026-05-02T15:09:15.041Z</time></trkpt><trkpt lat="45.185456" lon="10.7676466"><ele>19.0</ele><time>2026-05-02T15:09:17.043Z</time></trkpt><trkpt lat="45.1853878" lon="10.7675945"><ele>19.0</ele><time>2026-05-02T15:09:19.043Z</time></trkpt><trkpt lat="45.1853154" lon="10.7675403"><ele>19.0</ele><time>2026-05-02T15:09:21.042Z</time></trkpt><trkpt lat="45.1852396" lon="10.7674874"><ele>19.0</ele><time>2026-05-02T15:09:23.041Z</time></trkpt><trkpt lat="45.1851625" lon="10.7674232"><ele>19.0</ele><time>2026-05-02T15:09:25.043Z</time></trkpt><trkpt lat="45.1850829" lon="10.7673763"><ele>19.0</ele><time>2026-05-02T15:09:27.042Z</time></trkpt><trkpt lat="45.1850115" lon="10.7673177"><ele>19.0</ele><time>2026-05-02T15:09:29.042Z</time></trkpt><trkpt lat="45.1849387" lon="10.7672709"><ele>19.0</ele><time>2026-05-02T15:09:31.042Z</time></trkpt><trkpt lat="45.1848682" lon="10.7672189"><ele>19.166666666666664</ele><time>2026-05-02T15:09:33.042Z</time></trkpt><trkpt lat="45.1847938" lon="10.7671776"><ele>19.333333333333332</ele><time>2026-05-02T15:09:35.042Z</time></trkpt><trkpt lat="45.1847222" lon="10.7671275"><ele>19.5</ele><time>2026-05-02T15:09:37.042Z</time></trkpt><trkpt lat="45.184653" lon="10.7670748"><ele>19.666666666666668</ele><time>2026-05-02T15:09:39.042Z</time></trkpt><trkpt lat="45.1845855" lon="10.7670226"><ele>19.833333333333336</ele><time>2026-05-02T15:09:41.043Z</time></trkpt><trkpt lat="45.1845212" lon="10.7669736"><ele>20.0</ele><time>2026-05-02T15:09:43.043Z</time></trkpt><trkpt lat="45.1844559" lon="10.7669268"><ele>20.0</ele><time>2026-05-02T15:09:45.043Z</time></trkpt><trkpt lat="45.1843895" lon="10.7668794"><ele>20.0</ele><time>2026-05-02T15:09:47.043Z</time></trkpt><trkpt lat="45.184318" lon="10.7668326"><ele>20.0</ele><time>2026-05-02T15:09:49.043Z</time></trkpt><trkpt lat="45.1842417" lon="10.7667854"><ele>20.0</ele><time>2026-05-02T15:09:51.042Z</time></trkpt><trkpt lat="45.1841716" lon="10.766737"><ele>20.0</ele><time>2026-05-02T15:09:53.042Z</time></trkpt><trkpt lat="45.1840956" lon="10.7666954"><ele>20.0</ele><time>2026-05-02T15:09:55.043Z</time></trkpt><trkpt lat="45.1840209" lon="10.766676"><ele>19.833333333333336</ele><time>2026-05-02T15:09:57.042Z</time></trkpt><trkpt lat="45.1839621" lon="10.7667405"><ele>19.666666666666668</ele><time>2026-05-02T15:09:59.043Z</time></trkpt><trkpt lat="45.1839492" lon="10.7668528"><ele>19.5</ele><time>2026-05-02T15:10:01.042Z</time></trkpt><trkpt lat="45.183935" lon="10.7669584"><ele>19.333333333333332</ele><time>2026-05-02T15:10:03.043Z</time></trkpt><trkpt lat="45.1839202" lon="10.7670678"><ele>19.166666666666664</ele><time>2026-05-02T15:10:05.044Z</time></trkpt><trkpt lat="45.183906" lon="10.7671826"><ele>19.0</ele><time>2026-05-02T15:10:07.042Z</time></trkpt><trkpt lat="45.1838933" lon="10.7673004"><ele>19.0</ele><time>2026-05-02T15:10:09.043Z</time></trkpt><trkpt lat="45.1838759" lon="10.7674199"><ele>19.0</ele><time>2026-05-02T15:10:11.042Z</time></trkpt><trkpt lat="45.1838549" lon="10.7675413"><ele>19.0</ele><time>2026-05-02T15:10:13.043Z</time></trkpt><trkpt lat="45.1838371" lon="10.7676773"><ele>19.0</ele><time>2026-05-02T15:10:15.043Z</time></trkpt><trkpt lat="45.1838071" lon="10.7678198"><ele>19.0</ele><time>2026-05-02T15:10:17.044Z</time></trkpt><trkpt lat="45.1837861" lon="10.7679518"><ele>19.166666666666664</ele><time>2026-05-02T15:10:19.042Z</time></trkpt><trkpt lat="45.1837764" lon="10.768076"><ele>19.333333333333332</ele><time>2026-05-02T15:10:21.043Z</time></trkpt><trkpt lat="45.1837669" lon="10.7682049"><ele>19.5</ele><time>2026-05-02T15:10:23.042Z</time></trkpt><trkpt lat="45.1837628" lon="10.7683248"><ele>19.666666666666668</ele><time>2026-05-02T15:10:25.042Z</time></trkpt><trkpt lat="45.1837495" lon="10.7684421"><ele>19.833333333333336</ele><time>2026-05-02T15:10:27.044Z</time></trkpt><trkpt lat="45.1837338" lon="10.7685609"><ele>20.0</ele><time>2026-05-02T15:10:29.043Z</time></trkpt><trkpt lat="45.1837119" lon="10.7686683"><ele>20.333333333333336</ele><time>2026-05-02T15:10:31.043Z</time></trkpt><trkpt lat="45.1836867" lon="10.768772"><ele>20.666666666666668</ele><time>2026-05-02T15:10:33.043Z</time></trkpt><trkpt lat="45.1836521" lon="10.7688704"><ele>21.0</ele><time>2026-05-02T15:10:35.043Z</time></trkpt><trkpt lat="45.1836204" lon="10.7689686"><ele>21.333333333333332</ele><time>2026-05-02T15:10:37.042Z</time></trkpt><trkpt lat="45.1835838" lon="10.769061"><ele>21.666666666666664</ele><time>2026-05-02T15:10:39.041Z</time></trkpt><trkpt lat="45.1835434" lon="10.7691493"><ele>22.0</ele><time>2026-05-02T15:10:41.042Z</time></trkpt><trkpt lat="45.1834969" lon="10.7692379"><ele>22.0</ele><time>2026-05-02T15:10:43.042Z</time></trkpt><trkpt lat="45.1834512" lon="10.7693253"><ele>22.0</ele><time>2026-05-02T15:10:45.043Z</time></trkpt><trkpt lat="45.1834022" lon="10.7694126"><ele>22.0</ele><time>2026-05-02T15:10:47.043Z</time></trkpt><trkpt lat="45.1833497" lon="10.7695019"><ele>22.0</ele><time>2026-05-02T15:10:49.042Z</time></trkpt><trkpt lat="45.183295" lon="10.7695993"><ele>22.0</ele><time>2026-05-02T15:10:51.043Z</time></trkpt><trkpt lat="45.1832356" lon="10.7697"><ele>22.0</ele><time>2026-05-02T15:10:53.043Z</time></trkpt><trkpt lat="45.183217" lon="10.7698126"><ele>21.857142857142858</ele><time>2026-05-02T15:10:55.041Z</time></trkpt><trkpt lat="45.1832735" lon="10.7698983"><ele>21.714285714285715</ele><time>2026-05-02T15:10:57.043Z</time></trkpt><trkpt lat="45.1832637" lon="10.7699888"><ele>21.57142857142857</ele><time>2026-05-02T15:10:59.043Z</time></trkpt><trkpt lat="45.1832199" lon="10.7700549"><ele>21.42857142857143</ele><time>2026-05-02T15:11:01.043Z</time></trkpt><trkpt lat="45.1831698" lon="10.7701214"><ele>21.285714285714285</ele><time>2026-05-02T15:11:03.043Z</time></trkpt><trkpt lat="45.1831195" lon="10.7701895"><ele>21.142857142857142</ele><time>2026-05-02T15:11:05.043Z</time></trkpt><trkpt lat="45.1830621" lon="10.7702567"><ele>21.0</ele><time>2026-05-02T15:11:07.043Z</time></trkpt><trkpt lat="45.1830039" lon="10.7703299"><ele>20.833333333333332</ele><time>2026-05-02T15:11:09.043Z</time></trkpt><trkpt lat="45.1829479" lon="10.7704017"><ele>20.666666666666668</ele><time>2026-05-02T15:11:11.043Z</time></trkpt><trkpt lat="45.1828892" lon="10.7704623"><ele>20.5</ele><time>2026-05-02T15:11:13.043Z</time></trkpt><trkpt lat="45.1828319" lon="10.7705246"><ele>20.333333333333336</ele><time>2026-05-02T15:11:15.043Z</time></trkpt><trkpt lat="45.1827767" lon="10.7705965"><ele>20.166666666666668</ele><time>2026-05-02T15:11:17.042Z</time></trkpt><trkpt lat="45.18272" lon="10.770671"><ele>20.0</ele><time>2026-05-02T15:11:19.042Z</time></trkpt><trkpt lat="45.1826612" lon="10.7707443"><ele>20.0</ele><time>2026-05-02T15:11:21.043Z</time></trkpt><trkpt lat="45.1826022" lon="10.7708149"><ele>20.0</ele><time>2026-05-02T15:11:23.042Z</time></trkpt><trkpt lat="45.1825411" lon="10.7708894"><ele>20.0</ele><time>2026-05-02T15:11:25.043Z</time></trkpt><trkpt lat="45.1824811" lon="10.7709636"><ele>20.0</ele><time>2026-05-02T15:11:27.042Z</time></trkpt><trkpt lat="45.1824245" lon="10.7710412"><ele>20.0</ele><time>2026-05-02T15:11:29.042Z</time></trkpt><trkpt lat="45.1823654" lon="10.7711175"><ele>20.0</ele><time>2026-05-02T15:11:31.041Z</time></trkpt><trkpt lat="45.182306" lon="10.771193"><ele>19.5</ele><time>2026-05-02T15:11:33.043Z</time></trkpt><trkpt lat="45.1822472" lon="10.7712655"><ele>19.0</ele><time>2026-05-02T15:11:35.042Z</time></trkpt><trkpt lat="45.1821895" lon="10.7713422"><ele>18.5</ele><time>2026-05-02T15:11:37.043Z</time></trkpt><trkpt lat="45.18213" lon="10.771414"><ele>18.0</ele><time>2026-05-02T15:11:39.043Z</time></trkpt><trkpt lat="45.1820708" lon="10.7714841"><ele>17.5</ele><time>2026-05-02T15:11:41.043Z</time></trkpt><trkpt lat="45.182009" lon="10.7715421"><ele>17.0</ele><time>2026-05-02T15:11:43.042Z</time></trkpt><trkpt lat="45.1819466" lon="10.7715988"><ele>16.999999999999996</ele><time>2026-05-02T15:11:45.042Z</time></trkpt><trkpt lat="45.1818796" lon="10.7716364"><ele>17.0</ele><time>2026-05-02T15:11:47.042Z</time></trkpt><trkpt lat="45.1818276" lon="10.7715837"><ele>17.0</ele><time>2026-05-02T15:11:49.043Z</time></trkpt><trkpt lat="45.1817966" lon="10.7714821"><ele>17.0</ele><time>2026-05-02T15:11:52.042Z</time></trkpt><trkpt lat="45.1817352" lon="10.771426"><ele>17.0</ele><time>2026-05-02T15:11:55.042Z</time></trkpt><trkpt lat="45.1816462" lon="10.7714585"><ele>16.999999999999996</ele><time>2026-05-02T15:11:58.043Z</time></trkpt><trkpt lat="45.1815837" lon="10.7714808"><ele>17.0</ele><time>2026-05-02T15:12:00.042Z</time></trkpt><trkpt lat="45.1815117" lon="10.7715038"><ele>17.166666666666668</ele><time>2026-05-02T15:12:02.043Z</time></trkpt><trkpt lat="45.1814418" lon="10.7715238"><ele>17.333333333333336</ele><time>2026-05-02T15:12:04.042Z</time></trkpt><trkpt lat="45.1813703" lon="10.7715462"><ele>17.5</ele><time>2026-05-02T15:12:06.042Z</time></trkpt><trkpt lat="45.1812976" lon="10.7715654"><ele>17.666666666666668</ele><time>2026-05-02T15:12:08.042Z</time></trkpt><trkpt lat="45.1812219" lon="10.7715876"><ele>17.833333333333332</ele><time>2026-05-02T15:12:10.042Z</time></trkpt><trkpt lat="45.1811462" lon="10.7716105"><ele>18.0</ele><time>2026-05-02T15:12:12.043Z</time></trkpt><trkpt lat="45.181071" lon="10.7716315"><ele>18.0</ele><time>2026-05-02T15:12:14.042Z</time></trkpt><trkpt lat="45.1809956" lon="10.7716527"><ele>18.0</ele><time>2026-05-02T15:12:16.041Z</time></trkpt><trkpt lat="45.1809259" lon="10.7716749"><ele>18.0</ele><time>2026-05-02T15:12:18.042Z</time></trkpt><trkpt lat="45.1808546" lon="10.7716952"><ele>18.0</ele><time>2026-05-02T15:12:20.042Z</time></trkpt><trkpt lat="45.1807826" lon="10.7717212"><ele>18.0</ele><time>2026-05-02T15:12:22.042Z</time></trkpt><trkpt lat="45.1806589" lon="10.7717552"><ele>18.0</ele><time>2026-05-02T15:12:25.962Z</time></trkpt><trkpt lat="45.1805918" lon="10.771772"><ele>18.5</ele><time>2026-05-02T15:12:27.041Z</time></trkpt><trkpt lat="45.1805128" lon="10.7717671"><ele>19.0</ele><time>2026-05-02T15:12:29.041Z</time></trkpt><trkpt lat="45.1804343" lon="10.7717403"><ele>19.5</ele><time>2026-05-02T15:12:31.04Z</time></trkpt><trkpt lat="45.1803556" lon="10.7717042"><ele>20.0</ele><time>2026-05-02T15:12:33.041Z</time></trkpt><trkpt lat="45.180276" lon="10.7716707"><ele>20.5</ele><time>2026-05-02T15:12:35.042Z</time></trkpt><trkpt lat="45.1801926" lon="10.7716555"><ele>21.0</ele><time>2026-05-02T15:12:37.042Z</time></trkpt><trkpt lat="45.1801128" lon="10.7716595"><ele>21.0</ele><time>2026-05-02T15:12:39.041Z</time></trkpt><trkpt lat="45.1800311" lon="10.7716738"><ele>21.0</ele><time>2026-05-02T15:12:41.042Z</time></trkpt><trkpt lat="45.1799554" lon="10.7717081"><ele>21.0</ele><time>2026-05-02T15:12:43.042Z</time></trkpt><trkpt lat="45.1798808" lon="10.7717412"><ele>21.0</ele><time>2026-05-02T15:12:45.041Z</time></trkpt><trkpt lat="45.1798167" lon="10.7717679"><ele>21.0</ele><time>2026-05-02T15:12:47.041Z</time></trkpt><trkpt lat="45.1797535" lon="10.7717923"><ele>21.0</ele><time>2026-05-02T15:12:49.042Z</time></trkpt><trkpt lat="45.1796806" lon="10.771823"><ele>21.0</ele><time>2026-05-02T15:12:51.042Z</time></trkpt><trkpt lat="45.1796025" lon="10.7718567"><ele>21.166666666666668</ele><time>2026-05-02T15:12:53.043Z</time></trkpt><trkpt lat="45.1795259" lon="10.7718847"><ele>21.333333333333332</ele><time>2026-05-02T15:12:55.042Z</time></trkpt><trkpt lat="45.1794483" lon="10.7719216"><ele>21.5</ele><time>2026-05-02T15:12:57.042Z</time></trkpt><trkpt lat="45.1793695" lon="10.7719544"><ele>21.666666666666664</ele><time>2026-05-02T15:12:59.041Z</time></trkpt><trkpt lat="45.179284" lon="10.7719895"><ele>21.833333333333332</ele><time>2026-05-02T15:13:01.043Z</time></trkpt><trkpt lat="45.1792147" lon="10.772046"><ele>22.0</ele><time>2026-05-02T15:13:03.043Z</time></trkpt><trkpt lat="45.1791403" lon="10.7720986"><ele>22.0</ele><time>2026-05-02T15:13:05.043Z</time></trkpt><trkpt lat="45.179061" lon="10.7721694"><ele>22.0</ele><time>2026-05-02T15:13:07.042Z</time></trkpt><trkpt lat="45.1789944" lon="10.7722319"><ele>22.0</ele><time>2026-05-02T15:13:09.043Z</time></trkpt><trkpt lat="45.1789356" lon="10.7723081"><ele>22.0</ele><time>2026-05-02T15:13:11.041Z</time></trkpt><trkpt lat="45.178888" lon="10.7723881"><ele>22.0</ele><time>2026-05-02T15:13:13.041Z</time></trkpt><trkpt lat="45.178843" lon="10.7724715"><ele>22.0</ele><time>2026-05-02T15:13:15.042Z</time></trkpt><trkpt lat="45.178797" lon="10.7725595"><ele>21.333333333333332</ele><time>2026-05-02T15:13:17.043Z</time></trkpt><trkpt lat="45.1787533" lon="10.7726492"><ele>20.666666666666664</ele><time>2026-05-02T15:13:19.043Z</time></trkpt><trkpt lat="45.1787094" lon="10.7727455"><ele>20.0</ele><time>2026-05-02T15:13:21.042Z</time></trkpt><trkpt lat="45.1786697" lon="10.7728483"><ele>19.333333333333332</ele><time>2026-05-02T15:13:23.043Z</time></trkpt><trkpt lat="45.178636" lon="10.7729566"><ele>18.666666666666668</ele><time>2026-05-02T15:13:25.042Z</time></trkpt><trkpt lat="45.1786094" lon="10.7730625"><ele>18.0</ele><time>2026-05-02T15:13:27.041Z</time></trkpt><trkpt lat="45.1785811" lon="10.7731674"><ele>18.0</ele><time>2026-05-02T15:13:29.043Z</time></trkpt><trkpt lat="45.1785674" lon="10.7732897"><ele>18.0</ele><time>2026-05-02T15:13:31.042Z</time></trkpt><trkpt lat="45.1785542" lon="10.7734106"><ele>18.0</ele><time>2026-05-02T15:13:33.043Z</time></trkpt><trkpt lat="45.1785413" lon="10.7735246"><ele>18.0</ele><time>2026-05-02T15:13:35.042Z</time></trkpt><trkpt lat="45.1785294" lon="10.7736394"><ele>18.0</ele><time>2026-05-02T15:13:37.043Z</time></trkpt><trkpt lat="45.1785238" lon="10.773762"><ele>18.0</ele><time>2026-05-02T15:13:39.042Z</time></trkpt><trkpt lat="45.1785231" lon="10.7738819"><ele>18.0</ele><time>2026-05-02T15:13:41.043Z</time></trkpt><trkpt lat="45.178528" lon="10.7739911"><ele>18.0</ele><time>2026-05-02T15:13:43.042Z</time></trkpt><trkpt lat="45.1785371" lon="10.774101"><ele>18.0</ele><time>2026-05-02T15:13:45.042Z</time></trkpt><trkpt lat="45.1785555" lon="10.7742088"><ele>18.0</ele><time>2026-05-02T15:13:47.043Z</time></trkpt><trkpt lat="45.1785793" lon="10.7743134"><ele>18.0</ele><time>2026-05-02T15:13:49.042Z</time></trkpt><trkpt lat="45.1785929" lon="10.7744203"><ele>18.0</ele><time>2026-05-02T15:13:51.041Z</time></trkpt><trkpt lat="45.1786006" lon="10.7745292"><ele>17.833333333333332</ele><time>2026-05-02T15:13:53.043Z</time></trkpt><trkpt lat="45.1785917" lon="10.774635"><ele>17.666666666666668</ele><time>2026-05-02T15:13:55.042Z</time></trkpt><trkpt lat="45.1785742" lon="10.7747424"><ele>17.5</ele><time>2026-05-02T15:13:57.043Z</time></trkpt><trkpt lat="45.178549" lon="10.7748491"><ele>17.333333333333336</ele><time>2026-05-02T15:13:59.043Z</time></trkpt><trkpt lat="45.178517" lon="10.7749575"><ele>17.166666666666668</ele><time>2026-05-02T15:14:01.042Z</time></trkpt><trkpt lat="45.1784807" lon="10.7750677"><ele>17.0</ele><time>2026-05-02T15:14:03.042Z</time></trkpt><trkpt lat="45.1784466" lon="10.7751727"><ele>17.0</ele><time>2026-05-02T15:14:05.042Z</time></trkpt><trkpt lat="45.1784128" lon="10.7752888"><ele>17.0</ele><time>2026-05-02T15:14:07.042Z</time></trkpt><trkpt lat="45.1783809" lon="10.775393"><ele>17.0</ele><time>2026-05-02T15:14:09.042Z</time></trkpt><trkpt lat="45.1783537" lon="10.7754967"><ele>17.0</ele><time>2026-05-02T15:14:11.042Z</time></trkpt><trkpt lat="45.1783241" lon="10.7756027"><ele>17.0</ele><time>2026-05-02T15:14:13.042Z</time></trkpt><trkpt lat="45.1782915" lon="10.7757095"><ele>17.0</ele><time>2026-05-02T15:14:15.042Z</time></trkpt><trkpt lat="45.1782572" lon="10.7758136"><ele>17.0</ele><time>2026-05-02T15:14:17.043Z</time></trkpt><trkpt lat="45.1782233" lon="10.7759158"><ele>17.0</ele><time>2026-05-02T15:14:19.043Z</time></trkpt><trkpt lat="45.1781876" lon="10.7760205"><ele>17.0</ele><time>2026-05-02T15:14:21.042Z</time></trkpt><trkpt lat="45.1781504" lon="10.7761245"><ele>17.0</ele><time>2026-05-02T15:14:23.042Z</time></trkpt><trkpt lat="45.17811" lon="10.7762321"><ele>17.0</ele><time>2026-05-02T15:14:25.042Z</time></trkpt><trkpt lat="45.1780679" lon="10.7763352"><ele>17.0</ele><time>2026-05-02T15:14:27.043Z</time></trkpt><trkpt lat="45.1780238" lon="10.7764331"><ele>17.0</ele><time>2026-05-02T15:14:29.042Z</time></trkpt><trkpt lat="45.1779821" lon="10.7765288"><ele>17.0</ele><time>2026-05-02T15:14:31.043Z</time></trkpt><trkpt lat="45.1779389" lon="10.7766273"><ele>17.0</ele><time>2026-05-02T15:14:33.042Z</time></trkpt><trkpt lat="45.1778957" lon="10.7767281"><ele>17.0</ele><time>2026-05-02T15:14:35.042Z</time></trkpt><trkpt lat="45.1778564" lon="10.7768279"><ele>17.0</ele><time>2026-05-02T15:14:37.041Z</time></trkpt><trkpt lat="45.1778178" lon="10.7769257"><ele>17.0</ele><time>2026-05-02T15:14:39.043Z</time></trkpt><trkpt lat="45.1777832" lon="10.7770238"><ele>17.0</ele><time>2026-05-02T15:14:41.043Z</time></trkpt><trkpt lat="45.1777509" lon="10.7771223"><ele>17.0</ele><time>2026-05-02T15:14:43.042Z</time></trkpt><trkpt lat="45.1777162" lon="10.7772233"><ele>17.0</ele><time>2026-05-02T15:14:45.041Z</time></trkpt><trkpt lat="45.1776842" lon="10.7773285"><ele>17.0</ele><time>2026-05-02T15:14:47.041Z</time></trkpt><trkpt lat="45.1776558" lon="10.7774362"><ele>17.0</ele><time>2026-05-02T15:14:49.041Z</time></trkpt><trkpt lat="45.1776358" lon="10.7775455"><ele>17.0</ele><time>2026-05-02T15:14:51.042Z</time></trkpt><trkpt lat="45.1776076" lon="10.777656"><ele>17.166666666666668</ele><time>2026-05-02T15:14:53.042Z</time></trkpt><trkpt lat="45.1775769" lon="10.7777661"><ele>17.333333333333336</ele><time>2026-05-02T15:14:55.042Z</time></trkpt><trkpt lat="45.1775426" lon="10.7778744"><ele>17.5</ele><time>2026-05-02T15:14:57.043Z</time></trkpt><trkpt lat="45.1775058" lon="10.7779796"><ele>17.666666666666668</ele><time>2026-05-02T15:14:59.042Z</time></trkpt><trkpt lat="45.1774722" lon="10.7780748"><ele>17.833333333333332</ele><time>2026-05-02T15:15:01.042Z</time></trkpt><trkpt lat="45.177443" lon="10.7781646"><ele>18.0</ele><time>2026-05-02T15:15:03.043Z</time></trkpt><trkpt lat="45.1774109" lon="10.7782583"><ele>18.000000000000004</ele><time>2026-05-02T15:15:05.042Z</time></trkpt><trkpt lat="45.1773836" lon="10.7783534"><ele>18.0</ele><time>2026-05-02T15:15:07.042Z</time></trkpt><trkpt lat="45.1773551" lon="10.7784496"><ele>18.0</ele><time>2026-05-02T15:15:09.042Z</time></trkpt><trkpt lat="45.1773287" lon="10.7785489"><ele>18.0</ele><time>2026-05-02T15:15:11.042Z</time></trkpt><trkpt lat="45.1773033" lon="10.7786443"><ele>18.0</ele><time>2026-05-02T15:15:13.042Z</time></trkpt><trkpt lat="45.1772766" lon="10.7787401"><ele>18.000000000000004</ele><time>2026-05-02T15:15:15.041Z</time></trkpt><trkpt lat="45.1772432" lon="10.7788376"><ele>18.0</ele><time>2026-05-02T15:15:17.041Z</time></trkpt><trkpt lat="45.1772037" lon="10.7789291"><ele>18.166666666666668</ele><time>2026-05-02T15:15:19.043Z</time></trkpt><trkpt lat="45.1771641" lon="10.7790195"><ele>18.333333333333332</ele><time>2026-05-02T15:15:21.043Z</time></trkpt><trkpt lat="45.1771202" lon="10.7791106"><ele>18.5</ele><time>2026-05-02T15:15:23.041Z</time></trkpt><trkpt lat="45.1770768" lon="10.7792039"><ele>18.666666666666664</ele><time>2026-05-02T15:15:25.041Z</time></trkpt><trkpt lat="45.1770221" lon="10.7792962"><ele>18.833333333333332</ele><time>2026-05-02T15:15:27.954Z</time></trkpt><trkpt lat="45.1769788" lon="10.7793645"><ele>19.0</ele><time>2026-05-02T15:15:29.041Z</time></trkpt><trkpt lat="45.1769323" lon="10.7794551"><ele>19.166666666666664</ele><time>2026-05-02T15:15:31.041Z</time></trkpt><trkpt lat="45.1768863" lon="10.7795412"><ele>19.333333333333332</ele><time>2026-05-02T15:15:33.041Z</time></trkpt><trkpt lat="45.1768443" lon="10.7796276"><ele>19.5</ele><time>2026-05-02T15:15:35.042Z</time></trkpt><trkpt lat="45.1768069" lon="10.7797073"><ele>19.666666666666668</ele><time>2026-05-02T15:15:37.042Z</time></trkpt><trkpt lat="45.1767876" lon="10.7798139"><ele>19.833333333333336</ele><time>2026-05-02T15:15:40.041Z</time></trkpt><trkpt lat="45.1768179" lon="10.7799204"><ele>20.0</ele><time>2026-05-02T15:15:43.041Z</time></trkpt><trkpt lat="45.1768727" lon="10.7800265"><ele>20.0</ele><time>2026-05-02T15:15:46.042Z</time></trkpt><trkpt lat="45.1769106" lon="10.7801002"><ele>20.0</ele><time>2026-05-02T15:15:48.042Z</time></trkpt><trkpt lat="45.1769455" lon="10.7801953"><ele>20.0</ele><time>2026-05-02T15:15:50.043Z</time></trkpt><trkpt lat="45.1769832" lon="10.780317"><ele>20.0</ele><time>2026-05-02T15:15:52.042Z</time></trkpt><trkpt lat="45.1770105" lon="10.7804323"><ele>20.0</ele><time>2026-05-02T15:15:54.041Z</time></trkpt><trkpt lat="45.1770326" lon="10.7805413"><ele>20.0</ele><time>2026-05-02T15:15:56.042Z</time></trkpt><trkpt lat="45.1770583" lon="10.7806476"><ele>20.166666666666668</ele><time>2026-05-02T15:15:58.042Z</time></trkpt><trkpt lat="45.1770787" lon="10.7807532"><ele>20.333333333333336</ele><time>2026-05-02T15:16:00.041Z</time></trkpt><trkpt lat="45.1770977" lon="10.7808603"><ele>20.5</ele><time>2026-05-02T15:16:02.043Z</time></trkpt><trkpt lat="45.1771175" lon="10.7809719"><ele>20.666666666666668</ele><time>2026-05-02T15:16:04.041Z</time></trkpt><trkpt lat="45.1771356" lon="10.7810854"><ele>20.833333333333332</ele><time>2026-05-02T15:16:06.041Z</time></trkpt><trkpt lat="45.1771573" lon="10.7811952"><ele>21.0</ele><time>2026-05-02T15:16:08.042Z</time></trkpt><trkpt lat="45.1771725" lon="10.78131"><ele>20.5</ele><time>2026-05-02T15:16:10.042Z</time></trkpt><trkpt lat="45.1771917" lon="10.7814261"><ele>20.0</ele><time>2026-05-02T15:16:12.042Z</time></trkpt><trkpt lat="45.1772129" lon="10.7815375"><ele>19.5</ele><time>2026-05-02T15:16:14.04Z</time></trkpt><trkpt lat="45.1772296" lon="10.7816445"><ele>19.0</ele><time>2026-05-02T15:16:16.041Z</time></trkpt><trkpt lat="45.1772476" lon="10.7817436"><ele>18.5</ele><time>2026-05-02T15:16:18.042Z</time></trkpt><trkpt lat="45.1772687" lon="10.7818464"><ele>18.0</ele><time>2026-05-02T15:16:20.043Z</time></trkpt><trkpt lat="45.1772967" lon="10.7819456"><ele>17.857142857142858</ele><time>2026-05-02T15:16:22.041Z</time></trkpt><trkpt lat="45.1773317" lon="10.7820441"><ele>17.714285714285715</ele><time>2026-05-02T15:16:24.042Z</time></trkpt><trkpt lat="45.1773648" lon="10.7821401"><ele>17.57142857142857</ele><time>2026-05-02T15:16:26.042Z</time></trkpt><trkpt lat="45.1774027" lon="10.7822288"><ele>17.42857142857143</ele><time>2026-05-02T15:16:28.042Z</time></trkpt><trkpt lat="45.1774449" lon="10.7823132"><ele>17.285714285714285</ele><time>2026-05-02T15:16:30.041Z</time></trkpt><trkpt lat="45.1774884" lon="10.7823958"><ele>17.142857142857142</ele><time>2026-05-02T15:16:32.042Z</time></trkpt><trkpt lat="45.1775368" lon="10.7824713"><ele>17.0</ele><time>2026-05-02T15:16:34.041Z</time></trkpt><trkpt lat="45.1775903" lon="10.7825462"><ele>16.857142857142854</ele><time>2026-05-02T15:16:36.042Z</time></trkpt><trkpt lat="45.177646" lon="10.7826228"><ele>16.714285714285715</ele><time>2026-05-02T15:16:38.042Z</time></trkpt><trkpt lat="45.1776994" lon="10.7826959"><ele>16.57142857142857</ele><time>2026-05-02T15:16:40.042Z</time></trkpt><trkpt lat="45.1777532" lon="10.7827736"><ele>16.428571428571427</ele><time>2026-05-02T15:16:42.041Z</time></trkpt><trkpt lat="45.1778044" lon="10.7828332"><ele>16.285714285714285</ele><time>2026-05-02T15:16:44.042Z</time></trkpt><trkpt lat="45.1778609" lon="10.7828942"><ele>16.142857142857142</ele><time>2026-05-02T15:16:46.042Z</time></trkpt><trkpt lat="45.1779238" lon="10.7829674"><ele>16.0</ele><time>2026-05-02T15:16:49.042Z</time></trkpt><trkpt lat="45.1779134" lon="10.7830718"><ele>16.428571428571427</ele><time>2026-05-02T15:16:54.041Z</time></trkpt><trkpt lat="45.177852" lon="10.7831332"><ele>16.857142857142854</ele><time>2026-05-02T15:16:57.04Z</time></trkpt><trkpt lat="45.1778332" lon="10.7832519"><ele>17.285714285714285</ele><time>2026-05-02T15:17:00.041Z</time></trkpt><trkpt lat="45.1777954" lon="10.7833467"><ele>17.714285714285715</ele><time>2026-05-02T15:17:02.042Z</time></trkpt><trkpt lat="45.1777554" lon="10.7834237"><ele>18.142857142857146</ele><time>2026-05-02T15:17:04.04Z</time></trkpt><trkpt lat="45.1777158" lon="10.7834981"><ele>18.57142857142857</ele><time>2026-05-02T15:17:06.042Z</time></trkpt><trkpt lat="45.1776632" lon="10.7835705"><ele>19.0</ele><time>2026-05-02T15:17:08.042Z</time></trkpt><trkpt lat="45.1776057" lon="10.7836474"><ele>19.0</ele><time>2026-05-02T15:17:10.042Z</time></trkpt><trkpt lat="45.1775405" lon="10.7837208"><ele>19.0</ele><time>2026-05-02T15:17:12.041Z</time></trkpt><trkpt lat="45.1774787" lon="10.7837849"><ele>19.0</ele><time>2026-05-02T15:17:14.042Z</time></trkpt><trkpt lat="45.1774167" lon="10.7838394"><ele>19.0</ele><time>2026-05-02T15:17:16.042Z</time></trkpt><trkpt lat="45.1773636" lon="10.7839037"><ele>19.0</ele><time>2026-05-02T15:17:18.042Z</time></trkpt><trkpt lat="45.1773083" lon="10.7840186"><ele>19.0</ele><time>2026-05-02T15:17:21.041Z</time></trkpt><trkpt lat="45.1772652" lon="10.7840975"><ele>19.0</ele><time>2026-05-02T15:17:23.041Z</time></trkpt><trkpt lat="45.177207" lon="10.7841492"><ele>19.0</ele><time>2026-05-02T15:17:25.041Z</time></trkpt><trkpt lat="45.1771411" lon="10.7841709"><ele>19.0</ele><time>2026-05-02T15:17:27.042Z</time></trkpt><trkpt lat="45.1770697" lon="10.7842007"><ele>19.0</ele><time>2026-05-02T15:17:29.042Z</time></trkpt><trkpt lat="45.1770022" lon="10.7842402"><ele>19.0</ele><time>2026-05-02T15:17:31.041Z</time></trkpt><trkpt lat="45.1769314" lon="10.7842814"><ele>19.0</ele><time>2026-05-02T15:17:33.041Z</time></trkpt><trkpt lat="45.1768677" lon="10.7843278"><ele>19.0</ele><time>2026-05-02T15:17:35.041Z</time></trkpt><trkpt lat="45.1768028" lon="10.7843632"><ele>19.0</ele><time>2026-05-02T15:17:37.042Z</time></trkpt><trkpt lat="45.1767286" lon="10.7844102"><ele>19.0</ele><time>2026-05-02T15:17:39.041Z</time></trkpt><trkpt lat="45.1766652" lon="10.7844594"><ele>19.0</ele><time>2026-05-02T15:17:41.041Z</time></trkpt><trkpt lat="45.1766" lon="10.784515"><ele>19.0</ele><time>2026-05-02T15:17:43.042Z</time></trkpt><trkpt lat="45.1765488" lon="10.7845945"><ele>19.0</ele><time>2026-05-02T15:17:45.041Z</time></trkpt><trkpt lat="45.176499" lon="10.7846584"><ele>19.0</ele><time>2026-05-02T15:17:47.042Z</time></trkpt><trkpt lat="45.1764383" lon="10.7847002"><ele>19.0</ele><time>2026-05-02T15:17:49.041Z</time></trkpt><trkpt lat="45.1763813" lon="10.7847392"><ele>18.8</ele><time>2026-05-02T15:17:51.042Z</time></trkpt><trkpt lat="45.1762943" lon="10.7848026"><ele>18.599999999999998</ele><time>2026-05-02T15:17:54.042Z</time></trkpt><trkpt lat="45.1761937" lon="10.7848548"><ele>18.4</ele><time>2026-05-02T15:17:56.039Z</time></trkpt><trkpt lat="45.1761314" lon="10.7848777"><ele>18.2</ele><time>2026-05-02T15:17:57.041Z</time></trkpt><trkpt lat="45.1760701" lon="10.7849036"><ele>18.0</ele><time>2026-05-02T15:17:58.041Z</time></trkpt><trkpt lat="45.175949" lon="10.7849558"><ele>18.0</ele><time>2026-05-02T15:18:00.042Z</time></trkpt><trkpt lat="45.1758465" lon="10.7849874"><ele>18.0</ele><time>2026-05-02T15:18:02.041Z</time></trkpt><trkpt lat="45.1757392" lon="10.7850248"><ele>18.0</ele><time>2026-05-02T15:18:04.04Z</time></trkpt><trkpt lat="45.175633" lon="10.7850611"><ele>18.0</ele><time>2026-05-02T15:18:06.042Z</time></trkpt><trkpt lat="45.1755311" lon="10.7850928"><ele>18.0</ele><time>2026-05-02T15:18:08.042Z</time></trkpt><trkpt lat="45.1754324" lon="10.7851065"><ele>18.0</ele><time>2026-05-02T15:18:10.041Z</time></trkpt><trkpt lat="45.1753322" lon="10.7851244"><ele>18.0</ele><time>2026-05-02T15:18:12.041Z</time></trkpt><trkpt lat="45.1752391" lon="10.7851395"><ele>18.0</ele><time>2026-05-02T15:18:14.04Z</time></trkpt><trkpt lat="45.175165" lon="10.7851828"><ele>18.0</ele><time>2026-05-02T15:18:16.042Z</time></trkpt><trkpt lat="45.1751044" lon="10.78523"><ele>18.0</ele><time>2026-05-02T15:18:18.04Z</time></trkpt><trkpt lat="45.1750264" lon="10.7852802"><ele>18.0</ele><time>2026-05-02T15:18:20.041Z</time></trkpt><trkpt lat="45.1749454" lon="10.7852983"><ele>18.0</ele><time>2026-05-02T15:18:22.041Z</time></trkpt><trkpt lat="45.1748568" lon="10.7852898"><ele>18.0</ele><time>2026-05-02T15:18:24.041Z</time></trkpt><trkpt lat="45.174766" lon="10.7852571"><ele>18.0</ele><time>2026-05-02T15:18:26.04Z</time></trkpt><trkpt lat="45.1746797" lon="10.7851845"><ele>18.0</ele><time>2026-05-02T15:18:28.04Z</time></trkpt><trkpt lat="45.1746118" lon="10.7851065"><ele>18.0</ele><time>2026-05-02T15:18:30.041Z</time></trkpt><trkpt lat="45.1745503" lon="10.7850266"><ele>18.166666666666668</ele><time>2026-05-02T15:18:32.041Z</time></trkpt><trkpt lat="45.1744959" lon="10.7849435"><ele>18.333333333333332</ele><time>2026-05-02T15:18:34.041Z</time></trkpt><trkpt lat="45.1744386" lon="10.784865"><ele>18.5</ele><time>2026-05-02T15:18:36.042Z</time></trkpt><trkpt lat="45.1743894" lon="10.7847929"><ele>18.666666666666664</ele><time>2026-05-02T15:18:38.041Z</time></trkpt><trkpt lat="45.1743389" lon="10.7847142"><ele>18.833333333333332</ele><time>2026-05-02T15:18:40.041Z</time></trkpt><trkpt lat="45.1742928" lon="10.7846325"><ele>19.0</ele><time>2026-05-02T15:18:42.041Z</time></trkpt><trkpt lat="45.1742474" lon="10.7845401"><ele>19.0</ele><time>2026-05-02T15:18:44.042Z</time></trkpt><trkpt lat="45.1742181" lon="10.7844302"><ele>19.0</ele><time>2026-05-02T15:18:46.04Z</time></trkpt><trkpt lat="45.1741904" lon="10.7843239"><ele>19.0</ele><time>2026-05-02T15:18:48.042Z</time></trkpt><trkpt lat="45.1741696" lon="10.7842176"><ele>19.0</ele><time>2026-05-02T15:18:50.04Z</time></trkpt><trkpt lat="45.1741467" lon="10.7841118"><ele>19.0</ele><time>2026-05-02T15:18:52.041Z</time></trkpt><trkpt lat="45.1741228" lon="10.7840115"><ele>19.0</ele><time>2026-05-02T15:18:54.042Z</time></trkpt><trkpt lat="45.1740993" lon="10.7839123"><ele>19.142857142857142</ele><time>2026-05-02T15:18:56.041Z</time></trkpt><trkpt lat="45.1740791" lon="10.7838118"><ele>19.28571428571429</ele><time>2026-05-02T15:18:58.041Z</time></trkpt><trkpt lat="45.1740551" lon="10.7837244"><ele>19.42857142857143</ele><time>2026-05-02T15:19:00.04Z</time></trkpt><trkpt lat="45.1739842" lon="10.7836387"><ele>19.57142857142857</ele><time>2026-05-02T15:19:03.042Z</time></trkpt><trkpt lat="45.1739367" lon="10.7835684"><ele>19.714285714285715</ele><time>2026-05-02T15:19:05.042Z</time></trkpt><trkpt lat="45.1739021" lon="10.7834868"><ele>19.857142857142858</ele><time>2026-05-02T15:19:07.041Z</time></trkpt><trkpt lat="45.1738723" lon="10.7833952"><ele>20.0</ele><time>2026-05-02T15:19:09.042Z</time></trkpt><trkpt lat="45.1738494" lon="10.7832981"><ele>20.0</ele><time>2026-05-02T15:19:11.041Z</time></trkpt><trkpt lat="45.1738207" lon="10.7832091"><ele>20.0</ele><time>2026-05-02T15:19:13.041Z</time></trkpt><trkpt lat="45.1737993" lon="10.7831127"><ele>20.0</ele><time>2026-05-02T15:19:15.04Z</time></trkpt><trkpt lat="45.1737808" lon="10.7830199"><ele>20.0</ele><time>2026-05-02T15:19:17.041Z</time></trkpt><trkpt lat="45.1737659" lon="10.7829231"><ele>20.0</ele><time>2026-05-02T15:19:19.041Z</time></trkpt><trkpt lat="45.173752" lon="10.7828193"><ele>20.0</ele><time>2026-05-02T15:19:21.041Z</time></trkpt><trkpt lat="45.1737273" lon="10.78272"><ele>20.0</ele><time>2026-05-02T15:19:23.041Z</time></trkpt><trkpt lat="45.1736818" lon="10.7826395"><ele>19.714285714285715</ele><time>2026-05-02T15:19:25.041Z</time></trkpt><trkpt lat="45.1736251" lon="10.7825739"><ele>19.42857142857143</ele><time>2026-05-02T15:19:27.042Z</time></trkpt><trkpt lat="45.1735645" lon="10.7825461"><ele>19.142857142857146</ele><time>2026-05-02T15:19:29.041Z</time></trkpt><trkpt lat="45.1735007" lon="10.782537"><ele>18.857142857142858</ele><time>2026-05-02T15:19:31.04Z</time></trkpt><trkpt lat="45.1734306" lon="10.782551"><ele>18.571428571428573</ele><time>2026-05-02T15:19:33.041Z</time></trkpt><trkpt lat="45.1733601" lon="10.7825832"><ele>18.28571428571429</ele><time>2026-05-02T15:19:35.04Z</time></trkpt><trkpt lat="45.1732901" lon="10.7826183"><ele>18.0</ele><time>2026-05-02T15:19:37.04Z</time></trkpt><trkpt lat="45.1732172" lon="10.7826495"><ele>18.166666666666668</ele><time>2026-05-02T15:19:39.042Z</time></trkpt><trkpt lat="45.1731418" lon="10.7826851"><ele>18.333333333333332</ele><time>2026-05-02T15:19:41.042Z</time></trkpt><trkpt lat="45.1730747" lon="10.7827157"><ele>18.5</ele><time>2026-05-02T15:19:43.041Z</time></trkpt><trkpt lat="45.1729851" lon="10.7827581"><ele>18.666666666666664</ele><time>2026-05-02T15:19:46.041Z</time></trkpt><trkpt lat="45.1729168" lon="10.7827905"><ele>18.833333333333332</ele><time>2026-05-02T15:19:48.041Z</time></trkpt><trkpt lat="45.1728482" lon="10.782811"><ele>19.0</ele><time>2026-05-02T15:19:50.042Z</time></trkpt><trkpt lat="45.1727714" lon="10.7828288"><ele>19.0</ele><time>2026-05-02T15:19:52.04Z</time></trkpt><trkpt lat="45.1726967" lon="10.7828578"><ele>19.0</ele><time>2026-05-02T15:19:54.04Z</time></trkpt><trkpt lat="45.1726381" lon="10.7829276"><ele>19.0</ele><time>2026-05-02T15:19:57.041Z</time></trkpt><trkpt lat="45.1726673" lon="10.7830225"><ele>19.0</ele><time>2026-05-02T15:20:00.041Z</time></trkpt><trkpt lat="45.1726908" lon="10.7831127"><ele>19.0</ele><time>2026-05-02T15:20:03.041Z</time></trkpt><trkpt lat="45.1727193" lon="10.7832146"><ele>19.0</ele><time>2026-05-02T15:20:06.04Z</time></trkpt><trkpt lat="45.1727606" lon="10.7833136"><ele>19.0</ele><time>2026-05-02T15:20:09.04Z</time></trkpt><trkpt lat="45.1728062" lon="10.7834186"><ele>19.0</ele><time>2026-05-02T15:20:12.041Z</time></trkpt><trkpt lat="45.172835" lon="10.7835415"><ele>19.0</ele><time>2026-05-02T15:20:15.039Z</time></trkpt><trkpt lat="45.1728563" lon="10.7836276"><ele>19.0</ele><time>2026-05-02T15:20:17.039Z</time></trkpt><trkpt lat="45.1728851" lon="10.7837119"><ele>19.0</ele><time>2026-05-02T15:20:19.04Z</time></trkpt><trkpt lat="45.1729328" lon="10.7838219"><ele>19.0</ele><time>2026-05-02T15:20:22.041Z</time></trkpt><trkpt lat="45.1729568" lon="10.7839061"><ele>19.142857142857142</ele><time>2026-05-02T15:20:24.041Z</time></trkpt><trkpt lat="45.1729751" lon="10.783995"><ele>19.28571428571429</ele><time>2026-05-02T15:20:26.04Z</time></trkpt><trkpt lat="45.1729955" lon="10.7840809"><ele>19.42857142857143</ele><time>2026-05-02T15:20:28.04Z</time></trkpt><trkpt lat="45.1730209" lon="10.7841641"><ele>19.57142857142857</ele><time>2026-05-02T15:20:30.04Z</time></trkpt><trkpt lat="45.1730493" lon="10.7842531"><ele>19.714285714285715</ele><time>2026-05-02T15:20:32.042Z</time></trkpt><trkpt lat="45.17308" lon="10.7843408"><ele>19.857142857142858</ele><time>2026-05-02T15:20:34.04Z</time></trkpt><trkpt lat="45.1731133" lon="10.7844316"><ele>20.0</ele><time>2026-05-02T15:20:36.042Z</time></trkpt><trkpt lat="45.1731425" lon="10.7845161"><ele>20.166666666666668</ele><time>2026-05-02T15:20:38.04Z</time></trkpt><trkpt lat="45.1731676" lon="10.7846104"><ele>20.333333333333336</ele><time>2026-05-02T15:20:40.039Z</time></trkpt><trkpt lat="45.17317" lon="10.7847081"><ele>20.5</ele><time>2026-05-02T15:20:42.041Z</time></trkpt><trkpt lat="45.1731022" lon="10.7847778"><ele>20.666666666666668</ele><time>2026-05-02T15:20:44.041Z</time></trkpt><trkpt lat="45.1730201" lon="10.7848162"><ele>20.833333333333332</ele><time>2026-05-02T15:20:46.04Z</time></trkpt><trkpt lat="45.172943" lon="10.7848457"><ele>21.0</ele><time>2026-05-02T15:20:48.04Z</time></trkpt><trkpt lat="45.1728595" lon="10.7848529"><ele>21.0</ele><time>2026-05-02T15:20:50.042Z</time></trkpt><trkpt lat="45.1727849" lon="10.7848618"><ele>21.0</ele><time>2026-05-02T15:20:52.04Z</time></trkpt><trkpt lat="45.1727126" lon="10.7848708"><ele>21.0</ele><time>2026-05-02T15:20:54.041Z</time></trkpt><trkpt lat="45.1726435" lon="10.7848771"><ele>21.0</ele><time>2026-05-02T15:20:56.041Z</time></trkpt><trkpt lat="45.1725739" lon="10.7848842"><ele>21.0</ele><time>2026-05-02T15:20:58.04Z</time></trkpt><trkpt lat="45.1725112" lon="10.7848971"><ele>21.0</ele><time>2026-05-02T15:21:00.04Z</time></trkpt><trkpt lat="45.1724461" lon="10.7848962"><ele>21.0</ele><time>2026-05-02T15:21:02.041Z</time></trkpt><trkpt lat="45.1723777" lon="10.7849024"><ele>20.857142857142858</ele><time>2026-05-02T15:21:04.041Z</time></trkpt><trkpt lat="45.1723095" lon="10.7849123"><ele>20.714285714285715</ele><time>2026-05-02T15:21:06.041Z</time></trkpt><trkpt lat="45.172244" lon="10.7849095"><ele>20.57142857142857</ele><time>2026-05-02T15:21:08.041Z</time></trkpt><trkpt lat="45.1721802" lon="10.7849174"><ele>20.42857142857143</ele><time>2026-05-02T15:21:10.041Z</time></trkpt><trkpt lat="45.1721128" lon="10.7849257"><ele>20.285714285714285</ele><time>2026-05-02T15:21:12.041Z</time></trkpt><trkpt lat="45.1720444" lon="10.7849326"><ele>20.142857142857142</ele><time>2026-05-02T15:21:14.04Z</time></trkpt><trkpt lat="45.1719717" lon="10.7849427"><ele>20.0</ele><time>2026-05-02T15:21:16.04Z</time></trkpt><trkpt lat="45.1718986" lon="10.7849558"><ele>20.0</ele><time>2026-05-02T15:21:18.041Z</time></trkpt><trkpt lat="45.1718281" lon="10.7849666"><ele>20.0</ele><time>2026-05-02T15:21:20.041Z</time></trkpt><trkpt lat="45.1717605" lon="10.7849771"><ele>20.0</ele><time>2026-05-02T15:21:22.041Z</time></trkpt><trkpt lat="45.1716946" lon="10.7849935"><ele>20.0</ele><time>2026-05-02T15:21:24.04Z</time></trkpt><trkpt lat="45.1716342" lon="10.7850263"><ele>20.0</ele><time>2026-05-02T15:21:26.041Z</time></trkpt><trkpt lat="45.1715575" lon="10.7850774"><ele>20.0</ele><time>2026-05-02T15:21:29.041Z</time></trkpt><trkpt lat="45.1714778" lon="10.7850838"><ele>20.0</ele><time>2026-05-02T15:21:32.042Z</time></trkpt><trkpt lat="45.1713894" lon="10.7850886"><ele>19.857142857142858</ele><time>2026-05-02T15:21:35.041Z</time></trkpt><trkpt lat="45.1713214" lon="10.785097"><ele>19.714285714285715</ele><time>2026-05-02T15:21:37.041Z</time></trkpt><trkpt lat="45.1712535" lon="10.7851064"><ele>19.57142857142857</ele><time>2026-05-02T15:21:39.04Z</time></trkpt><trkpt lat="45.1711925" lon="10.7851934"><ele>19.42857142857143</ele><time>2026-05-02T15:21:42.042Z</time></trkpt><trkpt lat="45.171188" lon="10.7853192"><ele>19.28571428571429</ele><time>2026-05-02T15:21:45.041Z</time></trkpt><trkpt lat="45.1711933" lon="10.7854111"><ele>19.142857142857142</ele><time>2026-05-02T15:21:47.04Z</time></trkpt><trkpt lat="45.1711924" lon="10.7855026"><ele>19.0</ele><time>2026-05-02T15:21:49.042Z</time></trkpt><trkpt lat="45.1711936" lon="10.7856349"><ele>19.0</ele><time>2026-05-02T15:21:52.039Z</time></trkpt><trkpt lat="45.1711968" lon="10.7857645"><ele>19.0</ele><time>2026-05-02T15:21:55.04Z</time></trkpt><trkpt lat="45.1712057" lon="10.7859002"><ele>19.0</ele><time>2026-05-02T15:21:58.039Z</time></trkpt><trkpt lat="45.171211" lon="10.7860015"><ele>19.0</ele><time>2026-05-02T15:22:00.041Z</time></trkpt><trkpt lat="45.1712136" lon="10.786107"><ele>19.0</ele><time>2026-05-02T15:22:02.041Z</time></trkpt><trkpt lat="45.1712123" lon="10.7862084"><ele>19.0</ele><time>2026-05-02T15:22:04.041Z</time></trkpt><trkpt lat="45.1712086" lon="10.7863067"><ele>19.0</ele><time>2026-05-02T15:22:06.04Z</time></trkpt><trkpt lat="45.1712094" lon="10.7864061"><ele>19.0</ele><time>2026-05-02T15:22:08.041Z</time></trkpt><trkpt lat="45.1712004" lon="10.7865047"><ele>19.0</ele><time>2026-05-02T15:22:10.04Z</time></trkpt><trkpt lat="45.171162" lon="10.7865889"><ele>19.0</ele><time>2026-05-02T15:22:12.04Z</time></trkpt><trkpt lat="45.171107" lon="10.7866394"><ele>19.0</ele><time>2026-05-02T15:22:14.04Z</time></trkpt><trkpt lat="45.1710421" lon="10.7866517"><ele>19.0</ele><time>2026-05-02T15:22:16.042Z</time></trkpt><trkpt lat="45.1709691" lon="10.7866562"><ele>19.0</ele><time>2026-05-02T15:22:18.041Z</time></trkpt><trkpt lat="45.1708919" lon="10.7866686"><ele>19.0</ele><time>2026-05-02T15:22:20.04Z</time></trkpt><trkpt lat="45.1708016" lon="10.7866646"><ele>19.0</ele><time>2026-05-02T15:22:22.041Z</time></trkpt><trkpt lat="45.1707175" lon="10.7866481"><ele>19.0</ele><time>2026-05-02T15:22:24.039Z</time></trkpt><trkpt lat="45.1706425" lon="10.7866751"><ele>19.0</ele><time>2026-05-02T15:22:26.04Z</time></trkpt><trkpt lat="45.170577" lon="10.7867052"><ele>19.0</ele><time>2026-05-02T15:22:28.04Z</time></trkpt><trkpt lat="45.170487" lon="10.7867312"><ele>19.0</ele><time>2026-05-02T15:22:31.04Z</time></trkpt><trkpt lat="45.170407" lon="10.786759"><ele>18.4</ele><time>2026-05-02T15:22:34.04Z</time></trkpt><trkpt lat="45.1703137" lon="10.7868055"><ele>17.799999999999997</ele><time>2026-05-02T15:22:37.041Z</time></trkpt><trkpt lat="45.1702309" lon="10.7868393"><ele>17.200000000000003</ele><time>2026-05-02T15:22:39.041Z</time></trkpt><trkpt lat="45.1701334" lon="10.7868699"><ele>16.6</ele><time>2026-05-02T15:22:41.04Z</time></trkpt><trkpt lat="45.1700383" lon="10.786889"><ele>16.0</ele><time>2026-05-02T15:22:43.04Z</time></trkpt><trkpt lat="45.1699488" lon="10.7869088"><ele>15.999999999999998</ele><time>2026-05-02T15:22:45.04Z</time></trkpt><trkpt lat="45.1698727" lon="10.7869307"><ele>16.0</ele><time>2026-05-02T15:22:47.041Z</time></trkpt><trkpt lat="45.1697998" lon="10.7869505"><ele>16.0</ele><time>2026-05-02T15:22:49.04Z</time></trkpt><trkpt lat="45.169725" lon="10.7869801"><ele>16.0</ele><time>2026-05-02T15:22:51.04Z</time></trkpt><trkpt lat="45.1696493" lon="10.7870096"><ele>15.999999999999998</ele><time>2026-05-02T15:22:53.041Z</time></trkpt><trkpt lat="45.1695765" lon="10.7870346"><ele>16.0</ele><time>2026-05-02T15:22:55.04Z</time></trkpt><trkpt lat="45.1695027" lon="10.7870704"><ele>15.833333333333332</ele><time>2026-05-02T15:22:57.039Z</time></trkpt><trkpt lat="45.1694261" lon="10.7871114"><ele>15.666666666666666</ele><time>2026-05-02T15:22:59.04Z</time></trkpt><trkpt lat="45.1693453" lon="10.7871282"><ele>15.5</ele><time>2026-05-02T15:23:01.04Z</time></trkpt><trkpt lat="45.1692659" lon="10.7871458"><ele>15.333333333333332</ele><time>2026-05-02T15:23:03.041Z</time></trkpt><trkpt lat="45.1691894" lon="10.7871706"><ele>15.166666666666666</ele><time>2026-05-02T15:23:05.041Z</time></trkpt><trkpt lat="45.1691133" lon="10.7871971"><ele>15.0</ele><time>2026-05-02T15:23:07.04Z</time></trkpt><trkpt lat="45.1690331" lon="10.7872165"><ele>15.0</ele><time>2026-05-02T15:23:09.041Z</time></trkpt><trkpt lat="45.1689541" lon="10.787236"><ele>15.0</ele><time>2026-05-02T15:23:11.041Z</time></trkpt><trkpt lat="45.1688756" lon="10.7872534"><ele>15.0</ele><time>2026-05-02T15:23:13.04Z</time></trkpt><trkpt lat="45.1687938" lon="10.7872754"><ele>15.0</ele><time>2026-05-02T15:23:15.04Z</time></trkpt><trkpt lat="45.1687146" lon="10.787295"><ele>15.0</ele><time>2026-05-02T15:23:17.04Z</time></trkpt><trkpt lat="45.1686404" lon="10.7873062"><ele>15.0</ele><time>2026-05-02T15:23:19.04Z</time></trkpt><trkpt lat="45.1685456" lon="10.787321"><ele>15.0</ele><time>2026-05-02T15:23:22.041Z</time></trkpt><trkpt lat="45.1684778" lon="10.7873364"><ele>15.0</ele><time>2026-05-02T15:23:24.041Z</time></trkpt><trkpt lat="45.168407" lon="10.7873433"><ele>15.0</ele><time>2026-05-02T15:23:26.04Z</time></trkpt><trkpt lat="45.1683369" lon="10.7873544"><ele>15.0</ele><time>2026-05-02T15:23:28.04Z</time></trkpt><trkpt lat="45.1682657" lon="10.7873751"><ele>15.0</ele><time>2026-05-02T15:23:30.041Z</time></trkpt><trkpt lat="45.1681975" lon="10.7873937"><ele>15.0</ele><time>2026-05-02T15:23:32.04Z</time></trkpt><trkpt lat="45.1681234" lon="10.7873928"><ele>15.0</ele><time>2026-05-02T15:23:34.039Z</time></trkpt><trkpt lat="45.1680541" lon="10.7874006"><ele>15.0</ele><time>2026-05-02T15:23:36.04Z</time></trkpt><trkpt lat="45.1679742" lon="10.7874079"><ele>15.0</ele><time>2026-05-02T15:23:39.041Z</time></trkpt><trkpt lat="45.167908" lon="10.7873988"><ele>15.0</ele><time>2026-05-02T15:24:04.04Z</time></trkpt><trkpt lat="45.1678425" lon="10.7874422"><ele>15.0</ele><time>2026-05-02T15:26:16.039Z</time></trkpt><trkpt lat="45.1677639" lon="10.7874273"><ele>15.0</ele><time>2026-05-02T15:26:20.041Z</time></trkpt><trkpt lat="45.1676795" lon="10.7874311"><ele>15.0</ele><time>2026-05-02T15:26:23.04Z</time></trkpt><trkpt lat="45.1676122" lon="10.7874462"><ele>15.0</ele><time>2026-05-02T15:26:25.04Z</time></trkpt><trkpt lat="45.1675417" lon="10.7874617"><ele>15.0</ele><time>2026-05-02T15:26:27.041Z</time></trkpt><trkpt lat="45.167471" lon="10.787481"><ele>15.0</ele><time>2026-05-02T15:26:29.04Z</time></trkpt><trkpt lat="45.1673953" lon="10.7874947"><ele>15.0</ele><time>2026-05-02T15:26:31.04Z</time></trkpt><trkpt lat="45.1673231" lon="10.7875092"><ele>15.0</ele><time>2026-05-02T15:26:33.04Z</time></trkpt><trkpt lat="45.1672514" lon="10.7875229"><ele>15.0</ele><time>2026-05-02T15:26:35.039Z</time></trkpt><trkpt lat="45.1671786" lon="10.7875468"><ele>15.0</ele><time>2026-05-02T15:26:37.04Z</time></trkpt><trkpt lat="45.1671024" lon="10.7875655"><ele>15.0</ele><time>2026-05-02T15:26:39.04Z</time></trkpt><trkpt lat="45.1670296" lon="10.7875894"><ele>15.0</ele><time>2026-05-02T15:26:41.041Z</time></trkpt><trkpt lat="45.1669585" lon="10.7875977"><ele>15.0</ele><time>2026-05-02T15:26:43.04Z</time></trkpt><trkpt lat="45.1668907" lon="10.787611"><ele>15.0</ele><time>2026-05-02T15:26:45.04Z</time></trkpt><trkpt lat="45.1668231" lon="10.7876272"><ele>15.0</ele><time>2026-05-02T15:26:47.04Z</time></trkpt><trkpt lat="45.1667538" lon="10.7876397"><ele>15.0</ele><time>2026-05-02T15:26:49.039Z</time></trkpt><trkpt lat="45.1666886" lon="10.7876561"><ele>15.0</ele><time>2026-05-02T15:26:51.04Z</time></trkpt><trkpt lat="45.1666255" lon="10.7876775"><ele>15.0</ele><time>2026-05-02T15:26:53.039Z</time></trkpt><trkpt lat="45.1665607" lon="10.787696"><ele>15.0</ele><time>2026-05-02T15:26:55.039Z</time></trkpt><trkpt lat="45.1664964" lon="10.7877136"><ele>15.0</ele><time>2026-05-02T15:26:57.04Z</time></trkpt><trkpt lat="45.1664288" lon="10.7877264"><ele>15.0</ele><time>2026-05-02T15:26:59.04Z</time></trkpt><trkpt lat="45.1663611" lon="10.7877444"><ele>15.0</ele><time>2026-05-02T15:27:01.038Z</time></trkpt><trkpt lat="45.1662899" lon="10.7877647"><ele>15.0</ele><time>2026-05-02T15:27:03.04Z</time></trkpt><trkpt lat="45.1662216" lon="10.7877859"><ele>15.0</ele><time>2026-05-02T15:27:05.039Z</time></trkpt><trkpt lat="45.1661584" lon="10.7878089"><ele>15.0</ele><time>2026-05-02T15:27:07.04Z</time></trkpt><trkpt lat="45.1660739" lon="10.7878603"><ele>15.0</ele><time>2026-05-02T15:27:10.04Z</time></trkpt><trkpt lat="45.165993" lon="10.7879018"><ele>15.0</ele><time>2026-05-02T15:27:13.039Z</time></trkpt><trkpt lat="45.1659049" lon="10.787922"><ele>15.0</ele><time>2026-05-02T15:27:16.04Z</time></trkpt><trkpt lat="45.1658263" lon="10.7879376"><ele>15.0</ele><time>2026-05-02T15:27:19.04Z</time></trkpt><trkpt lat="45.1657327" lon="10.7879618"><ele>15.0</ele><time>2026-05-02T15:27:22.041Z</time></trkpt><trkpt lat="45.1656632" lon="10.7879683"><ele>15.0</ele><time>2026-05-02T15:27:24.039Z</time></trkpt><trkpt lat="45.1655858" lon="10.7879749"><ele>15.0</ele><time>2026-05-02T15:27:26.04Z</time></trkpt><trkpt lat="45.1655067" lon="10.7879858"><ele>15.0</ele><time>2026-05-02T15:27:28.039Z</time></trkpt><trkpt lat="45.165428" lon="10.7879972"><ele>15.0</ele><time>2026-05-02T15:27:30.04Z</time></trkpt><trkpt lat="45.1653494" lon="10.7880109"><ele>15.0</ele><time>2026-05-02T15:27:32.04Z</time></trkpt><trkpt lat="45.1652678" lon="10.788021"><ele>15.0</ele><time>2026-05-02T15:27:34.039Z</time></trkpt><trkpt lat="45.1651825" lon="10.7880325"><ele>15.0</ele><time>2026-05-02T15:27:36.041Z</time></trkpt><trkpt lat="45.1651052" lon="10.7880593"><ele>15.0</ele><time>2026-05-02T15:27:38.04Z</time></trkpt><trkpt lat="45.1650823" lon="10.7881465"><ele>15.0</ele><time>2026-05-02T15:27:40.04Z</time></trkpt><trkpt lat="45.1650674" lon="10.7882578"><ele>15.0</ele><time>2026-05-02T15:27:42.039Z</time></trkpt><trkpt lat="45.1650716" lon="10.7883679"><ele>15.0</ele><time>2026-05-02T15:27:44.04Z</time></trkpt><trkpt lat="45.1650811" lon="10.788475"><ele>15.0</ele><time>2026-05-02T15:27:46.04Z</time></trkpt><trkpt lat="45.1650997" lon="10.7885766"><ele>15.166666666666666</ele><time>2026-05-02T15:27:48.039Z</time></trkpt><trkpt lat="45.1651162" lon="10.7886871"><ele>15.333333333333332</ele><time>2026-05-02T15:27:50.039Z</time></trkpt><trkpt lat="45.1651372" lon="10.7887975"><ele>15.5</ele><time>2026-05-02T15:27:52.04Z</time></trkpt><trkpt lat="45.1651622" lon="10.7889027"><ele>15.666666666666666</ele><time>2026-05-02T15:27:54.039Z</time></trkpt><trkpt lat="45.1651657" lon="10.7890301"><ele>15.833333333333332</ele><time>2026-05-02T15:27:57.04Z</time></trkpt><trkpt lat="45.1651534" lon="10.7891439"><ele>16.0</ele><time>2026-05-02T15:28:00.04Z</time></trkpt><trkpt lat="45.1651144" lon="10.7892616"><ele>16.0</ele><time>2026-05-02T15:28:03.039Z</time></trkpt><trkpt lat="45.1650664" lon="10.7893328"><ele>15.999999999999998</ele><time>2026-05-02T15:28:05.039Z</time></trkpt><trkpt lat="45.1650061" lon="10.789386"><ele>16.0</ele><time>2026-05-02T15:28:07.04Z</time></trkpt><trkpt lat="45.16496" lon="10.7894533"><ele>16.0</ele><time>2026-05-02T15:28:09.04Z</time></trkpt><trkpt lat="45.1649232" lon="10.7895294"><ele>15.999999999999998</ele><time>2026-05-02T15:28:11.041Z</time></trkpt><trkpt lat="45.1648738" lon="10.7896449"><ele>16.0</ele><time>2026-05-02T15:28:14.039Z</time></trkpt><trkpt lat="45.1648421" lon="10.7897269"><ele>16.0</ele><time>2026-05-02T15:28:16.039Z</time></trkpt><trkpt lat="45.1648151" lon="10.789816"><ele>17.142857142857142</ele><time>2026-05-02T15:28:18.039Z</time></trkpt><trkpt lat="45.1647839" lon="10.7899102"><ele>18.285714285714285</ele><time>2026-05-02T15:28:20.039Z</time></trkpt><trkpt lat="45.1647597" lon="10.7900092"><ele>19.428571428571427</ele><time>2026-05-02T15:28:22.038Z</time></trkpt><trkpt lat="45.1647398" lon="10.7901109"><ele>20.57142857142857</ele><time>2026-05-02T15:28:24.039Z</time></trkpt><trkpt lat="45.1647165" lon="10.7902113"><ele>21.714285714285715</ele><time>2026-05-02T15:28:26.039Z</time></trkpt><trkpt lat="45.1647029" lon="10.7903095"><ele>22.857142857142854</ele><time>2026-05-02T15:28:28.04Z</time></trkpt><trkpt lat="45.1646959" lon="10.7904059"><ele>24.0</ele><time>2026-05-02T15:28:30.039Z</time></trkpt><trkpt lat="45.164686" lon="10.7905339"><ele>24.166666666666668</ele><time>2026-05-02T15:28:33.04Z</time></trkpt><trkpt lat="45.164687" lon="10.7906483"><ele>24.333333333333336</ele><time>2026-05-02T15:28:36.04Z</time></trkpt><trkpt lat="45.1647199" lon="10.7907588"><ele>24.5</ele><time>2026-05-02T15:28:39.039Z</time></trkpt><trkpt lat="45.1647602" lon="10.790871"><ele>24.666666666666668</ele><time>2026-05-02T15:28:42.04Z</time></trkpt><trkpt lat="45.1647963" lon="10.7909535"><ele>24.833333333333336</ele><time>2026-05-02T15:28:44.04Z</time></trkpt><trkpt lat="45.1648328" lon="10.7910308"><ele>25.0</ele><time>2026-05-02T15:28:46.04Z</time></trkpt><trkpt lat="45.1648789" lon="10.7911026"><ele>25.142857142857146</ele><time>2026-05-02T15:28:48.038Z</time></trkpt><trkpt lat="45.1649261" lon="10.7911641"><ele>25.285714285714285</ele><time>2026-05-02T15:28:50.04Z</time></trkpt><trkpt lat="45.1649773" lon="10.7912229"><ele>25.42857142857143</ele><time>2026-05-02T15:28:52.039Z</time></trkpt><trkpt lat="45.1650329" lon="10.791282"><ele>25.571428571428573</ele><time>2026-05-02T15:28:54.04Z</time></trkpt><trkpt lat="45.1651046" lon="10.7913594"><ele>25.714285714285715</ele><time>2026-05-02T15:28:57.039Z</time></trkpt><trkpt lat="45.1651618" lon="10.7914244"><ele>25.857142857142858</ele><time>2026-05-02T15:28:59.949Z</time></trkpt><trkpt lat="45.1652162" lon="10.791506"><ele>26.0</ele><time>2026-05-02T15:29:02.039Z</time></trkpt><trkpt lat="45.1652597" lon="10.7915793"><ele>26.0</ele><time>2026-05-02T15:29:04.04Z</time></trkpt><trkpt lat="45.1652977" lon="10.7916523"><ele>26.0</ele><time>2026-05-02T15:29:06.04Z</time></trkpt><trkpt lat="45.1653332" lon="10.791728"><ele>26.0</ele><time>2026-05-02T15:29:08.039Z</time></trkpt><trkpt lat="45.165366" lon="10.791809"><ele>26.0</ele><time>2026-05-02T15:29:10.039Z</time></trkpt><trkpt lat="45.1653985" lon="10.7918917"><ele>26.0</ele><time>2026-05-02T15:29:12.04Z</time></trkpt><trkpt lat="45.1654269" lon="10.7919777"><ele>26.0</ele><time>2026-05-02T15:29:14.039Z</time></trkpt><trkpt lat="45.1654568" lon="10.7920916"><ele>26.0</ele><time>2026-05-02T15:29:17.038Z</time></trkpt><trkpt lat="45.1654629" lon="10.7922227"><ele>26.0</ele><time>2026-05-02T15:29:20.039Z</time></trkpt><trkpt lat="45.1654626" lon="10.7923205"><ele>26.0</ele><time>2026-05-02T15:29:22.038Z</time></trkpt><trkpt lat="45.1654592" lon="10.7924244"><ele>26.0</ele><time>2026-05-02T15:29:24.04Z</time></trkpt><trkpt lat="45.1654478" lon="10.7925251"><ele>26.0</ele><time>2026-05-02T15:29:26.037Z</time></trkpt><trkpt lat="45.1654364" lon="10.7926229"><ele>26.0</ele><time>2026-05-02T15:29:28.04Z</time></trkpt><trkpt lat="45.1654282" lon="10.7927156"><ele>26.0</ele><time>2026-05-02T15:29:30.039Z</time></trkpt><trkpt lat="45.1654174" lon="10.7928118"><ele>26.0</ele><time>2026-05-02T15:29:32.039Z</time></trkpt><trkpt lat="45.165404" lon="10.7929102"><ele>25.71428571428571</ele><time>2026-05-02T15:29:34.039Z</time></trkpt><trkpt lat="45.1653913" lon="10.7930045"><ele>25.42857142857143</ele><time>2026-05-02T15:29:36.04Z</time></trkpt><trkpt lat="45.1653816" lon="10.7930992"><ele>25.142857142857142</ele><time>2026-05-02T15:29:38.038Z</time></trkpt><trkpt lat="45.1653768" lon="10.7931984"><ele>24.857142857142854</ele><time>2026-05-02T15:29:40.039Z</time></trkpt><trkpt lat="45.1653718" lon="10.7932941"><ele>24.57142857142857</ele><time>2026-05-02T15:29:42.039Z</time></trkpt><trkpt lat="45.1653606" lon="10.7933927"><ele>24.285714285714285</ele><time>2026-05-02T15:29:44.039Z</time></trkpt><trkpt lat="45.1653484" lon="10.7934867"><ele>24.0</ele><time>2026-05-02T15:29:46.04Z</time></trkpt><trkpt lat="45.1653259" lon="10.7935794"><ele>23.57142857142857</ele><time>2026-05-02T15:29:48.039Z</time></trkpt><trkpt lat="45.1653002" lon="10.7936734"><ele>23.142857142857142</ele><time>2026-05-02T15:29:50.04Z</time></trkpt><trkpt lat="45.165271" lon="10.7937681"><ele>22.714285714285715</ele><time>2026-05-02T15:29:52.039Z</time></trkpt><trkpt lat="45.1652428" lon="10.7938573"><ele>22.285714285714285</ele><time>2026-05-02T15:29:54.039Z</time></trkpt><trkpt lat="45.1652184" lon="10.7939485"><ele>21.857142857142858</ele><time>2026-05-02T15:29:56.039Z</time></trkpt><trkpt lat="45.1651922" lon="10.7940414"><ele>21.428571428571427</ele><time>2026-05-02T15:29:58.039Z</time></trkpt><trkpt lat="45.1651678" lon="10.7941298"><ele>21.0</ele><time>2026-05-02T15:30:00.039Z</time></trkpt><trkpt lat="45.165143" lon="10.7942219"><ele>21.0</ele><time>2026-05-02T15:30:02.04Z</time></trkpt><trkpt lat="45.1651153" lon="10.7943141"><ele>21.0</ele><time>2026-05-02T15:30:04.04Z</time></trkpt><trkpt lat="45.1650861" lon="10.7944009"><ele>21.0</ele><time>2026-05-02T15:30:06.039Z</time></trkpt><trkpt lat="45.1650561" lon="10.7944906"><ele>21.0</ele><time>2026-05-02T15:30:08.04Z</time></trkpt><trkpt lat="45.1650241" lon="10.7945682"><ele>21.0</ele><time>2026-05-02T15:30:10.04Z</time></trkpt><trkpt lat="45.1649772" lon="10.7946625"><ele>21.0</ele><time>2026-05-02T15:30:13.038Z</time></trkpt><trkpt lat="45.1649168" lon="10.7947543"><ele>21.0</ele><time>2026-05-02T15:30:16.038Z</time></trkpt><trkpt lat="45.1648436" lon="10.794835"><ele>21.166666666666668</ele><time>2026-05-02T15:30:19.039Z</time></trkpt><trkpt lat="45.1647831" lon="10.7948844"><ele>21.333333333333332</ele><time>2026-05-02T15:30:21.04Z</time></trkpt><trkpt lat="45.1647176" lon="10.7949288"><ele>21.5</ele><time>2026-05-02T15:30:23.04Z</time></trkpt><trkpt lat="45.1646448" lon="10.7949651"><ele>21.666666666666664</ele><time>2026-05-02T15:30:25.039Z</time></trkpt><trkpt lat="45.164572" lon="10.7950049"><ele>21.833333333333332</ele><time>2026-05-02T15:30:27.038Z</time></trkpt><trkpt lat="45.1644984" lon="10.7950475"><ele>22.0</ele><time>2026-05-02T15:30:29.039Z</time></trkpt><trkpt lat="45.1644276" lon="10.7950883"><ele>22.0</ele><time>2026-05-02T15:30:31.038Z</time></trkpt><trkpt lat="45.1643623" lon="10.795141"><ele>22.0</ele><time>2026-05-02T15:30:33.039Z</time></trkpt><trkpt lat="45.1642988" lon="10.795206"><ele>22.0</ele><time>2026-05-02T15:30:35.039Z</time></trkpt><trkpt lat="45.1642342" lon="10.7952801"><ele>22.0</ele><time>2026-05-02T15:30:37.038Z</time></trkpt><trkpt lat="45.1641786" lon="10.7953619"><ele>22.0</ele><time>2026-05-02T15:30:39.04Z</time></trkpt><trkpt lat="45.1641219" lon="10.7954458"><ele>22.0</ele><time>2026-05-02T15:30:41.039Z</time></trkpt><trkpt lat="45.1640716" lon="10.7955407"><ele>21.833333333333332</ele><time>2026-05-02T15:30:43.039Z</time></trkpt><trkpt lat="45.1640238" lon="10.7956346"><ele>21.666666666666664</ele><time>2026-05-02T15:30:45.04Z</time></trkpt><trkpt lat="45.1639786" lon="10.7957271"><ele>21.5</ele><time>2026-05-02T15:30:47.038Z</time></trkpt><trkpt lat="45.163937" lon="10.7958182"><ele>21.333333333333332</ele><time>2026-05-02T15:30:49.039Z</time></trkpt><trkpt lat="45.1638901" lon="10.7959072"><ele>21.166666666666668</ele><time>2026-05-02T15:30:51.038Z</time></trkpt><trkpt lat="45.1638455" lon="10.7959984"><ele>21.0</ele><time>2026-05-02T15:30:53.039Z</time></trkpt><trkpt lat="45.1638032" lon="10.7960946"><ele>20.857142857142858</ele><time>2026-05-02T15:30:55.04Z</time></trkpt><trkpt lat="45.1637619" lon="10.7961791"><ele>20.714285714285715</ele><time>2026-05-02T15:30:57.04Z</time></trkpt><trkpt lat="45.1637221" lon="10.7962641"><ele>20.57142857142857</ele><time>2026-05-02T15:30:59.04Z</time></trkpt><trkpt lat="45.1636845" lon="10.7963443"><ele>20.42857142857143</ele><time>2026-05-02T15:31:01.04Z</time></trkpt><trkpt lat="45.1636454" lon="10.7964194"><ele>20.285714285714285</ele><time>2026-05-02T15:31:03.04Z</time></trkpt><trkpt lat="45.1636097" lon="10.7964943"><ele>20.142857142857142</ele><time>2026-05-02T15:31:05.039Z</time></trkpt><trkpt lat="45.1635737" lon="10.7965702"><ele>20.0</ele><time>2026-05-02T15:31:07.04Z</time></trkpt><trkpt lat="45.1635323" lon="10.7966457"><ele>20.0</ele><time>2026-05-02T15:31:09.04Z</time></trkpt><trkpt lat="45.1634896" lon="10.7967254"><ele>20.0</ele><time>2026-05-02T15:31:11.038Z</time></trkpt><trkpt lat="45.1634467" lon="10.7968083"><ele>20.0</ele><time>2026-05-02T15:31:13.039Z</time></trkpt><trkpt lat="45.1633975" lon="10.7968903"><ele>20.0</ele><time>2026-05-02T15:31:15.039Z</time></trkpt><trkpt lat="45.1633537" lon="10.7969736"><ele>20.0</ele><time>2026-05-02T15:31:17.038Z</time></trkpt><trkpt lat="45.1633118" lon="10.7970527"><ele>20.0</ele><time>2026-05-02T15:31:19.038Z</time></trkpt><trkpt lat="45.1632723" lon="10.7971257"><ele>20.0</ele><time>2026-05-02T15:31:21.039Z</time></trkpt><trkpt lat="45.163217" lon="10.7972237"><ele>19.5</ele><time>2026-05-02T15:31:24.039Z</time></trkpt><trkpt lat="45.1632877" lon="10.7971922"><ele>19.0</ele><time>2026-05-02T15:31:32.038Z</time></trkpt><trkpt lat="45.16335" lon="10.7971029"><ele>18.5</ele><time>2026-05-02T15:31:35.038Z</time></trkpt><trkpt lat="45.1634102" lon="10.797037"><ele>18.0</ele><time>2026-05-02T15:31:38.039Z</time></trkpt><trkpt lat="45.1634685" lon="10.7971128"><ele>17.5</ele><time>2026-05-02T15:31:41.04Z</time></trkpt><trkpt lat="45.1634579" lon="10.7972325"><ele>17.0</ele><time>2026-05-02T15:31:44.039Z</time></trkpt><trkpt lat="45.1634089" lon="10.7973309"><ele>17.0</ele><time>2026-05-02T15:31:47.038Z</time></trkpt><trkpt lat="45.1633434" lon="10.7974094"><ele>17.0</ele><time>2026-05-02T15:31:50.038Z</time></trkpt><trkpt lat="45.1633106" lon="10.79753"><ele>17.0</ele><time>2026-05-02T15:31:53.039Z</time></trkpt><trkpt lat="45.1632727" lon="10.7976026"><ele>17.0</ele><time>2026-05-02T15:31:55.039Z</time></trkpt><trkpt lat="45.1632236" lon="10.7977114"><ele>17.0</ele><time>2026-05-02T15:31:58.038Z</time></trkpt><trkpt lat="45.1631697" lon="10.7978186"><ele>17.0</ele><time>2026-05-02T15:32:01.039Z</time></trkpt><trkpt lat="45.1631174" lon="10.7979263"><ele>18.0</ele><time>2026-05-02T15:32:04.037Z</time></trkpt><trkpt lat="45.1630803" lon="10.798005"><ele>19.0</ele><time>2026-05-02T15:32:06.039Z</time></trkpt><trkpt lat="45.1630257" lon="10.7981156"><ele>20.0</ele><time>2026-05-02T15:32:09.038Z</time></trkpt><trkpt lat="45.1629907" lon="10.7981963"><ele>21.0</ele><time>2026-05-02T15:32:11.038Z</time></trkpt><trkpt lat="45.1629466" lon="10.7983089"><ele>22.0</ele><time>2026-05-02T15:32:14.039Z</time></trkpt><trkpt lat="45.1629043" lon="10.7984186"><ele>23.0</ele><time>2026-05-02T15:32:17.038Z</time></trkpt><trkpt lat="45.162871" lon="10.7984998"><ele>22.333333333333336</ele><time>2026-05-02T15:32:19.038Z</time></trkpt><trkpt lat="45.1627981" lon="10.7985728"><ele>21.666666666666668</ele><time>2026-05-02T15:32:22.04Z</time></trkpt><trkpt lat="45.1627507" lon="10.7986737"><ele>21.0</ele><time>2026-05-02T15:32:25.039Z</time></trkpt><trkpt lat="45.1627153" lon="10.7987926"><ele>20.333333333333332</ele><time>2026-05-02T15:32:28.038Z</time></trkpt><trkpt lat="45.1626704" lon="10.7989006"><ele>19.666666666666664</ele><time>2026-05-02T15:32:31.039Z</time></trkpt><trkpt lat="45.1626162" lon="10.799006"><ele>19.0</ele><time>2026-05-02T15:32:34.038Z</time></trkpt><trkpt lat="45.1625721" lon="10.7991107"><ele>19.0</ele><time>2026-05-02T15:32:37.039Z</time></trkpt><trkpt lat="45.1625207" lon="10.799215"><ele>19.0</ele><time>2026-05-02T15:32:40.037Z</time></trkpt><trkpt lat="45.162468" lon="10.7993205"><ele>19.0</ele><time>2026-05-02T15:32:43.039Z</time></trkpt><trkpt lat="45.1624341" lon="10.7994023"><ele>19.0</ele><time>2026-05-02T15:32:45.039Z</time></trkpt><trkpt lat="45.1623996" lon="10.7994857"><ele>19.0</ele><time>2026-05-02T15:32:47.04Z</time></trkpt><trkpt lat="45.1623599" lon="10.7995633"><ele>19.0</ele><time>2026-05-02T15:32:49.038Z</time></trkpt><trkpt lat="45.1623261" lon="10.7996396"><ele>19.0</ele><time>2026-05-02T15:32:51.04Z</time></trkpt><trkpt lat="45.1622819" lon="10.7997422"><ele>19.285714285714285</ele><time>2026-05-02T15:32:54.039Z</time></trkpt><trkpt lat="45.1622267" lon="10.7998488"><ele>19.571428571428573</ele><time>2026-05-02T15:32:57.038Z</time></trkpt><trkpt lat="45.1621922" lon="10.7999235"><ele>19.857142857142858</ele><time>2026-05-02T15:32:59.039Z</time></trkpt><trkpt lat="45.1621571" lon="10.8000005"><ele>20.142857142857142</ele><time>2026-05-02T15:33:01.039Z</time></trkpt><trkpt lat="45.1621221" lon="10.80008"><ele>20.42857142857143</ele><time>2026-05-02T15:33:03.038Z</time></trkpt><trkpt lat="45.1620848" lon="10.8001543"><ele>20.714285714285715</ele><time>2026-05-02T15:33:05.039Z</time></trkpt><trkpt lat="45.1620529" lon="10.8002319"><ele>21.0</ele><time>2026-05-02T15:33:07.04Z</time></trkpt><trkpt lat="45.1620153" lon="10.8003207"><ele>20.166666666666668</ele><time>2026-05-02T15:33:10.038Z</time></trkpt><trkpt lat="45.1619616" lon="10.8004107"><ele>19.333333333333332</ele><time>2026-05-02T15:33:14.04Z</time></trkpt><trkpt lat="45.1619133" lon="10.8004992"><ele>18.5</ele><time>2026-05-02T15:33:17.038Z</time></trkpt><trkpt lat="45.1618623" lon="10.8006083"><ele>17.666666666666664</ele><time>2026-05-02T15:33:20.039Z</time></trkpt><trkpt lat="45.1618131" lon="10.8007023"><ele>16.833333333333332</ele><time>2026-05-02T15:33:23.039Z</time></trkpt><trkpt lat="45.1617695" lon="10.8007857"><ele>16.0</ele><time>2026-05-02T15:33:26.037Z</time></trkpt><trkpt lat="45.1617228" lon="10.8008856"><ele>15.999999999999998</ele><time>2026-05-02T15:33:29.038Z</time></trkpt><trkpt lat="45.1616766" lon="10.8009821"><ele>16.0</ele><time>2026-05-02T15:33:32.04Z</time></trkpt><trkpt lat="45.161636" lon="10.8010708"><ele>16.0</ele><time>2026-05-02T15:33:35.038Z</time></trkpt><trkpt lat="45.16159" lon="10.8011664"><ele>16.0</ele><time>2026-05-02T15:33:38.038Z</time></trkpt><trkpt lat="45.1615398" lon="10.8012275"><ele>15.999999999999998</ele><time>2026-05-02T15:33:40.038Z</time></trkpt><trkpt lat="45.1614814" lon="10.8012707"><ele>16.0</ele><time>2026-05-02T15:33:42.039Z</time></trkpt><trkpt lat="45.1614099" lon="10.8013266"><ele>15.999999999999998</ele><time>2026-05-02T15:33:45.038Z</time></trkpt><trkpt lat="45.1613738" lon="10.8014348"><ele>16.0</ele><time>2026-05-02T15:33:48.039Z</time></trkpt><trkpt lat="45.1613617" lon="10.8015241"><ele>16.0</ele><time>2026-05-02T15:33:50.039Z</time></trkpt><trkpt lat="45.1613371" lon="10.8016539"><ele>16.0</ele><time>2026-05-02T15:33:53.039Z</time></trkpt><trkpt lat="45.1613115" lon="10.8017425"><ele>15.999999999999998</ele><time>2026-05-02T15:33:55.039Z</time></trkpt><trkpt lat="45.1612942" lon="10.8018418"><ele>16.0</ele><time>2026-05-02T15:33:57.039Z</time></trkpt><trkpt lat="45.1612719" lon="10.8019571"><ele>16.0</ele><time>2026-05-02T15:33:59.038Z</time></trkpt><trkpt lat="45.161243" lon="10.8020851"><ele>16.0</ele><time>2026-05-02T15:34:01.038Z</time></trkpt><trkpt lat="45.1612121" lon="10.8022134"><ele>16.0</ele><time>2026-05-02T15:34:03.039Z</time></trkpt><trkpt lat="45.1612083" lon="10.802346"><ele>16.0</ele><time>2026-05-02T15:34:05.039Z</time></trkpt><trkpt lat="45.1612235" lon="10.8024732"><ele>16.0</ele><time>2026-05-02T15:34:07.037Z</time></trkpt><trkpt lat="45.1612489" lon="10.8025859"><ele>15.857142857142856</ele><time>2026-05-02T15:34:09.039Z</time></trkpt><trkpt lat="45.1612655" lon="10.8026951"><ele>15.714285714285712</ele><time>2026-05-02T15:34:11.037Z</time></trkpt><trkpt lat="45.1613022" lon="10.8027868"><ele>15.571428571428571</ele><time>2026-05-02T15:34:13.039Z</time></trkpt><trkpt lat="45.1613221" lon="10.8028803"><ele>15.428571428571427</ele><time>2026-05-02T15:34:15.038Z</time></trkpt><trkpt lat="45.1613429" lon="10.8029709"><ele>15.285714285714285</ele><time>2026-05-02T15:34:17.039Z</time></trkpt><trkpt lat="45.1613494" lon="10.8030628"><ele>15.142857142857142</ele><time>2026-05-02T15:34:19.039Z</time></trkpt><trkpt lat="45.1613167" lon="10.8031763"><ele>15.0</ele><time>2026-05-02T15:34:22.038Z</time></trkpt><trkpt lat="45.1612606" lon="10.8032383"><ele>15.0</ele><time>2026-05-02T15:34:25.038Z</time></trkpt><trkpt lat="45.1611955" lon="10.8032666"><ele>15.0</ele><time>2026-05-02T15:34:28.039Z</time></trkpt><trkpt lat="45.161115" lon="10.8032981"><ele>15.0</ele><time>2026-05-02T15:34:31.039Z</time></trkpt><trkpt lat="45.1610429" lon="10.8032495"><ele>15.0</ele><time>2026-05-02T15:34:34.039Z</time></trkpt><trkpt lat="45.1610129" lon="10.8031427"><ele>15.0</ele><time>2026-05-02T15:34:37.039Z</time></trkpt><trkpt lat="45.1609932" lon="10.803019"><ele>15.0</ele><time>2026-05-02T15:34:40.039Z</time></trkpt><trkpt lat="45.1609806" lon="10.8028919"><ele>15.0</ele><time>2026-05-02T15:34:43.038Z</time></trkpt><trkpt lat="45.1609501" lon="10.8027673"><ele>15.0</ele><time>2026-05-02T15:34:46.039Z</time></trkpt><trkpt lat="45.1609179" lon="10.8026502"><ele>15.0</ele><time>2026-05-02T15:34:49.039Z</time></trkpt><trkpt lat="45.160876" lon="10.8025454"><ele>15.0</ele><time>2026-05-02T15:34:52.039Z</time></trkpt><trkpt lat="45.1608397" lon="10.8024697"><ele>15.0</ele><time>2026-05-02T15:34:54.038Z</time></trkpt><trkpt lat="45.1607998" lon="10.8023931"><ele>15.0</ele><time>2026-05-02T15:34:56.037Z</time></trkpt><trkpt lat="45.160754" lon="10.8023102"><ele>15.0</ele><time>2026-05-02T15:34:58.038Z</time></trkpt><trkpt lat="45.16071" lon="10.8022317"><ele>15.0</ele><time>2026-05-02T15:35:00.038Z</time></trkpt><trkpt lat="45.160663" lon="10.8021647"><ele>15.0</ele><time>2026-05-02T15:35:02.038Z</time></trkpt><trkpt lat="45.160616" lon="10.802102"><ele>15.0</ele><time>2026-05-02T15:35:04.038Z</time></trkpt><trkpt lat="45.1605543" lon="10.8020051"><ele>15.0</ele><time>2026-05-02T15:35:07.039Z</time></trkpt><trkpt lat="45.1604928" lon="10.801921"><ele>15.0</ele><time>2026-05-02T15:35:10.038Z</time></trkpt><trkpt lat="45.1604303" lon="10.8018489"><ele>15.285714285714286</ele><time>2026-05-02T15:35:13.038Z</time></trkpt><trkpt lat="45.160352" lon="10.8017749"><ele>15.57142857142857</ele><time>2026-05-02T15:35:16.039Z</time></trkpt><trkpt lat="45.1602972" lon="10.801723"><ele>15.857142857142856</ele><time>2026-05-02T15:35:18.039Z</time></trkpt><trkpt lat="45.1602416" lon="10.80167"><ele>16.142857142857142</ele><time>2026-05-02T15:35:20.039Z</time></trkpt><trkpt lat="45.1601875" lon="10.8016202"><ele>16.428571428571427</ele><time>2026-05-02T15:35:22.037Z</time></trkpt><trkpt lat="45.1601365" lon="10.8015665"><ele>16.71428571428571</ele><time>2026-05-02T15:35:24.037Z</time></trkpt><trkpt lat="45.1600824" lon="10.8015155"><ele>17.0</ele><time>2026-05-02T15:35:26.038Z</time></trkpt><trkpt lat="45.1600284" lon="10.8014667"><ele>17.0</ele><time>2026-05-02T15:35:28.038Z</time></trkpt><trkpt lat="45.1599716" lon="10.8014177"><ele>17.0</ele><time>2026-05-02T15:35:30.039Z</time></trkpt><trkpt lat="45.1598906" lon="10.8013596"><ele>17.0</ele><time>2026-05-02T15:35:33.039Z</time></trkpt><trkpt lat="45.1598101" lon="10.8012995"><ele>17.0</ele><time>2026-05-02T15:35:36.039Z</time></trkpt><trkpt lat="45.1597309" lon="10.8012535"><ele>17.0</ele><time>2026-05-02T15:35:39.037Z</time></trkpt><trkpt lat="45.1596684" lon="10.8012295"><ele>17.0</ele><time>2026-05-02T15:35:41.037Z</time></trkpt><trkpt lat="45.1595821" lon="10.8011844"><ele>17.0</ele><time>2026-05-02T15:35:44.039Z</time></trkpt><trkpt lat="45.1595046" lon="10.8011565"><ele>17.0</ele><time>2026-05-02T15:35:47.039Z</time></trkpt><trkpt lat="45.1594212" lon="10.8011341"><ele>17.0</ele><time>2026-05-02T15:35:50.037Z</time></trkpt><trkpt lat="45.1593593" lon="10.8011073"><ele>17.0</ele><time>2026-05-02T15:35:52.037Z</time></trkpt><trkpt lat="45.1592692" lon="10.8010704"><ele>17.0</ele><time>2026-05-02T15:35:55.038Z</time></trkpt><trkpt lat="45.1592079" lon="10.8010393"><ele>17.0</ele><time>2026-05-02T15:35:57.036Z</time></trkpt><trkpt lat="45.1591477" lon="10.8010064"><ele>17.5</ele><time>2026-05-02T15:35:59.039Z</time></trkpt><trkpt lat="45.1590554" lon="10.8009773"><ele>18.0</ele><time>2026-05-02T15:36:02.038Z</time></trkpt><trkpt lat="45.1589909" lon="10.8009511"><ele>18.5</ele><time>2026-05-02T15:36:04.039Z</time></trkpt><trkpt lat="45.1589275" lon="10.8009322"><ele>19.0</ele><time>2026-05-02T15:36:06.038Z</time></trkpt><trkpt lat="45.1588394" lon="10.8009021"><ele>19.5</ele><time>2026-05-02T15:36:09.038Z</time></trkpt><trkpt lat="45.1587501" lon="10.8008722"><ele>20.0</ele><time>2026-05-02T15:36:12.038Z</time></trkpt><trkpt lat="45.1586856" lon="10.8008531"><ele>20.0</ele><time>2026-05-02T15:36:14.037Z</time></trkpt><trkpt lat="45.1586214" lon="10.8008375"><ele>20.0</ele><time>2026-05-02T15:36:16.037Z</time></trkpt><trkpt lat="45.1585311" lon="10.8008078"><ele>20.0</ele><time>2026-05-02T15:36:19.038Z</time></trkpt><trkpt lat="45.1584698" lon="10.8007778"><ele>20.0</ele><time>2026-05-02T15:36:21.038Z</time></trkpt><trkpt lat="45.1583847" lon="10.8007375"><ele>20.0</ele><time>2026-05-02T15:36:24.038Z</time></trkpt><trkpt lat="45.1582949" lon="10.8007158"><ele>20.0</ele><time>2026-05-02T15:36:27.038Z</time></trkpt><trkpt lat="45.1582086" lon="10.800684"><ele>19.6</ele><time>2026-05-02T15:36:30.037Z</time></trkpt><trkpt lat="45.1581209" lon="10.8006472"><ele>19.2</ele><time>2026-05-02T15:36:33.039Z</time></trkpt><trkpt lat="45.1580312" lon="10.8006158"><ele>18.8</ele><time>2026-05-02T15:36:36.037Z</time></trkpt><trkpt lat="45.1579415" lon="10.8005844"><ele>18.4</ele><time>2026-05-02T15:36:39.039Z</time></trkpt><trkpt lat="45.157852" lon="10.8005549"><ele>18.0</ele><time>2026-05-02T15:36:42.036Z</time></trkpt><trkpt lat="45.1577716" lon="10.8005001"><ele>18.000000000000004</ele><time>2026-05-02T15:36:45.039Z</time></trkpt><trkpt lat="45.1576788" lon="10.8004728"><ele>18.0</ele><time>2026-05-02T15:36:48.039Z</time></trkpt><trkpt lat="45.1576115" lon="10.8004539"><ele>18.0</ele><time>2026-05-02T15:36:50.038Z</time></trkpt><trkpt lat="45.1575497" lon="10.8004254"><ele>18.0</ele><time>2026-05-02T15:36:52.038Z</time></trkpt><trkpt lat="45.1574838" lon="10.8003901"><ele>18.0</ele><time>2026-05-02T15:36:54.038Z</time></trkpt><trkpt lat="45.1574238" lon="10.8003591"><ele>18.000000000000004</ele><time>2026-05-02T15:36:56.037Z</time></trkpt><trkpt lat="45.1573612" lon="10.8003275"><ele>18.0</ele><time>2026-05-02T15:36:58.038Z</time></trkpt><trkpt lat="45.1572987" lon="10.8002935"><ele>18.333333333333332</ele><time>2026-05-02T15:37:00.038Z</time></trkpt><trkpt lat="45.1572378" lon="10.8002656"><ele>18.666666666666668</ele><time>2026-05-02T15:37:02.037Z</time></trkpt><trkpt lat="45.1571509" lon="10.8002333"><ele>19.0</ele><time>2026-05-02T15:37:05.038Z</time></trkpt><trkpt lat="45.1570625" lon="10.8002101"><ele>19.333333333333336</ele><time>2026-05-02T15:37:08.039Z</time></trkpt><trkpt lat="45.1570025" lon="10.8001792"><ele>19.666666666666668</ele><time>2026-05-02T15:37:10.036Z</time></trkpt><trkpt lat="45.1569191" lon="10.8001422"><ele>20.0</ele><time>2026-05-02T15:37:13.038Z</time></trkpt><trkpt lat="45.156833" lon="10.8001067"><ele>20.0</ele><time>2026-05-02T15:37:16.038Z</time></trkpt><trkpt lat="45.1567486" lon="10.800058"><ele>20.0</ele><time>2026-05-02T15:37:19.039Z</time></trkpt><trkpt lat="45.1566718" lon="10.8000088"><ele>20.0</ele><time>2026-05-02T15:37:22.038Z</time></trkpt><trkpt lat="45.1565811" lon="10.7999692"><ele>20.0</ele><time>2026-05-02T15:37:25.038Z</time></trkpt><trkpt lat="45.1565166" lon="10.7999502"><ele>20.0</ele><time>2026-05-02T15:37:27.038Z</time></trkpt><trkpt lat="45.1564505" lon="10.7999387"><ele>20.0</ele><time>2026-05-02T15:37:29.037Z</time></trkpt><trkpt lat="45.1563801" lon="10.7999348"><ele>19.666666666666668</ele><time>2026-05-02T15:37:31.038Z</time></trkpt><trkpt lat="45.156311" lon="10.7999241"><ele>19.333333333333336</ele><time>2026-05-02T15:37:33.039Z</time></trkpt><trkpt lat="45.156219" lon="10.7999005"><ele>19.0</ele><time>2026-05-02T15:37:36.038Z</time></trkpt><trkpt lat="45.1561272" lon="10.7998759"><ele>18.666666666666668</ele><time>2026-05-02T15:37:39.039Z</time></trkpt><trkpt lat="45.1560446" lon="10.7998529"><ele>18.333333333333332</ele><time>2026-05-02T15:37:42.037Z</time></trkpt><trkpt lat="45.1559742" lon="10.7998437"><ele>18.0</ele><time>2026-05-02T15:37:45.038Z</time></trkpt><trkpt lat="45.1558856" lon="10.7998255"><ele>18.000000000000004</ele><time>2026-05-02T15:37:48.038Z</time></trkpt><trkpt lat="45.1558231" lon="10.799814"><ele>18.0</ele><time>2026-05-02T15:37:50.039Z</time></trkpt><trkpt lat="45.155734" lon="10.7998229"><ele>18.0</ele><time>2026-05-02T15:37:53.038Z</time></trkpt><trkpt lat="45.1556704" lon="10.7998098"><ele>18.0</ele><time>2026-05-02T15:37:55.036Z</time></trkpt><trkpt lat="45.155605" lon="10.7997939"><ele>18.0</ele><time>2026-05-02T15:37:57.038Z</time></trkpt><trkpt lat="45.155538" lon="10.7997813"><ele>18.000000000000004</ele><time>2026-05-02T15:37:59.037Z</time></trkpt><trkpt lat="45.1554725" lon="10.7997676"><ele>18.0</ele><time>2026-05-02T15:38:01.038Z</time></trkpt><trkpt lat="45.1554069" lon="10.7997534"><ele>17.857142857142858</ele><time>2026-05-02T15:38:03.038Z</time></trkpt><trkpt lat="45.1553404" lon="10.7997405"><ele>17.714285714285715</ele><time>2026-05-02T15:38:05.037Z</time></trkpt><trkpt lat="45.1552775" lon="10.7997284"><ele>17.57142857142857</ele><time>2026-05-02T15:38:07.039Z</time></trkpt><trkpt lat="45.1551897" lon="10.7997181"><ele>17.42857142857143</ele><time>2026-05-02T15:38:10.038Z</time></trkpt><trkpt lat="45.1550985" lon="10.7997024"><ele>17.285714285714285</ele><time>2026-05-02T15:38:13.038Z</time></trkpt><trkpt lat="45.1550356" lon="10.7996915"><ele>17.142857142857142</ele><time>2026-05-02T15:38:15.037Z</time></trkpt><trkpt lat="45.1549715" lon="10.7996768"><ele>17.0</ele><time>2026-05-02T15:38:17.038Z</time></trkpt><trkpt lat="45.1549091" lon="10.7996512"><ele>17.0</ele><time>2026-05-02T15:38:19.039Z</time></trkpt><trkpt lat="45.1548688" lon="10.7995696"><ele>17.0</ele><time>2026-05-02T15:38:22.038Z</time></trkpt><trkpt lat="45.1548696" lon="10.7994786"><ele>17.0</ele><time>2026-05-02T15:38:25.037Z</time></trkpt><trkpt lat="45.1548217" lon="10.7993916"><ele>17.0</ele><time>2026-05-02T15:38:28.037Z</time></trkpt><trkpt lat="45.1547968" lon="10.7992818"><ele>17.0</ele><time>2026-05-02T15:38:31.039Z</time></trkpt><trkpt lat="45.1547898" lon="10.799167"><ele>17.0</ele><time>2026-05-02T15:38:34.038Z</time></trkpt><trkpt lat="45.1547848" lon="10.7990374"><ele>16.999999999999996</ele><time>2026-05-02T15:38:37.036Z</time></trkpt><trkpt lat="45.1548061" lon="10.798942"><ele>17.0</ele><time>2026-05-02T15:38:39.038Z</time></trkpt><trkpt lat="45.1548253" lon="10.7988478"><ele>17.0</ele><time>2026-05-02T15:38:41.039Z</time></trkpt><trkpt lat="45.154841" lon="10.7987535"><ele>17.0</ele><time>2026-05-02T15:38:43.037Z</time></trkpt><trkpt lat="45.1548605" lon="10.7986396"><ele>17.0</ele><time>2026-05-02T15:38:46.038Z</time></trkpt><trkpt lat="45.1548533" lon="10.7985353"><ele>16.999999999999996</ele><time>2026-05-02T15:38:50.038Z</time></trkpt><trkpt lat="45.1547862" lon="10.7984837"><ele>17.0</ele><time>2026-05-02T15:38:55.038Z</time></trkpt><trkpt lat="45.1547226" lon="10.798465"><ele>17.0</ele><time>2026-05-02T15:38:58.037Z</time></trkpt><trkpt lat="45.1546448" lon="10.7984313"><ele>17.0</ele><time>2026-05-02T15:39:01.039Z</time></trkpt><trkpt lat="45.1545682" lon="10.7983958"><ele>17.0</ele><time>2026-05-02T15:39:04.039Z</time></trkpt><trkpt lat="45.1544895" lon="10.7984097"><ele>17.0</ele><time>2026-05-02T15:39:08.038Z</time></trkpt><trkpt lat="45.1544307" lon="10.7984451"><ele>17.0</ele><time>2026-05-02T15:39:11.037Z</time></trkpt><trkpt lat="45.1543571" lon="10.7984961"><ele>17.0</ele><time>2026-05-02T15:39:15.038Z</time></trkpt><trkpt lat="45.1543166" lon="10.7985709"><ele>16.999999999999996</ele><time>2026-05-02T15:39:18.037Z</time></trkpt><trkpt lat="45.1542557" lon="10.7986144"><ele>17.0</ele><time>2026-05-02T15:39:21.037Z</time></trkpt><trkpt lat="45.1541932" lon="10.7986265"><ele>17.0</ele><time>2026-05-02T15:39:24.038Z</time></trkpt><trkpt lat="45.1541211" lon="10.7986201"><ele>17.0</ele><time>2026-05-02T15:39:27.037Z</time></trkpt><trkpt lat="45.1540489" lon="10.7986266"><ele>17.0</ele><time>2026-05-02T15:39:30.038Z</time></trkpt><trkpt lat="45.1539763" lon="10.7986434"><ele>16.999999999999996</ele><time>2026-05-02T15:39:33.038Z</time></trkpt><trkpt lat="45.1539019" lon="10.7986944"><ele>17.0</ele><time>2026-05-02T15:39:36.038Z</time></trkpt><trkpt lat="45.1538288" lon="10.7987424"><ele>16.833333333333336</ele><time>2026-05-02T15:39:39.038Z</time></trkpt><trkpt lat="45.1537406" lon="10.7987714"><ele>16.666666666666668</ele><time>2026-05-02T15:39:42.037Z</time></trkpt><trkpt lat="45.1536585" lon="10.7988025"><ele>16.5</ele><time>2026-05-02T15:39:45.038Z</time></trkpt><trkpt lat="45.1535771" lon="10.7988262"><ele>16.333333333333332</ele><time>2026-05-02T15:39:48.038Z</time></trkpt><trkpt lat="45.1534977" lon="10.7988466"><ele>16.166666666666664</ele><time>2026-05-02T15:39:51.037Z</time></trkpt><trkpt lat="45.1534095" lon="10.7988807"><ele>16.0</ele><time>2026-05-02T15:39:54.038Z</time></trkpt><trkpt lat="45.1533466" lon="10.7988977"><ele>15.999999999999998</ele><time>2026-05-02T15:39:56.038Z</time></trkpt><trkpt lat="45.1532553" lon="10.7989299"><ele>16.0</ele><time>2026-05-02T15:39:59.038Z</time></trkpt><trkpt lat="45.1531957" lon="10.7989611"><ele>16.0</ele><time>2026-05-02T15:40:01.038Z</time></trkpt><trkpt lat="45.1531137" lon="10.7990009"><ele>16.0</ele><time>2026-05-02T15:40:04.036Z</time></trkpt><trkpt lat="45.1530512" lon="10.7990259"><ele>15.999999999999998</ele><time>2026-05-02T15:40:06.038Z</time></trkpt><trkpt lat="45.1529667" lon="10.7990734"><ele>16.0</ele><time>2026-05-02T15:40:09.038Z</time></trkpt><trkpt lat="45.152881" lon="10.799129"><ele>16.5</ele><time>2026-05-02T15:40:12.037Z</time></trkpt><trkpt lat="45.1527995" lon="10.7991836"><ele>17.0</ele><time>2026-05-02T15:40:15.038Z</time></trkpt><trkpt lat="45.152743" lon="10.7992244"><ele>17.5</ele><time>2026-05-02T15:40:17.038Z</time></trkpt><trkpt lat="45.15266" lon="10.7992782"><ele>18.0</ele><time>2026-05-02T15:40:20.038Z</time></trkpt><trkpt lat="45.1525736" lon="10.7993038"><ele>18.5</ele><time>2026-05-02T15:40:23.037Z</time></trkpt><trkpt lat="45.1524912" lon="10.7992952"><ele>19.0</ele><time>2026-05-02T15:40:26.038Z</time></trkpt><trkpt lat="45.1524493" lon="10.7992276"><ele>19.0</ele><time>2026-05-02T15:40:28.036Z</time></trkpt><trkpt lat="45.1524167" lon="10.7991101"><ele>19.0</ele><time>2026-05-02T15:40:31.038Z</time></trkpt><trkpt lat="45.1524068" lon="10.7989868"><ele>19.0</ele><time>2026-05-02T15:40:34.038Z</time></trkpt><trkpt lat="45.1523987" lon="10.7988576"><ele>19.0</ele><time>2026-05-02T15:40:37.038Z</time></trkpt><trkpt lat="45.1523945" lon="10.7987282"><ele>19.0</ele><time>2026-05-02T15:40:40.038Z</time></trkpt><trkpt lat="45.1523919" lon="10.7986033"><ele>19.0</ele><time>2026-05-02T15:40:43.037Z</time></trkpt><trkpt lat="45.1523355" lon="10.7985126"><ele>19.333333333333332</ele><time>2026-05-02T15:40:46.036Z</time></trkpt><trkpt lat="45.1522585" lon="10.7984961"><ele>19.666666666666664</ele><time>2026-05-02T15:40:49.038Z</time></trkpt><trkpt lat="45.1521734" lon="10.7984754"><ele>20.0</ele><time>2026-05-02T15:40:52.038Z</time></trkpt><trkpt lat="45.1520777" lon="10.7984769"><ele>20.333333333333332</ele><time>2026-05-02T15:40:55.037Z</time></trkpt><trkpt lat="45.1520143" lon="10.7984865"><ele>20.666666666666668</ele><time>2026-05-02T15:40:57.036Z</time></trkpt><trkpt lat="45.1519185" lon="10.7985179"><ele>21.0</ele><time>2026-05-02T15:41:00.038Z</time></trkpt><trkpt lat="45.1518495" lon="10.798548"><ele>21.0</ele><time>2026-05-02T15:41:02.037Z</time></trkpt><trkpt lat="45.1517784" lon="10.7985684"><ele>21.0</ele><time>2026-05-02T15:41:04.038Z</time></trkpt><trkpt lat="45.151706" lon="10.7985986"><ele>21.0</ele><time>2026-05-02T15:41:06.037Z</time></trkpt><trkpt lat="45.1516329" lon="10.7986342"><ele>21.0</ele><time>2026-05-02T15:41:08.038Z</time></trkpt><trkpt lat="45.1515535" lon="10.7986571"><ele>21.0</ele><time>2026-05-02T15:41:10.037Z</time></trkpt><trkpt lat="45.1514756" lon="10.7986662"><ele>21.0</ele><time>2026-05-02T15:41:12.037Z</time></trkpt><trkpt lat="45.1514045" lon="10.7986614"><ele>21.142857142857142</ele><time>2026-05-02T15:41:14.037Z</time></trkpt><trkpt lat="45.1513381" lon="10.7986432"><ele>21.285714285714285</ele><time>2026-05-02T15:41:16.037Z</time></trkpt><trkpt lat="45.1512718" lon="10.798624"><ele>21.42857142857143</ele><time>2026-05-02T15:41:18.038Z</time></trkpt><trkpt lat="45.151202" lon="10.7986152"><ele>21.57142857142857</ele><time>2026-05-02T15:41:20.038Z</time></trkpt><trkpt lat="45.1511305" lon="10.7986058"><ele>21.714285714285715</ele><time>2026-05-02T15:41:22.037Z</time></trkpt><trkpt lat="45.1510609" lon="10.79859"><ele>21.857142857142858</ele><time>2026-05-02T15:41:24.035Z</time></trkpt><trkpt lat="45.1509941" lon="10.7985656"><ele>22.0</ele><time>2026-05-02T15:41:26.037Z</time></trkpt><trkpt lat="45.150927" lon="10.7985405"><ele>22.0</ele><time>2026-05-02T15:41:28.038Z</time></trkpt><trkpt lat="45.1508597" lon="10.7985236"><ele>22.0</ele><time>2026-05-02T15:41:30.037Z</time></trkpt><trkpt lat="45.1507889" lon="10.7985058"><ele>22.0</ele><time>2026-05-02T15:41:32.036Z</time></trkpt><trkpt lat="45.1507139" lon="10.7985081"><ele>22.0</ele><time>2026-05-02T15:41:34.037Z</time></trkpt><trkpt lat="45.1506381" lon="10.7985014"><ele>22.0</ele><time>2026-05-02T15:41:36.037Z</time></trkpt><trkpt lat="45.1505614" lon="10.7984964"><ele>22.0</ele><time>2026-05-02T15:41:38.038Z</time></trkpt><trkpt lat="45.1504811" lon="10.7984906"><ele>22.0</ele><time>2026-05-02T15:41:40.037Z</time></trkpt><trkpt lat="45.1504074" lon="10.7984884"><ele>21.857142857142858</ele><time>2026-05-02T15:41:42.037Z</time></trkpt><trkpt lat="45.1503324" lon="10.7984823"><ele>21.714285714285715</ele><time>2026-05-02T15:41:44.038Z</time></trkpt><trkpt lat="45.1502576" lon="10.7984762"><ele>21.57142857142857</ele><time>2026-05-02T15:41:46.037Z</time></trkpt><trkpt lat="45.1501839" lon="10.7984686"><ele>21.42857142857143</ele><time>2026-05-02T15:41:48.036Z</time></trkpt><trkpt lat="45.1501072" lon="10.7984604"><ele>21.285714285714285</ele><time>2026-05-02T15:41:50.037Z</time></trkpt><trkpt lat="45.1500324" lon="10.7984516"><ele>21.142857142857142</ele><time>2026-05-02T15:41:52.037Z</time></trkpt><trkpt lat="45.1499647" lon="10.7984377"><ele>21.0</ele><time>2026-05-02T15:41:54.038Z</time></trkpt><trkpt lat="45.1498962" lon="10.7984247"><ele>21.0</ele><time>2026-05-02T15:41:56.036Z</time></trkpt><trkpt lat="45.1498252" lon="10.7984186"><ele>21.0</ele><time>2026-05-02T15:41:58.037Z</time></trkpt><trkpt lat="45.1497549" lon="10.798407"><ele>21.0</ele><time>2026-05-02T15:42:00.037Z</time></trkpt><trkpt lat="45.1496817" lon="10.7983972"><ele>21.0</ele><time>2026-05-02T15:42:02.038Z</time></trkpt><trkpt lat="45.1496048" lon="10.7983909"><ele>21.0</ele><time>2026-05-02T15:42:04.038Z</time></trkpt><trkpt lat="45.1495303" lon="10.7983811"><ele>21.0</ele><time>2026-05-02T15:42:06.038Z</time></trkpt><trkpt lat="45.1494531" lon="10.7983716"><ele>21.0</ele><time>2026-05-02T15:42:08.037Z</time></trkpt><trkpt lat="45.1493807" lon="10.7983548"><ele>21.0</ele><time>2026-05-02T15:42:10.036Z</time></trkpt><trkpt lat="45.1493111" lon="10.7983503"><ele>21.0</ele><time>2026-05-02T15:42:12.036Z</time></trkpt><trkpt lat="45.1492428" lon="10.7983424"><ele>21.0</ele><time>2026-05-02T15:42:14.038Z</time></trkpt><trkpt lat="45.1491735" lon="10.7983407"><ele>21.0</ele><time>2026-05-02T15:42:16.036Z</time></trkpt><trkpt lat="45.1491001" lon="10.7983473"><ele>21.0</ele><time>2026-05-02T15:42:18.037Z</time></trkpt><trkpt lat="45.149026" lon="10.7983555"><ele>21.0</ele><time>2026-05-02T15:42:20.037Z</time></trkpt><trkpt lat="45.1489476" lon="10.798361"><ele>21.0</ele><time>2026-05-02T15:42:22.037Z</time></trkpt><trkpt lat="45.1488731" lon="10.7983586"><ele>20.857142857142858</ele><time>2026-05-02T15:42:24.038Z</time></trkpt><trkpt lat="45.1488052" lon="10.7983548"><ele>20.714285714285715</ele><time>2026-05-02T15:42:26.038Z</time></trkpt><trkpt lat="45.1487142" lon="10.7983598"><ele>20.57142857142857</ele><time>2026-05-02T15:42:29.037Z</time></trkpt><trkpt lat="45.14862" lon="10.7983681"><ele>20.42857142857143</ele><time>2026-05-02T15:42:32.037Z</time></trkpt><trkpt lat="45.1485568" lon="10.7983713"><ele>20.285714285714285</ele><time>2026-05-02T15:42:34.037Z</time></trkpt><trkpt lat="45.1484914" lon="10.7983743"><ele>20.142857142857142</ele><time>2026-05-02T15:42:36.037Z</time></trkpt><trkpt lat="45.1484243" lon="10.7983838"><ele>20.0</ele><time>2026-05-02T15:42:38.037Z</time></trkpt><trkpt lat="45.1483584" lon="10.7983893"><ele>20.0</ele><time>2026-05-02T15:42:40.036Z</time></trkpt><trkpt lat="45.1482908" lon="10.7983925"><ele>20.0</ele><time>2026-05-02T15:42:42.037Z</time></trkpt><trkpt lat="45.148221" lon="10.7983986"><ele>20.0</ele><time>2026-05-02T15:42:44.037Z</time></trkpt><trkpt lat="45.1481528" lon="10.7984078"><ele>20.0</ele><time>2026-05-02T15:42:46.037Z</time></trkpt><trkpt lat="45.1480883" lon="10.7984161"><ele>20.0</ele><time>2026-05-02T15:42:48.037Z</time></trkpt><trkpt lat="45.1480008" lon="10.7984149"><ele>20.0</ele><time>2026-05-02T15:42:51.038Z</time></trkpt><trkpt lat="45.1479512" lon="10.7983286"><ele>20.0</ele><time>2026-05-02T15:42:55.038Z</time></trkpt><trkpt lat="45.1479359" lon="10.7982417"><ele>20.0</ele><time>2026-05-02T15:42:57.036Z</time></trkpt><trkpt lat="45.1479223" lon="10.798126"><ele>20.0</ele><time>2026-05-02T15:43:00.038Z</time></trkpt><trkpt lat="45.1479416" lon="10.7980337"><ele>20.0</ele><time>2026-05-02T15:43:02.037Z</time></trkpt><trkpt lat="45.1479329" lon="10.797934"><ele>20.0</ele><time>2026-05-02T15:43:04.037Z</time></trkpt><trkpt lat="45.1479219" lon="10.7978266"><ele>20.0</ele><time>2026-05-02T15:43:06.038Z</time></trkpt><trkpt lat="45.147911" lon="10.7977186"><ele>20.0</ele><time>2026-05-02T15:43:08.038Z</time></trkpt><trkpt lat="45.147901" lon="10.7976107"><ele>20.0</ele><time>2026-05-02T15:43:10.037Z</time></trkpt><trkpt lat="45.1478892" lon="10.7975168"><ele>20.0</ele><time>2026-05-02T15:43:12.037Z</time></trkpt><trkpt lat="45.1478765" lon="10.7974205"><ele>20.0</ele><time>2026-05-02T15:43:14.037Z</time></trkpt><trkpt lat="45.1478743" lon="10.7973245"><ele>20.0</ele><time>2026-05-02T15:43:16.037Z</time></trkpt><trkpt lat="45.1478706" lon="10.7972171"><ele>20.0</ele><time>2026-05-02T15:43:18.037Z</time></trkpt><trkpt lat="45.1478587" lon="10.7971062"><ele>20.0</ele><time>2026-05-02T15:43:20.037Z</time></trkpt><trkpt lat="45.1478478" lon="10.7970008"><ele>20.0</ele><time>2026-05-02T15:43:22.038Z</time></trkpt><trkpt lat="45.1478391" lon="10.7968911"><ele>20.0</ele><time>2026-05-02T15:43:24.038Z</time></trkpt><trkpt lat="45.1478293" lon="10.7967773"><ele>20.0</ele><time>2026-05-02T15:43:26.037Z</time></trkpt><trkpt lat="45.1478235" lon="10.796666"><ele>20.0</ele><time>2026-05-02T15:43:28.037Z</time></trkpt><trkpt lat="45.1478133" lon="10.7965629"><ele>20.0</ele><time>2026-05-02T15:43:30.037Z</time></trkpt><trkpt lat="45.1478047" lon="10.7964531"><ele>20.0</ele><time>2026-05-02T15:43:32.037Z</time></trkpt><trkpt lat="45.147799" lon="10.7963487"><ele>20.0</ele><time>2026-05-02T15:43:34.036Z</time></trkpt><trkpt lat="45.1477891" lon="10.7962525"><ele>20.0</ele><time>2026-05-02T15:43:36.037Z</time></trkpt><trkpt lat="45.1478145" lon="10.7961487"><ele>20.0</ele><time>2026-05-02T15:43:39.036Z</time></trkpt><trkpt lat="45.1478332" lon="10.7960575"><ele>20.0</ele><time>2026-05-02T15:43:42.037Z</time></trkpt><trkpt lat="45.1478196" lon="10.7959434"><ele>20.0</ele><time>2026-05-02T15:43:45.036Z</time></trkpt><trkpt lat="45.1478523" lon="10.7958618"><ele>20.0</ele><time>2026-05-02T15:43:50.037Z</time></trkpt><trkpt lat="45.1478538" lon="10.795756"><ele>20.0</ele><time>2026-05-02T15:43:56.037Z</time></trkpt><trkpt lat="45.1478451" lon="10.7956346"><ele>20.0</ele><time>2026-05-02T15:43:59.037Z</time></trkpt><trkpt lat="45.1478515" lon="10.7955424"><ele>20.0</ele><time>2026-05-02T15:44:02.037Z</time></trkpt><trkpt lat="45.1478606" lon="10.7954518"><ele>20.0</ele><time>2026-05-02T15:44:04.037Z</time></trkpt><trkpt lat="45.1478825" lon="10.7953632"><ele>20.0</ele><time>2026-05-02T15:44:06.037Z</time></trkpt><trkpt lat="45.1479165" lon="10.7952429"><ele>20.0</ele><time>2026-05-02T15:44:09.038Z</time></trkpt><trkpt lat="45.1479423" lon="10.7951328"><ele>20.0</ele><time>2026-05-02T15:44:12.037Z</time></trkpt><trkpt lat="45.1479503" lon="10.7950416"><ele>20.0</ele><time>2026-05-02T15:49:09.037Z</time></trkpt><trkpt lat="45.1478879" lon="10.7950539"><ele>20.333333333333336</ele><time>2026-05-02T15:49:52.036Z</time></trkpt><trkpt lat="45.1478465" lon="10.7949836"><ele>20.666666666666668</ele><time>2026-05-02T15:51:57.035Z</time></trkpt><trkpt lat="45.1478202" lon="10.7948669"><ele>21.0</ele><time>2026-05-02T15:52:16.036Z</time></trkpt><trkpt lat="45.1478162" lon="10.7947518"><ele>21.333333333333332</ele><time>2026-05-02T15:52:19.036Z</time></trkpt><trkpt lat="45.1478165" lon="10.7946422"><ele>21.666666666666664</ele><time>2026-05-02T15:52:22.035Z</time></trkpt><trkpt lat="45.1478118" lon="10.7945284"><ele>22.0</ele><time>2026-05-02T15:52:25.035Z</time></trkpt><trkpt lat="45.1478331" lon="10.7944307"><ele>22.0</ele><time>2026-05-02T15:52:28.036Z</time></trkpt><trkpt lat="45.1478723" lon="10.7943314"><ele>22.0</ele><time>2026-05-02T15:52:31.036Z</time></trkpt><trkpt lat="45.1479104" lon="10.7942226"><ele>22.0</ele><time>2026-05-02T15:52:34.034Z</time></trkpt><trkpt lat="45.1479111" lon="10.7941068"><ele>22.0</ele><time>2026-05-02T15:52:37.036Z</time></trkpt><trkpt lat="45.1479376" lon="10.7940091"><ele>22.0</ele><time>2026-05-02T15:52:41.036Z</time></trkpt><trkpt lat="45.1479371" lon="10.7939191"><ele>22.0</ele><time>2026-05-02T15:52:44.035Z</time></trkpt><trkpt lat="45.1479697" lon="10.7938369"><ele>22.0</ele><time>2026-05-02T15:52:47.036Z</time></trkpt><trkpt lat="45.1480054" lon="10.793715"><ele>22.0</ele><time>2026-05-02T15:52:50.037Z</time></trkpt><trkpt lat="45.1480551" lon="10.7936091"><ele>22.0</ele><time>2026-05-02T15:52:53.035Z</time></trkpt><trkpt lat="45.1480131" lon="10.7935204"><ele>22.0</ele><time>2026-05-02T15:52:56.035Z</time></trkpt><trkpt lat="45.1479414" lon="10.7934824"><ele>22.0</ele><time>2026-05-02T15:52:59.035Z</time></trkpt><trkpt lat="45.1478626" lon="10.793448"><ele>22.0</ele><time>2026-05-02T15:53:02.034Z</time></trkpt><trkpt lat="45.1477869" lon="10.793408"><ele>21.857142857142858</ele><time>2026-05-02T15:53:05.034Z</time></trkpt><trkpt lat="45.1477155" lon="10.793365"><ele>21.714285714285715</ele><time>2026-05-02T15:53:08.035Z</time></trkpt><trkpt lat="45.1476465" lon="10.7933176"><ele>21.57142857142857</ele><time>2026-05-02T15:53:11.036Z</time></trkpt><trkpt lat="45.1476393" lon="10.7932255"><ele>21.42857142857143</ele><time>2026-05-02T15:53:14.035Z</time></trkpt><trkpt lat="45.1475847" lon="10.7931477"><ele>21.285714285714285</ele><time>2026-05-02T15:53:18.035Z</time></trkpt><trkpt lat="45.1475185" lon="10.7931088"><ele>21.142857142857142</ele><time>2026-05-02T15:53:21.036Z</time></trkpt><trkpt lat="45.147458" lon="10.793038"><ele>21.0</ele><time>2026-05-02T15:53:25.034Z</time></trkpt><trkpt lat="45.1474414" lon="10.7929265"><ele>21.0</ele><time>2026-05-02T15:53:29.035Z</time></trkpt><trkpt lat="45.1474328" lon="10.7928241"><ele>21.0</ele><time>2026-05-02T15:53:33.035Z</time></trkpt><trkpt lat="45.1474054" lon="10.7927238"><ele>21.0</ele><time>2026-05-02T15:53:36.036Z</time></trkpt><trkpt lat="45.1473788" lon="10.7926043"><ele>21.0</ele><time>2026-05-02T15:53:39.035Z</time></trkpt><trkpt lat="45.147386" lon="10.7924974"><ele>21.0</ele><time>2026-05-02T15:53:41.034Z</time></trkpt><trkpt lat="45.1474421" lon="10.792424"><ele>21.0</ele><time>2026-05-02T15:53:43.036Z</time></trkpt><trkpt lat="45.1474869" lon="10.792351"><ele>21.0</ele><time>2026-05-02T15:53:45.036Z</time></trkpt><trkpt lat="45.1475175" lon="10.7922727"><ele>21.0</ele><time>2026-05-02T15:53:47.035Z</time></trkpt><trkpt lat="45.1475518" lon="10.7921657"><ele>21.0</ele><time>2026-05-02T15:53:50.035Z</time></trkpt><trkpt lat="45.1475906" lon="10.7920598"><ele>21.0</ele><time>2026-05-02T15:53:53.036Z</time></trkpt><trkpt lat="45.1476171" lon="10.7919426"><ele>21.0</ele><time>2026-05-02T15:53:56.035Z</time></trkpt><trkpt lat="45.147649" lon="10.7918353"><ele>21.0</ele><time>2026-05-02T15:53:59.034Z</time></trkpt><trkpt lat="45.1476782" lon="10.7917198"><ele>21.0</ele><time>2026-05-02T15:54:02.034Z</time></trkpt><trkpt lat="45.1477123" lon="10.7916012"><ele>21.0</ele><time>2026-05-02T15:54:05.035Z</time></trkpt><trkpt lat="45.1477464" lon="10.7914759"><ele>21.0</ele><time>2026-05-02T15:54:08.035Z</time></trkpt><trkpt lat="45.1477714" lon="10.7913911"><ele>21.0</ele><time>2026-05-02T15:54:10.035Z</time></trkpt><trkpt lat="45.1477951" lon="10.7913078"><ele>21.0</ele><time>2026-05-02T15:54:12.035Z</time></trkpt><trkpt lat="45.1478284" lon="10.7911839"><ele>21.0</ele><time>2026-05-02T15:54:15.036Z</time></trkpt><trkpt lat="45.1478565" lon="10.7910604"><ele>20.0</ele><time>2026-05-02T15:54:18.036Z</time></trkpt><trkpt lat="45.1478899" lon="10.7909399"><ele>19.0</ele><time>2026-05-02T15:54:21.035Z</time></trkpt><trkpt lat="45.1479299" lon="10.7908194"><ele>18.0</ele><time>2026-05-02T15:54:24.034Z</time></trkpt><trkpt lat="45.1479684" lon="10.7906989"><ele>17.0</ele><time>2026-05-02T15:54:27.034Z</time></trkpt><trkpt lat="45.1479876" lon="10.7906132"><ele>16.0</ele><time>2026-05-02T15:54:29.035Z</time></trkpt><trkpt lat="45.1480111" lon="10.7905278"><ele>15.0</ele><time>2026-05-02T15:54:31.035Z</time></trkpt><trkpt lat="45.1480325" lon="10.7904378"><ele>15.0</ele><time>2026-05-02T15:54:33.036Z</time></trkpt><trkpt lat="45.1480537" lon="10.7903493"><ele>15.0</ele><time>2026-05-02T15:54:35.034Z</time></trkpt><trkpt lat="45.1480764" lon="10.7902652"><ele>15.0</ele><time>2026-05-02T15:54:37.035Z</time></trkpt><trkpt lat="45.1481069" lon="10.7901426"><ele>15.0</ele><time>2026-05-02T15:54:40.034Z</time></trkpt><trkpt lat="45.1481348" lon="10.7900333"><ele>15.0</ele><time>2026-05-02T15:54:43.033Z</time></trkpt><trkpt lat="45.1481586" lon="10.7899262"><ele>15.0</ele><time>2026-05-02T15:54:46.036Z</time></trkpt><trkpt lat="45.1481853" lon="10.7898128"><ele>15.0</ele><time>2026-05-02T15:54:49.035Z</time></trkpt><trkpt lat="45.1481929" lon="10.7896877"><ele>15.0</ele><time>2026-05-02T15:54:52.035Z</time></trkpt><trkpt lat="45.1481882" lon="10.789564"><ele>15.0</ele><time>2026-05-02T15:54:55.036Z</time></trkpt><trkpt lat="45.148172" lon="10.7894412"><ele>15.0</ele><time>2026-05-02T15:54:58.035Z</time></trkpt><trkpt lat="45.1481527" lon="10.7893534"><ele>15.0</ele><time>2026-05-02T15:55:00.035Z</time></trkpt><trkpt lat="45.1481287" lon="10.7892672"><ele>15.0</ele><time>2026-05-02T15:55:02.034Z</time></trkpt><trkpt lat="45.148099" lon="10.7891868"><ele>15.285714285714286</ele><time>2026-05-02T15:55:04.035Z</time></trkpt><trkpt lat="45.1480612" lon="10.7891143"><ele>15.57142857142857</ele><time>2026-05-02T15:55:06.034Z</time></trkpt><trkpt lat="45.1480178" lon="10.7890494"><ele>15.857142857142856</ele><time>2026-05-02T15:55:08.036Z</time></trkpt><trkpt lat="45.1479669" lon="10.7889893"><ele>16.142857142857142</ele><time>2026-05-02T15:55:10.035Z</time></trkpt><trkpt lat="45.1478957" lon="10.7889151"><ele>16.428571428571427</ele><time>2026-05-02T15:55:13.035Z</time></trkpt><trkpt lat="45.14786" lon="10.7888216"><ele>16.71428571428571</ele><time>2026-05-02T15:55:16.035Z</time></trkpt><trkpt lat="45.1478825" lon="10.7887196"><ele>17.0</ele><time>2026-05-02T15:55:19.035Z</time></trkpt><trkpt lat="45.1479046" lon="10.7886119"><ele>16.999999999999996</ele><time>2026-05-02T15:55:22.035Z</time></trkpt><trkpt lat="45.1479034" lon="10.7885133"><ele>17.0</ele><time>2026-05-02T15:55:25.035Z</time></trkpt><trkpt lat="45.1479078" lon="10.7884173"><ele>17.0</ele><time>2026-05-02T15:55:28.036Z</time></trkpt><trkpt lat="45.1478989" lon="10.7883228"><ele>17.0</ele><time>2026-05-02T15:55:31.034Z</time></trkpt><trkpt lat="45.1478379" lon="10.7882758"><ele>17.0</ele><time>2026-05-02T15:55:34.034Z</time></trkpt><trkpt lat="45.1477766" lon="10.788217"><ele>16.999999999999996</ele><time>2026-05-02T15:55:38.035Z</time></trkpt><trkpt lat="45.1477838" lon="10.7881133"><ele>17.0</ele><time>2026-05-02T15:55:41.036Z</time></trkpt><trkpt lat="45.1478154" lon="10.7880091"><ele>17.166666666666668</ele><time>2026-05-02T15:55:44.034Z</time></trkpt><trkpt lat="45.1478442" lon="10.7878924"><ele>17.333333333333336</ele><time>2026-05-02T15:55:47.036Z</time></trkpt><trkpt lat="45.1478752" lon="10.7877685"><ele>17.5</ele><time>2026-05-02T15:55:50.034Z</time></trkpt><trkpt lat="45.1479033" lon="10.7876424"><ele>17.666666666666668</ele><time>2026-05-02T15:55:53.035Z</time></trkpt><trkpt lat="45.1479239" lon="10.787555"><ele>17.833333333333332</ele><time>2026-05-02T15:55:55.034Z</time></trkpt><trkpt lat="45.1479565" lon="10.7874312"><ele>18.0</ele><time>2026-05-02T15:55:58.035Z</time></trkpt><trkpt lat="45.1479791" lon="10.7873445"><ele>18.000000000000004</ele><time>2026-05-02T15:56:00.035Z</time></trkpt><trkpt lat="45.1480064" lon="10.7872591"><ele>18.0</ele><time>2026-05-02T15:56:02.035Z</time></trkpt><trkpt lat="45.1480282" lon="10.7871727"><ele>18.0</ele><time>2026-05-02T15:56:04.034Z</time></trkpt><trkpt lat="45.1480471" lon="10.7870843"><ele>18.0</ele><time>2026-05-02T15:56:06.035Z</time></trkpt><trkpt lat="45.1480682" lon="10.7869967"><ele>18.0</ele><time>2026-05-02T15:56:08.035Z</time></trkpt><trkpt lat="45.1480894" lon="10.7869061"><ele>18.000000000000004</ele><time>2026-05-02T15:56:10.035Z</time></trkpt><trkpt lat="45.1481122" lon="10.7868163"><ele>18.0</ele><time>2026-05-02T15:56:12.034Z</time></trkpt><trkpt lat="45.1481376" lon="10.7867265"><ele>18.166666666666668</ele><time>2026-05-02T15:56:14.034Z</time></trkpt><trkpt lat="45.1481628" lon="10.7866365"><ele>18.333333333333332</ele><time>2026-05-02T15:56:16.035Z</time></trkpt><trkpt lat="45.1481796" lon="10.7865419"><ele>18.5</ele><time>2026-05-02T15:56:18.035Z</time></trkpt><trkpt lat="45.148203" lon="10.7864454"><ele>18.666666666666664</ele><time>2026-05-02T15:56:20.035Z</time></trkpt><trkpt lat="45.1482244" lon="10.7863528"><ele>18.833333333333332</ele><time>2026-05-02T15:56:22.035Z</time></trkpt><trkpt lat="45.1482447" lon="10.7862671"><ele>19.0</ele><time>2026-05-02T15:56:24.034Z</time></trkpt><trkpt lat="45.1482586" lon="10.7861022"><ele>19.333333333333332</ele><time>2026-05-02T15:56:28.035Z</time></trkpt><trkpt lat="45.1482134" lon="10.785993"><ele>19.666666666666664</ele><time>2026-05-02T15:56:31.035Z</time></trkpt><trkpt lat="45.1481415" lon="10.7859347"><ele>20.0</ele><time>2026-05-02T15:56:34.035Z</time></trkpt><trkpt lat="45.1481003" lon="10.7858451"><ele>20.333333333333332</ele><time>2026-05-02T15:56:37.036Z</time></trkpt><trkpt lat="45.1481287" lon="10.7857471"><ele>20.666666666666668</ele><time>2026-05-02T15:56:40.033Z</time></trkpt><trkpt lat="45.1481414" lon="10.7856368"><ele>21.0</ele><time>2026-05-02T15:56:43.035Z</time></trkpt><trkpt lat="45.1481441" lon="10.7855462"><ele>21.142857142857142</ele><time>2026-05-02T15:56:45.034Z</time></trkpt><trkpt lat="45.1481553" lon="10.7854542"><ele>21.285714285714285</ele><time>2026-05-02T15:56:47.033Z</time></trkpt><trkpt lat="45.1481523" lon="10.7853636"><ele>21.42857142857143</ele><time>2026-05-02T15:56:49.035Z</time></trkpt><trkpt lat="45.1481313" lon="10.7852791"><ele>21.57142857142857</ele><time>2026-05-02T15:56:51.034Z</time></trkpt><trkpt lat="45.1480995" lon="10.7851933"><ele>21.714285714285715</ele><time>2026-05-02T15:56:53.035Z</time></trkpt><trkpt lat="45.1480625" lon="10.7851182"><ele>21.857142857142858</ele><time>2026-05-02T15:56:55.034Z</time></trkpt><trkpt lat="45.1480322" lon="10.7850398"><ele>22.0</ele><time>2026-05-02T15:56:57.033Z</time></trkpt><trkpt lat="45.148036" lon="10.7849492"><ele>21.666666666666664</ele><time>2026-05-02T15:56:59.035Z</time></trkpt><trkpt lat="45.1480591" lon="10.7848564"><ele>21.333333333333332</ele><time>2026-05-02T15:57:01.034Z</time></trkpt><trkpt lat="45.1480759" lon="10.7847651"><ele>21.0</ele><time>2026-05-02T15:57:03.035Z</time></trkpt><trkpt lat="45.1480943" lon="10.7846789"><ele>20.666666666666668</ele><time>2026-05-02T15:57:05.034Z</time></trkpt><trkpt lat="45.1481209" lon="10.7845611"><ele>20.333333333333336</ele><time>2026-05-02T15:57:08.034Z</time></trkpt><trkpt lat="45.1481482" lon="10.7844509"><ele>20.0</ele><time>2026-05-02T15:57:11.035Z</time></trkpt><trkpt lat="45.1481892" lon="10.7843308"><ele>19.833333333333336</ele><time>2026-05-02T15:57:14.034Z</time></trkpt><trkpt lat="45.1482117" lon="10.784239"><ele>19.666666666666668</ele><time>2026-05-02T15:57:16.035Z</time></trkpt><trkpt lat="45.1482421" lon="10.7841159"><ele>19.5</ele><time>2026-05-02T15:57:19.034Z</time></trkpt><trkpt lat="45.1482733" lon="10.7839982"><ele>19.333333333333332</ele><time>2026-05-02T15:57:22.035Z</time></trkpt><trkpt lat="45.1483132" lon="10.7838888"><ele>19.166666666666664</ele><time>2026-05-02T15:57:25.034Z</time></trkpt><trkpt lat="45.1483483" lon="10.7837925"><ele>19.0</ele><time>2026-05-02T15:57:28.035Z</time></trkpt><trkpt lat="45.148371" lon="10.7836918"><ele>19.0</ele><time>2026-05-02T15:57:31.034Z</time></trkpt><trkpt lat="45.1484071" lon="10.7835901"><ele>19.0</ele><time>2026-05-02T15:57:34.033Z</time></trkpt><trkpt lat="45.1484071" lon="10.7835901"><ele>19.0</ele><time>2026-05-02T15:57:34.033Z</time></trkpt></trkseg></trk></gpx>